<?xml version='1.0' encoding='UTF-8'?><gpx version="1.1" creator="JPX - https://github.com/jenetics/jpx" xmlns="http://www.topografix.com/GPX/1/1"><trk><trkseg><trkpt lat="45.6276556" lon="9.0309163"><ele>216.0</ele><time>2026-03-29T15:19:01.969Z</time></trkpt><trkpt lat="45.6277605" lon="9.0308761"><ele>216.0</ele><time>2026-03-29T15:19:40.97Z</time></trkpt><trkpt lat="45.6278379" lon="9.0308744"><ele>216.0</ele><time>2026-03-29T15:19:57.969Z</time></trkpt><trkpt lat="45.6278234" lon="9.0307065"><ele>216.0</ele><time>2026-03-29T15:20:35.968Z</time></trkpt><trkpt lat="45.6278526" lon="9.0307932"><ele>216.0</ele><time>2026-03-29T15:20:44.968Z</time></trkpt><trkpt lat="45.6278205" lon="9.0308725"><ele>216.0</ele><time>2026-03-29T15:22:24.969Z</time></trkpt><trkpt lat="45.6278475" lon="9.0309704"><ele>216.0</ele><time>2026-03-29T15:22:29.969Z</time></trkpt><trkpt lat="45.6278173" lon="9.031051"><ele>216.0</ele><time>2026-03-29T15:22:34.968Z</time></trkpt><trkpt lat="45.6277457" lon="9.0310498"><ele>216.0</ele><time>2026-03-29T15:22:36.967Z</time></trkpt><trkpt lat="45.6276743" lon="9.0310282"><ele>216.0</ele><time>2026-03-29T15:22:38.967Z</time></trkpt><trkpt lat="45.6276037" lon="9.031014"><ele>216.0</ele><time>2026-03-29T15:22:40.968Z</time></trkpt><trkpt lat="45.627516" lon="9.0310014"><ele>216.0</ele><time>2026-03-29T15:22:47.968Z</time></trkpt><trkpt lat="45.6274455" lon="9.0309817"><ele>216.0</ele><time>2026-03-29T15:22:49.966Z</time></trkpt><trkpt lat="45.627382" lon="9.0309639"><ele>216.0</ele><time>2026-03-29T15:22:51.967Z</time></trkpt><trkpt lat="45.6273031" lon="9.0309428"><ele>216.00000000000003</ele><time>2026-03-29T15:22:53.968Z</time></trkpt><trkpt lat="45.6272205" lon="9.0309345"><ele>216.00000000000003</ele><time>2026-03-29T15:22:55.968Z</time></trkpt><trkpt lat="45.6271172" lon="9.0309445"><ele>216.0</ele><time>2026-03-29T15:22:57.968Z</time></trkpt><trkpt lat="45.6270238" lon="9.0309613"><ele>216.0</ele><time>2026-03-29T15:22:59.967Z</time></trkpt><trkpt lat="45.6269108" lon="9.0309685"><ele>216.20000000000002</ele><time>2026-03-29T15:23:01.967Z</time></trkpt><trkpt lat="45.626798" lon="9.0309607"><ele>216.40000000000003</ele><time>2026-03-29T15:23:03.968Z</time></trkpt><trkpt lat="45.6266807" lon="9.0309547"><ele>216.6</ele><time>2026-03-29T15:23:05.968Z</time></trkpt><trkpt lat="45.6265739" lon="9.0309373"><ele>216.8</ele><time>2026-03-29T15:23:07.967Z</time></trkpt><trkpt lat="45.6264685" lon="9.0309151"><ele>217.0</ele><time>2026-03-29T15:23:09.968Z</time></trkpt><trkpt lat="45.6263692" lon="9.0309044"><ele>216.99999999999997</ele><time>2026-03-29T15:23:11.968Z</time></trkpt><trkpt lat="45.6262965" lon="9.0309029"><ele>217.0</ele><time>2026-03-29T15:23:13.967Z</time></trkpt><trkpt lat="45.6262262" lon="9.0308983"><ele>217.0</ele><time>2026-03-29T15:23:16.968Z</time></trkpt><trkpt lat="45.626183" lon="9.0308235"><ele>217.0</ele><time>2026-03-29T15:23:22.968Z</time></trkpt><trkpt lat="45.6261919" lon="9.0306896"><ele>216.99999999999997</ele><time>2026-03-29T15:23:24.967Z</time></trkpt><trkpt lat="45.6261994" lon="9.0305491"><ele>217.0</ele><time>2026-03-29T15:23:26.968Z</time></trkpt><trkpt lat="45.626209" lon="9.0304327"><ele>217.16666666666666</ele><time>2026-03-29T15:23:28.968Z</time></trkpt><trkpt lat="45.6262081" lon="9.0303371"><ele>217.33333333333331</ele><time>2026-03-29T15:23:30.968Z</time></trkpt><trkpt lat="45.6262164" lon="9.0302201"><ele>217.5</ele><time>2026-03-29T15:23:33.968Z</time></trkpt><trkpt lat="45.6262548" lon="9.0301441"><ele>217.66666666666669</ele><time>2026-03-29T15:23:37.967Z</time></trkpt><trkpt lat="45.6263501" lon="9.0301289"><ele>217.83333333333334</ele><time>2026-03-29T15:23:40.968Z</time></trkpt><trkpt lat="45.626452" lon="9.0301369"><ele>218.0</ele><time>2026-03-29T15:23:42.968Z</time></trkpt><trkpt lat="45.626568" lon="9.0301548"><ele>218.0</ele><time>2026-03-29T15:23:44.967Z</time></trkpt><trkpt lat="45.6266794" lon="9.0301504"><ele>218.0</ele><time>2026-03-29T15:23:46.967Z</time></trkpt><trkpt lat="45.6267739" lon="9.0301602"><ele>218.0</ele><time>2026-03-29T15:23:48.967Z</time></trkpt><trkpt lat="45.626872" lon="9.030103"><ele>218.0</ele><time>2026-03-29T15:23:50.967Z</time></trkpt><trkpt lat="45.6269494" lon="9.0301317"><ele>218.0</ele><time>2026-03-29T15:23:52.968Z</time></trkpt><trkpt lat="45.6270429" lon="9.0301436"><ele>217.2</ele><time>2026-03-29T15:23:54.968Z</time></trkpt><trkpt lat="45.6271567" lon="9.0302029"><ele>216.4</ele><time>2026-03-29T15:23:56.967Z</time></trkpt><trkpt lat="45.627237" lon="9.0302212"><ele>215.59999999999997</ele><time>2026-03-29T15:23:57.968Z</time></trkpt><trkpt lat="45.6273287" lon="9.0301938"><ele>214.79999999999998</ele><time>2026-03-29T15:23:58.967Z</time></trkpt><trkpt lat="45.6274287" lon="9.0301242"><ele>214.0</ele><time>2026-03-29T15:23:59.966Z</time></trkpt><trkpt lat="45.6275043" lon="9.0301177"><ele>213.99999999999997</ele><time>2026-03-29T15:24:00.967Z</time></trkpt><trkpt lat="45.6275747" lon="9.0301153"><ele>214.0</ele><time>2026-03-29T15:24:01.967Z</time></trkpt><trkpt lat="45.6276457" lon="9.0301147"><ele>214.0</ele><time>2026-03-29T15:24:02.968Z</time></trkpt><trkpt lat="45.6277214" lon="9.0301241"><ele>214.0</ele><time>2026-03-29T15:24:03.968Z</time></trkpt><trkpt lat="45.627787" lon="9.0301241"><ele>213.99999999999997</ele><time>2026-03-29T15:24:04.968Z</time></trkpt><trkpt lat="45.6279037" lon="9.0301196"><ele>214.0</ele><time>2026-03-29T15:24:06.966Z</time></trkpt><trkpt lat="45.6279714" lon="9.0301218"><ele>214.49999999999997</ele><time>2026-03-29T15:24:07.968Z</time></trkpt><trkpt lat="45.6280818" lon="9.0301137"><ele>215.0</ele><time>2026-03-29T15:24:09.967Z</time></trkpt><trkpt lat="45.6281609" lon="9.0301154"><ele>215.5</ele><time>2026-03-29T15:24:11.966Z</time></trkpt><trkpt lat="45.6282421" lon="9.0301271"><ele>216.0</ele><time>2026-03-29T15:24:13.967Z</time></trkpt><trkpt lat="45.6282965" lon="9.0301772"><ele>216.49999999999997</ele><time>2026-03-29T15:24:15.967Z</time></trkpt><trkpt lat="45.6283016" lon="9.0302697"><ele>217.0</ele><time>2026-03-29T15:24:26.968Z</time></trkpt><trkpt lat="45.6282851" lon="9.0303652"><ele>217.0</ele><time>2026-03-29T15:24:29.967Z</time></trkpt><trkpt lat="45.6282841" lon="9.0304589"><ele>217.0</ele><time>2026-03-29T15:24:33.968Z</time></trkpt><trkpt lat="45.6282068" lon="9.0304242"><ele>217.0</ele><time>2026-03-29T15:25:06.967Z</time></trkpt><trkpt lat="45.6281393" lon="9.0304196"><ele>217.0</ele><time>2026-03-29T15:25:08.966Z</time></trkpt><trkpt lat="45.6281295" lon="9.0305319"><ele>217.0</ele><time>2026-03-29T15:25:27.967Z</time></trkpt><trkpt lat="45.6280637" lon="9.0305403"><ele>217.0</ele><time>2026-03-29T15:25:32.967Z</time></trkpt><trkpt lat="45.628023" lon="9.0306102"><ele>217.0</ele><time>2026-03-29T15:25:37.966Z</time></trkpt><trkpt lat="45.6280311" lon="9.0304992"><ele>217.0</ele><time>2026-03-29T15:25:49.966Z</time></trkpt><trkpt lat="45.6280517" lon="9.03035"><ele>217.0</ele><time>2026-03-29T15:26:32.966Z</time></trkpt><trkpt lat="45.6281147" lon="9.0303722"><ele>217.0</ele><time>2026-03-29T15:26:35.967Z</time></trkpt><trkpt lat="45.6281624" lon="9.0304374"><ele>217.0</ele><time>2026-03-29T15:26:38.966Z</time></trkpt><trkpt lat="45.628227" lon="9.0304452"><ele>217.0</ele><time>2026-03-29T15:26:44.946Z</time></trkpt><trkpt lat="45.6282855" lon="9.0304933"><ele>217.0</ele><time>2026-03-29T15:28:11.965Z</time></trkpt><trkpt lat="45.6282702" lon="9.0303924"><ele>217.0</ele><time>2026-03-29T15:28:27.966Z</time></trkpt><trkpt lat="45.628313" lon="9.0302753"><ele>217.0</ele><time>2026-03-29T15:28:29.966Z</time></trkpt><trkpt lat="45.6283522" lon="9.0301773"><ele>217.0</ele><time>2026-03-29T15:28:31.966Z</time></trkpt><trkpt lat="45.6284388" lon="9.0302006"><ele>217.0</ele><time>2026-03-29T15:28:40.965Z</time></trkpt><trkpt lat="45.6285204" lon="9.0302385"><ele>217.0</ele><time>2026-03-29T15:28:42.966Z</time></trkpt><trkpt lat="45.6286135" lon="9.0302389"><ele>217.0</ele><time>2026-03-29T15:28:44.965Z</time></trkpt><trkpt lat="45.6287205" lon="9.0301998"><ele>217.6</ele><time>2026-03-29T15:28:46.966Z</time></trkpt><trkpt lat="45.6288512" lon="9.0301684"><ele>218.2</ele><time>2026-03-29T15:28:48.965Z</time></trkpt><trkpt lat="45.6289163" lon="9.0301646"><ele>218.8</ele><time>2026-03-29T15:28:49.966Z</time></trkpt><trkpt lat="45.6289798" lon="9.0301654"><ele>219.4</ele><time>2026-03-29T15:28:50.966Z</time></trkpt><trkpt lat="45.6290977" lon="9.0301598"><ele>220.0</ele><time>2026-03-29T15:28:52.965Z</time></trkpt><trkpt lat="45.6291721" lon="9.0301434"><ele>219.99999999999997</ele><time>2026-03-29T15:28:53.965Z</time></trkpt><trkpt lat="45.6292616" lon="9.0301686"><ele>220.0</ele><time>2026-03-29T15:28:55.966Z</time></trkpt><trkpt lat="45.6293423" lon="9.030198"><ele>220.0</ele><time>2026-03-29T15:28:58.966Z</time></trkpt><trkpt lat="45.6294135" lon="9.0302082"><ele>220.0</ele><time>2026-03-29T15:28:59.966Z</time></trkpt><trkpt lat="45.6294769" lon="9.0302158"><ele>219.99999999999997</ele><time>2026-03-29T15:29:00.966Z</time></trkpt><trkpt lat="45.6295938" lon="9.0301914"><ele>220.0</ele><time>2026-03-29T15:29:02.966Z</time></trkpt><trkpt lat="45.629613" lon="9.0300662"><ele>220.0</ele><time>2026-03-29T15:29:04.966Z</time></trkpt><trkpt lat="45.6295406" lon="9.0300112"><ele>220.0</ele><time>2026-03-29T15:29:06.966Z</time></trkpt><trkpt lat="45.6294732" lon="9.0300349"><ele>220.0</ele><time>2026-03-29T15:29:09.964Z</time></trkpt><trkpt lat="45.6293931" lon="9.0300367"><ele>220.0</ele><time>2026-03-29T15:29:12.966Z</time></trkpt><trkpt lat="45.6292887" lon="9.0300604"><ele>220.0</ele><time>2026-03-29T15:29:14.965Z</time></trkpt><trkpt lat="45.6291752" lon="9.0301214"><ele>220.0</ele><time>2026-03-29T15:29:16.965Z</time></trkpt><trkpt lat="45.6290499" lon="9.0301366"><ele>220.0</ele><time>2026-03-29T15:29:18.966Z</time></trkpt><trkpt lat="45.6289718" lon="9.030138"><ele>220.0</ele><time>2026-03-29T15:29:19.965Z</time></trkpt><trkpt lat="45.6288801" lon="9.030141"><ele>220.0</ele><time>2026-03-29T15:29:20.966Z</time></trkpt><trkpt lat="45.6287838" lon="9.0301455"><ele>220.0</ele><time>2026-03-29T15:29:21.965Z</time></trkpt><trkpt lat="45.6286904" lon="9.0301428"><ele>219.4</ele><time>2026-03-29T15:29:22.966Z</time></trkpt><trkpt lat="45.6285998" lon="9.0301308"><ele>218.8</ele><time>2026-03-29T15:29:23.966Z</time></trkpt><trkpt lat="45.6285068" lon="9.0301333"><ele>218.2</ele><time>2026-03-29T15:29:24.966Z</time></trkpt><trkpt lat="45.6284068" lon="9.0301416"><ele>217.6</ele><time>2026-03-29T15:29:25.966Z</time></trkpt><trkpt lat="45.6283101" lon="9.0301456"><ele>217.0</ele><time>2026-03-29T15:29:26.965Z</time></trkpt><trkpt lat="45.6282129" lon="9.0301443"><ele>217.0</ele><time>2026-03-29T15:29:27.966Z</time></trkpt><trkpt lat="45.6281145" lon="9.0301498"><ele>217.0</ele><time>2026-03-29T15:29:28.966Z</time></trkpt><trkpt lat="45.6280127" lon="9.0301391"><ele>217.0</ele><time>2026-03-29T15:29:29.965Z</time></trkpt><trkpt lat="45.6279047" lon="9.0301447"><ele>217.0</ele><time>2026-03-29T15:29:30.966Z</time></trkpt><trkpt lat="45.6277978" lon="9.0301456"><ele>217.0</ele><time>2026-03-29T15:29:31.966Z</time></trkpt><trkpt lat="45.6276893" lon="9.0301449"><ele>216.39999999999998</ele><time>2026-03-29T15:29:32.965Z</time></trkpt><trkpt lat="45.6275883" lon="9.0301471"><ele>215.79999999999998</ele><time>2026-03-29T15:29:33.965Z</time></trkpt><trkpt lat="45.6274867" lon="9.0301384"><ele>215.2</ele><time>2026-03-29T15:29:34.966Z</time></trkpt><trkpt lat="45.6273901" lon="9.0301197"><ele>214.6</ele><time>2026-03-29T15:29:35.966Z</time></trkpt><trkpt lat="45.6272829" lon="9.0301188"><ele>214.0</ele><time>2026-03-29T15:29:36.966Z</time></trkpt><trkpt lat="45.6271678" lon="9.0301231"><ele>214.0</ele><time>2026-03-29T15:29:37.966Z</time></trkpt><trkpt lat="45.6270514" lon="9.0301223"><ele>213.99999999999997</ele><time>2026-03-29T15:29:38.966Z</time></trkpt><trkpt lat="45.6269357" lon="9.0301206"><ele>213.99999999999997</ele><time>2026-03-29T15:29:39.966Z</time></trkpt><trkpt lat="45.6268283" lon="9.0301168"><ele>214.0</ele><time>2026-03-29T15:29:40.965Z</time></trkpt><trkpt lat="45.6267208" lon="9.0301173"><ele>214.0</ele><time>2026-03-29T15:29:41.965Z</time></trkpt><trkpt lat="45.6266213" lon="9.0301182"><ele>214.79999999999998</ele><time>2026-03-29T15:29:42.966Z</time></trkpt><trkpt lat="45.6265188" lon="9.0301089"><ele>215.59999999999997</ele><time>2026-03-29T15:29:43.966Z</time></trkpt><trkpt lat="45.6264229" lon="9.0301075"><ele>216.4</ele><time>2026-03-29T15:29:44.965Z</time></trkpt><trkpt lat="45.6263329" lon="9.0301034"><ele>217.2</ele><time>2026-03-29T15:29:45.966Z</time></trkpt><trkpt lat="45.6262488" lon="9.030095"><ele>218.0</ele><time>2026-03-29T15:29:46.965Z</time></trkpt><trkpt lat="45.6261651" lon="9.0300963"><ele>217.00000000000003</ele><time>2026-03-29T15:29:47.966Z</time></trkpt><trkpt lat="45.6260885" lon="9.0301013"><ele>216.0</ele><time>2026-03-29T15:29:48.966Z</time></trkpt><trkpt lat="45.6260126" lon="9.0301306"><ele>215.0</ele><time>2026-03-29T15:29:49.964Z</time></trkpt><trkpt lat="45.6259423" lon="9.0302001"><ele>214.0</ele><time>2026-03-29T15:29:50.966Z</time></trkpt><trkpt lat="45.6258772" lon="9.0302895"><ele>213.00000000000003</ele><time>2026-03-29T15:29:51.966Z</time></trkpt><trkpt lat="45.6258161" lon="9.0303797"><ele>212.0</ele><time>2026-03-29T15:29:52.966Z</time></trkpt><trkpt lat="45.625749" lon="9.0304745"><ele>212.00000000000003</ele><time>2026-03-29T15:29:53.966Z</time></trkpt><trkpt lat="45.6256819" lon="9.0305686"><ele>212.0</ele><time>2026-03-29T15:29:54.966Z</time></trkpt><trkpt lat="45.6256191" lon="9.0306619"><ele>212.0</ele><time>2026-03-29T15:29:55.965Z</time></trkpt><trkpt lat="45.6255589" lon="9.0307527"><ele>212.0</ele><time>2026-03-29T15:29:56.965Z</time></trkpt><trkpt lat="45.6255037" lon="9.0308281"><ele>212.00000000000003</ele><time>2026-03-29T15:29:57.965Z</time></trkpt><trkpt lat="45.6254527" lon="9.030897"><ele>212.0</ele><time>2026-03-29T15:29:58.965Z</time></trkpt><trkpt lat="45.6254062" lon="9.0309719"><ele>212.00000000000003</ele><time>2026-03-29T15:29:59.966Z</time></trkpt><trkpt lat="45.6253519" lon="9.0310528"><ele>212.0</ele><time>2026-03-29T15:30:00.966Z</time></trkpt><trkpt lat="45.6252932" lon="9.0311365"><ele>212.0</ele><time>2026-03-29T15:30:01.965Z</time></trkpt><trkpt lat="45.6252309" lon="9.0312257"><ele>212.0</ele><time>2026-03-29T15:30:02.965Z</time></trkpt><trkpt lat="45.6251677" lon="9.0313233"><ele>212.00000000000003</ele><time>2026-03-29T15:30:03.965Z</time></trkpt><trkpt lat="45.6251055" lon="9.031427"><ele>212.0</ele><time>2026-03-29T15:30:04.965Z</time></trkpt><trkpt lat="45.6250497" lon="9.0315318"><ele>212.6</ele><time>2026-03-29T15:30:05.966Z</time></trkpt><trkpt lat="45.6250006" lon="9.031645"><ele>213.2</ele><time>2026-03-29T15:30:06.966Z</time></trkpt><trkpt lat="45.6249612" lon="9.0317675"><ele>213.8</ele><time>2026-03-29T15:30:07.965Z</time></trkpt><trkpt lat="45.6249331" lon="9.0319014"><ele>214.4</ele><time>2026-03-29T15:30:08.965Z</time></trkpt><trkpt lat="45.6249103" lon="9.0320325"><ele>215.0</ele><time>2026-03-29T15:30:09.965Z</time></trkpt><trkpt lat="45.6248884" lon="9.0321509"><ele>215.00000000000003</ele><time>2026-03-29T15:30:10.964Z</time></trkpt><trkpt lat="45.6248662" lon="9.0322646"><ele>215.0</ele><time>2026-03-29T15:30:11.964Z</time></trkpt><trkpt lat="45.6248444" lon="9.0323763"><ele>215.0</ele><time>2026-03-29T15:30:12.965Z</time></trkpt><trkpt lat="45.6248242" lon="9.0324863"><ele>215.0</ele><time>2026-03-29T15:30:13.966Z</time></trkpt><trkpt lat="45.6248036" lon="9.0325986"><ele>215.00000000000003</ele><time>2026-03-29T15:30:14.966Z</time></trkpt><trkpt lat="45.6247858" lon="9.0327033"><ele>215.0</ele><time>2026-03-29T15:30:15.966Z</time></trkpt><trkpt lat="45.624766" lon="9.0327995"><ele>215.00000000000003</ele><time>2026-03-29T15:30:16.966Z</time></trkpt><trkpt lat="45.6247496" lon="9.0329016"><ele>215.0</ele><time>2026-03-29T15:30:17.966Z</time></trkpt><trkpt lat="45.6247346" lon="9.0330039"><ele>215.0</ele><time>2026-03-29T15:30:18.966Z</time></trkpt><trkpt lat="45.6247161" lon="9.0331045"><ele>215.0</ele><time>2026-03-29T15:30:19.965Z</time></trkpt><trkpt lat="45.6247" lon="9.0332098"><ele>215.00000000000003</ele><time>2026-03-29T15:30:20.966Z</time></trkpt><trkpt lat="45.6246772" lon="9.0333237"><ele>215.0</ele><time>2026-03-29T15:30:21.966Z</time></trkpt><trkpt lat="45.6246554" lon="9.0334334"><ele>214.83333333333334</ele><time>2026-03-29T15:30:22.966Z</time></trkpt><trkpt lat="45.6246292" lon="9.0335399"><ele>214.66666666666669</ele><time>2026-03-29T15:30:23.966Z</time></trkpt><trkpt lat="45.6246061" lon="9.0336501"><ele>214.5</ele><time>2026-03-29T15:30:24.966Z</time></trkpt><trkpt lat="45.6245816" lon="9.0337642"><ele>214.33333333333331</ele><time>2026-03-29T15:30:25.965Z</time></trkpt><trkpt lat="45.6245583" lon="9.0338786"><ele>214.16666666666666</ele><time>2026-03-29T15:30:26.964Z</time></trkpt><trkpt lat="45.6245379" lon="9.0339918"><ele>214.0</ele><time>2026-03-29T15:30:27.966Z</time></trkpt><trkpt lat="45.6245207" lon="9.0341001"><ele>213.85714285714286</ele><time>2026-03-29T15:30:28.966Z</time></trkpt><trkpt lat="45.6244989" lon="9.0342053"><ele>213.71428571428572</ele><time>2026-03-29T15:30:29.965Z</time></trkpt><trkpt lat="45.6244795" lon="9.0343119"><ele>213.57142857142856</ele><time>2026-03-29T15:30:30.964Z</time></trkpt><trkpt lat="45.6244568" lon="9.0344166"><ele>213.42857142857144</ele><time>2026-03-29T15:30:31.966Z</time></trkpt><trkpt lat="45.624438" lon="9.0345174"><ele>213.28571428571428</ele><time>2026-03-29T15:30:32.966Z</time></trkpt><trkpt lat="45.6244135" lon="9.0346175"><ele>213.14285714285714</ele><time>2026-03-29T15:30:33.965Z</time></trkpt><trkpt lat="45.624394" lon="9.0347106"><ele>213.0</ele><time>2026-03-29T15:30:34.966Z</time></trkpt><trkpt lat="45.6243795" lon="9.0348053"><ele>213.0</ele><time>2026-03-29T15:30:35.965Z</time></trkpt><trkpt lat="45.624363" lon="9.0349033"><ele>213.0</ele><time>2026-03-29T15:30:36.966Z</time></trkpt><trkpt lat="45.6243445" lon="9.0349971"><ele>213.0</ele><time>2026-03-29T15:30:37.966Z</time></trkpt><trkpt lat="45.6243242" lon="9.0350848"><ele>213.0</ele><time>2026-03-29T15:30:38.965Z</time></trkpt><trkpt lat="45.6243052" lon="9.0351717"><ele>213.0</ele><time>2026-03-29T15:30:39.966Z</time></trkpt><trkpt lat="45.624274" lon="9.0353273"><ele>213.0</ele><time>2026-03-29T15:30:41.965Z</time></trkpt><trkpt lat="45.6242531" lon="9.0354469"><ele>213.0</ele><time>2026-03-29T15:30:43.966Z</time></trkpt><trkpt lat="45.6242311" lon="9.0355474"><ele>213.0</ele><time>2026-03-29T15:30:45.964Z</time></trkpt><trkpt lat="45.6242012" lon="9.0356346"><ele>213.0</ele><time>2026-03-29T15:30:47.965Z</time></trkpt><trkpt lat="45.6241631" lon="9.035713"><ele>213.0</ele><time>2026-03-29T15:30:49.966Z</time></trkpt><trkpt lat="45.6240877" lon="9.0357846"><ele>213.0</ele><time>2026-03-29T15:30:52.965Z</time></trkpt><trkpt lat="45.6240724" lon="9.0359066"><ele>213.0</ele><time>2026-03-29T15:30:54.965Z</time></trkpt><trkpt lat="45.6240842" lon="9.036059"><ele>213.5</ele><time>2026-03-29T15:30:56.965Z</time></trkpt><trkpt lat="45.6240902" lon="9.0362189"><ele>214.0</ele><time>2026-03-29T15:30:58.964Z</time></trkpt><trkpt lat="45.6240921" lon="9.0363886"><ele>214.5</ele><time>2026-03-29T15:31:00.964Z</time></trkpt><trkpt lat="45.6240908" lon="9.0365466"><ele>215.0</ele><time>2026-03-29T15:31:02.965Z</time></trkpt><trkpt lat="45.624087" lon="9.0367271"><ele>215.2</ele><time>2026-03-29T15:31:04.965Z</time></trkpt><trkpt lat="45.6240851" lon="9.0368961"><ele>215.4</ele><time>2026-03-29T15:31:06.964Z</time></trkpt><trkpt lat="45.6240839" lon="9.0370748"><ele>215.60000000000002</ele><time>2026-03-29T15:31:08.965Z</time></trkpt><trkpt lat="45.6240858" lon="9.037166"><ele>215.8</ele><time>2026-03-29T15:31:09.965Z</time></trkpt><trkpt lat="45.6240814" lon="9.037342"><ele>216.0</ele><time>2026-03-29T15:31:11.964Z</time></trkpt><trkpt lat="45.6240809" lon="9.0374378"><ele>215.4</ele><time>2026-03-29T15:31:12.964Z</time></trkpt><trkpt lat="45.6240797" lon="9.0375351"><ele>214.8</ele><time>2026-03-29T15:31:13.964Z</time></trkpt><trkpt lat="45.62408" lon="9.0377035"><ele>214.20000000000002</ele><time>2026-03-29T15:31:15.965Z</time></trkpt><trkpt lat="45.6240802" lon="9.0378828"><ele>213.60000000000002</ele><time>2026-03-29T15:31:17.963Z</time></trkpt><trkpt lat="45.6240788" lon="9.037975"><ele>213.0</ele><time>2026-03-29T15:31:18.963Z</time></trkpt><trkpt lat="45.6240757" lon="9.0381604"><ele>212.99999999999997</ele><time>2026-03-29T15:31:20.965Z</time></trkpt><trkpt lat="45.624069" lon="9.0382609"><ele>213.0</ele><time>2026-03-29T15:31:21.965Z</time></trkpt><trkpt lat="45.6240652" lon="9.038358"><ele>213.0</ele><time>2026-03-29T15:31:22.965Z</time></trkpt><trkpt lat="45.624062" lon="9.0384586"><ele>213.0</ele><time>2026-03-29T15:31:23.965Z</time></trkpt><trkpt lat="45.6240572" lon="9.0385602"><ele>213.0</ele><time>2026-03-29T15:31:24.965Z</time></trkpt><trkpt lat="45.6240526" lon="9.038662"><ele>212.99999999999997</ele><time>2026-03-29T15:31:25.965Z</time></trkpt><trkpt lat="45.6240501" lon="9.0387628"><ele>213.0</ele><time>2026-03-29T15:31:26.965Z</time></trkpt><trkpt lat="45.6240486" lon="9.0388581"><ele>212.99999999999997</ele><time>2026-03-29T15:31:27.964Z</time></trkpt><trkpt lat="45.6240477" lon="9.0389527"><ele>213.0</ele><time>2026-03-29T15:31:28.965Z</time></trkpt><trkpt lat="45.6240439" lon="9.0390472"><ele>213.0</ele><time>2026-03-29T15:31:29.965Z</time></trkpt><trkpt lat="45.6240387" lon="9.0391399"><ele>213.0</ele><time>2026-03-29T15:31:30.963Z</time></trkpt><trkpt lat="45.6240305" lon="9.0392368"><ele>213.0</ele><time>2026-03-29T15:31:31.965Z</time></trkpt><trkpt lat="45.6240251" lon="9.0393371"><ele>212.99999999999997</ele><time>2026-03-29T15:31:32.965Z</time></trkpt><trkpt lat="45.6240128" lon="9.039436"><ele>213.0</ele><time>2026-03-29T15:31:33.965Z</time></trkpt><trkpt lat="45.6240107" lon="9.0395327"><ele>212.99999999999997</ele><time>2026-03-29T15:31:34.965Z</time></trkpt><trkpt lat="45.6240087" lon="9.0396328"><ele>213.0</ele><time>2026-03-29T15:31:35.964Z</time></trkpt><trkpt lat="45.6240015" lon="9.0397318"><ele>213.0</ele><time>2026-03-29T15:31:36.965Z</time></trkpt><trkpt lat="45.6239959" lon="9.0398341"><ele>213.0</ele><time>2026-03-29T15:31:37.965Z</time></trkpt><trkpt lat="45.6239869" lon="9.0399336"><ele>213.0</ele><time>2026-03-29T15:31:38.965Z</time></trkpt><trkpt lat="45.6239775" lon="9.0400354"><ele>212.99999999999997</ele><time>2026-03-29T15:31:39.965Z</time></trkpt><trkpt lat="45.6239685" lon="9.0401399"><ele>213.0</ele><time>2026-03-29T15:31:40.964Z</time></trkpt><trkpt lat="45.6239665" lon="9.0402436"><ele>213.16666666666666</ele><time>2026-03-29T15:31:41.965Z</time></trkpt><trkpt lat="45.6239638" lon="9.0403406"><ele>213.33333333333331</ele><time>2026-03-29T15:31:42.965Z</time></trkpt><trkpt lat="45.6239599" lon="9.0405063"><ele>213.5</ele><time>2026-03-29T15:31:44.963Z</time></trkpt><trkpt lat="45.6239486" lon="9.0406129"><ele>213.66666666666666</ele><time>2026-03-29T15:31:46.963Z</time></trkpt><trkpt lat="45.6239497" lon="9.0407311"><ele>213.83333333333331</ele><time>2026-03-29T15:31:49.964Z</time></trkpt><trkpt lat="45.6239565" lon="9.0408727"><ele>214.0</ele><time>2026-03-29T15:31:51.965Z</time></trkpt><trkpt lat="45.6239506" lon="9.0409642"><ele>214.0</ele><time>2026-03-29T15:31:52.965Z</time></trkpt><trkpt lat="45.6239452" lon="9.0410561"><ele>213.99999999999997</ele><time>2026-03-29T15:31:53.965Z</time></trkpt><trkpt lat="45.6239423" lon="9.0411465"><ele>213.99999999999997</ele><time>2026-03-29T15:31:54.963Z</time></trkpt><trkpt lat="45.6239343" lon="9.041305"><ele>214.0</ele><time>2026-03-29T15:31:56.965Z</time></trkpt><trkpt lat="45.623939" lon="9.0414538"><ele>214.0</ele><time>2026-03-29T15:31:58.965Z</time></trkpt><trkpt lat="45.6239256" lon="9.0416176"><ele>213.49999999999997</ele><time>2026-03-29T15:32:00.965Z</time></trkpt><trkpt lat="45.6239251" lon="9.0417154"><ele>213.0</ele><time>2026-03-29T15:32:01.965Z</time></trkpt><trkpt lat="45.6239208" lon="9.0418274"><ele>212.5</ele><time>2026-03-29T15:32:02.963Z</time></trkpt><trkpt lat="45.6239173" lon="9.0419468"><ele>212.0</ele><time>2026-03-29T15:32:03.965Z</time></trkpt><trkpt lat="45.6239146" lon="9.0420831"><ele>211.49999999999997</ele><time>2026-03-29T15:32:04.964Z</time></trkpt><trkpt lat="45.6239108" lon="9.0422437"><ele>211.0</ele><time>2026-03-29T15:32:05.965Z</time></trkpt><trkpt lat="45.6239031" lon="9.0424044"><ele>211.25</ele><time>2026-03-29T15:32:06.965Z</time></trkpt><trkpt lat="45.6238946" lon="9.0425567"><ele>211.5</ele><time>2026-03-29T15:32:07.964Z</time></trkpt><trkpt lat="45.6238853" lon="9.0427152"><ele>211.75</ele><time>2026-03-29T15:32:08.963Z</time></trkpt><trkpt lat="45.6238765" lon="9.0428831"><ele>212.0</ele><time>2026-03-29T15:32:09.965Z</time></trkpt><trkpt lat="45.6238632" lon="9.0430583"><ele>212.0</ele><time>2026-03-29T15:32:10.964Z</time></trkpt><trkpt lat="45.623849" lon="9.0432423"><ele>212.0</ele><time>2026-03-29T15:32:11.964Z</time></trkpt><trkpt lat="45.6238317" lon="9.0434393"><ele>212.0</ele><time>2026-03-29T15:32:12.965Z</time></trkpt><trkpt lat="45.6238142" lon="9.0436436"><ele>212.0</ele><time>2026-03-29T15:32:13.965Z</time></trkpt><trkpt lat="45.6237967" lon="9.0438333"><ele>212.0</ele><time>2026-03-29T15:32:14.964Z</time></trkpt><trkpt lat="45.6237889" lon="9.0440109"><ele>212.0</ele><time>2026-03-29T15:32:15.965Z</time></trkpt><trkpt lat="45.623779" lon="9.0441835"><ele>212.0</ele><time>2026-03-29T15:32:16.964Z</time></trkpt><trkpt lat="45.623768" lon="9.0443537"><ele>212.0</ele><time>2026-03-29T15:32:17.964Z</time></trkpt><trkpt lat="45.6237594" lon="9.0445232"><ele>212.2</ele><time>2026-03-29T15:32:18.964Z</time></trkpt><trkpt lat="45.6237506" lon="9.0446838"><ele>212.39999999999998</ele><time>2026-03-29T15:32:19.963Z</time></trkpt><trkpt lat="45.6237446" lon="9.0448323"><ele>212.60000000000002</ele><time>2026-03-29T15:32:20.963Z</time></trkpt><trkpt lat="45.6237416" lon="9.044974"><ele>212.8</ele><time>2026-03-29T15:32:21.965Z</time></trkpt><trkpt lat="45.623735" lon="9.0451082"><ele>213.0</ele><time>2026-03-29T15:32:22.965Z</time></trkpt><trkpt lat="45.6237293" lon="9.045242"><ele>213.0</ele><time>2026-03-29T15:32:23.964Z</time></trkpt><trkpt lat="45.6237233" lon="9.045369"><ele>213.0</ele><time>2026-03-29T15:32:24.964Z</time></trkpt><trkpt lat="45.6237174" lon="9.0454878"><ele>213.0</ele><time>2026-03-29T15:32:25.965Z</time></trkpt><trkpt lat="45.6237146" lon="9.0455968"><ele>213.0</ele><time>2026-03-29T15:32:26.965Z</time></trkpt><trkpt lat="45.623711" lon="9.0457032"><ele>213.0</ele><time>2026-03-29T15:32:27.965Z</time></trkpt><trkpt lat="45.6237049" lon="9.0458035"><ele>213.0</ele><time>2026-03-29T15:32:28.964Z</time></trkpt><trkpt lat="45.6236972" lon="9.045904"><ele>213.14285714285714</ele><time>2026-03-29T15:32:29.965Z</time></trkpt><trkpt lat="45.6236894" lon="9.0459967"><ele>213.28571428571428</ele><time>2026-03-29T15:32:31.965Z</time></trkpt><trkpt lat="45.623676" lon="9.0461015"><ele>213.42857142857144</ele><time>2026-03-29T15:32:34.964Z</time></trkpt><trkpt lat="45.6236736" lon="9.0462508"><ele>213.57142857142856</ele><time>2026-03-29T15:32:36.965Z</time></trkpt><trkpt lat="45.6236777" lon="9.0463429"><ele>213.71428571428572</ele><time>2026-03-29T15:32:37.964Z</time></trkpt><trkpt lat="45.6236744" lon="9.0464361"><ele>213.85714285714286</ele><time>2026-03-29T15:32:38.965Z</time></trkpt><trkpt lat="45.6236719" lon="9.0465318"><ele>214.0</ele><time>2026-03-29T15:32:39.964Z</time></trkpt><trkpt lat="45.6236625" lon="9.0466299"><ele>214.0</ele><time>2026-03-29T15:32:40.965Z</time></trkpt><trkpt lat="45.6236597" lon="9.0467472"><ele>213.99999999999997</ele><time>2026-03-29T15:32:41.964Z</time></trkpt><trkpt lat="45.6236574" lon="9.0468864"><ele>213.99999999999997</ele><time>2026-03-29T15:32:42.965Z</time></trkpt><trkpt lat="45.6236498" lon="9.0470307"><ele>214.0</ele><time>2026-03-29T15:32:43.965Z</time></trkpt><trkpt lat="45.6236417" lon="9.047164"><ele>214.0</ele><time>2026-03-29T15:32:44.965Z</time></trkpt><trkpt lat="45.6236357" lon="9.0472887"><ele>214.00000000000003</ele><time>2026-03-29T15:32:45.965Z</time></trkpt><trkpt lat="45.6236303" lon="9.0474011"><ele>214.0</ele><time>2026-03-29T15:32:46.965Z</time></trkpt><trkpt lat="45.6236242" lon="9.0475062"><ele>214.0</ele><time>2026-03-29T15:32:47.964Z</time></trkpt><trkpt lat="45.6236174" lon="9.0476048"><ele>214.0</ele><time>2026-03-29T15:32:48.965Z</time></trkpt><trkpt lat="45.62361" lon="9.0477063"><ele>214.0</ele><time>2026-03-29T15:32:49.965Z</time></trkpt><trkpt lat="45.6235969" lon="9.0478075"><ele>214.00000000000003</ele><time>2026-03-29T15:32:50.965Z</time></trkpt><trkpt lat="45.6235922" lon="9.0479188"><ele>214.0</ele><time>2026-03-29T15:32:51.964Z</time></trkpt><trkpt lat="45.6235849" lon="9.0480357"><ele>213.99999999999997</ele><time>2026-03-29T15:32:52.965Z</time></trkpt><trkpt lat="45.6235744" lon="9.048143"><ele>214.0</ele><time>2026-03-29T15:32:53.965Z</time></trkpt><trkpt lat="45.6235727" lon="9.048263"><ele>214.0</ele><time>2026-03-29T15:32:54.965Z</time></trkpt><trkpt lat="45.6235655" lon="9.0483821"><ele>214.0</ele><time>2026-03-29T15:32:55.965Z</time></trkpt><trkpt lat="45.6235627" lon="9.048499"><ele>213.99999999999997</ele><time>2026-03-29T15:32:56.965Z</time></trkpt><trkpt lat="45.6235563" lon="9.048622"><ele>214.0</ele><time>2026-03-29T15:32:57.963Z</time></trkpt><trkpt lat="45.6235489" lon="9.0487425"><ele>214.0</ele><time>2026-03-29T15:32:58.964Z</time></trkpt><trkpt lat="45.6235447" lon="9.0488759"><ele>213.99999999999997</ele><time>2026-03-29T15:32:59.965Z</time></trkpt><trkpt lat="45.6235392" lon="9.04901"><ele>213.99999999999997</ele><time>2026-03-29T15:33:00.965Z</time></trkpt><trkpt lat="45.6235293" lon="9.0491466"><ele>214.0</ele><time>2026-03-29T15:33:01.964Z</time></trkpt><trkpt lat="45.6235157" lon="9.0493017"><ele>214.0</ele><time>2026-03-29T15:33:02.965Z</time></trkpt><trkpt lat="45.6235051" lon="9.0494702"><ele>214.25</ele><time>2026-03-29T15:33:03.965Z</time></trkpt><trkpt lat="45.6234962" lon="9.04965"><ele>214.5</ele><time>2026-03-29T15:33:04.965Z</time></trkpt><trkpt lat="45.6234857" lon="9.049818"><ele>214.75</ele><time>2026-03-29T15:33:05.965Z</time></trkpt><trkpt lat="45.6234786" lon="9.0499886"><ele>215.0</ele><time>2026-03-29T15:33:06.964Z</time></trkpt><trkpt lat="45.6234746" lon="9.0501669"><ele>215.0</ele><time>2026-03-29T15:33:07.964Z</time></trkpt><trkpt lat="45.623464" lon="9.0503452"><ele>215.0</ele><time>2026-03-29T15:33:08.963Z</time></trkpt><trkpt lat="45.623451" lon="9.0505311"><ele>215.0</ele><time>2026-03-29T15:33:09.965Z</time></trkpt><trkpt lat="45.6234388" lon="9.0507313"><ele>215.0</ele><time>2026-03-29T15:33:10.964Z</time></trkpt><trkpt lat="45.6234248" lon="9.0509477"><ele>214.33333333333334</ele><time>2026-03-29T15:33:11.964Z</time></trkpt><trkpt lat="45.6234087" lon="9.0511718"><ele>213.66666666666669</ele><time>2026-03-29T15:33:12.964Z</time></trkpt><trkpt lat="45.6233956" lon="9.05139"><ele>213.0</ele><time>2026-03-29T15:33:13.964Z</time></trkpt><trkpt lat="45.6233828" lon="9.0516049"><ele>212.75</ele><time>2026-03-29T15:33:14.965Z</time></trkpt><trkpt lat="45.6233621" lon="9.0518179"><ele>212.5</ele><time>2026-03-29T15:33:15.963Z</time></trkpt><trkpt lat="45.6233507" lon="9.0520281"><ele>212.25</ele><time>2026-03-29T15:33:16.965Z</time></trkpt><trkpt lat="45.6233383" lon="9.0522255"><ele>212.0</ele><time>2026-03-29T15:33:17.964Z</time></trkpt><trkpt lat="45.6233254" lon="9.0524319"><ele>212.5</ele><time>2026-03-29T15:33:18.964Z</time></trkpt><trkpt lat="45.6233097" lon="9.0526396"><ele>213.0</ele><time>2026-03-29T15:33:19.963Z</time></trkpt><trkpt lat="45.6232997" lon="9.052848"><ele>213.5</ele><time>2026-03-29T15:33:20.965Z</time></trkpt><trkpt lat="45.6232884" lon="9.0530656"><ele>214.0</ele><time>2026-03-29T15:33:21.965Z</time></trkpt><trkpt lat="45.6232771" lon="9.0532864"><ele>214.0</ele><time>2026-03-29T15:33:22.965Z</time></trkpt><trkpt lat="45.6232656" lon="9.0535091"><ele>214.0</ele><time>2026-03-29T15:33:23.965Z</time></trkpt><trkpt lat="45.6232519" lon="9.0537261"><ele>214.0</ele><time>2026-03-29T15:33:24.964Z</time></trkpt><trkpt lat="45.6232374" lon="9.0539444"><ele>213.0</ele><time>2026-03-29T15:33:25.965Z</time></trkpt><trkpt lat="45.6232284" lon="9.0541657"><ele>212.0</ele><time>2026-03-29T15:33:26.963Z</time></trkpt><trkpt lat="45.6232223" lon="9.0543911"><ele>211.0</ele><time>2026-03-29T15:33:27.965Z</time></trkpt><trkpt lat="45.6232271" lon="9.0546261"><ele>211.0</ele><time>2026-03-29T15:33:28.965Z</time></trkpt><trkpt lat="45.6232399" lon="9.0548703"><ele>211.0</ele><time>2026-03-29T15:33:29.964Z</time></trkpt><trkpt lat="45.6232567" lon="9.0551254"><ele>211.0</ele><time>2026-03-29T15:33:30.964Z</time></trkpt><trkpt lat="45.6232712" lon="9.0553794"><ele>211.0</ele><time>2026-03-29T15:33:31.965Z</time></trkpt><trkpt lat="45.6232791" lon="9.0556158"><ele>211.0</ele><time>2026-03-29T15:33:32.965Z</time></trkpt><trkpt lat="45.6232788" lon="9.0558381"><ele>211.0</ele><time>2026-03-29T15:33:33.964Z</time></trkpt><trkpt lat="45.6232708" lon="9.0560506"><ele>211.0</ele><time>2026-03-29T15:33:34.964Z</time></trkpt><trkpt lat="45.623255" lon="9.0562608"><ele>211.0</ele><time>2026-03-29T15:33:35.965Z</time></trkpt><trkpt lat="45.6232367" lon="9.056474"><ele>211.0</ele><time>2026-03-29T15:33:36.965Z</time></trkpt><trkpt lat="45.6232184" lon="9.0566868"><ele>211.0</ele><time>2026-03-29T15:33:37.965Z</time></trkpt><trkpt lat="45.6231965" lon="9.0568918"><ele>211.0</ele><time>2026-03-29T15:33:38.964Z</time></trkpt><trkpt lat="45.6231798" lon="9.0570862"><ele>211.0</ele><time>2026-03-29T15:33:39.965Z</time></trkpt><trkpt lat="45.6231639" lon="9.0572705"><ele>211.0</ele><time>2026-03-29T15:33:40.965Z</time></trkpt><trkpt lat="45.6231498" lon="9.0574469"><ele>211.0</ele><time>2026-03-29T15:33:41.964Z</time></trkpt><trkpt lat="45.6231378" lon="9.0576067"><ele>211.0</ele><time>2026-03-29T15:33:42.965Z</time></trkpt><trkpt lat="45.6231254" lon="9.0577577"><ele>211.0</ele><time>2026-03-29T15:33:43.962Z</time></trkpt><trkpt lat="45.623109" lon="9.0578884"><ele>211.0</ele><time>2026-03-29T15:33:44.964Z</time></trkpt><trkpt lat="45.6230915" lon="9.058011"><ele>211.0</ele><time>2026-03-29T15:33:45.963Z</time></trkpt><trkpt lat="45.6230693" lon="9.0581241"><ele>211.0</ele><time>2026-03-29T15:33:46.963Z</time></trkpt><trkpt lat="45.6230257" lon="9.0582294"><ele>210.99999999999997</ele><time>2026-03-29T15:33:47.963Z</time></trkpt><trkpt lat="45.6229604" lon="9.0583121"><ele>211.0</ele><time>2026-03-29T15:33:48.964Z</time></trkpt><trkpt lat="45.6228981" lon="9.0583966"><ele>211.0</ele><time>2026-03-29T15:33:49.963Z</time></trkpt><trkpt lat="45.6228581" lon="9.0585032"><ele>211.0</ele><time>2026-03-29T15:33:50.964Z</time></trkpt><trkpt lat="45.6228434" lon="9.0586185"><ele>210.99999999999997</ele><time>2026-03-29T15:33:51.964Z</time></trkpt><trkpt lat="45.6228556" lon="9.0587357"><ele>211.0</ele><time>2026-03-29T15:33:52.963Z</time></trkpt><trkpt lat="45.6228969" lon="9.0588446"><ele>211.0</ele><time>2026-03-29T15:33:53.962Z</time></trkpt><trkpt lat="45.62297" lon="9.0589015"><ele>211.0</ele><time>2026-03-29T15:33:54.964Z</time></trkpt><trkpt lat="45.6230626" lon="9.0588994"><ele>211.0</ele><time>2026-03-29T15:33:55.964Z</time></trkpt><trkpt lat="45.6231733" lon="9.0588627"><ele>211.0</ele><time>2026-03-29T15:33:56.964Z</time></trkpt><trkpt lat="45.6233028" lon="9.0588323"><ele>211.0</ele><time>2026-03-29T15:33:57.964Z</time></trkpt><trkpt lat="45.6234464" lon="9.058858"><ele>211.0</ele><time>2026-03-29T15:33:58.964Z</time></trkpt><trkpt lat="45.6235842" lon="9.0589077"><ele>211.0</ele><time>2026-03-29T15:33:59.964Z</time></trkpt><trkpt lat="45.6237243" lon="9.0589739"><ele>211.0</ele><time>2026-03-29T15:34:00.963Z</time></trkpt><trkpt lat="45.6238726" lon="9.0590455"><ele>211.0</ele><time>2026-03-29T15:34:01.964Z</time></trkpt><trkpt lat="45.6240266" lon="9.0591178"><ele>210.66666666666666</ele><time>2026-03-29T15:34:02.964Z</time></trkpt><trkpt lat="45.62419" lon="9.0591953"><ele>210.33333333333331</ele><time>2026-03-29T15:34:03.962Z</time></trkpt><trkpt lat="45.6243426" lon="9.0592693"><ele>210.0</ele><time>2026-03-29T15:34:04.964Z</time></trkpt><trkpt lat="45.6244849" lon="9.0593396"><ele>209.75</ele><time>2026-03-29T15:34:05.964Z</time></trkpt><trkpt lat="45.6246223" lon="9.0594048"><ele>209.5</ele><time>2026-03-29T15:34:06.963Z</time></trkpt><trkpt lat="45.6247605" lon="9.0594716"><ele>209.25</ele><time>2026-03-29T15:34:07.964Z</time></trkpt><trkpt lat="45.6248968" lon="9.0595382"><ele>209.0</ele><time>2026-03-29T15:34:08.964Z</time></trkpt><trkpt lat="45.6250332" lon="9.0596064"><ele>209.0</ele><time>2026-03-29T15:34:09.964Z</time></trkpt><trkpt lat="45.6251697" lon="9.0596743"><ele>209.0</ele><time>2026-03-29T15:34:10.964Z</time></trkpt><trkpt lat="45.6253042" lon="9.0597391"><ele>209.0</ele><time>2026-03-29T15:34:11.963Z</time></trkpt><trkpt lat="45.6254386" lon="9.0598015"><ele>209.0</ele><time>2026-03-29T15:34:12.964Z</time></trkpt><trkpt lat="45.6255724" lon="9.0598621"><ele>209.75</ele><time>2026-03-29T15:34:13.964Z</time></trkpt><trkpt lat="45.6257084" lon="9.059925"><ele>210.5</ele><time>2026-03-29T15:34:14.964Z</time></trkpt><trkpt lat="45.6258447" lon="9.0599842"><ele>211.25</ele><time>2026-03-29T15:34:15.964Z</time></trkpt><trkpt lat="45.6259872" lon="9.0600385"><ele>212.0</ele><time>2026-03-29T15:34:16.963Z</time></trkpt><trkpt lat="45.6261358" lon="9.0600884"><ele>213.0</ele><time>2026-03-29T15:34:17.964Z</time></trkpt><trkpt lat="45.6262906" lon="9.0601319"><ele>214.0</ele><time>2026-03-29T15:34:18.963Z</time></trkpt><trkpt lat="45.6264461" lon="9.0601725"><ele>215.0</ele><time>2026-03-29T15:34:19.963Z</time></trkpt><trkpt lat="45.6266015" lon="9.0602045"><ele>215.0</ele><time>2026-03-29T15:34:20.964Z</time></trkpt><trkpt lat="45.6267558" lon="9.0602344"><ele>215.0</ele><time>2026-03-29T15:34:21.964Z</time></trkpt><trkpt lat="45.6269129" lon="9.0602551"><ele>215.0</ele><time>2026-03-29T15:34:22.964Z</time></trkpt><trkpt lat="45.6270741" lon="9.060271"><ele>216.0</ele><time>2026-03-29T15:34:23.964Z</time></trkpt><trkpt lat="45.6272365" lon="9.0602797"><ele>217.0</ele><time>2026-03-29T15:34:24.963Z</time></trkpt><trkpt lat="45.6274038" lon="9.0602879"><ele>218.0</ele><time>2026-03-29T15:34:25.963Z</time></trkpt><trkpt lat="45.6275634" lon="9.0602905"><ele>218.0</ele><time>2026-03-29T15:34:26.963Z</time></trkpt><trkpt lat="45.6277149" lon="9.0602957"><ele>218.0</ele><time>2026-03-29T15:34:27.964Z</time></trkpt><trkpt lat="45.6278538" lon="9.0603007"><ele>218.0</ele><time>2026-03-29T15:34:28.964Z</time></trkpt><trkpt lat="45.6279886" lon="9.0603063"><ele>218.0</ele><time>2026-03-29T15:34:29.963Z</time></trkpt><trkpt lat="45.6281187" lon="9.0603086"><ele>218.5</ele><time>2026-03-29T15:34:30.964Z</time></trkpt><trkpt lat="45.628249" lon="9.0603121"><ele>219.0</ele><time>2026-03-29T15:34:31.964Z</time></trkpt><trkpt lat="45.6283603" lon="9.0603164"><ele>219.5</ele><time>2026-03-29T15:34:32.963Z</time></trkpt><trkpt lat="45.6284694" lon="9.0603198"><ele>220.0</ele><time>2026-03-29T15:34:33.963Z</time></trkpt><trkpt lat="45.6285685" lon="9.0603279"><ele>219.49999999999997</ele><time>2026-03-29T15:34:34.964Z</time></trkpt><trkpt lat="45.6286634" lon="9.0603353"><ele>219.0</ele><time>2026-03-29T15:34:35.964Z</time></trkpt><trkpt lat="45.6287475" lon="9.0603449"><ele>218.5</ele><time>2026-03-29T15:34:36.962Z</time></trkpt><trkpt lat="45.6288285" lon="9.0603619"><ele>218.0</ele><time>2026-03-29T15:34:37.964Z</time></trkpt><trkpt lat="45.6289094" lon="9.0604001"><ele>217.49999999999997</ele><time>2026-03-29T15:34:38.963Z</time></trkpt><trkpt lat="45.6289843" lon="9.0604701"><ele>217.0</ele><time>2026-03-29T15:34:39.964Z</time></trkpt><trkpt lat="45.6290623" lon="9.0605527"><ele>217.0</ele><time>2026-03-29T15:34:40.964Z</time></trkpt><trkpt lat="45.6291588" lon="9.0606116"><ele>217.0</ele><time>2026-03-29T15:34:41.964Z</time></trkpt><trkpt lat="45.6292662" lon="9.0606141"><ele>217.0</ele><time>2026-03-29T15:34:42.964Z</time></trkpt><trkpt lat="45.6293704" lon="9.0605696"><ele>217.0</ele><time>2026-03-29T15:34:43.964Z</time></trkpt><trkpt lat="45.6294804" lon="9.0604931"><ele>217.0</ele><time>2026-03-29T15:34:44.964Z</time></trkpt><trkpt lat="45.6296048" lon="9.0604446"><ele>216.66666666666666</ele><time>2026-03-29T15:34:45.963Z</time></trkpt><trkpt lat="45.629745" lon="9.0604094"><ele>216.33333333333331</ele><time>2026-03-29T15:34:46.962Z</time></trkpt><trkpt lat="45.6299043" lon="9.0604026"><ele>216.0</ele><time>2026-03-29T15:34:47.964Z</time></trkpt><trkpt lat="45.6300825" lon="9.0604224"><ele>216.0</ele><time>2026-03-29T15:34:48.963Z</time></trkpt><trkpt lat="45.6302503" lon="9.0604386"><ele>216.0</ele><time>2026-03-29T15:34:49.963Z</time></trkpt><trkpt lat="45.6304199" lon="9.060456"><ele>216.0</ele><time>2026-03-29T15:34:50.964Z</time></trkpt><trkpt lat="45.6305957" lon="9.0604752"><ele>216.0</ele><time>2026-03-29T15:34:51.963Z</time></trkpt><trkpt lat="45.6307836" lon="9.0604909"><ele>216.0</ele><time>2026-03-29T15:34:52.963Z</time></trkpt><trkpt lat="45.6309682" lon="9.0605074"><ele>216.0</ele><time>2026-03-29T15:34:53.964Z</time></trkpt><trkpt lat="45.6311394" lon="9.0605223"><ele>215.66666666666669</ele><time>2026-03-29T15:34:54.963Z</time></trkpt><trkpt lat="45.6313152" lon="9.0605376"><ele>215.33333333333334</ele><time>2026-03-29T15:34:55.964Z</time></trkpt><trkpt lat="45.6314918" lon="9.0605525"><ele>215.0</ele><time>2026-03-29T15:34:56.963Z</time></trkpt><trkpt lat="45.6316736" lon="9.0605659"><ele>215.0</ele><time>2026-03-29T15:34:57.964Z</time></trkpt><trkpt lat="45.6318577" lon="9.0605879"><ele>215.0</ele><time>2026-03-29T15:34:58.964Z</time></trkpt><trkpt lat="45.6320492" lon="9.0605757"><ele>215.0</ele><time>2026-03-29T15:34:59.963Z</time></trkpt><trkpt lat="45.6322433" lon="9.0605686"><ele>215.33333333333334</ele><time>2026-03-29T15:35:00.964Z</time></trkpt><trkpt lat="45.6324383" lon="9.0605536"><ele>215.66666666666669</ele><time>2026-03-29T15:35:01.964Z</time></trkpt><trkpt lat="45.6326348" lon="9.0605331"><ele>216.0</ele><time>2026-03-29T15:35:02.964Z</time></trkpt><trkpt lat="45.6328322" lon="9.0605059"><ele>216.66666666666669</ele><time>2026-03-29T15:35:03.964Z</time></trkpt><trkpt lat="45.6330331" lon="9.0604715"><ele>217.33333333333334</ele><time>2026-03-29T15:35:04.963Z</time></trkpt><trkpt lat="45.6332265" lon="9.0604349"><ele>218.0</ele><time>2026-03-29T15:35:05.964Z</time></trkpt><trkpt lat="45.6334093" lon="9.0603918"><ele>218.0</ele><time>2026-03-29T15:35:06.964Z</time></trkpt><trkpt lat="45.6335902" lon="9.0603441"><ele>218.0</ele><time>2026-03-29T15:35:07.964Z</time></trkpt><trkpt lat="45.633773" lon="9.0602869"><ele>218.0</ele><time>2026-03-29T15:35:08.964Z</time></trkpt><trkpt lat="45.6339538" lon="9.0602262"><ele>217.66666666666669</ele><time>2026-03-29T15:35:09.964Z</time></trkpt><trkpt lat="45.6341405" lon="9.0601553"><ele>217.33333333333331</ele><time>2026-03-29T15:35:10.964Z</time></trkpt><trkpt lat="45.6343287" lon="9.0600808"><ele>217.0</ele><time>2026-03-29T15:35:11.963Z</time></trkpt><trkpt lat="45.6345179" lon="9.0600004"><ele>217.66666666666666</ele><time>2026-03-29T15:35:12.964Z</time></trkpt><trkpt lat="45.6347072" lon="9.0599149"><ele>218.33333333333331</ele><time>2026-03-29T15:35:13.963Z</time></trkpt><trkpt lat="45.6348963" lon="9.0598196"><ele>219.0</ele><time>2026-03-29T15:35:14.963Z</time></trkpt><trkpt lat="45.6350907" lon="9.0597208"><ele>219.0</ele><time>2026-03-29T15:35:15.963Z</time></trkpt><trkpt lat="45.6352812" lon="9.0596145"><ele>219.0</ele><time>2026-03-29T15:35:16.964Z</time></trkpt><trkpt lat="45.6354694" lon="9.0595001"><ele>219.0</ele><time>2026-03-29T15:35:17.964Z</time></trkpt><trkpt lat="45.6356564" lon="9.0593757"><ele>219.0</ele><time>2026-03-29T15:35:18.963Z</time></trkpt><trkpt lat="45.6358394" lon="9.0592509"><ele>219.0</ele><time>2026-03-29T15:35:19.963Z</time></trkpt><trkpt lat="45.6360175" lon="9.0591196"><ele>219.0</ele><time>2026-03-29T15:35:20.964Z</time></trkpt><trkpt lat="45.6361939" lon="9.0589847"><ele>218.66666666666669</ele><time>2026-03-29T15:35:21.964Z</time></trkpt><trkpt lat="45.6363647" lon="9.0588455"><ele>218.33333333333334</ele><time>2026-03-29T15:35:22.963Z</time></trkpt><trkpt lat="45.6365285" lon="9.0587048"><ele>218.0</ele><time>2026-03-29T15:35:23.964Z</time></trkpt><trkpt lat="45.6366882" lon="9.0585643"><ele>218.0</ele><time>2026-03-29T15:35:24.963Z</time></trkpt><trkpt lat="45.6368492" lon="9.0584267"><ele>218.0</ele><time>2026-03-29T15:35:25.964Z</time></trkpt><trkpt lat="45.637008" lon="9.0582841"><ele>218.0</ele><time>2026-03-29T15:35:26.964Z</time></trkpt><trkpt lat="45.637168" lon="9.0581398"><ele>218.0</ele><time>2026-03-29T15:35:27.964Z</time></trkpt><trkpt lat="45.6373312" lon="9.0579951"><ele>218.0</ele><time>2026-03-29T15:35:28.964Z</time></trkpt><trkpt lat="45.6374951" lon="9.0578538"><ele>218.0</ele><time>2026-03-29T15:35:29.964Z</time></trkpt><trkpt lat="45.6376602" lon="9.0577113"><ele>218.66666666666669</ele><time>2026-03-29T15:35:30.964Z</time></trkpt><trkpt lat="45.6378245" lon="9.0575711"><ele>219.33333333333331</ele><time>2026-03-29T15:35:31.963Z</time></trkpt><trkpt lat="45.6379921" lon="9.0574309"><ele>220.0</ele><time>2026-03-29T15:35:32.964Z</time></trkpt><trkpt lat="45.6381607" lon="9.0572867"><ele>220.0</ele><time>2026-03-29T15:35:33.963Z</time></trkpt><trkpt lat="45.6383311" lon="9.0571431"><ele>220.0</ele><time>2026-03-29T15:35:34.964Z</time></trkpt><trkpt lat="45.6384991" lon="9.0569957"><ele>220.0</ele><time>2026-03-29T15:35:35.964Z</time></trkpt><trkpt lat="45.6386677" lon="9.0568474"><ele>220.0</ele><time>2026-03-29T15:35:36.963Z</time></trkpt><trkpt lat="45.6388341" lon="9.0566963"><ele>220.0</ele><time>2026-03-29T15:35:37.964Z</time></trkpt><trkpt lat="45.639004" lon="9.0565474"><ele>220.0</ele><time>2026-03-29T15:35:38.963Z</time></trkpt><trkpt lat="45.6391724" lon="9.0564029"><ele>220.33333333333331</ele><time>2026-03-29T15:35:39.964Z</time></trkpt><trkpt lat="45.6393388" lon="9.056264"><ele>220.66666666666669</ele><time>2026-03-29T15:35:40.963Z</time></trkpt><trkpt lat="45.639506" lon="9.0561189"><ele>221.0</ele><time>2026-03-29T15:35:41.963Z</time></trkpt><trkpt lat="45.6396723" lon="9.0559773"><ele>221.33333333333334</ele><time>2026-03-29T15:35:42.963Z</time></trkpt><trkpt lat="45.6398391" lon="9.0558321"><ele>221.66666666666669</ele><time>2026-03-29T15:35:43.963Z</time></trkpt><trkpt lat="45.6400047" lon="9.0556891"><ele>222.0</ele><time>2026-03-29T15:35:44.964Z</time></trkpt><trkpt lat="45.6401708" lon="9.0555436"><ele>222.66666666666669</ele><time>2026-03-29T15:35:45.964Z</time></trkpt><trkpt lat="45.640337" lon="9.0554018"><ele>223.33333333333334</ele><time>2026-03-29T15:35:46.963Z</time></trkpt><trkpt lat="45.640501" lon="9.0552627"><ele>224.0</ele><time>2026-03-29T15:35:47.963Z</time></trkpt><trkpt lat="45.640666" lon="9.0551175"><ele>224.0</ele><time>2026-03-29T15:35:48.964Z</time></trkpt><trkpt lat="45.6408299" lon="9.0549736"><ele>224.0</ele><time>2026-03-29T15:35:49.963Z</time></trkpt><trkpt lat="45.6409931" lon="9.054827"><ele>224.0</ele><time>2026-03-29T15:35:50.963Z</time></trkpt><trkpt lat="45.6411571" lon="9.0546861"><ele>224.66666666666669</ele><time>2026-03-29T15:35:51.964Z</time></trkpt><trkpt lat="45.6413205" lon="9.0545453"><ele>225.33333333333331</ele><time>2026-03-29T15:35:52.964Z</time></trkpt><trkpt lat="45.6414821" lon="9.0544024"><ele>226.0</ele><time>2026-03-29T15:35:53.963Z</time></trkpt><trkpt lat="45.6416434" lon="9.0542601"><ele>226.0</ele><time>2026-03-29T15:35:54.963Z</time></trkpt><trkpt lat="45.6418069" lon="9.0541181"><ele>226.0</ele><time>2026-03-29T15:35:55.963Z</time></trkpt><trkpt lat="45.6419726" lon="9.053975"><ele>226.0</ele><time>2026-03-29T15:35:56.963Z</time></trkpt><trkpt lat="45.6421365" lon="9.0538335"><ele>226.0</ele><time>2026-03-29T15:35:57.963Z</time></trkpt><trkpt lat="45.6423042" lon="9.0536906"><ele>226.0</ele><time>2026-03-29T15:35:58.963Z</time></trkpt><trkpt lat="45.6424687" lon="9.0535482"><ele>226.0</ele><time>2026-03-29T15:35:59.963Z</time></trkpt><trkpt lat="45.6426362" lon="9.0534051"><ele>225.66666666666666</ele><time>2026-03-29T15:36:00.964Z</time></trkpt><trkpt lat="45.6428023" lon="9.0532604"><ele>225.33333333333331</ele><time>2026-03-29T15:36:01.964Z</time></trkpt><trkpt lat="45.6429677" lon="9.0531184"><ele>225.0</ele><time>2026-03-29T15:36:02.963Z</time></trkpt><trkpt lat="45.6431363" lon="9.0529726"><ele>225.0</ele><time>2026-03-29T15:36:03.964Z</time></trkpt><trkpt lat="45.6433" lon="9.0528254"><ele>225.0</ele><time>2026-03-29T15:36:04.964Z</time></trkpt><trkpt lat="45.6434676" lon="9.0526821"><ele>225.0</ele><time>2026-03-29T15:36:05.962Z</time></trkpt><trkpt lat="45.6436344" lon="9.0525507"><ele>225.0</ele><time>2026-03-29T15:36:06.964Z</time></trkpt><trkpt lat="45.6438027" lon="9.0524319"><ele>225.0</ele><time>2026-03-29T15:36:07.963Z</time></trkpt><trkpt lat="45.643974" lon="9.05232"><ele>225.0</ele><time>2026-03-29T15:36:08.964Z</time></trkpt><trkpt lat="45.644148" lon="9.052222"><ele>225.0</ele><time>2026-03-29T15:36:09.964Z</time></trkpt><trkpt lat="45.6443262" lon="9.0521341"><ele>225.0</ele><time>2026-03-29T15:36:10.963Z</time></trkpt><trkpt lat="45.644506" lon="9.0520499"><ele>225.0</ele><time>2026-03-29T15:36:11.963Z</time></trkpt><trkpt lat="45.6446893" lon="9.0519746"><ele>225.33333333333331</ele><time>2026-03-29T15:36:12.963Z</time></trkpt><trkpt lat="45.644871" lon="9.0519153"><ele>225.66666666666666</ele><time>2026-03-29T15:36:13.963Z</time></trkpt><trkpt lat="45.6450446" lon="9.0518719"><ele>226.0</ele><time>2026-03-29T15:36:14.964Z</time></trkpt><trkpt lat="45.6452101" lon="9.0518411"><ele>226.75</ele><time>2026-03-29T15:36:15.964Z</time></trkpt><trkpt lat="45.6453684" lon="9.0518205"><ele>227.5</ele><time>2026-03-29T15:36:16.963Z</time></trkpt><trkpt lat="45.6455169" lon="9.0518083"><ele>228.25</ele><time>2026-03-29T15:36:17.964Z</time></trkpt><trkpt lat="45.6456529" lon="9.0518093"><ele>229.0</ele><time>2026-03-29T15:36:18.963Z</time></trkpt><trkpt lat="45.6457801" lon="9.0518142"><ele>229.0</ele><time>2026-03-29T15:36:19.964Z</time></trkpt><trkpt lat="45.6458957" lon="9.0518255"><ele>229.0</ele><time>2026-03-29T15:36:20.964Z</time></trkpt><trkpt lat="45.6460065" lon="9.0518382"><ele>229.0</ele><time>2026-03-29T15:36:21.964Z</time></trkpt><trkpt lat="45.6461169" lon="9.0518588"><ele>229.0</ele><time>2026-03-29T15:36:22.963Z</time></trkpt><trkpt lat="45.6462293" lon="9.0518823"><ele>229.2</ele><time>2026-03-29T15:36:23.964Z</time></trkpt><trkpt lat="45.6463371" lon="9.0518998"><ele>229.39999999999998</ele><time>2026-03-29T15:36:24.964Z</time></trkpt><trkpt lat="45.6464423" lon="9.0519153"><ele>229.6</ele><time>2026-03-29T15:36:25.964Z</time></trkpt><trkpt lat="45.6465404" lon="9.0519152"><ele>229.8</ele><time>2026-03-29T15:36:26.963Z</time></trkpt><trkpt lat="45.6466298" lon="9.0518915"><ele>230.0</ele><time>2026-03-29T15:36:27.964Z</time></trkpt><trkpt lat="45.6467168" lon="9.0518456"><ele>230.0</ele><time>2026-03-29T15:36:28.964Z</time></trkpt><trkpt lat="45.6468002" lon="9.0517894"><ele>230.0</ele><time>2026-03-29T15:36:29.964Z</time></trkpt><trkpt lat="45.64689" lon="9.051739"><ele>230.0</ele><time>2026-03-29T15:36:30.963Z</time></trkpt><trkpt lat="45.6469776" lon="9.0517036"><ele>230.0</ele><time>2026-03-29T15:36:31.964Z</time></trkpt><trkpt lat="45.6470653" lon="9.0516683"><ele>230.0</ele><time>2026-03-29T15:36:32.964Z</time></trkpt><trkpt lat="45.6471545" lon="9.0516285"><ele>229.83333333333334</ele><time>2026-03-29T15:36:33.964Z</time></trkpt><trkpt lat="45.6472424" lon="9.0516041"><ele>229.66666666666669</ele><time>2026-03-29T15:36:34.964Z</time></trkpt><trkpt lat="45.6473337" lon="9.0516198"><ele>229.5</ele><time>2026-03-29T15:36:35.963Z</time></trkpt><trkpt lat="45.6474153" lon="9.0516591"><ele>229.33333333333331</ele><time>2026-03-29T15:36:36.964Z</time></trkpt><trkpt lat="45.6474838" lon="9.0517166"><ele>229.16666666666666</ele><time>2026-03-29T15:36:37.964Z</time></trkpt><trkpt lat="45.6475418" lon="9.0517982"><ele>229.0</ele><time>2026-03-29T15:36:38.963Z</time></trkpt><trkpt lat="45.6475808" lon="9.0519081"><ele>228.99999999999997</ele><time>2026-03-29T15:36:39.963Z</time></trkpt><trkpt lat="45.6476224" lon="9.0520253"><ele>229.0</ele><time>2026-03-29T15:36:40.964Z</time></trkpt><trkpt lat="45.6476859" lon="9.0520994"><ele>229.0</ele><time>2026-03-29T15:36:41.963Z</time></trkpt><trkpt lat="45.6477656" lon="9.0521306"><ele>229.0</ele><time>2026-03-29T15:36:42.962Z</time></trkpt><trkpt lat="45.647854" lon="9.0521278"><ele>228.99999999999997</ele><time>2026-03-29T15:36:43.962Z</time></trkpt><trkpt lat="45.6479467" lon="9.0521105"><ele>229.0</ele><time>2026-03-29T15:36:44.962Z</time></trkpt><trkpt lat="45.6480453" lon="9.0521219"><ele>229.25</ele><time>2026-03-29T15:36:45.963Z</time></trkpt><trkpt lat="45.6481447" lon="9.0521465"><ele>229.5</ele><time>2026-03-29T15:36:46.962Z</time></trkpt><trkpt lat="45.6482617" lon="9.0521925"><ele>229.75</ele><time>2026-03-29T15:36:47.962Z</time></trkpt><trkpt lat="45.6483937" lon="9.0522507"><ele>230.0</ele><time>2026-03-29T15:36:48.962Z</time></trkpt><trkpt lat="45.6485224" lon="9.0523023"><ele>229.75</ele><time>2026-03-29T15:36:49.963Z</time></trkpt><trkpt lat="45.6486564" lon="9.0523472"><ele>229.5</ele><time>2026-03-29T15:36:50.963Z</time></trkpt><trkpt lat="45.6488018" lon="9.0523776"><ele>229.25</ele><time>2026-03-29T15:36:51.963Z</time></trkpt><trkpt lat="45.6489582" lon="9.0523928"><ele>229.0</ele><time>2026-03-29T15:36:52.961Z</time></trkpt><trkpt lat="45.6491121" lon="9.052397"><ele>229.0</ele><time>2026-03-29T15:36:53.963Z</time></trkpt><trkpt lat="45.649252" lon="9.0523996"><ele>229.0</ele><time>2026-03-29T15:36:54.963Z</time></trkpt><trkpt lat="45.6493805" lon="9.0524056"><ele>229.0</ele><time>2026-03-29T15:36:55.963Z</time></trkpt><trkpt lat="45.6495033" lon="9.0524109"><ele>229.0</ele><time>2026-03-29T15:36:56.962Z</time></trkpt><trkpt lat="45.649633" lon="9.0524179"><ele>228.66666666666666</ele><time>2026-03-29T15:36:57.962Z</time></trkpt><trkpt lat="45.6497826" lon="9.0524183"><ele>228.33333333333331</ele><time>2026-03-29T15:36:58.963Z</time></trkpt><trkpt lat="45.64995" lon="9.0524163"><ele>228.0</ele><time>2026-03-29T15:36:59.963Z</time></trkpt><trkpt lat="45.650143" lon="9.05242"><ele>228.66666666666669</ele><time>2026-03-29T15:37:00.963Z</time></trkpt><trkpt lat="45.6503545" lon="9.0524301"><ele>229.33333333333334</ele><time>2026-03-29T15:37:01.962Z</time></trkpt><trkpt lat="45.6505566" lon="9.0524442"><ele>230.0</ele><time>2026-03-29T15:37:02.962Z</time></trkpt><trkpt lat="45.6507322" lon="9.0524633"><ele>230.0</ele><time>2026-03-29T15:37:03.962Z</time></trkpt><trkpt lat="45.6508875" lon="9.0524769"><ele>230.0</ele><time>2026-03-29T15:37:04.962Z</time></trkpt><trkpt lat="45.6510277" lon="9.0524827"><ele>230.0</ele><time>2026-03-29T15:37:05.962Z</time></trkpt><trkpt lat="45.6511518" lon="9.0524905"><ele>230.0</ele><time>2026-03-29T15:37:06.962Z</time></trkpt><trkpt lat="45.6512653" lon="9.0524971"><ele>230.66666666666669</ele><time>2026-03-29T15:37:07.962Z</time></trkpt><trkpt lat="45.6513677" lon="9.0525104"><ele>231.33333333333334</ele><time>2026-03-29T15:37:08.961Z</time></trkpt><trkpt lat="45.6514593" lon="9.0525463"><ele>232.0</ele><time>2026-03-29T15:37:09.963Z</time></trkpt><trkpt lat="45.651535" lon="9.0526026"><ele>232.66666666666669</ele><time>2026-03-29T15:37:10.962Z</time></trkpt><trkpt lat="45.6515985" lon="9.0526801"><ele>233.33333333333334</ele><time>2026-03-29T15:37:11.962Z</time></trkpt><trkpt lat="45.6516517" lon="9.0527602"><ele>234.0</ele><time>2026-03-29T15:37:12.961Z</time></trkpt><trkpt lat="45.6517152" lon="9.0528117"><ele>234.0</ele><time>2026-03-29T15:37:13.962Z</time></trkpt><trkpt lat="45.6517904" lon="9.0528331"><ele>233.99999999999997</ele><time>2026-03-29T15:37:14.962Z</time></trkpt><trkpt lat="45.651866" lon="9.0528128"><ele>233.99999999999997</ele><time>2026-03-29T15:37:15.963Z</time></trkpt><trkpt lat="45.6519482" lon="9.0527542"><ele>234.0</ele><time>2026-03-29T15:37:16.962Z</time></trkpt><trkpt lat="45.6520368" lon="9.0526822"><ele>234.0</ele><time>2026-03-29T15:37:17.963Z</time></trkpt><trkpt lat="45.6521439" lon="9.0526274"><ele>234.0</ele><time>2026-03-29T15:37:18.963Z</time></trkpt><trkpt lat="45.6522715" lon="9.0525779"><ele>234.0</ele><time>2026-03-29T15:37:19.962Z</time></trkpt><trkpt lat="45.6524114" lon="9.0525289"><ele>234.0</ele><time>2026-03-29T15:37:20.963Z</time></trkpt><trkpt lat="45.652541" lon="9.0524842"><ele>234.0</ele><time>2026-03-29T15:37:21.963Z</time></trkpt><trkpt lat="45.6526868" lon="9.0524341"><ele>234.0</ele><time>2026-03-29T15:37:22.963Z</time></trkpt><trkpt lat="45.6528439" lon="9.0523864"><ele>234.0</ele><time>2026-03-29T15:37:23.962Z</time></trkpt><trkpt lat="45.6530107" lon="9.0523443"><ele>234.0</ele><time>2026-03-29T15:37:24.963Z</time></trkpt><trkpt lat="45.6531751" lon="9.0523145"><ele>234.0</ele><time>2026-03-29T15:37:25.961Z</time></trkpt><trkpt lat="45.6533348" lon="9.0522905"><ele>234.0</ele><time>2026-03-29T15:37:26.961Z</time></trkpt><trkpt lat="45.6535004" lon="9.0522722"><ele>234.0</ele><time>2026-03-29T15:37:27.963Z</time></trkpt><trkpt lat="45.6536678" lon="9.0522595"><ele>234.66666666666669</ele><time>2026-03-29T15:37:28.963Z</time></trkpt><trkpt lat="45.653844" lon="9.0522565"><ele>235.33333333333334</ele><time>2026-03-29T15:37:29.961Z</time></trkpt><trkpt lat="45.6540298" lon="9.0522635"><ele>236.0</ele><time>2026-03-29T15:37:30.963Z</time></trkpt><trkpt lat="45.6542081" lon="9.0522787"><ele>236.0</ele><time>2026-03-29T15:37:31.963Z</time></trkpt><trkpt lat="45.6543802" lon="9.0522997"><ele>236.0</ele><time>2026-03-29T15:37:32.963Z</time></trkpt><trkpt lat="45.6545581" lon="9.0523219"><ele>236.0</ele><time>2026-03-29T15:37:33.963Z</time></trkpt><trkpt lat="45.6547438" lon="9.0523416"><ele>236.33333333333334</ele><time>2026-03-29T15:37:34.963Z</time></trkpt><trkpt lat="45.654933" lon="9.0523584"><ele>236.66666666666669</ele><time>2026-03-29T15:37:35.963Z</time></trkpt><trkpt lat="45.6551296" lon="9.0523748"><ele>237.0</ele><time>2026-03-29T15:37:36.963Z</time></trkpt><trkpt lat="45.6553288" lon="9.0523944"><ele>236.33333333333331</ele><time>2026-03-29T15:37:37.962Z</time></trkpt><trkpt lat="45.6555324" lon="9.0524129"><ele>235.66666666666666</ele><time>2026-03-29T15:37:38.963Z</time></trkpt><trkpt lat="45.6557368" lon="9.052436"><ele>235.0</ele><time>2026-03-29T15:37:39.963Z</time></trkpt><trkpt lat="45.6559408" lon="9.052455"><ele>235.0</ele><time>2026-03-29T15:37:40.963Z</time></trkpt><trkpt lat="45.6561341" lon="9.0524762"><ele>235.0</ele><time>2026-03-29T15:37:41.963Z</time></trkpt><trkpt lat="45.6563132" lon="9.0524954"><ele>235.0</ele><time>2026-03-29T15:37:42.963Z</time></trkpt><trkpt lat="45.6564743" lon="9.0525123"><ele>235.0</ele><time>2026-03-29T15:37:43.962Z</time></trkpt><trkpt lat="45.6566239" lon="9.0525241"><ele>235.0</ele><time>2026-03-29T15:37:44.962Z</time></trkpt><trkpt lat="45.6567614" lon="9.0525331"><ele>235.0</ele><time>2026-03-29T15:37:45.962Z</time></trkpt><trkpt lat="45.6568872" lon="9.0525441"><ele>235.0</ele><time>2026-03-29T15:37:46.962Z</time></trkpt><trkpt lat="45.6570007" lon="9.0525614"><ele>235.75</ele><time>2026-03-29T15:37:47.963Z</time></trkpt><trkpt lat="45.6570975" lon="9.0526093"><ele>236.5</ele><time>2026-03-29T15:37:48.962Z</time></trkpt><trkpt lat="45.65718" lon="9.0527032"><ele>237.25</ele><time>2026-03-29T15:37:49.963Z</time></trkpt><trkpt lat="45.6572597" lon="9.0528334"><ele>238.0</ele><time>2026-03-29T15:37:50.963Z</time></trkpt><trkpt lat="45.6573439" lon="9.0529906"><ele>238.0</ele><time>2026-03-29T15:37:51.963Z</time></trkpt><trkpt lat="45.6574004" lon="9.0531825"><ele>238.0</ele><time>2026-03-29T15:37:52.963Z</time></trkpt><trkpt lat="45.6574307" lon="9.0534062"><ele>238.0</ele><time>2026-03-29T15:37:53.961Z</time></trkpt><trkpt lat="45.6574428" lon="9.0536673"><ele>238.33333333333331</ele><time>2026-03-29T15:37:54.962Z</time></trkpt><trkpt lat="45.6574451" lon="9.0539514"><ele>238.66666666666669</ele><time>2026-03-29T15:37:55.963Z</time></trkpt><trkpt lat="45.6574515" lon="9.054216"><ele>239.0</ele><time>2026-03-29T15:37:56.963Z</time></trkpt><trkpt lat="45.6574699" lon="9.054483"><ele>239.0</ele><time>2026-03-29T15:37:57.963Z</time></trkpt><trkpt lat="45.6575041" lon="9.0547502"><ele>239.0</ele><time>2026-03-29T15:37:58.963Z</time></trkpt><trkpt lat="45.6575565" lon="9.0550282"><ele>239.0</ele><time>2026-03-29T15:37:59.963Z</time></trkpt><trkpt lat="45.6576104" lon="9.0552905"><ele>238.33333333333334</ele><time>2026-03-29T15:38:00.963Z</time></trkpt><trkpt lat="45.6576608" lon="9.0555488"><ele>237.66666666666669</ele><time>2026-03-29T15:38:01.962Z</time></trkpt><trkpt lat="45.6577023" lon="9.0558092"><ele>237.0</ele><time>2026-03-29T15:38:02.962Z</time></trkpt><trkpt lat="45.6577292" lon="9.0560735"><ele>237.0</ele><time>2026-03-29T15:38:03.963Z</time></trkpt><trkpt lat="45.6577369" lon="9.0563415"><ele>237.0</ele><time>2026-03-29T15:38:04.962Z</time></trkpt><trkpt lat="45.6577298" lon="9.0566131"><ele>237.0</ele><time>2026-03-29T15:38:05.963Z</time></trkpt><trkpt lat="45.6577052" lon="9.0568863"><ele>237.0</ele><time>2026-03-29T15:38:06.963Z</time></trkpt><trkpt lat="45.6576711" lon="9.057159"><ele>237.0</ele><time>2026-03-29T15:38:07.963Z</time></trkpt><trkpt lat="45.6576296" lon="9.0574332"><ele>237.0</ele><time>2026-03-29T15:38:08.963Z</time></trkpt><trkpt lat="45.6575858" lon="9.0577114"><ele>237.0</ele><time>2026-03-29T15:38:09.962Z</time></trkpt><trkpt lat="45.6575484" lon="9.0579883"><ele>237.0</ele><time>2026-03-29T15:38:10.963Z</time></trkpt><trkpt lat="45.6575269" lon="9.0582678"><ele>237.0</ele><time>2026-03-29T15:38:11.962Z</time></trkpt><trkpt lat="45.657522" lon="9.058561"><ele>237.33333333333331</ele><time>2026-03-29T15:38:12.963Z</time></trkpt><trkpt lat="45.6575268" lon="9.0588669"><ele>237.66666666666666</ele><time>2026-03-29T15:38:13.962Z</time></trkpt><trkpt lat="45.6575429" lon="9.059167"><ele>238.0</ele><time>2026-03-29T15:38:14.963Z</time></trkpt><trkpt lat="45.6575574" lon="9.0594521"><ele>237.66666666666666</ele><time>2026-03-29T15:38:15.962Z</time></trkpt><trkpt lat="45.6575693" lon="9.0597214"><ele>237.33333333333331</ele><time>2026-03-29T15:38:16.963Z</time></trkpt><trkpt lat="45.6575829" lon="9.0599733"><ele>237.0</ele><time>2026-03-29T15:38:17.963Z</time></trkpt><trkpt lat="45.6575917" lon="9.0602029"><ele>237.0</ele><time>2026-03-29T15:38:18.963Z</time></trkpt><trkpt lat="45.657602" lon="9.060412"><ele>237.0</ele><time>2026-03-29T15:38:19.962Z</time></trkpt><trkpt lat="45.6576095" lon="9.0606006"><ele>237.0</ele><time>2026-03-29T15:38:20.963Z</time></trkpt><trkpt lat="45.6576177" lon="9.0607639"><ele>237.0</ele><time>2026-03-29T15:38:21.962Z</time></trkpt><trkpt lat="45.6576136" lon="9.0609078"><ele>237.0</ele><time>2026-03-29T15:38:22.962Z</time></trkpt><trkpt lat="45.6575927" lon="9.0610376"><ele>237.0</ele><time>2026-03-29T15:38:23.961Z</time></trkpt><trkpt lat="45.6575535" lon="9.0611527"><ele>237.0</ele><time>2026-03-29T15:38:24.961Z</time></trkpt><trkpt lat="45.6575082" lon="9.0612723"><ele>237.0</ele><time>2026-03-29T15:38:25.962Z</time></trkpt><trkpt lat="45.6574844" lon="9.0614086"><ele>237.0</ele><time>2026-03-29T15:38:26.961Z</time></trkpt><trkpt lat="45.657494" lon="9.0615572"><ele>237.0</ele><time>2026-03-29T15:38:27.963Z</time></trkpt><trkpt lat="45.6575413" lon="9.0616951"><ele>237.0</ele><time>2026-03-29T15:38:28.962Z</time></trkpt><trkpt lat="45.6576266" lon="9.0617888"><ele>237.0</ele><time>2026-03-29T15:38:29.963Z</time></trkpt><trkpt lat="45.657726" lon="9.0618272"><ele>237.0</ele><time>2026-03-29T15:38:30.962Z</time></trkpt><trkpt lat="45.657847" lon="9.0618004"><ele>237.0</ele><time>2026-03-29T15:38:31.963Z</time></trkpt><trkpt lat="45.6579752" lon="9.0617549"><ele>237.0</ele><time>2026-03-29T15:38:32.962Z</time></trkpt><trkpt lat="45.6581205" lon="9.061766"><ele>237.0</ele><time>2026-03-29T15:38:33.962Z</time></trkpt><trkpt lat="45.6582804" lon="9.0618075"><ele>237.0</ele><time>2026-03-29T15:38:34.962Z</time></trkpt><trkpt lat="45.6584376" lon="9.0618561"><ele>237.0</ele><time>2026-03-29T15:38:35.962Z</time></trkpt><trkpt lat="45.6585905" lon="9.061909"><ele>237.0</ele><time>2026-03-29T15:38:36.962Z</time></trkpt><trkpt lat="45.6587545" lon="9.0619578"><ele>237.0</ele><time>2026-03-29T15:38:37.963Z</time></trkpt><trkpt lat="45.6589292" lon="9.0620099"><ele>237.33333333333331</ele><time>2026-03-29T15:38:38.963Z</time></trkpt><trkpt lat="45.6591074" lon="9.0620624"><ele>237.66666666666666</ele><time>2026-03-29T15:38:39.963Z</time></trkpt><trkpt lat="45.6592722" lon="9.0621132"><ele>238.0</ele><time>2026-03-29T15:38:40.963Z</time></trkpt><trkpt lat="45.6594417" lon="9.0621601"><ele>237.33333333333331</ele><time>2026-03-29T15:38:41.963Z</time></trkpt><trkpt lat="45.6596087" lon="9.0622073"><ele>236.66666666666669</ele><time>2026-03-29T15:38:42.962Z</time></trkpt><trkpt lat="45.6597769" lon="9.0622555"><ele>236.0</ele><time>2026-03-29T15:38:43.963Z</time></trkpt><trkpt lat="45.6599434" lon="9.0623065"><ele>236.0</ele><time>2026-03-29T15:38:44.962Z</time></trkpt><trkpt lat="45.6601116" lon="9.0623566"><ele>236.0</ele><time>2026-03-29T15:38:45.962Z</time></trkpt><trkpt lat="45.6602774" lon="9.0624044"><ele>236.0</ele><time>2026-03-29T15:38:46.963Z</time></trkpt><trkpt lat="45.6604442" lon="9.0624526"><ele>237.0</ele><time>2026-03-29T15:38:47.963Z</time></trkpt><trkpt lat="45.6606109" lon="9.0624989"><ele>238.0</ele><time>2026-03-29T15:38:48.963Z</time></trkpt><trkpt lat="45.660778" lon="9.06254"><ele>239.0</ele><time>2026-03-29T15:38:49.963Z</time></trkpt><trkpt lat="45.6609472" lon="9.062571"><ele>239.0</ele><time>2026-03-29T15:38:50.963Z</time></trkpt><trkpt lat="45.6611195" lon="9.0625948"><ele>239.0</ele><time>2026-03-29T15:38:51.963Z</time></trkpt><trkpt lat="45.6612912" lon="9.0626149"><ele>239.0</ele><time>2026-03-29T15:38:52.963Z</time></trkpt><trkpt lat="45.6614648" lon="9.0626352"><ele>239.0</ele><time>2026-03-29T15:38:53.963Z</time></trkpt><trkpt lat="45.6616397" lon="9.062648"><ele>239.0</ele><time>2026-03-29T15:38:54.963Z</time></trkpt><trkpt lat="45.6618142" lon="9.0626559"><ele>239.0</ele><time>2026-03-29T15:38:55.962Z</time></trkpt><trkpt lat="45.6619895" lon="9.0626591"><ele>240.33333333333334</ele><time>2026-03-29T15:38:56.962Z</time></trkpt><trkpt lat="45.6621666" lon="9.0626565"><ele>241.66666666666669</ele><time>2026-03-29T15:38:57.963Z</time></trkpt><trkpt lat="45.6623447" lon="9.0626481"><ele>243.0</ele><time>2026-03-29T15:38:58.963Z</time></trkpt><trkpt lat="45.6625246" lon="9.062632"><ele>243.0</ele><time>2026-03-29T15:38:59.963Z</time></trkpt><trkpt lat="45.6627095" lon="9.0626054"><ele>243.0</ele><time>2026-03-29T15:39:00.963Z</time></trkpt><trkpt lat="45.6628996" lon="9.0625774"><ele>243.0</ele><time>2026-03-29T15:39:01.962Z</time></trkpt><trkpt lat="45.6630917" lon="9.0625489"><ele>242.66666666666669</ele><time>2026-03-29T15:39:02.963Z</time></trkpt><trkpt lat="45.6632716" lon="9.0625233"><ele>242.33333333333334</ele><time>2026-03-29T15:39:03.962Z</time></trkpt><trkpt lat="45.6634483" lon="9.0624969"><ele>242.0</ele><time>2026-03-29T15:39:04.963Z</time></trkpt><trkpt lat="45.6636229" lon="9.0624744"><ele>242.0</ele><time>2026-03-29T15:39:05.963Z</time></trkpt><trkpt lat="45.6638001" lon="9.0624481"><ele>242.0</ele><time>2026-03-29T15:39:06.963Z</time></trkpt><trkpt lat="45.6639793" lon="9.0624189"><ele>242.0</ele><time>2026-03-29T15:39:07.963Z</time></trkpt><trkpt lat="45.6641563" lon="9.0623933"><ele>242.0</ele><time>2026-03-29T15:39:08.963Z</time></trkpt><trkpt lat="45.6643365" lon="9.0623614"><ele>242.0</ele><time>2026-03-29T15:39:09.962Z</time></trkpt><trkpt lat="45.6645013" lon="9.0623359"><ele>242.0</ele><time>2026-03-29T15:39:10.963Z</time></trkpt><trkpt lat="45.6646553" lon="9.0623121"><ele>242.0</ele><time>2026-03-29T15:39:11.963Z</time></trkpt><trkpt lat="45.6647966" lon="9.062288"><ele>242.0</ele><time>2026-03-29T15:39:12.963Z</time></trkpt><trkpt lat="45.6649397" lon="9.0622633"><ele>242.0</ele><time>2026-03-29T15:39:13.962Z</time></trkpt><trkpt lat="45.6650916" lon="9.0622346"><ele>242.0</ele><time>2026-03-29T15:39:14.963Z</time></trkpt><trkpt lat="45.6652495" lon="9.0622095"><ele>242.0</ele><time>2026-03-29T15:39:15.962Z</time></trkpt><trkpt lat="45.6654116" lon="9.0621885"><ele>242.0</ele><time>2026-03-29T15:39:16.963Z</time></trkpt><trkpt lat="45.665578" lon="9.0621666"><ele>242.0</ele><time>2026-03-29T15:39:17.963Z</time></trkpt><trkpt lat="45.6657466" lon="9.0621414"><ele>242.0</ele><time>2026-03-29T15:39:18.961Z</time></trkpt><trkpt lat="45.6659162" lon="9.0621158"><ele>242.0</ele><time>2026-03-29T15:39:19.962Z</time></trkpt><trkpt lat="45.6660888" lon="9.0620894"><ele>242.0</ele><time>2026-03-29T15:39:20.963Z</time></trkpt><trkpt lat="45.6662629" lon="9.0620641"><ele>243.66666666666669</ele><time>2026-03-29T15:39:21.962Z</time></trkpt><trkpt lat="45.6664378" lon="9.0620393"><ele>245.33333333333331</ele><time>2026-03-29T15:39:22.963Z</time></trkpt><trkpt lat="45.6666145" lon="9.0620155"><ele>247.0</ele><time>2026-03-29T15:39:23.963Z</time></trkpt><trkpt lat="45.6667923" lon="9.0619935"><ele>247.33333333333331</ele><time>2026-03-29T15:39:24.962Z</time></trkpt><trkpt lat="45.6669697" lon="9.0619759"><ele>247.66666666666669</ele><time>2026-03-29T15:39:25.962Z</time></trkpt><trkpt lat="45.6671475" lon="9.0619624"><ele>248.0</ele><time>2026-03-29T15:39:26.963Z</time></trkpt><trkpt lat="45.6673267" lon="9.061955"><ele>248.0</ele><time>2026-03-29T15:39:27.963Z</time></trkpt><trkpt lat="45.6675095" lon="9.0619551"><ele>248.0</ele><time>2026-03-29T15:39:28.962Z</time></trkpt><trkpt lat="45.667693" lon="9.0619594"><ele>248.0</ele><time>2026-03-29T15:39:29.962Z</time></trkpt><trkpt lat="45.6678765" lon="9.0619712"><ele>248.66666666666669</ele><time>2026-03-29T15:39:30.962Z</time></trkpt><trkpt lat="45.6680641" lon="9.0619866"><ele>249.33333333333331</ele><time>2026-03-29T15:39:31.963Z</time></trkpt><trkpt lat="45.6682437" lon="9.0620079"><ele>250.0</ele><time>2026-03-29T15:39:32.963Z</time></trkpt><trkpt lat="45.6684192" lon="9.0620358"><ele>250.0</ele><time>2026-03-29T15:39:33.963Z</time></trkpt><trkpt lat="45.6685923" lon="9.0620679"><ele>250.0</ele><time>2026-03-29T15:39:34.962Z</time></trkpt><trkpt lat="45.668766" lon="9.0621064"><ele>250.0</ele><time>2026-03-29T15:39:35.962Z</time></trkpt><trkpt lat="45.6689413" lon="9.0621466"><ele>250.33333333333331</ele><time>2026-03-29T15:39:36.963Z</time></trkpt><trkpt lat="45.6691188" lon="9.0621905"><ele>250.66666666666669</ele><time>2026-03-29T15:39:37.963Z</time></trkpt><trkpt lat="45.6692952" lon="9.0622408"><ele>251.0</ele><time>2026-03-29T15:39:38.963Z</time></trkpt><trkpt lat="45.6694726" lon="9.0622949"><ele>251.33333333333334</ele><time>2026-03-29T15:39:39.962Z</time></trkpt><trkpt lat="45.6696475" lon="9.0623543"><ele>251.66666666666669</ele><time>2026-03-29T15:39:40.962Z</time></trkpt><trkpt lat="45.6698235" lon="9.0624114"><ele>252.0</ele><time>2026-03-29T15:39:41.961Z</time></trkpt><trkpt lat="45.6699983" lon="9.0624735"><ele>252.0</ele><time>2026-03-29T15:39:42.962Z</time></trkpt><trkpt lat="45.6701768" lon="9.0625351"><ele>252.0</ele><time>2026-03-29T15:39:43.962Z</time></trkpt><trkpt lat="45.6703537" lon="9.0626001"><ele>252.0</ele><time>2026-03-29T15:39:44.963Z</time></trkpt><trkpt lat="45.6705337" lon="9.0626624"><ele>252.33333333333331</ele><time>2026-03-29T15:39:45.963Z</time></trkpt><trkpt lat="45.6707102" lon="9.0627222"><ele>252.66666666666666</ele><time>2026-03-29T15:39:46.963Z</time></trkpt><trkpt lat="45.67089" lon="9.0627825"><ele>253.0</ele><time>2026-03-29T15:39:47.962Z</time></trkpt><trkpt lat="45.6710653" lon="9.062843"><ele>253.0</ele><time>2026-03-29T15:39:48.962Z</time></trkpt><trkpt lat="45.6712287" lon="9.062899"><ele>253.0</ele><time>2026-03-29T15:39:49.963Z</time></trkpt><trkpt lat="45.6713854" lon="9.0629511"><ele>253.0</ele><time>2026-03-29T15:39:50.961Z</time></trkpt><trkpt lat="45.6715312" lon="9.0629988"><ele>253.0</ele><time>2026-03-29T15:39:51.962Z</time></trkpt><trkpt lat="45.6716678" lon="9.063044"><ele>253.0</ele><time>2026-03-29T15:39:52.961Z</time></trkpt><trkpt lat="45.6717971" lon="9.0630897"><ele>253.0</ele><time>2026-03-29T15:39:53.961Z</time></trkpt><trkpt lat="45.671918" lon="9.0631333"><ele>253.0</ele><time>2026-03-29T15:39:54.962Z</time></trkpt><trkpt lat="45.6720308" lon="9.0631731"><ele>253.0</ele><time>2026-03-29T15:39:55.962Z</time></trkpt><trkpt lat="45.6721414" lon="9.0632097"><ele>253.0</ele><time>2026-03-29T15:39:56.962Z</time></trkpt><trkpt lat="45.6722501" lon="9.0632491"><ele>253.0</ele><time>2026-03-29T15:39:57.961Z</time></trkpt><trkpt lat="45.6723501" lon="9.0632841"><ele>253.0</ele><time>2026-03-29T15:39:58.961Z</time></trkpt><trkpt lat="45.6724433" lon="9.0633269"><ele>253.0</ele><time>2026-03-29T15:39:59.961Z</time></trkpt><trkpt lat="45.6725267" lon="9.0633765"><ele>253.0</ele><time>2026-03-29T15:40:00.962Z</time></trkpt><trkpt lat="45.6725995" lon="9.0634339"><ele>253.0</ele><time>2026-03-29T15:40:01.961Z</time></trkpt><trkpt lat="45.6726672" lon="9.0635058"><ele>253.0</ele><time>2026-03-29T15:40:02.961Z</time></trkpt><trkpt lat="45.6727339" lon="9.0636067"><ele>253.0</ele><time>2026-03-29T15:40:03.961Z</time></trkpt><trkpt lat="45.672805" lon="9.0637334"><ele>253.0</ele><time>2026-03-29T15:40:04.961Z</time></trkpt><trkpt lat="45.6728632" lon="9.063889"><ele>253.0</ele><time>2026-03-29T15:40:05.961Z</time></trkpt><trkpt lat="45.6728966" lon="9.0640686"><ele>253.0</ele><time>2026-03-29T15:40:06.962Z</time></trkpt><trkpt lat="45.6729014" lon="9.0642723"><ele>253.0</ele><time>2026-03-29T15:40:07.962Z</time></trkpt><trkpt lat="45.6728951" lon="9.0644848"><ele>253.0</ele><time>2026-03-29T15:40:08.962Z</time></trkpt><trkpt lat="45.6728901" lon="9.0646854"><ele>253.0</ele><time>2026-03-29T15:40:09.962Z</time></trkpt><trkpt lat="45.6728868" lon="9.0648828"><ele>253.0</ele><time>2026-03-29T15:40:10.962Z</time></trkpt><trkpt lat="45.6728811" lon="9.0650864"><ele>253.0</ele><time>2026-03-29T15:40:11.962Z</time></trkpt><trkpt lat="45.6728726" lon="9.0653005"><ele>253.0</ele><time>2026-03-29T15:40:12.962Z</time></trkpt><trkpt lat="45.6728628" lon="9.065526"><ele>253.33333333333331</ele><time>2026-03-29T15:40:13.962Z</time></trkpt><trkpt lat="45.6728554" lon="9.0657612"><ele>253.66666666666669</ele><time>2026-03-29T15:40:14.961Z</time></trkpt><trkpt lat="45.6728465" lon="9.0659923"><ele>254.0</ele><time>2026-03-29T15:40:15.961Z</time></trkpt><trkpt lat="45.6728412" lon="9.0662102"><ele>253.66666666666669</ele><time>2026-03-29T15:40:16.961Z</time></trkpt><trkpt lat="45.6728333" lon="9.0664299"><ele>253.33333333333331</ele><time>2026-03-29T15:40:17.96Z</time></trkpt><trkpt lat="45.6728231" lon="9.0666603"><ele>253.0</ele><time>2026-03-29T15:40:18.962Z</time></trkpt><trkpt lat="45.6728131" lon="9.0668948"><ele>253.0</ele><time>2026-03-29T15:40:19.962Z</time></trkpt><trkpt lat="45.6728034" lon="9.0671336"><ele>253.0</ele><time>2026-03-29T15:40:20.961Z</time></trkpt><trkpt lat="45.6727975" lon="9.0673728"><ele>253.0</ele><time>2026-03-29T15:40:21.962Z</time></trkpt><trkpt lat="45.6727929" lon="9.0676137"><ele>253.33333333333331</ele><time>2026-03-29T15:40:22.961Z</time></trkpt><trkpt lat="45.6727858" lon="9.0678522"><ele>253.66666666666669</ele><time>2026-03-29T15:40:23.961Z</time></trkpt><trkpt lat="45.6727775" lon="9.0680823"><ele>254.0</ele><time>2026-03-29T15:40:24.962Z</time></trkpt><trkpt lat="45.6727653" lon="9.0683036"><ele>253.5</ele><time>2026-03-29T15:40:25.962Z</time></trkpt><trkpt lat="45.6727583" lon="9.0685143"><ele>253.0</ele><time>2026-03-29T15:40:26.962Z</time></trkpt><trkpt lat="45.6727522" lon="9.0687093"><ele>252.5</ele><time>2026-03-29T15:40:27.962Z</time></trkpt><trkpt lat="45.672745" lon="9.068903"><ele>252.0</ele><time>2026-03-29T15:40:28.962Z</time></trkpt><trkpt lat="45.6727407" lon="9.0690911"><ele>252.2</ele><time>2026-03-29T15:40:29.962Z</time></trkpt><trkpt lat="45.6727358" lon="9.0692599"><ele>252.39999999999998</ele><time>2026-03-29T15:40:30.962Z</time></trkpt><trkpt lat="45.6727308" lon="9.0694133"><ele>252.60000000000002</ele><time>2026-03-29T15:40:31.962Z</time></trkpt><trkpt lat="45.6727254" lon="9.0695492"><ele>252.8</ele><time>2026-03-29T15:40:32.962Z</time></trkpt><trkpt lat="45.6727152" lon="9.0696702"><ele>253.0</ele><time>2026-03-29T15:40:33.962Z</time></trkpt><trkpt lat="45.6726844" lon="9.0697769"><ele>252.99999999999997</ele><time>2026-03-29T15:40:34.96Z</time></trkpt><trkpt lat="45.6726293" lon="9.0698666"><ele>253.0</ele><time>2026-03-29T15:40:35.962Z</time></trkpt><trkpt lat="45.6725702" lon="9.0699532"><ele>253.0</ele><time>2026-03-29T15:40:36.961Z</time></trkpt><trkpt lat="45.6725407" lon="9.0700706"><ele>253.0</ele><time>2026-03-29T15:40:37.962Z</time></trkpt><trkpt lat="45.6725506" lon="9.0701939"><ele>252.99999999999997</ele><time>2026-03-29T15:40:38.962Z</time></trkpt><trkpt lat="45.6725981" lon="9.0702916"><ele>253.0</ele><time>2026-03-29T15:40:39.962Z</time></trkpt><trkpt lat="45.6726758" lon="9.0703392"><ele>253.0</ele><time>2026-03-29T15:40:40.961Z</time></trkpt><trkpt lat="45.6727726" lon="9.0703284"><ele>253.0</ele><time>2026-03-29T15:40:41.962Z</time></trkpt><trkpt lat="45.6728756" lon="9.0702598"><ele>253.0</ele><time>2026-03-29T15:40:42.962Z</time></trkpt><trkpt lat="45.6729841" lon="9.0702086"><ele>253.0</ele><time>2026-03-29T15:40:43.962Z</time></trkpt><trkpt lat="45.6731207" lon="9.0702"><ele>253.0</ele><time>2026-03-29T15:40:44.96Z</time></trkpt><trkpt lat="45.6732548" lon="9.0701981"><ele>253.0</ele><time>2026-03-29T15:40:45.961Z</time></trkpt><trkpt lat="45.673393" lon="9.0702015"><ele>253.0</ele><time>2026-03-29T15:40:46.961Z</time></trkpt><trkpt lat="45.673544" lon="9.0702106"><ele>253.0</ele><time>2026-03-29T15:40:47.961Z</time></trkpt><trkpt lat="45.6737075" lon="9.070221"><ele>253.66666666666666</ele><time>2026-03-29T15:40:48.962Z</time></trkpt><trkpt lat="45.673865" lon="9.0702296"><ele>254.33333333333331</ele><time>2026-03-29T15:40:49.962Z</time></trkpt><trkpt lat="45.6740223" lon="9.0702401"><ele>255.0</ele><time>2026-03-29T15:40:50.962Z</time></trkpt><trkpt lat="45.674187" lon="9.0702489"><ele>255.0</ele><time>2026-03-29T15:40:51.962Z</time></trkpt><trkpt lat="45.6743619" lon="9.0702629"><ele>255.0</ele><time>2026-03-29T15:40:52.962Z</time></trkpt><trkpt lat="45.6745468" lon="9.0702762"><ele>255.0</ele><time>2026-03-29T15:40:53.961Z</time></trkpt><trkpt lat="45.6747243" lon="9.0702868"><ele>255.0</ele><time>2026-03-29T15:40:54.962Z</time></trkpt><trkpt lat="45.6748993" lon="9.0702981"><ele>255.0</ele><time>2026-03-29T15:40:55.961Z</time></trkpt><trkpt lat="45.6750827" lon="9.0703096"><ele>255.0</ele><time>2026-03-29T15:40:56.962Z</time></trkpt><trkpt lat="45.6752683" lon="9.0703239"><ele>255.0</ele><time>2026-03-29T15:40:57.962Z</time></trkpt><trkpt lat="45.6754627" lon="9.0703401"><ele>255.0</ele><time>2026-03-29T15:40:58.961Z</time></trkpt><trkpt lat="45.6756654" lon="9.070355"><ele>255.0</ele><time>2026-03-29T15:40:59.961Z</time></trkpt><trkpt lat="45.6758699" lon="9.0703687"><ele>255.0</ele><time>2026-03-29T15:41:00.962Z</time></trkpt><trkpt lat="45.6760827" lon="9.0703815"><ele>255.0</ele><time>2026-03-29T15:41:01.962Z</time></trkpt><trkpt lat="45.6763014" lon="9.0703923"><ele>255.0</ele><time>2026-03-29T15:41:02.962Z</time></trkpt><trkpt lat="45.6765262" lon="9.070404"><ele>255.5</ele><time>2026-03-29T15:41:03.962Z</time></trkpt><trkpt lat="45.676756" lon="9.0704203"><ele>256.0</ele><time>2026-03-29T15:41:04.962Z</time></trkpt><trkpt lat="45.6769903" lon="9.0704379"><ele>256.0</ele><time>2026-03-29T15:41:05.962Z</time></trkpt><trkpt lat="45.6772253" lon="9.0704648"><ele>256.0</ele><time>2026-03-29T15:41:06.962Z</time></trkpt><trkpt lat="45.6774652" lon="9.0705087"><ele>256.0</ele><time>2026-03-29T15:41:07.962Z</time></trkpt><trkpt lat="45.6776991" lon="9.0705784"><ele>256.0</ele><time>2026-03-29T15:41:08.962Z</time></trkpt><trkpt lat="45.6779338" lon="9.0706665"><ele>256.5</ele><time>2026-03-29T15:41:09.961Z</time></trkpt><trkpt lat="45.6781644" lon="9.0707735"><ele>257.0</ele><time>2026-03-29T15:41:10.962Z</time></trkpt><trkpt lat="45.6783879" lon="9.0709081"><ele>259.0</ele><time>2026-03-29T15:41:11.961Z</time></trkpt><trkpt lat="45.6786033" lon="9.0710688"><ele>261.0</ele><time>2026-03-29T15:41:12.961Z</time></trkpt><trkpt lat="45.6788055" lon="9.071257"><ele>261.0</ele><time>2026-03-29T15:41:13.962Z</time></trkpt><trkpt lat="45.6790017" lon="9.0714645"><ele>261.0</ele><time>2026-03-29T15:41:14.962Z</time></trkpt><trkpt lat="45.6791871" lon="9.071693"><ele>259.5</ele><time>2026-03-29T15:41:15.96Z</time></trkpt><trkpt lat="45.6793628" lon="9.0719352"><ele>258.0</ele><time>2026-03-29T15:41:16.961Z</time></trkpt><trkpt lat="45.6795361" lon="9.0721841"><ele>258.0</ele><time>2026-03-29T15:41:17.961Z</time></trkpt><trkpt lat="45.6797036" lon="9.0724385"><ele>258.0</ele><time>2026-03-29T15:41:18.96Z</time></trkpt><trkpt lat="45.6798592" lon="9.0726828"><ele>259.0</ele><time>2026-03-29T15:41:19.962Z</time></trkpt><trkpt lat="45.6800055" lon="9.0729112"><ele>260.0</ele><time>2026-03-29T15:41:20.962Z</time></trkpt><trkpt lat="45.6801407" lon="9.073123"><ele>261.0</ele><time>2026-03-29T15:41:21.962Z</time></trkpt><trkpt lat="45.6802615" lon="9.0733143"><ele>261.0</ele><time>2026-03-29T15:41:22.962Z</time></trkpt><trkpt lat="45.6803648" lon="9.0734787"><ele>261.0</ele><time>2026-03-29T15:41:23.961Z</time></trkpt><trkpt lat="45.6804576" lon="9.0736184"><ele>261.0</ele><time>2026-03-29T15:41:24.961Z</time></trkpt><trkpt lat="45.6805335" lon="9.0737364"><ele>261.0</ele><time>2026-03-29T15:41:25.962Z</time></trkpt><trkpt lat="45.6805995" lon="9.0738371"><ele>261.0</ele><time>2026-03-29T15:41:26.961Z</time></trkpt><trkpt lat="45.6806526" lon="9.0739358"><ele>261.0</ele><time>2026-03-29T15:41:27.961Z</time></trkpt><trkpt lat="45.6806858" lon="9.0740421"><ele>261.0</ele><time>2026-03-29T15:41:28.962Z</time></trkpt><trkpt lat="45.6807043" lon="9.0741655"><ele>261.0</ele><time>2026-03-29T15:41:29.962Z</time></trkpt><trkpt lat="45.680723" lon="9.074302"><ele>261.0</ele><time>2026-03-29T15:41:30.961Z</time></trkpt><trkpt lat="45.680763" lon="9.0744204"><ele>261.0</ele><time>2026-03-29T15:41:31.961Z</time></trkpt><trkpt lat="45.6808311" lon="9.0744952"><ele>260.8</ele><time>2026-03-29T15:41:32.961Z</time></trkpt><trkpt lat="45.6809165" lon="9.0745123"><ele>260.6</ele><time>2026-03-29T15:41:33.961Z</time></trkpt><trkpt lat="45.6809977" lon="9.074463"><ele>260.4</ele><time>2026-03-29T15:41:34.961Z</time></trkpt><trkpt lat="45.6810565" lon="9.0743548"><ele>260.2</ele><time>2026-03-29T15:41:35.961Z</time></trkpt><trkpt lat="45.681087" lon="9.0741992"><ele>260.0</ele><time>2026-03-29T15:41:36.962Z</time></trkpt><trkpt lat="45.6811222" lon="9.0740168"><ele>260.75</ele><time>2026-03-29T15:41:37.962Z</time></trkpt><trkpt lat="45.6812009" lon="9.073833"><ele>261.5</ele><time>2026-03-29T15:41:38.961Z</time></trkpt><trkpt lat="45.6812859" lon="9.0736795"><ele>262.25</ele><time>2026-03-29T15:41:39.961Z</time></trkpt><trkpt lat="45.6813798" lon="9.0735168"><ele>263.0</ele><time>2026-03-29T15:41:40.962Z</time></trkpt><trkpt lat="45.6814818" lon="9.0733465"><ele>263.6666666666667</ele><time>2026-03-29T15:41:41.962Z</time></trkpt><trkpt lat="45.6815961" lon="9.0731716"><ele>264.3333333333333</ele><time>2026-03-29T15:41:42.962Z</time></trkpt><trkpt lat="45.6817137" lon="9.073016"><ele>265.0</ele><time>2026-03-29T15:41:43.961Z</time></trkpt><trkpt lat="45.6818299" lon="9.0728736"><ele>266.3333333333333</ele><time>2026-03-29T15:41:44.962Z</time></trkpt><trkpt lat="45.6819546" lon="9.0727379"><ele>267.6666666666667</ele><time>2026-03-29T15:41:45.962Z</time></trkpt><trkpt lat="45.6820797" lon="9.0725996"><ele>269.0</ele><time>2026-03-29T15:41:46.961Z</time></trkpt><trkpt lat="45.6822056" lon="9.0724517"><ele>269.33333333333337</ele><time>2026-03-29T15:41:47.962Z</time></trkpt><trkpt lat="45.6823279" lon="9.0723099"><ele>269.6666666666667</ele><time>2026-03-29T15:41:48.962Z</time></trkpt><trkpt lat="45.6824483" lon="9.0721693"><ele>270.0</ele><time>2026-03-29T15:41:49.961Z</time></trkpt><trkpt lat="45.6825629" lon="9.0720213"><ele>270.0</ele><time>2026-03-29T15:41:50.961Z</time></trkpt><trkpt lat="45.6826714" lon="9.0718545"><ele>270.0</ele><time>2026-03-29T15:41:51.961Z</time></trkpt><trkpt lat="45.6827637" lon="9.0716677"><ele>270.0</ele><time>2026-03-29T15:41:52.962Z</time></trkpt><trkpt lat="45.6828385" lon="9.0714596"><ele>271.0</ele><time>2026-03-29T15:41:53.961Z</time></trkpt><trkpt lat="45.6828898" lon="9.0712331"><ele>272.0</ele><time>2026-03-29T15:41:54.961Z</time></trkpt><trkpt lat="45.6829219" lon="9.0710005"><ele>273.0</ele><time>2026-03-29T15:41:55.961Z</time></trkpt><trkpt lat="45.6829428" lon="9.0707672"><ele>273.0</ele><time>2026-03-29T15:41:56.962Z</time></trkpt><trkpt lat="45.6829627" lon="9.0705322"><ele>273.0</ele><time>2026-03-29T15:41:57.962Z</time></trkpt><trkpt lat="45.6829946" lon="9.0702991"><ele>273.0</ele><time>2026-03-29T15:41:58.962Z</time></trkpt><trkpt lat="45.6830431" lon="9.070078"><ele>273.3333333333333</ele><time>2026-03-29T15:41:59.961Z</time></trkpt><trkpt lat="45.6831165" lon="9.0698723"><ele>273.66666666666663</ele><time>2026-03-29T15:42:00.962Z</time></trkpt><trkpt lat="45.6832003" lon="9.0696713"><ele>274.0</ele><time>2026-03-29T15:42:01.962Z</time></trkpt><trkpt lat="45.6832895" lon="9.0694729"><ele>274.0</ele><time>2026-03-29T15:42:02.962Z</time></trkpt><trkpt lat="45.6833825" lon="9.0692716"><ele>274.0</ele><time>2026-03-29T15:42:03.962Z</time></trkpt><trkpt lat="45.6834744" lon="9.0690682"><ele>274.0</ele><time>2026-03-29T15:42:04.961Z</time></trkpt><trkpt lat="45.6835675" lon="9.0688689"><ele>273.66666666666663</ele><time>2026-03-29T15:42:05.961Z</time></trkpt><trkpt lat="45.6836589" lon="9.068665"><ele>273.3333333333333</ele><time>2026-03-29T15:42:06.962Z</time></trkpt><trkpt lat="45.6837501" lon="9.0684598"><ele>273.0</ele><time>2026-03-29T15:42:07.961Z</time></trkpt><trkpt lat="45.6838412" lon="9.0682561"><ele>273.6666666666667</ele><time>2026-03-29T15:42:08.961Z</time></trkpt><trkpt lat="45.6839286" lon="9.0680621"><ele>274.33333333333337</ele><time>2026-03-29T15:42:09.961Z</time></trkpt><trkpt lat="45.6840149" lon="9.06786"><ele>275.0</ele><time>2026-03-29T15:42:10.962Z</time></trkpt><trkpt lat="45.6841046" lon="9.0676609"><ele>275.0</ele><time>2026-03-29T15:42:11.962Z</time></trkpt><trkpt lat="45.6841948" lon="9.0674596"><ele>275.0</ele><time>2026-03-29T15:42:12.962Z</time></trkpt><trkpt lat="45.684292" lon="9.0672597"><ele>275.0</ele><time>2026-03-29T15:42:13.962Z</time></trkpt><trkpt lat="45.684387" lon="9.067065"><ele>272.6666666666667</ele><time>2026-03-29T15:42:14.962Z</time></trkpt><trkpt lat="45.684481" lon="9.0668706"><ele>270.3333333333333</ele><time>2026-03-29T15:42:15.961Z</time></trkpt><trkpt lat="45.6845802" lon="9.0666657"><ele>268.0</ele><time>2026-03-29T15:42:16.961Z</time></trkpt><trkpt lat="45.6846819" lon="9.066458"><ele>268.0</ele><time>2026-03-29T15:42:17.961Z</time></trkpt><trkpt lat="45.6847831" lon="9.0662453"><ele>268.0</ele><time>2026-03-29T15:42:18.961Z</time></trkpt><trkpt lat="45.6848849" lon="9.0660269"><ele>268.0</ele><time>2026-03-29T15:42:19.962Z</time></trkpt><trkpt lat="45.6849808" lon="9.0658069"><ele>267.3333333333333</ele><time>2026-03-29T15:42:20.962Z</time></trkpt><trkpt lat="45.6850632" lon="9.0655805"><ele>266.6666666666667</ele><time>2026-03-29T15:42:21.961Z</time></trkpt><trkpt lat="45.6851282" lon="9.0653434"><ele>266.0</ele><time>2026-03-29T15:42:22.962Z</time></trkpt><trkpt lat="45.6851798" lon="9.0651042"><ele>265.6666666666667</ele><time>2026-03-29T15:42:23.961Z</time></trkpt><trkpt lat="45.685207" lon="9.0648471"><ele>265.3333333333333</ele><time>2026-03-29T15:42:24.962Z</time></trkpt><trkpt lat="45.6852243" lon="9.0645981"><ele>265.0</ele><time>2026-03-29T15:42:25.962Z</time></trkpt><trkpt lat="45.6852262" lon="9.0643428"><ele>265.66666666666663</ele><time>2026-03-29T15:42:26.962Z</time></trkpt><trkpt lat="45.6852201" lon="9.0641038"><ele>266.3333333333333</ele><time>2026-03-29T15:42:27.961Z</time></trkpt><trkpt lat="45.6852338" lon="9.0638755"><ele>267.0</ele><time>2026-03-29T15:42:28.962Z</time></trkpt><trkpt lat="45.6852772" lon="9.0636753"><ele>267.0</ele><time>2026-03-29T15:42:29.961Z</time></trkpt><trkpt lat="45.6853586" lon="9.0635045"><ele>267.0</ele><time>2026-03-29T15:42:30.961Z</time></trkpt><trkpt lat="45.6854686" lon="9.0633603"><ele>267.0</ele><time>2026-03-29T15:42:31.962Z</time></trkpt><trkpt lat="45.6855911" lon="9.0632554"><ele>267.0</ele><time>2026-03-29T15:42:32.962Z</time></trkpt><trkpt lat="45.6857305" lon="9.0631903"><ele>267.0</ele><time>2026-03-29T15:42:33.962Z</time></trkpt><trkpt lat="45.6858826" lon="9.063147"><ele>267.0</ele><time>2026-03-29T15:42:34.961Z</time></trkpt><trkpt lat="45.6860386" lon="9.0631057"><ele>267.0</ele><time>2026-03-29T15:42:35.962Z</time></trkpt><trkpt lat="45.6861902" lon="9.0630677"><ele>267.5</ele><time>2026-03-29T15:42:36.961Z</time></trkpt><trkpt lat="45.686336" lon="9.0630311"><ele>268.0</ele><time>2026-03-29T15:42:37.961Z</time></trkpt><trkpt lat="45.6864715" lon="9.0630006"><ele>268.5</ele><time>2026-03-29T15:42:38.962Z</time></trkpt><trkpt lat="45.686599" lon="9.0629749"><ele>269.0</ele><time>2026-03-29T15:42:39.961Z</time></trkpt><trkpt lat="45.6867157" lon="9.0629506"><ele>269.0</ele><time>2026-03-29T15:42:40.961Z</time></trkpt><trkpt lat="45.6868328" lon="9.0629267"><ele>269.0</ele><time>2026-03-29T15:42:41.962Z</time></trkpt><trkpt lat="45.6869527" lon="9.0629056"><ele>269.0</ele><time>2026-03-29T15:42:42.962Z</time></trkpt><trkpt lat="45.6870774" lon="9.0628801"><ele>269.0</ele><time>2026-03-29T15:42:43.962Z</time></trkpt><trkpt lat="45.6872076" lon="9.0628371"><ele>269.0</ele><time>2026-03-29T15:42:44.961Z</time></trkpt><trkpt lat="45.6873283" lon="9.0627592"><ele>269.0</ele><time>2026-03-29T15:42:45.96Z</time></trkpt><trkpt lat="45.6874391" lon="9.0626385"><ele>269.0</ele><time>2026-03-29T15:42:46.961Z</time></trkpt><trkpt lat="45.687526" lon="9.0624878"><ele>269.0</ele><time>2026-03-29T15:42:47.961Z</time></trkpt><trkpt lat="45.6875869" lon="9.0623317"><ele>269.0</ele><time>2026-03-29T15:42:48.961Z</time></trkpt><trkpt lat="45.6876318" lon="9.0621815"><ele>269.0</ele><time>2026-03-29T15:42:49.962Z</time></trkpt><trkpt lat="45.68767" lon="9.0620378"><ele>269.0</ele><time>2026-03-29T15:42:50.961Z</time></trkpt><trkpt lat="45.6877179" lon="9.0618996"><ele>269.0</ele><time>2026-03-29T15:42:51.962Z</time></trkpt><trkpt lat="45.6877936" lon="9.0617753"><ele>269.0</ele><time>2026-03-29T15:42:52.962Z</time></trkpt><trkpt lat="45.6878888" lon="9.0616716"><ele>269.75</ele><time>2026-03-29T15:42:53.961Z</time></trkpt><trkpt lat="45.6880028" lon="9.061598"><ele>270.5</ele><time>2026-03-29T15:42:54.961Z</time></trkpt><trkpt lat="45.6881331" lon="9.0615574"><ele>271.25</ele><time>2026-03-29T15:42:55.961Z</time></trkpt><trkpt lat="45.6882688" lon="9.0615249"><ele>272.0</ele><time>2026-03-29T15:42:56.962Z</time></trkpt><trkpt lat="45.6884194" lon="9.0614973"><ele>272.0</ele><time>2026-03-29T15:42:57.961Z</time></trkpt><trkpt lat="45.6885694" lon="9.0614683"><ele>272.0</ele><time>2026-03-29T15:42:58.96Z</time></trkpt><trkpt lat="45.6887144" lon="9.0614446"><ele>272.0</ele><time>2026-03-29T15:42:59.962Z</time></trkpt><trkpt lat="45.6888648" lon="9.0614222"><ele>272.0</ele><time>2026-03-29T15:43:00.961Z</time></trkpt><trkpt lat="45.6890143" lon="9.0614042"><ele>272.5</ele><time>2026-03-29T15:43:01.961Z</time></trkpt><trkpt lat="45.6891659" lon="9.0613832"><ele>273.0</ele><time>2026-03-29T15:43:02.961Z</time></trkpt><trkpt lat="45.6893144" lon="9.0613626"><ele>273.5</ele><time>2026-03-29T15:43:03.961Z</time></trkpt><trkpt lat="45.6894579" lon="9.0613429"><ele>274.0</ele><time>2026-03-29T15:43:04.96Z</time></trkpt><trkpt lat="45.6895913" lon="9.0613192"><ele>275.0</ele><time>2026-03-29T15:43:05.961Z</time></trkpt><trkpt lat="45.689719" lon="9.0612977"><ele>276.0</ele><time>2026-03-29T15:43:06.961Z</time></trkpt><trkpt lat="45.6898427" lon="9.0612804"><ele>277.0</ele><time>2026-03-29T15:43:07.961Z</time></trkpt><trkpt lat="45.689953" lon="9.0612645"><ele>278.0</ele><time>2026-03-29T15:43:08.96Z</time></trkpt><trkpt lat="45.6900549" lon="9.0612505"><ele>278.0</ele><time>2026-03-29T15:43:09.96Z</time></trkpt><trkpt lat="45.6901542" lon="9.0612357"><ele>278.0</ele><time>2026-03-29T15:43:10.96Z</time></trkpt><trkpt lat="45.6902538" lon="9.0612233"><ele>278.0</ele><time>2026-03-29T15:43:11.961Z</time></trkpt><trkpt lat="45.6903483" lon="9.0612094"><ele>278.0</ele><time>2026-03-29T15:43:12.96Z</time></trkpt><trkpt lat="45.6904319" lon="9.061201"><ele>278.0</ele><time>2026-03-29T15:43:13.961Z</time></trkpt><trkpt lat="45.6905134" lon="9.0611914"><ele>277.83333333333337</ele><time>2026-03-29T15:43:14.96Z</time></trkpt><trkpt lat="45.6905916" lon="9.0611834"><ele>277.6666666666667</ele><time>2026-03-29T15:43:15.961Z</time></trkpt><trkpt lat="45.6906651" lon="9.0611782"><ele>277.5</ele><time>2026-03-29T15:43:16.961Z</time></trkpt><trkpt lat="45.6907791" lon="9.0611751"><ele>277.3333333333333</ele><time>2026-03-29T15:43:18.961Z</time></trkpt><trkpt lat="45.6908694" lon="9.0611529"><ele>277.16666666666663</ele><time>2026-03-29T15:43:20.961Z</time></trkpt><trkpt lat="45.6909413" lon="9.0611651"><ele>277.0</ele><time>2026-03-29T15:43:23.96Z</time></trkpt><trkpt lat="45.6910051" lon="9.0612267"><ele>277.0</ele><time>2026-03-29T15:43:26.96Z</time></trkpt><trkpt lat="45.6910753" lon="9.0613223"><ele>277.0</ele><time>2026-03-29T15:43:29.96Z</time></trkpt><trkpt lat="45.6911357" lon="9.0614819"><ele>277.0</ele><time>2026-03-29T15:43:31.961Z</time></trkpt><trkpt lat="45.6911671" lon="9.0615758"><ele>277.0</ele><time>2026-03-29T15:43:32.961Z</time></trkpt><trkpt lat="45.691199" lon="9.0616768"><ele>277.0</ele><time>2026-03-29T15:43:33.961Z</time></trkpt><trkpt lat="45.6912349" lon="9.0617802"><ele>277.16666666666663</ele><time>2026-03-29T15:43:34.961Z</time></trkpt><trkpt lat="45.6912759" lon="9.0618949"><ele>277.3333333333333</ele><time>2026-03-29T15:43:35.961Z</time></trkpt><trkpt lat="45.6913189" lon="9.0620161"><ele>277.5</ele><time>2026-03-29T15:43:36.96Z</time></trkpt><trkpt lat="45.6913596" lon="9.0621266"><ele>277.6666666666667</ele><time>2026-03-29T15:43:37.961Z</time></trkpt><trkpt lat="45.6914003" lon="9.0622272"><ele>277.83333333333337</ele><time>2026-03-29T15:43:38.96Z</time></trkpt><trkpt lat="45.691438" lon="9.0623328"><ele>278.0</ele><time>2026-03-29T15:43:39.961Z</time></trkpt><trkpt lat="45.6914757" lon="9.0624418"><ele>277.8</ele><time>2026-03-29T15:43:40.961Z</time></trkpt><trkpt lat="45.6915174" lon="9.0625631"><ele>277.6</ele><time>2026-03-29T15:43:41.96Z</time></trkpt><trkpt lat="45.6915658" lon="9.0626939"><ele>277.4</ele><time>2026-03-29T15:43:42.961Z</time></trkpt><trkpt lat="45.6916237" lon="9.0628462"><ele>277.2</ele><time>2026-03-29T15:43:43.96Z</time></trkpt><trkpt lat="45.6916705" lon="9.0629925"><ele>277.0</ele><time>2026-03-29T15:43:44.96Z</time></trkpt><trkpt lat="45.691718" lon="9.063127"><ele>277.0</ele><time>2026-03-29T15:43:45.96Z</time></trkpt><trkpt lat="45.6917602" lon="9.0632493"><ele>277.0</ele><time>2026-03-29T15:43:46.96Z</time></trkpt><trkpt lat="45.6917992" lon="9.0633643"><ele>277.0</ele><time>2026-03-29T15:43:47.96Z</time></trkpt><trkpt lat="45.691838" lon="9.0634759"><ele>277.0</ele><time>2026-03-29T15:43:48.96Z</time></trkpt><trkpt lat="45.6918757" lon="9.0635808"><ele>277.0</ele><time>2026-03-29T15:43:49.959Z</time></trkpt><trkpt lat="45.6919104" lon="9.0636831"><ele>277.0</ele><time>2026-03-29T15:43:50.96Z</time></trkpt><trkpt lat="45.6919382" lon="9.0637764"><ele>277.4</ele><time>2026-03-29T15:43:51.961Z</time></trkpt><trkpt lat="45.6919727" lon="9.0638718"><ele>277.79999999999995</ele><time>2026-03-29T15:43:52.96Z</time></trkpt><trkpt lat="45.6920131" lon="9.0639795"><ele>278.2</ele><time>2026-03-29T15:43:53.961Z</time></trkpt><trkpt lat="45.692059" lon="9.0640983"><ele>278.59999999999997</ele><time>2026-03-29T15:43:54.961Z</time></trkpt><trkpt lat="45.6921106" lon="9.0642302"><ele>279.0</ele><time>2026-03-29T15:43:55.961Z</time></trkpt><trkpt lat="45.6921575" lon="9.0643736"><ele>278.8</ele><time>2026-03-29T15:43:56.961Z</time></trkpt><trkpt lat="45.6922015" lon="9.0645149"><ele>278.59999999999997</ele><time>2026-03-29T15:43:57.961Z</time></trkpt><trkpt lat="45.6922466" lon="9.0646439"><ele>278.4</ele><time>2026-03-29T15:43:58.961Z</time></trkpt><trkpt lat="45.6922889" lon="9.0647525"><ele>278.2</ele><time>2026-03-29T15:43:59.96Z</time></trkpt><trkpt lat="45.6923281" lon="9.0648645"><ele>278.0</ele><time>2026-03-29T15:44:00.961Z</time></trkpt><trkpt lat="45.692362" lon="9.0649652"><ele>278.0</ele><time>2026-03-29T15:44:01.961Z</time></trkpt><trkpt lat="45.6923953" lon="9.0650632"><ele>278.0</ele><time>2026-03-29T15:44:02.961Z</time></trkpt><trkpt lat="45.6924271" lon="9.0651642"><ele>278.0</ele><time>2026-03-29T15:44:03.96Z</time></trkpt><trkpt lat="45.6924627" lon="9.0652618"><ele>278.0</ele><time>2026-03-29T15:44:04.96Z</time></trkpt><trkpt lat="45.6925013" lon="9.0653623"><ele>278.0</ele><time>2026-03-29T15:44:05.961Z</time></trkpt><trkpt lat="45.6925335" lon="9.0654626"><ele>278.0</ele><time>2026-03-29T15:44:06.959Z</time></trkpt><trkpt lat="45.6925636" lon="9.0655623"><ele>278.0</ele><time>2026-03-29T15:44:07.961Z</time></trkpt><trkpt lat="45.6925932" lon="9.0656529"><ele>278.0</ele><time>2026-03-29T15:44:08.961Z</time></trkpt><trkpt lat="45.692622" lon="9.0657397"><ele>278.0</ele><time>2026-03-29T15:44:09.961Z</time></trkpt><trkpt lat="45.6926522" lon="9.0658205"><ele>278.0</ele><time>2026-03-29T15:44:10.96Z</time></trkpt><trkpt lat="45.6926967" lon="9.0659564"><ele>278.0</ele><time>2026-03-29T15:44:12.961Z</time></trkpt><trkpt lat="45.6927214" lon="9.0660653"><ele>278.0</ele><time>2026-03-29T15:44:14.959Z</time></trkpt><trkpt lat="45.692732" lon="9.06617"><ele>277.83333333333337</ele><time>2026-03-29T15:44:16.96Z</time></trkpt><trkpt lat="45.6927415" lon="9.0662839"><ele>277.6666666666667</ele><time>2026-03-29T15:44:34.96Z</time></trkpt><trkpt lat="45.6927138" lon="9.0664224"><ele>277.5</ele><time>2026-03-29T15:44:36.961Z</time></trkpt><trkpt lat="45.6926984" lon="9.0665181"><ele>277.3333333333333</ele><time>2026-03-29T15:44:37.96Z</time></trkpt><trkpt lat="45.6926965" lon="9.0666129"><ele>277.16666666666663</ele><time>2026-03-29T15:44:38.961Z</time></trkpt><trkpt lat="45.6927183" lon="9.0667049"><ele>277.0</ele><time>2026-03-29T15:44:39.961Z</time></trkpt><trkpt lat="45.6927565" lon="9.0667881"><ele>276.5</ele><time>2026-03-29T15:44:40.961Z</time></trkpt><trkpt lat="45.6928157" lon="9.0668677"><ele>276.0</ele><time>2026-03-29T15:44:41.961Z</time></trkpt><trkpt lat="45.6928969" lon="9.0669288"><ele>275.5</ele><time>2026-03-29T15:44:42.961Z</time></trkpt><trkpt lat="45.6929712" lon="9.0669903"><ele>275.0</ele><time>2026-03-29T15:44:43.961Z</time></trkpt><trkpt lat="45.6930394" lon="9.06706"><ele>274.5</ele><time>2026-03-29T15:44:44.959Z</time></trkpt><trkpt lat="45.6931059" lon="9.0671552"><ele>274.0</ele><time>2026-03-29T15:44:45.961Z</time></trkpt><trkpt lat="45.6931581" lon="9.0672662"><ele>274.0</ele><time>2026-03-29T15:44:46.961Z</time></trkpt><trkpt lat="45.6931999" lon="9.0673873"><ele>274.0</ele><time>2026-03-29T15:44:47.959Z</time></trkpt><trkpt lat="45.6932444" lon="9.0675121"><ele>274.0</ele><time>2026-03-29T15:44:48.96Z</time></trkpt><trkpt lat="45.6932906" lon="9.0676446"><ele>274.0</ele><time>2026-03-29T15:44:49.961Z</time></trkpt><trkpt lat="45.6933416" lon="9.0677903"><ele>274.0</ele><time>2026-03-29T15:44:50.96Z</time></trkpt><trkpt lat="45.6933943" lon="9.0679415"><ele>274.25</ele><time>2026-03-29T15:44:51.961Z</time></trkpt><trkpt lat="45.693446" lon="9.068091"><ele>274.5</ele><time>2026-03-29T15:44:52.961Z</time></trkpt><trkpt lat="45.6935012" lon="9.0682389"><ele>274.75</ele><time>2026-03-29T15:44:53.961Z</time></trkpt><trkpt lat="45.6935549" lon="9.0683873"><ele>275.0</ele><time>2026-03-29T15:44:54.961Z</time></trkpt><trkpt lat="45.693606" lon="9.0685262"><ele>275.4</ele><time>2026-03-29T15:44:55.96Z</time></trkpt><trkpt lat="45.6936546" lon="9.0686542"><ele>275.8</ele><time>2026-03-29T15:44:56.96Z</time></trkpt><trkpt lat="45.6936982" lon="9.06877"><ele>276.2</ele><time>2026-03-29T15:44:57.961Z</time></trkpt><trkpt lat="45.6937383" lon="9.0688888"><ele>276.6</ele><time>2026-03-29T15:44:58.96Z</time></trkpt><trkpt lat="45.6937755" lon="9.0690078"><ele>277.0</ele><time>2026-03-29T15:44:59.96Z</time></trkpt><trkpt lat="45.6938126" lon="9.0691245"><ele>277.4</ele><time>2026-03-29T15:45:00.96Z</time></trkpt><trkpt lat="45.6938452" lon="9.0692372"><ele>277.79999999999995</ele><time>2026-03-29T15:45:01.96Z</time></trkpt><trkpt lat="45.6938769" lon="9.0693552"><ele>278.2</ele><time>2026-03-29T15:45:02.96Z</time></trkpt><trkpt lat="45.6939086" lon="9.0694791"><ele>278.59999999999997</ele><time>2026-03-29T15:45:03.961Z</time></trkpt><trkpt lat="45.6939381" lon="9.0696139"><ele>279.0</ele><time>2026-03-29T15:45:04.961Z</time></trkpt><trkpt lat="45.6939636" lon="9.069745"><ele>279.0</ele><time>2026-03-29T15:45:05.961Z</time></trkpt><trkpt lat="45.6939892" lon="9.0698656"><ele>279.0</ele><time>2026-03-29T15:45:06.96Z</time></trkpt><trkpt lat="45.6940095" lon="9.0699684"><ele>279.0</ele><time>2026-03-29T15:45:07.961Z</time></trkpt><trkpt lat="45.6940259" lon="9.0700633"><ele>279.0</ele><time>2026-03-29T15:45:08.961Z</time></trkpt><trkpt lat="45.6940465" lon="9.0702225"><ele>279.0</ele><time>2026-03-29T15:45:10.961Z</time></trkpt><trkpt lat="45.6940617" lon="9.0703559"><ele>279.0</ele><time>2026-03-29T15:45:12.96Z</time></trkpt><trkpt lat="45.6940673" lon="9.070493"><ele>279.0</ele><time>2026-03-29T15:45:14.96Z</time></trkpt><trkpt lat="45.6940663" lon="9.0706497"><ele>279.0</ele><time>2026-03-29T15:45:16.961Z</time></trkpt><trkpt lat="45.694045" lon="9.0708266"><ele>279.0</ele><time>2026-03-29T15:45:18.96Z</time></trkpt><trkpt lat="45.6940274" lon="9.0709229"><ele>279.0</ele><time>2026-03-29T15:45:19.96Z</time></trkpt><trkpt lat="45.6940213" lon="9.0710321"><ele>279.0</ele><time>2026-03-29T15:45:20.96Z</time></trkpt><trkpt lat="45.6940462" lon="9.0711511"><ele>279.4</ele><time>2026-03-29T15:45:21.96Z</time></trkpt><trkpt lat="45.6940834" lon="9.0712615"><ele>279.79999999999995</ele><time>2026-03-29T15:45:22.96Z</time></trkpt><trkpt lat="45.6941142" lon="9.0713771"><ele>280.20000000000005</ele><time>2026-03-29T15:45:23.961Z</time></trkpt><trkpt lat="45.6941401" lon="9.0715062"><ele>280.6</ele><time>2026-03-29T15:45:24.96Z</time></trkpt><trkpt lat="45.694163" lon="9.0716518"><ele>281.0</ele><time>2026-03-29T15:45:25.96Z</time></trkpt><trkpt lat="45.6941841" lon="9.0718207"><ele>281.0</ele><time>2026-03-29T15:45:26.96Z</time></trkpt><trkpt lat="45.6942003" lon="9.0719865"><ele>281.0</ele><time>2026-03-29T15:45:27.961Z</time></trkpt><trkpt lat="45.6942137" lon="9.0721409"><ele>281.0</ele><time>2026-03-29T15:45:28.96Z</time></trkpt><trkpt lat="45.6942281" lon="9.0723026"><ele>281.0</ele><time>2026-03-29T15:45:29.961Z</time></trkpt><trkpt lat="45.6942436" lon="9.0724696"><ele>281.0</ele><time>2026-03-29T15:45:30.961Z</time></trkpt><trkpt lat="45.6942574" lon="9.0726471"><ele>281.0</ele><time>2026-03-29T15:45:31.96Z</time></trkpt><trkpt lat="45.6942716" lon="9.0728325"><ele>281.0</ele><time>2026-03-29T15:45:32.96Z</time></trkpt><trkpt lat="45.6942879" lon="9.0730323"><ele>281.0</ele><time>2026-03-29T15:45:33.96Z</time></trkpt><trkpt lat="45.6943057" lon="9.0732465"><ele>280.5</ele><time>2026-03-29T15:45:34.96Z</time></trkpt><trkpt lat="45.6943224" lon="9.0734537"><ele>280.0</ele><time>2026-03-29T15:45:35.961Z</time></trkpt><trkpt lat="45.6943402" lon="9.0736498"><ele>279.5</ele><time>2026-03-29T15:45:36.961Z</time></trkpt><trkpt lat="45.6943599" lon="9.0738468"><ele>279.0</ele><time>2026-03-29T15:45:37.961Z</time></trkpt><trkpt lat="45.6943837" lon="9.0740457"><ele>279.0</ele><time>2026-03-29T15:45:38.961Z</time></trkpt><trkpt lat="45.694409" lon="9.0742485"><ele>279.0</ele><time>2026-03-29T15:45:39.961Z</time></trkpt><trkpt lat="45.6944382" lon="9.0744545"><ele>279.0</ele><time>2026-03-29T15:45:40.961Z</time></trkpt><trkpt lat="45.6944667" lon="9.0746639"><ele>279.0</ele><time>2026-03-29T15:45:41.959Z</time></trkpt><trkpt lat="45.6944979" lon="9.0748727"><ele>279.0</ele><time>2026-03-29T15:45:42.961Z</time></trkpt><trkpt lat="45.6945276" lon="9.0750757"><ele>279.0</ele><time>2026-03-29T15:45:43.961Z</time></trkpt><trkpt lat="45.6945592" lon="9.0752778"><ele>279.0</ele><time>2026-03-29T15:45:44.96Z</time></trkpt><trkpt lat="45.6945897" lon="9.0754732"><ele>279.0</ele><time>2026-03-29T15:45:45.961Z</time></trkpt><trkpt lat="45.6946191" lon="9.0756643"><ele>279.5</ele><time>2026-03-29T15:45:46.961Z</time></trkpt><trkpt lat="45.6946487" lon="9.0758473"><ele>280.0</ele><time>2026-03-29T15:45:47.96Z</time></trkpt><trkpt lat="45.6946794" lon="9.0760213"><ele>280.5</ele><time>2026-03-29T15:45:48.96Z</time></trkpt><trkpt lat="45.6947034" lon="9.0761817"><ele>281.0</ele><time>2026-03-29T15:45:49.96Z</time></trkpt><trkpt lat="45.6947309" lon="9.0763344"><ele>281.0</ele><time>2026-03-29T15:45:50.96Z</time></trkpt><trkpt lat="45.6947552" lon="9.0764807"><ele>281.0</ele><time>2026-03-29T15:45:51.96Z</time></trkpt><trkpt lat="45.6947762" lon="9.0766218"><ele>281.0</ele><time>2026-03-29T15:45:52.961Z</time></trkpt><trkpt lat="45.6947963" lon="9.0767514"><ele>281.0</ele><time>2026-03-29T15:45:53.961Z</time></trkpt><trkpt lat="45.6948101" lon="9.0768501"><ele>281.0</ele><time>2026-03-29T15:45:54.961Z</time></trkpt><trkpt lat="45.6948302" lon="9.0769899"><ele>281.0</ele><time>2026-03-29T15:45:56.96Z</time></trkpt><trkpt lat="45.6948462" lon="9.0771027"><ele>281.0</ele><time>2026-03-29T15:45:58.959Z</time></trkpt><trkpt lat="45.6948674" lon="9.0772693"><ele>281.0</ele><time>2026-03-29T15:46:00.961Z</time></trkpt><trkpt lat="45.694879" lon="9.0773804"><ele>281.0</ele><time>2026-03-29T15:46:01.96Z</time></trkpt><trkpt lat="45.6948904" lon="9.0775054"><ele>281.0</ele><time>2026-03-29T15:46:02.961Z</time></trkpt><trkpt lat="45.6949022" lon="9.07764"><ele>281.0</ele><time>2026-03-29T15:46:03.961Z</time></trkpt><trkpt lat="45.6949133" lon="9.0777842"><ele>281.0</ele><time>2026-03-29T15:46:04.961Z</time></trkpt><trkpt lat="45.6949258" lon="9.0779213"><ele>281.0</ele><time>2026-03-29T15:46:05.961Z</time></trkpt><trkpt lat="45.6949369" lon="9.0780474"><ele>281.0</ele><time>2026-03-29T15:46:06.959Z</time></trkpt><trkpt lat="45.694946" lon="9.0781614"><ele>281.0</ele><time>2026-03-29T15:46:07.959Z</time></trkpt><trkpt lat="45.6949555" lon="9.0782593"><ele>281.0</ele><time>2026-03-29T15:46:08.961Z</time></trkpt><trkpt lat="45.6949618" lon="9.0783516"><ele>281.0</ele><time>2026-03-29T15:46:09.961Z</time></trkpt><trkpt lat="45.694976" lon="9.078518"><ele>281.0</ele><time>2026-03-29T15:46:11.96Z</time></trkpt><trkpt lat="45.6949901" lon="9.0786617"><ele>281.0</ele><time>2026-03-29T15:46:13.96Z</time></trkpt><trkpt lat="45.6949922" lon="9.0788132"><ele>281.0</ele><time>2026-03-29T15:46:15.961Z</time></trkpt><trkpt lat="45.6949894" lon="9.0789684"><ele>281.0</ele><time>2026-03-29T15:46:17.959Z</time></trkpt><trkpt lat="45.6949769" lon="9.079113"><ele>281.0</ele><time>2026-03-29T15:46:19.961Z</time></trkpt><trkpt lat="45.6949583" lon="9.0792093"><ele>281.0</ele><time>2026-03-29T15:46:21.961Z</time></trkpt><trkpt lat="45.694942" lon="9.0793032"><ele>281.0</ele><time>2026-03-29T15:46:23.961Z</time></trkpt><trkpt lat="45.6949057" lon="9.079449"><ele>281.0</ele><time>2026-03-29T15:46:25.959Z</time></trkpt><trkpt lat="45.6949113" lon="9.079614"><ele>281.0</ele><time>2026-03-29T15:46:27.959Z</time></trkpt><trkpt lat="45.6949372" lon="9.079703"><ele>281.0</ele><time>2026-03-29T15:46:28.959Z</time></trkpt><trkpt lat="45.6949674" lon="9.0797977"><ele>281.0</ele><time>2026-03-29T15:46:29.96Z</time></trkpt><trkpt lat="45.6949985" lon="9.0798947"><ele>281.0</ele><time>2026-03-29T15:46:30.96Z</time></trkpt><trkpt lat="45.6950297" lon="9.0799954"><ele>281.0</ele><time>2026-03-29T15:46:31.959Z</time></trkpt><trkpt lat="45.6950625" lon="9.0801001"><ele>281.0</ele><time>2026-03-29T15:46:32.959Z</time></trkpt><trkpt lat="45.6950964" lon="9.0802244"><ele>281.0</ele><time>2026-03-29T15:46:33.959Z</time></trkpt><trkpt lat="45.6951219" lon="9.0803502"><ele>281.0</ele><time>2026-03-29T15:46:34.96Z</time></trkpt><trkpt lat="45.6951434" lon="9.0804693"><ele>281.0</ele><time>2026-03-29T15:46:35.959Z</time></trkpt><trkpt lat="45.6951653" lon="9.0805773"><ele>281.0</ele><time>2026-03-29T15:46:36.959Z</time></trkpt><trkpt lat="45.6951903" lon="9.0806916"><ele>281.0</ele><time>2026-03-29T15:46:37.96Z</time></trkpt><trkpt lat="45.6952113" lon="9.0808143"><ele>281.0</ele><time>2026-03-29T15:46:38.959Z</time></trkpt><trkpt lat="45.6952342" lon="9.0809426"><ele>281.0</ele><time>2026-03-29T15:46:39.959Z</time></trkpt><trkpt lat="45.6952599" lon="9.0810755"><ele>281.0</ele><time>2026-03-29T15:46:40.959Z</time></trkpt><trkpt lat="45.6952841" lon="9.0812171"><ele>281.0</ele><time>2026-03-29T15:46:41.96Z</time></trkpt><trkpt lat="45.6953096" lon="9.0813728"><ele>281.0</ele><time>2026-03-29T15:46:42.959Z</time></trkpt><trkpt lat="45.6953323" lon="9.0815263"><ele>281.0</ele><time>2026-03-29T15:46:43.96Z</time></trkpt><trkpt lat="45.6953537" lon="9.0816711"><ele>281.0</ele><time>2026-03-29T15:46:44.958Z</time></trkpt><trkpt lat="45.6953762" lon="9.0818158"><ele>281.0</ele><time>2026-03-29T15:46:45.958Z</time></trkpt><trkpt lat="45.6953999" lon="9.0819633"><ele>281.0</ele><time>2026-03-29T15:46:46.96Z</time></trkpt><trkpt lat="45.6954255" lon="9.0821149"><ele>281.0</ele><time>2026-03-29T15:46:47.959Z</time></trkpt><trkpt lat="45.6954496" lon="9.0822743"><ele>281.0</ele><time>2026-03-29T15:46:48.96Z</time></trkpt><trkpt lat="45.6954758" lon="9.082436"><ele>281.0</ele><time>2026-03-29T15:46:49.958Z</time></trkpt><trkpt lat="45.6955015" lon="9.0826051"><ele>280.75</ele><time>2026-03-29T15:46:50.959Z</time></trkpt><trkpt lat="45.6955334" lon="9.0827859"><ele>280.5</ele><time>2026-03-29T15:46:51.959Z</time></trkpt><trkpt lat="45.6955634" lon="9.082976"><ele>280.25</ele><time>2026-03-29T15:46:52.96Z</time></trkpt><trkpt lat="45.6955974" lon="9.0831734"><ele>280.0</ele><time>2026-03-29T15:46:53.96Z</time></trkpt><trkpt lat="45.6956294" lon="9.0833702"><ele>280.0</ele><time>2026-03-29T15:46:54.96Z</time></trkpt><trkpt lat="45.6956594" lon="9.0835593"><ele>280.0</ele><time>2026-03-29T15:46:55.958Z</time></trkpt><trkpt lat="45.6956857" lon="9.0837465"><ele>280.0</ele><time>2026-03-29T15:46:56.96Z</time></trkpt><trkpt lat="45.6957058" lon="9.0839349"><ele>280.0</ele><time>2026-03-29T15:46:57.96Z</time></trkpt><trkpt lat="45.6957221" lon="9.0841275"><ele>280.5</ele><time>2026-03-29T15:46:58.96Z</time></trkpt><trkpt lat="45.6957353" lon="9.0843182"><ele>281.0</ele><time>2026-03-29T15:46:59.96Z</time></trkpt><trkpt lat="45.6957438" lon="9.0844948"><ele>281.5</ele><time>2026-03-29T15:47:00.959Z</time></trkpt><trkpt lat="45.6957551" lon="9.0846636"><ele>282.0</ele><time>2026-03-29T15:47:01.96Z</time></trkpt><trkpt lat="45.6957654" lon="9.0848316"><ele>282.4</ele><time>2026-03-29T15:47:02.96Z</time></trkpt><trkpt lat="45.6957764" lon="9.0849992"><ele>282.79999999999995</ele><time>2026-03-29T15:47:03.96Z</time></trkpt><trkpt lat="45.6957852" lon="9.0851606"><ele>283.2</ele><time>2026-03-29T15:47:04.96Z</time></trkpt><trkpt lat="45.6957947" lon="9.085317"><ele>283.59999999999997</ele><time>2026-03-29T15:47:05.96Z</time></trkpt><trkpt lat="45.6958023" lon="9.0854708"><ele>284.0</ele><time>2026-03-29T15:47:06.96Z</time></trkpt><trkpt lat="45.6958105" lon="9.0856248"><ele>283.8</ele><time>2026-03-29T15:47:07.959Z</time></trkpt><trkpt lat="45.6958155" lon="9.0857701"><ele>283.59999999999997</ele><time>2026-03-29T15:47:08.959Z</time></trkpt><trkpt lat="45.6958178" lon="9.0859002"><ele>283.4</ele><time>2026-03-29T15:47:09.958Z</time></trkpt><trkpt lat="45.6958161" lon="9.0860229"><ele>283.2</ele><time>2026-03-29T15:47:10.959Z</time></trkpt><trkpt lat="45.6958065" lon="9.0861423"><ele>283.0</ele><time>2026-03-29T15:47:11.959Z</time></trkpt><trkpt lat="45.6957907" lon="9.0862673"><ele>283.0</ele><time>2026-03-29T15:47:12.959Z</time></trkpt><trkpt lat="45.6957873" lon="9.086405"><ele>283.0</ele><time>2026-03-29T15:47:13.959Z</time></trkpt><trkpt lat="45.6958179" lon="9.0865603"><ele>283.0</ele><time>2026-03-29T15:47:14.96Z</time></trkpt><trkpt lat="45.6958767" lon="9.0867264"><ele>283.0</ele><time>2026-03-29T15:47:15.96Z</time></trkpt><trkpt lat="45.69594" lon="9.0869133"><ele>283.5</ele><time>2026-03-29T15:47:16.96Z</time></trkpt><trkpt lat="45.6959916" lon="9.0870888"><ele>284.0</ele><time>2026-03-29T15:47:17.96Z</time></trkpt><trkpt lat="45.6960437" lon="9.0872761"><ele>284.5</ele><time>2026-03-29T15:47:18.96Z</time></trkpt><trkpt lat="45.696094" lon="9.0874735"><ele>285.0</ele><time>2026-03-29T15:47:19.959Z</time></trkpt><trkpt lat="45.6961394" lon="9.0876559"><ele>285.0</ele><time>2026-03-29T15:47:20.959Z</time></trkpt><trkpt lat="45.6961877" lon="9.0878261"><ele>285.0</ele><time>2026-03-29T15:47:21.96Z</time></trkpt><trkpt lat="45.6962359" lon="9.0879948"><ele>285.0</ele><time>2026-03-29T15:47:22.959Z</time></trkpt><trkpt lat="45.6962818" lon="9.0881735"><ele>285.0</ele><time>2026-03-29T15:47:23.959Z</time></trkpt><trkpt lat="45.6963358" lon="9.0883714"><ele>285.5</ele><time>2026-03-29T15:47:24.959Z</time></trkpt><trkpt lat="45.6963937" lon="9.0885802"><ele>286.0</ele><time>2026-03-29T15:47:25.96Z</time></trkpt><trkpt lat="45.6964447" lon="9.0887715"><ele>286.5</ele><time>2026-03-29T15:47:26.96Z</time></trkpt><trkpt lat="45.6964933" lon="9.0889505"><ele>287.0</ele><time>2026-03-29T15:47:27.96Z</time></trkpt><trkpt lat="45.6965414" lon="9.0891198"><ele>287.0</ele><time>2026-03-29T15:47:28.96Z</time></trkpt><trkpt lat="45.6965911" lon="9.0892961"><ele>287.0</ele><time>2026-03-29T15:47:29.96Z</time></trkpt><trkpt lat="45.6966431" lon="9.0894757"><ele>287.0</ele><time>2026-03-29T15:47:30.959Z</time></trkpt><trkpt lat="45.6966902" lon="9.0896521"><ele>287.0</ele><time>2026-03-29T15:47:31.96Z</time></trkpt><trkpt lat="45.6967384" lon="9.0898307"><ele>287.25</ele><time>2026-03-29T15:47:32.96Z</time></trkpt><trkpt lat="45.6967819" lon="9.0900089"><ele>287.5</ele><time>2026-03-29T15:47:33.96Z</time></trkpt><trkpt lat="45.696823" lon="9.090199"><ele>287.75</ele><time>2026-03-29T15:47:34.96Z</time></trkpt><trkpt lat="45.6968597" lon="9.0904038"><ele>288.0</ele><time>2026-03-29T15:47:35.96Z</time></trkpt><trkpt lat="45.6968805" lon="9.0906146"><ele>288.25</ele><time>2026-03-29T15:47:36.959Z</time></trkpt><trkpt lat="45.6968912" lon="9.0908239"><ele>288.5</ele><time>2026-03-29T15:47:37.96Z</time></trkpt><trkpt lat="45.696889" lon="9.0910251"><ele>288.75</ele><time>2026-03-29T15:47:38.96Z</time></trkpt><trkpt lat="45.6968728" lon="9.0912321"><ele>289.0</ele><time>2026-03-29T15:47:39.96Z</time></trkpt><trkpt lat="45.6968544" lon="9.0914399"><ele>288.3333333333333</ele><time>2026-03-29T15:47:40.96Z</time></trkpt><trkpt lat="45.6968283" lon="9.0916544"><ele>287.6666666666667</ele><time>2026-03-29T15:47:41.96Z</time></trkpt><trkpt lat="45.6968009" lon="9.0918719"><ele>287.0</ele><time>2026-03-29T15:47:42.96Z</time></trkpt><trkpt lat="45.6967735" lon="9.092092"><ele>287.0</ele><time>2026-03-29T15:47:43.96Z</time></trkpt><trkpt lat="45.6967452" lon="9.0923189"><ele>287.0</ele><time>2026-03-29T15:47:44.959Z</time></trkpt><trkpt lat="45.6967189" lon="9.0925401"><ele>287.0</ele><time>2026-03-29T15:47:45.96Z</time></trkpt><trkpt lat="45.6966915" lon="9.0927555"><ele>286.5</ele><time>2026-03-29T15:47:46.959Z</time></trkpt><trkpt lat="45.6966662" lon="9.0929613"><ele>286.0</ele><time>2026-03-29T15:47:47.959Z</time></trkpt><trkpt lat="45.6966437" lon="9.093157"><ele>285.5</ele><time>2026-03-29T15:47:48.96Z</time></trkpt><trkpt lat="45.6966269" lon="9.0933508"><ele>285.0</ele><time>2026-03-29T15:47:49.96Z</time></trkpt><trkpt lat="45.6966208" lon="9.0935461"><ele>284.75</ele><time>2026-03-29T15:47:50.96Z</time></trkpt><trkpt lat="45.6966263" lon="9.0937421"><ele>284.5</ele><time>2026-03-29T15:47:51.959Z</time></trkpt><trkpt lat="45.6966465" lon="9.0939463"><ele>284.25</ele><time>2026-03-29T15:47:52.959Z</time></trkpt><trkpt lat="45.6966778" lon="9.094142"><ele>284.0</ele><time>2026-03-29T15:47:53.96Z</time></trkpt><trkpt lat="45.6967093" lon="9.0943319"><ele>283.75</ele><time>2026-03-29T15:47:54.958Z</time></trkpt><trkpt lat="45.6967424" lon="9.0945187"><ele>283.5</ele><time>2026-03-29T15:47:55.959Z</time></trkpt><trkpt lat="45.6967738" lon="9.0947039"><ele>283.25</ele><time>2026-03-29T15:47:56.96Z</time></trkpt><trkpt lat="45.6968076" lon="9.0948812"><ele>283.0</ele><time>2026-03-29T15:47:57.959Z</time></trkpt><trkpt lat="45.6968399" lon="9.0950465"><ele>283.0</ele><time>2026-03-29T15:47:58.96Z</time></trkpt><trkpt lat="45.696876" lon="9.0952002"><ele>283.0</ele><time>2026-03-29T15:47:59.96Z</time></trkpt><trkpt lat="45.6969103" lon="9.0953479"><ele>283.0</ele><time>2026-03-29T15:48:00.959Z</time></trkpt><trkpt lat="45.6969416" lon="9.095494"><ele>283.0</ele><time>2026-03-29T15:48:01.959Z</time></trkpt><trkpt lat="45.6969743" lon="9.0956511"><ele>283.0</ele><time>2026-03-29T15:48:02.96Z</time></trkpt><trkpt lat="45.69701" lon="9.0958077"><ele>284.2</ele><time>2026-03-29T15:48:03.959Z</time></trkpt><trkpt lat="45.6970492" lon="9.095959"><ele>285.4</ele><time>2026-03-29T15:48:04.958Z</time></trkpt><trkpt lat="45.6970938" lon="9.0961174"><ele>286.59999999999997</ele><time>2026-03-29T15:48:05.959Z</time></trkpt><trkpt lat="45.6971267" lon="9.0962281"><ele>287.8</ele><time>2026-03-29T15:48:06.959Z</time></trkpt><trkpt lat="45.6971588" lon="9.0963487"><ele>289.0</ele><time>2026-03-29T15:48:07.96Z</time></trkpt><trkpt lat="45.6971816" lon="9.096466"><ele>288.59999999999997</ele><time>2026-03-29T15:48:08.96Z</time></trkpt><trkpt lat="45.6971898" lon="9.096605"><ele>288.2</ele><time>2026-03-29T15:48:09.959Z</time></trkpt><trkpt lat="45.6971834" lon="9.0967477"><ele>287.79999999999995</ele><time>2026-03-29T15:48:10.96Z</time></trkpt><trkpt lat="45.697174" lon="9.096883"><ele>287.4</ele><time>2026-03-29T15:48:11.959Z</time></trkpt><trkpt lat="45.6971763" lon="9.0970115"><ele>287.0</ele><time>2026-03-29T15:48:12.959Z</time></trkpt><trkpt lat="45.6972137" lon="9.0971246"><ele>287.0</ele><time>2026-03-29T15:48:13.96Z</time></trkpt><trkpt lat="45.6972822" lon="9.0972061"><ele>287.0</ele><time>2026-03-29T15:48:14.96Z</time></trkpt><trkpt lat="45.6973701" lon="9.0972465"><ele>287.0</ele><time>2026-03-29T15:48:15.959Z</time></trkpt><trkpt lat="45.6974704" lon="9.0972393"><ele>287.0</ele><time>2026-03-29T15:48:16.959Z</time></trkpt><trkpt lat="45.6975748" lon="9.0971839"><ele>287.0</ele><time>2026-03-29T15:48:17.96Z</time></trkpt><trkpt lat="45.6976752" lon="9.0970874"><ele>288.0</ele><time>2026-03-29T15:48:18.959Z</time></trkpt><trkpt lat="45.6977684" lon="9.0969669"><ele>289.0</ele><time>2026-03-29T15:48:19.96Z</time></trkpt><trkpt lat="45.6978522" lon="9.0968567"><ele>290.0</ele><time>2026-03-29T15:48:20.96Z</time></trkpt><trkpt lat="45.6979409" lon="9.0967417"><ele>291.0</ele><time>2026-03-29T15:48:21.96Z</time></trkpt><trkpt lat="45.6980374" lon="9.0966193"><ele>290.0</ele><time>2026-03-29T15:48:22.96Z</time></trkpt><trkpt lat="45.6981401" lon="9.0964985"><ele>289.0</ele><time>2026-03-29T15:48:23.959Z</time></trkpt><trkpt lat="45.698242" lon="9.0963917"><ele>288.0</ele><time>2026-03-29T15:48:24.96Z</time></trkpt><trkpt lat="45.6983569" lon="9.0962844"><ele>287.0</ele><time>2026-03-29T15:48:25.96Z</time></trkpt><trkpt lat="45.6984803" lon="9.096182"><ele>288.5</ele><time>2026-03-29T15:48:26.96Z</time></trkpt><trkpt lat="45.698607" lon="9.0960833"><ele>290.0</ele><time>2026-03-29T15:48:27.96Z</time></trkpt><trkpt lat="45.6987336" lon="9.0959842"><ele>291.5</ele><time>2026-03-29T15:48:28.959Z</time></trkpt><trkpt lat="45.6988597" lon="9.0958888"><ele>293.0</ele><time>2026-03-29T15:48:29.96Z</time></trkpt><trkpt lat="45.6989868" lon="9.0957992"><ele>293.0</ele><time>2026-03-29T15:48:30.96Z</time></trkpt><trkpt lat="45.6991165" lon="9.0957114"><ele>293.0</ele><time>2026-03-29T15:48:31.96Z</time></trkpt><trkpt lat="45.6992461" lon="9.0956227"><ele>293.0</ele><time>2026-03-29T15:48:32.959Z</time></trkpt><trkpt lat="45.6993803" lon="9.0955345"><ele>293.0</ele><time>2026-03-29T15:48:33.96Z</time></trkpt><trkpt lat="45.6995141" lon="9.0954513"><ele>293.0</ele><time>2026-03-29T15:48:34.96Z</time></trkpt><trkpt lat="45.6996454" lon="9.0953623"><ele>293.0</ele><time>2026-03-29T15:48:35.96Z</time></trkpt><trkpt lat="45.6997763" lon="9.0952719"><ele>293.0</ele><time>2026-03-29T15:48:36.96Z</time></trkpt><trkpt lat="45.6999085" lon="9.0951833"><ele>293.0</ele><time>2026-03-29T15:48:37.959Z</time></trkpt><trkpt lat="45.7000397" lon="9.0950923"><ele>293.0</ele><time>2026-03-29T15:48:38.959Z</time></trkpt><trkpt lat="45.7001715" lon="9.095009"><ele>293.0</ele><time>2026-03-29T15:48:39.958Z</time></trkpt><trkpt lat="45.7003001" lon="9.0949187"><ele>293.0</ele><time>2026-03-29T15:48:40.96Z</time></trkpt><trkpt lat="45.7004269" lon="9.0948287"><ele>293.0</ele><time>2026-03-29T15:48:41.959Z</time></trkpt><trkpt lat="45.7005535" lon="9.0947429"><ele>294.0</ele><time>2026-03-29T15:48:42.959Z</time></trkpt><trkpt lat="45.700675" lon="9.0946622"><ele>295.0</ele><time>2026-03-29T15:48:43.959Z</time></trkpt><trkpt lat="45.700798" lon="9.0945801"><ele>296.0</ele><time>2026-03-29T15:48:44.96Z</time></trkpt><trkpt lat="45.700924" lon="9.0944979"><ele>297.0</ele><time>2026-03-29T15:48:45.96Z</time></trkpt><trkpt lat="45.7010548" lon="9.0944156"><ele>297.25</ele><time>2026-03-29T15:48:46.96Z</time></trkpt><trkpt lat="45.7011863" lon="9.0943265"><ele>297.5</ele><time>2026-03-29T15:48:47.959Z</time></trkpt><trkpt lat="45.7013173" lon="9.0942383"><ele>297.75</ele><time>2026-03-29T15:48:48.96Z</time></trkpt><trkpt lat="45.7014425" lon="9.0941588"><ele>298.0</ele><time>2026-03-29T15:48:49.959Z</time></trkpt><trkpt lat="45.7015537" lon="9.0940786"><ele>299.0</ele><time>2026-03-29T15:48:50.958Z</time></trkpt><trkpt lat="45.7016567" lon="9.0939959"><ele>300.0</ele><time>2026-03-29T15:48:51.958Z</time></trkpt><trkpt lat="45.7017569" lon="9.0939072"><ele>301.0</ele><time>2026-03-29T15:48:52.96Z</time></trkpt><trkpt lat="45.7018569" lon="9.093808"><ele>302.0</ele><time>2026-03-29T15:48:53.96Z</time></trkpt><trkpt lat="45.7019491" lon="9.0937124"><ele>302.0</ele><time>2026-03-29T15:48:54.959Z</time></trkpt><trkpt lat="45.7020214" lon="9.093633"><ele>302.0</ele><time>2026-03-29T15:48:55.959Z</time></trkpt><trkpt lat="45.702085" lon="9.0935625"><ele>302.0</ele><time>2026-03-29T15:48:56.96Z</time></trkpt><trkpt lat="45.702139" lon="9.0934945"><ele>302.0</ele><time>2026-03-29T15:48:57.959Z</time></trkpt><trkpt lat="45.7022044" lon="9.0934211"><ele>302.0</ele><time>2026-03-29T15:48:59.96Z</time></trkpt><trkpt lat="45.7022657" lon="9.0933677"><ele>302.0</ele><time>2026-03-29T15:49:03.96Z</time></trkpt><trkpt lat="45.7023398" lon="9.0932857"><ele>301.6</ele><time>2026-03-29T15:49:10.96Z</time></trkpt><trkpt lat="45.7024226" lon="9.0931925"><ele>301.2</ele><time>2026-03-29T15:49:12.959Z</time></trkpt><trkpt lat="45.7025029" lon="9.0931066"><ele>300.8</ele><time>2026-03-29T15:49:14.96Z</time></trkpt><trkpt lat="45.7025971" lon="9.0929984"><ele>300.4</ele><time>2026-03-29T15:49:16.959Z</time></trkpt><trkpt lat="45.7026497" lon="9.0929375"><ele>300.0</ele><time>2026-03-29T15:49:17.96Z</time></trkpt><trkpt lat="45.7027117" lon="9.0928744"><ele>299.8</ele><time>2026-03-29T15:49:18.96Z</time></trkpt><trkpt lat="45.7027785" lon="9.0928091"><ele>299.6</ele><time>2026-03-29T15:49:19.96Z</time></trkpt><trkpt lat="45.702854" lon="9.092727"><ele>299.4</ele><time>2026-03-29T15:49:20.959Z</time></trkpt><trkpt lat="45.7029369" lon="9.0926368"><ele>299.2</ele><time>2026-03-29T15:49:21.959Z</time></trkpt><trkpt lat="45.7030189" lon="9.092542"><ele>299.0</ele><time>2026-03-29T15:49:22.96Z</time></trkpt><trkpt lat="45.7030959" lon="9.0924544"><ele>298.8</ele><time>2026-03-29T15:49:23.96Z</time></trkpt><trkpt lat="45.7031731" lon="9.0923719"><ele>298.59999999999997</ele><time>2026-03-29T15:49:24.96Z</time></trkpt><trkpt lat="45.7032497" lon="9.0922903"><ele>298.4</ele><time>2026-03-29T15:49:25.96Z</time></trkpt><trkpt lat="45.7033274" lon="9.0922017"><ele>298.2</ele><time>2026-03-29T15:49:26.958Z</time></trkpt><trkpt lat="45.70341" lon="9.0921112"><ele>298.0</ele><time>2026-03-29T15:49:27.959Z</time></trkpt><trkpt lat="45.7034951" lon="9.0920184"><ele>298.25</ele><time>2026-03-29T15:49:28.96Z</time></trkpt><trkpt lat="45.7035855" lon="9.0919226"><ele>298.5</ele><time>2026-03-29T15:49:29.96Z</time></trkpt><trkpt lat="45.7036757" lon="9.0918236"><ele>298.75</ele><time>2026-03-29T15:49:30.959Z</time></trkpt><trkpt lat="45.7037668" lon="9.0917209"><ele>299.0</ele><time>2026-03-29T15:49:31.96Z</time></trkpt><trkpt lat="45.7038544" lon="9.0916201"><ele>298.8</ele><time>2026-03-29T15:49:32.959Z</time></trkpt><trkpt lat="45.7039383" lon="9.0915277"><ele>298.59999999999997</ele><time>2026-03-29T15:49:33.96Z</time></trkpt><trkpt lat="45.7040088" lon="9.0914635"><ele>298.4</ele><time>2026-03-29T15:49:34.96Z</time></trkpt><trkpt lat="45.7040715" lon="9.0914092"><ele>298.2</ele><time>2026-03-29T15:49:35.96Z</time></trkpt><trkpt lat="45.704185" lon="9.0913489"><ele>298.0</ele><time>2026-03-29T15:49:37.96Z</time></trkpt><trkpt lat="45.7042501" lon="9.0913637"><ele>298.0</ele><time>2026-03-29T15:49:38.96Z</time></trkpt><trkpt lat="45.7043066" lon="9.0914249"><ele>298.0</ele><time>2026-03-29T15:49:39.96Z</time></trkpt><trkpt lat="45.7043496" lon="9.0915274"><ele>298.0</ele><time>2026-03-29T15:49:40.96Z</time></trkpt><trkpt lat="45.7043847" lon="9.0916606"><ele>298.0</ele><time>2026-03-29T15:49:41.96Z</time></trkpt><trkpt lat="45.7044215" lon="9.091816"><ele>298.0</ele><time>2026-03-29T15:49:42.96Z</time></trkpt><trkpt lat="45.7044539" lon="9.0919683"><ele>298.25</ele><time>2026-03-29T15:49:43.96Z</time></trkpt><trkpt lat="45.7044943" lon="9.0921301"><ele>298.5</ele><time>2026-03-29T15:49:44.959Z</time></trkpt><trkpt lat="45.7045331" lon="9.0923022"><ele>298.75</ele><time>2026-03-29T15:49:45.959Z</time></trkpt><trkpt lat="45.7045809" lon="9.0924946"><ele>299.0</ele><time>2026-03-29T15:49:46.959Z</time></trkpt><trkpt lat="45.7046295" lon="9.0927083"><ele>299.5</ele><time>2026-03-29T15:49:47.96Z</time></trkpt><trkpt lat="45.7046732" lon="9.0929301"><ele>300.0</ele><time>2026-03-29T15:49:48.96Z</time></trkpt><trkpt lat="45.7047175" lon="9.0931305"><ele>300.5</ele><time>2026-03-29T15:49:49.96Z</time></trkpt><trkpt lat="45.7047591" lon="9.0933228"><ele>301.0</ele><time>2026-03-29T15:49:50.96Z</time></trkpt><trkpt lat="45.7048004" lon="9.0935166"><ele>301.6</ele><time>2026-03-29T15:49:51.96Z</time></trkpt><trkpt lat="45.7048374" lon="9.0936964"><ele>302.20000000000005</ele><time>2026-03-29T15:49:52.959Z</time></trkpt><trkpt lat="45.7048764" lon="9.0938444"><ele>302.79999999999995</ele><time>2026-03-29T15:49:53.96Z</time></trkpt><trkpt lat="45.7049141" lon="9.0939706"><ele>303.4</ele><time>2026-03-29T15:49:54.958Z</time></trkpt><trkpt lat="45.7049513" lon="9.0940728"><ele>304.0</ele><time>2026-03-29T15:49:55.958Z</time></trkpt><trkpt lat="45.7049896" lon="9.0941614"><ele>304.4</ele><time>2026-03-29T15:49:56.958Z</time></trkpt><trkpt lat="45.7050347" lon="9.0942387"><ele>304.79999999999995</ele><time>2026-03-29T15:49:57.959Z</time></trkpt><trkpt lat="45.7051017" lon="9.094271"><ele>305.20000000000005</ele><time>2026-03-29T15:49:58.959Z</time></trkpt><trkpt lat="45.7051956" lon="9.0942573"><ele>305.6</ele><time>2026-03-29T15:49:59.958Z</time></trkpt><trkpt lat="45.7053103" lon="9.094215"><ele>306.0</ele><time>2026-03-29T15:50:00.959Z</time></trkpt><trkpt lat="45.7054232" lon="9.0941567"><ele>306.0</ele><time>2026-03-29T15:50:01.958Z</time></trkpt><trkpt lat="45.705528" lon="9.0940922"><ele>306.0</ele><time>2026-03-29T15:50:02.957Z</time></trkpt><trkpt lat="45.7056374" lon="9.0940274"><ele>306.0</ele><time>2026-03-29T15:50:03.958Z</time></trkpt><trkpt lat="45.7057499" lon="9.0939624"><ele>306.0</ele><time>2026-03-29T15:50:04.959Z</time></trkpt><trkpt lat="45.7058613" lon="9.0939"><ele>307.0</ele><time>2026-03-29T15:50:05.958Z</time></trkpt><trkpt lat="45.7059783" lon="9.0938459"><ele>308.0</ele><time>2026-03-29T15:50:06.959Z</time></trkpt><trkpt lat="45.7060956" lon="9.0938044"><ele>309.0</ele><time>2026-03-29T15:50:07.959Z</time></trkpt><trkpt lat="45.706216" lon="9.0937793"><ele>310.0</ele><time>2026-03-29T15:50:08.959Z</time></trkpt><trkpt lat="45.7063361" lon="9.0937673"><ele>310.75</ele><time>2026-03-29T15:50:09.959Z</time></trkpt><trkpt lat="45.7064688" lon="9.093759"><ele>311.5</ele><time>2026-03-29T15:50:10.959Z</time></trkpt><trkpt lat="45.7065956" lon="9.0937574"><ele>312.25</ele><time>2026-03-29T15:50:11.959Z</time></trkpt><trkpt lat="45.7067204" lon="9.0937674"><ele>313.0</ele><time>2026-03-29T15:50:12.958Z</time></trkpt><trkpt lat="45.7068522" lon="9.0937811"><ele>312.5</ele><time>2026-03-29T15:50:13.958Z</time></trkpt><trkpt lat="45.7069773" lon="9.0937709"><ele>312.0</ele><time>2026-03-29T15:50:14.957Z</time></trkpt><trkpt lat="45.7071161" lon="9.0937507"><ele>311.5</ele><time>2026-03-29T15:50:15.958Z</time></trkpt><trkpt lat="45.7072589" lon="9.0937189"><ele>311.0</ele><time>2026-03-29T15:50:16.958Z</time></trkpt><trkpt lat="45.7073976" lon="9.0936879"><ele>311.0</ele><time>2026-03-29T15:50:17.959Z</time></trkpt><trkpt lat="45.7075387" lon="9.0936622"><ele>311.0</ele><time>2026-03-29T15:50:18.958Z</time></trkpt><trkpt lat="45.707677" lon="9.0936336"><ele>311.0</ele><time>2026-03-29T15:50:19.959Z</time></trkpt><trkpt lat="45.7078095" lon="9.0936037"><ele>311.0</ele><time>2026-03-29T15:50:20.959Z</time></trkpt><trkpt lat="45.7079421" lon="9.0935733"><ele>310.25</ele><time>2026-03-29T15:50:21.959Z</time></trkpt><trkpt lat="45.7080746" lon="9.0935426"><ele>309.5</ele><time>2026-03-29T15:50:22.958Z</time></trkpt><trkpt lat="45.7082002" lon="9.0935126"><ele>308.75</ele><time>2026-03-29T15:50:23.959Z</time></trkpt><trkpt lat="45.7083251" lon="9.0934789"><ele>308.0</ele><time>2026-03-29T15:50:24.959Z</time></trkpt><trkpt lat="45.7084452" lon="9.0934256"><ele>308.0</ele><time>2026-03-29T15:50:25.959Z</time></trkpt><trkpt lat="45.7085555" lon="9.0933647"><ele>308.0</ele><time>2026-03-29T15:50:26.959Z</time></trkpt><trkpt lat="45.708666" lon="9.0933016"><ele>308.0</ele><time>2026-03-29T15:50:27.958Z</time></trkpt><trkpt lat="45.7087754" lon="9.0932404"><ele>308.0</ele><time>2026-03-29T15:50:28.959Z</time></trkpt><trkpt lat="45.7088848" lon="9.0931728"><ele>309.5</ele><time>2026-03-29T15:50:29.957Z</time></trkpt><trkpt lat="45.7089922" lon="9.0931126"><ele>311.0</ele><time>2026-03-29T15:50:30.959Z</time></trkpt><trkpt lat="45.7090998" lon="9.0930663"><ele>312.5</ele><time>2026-03-29T15:50:31.958Z</time></trkpt><trkpt lat="45.7092113" lon="9.0930525"><ele>314.0</ele><time>2026-03-29T15:50:32.958Z</time></trkpt><trkpt lat="45.7093262" lon="9.0930797"><ele>312.5</ele><time>2026-03-29T15:50:33.959Z</time></trkpt><trkpt lat="45.709435" lon="9.0931543"><ele>311.0</ele><time>2026-03-29T15:50:34.957Z</time></trkpt><trkpt lat="45.7095363" lon="9.0932529"><ele>309.5</ele><time>2026-03-29T15:50:35.959Z</time></trkpt><trkpt lat="45.709633" lon="9.0933652"><ele>308.0</ele><time>2026-03-29T15:50:36.959Z</time></trkpt><trkpt lat="45.7097233" lon="9.0934771"><ele>305.25</ele><time>2026-03-29T15:50:37.957Z</time></trkpt><trkpt lat="45.7098059" lon="9.0935958"><ele>302.5</ele><time>2026-03-29T15:50:38.959Z</time></trkpt><trkpt lat="45.7098728" lon="9.0937376"><ele>299.75</ele><time>2026-03-29T15:50:39.959Z</time></trkpt><trkpt lat="45.7099054" lon="9.0939067"><ele>297.0</ele><time>2026-03-29T15:50:40.959Z</time></trkpt><trkpt lat="45.7099201" lon="9.0941005"><ele>296.75</ele><time>2026-03-29T15:50:41.958Z</time></trkpt><trkpt lat="45.7099269" lon="9.094301"><ele>296.5</ele><time>2026-03-29T15:50:42.957Z</time></trkpt><trkpt lat="45.709939" lon="9.0944876"><ele>296.25</ele><time>2026-03-29T15:50:43.959Z</time></trkpt><trkpt lat="45.7099713" lon="9.0946634"><ele>296.0</ele><time>2026-03-29T15:50:44.959Z</time></trkpt><trkpt lat="45.7100359" lon="9.0948268"><ele>295.25</ele><time>2026-03-29T15:50:45.958Z</time></trkpt><trkpt lat="45.7101245" lon="9.0949651"><ele>294.5</ele><time>2026-03-29T15:50:46.959Z</time></trkpt><trkpt lat="45.7102294" lon="9.0950757"><ele>293.75</ele><time>2026-03-29T15:50:47.959Z</time></trkpt><trkpt lat="45.7103549" lon="9.0951412"><ele>293.0</ele><time>2026-03-29T15:50:48.959Z</time></trkpt><trkpt lat="45.7104931" lon="9.095166"><ele>293.0</ele><time>2026-03-29T15:50:49.959Z</time></trkpt><trkpt lat="45.7106487" lon="9.0951707"><ele>293.0</ele><time>2026-03-29T15:50:50.958Z</time></trkpt><trkpt lat="45.7108109" lon="9.0951705"><ele>293.0</ele><time>2026-03-29T15:50:51.959Z</time></trkpt><trkpt lat="45.7109663" lon="9.0951623"><ele>291.6666666666667</ele><time>2026-03-29T15:50:52.958Z</time></trkpt><trkpt lat="45.7111182" lon="9.0951672"><ele>290.3333333333333</ele><time>2026-03-29T15:50:53.959Z</time></trkpt><trkpt lat="45.711276" lon="9.0951603"><ele>289.0</ele><time>2026-03-29T15:50:54.959Z</time></trkpt><trkpt lat="45.7114323" lon="9.095156"><ele>289.0</ele><time>2026-03-29T15:50:55.959Z</time></trkpt><trkpt lat="45.7115971" lon="9.095155"><ele>289.0</ele><time>2026-03-29T15:50:56.959Z</time></trkpt><trkpt lat="45.7117614" lon="9.0951458"><ele>289.0</ele><time>2026-03-29T15:50:57.958Z</time></trkpt><trkpt lat="45.7119237" lon="9.0951428"><ele>288.3333333333333</ele><time>2026-03-29T15:50:58.959Z</time></trkpt><trkpt lat="45.7120798" lon="9.095139"><ele>287.6666666666667</ele><time>2026-03-29T15:50:59.959Z</time></trkpt><trkpt lat="45.7122347" lon="9.0951358"><ele>287.0</ele><time>2026-03-29T15:51:00.959Z</time></trkpt><trkpt lat="45.7123903" lon="9.0951298"><ele>287.0</ele><time>2026-03-29T15:51:01.958Z</time></trkpt><trkpt lat="45.7125518" lon="9.0951272"><ele>287.0</ele><time>2026-03-29T15:51:02.959Z</time></trkpt><trkpt lat="45.7127148" lon="9.0951272"><ele>287.0</ele><time>2026-03-29T15:51:03.959Z</time></trkpt><trkpt lat="45.7128808" lon="9.0951284"><ele>287.0</ele><time>2026-03-29T15:51:04.958Z</time></trkpt><trkpt lat="45.7130482" lon="9.0951292"><ele>287.0</ele><time>2026-03-29T15:51:05.959Z</time></trkpt><trkpt lat="45.7132115" lon="9.0951262"><ele>287.0</ele><time>2026-03-29T15:51:06.959Z</time></trkpt><trkpt lat="45.7133628" lon="9.0951216"><ele>287.0</ele><time>2026-03-29T15:51:07.958Z</time></trkpt><trkpt lat="45.7135086" lon="9.0951193"><ele>287.0</ele><time>2026-03-29T15:51:08.959Z</time></trkpt><trkpt lat="45.7136495" lon="9.095118"><ele>287.0</ele><time>2026-03-29T15:51:09.958Z</time></trkpt><trkpt lat="45.7137867" lon="9.0951157"><ele>287.0</ele><time>2026-03-29T15:51:10.959Z</time></trkpt><trkpt lat="45.713916" lon="9.0951102"><ele>285.5</ele><time>2026-03-29T15:51:11.959Z</time></trkpt><trkpt lat="45.7140417" lon="9.095115"><ele>284.0</ele><time>2026-03-29T15:51:12.959Z</time></trkpt><trkpt lat="45.7141594" lon="9.0951491"><ele>282.5</ele><time>2026-03-29T15:51:13.959Z</time></trkpt><trkpt lat="45.7142725" lon="9.0952237"><ele>281.0</ele><time>2026-03-29T15:51:14.958Z</time></trkpt><trkpt lat="45.7143692" lon="9.0953349"><ele>280.75</ele><time>2026-03-29T15:51:15.959Z</time></trkpt><trkpt lat="45.7144528" lon="9.0954757"><ele>280.5</ele><time>2026-03-29T15:51:16.959Z</time></trkpt><trkpt lat="45.7144657" lon="9.0956556"><ele>280.25</ele><time>2026-03-29T15:51:17.958Z</time></trkpt><trkpt lat="45.714477" lon="9.0958407"><ele>280.0</ele><time>2026-03-29T15:51:18.958Z</time></trkpt><trkpt lat="45.7144636" lon="9.0960204"><ele>276.75</ele><time>2026-03-29T15:51:19.958Z</time></trkpt><trkpt lat="45.7144111" lon="9.0961981"><ele>273.5</ele><time>2026-03-29T15:51:20.959Z</time></trkpt><trkpt lat="45.7143301" lon="9.0963202"><ele>270.25</ele><time>2026-03-29T15:51:21.958Z</time></trkpt><trkpt lat="45.7141692" lon="9.0963862"><ele>267.0</ele><time>2026-03-29T15:51:22.958Z</time></trkpt><trkpt lat="45.7140155" lon="9.0964392"><ele>267.0</ele><time>2026-03-29T15:51:23.958Z</time></trkpt><trkpt lat="45.7138377" lon="9.0964883"><ele>267.0</ele><time>2026-03-29T15:51:24.959Z</time></trkpt><trkpt lat="45.713666" lon="9.096553"><ele>267.0</ele><time>2026-03-29T15:51:25.959Z</time></trkpt><trkpt lat="45.7135005" lon="9.096609"><ele>266.3333333333333</ele><time>2026-03-29T15:51:26.959Z</time></trkpt><trkpt lat="45.7133373" lon="9.0966618"><ele>265.66666666666663</ele><time>2026-03-29T15:51:27.959Z</time></trkpt><trkpt lat="45.7131886" lon="9.0967277"><ele>265.0</ele><time>2026-03-29T15:51:28.959Z</time></trkpt><trkpt lat="45.7130507" lon="9.0968158"><ele>265.0</ele><time>2026-03-29T15:51:29.959Z</time></trkpt><trkpt lat="45.7129217" lon="9.0969281"><ele>265.0</ele><time>2026-03-29T15:51:30.959Z</time></trkpt><trkpt lat="45.7128023" lon="9.0970635"><ele>265.0</ele><time>2026-03-29T15:51:31.959Z</time></trkpt><trkpt lat="45.7127023" lon="9.0972187"><ele>262.75</ele><time>2026-03-29T15:51:32.959Z</time></trkpt><trkpt lat="45.7126228" lon="9.0973984"><ele>260.5</ele><time>2026-03-29T15:51:33.959Z</time></trkpt><trkpt lat="45.7125654" lon="9.0975959"><ele>258.25</ele><time>2026-03-29T15:51:34.958Z</time></trkpt><trkpt lat="45.7125312" lon="9.0977995"><ele>256.0</ele><time>2026-03-29T15:51:35.959Z</time></trkpt><trkpt lat="45.7125153" lon="9.0980078"><ele>256.0</ele><time>2026-03-29T15:51:36.958Z</time></trkpt><trkpt lat="45.7125219" lon="9.0982168"><ele>256.0</ele><time>2026-03-29T15:51:37.959Z</time></trkpt><trkpt lat="45.7125505" lon="9.0984117"><ele>256.0</ele><time>2026-03-29T15:51:38.959Z</time></trkpt><trkpt lat="45.7125986" lon="9.0985838"><ele>256.0</ele><time>2026-03-29T15:51:39.957Z</time></trkpt><trkpt lat="45.7126714" lon="9.0987319"><ele>254.75</ele><time>2026-03-29T15:51:40.957Z</time></trkpt><trkpt lat="45.7127588" lon="9.0988531"><ele>253.5</ele><time>2026-03-29T15:51:41.957Z</time></trkpt><trkpt lat="45.7128704" lon="9.0989493"><ele>252.25</ele><time>2026-03-29T15:51:42.957Z</time></trkpt><trkpt lat="45.7129969" lon="9.0990147"><ele>251.0</ele><time>2026-03-29T15:51:43.958Z</time></trkpt><trkpt lat="45.713139" lon="9.099053"><ele>251.0</ele><time>2026-03-29T15:51:44.958Z</time></trkpt><trkpt lat="45.7132894" lon="9.0990721"><ele>251.0</ele><time>2026-03-29T15:51:45.959Z</time></trkpt><trkpt lat="45.7134365" lon="9.0990881"><ele>251.0</ele><time>2026-03-29T15:51:46.959Z</time></trkpt><trkpt lat="45.713576" lon="9.0991154"><ele>251.0</ele><time>2026-03-29T15:51:47.958Z</time></trkpt><trkpt lat="45.7137089" lon="9.0991673"><ele>250.5</ele><time>2026-03-29T15:51:48.959Z</time></trkpt><trkpt lat="45.7138359" lon="9.0992297"><ele>250.0</ele><time>2026-03-29T15:51:49.959Z</time></trkpt><trkpt lat="45.7139655" lon="9.0992966"><ele>249.5</ele><time>2026-03-29T15:51:50.959Z</time></trkpt><trkpt lat="45.714095" lon="9.0993613"><ele>249.0</ele><time>2026-03-29T15:51:51.959Z</time></trkpt><trkpt lat="45.7142298" lon="9.0994271"><ele>249.0</ele><time>2026-03-29T15:51:52.958Z</time></trkpt><trkpt lat="45.7143666" lon="9.099493"><ele>249.0</ele><time>2026-03-29T15:51:53.958Z</time></trkpt><trkpt lat="45.7145008" lon="9.0995574"><ele>249.0</ele><time>2026-03-29T15:51:54.958Z</time></trkpt><trkpt lat="45.7146269" lon="9.0996174"><ele>249.0</ele><time>2026-03-29T15:51:55.959Z</time></trkpt><trkpt lat="45.7147555" lon="9.099666"><ele>248.75</ele><time>2026-03-29T15:51:56.959Z</time></trkpt><trkpt lat="45.7148947" lon="9.0996923"><ele>248.5</ele><time>2026-03-29T15:51:57.959Z</time></trkpt><trkpt lat="45.7150185" lon="9.0997091"><ele>248.25</ele><time>2026-03-29T15:51:58.958Z</time></trkpt><trkpt lat="45.7151546" lon="9.0997227"><ele>248.0</ele><time>2026-03-29T15:51:59.958Z</time></trkpt><trkpt lat="45.7152817" lon="9.0997332"><ele>248.4</ele><time>2026-03-29T15:52:00.959Z</time></trkpt><trkpt lat="45.7153738" lon="9.0997451"><ele>248.8</ele><time>2026-03-29T15:52:01.958Z</time></trkpt><trkpt lat="45.7154729" lon="9.0997563"><ele>249.2</ele><time>2026-03-29T15:52:02.959Z</time></trkpt><trkpt lat="45.7155683" lon="9.0997692"><ele>249.6</ele><time>2026-03-29T15:52:03.959Z</time></trkpt><trkpt lat="45.7156608" lon="9.099783"><ele>250.0</ele><time>2026-03-29T15:52:04.958Z</time></trkpt><trkpt lat="45.7157633" lon="9.0997941"><ele>250.0</ele><time>2026-03-29T15:52:05.959Z</time></trkpt><trkpt lat="45.7158643" lon="9.0998035"><ele>250.0</ele><time>2026-03-29T15:52:06.959Z</time></trkpt><trkpt lat="45.7159684" lon="9.0998144"><ele>250.0</ele><time>2026-03-29T15:52:07.958Z</time></trkpt><trkpt lat="45.716073" lon="9.0998148"><ele>250.0</ele><time>2026-03-29T15:52:08.958Z</time></trkpt><trkpt lat="45.7161801" lon="9.0998078"><ele>250.0</ele><time>2026-03-29T15:52:09.958Z</time></trkpt><trkpt lat="45.7162934" lon="9.0997913"><ele>250.25</ele><time>2026-03-29T15:52:10.959Z</time></trkpt><trkpt lat="45.7164065" lon="9.0997753"><ele>250.5</ele><time>2026-03-29T15:52:11.959Z</time></trkpt><trkpt lat="45.7165221" lon="9.0997653"><ele>250.75</ele><time>2026-03-29T15:52:12.959Z</time></trkpt><trkpt lat="45.7166376" lon="9.0997721"><ele>251.0</ele><time>2026-03-29T15:52:13.957Z</time></trkpt><trkpt lat="45.7167645" lon="9.0997961"><ele>251.0</ele><time>2026-03-29T15:52:14.959Z</time></trkpt><trkpt lat="45.7168943" lon="9.0998191"><ele>251.0</ele><time>2026-03-29T15:52:15.959Z</time></trkpt><trkpt lat="45.7170256" lon="9.0998457"><ele>251.0</ele><time>2026-03-29T15:52:16.959Z</time></trkpt><trkpt lat="45.7171562" lon="9.0998756"><ele>251.0</ele><time>2026-03-29T15:52:17.959Z</time></trkpt><trkpt lat="45.7172879" lon="9.0999083"><ele>250.25</ele><time>2026-03-29T15:52:18.959Z</time></trkpt><trkpt lat="45.7174181" lon="9.0999446"><ele>249.5</ele><time>2026-03-29T15:52:19.959Z</time></trkpt><trkpt lat="45.7175491" lon="9.0999774"><ele>248.75</ele><time>2026-03-29T15:52:20.959Z</time></trkpt><trkpt lat="45.7176785" lon="9.1000103"><ele>248.0</ele><time>2026-03-29T15:52:21.958Z</time></trkpt><trkpt lat="45.7178123" lon="9.1000548"><ele>248.0</ele><time>2026-03-29T15:52:22.958Z</time></trkpt><trkpt lat="45.7179409" lon="9.1001134"><ele>248.0</ele><time>2026-03-29T15:52:23.959Z</time></trkpt><trkpt lat="45.7180656" lon="9.1001804"><ele>248.0</ele><time>2026-03-29T15:52:24.958Z</time></trkpt><trkpt lat="45.7181874" lon="9.1002465"><ele>248.0</ele><time>2026-03-29T15:52:25.958Z</time></trkpt><trkpt lat="45.7183066" lon="9.1003155"><ele>248.0</ele><time>2026-03-29T15:52:26.958Z</time></trkpt><trkpt lat="45.718429" lon="9.1003881"><ele>248.0</ele><time>2026-03-29T15:52:27.958Z</time></trkpt><trkpt lat="45.7185505" lon="9.1004605"><ele>248.0</ele><time>2026-03-29T15:52:28.958Z</time></trkpt><trkpt lat="45.7186689" lon="9.1005288"><ele>248.0</ele><time>2026-03-29T15:52:29.958Z</time></trkpt><trkpt lat="45.7187803" lon="9.1005978"><ele>248.0</ele><time>2026-03-29T15:52:30.959Z</time></trkpt><trkpt lat="45.7188913" lon="9.1006606"><ele>248.0</ele><time>2026-03-29T15:52:31.959Z</time></trkpt><trkpt lat="45.7189967" lon="9.1007231"><ele>248.0</ele><time>2026-03-29T15:52:32.959Z</time></trkpt><trkpt lat="45.7191001" lon="9.1007867"><ele>248.0</ele><time>2026-03-29T15:52:33.959Z</time></trkpt><trkpt lat="45.7191995" lon="9.1008503"><ele>248.60000000000002</ele><time>2026-03-29T15:52:34.959Z</time></trkpt><trkpt lat="45.7192979" lon="9.1009115"><ele>249.20000000000002</ele><time>2026-03-29T15:52:35.959Z</time></trkpt><trkpt lat="45.7193924" lon="9.1009689"><ele>249.8</ele><time>2026-03-29T15:52:36.958Z</time></trkpt><trkpt lat="45.7194816" lon="9.1010198"><ele>250.4</ele><time>2026-03-29T15:52:37.959Z</time></trkpt><trkpt lat="45.7195656" lon="9.1010687"><ele>251.0</ele><time>2026-03-29T15:52:38.959Z</time></trkpt><trkpt lat="45.7196416" lon="9.1011098"><ele>250.99999999999997</ele><time>2026-03-29T15:52:39.958Z</time></trkpt><trkpt lat="45.7197149" lon="9.1011477"><ele>251.0</ele><time>2026-03-29T15:52:40.959Z</time></trkpt><trkpt lat="45.7197892" lon="9.1011825"><ele>250.99999999999997</ele><time>2026-03-29T15:52:41.959Z</time></trkpt><trkpt lat="45.7198626" lon="9.1012188"><ele>250.99999999999997</ele><time>2026-03-29T15:52:42.958Z</time></trkpt><trkpt lat="45.7199256" lon="9.1012548"><ele>251.0</ele><time>2026-03-29T15:52:43.958Z</time></trkpt><trkpt lat="45.7199873" lon="9.1012967"><ele>250.99999999999997</ele><time>2026-03-29T15:52:44.957Z</time></trkpt><trkpt lat="45.7200477" lon="9.1013494"><ele>250.99999999999997</ele><time>2026-03-29T15:52:45.957Z</time></trkpt><trkpt lat="45.7201101" lon="9.101421"><ele>251.0</ele><time>2026-03-29T15:52:46.958Z</time></trkpt><trkpt lat="45.720175" lon="9.1015049"><ele>251.00000000000003</ele><time>2026-03-29T15:52:47.958Z</time></trkpt><trkpt lat="45.7202445" lon="9.1015966"><ele>251.00000000000003</ele><time>2026-03-29T15:52:48.958Z</time></trkpt><trkpt lat="45.7203174" lon="9.1016976"><ele>251.0</ele><time>2026-03-29T15:52:49.959Z</time></trkpt><trkpt lat="45.7203931" lon="9.101809"><ele>251.0</ele><time>2026-03-29T15:52:50.958Z</time></trkpt><trkpt lat="45.720468" lon="9.1019174"><ele>252.20000000000002</ele><time>2026-03-29T15:52:51.958Z</time></trkpt><trkpt lat="45.7205367" lon="9.1020187"><ele>253.40000000000003</ele><time>2026-03-29T15:52:52.959Z</time></trkpt><trkpt lat="45.720612" lon="9.102123"><ele>254.6</ele><time>2026-03-29T15:52:53.957Z</time></trkpt><trkpt lat="45.7206896" lon="9.1022299"><ele>255.8</ele><time>2026-03-29T15:52:54.957Z</time></trkpt><trkpt lat="45.7207673" lon="9.102339"><ele>257.0</ele><time>2026-03-29T15:52:55.958Z</time></trkpt><trkpt lat="45.7208431" lon="9.1024498"><ele>258.0</ele><time>2026-03-29T15:52:56.959Z</time></trkpt><trkpt lat="45.7209168" lon="9.1025591"><ele>259.0</ele><time>2026-03-29T15:52:57.959Z</time></trkpt><trkpt lat="45.720993" lon="9.1026671"><ele>260.0</ele><time>2026-03-29T15:52:58.959Z</time></trkpt><trkpt lat="45.7210689" lon="9.1027765"><ele>261.0</ele><time>2026-03-29T15:52:59.958Z</time></trkpt><trkpt lat="45.7211434" lon="9.1028865"><ele>262.0</ele><time>2026-03-29T15:53:00.959Z</time></trkpt><trkpt lat="45.7212213" lon="9.1029948"><ele>261.75</ele><time>2026-03-29T15:53:01.958Z</time></trkpt><trkpt lat="45.7212998" lon="9.1031048"><ele>261.5</ele><time>2026-03-29T15:53:02.958Z</time></trkpt><trkpt lat="45.7213859" lon="9.1032073"><ele>261.25</ele><time>2026-03-29T15:53:03.959Z</time></trkpt><trkpt lat="45.7214815" lon="9.1033045"><ele>261.0</ele><time>2026-03-29T15:53:04.957Z</time></trkpt><trkpt lat="45.7215786" lon="9.1033965"><ele>261.0</ele><time>2026-03-29T15:53:05.959Z</time></trkpt><trkpt lat="45.7216849" lon="9.1034886"><ele>261.0</ele><time>2026-03-29T15:53:06.959Z</time></trkpt><trkpt lat="45.7217955" lon="9.1035824"><ele>261.0</ele><time>2026-03-29T15:53:07.957Z</time></trkpt><trkpt lat="45.721912" lon="9.1036744"><ele>261.0</ele><time>2026-03-29T15:53:08.959Z</time></trkpt><trkpt lat="45.7220318" lon="9.1037696"><ele>262.25</ele><time>2026-03-29T15:53:09.959Z</time></trkpt><trkpt lat="45.7221464" lon="9.1038583"><ele>263.5</ele><time>2026-03-29T15:53:10.958Z</time></trkpt><trkpt lat="45.7222534" lon="9.1039358"><ele>264.75</ele><time>2026-03-29T15:53:11.959Z</time></trkpt><trkpt lat="45.7223605" lon="9.1040134"><ele>266.0</ele><time>2026-03-29T15:53:12.959Z</time></trkpt><trkpt lat="45.72247" lon="9.1040967"><ele>266.0</ele><time>2026-03-29T15:53:13.957Z</time></trkpt><trkpt lat="45.7225839" lon="9.1041824"><ele>266.0</ele><time>2026-03-29T15:53:14.957Z</time></trkpt><trkpt lat="45.7227001" lon="9.1042703"><ele>266.0</ele><time>2026-03-29T15:53:15.958Z</time></trkpt><trkpt lat="45.7228161" lon="9.104356"><ele>266.0</ele><time>2026-03-29T15:53:16.959Z</time></trkpt><trkpt lat="45.7229258" lon="9.1044414"><ele>266.0</ele><time>2026-03-29T15:53:17.958Z</time></trkpt><trkpt lat="45.7230346" lon="9.104524"><ele>266.0</ele><time>2026-03-29T15:53:18.959Z</time></trkpt><trkpt lat="45.7231374" lon="9.1046118"><ele>266.0</ele><time>2026-03-29T15:53:19.959Z</time></trkpt><trkpt lat="45.723233" lon="9.1047126"><ele>266.0</ele><time>2026-03-29T15:53:20.959Z</time></trkpt><trkpt lat="45.7233256" lon="9.1048217"><ele>267.75</ele><time>2026-03-29T15:53:21.959Z</time></trkpt><trkpt lat="45.7234162" lon="9.1049384"><ele>269.5</ele><time>2026-03-29T15:53:22.959Z</time></trkpt><trkpt lat="45.723497" lon="9.1050553"><ele>271.25</ele><time>2026-03-29T15:53:23.958Z</time></trkpt><trkpt lat="45.7235706" lon="9.1051677"><ele>273.0</ele><time>2026-03-29T15:53:24.958Z</time></trkpt><trkpt lat="45.7236506" lon="9.1052732"><ele>273.0</ele><time>2026-03-29T15:53:25.958Z</time></trkpt><trkpt lat="45.7237396" lon="9.1053808"><ele>273.0</ele><time>2026-03-29T15:53:26.959Z</time></trkpt><trkpt lat="45.723839" lon="9.1054854"><ele>273.0</ele><time>2026-03-29T15:53:27.958Z</time></trkpt><trkpt lat="45.7239465" lon="9.1055832"><ele>273.0</ele><time>2026-03-29T15:53:28.958Z</time></trkpt><trkpt lat="45.7240597" lon="9.1056806"><ele>274.25</ele><time>2026-03-29T15:53:29.958Z</time></trkpt><trkpt lat="45.7241784" lon="9.1057761"><ele>275.5</ele><time>2026-03-29T15:53:30.959Z</time></trkpt><trkpt lat="45.7242927" lon="9.1058677"><ele>276.75</ele><time>2026-03-29T15:53:31.959Z</time></trkpt><trkpt lat="45.7244036" lon="9.1059565"><ele>278.0</ele><time>2026-03-29T15:53:32.957Z</time></trkpt><trkpt lat="45.7245144" lon="9.1060458"><ele>278.5</ele><time>2026-03-29T15:53:33.956Z</time></trkpt><trkpt lat="45.7246249" lon="9.1061312"><ele>279.0</ele><time>2026-03-29T15:53:34.958Z</time></trkpt><trkpt lat="45.7247372" lon="9.1062188"><ele>279.5</ele><time>2026-03-29T15:53:35.958Z</time></trkpt><trkpt lat="45.7248468" lon="9.1063101"><ele>280.0</ele><time>2026-03-29T15:53:36.957Z</time></trkpt><trkpt lat="45.7249525" lon="9.1064013"><ele>280.0</ele><time>2026-03-29T15:53:37.958Z</time></trkpt><trkpt lat="45.7250563" lon="9.1064927"><ele>280.0</ele><time>2026-03-29T15:53:38.957Z</time></trkpt><trkpt lat="45.725164" lon="9.106585"><ele>280.0</ele><time>2026-03-29T15:53:39.958Z</time></trkpt><trkpt lat="45.7252769" lon="9.1066747"><ele>280.0</ele><time>2026-03-29T15:53:40.958Z</time></trkpt><trkpt lat="45.7253912" lon="9.1067652"><ele>281.75</ele><time>2026-03-29T15:53:41.956Z</time></trkpt><trkpt lat="45.7255025" lon="9.1068615"><ele>283.5</ele><time>2026-03-29T15:53:42.958Z</time></trkpt><trkpt lat="45.7256143" lon="9.1069519"><ele>285.25</ele><time>2026-03-29T15:53:43.957Z</time></trkpt><trkpt lat="45.7257298" lon="9.1070487"><ele>287.0</ele><time>2026-03-29T15:53:44.958Z</time></trkpt><trkpt lat="45.7258448" lon="9.1071484"><ele>287.0</ele><time>2026-03-29T15:53:45.958Z</time></trkpt><trkpt lat="45.7259603" lon="9.1072488"><ele>287.0</ele><time>2026-03-29T15:53:46.958Z</time></trkpt><trkpt lat="45.7260822" lon="9.107347"><ele>287.0</ele><time>2026-03-29T15:53:47.958Z</time></trkpt><trkpt lat="45.7262003" lon="9.1074385"><ele>287.0</ele><time>2026-03-29T15:53:48.957Z</time></trkpt><trkpt lat="45.7263176" lon="9.1075127"><ele>288.75</ele><time>2026-03-29T15:53:49.958Z</time></trkpt><trkpt lat="45.7264394" lon="9.1075644"><ele>290.5</ele><time>2026-03-29T15:53:50.958Z</time></trkpt><trkpt lat="45.7265702" lon="9.1075925"><ele>292.25</ele><time>2026-03-29T15:53:51.957Z</time></trkpt><trkpt lat="45.7267114" lon="9.1075823"><ele>294.0</ele><time>2026-03-29T15:53:52.958Z</time></trkpt><trkpt lat="45.7268426" lon="9.1075151"><ele>294.0</ele><time>2026-03-29T15:53:53.958Z</time></trkpt><trkpt lat="45.7269647" lon="9.1073943"><ele>294.0</ele><time>2026-03-29T15:53:54.958Z</time></trkpt><trkpt lat="45.7270572" lon="9.1072252"><ele>294.0</ele><time>2026-03-29T15:53:55.958Z</time></trkpt><trkpt lat="45.7271371" lon="9.1070381"><ele>294.0</ele><time>2026-03-29T15:53:56.958Z</time></trkpt><trkpt lat="45.7272139" lon="9.106876"><ele>294.0</ele><time>2026-03-29T15:53:57.958Z</time></trkpt><trkpt lat="45.7272854" lon="9.1067245"><ele>294.0</ele><time>2026-03-29T15:53:58.957Z</time></trkpt><trkpt lat="45.7273548" lon="9.1065809"><ele>294.0</ele><time>2026-03-29T15:53:59.958Z</time></trkpt><trkpt lat="45.727436" lon="9.1064425"><ele>294.25</ele><time>2026-03-29T15:54:00.957Z</time></trkpt><trkpt lat="45.7275389" lon="9.1063291"><ele>294.5</ele><time>2026-03-29T15:54:01.957Z</time></trkpt><trkpt lat="45.7276561" lon="9.1062454"><ele>294.75</ele><time>2026-03-29T15:54:02.958Z</time></trkpt><trkpt lat="45.7277869" lon="9.1062047"><ele>295.0</ele><time>2026-03-29T15:54:03.957Z</time></trkpt><trkpt lat="45.7279241" lon="9.1062077"><ele>295.0</ele><time>2026-03-29T15:54:04.958Z</time></trkpt><trkpt lat="45.728065" lon="9.1062342"><ele>295.0</ele><time>2026-03-29T15:54:05.958Z</time></trkpt><trkpt lat="45.7282038" lon="9.1062735"><ele>295.0</ele><time>2026-03-29T15:54:06.958Z</time></trkpt><trkpt lat="45.7283259" lon="9.1063322"><ele>295.0</ele><time>2026-03-29T15:54:07.958Z</time></trkpt><trkpt lat="45.7284374" lon="9.106421"><ele>295.0</ele><time>2026-03-29T15:54:08.957Z</time></trkpt><trkpt lat="45.7285358" lon="9.1065365"><ele>295.0</ele><time>2026-03-29T15:54:09.958Z</time></trkpt><trkpt lat="45.7286179" lon="9.1066757"><ele>295.0</ele><time>2026-03-29T15:54:10.958Z</time></trkpt><trkpt lat="45.7286781" lon="9.1068418"><ele>295.0</ele><time>2026-03-29T15:54:11.958Z</time></trkpt><trkpt lat="45.7287215" lon="9.1070264"><ele>296.25</ele><time>2026-03-29T15:54:12.958Z</time></trkpt><trkpt lat="45.7287607" lon="9.1072264"><ele>297.5</ele><time>2026-03-29T15:54:13.958Z</time></trkpt><trkpt lat="45.728797" lon="9.1074313"><ele>298.75</ele><time>2026-03-29T15:54:14.958Z</time></trkpt><trkpt lat="45.7288298" lon="9.1076156"><ele>300.0</ele><time>2026-03-29T15:54:15.958Z</time></trkpt><trkpt lat="45.7288612" lon="9.1077828"><ele>300.0</ele><time>2026-03-29T15:54:16.958Z</time></trkpt><trkpt lat="45.7288865" lon="9.1079357"><ele>300.0</ele><time>2026-03-29T15:54:17.957Z</time></trkpt><trkpt lat="45.7289131" lon="9.1080726"><ele>300.0</ele><time>2026-03-29T15:54:18.958Z</time></trkpt><trkpt lat="45.7289359" lon="9.1081936"><ele>300.0</ele><time>2026-03-29T15:54:19.958Z</time></trkpt><trkpt lat="45.7289569" lon="9.1082899"><ele>300.0</ele><time>2026-03-29T15:54:20.958Z</time></trkpt><trkpt lat="45.7289762" lon="9.1084207"><ele>300.3333333333333</ele><time>2026-03-29T15:54:22.958Z</time></trkpt><trkpt lat="45.7289873" lon="9.1085112"><ele>300.6666666666667</ele><time>2026-03-29T15:54:24.958Z</time></trkpt><trkpt lat="45.729004" lon="9.1086382"><ele>301.0</ele><time>2026-03-29T15:54:31.958Z</time></trkpt><trkpt lat="45.729014" lon="9.1087336"><ele>301.33333333333337</ele><time>2026-03-29T15:54:32.957Z</time></trkpt><trkpt lat="45.7290906" lon="9.108867"><ele>301.6666666666667</ele><time>2026-03-29T15:54:34.958Z</time></trkpt><trkpt lat="45.7291674" lon="9.1088698"><ele>302.0</ele><time>2026-03-29T15:54:35.957Z</time></trkpt><trkpt lat="45.7292394" lon="9.1088886"><ele>302.0</ele><time>2026-03-29T15:54:36.958Z</time></trkpt><trkpt lat="45.729327" lon="9.1088731"><ele>302.0</ele><time>2026-03-29T15:54:37.956Z</time></trkpt><trkpt lat="45.7294273" lon="9.1088394"><ele>302.0</ele><time>2026-03-29T15:54:38.958Z</time></trkpt><trkpt lat="45.7295292" lon="9.1087837"><ele>302.0</ele><time>2026-03-29T15:54:39.957Z</time></trkpt><trkpt lat="45.729677" lon="9.1087282"><ele>301.25</ele><time>2026-03-29T15:54:40.958Z</time></trkpt><trkpt lat="45.7298306" lon="9.1086113"><ele>300.5</ele><time>2026-03-29T15:54:41.956Z</time></trkpt><trkpt lat="45.7299516" lon="9.1085635"><ele>299.75</ele><time>2026-03-29T15:54:42.957Z</time></trkpt><trkpt lat="45.7300862" lon="9.108529"><ele>299.0</ele><time>2026-03-29T15:54:43.957Z</time></trkpt><trkpt lat="45.7302285" lon="9.1084952"><ele>298.75</ele><time>2026-03-29T15:54:44.958Z</time></trkpt><trkpt lat="45.7303642" lon="9.1084651"><ele>298.5</ele><time>2026-03-29T15:54:45.958Z</time></trkpt><trkpt lat="45.7305085" lon="9.1084341"><ele>298.25</ele><time>2026-03-29T15:54:46.956Z</time></trkpt><trkpt lat="45.7306445" lon="9.1084211"><ele>298.0</ele><time>2026-03-29T15:54:47.958Z</time></trkpt><trkpt lat="45.7307882" lon="9.1084252"><ele>298.0</ele><time>2026-03-29T15:54:48.957Z</time></trkpt><trkpt lat="45.7309388" lon="9.1084441"><ele>298.0</ele><time>2026-03-29T15:54:49.958Z</time></trkpt><trkpt lat="45.7310945" lon="9.1084895"><ele>298.0</ele><time>2026-03-29T15:54:50.958Z</time></trkpt><trkpt lat="45.7312528" lon="9.108551"><ele>296.66666666666663</ele><time>2026-03-29T15:54:51.958Z</time></trkpt><trkpt lat="45.7314167" lon="9.1086327"><ele>295.3333333333333</ele><time>2026-03-29T15:54:52.958Z</time></trkpt><trkpt lat="45.7315798" lon="9.1087112"><ele>294.0</ele><time>2026-03-29T15:54:53.958Z</time></trkpt><trkpt lat="45.7317334" lon="9.1087961"><ele>293.6666666666667</ele><time>2026-03-29T15:54:54.958Z</time></trkpt><trkpt lat="45.7318922" lon="9.10889"><ele>293.33333333333337</ele><time>2026-03-29T15:54:55.958Z</time></trkpt><trkpt lat="45.7320253" lon="9.1089801"><ele>293.0</ele><time>2026-03-29T15:54:56.958Z</time></trkpt><trkpt lat="45.7321651" lon="9.1090826"><ele>294.33333333333337</ele><time>2026-03-29T15:54:57.957Z</time></trkpt><trkpt lat="45.7323039" lon="9.1091986"><ele>295.6666666666667</ele><time>2026-03-29T15:54:58.957Z</time></trkpt><trkpt lat="45.7324305" lon="9.1093197"><ele>297.0</ele><time>2026-03-29T15:54:59.957Z</time></trkpt><trkpt lat="45.7325555" lon="9.1094523"><ele>297.0</ele><time>2026-03-29T15:55:00.958Z</time></trkpt><trkpt lat="45.7326748" lon="9.1095836"><ele>297.0</ele><time>2026-03-29T15:55:01.957Z</time></trkpt><trkpt lat="45.7327948" lon="9.109723"><ele>297.0</ele><time>2026-03-29T15:55:02.957Z</time></trkpt><trkpt lat="45.7329167" lon="9.1098734"><ele>297.6666666666667</ele><time>2026-03-29T15:55:03.958Z</time></trkpt><trkpt lat="45.7330431" lon="9.1100228"><ele>298.33333333333337</ele><time>2026-03-29T15:55:04.957Z</time></trkpt><trkpt lat="45.7331638" lon="9.1101743"><ele>299.0</ele><time>2026-03-29T15:55:05.957Z</time></trkpt><trkpt lat="45.7332832" lon="9.1103254"><ele>299.0</ele><time>2026-03-29T15:55:06.957Z</time></trkpt><trkpt lat="45.7333879" lon="9.1104614"><ele>299.0</ele><time>2026-03-29T15:55:07.958Z</time></trkpt><trkpt lat="45.7334969" lon="9.1105998"><ele>299.0</ele><time>2026-03-29T15:55:08.958Z</time></trkpt><trkpt lat="45.7336029" lon="9.1107367"><ele>299.0</ele><time>2026-03-29T15:55:09.958Z</time></trkpt><trkpt lat="45.733706" lon="9.1108627"><ele>298.5</ele><time>2026-03-29T15:55:10.957Z</time></trkpt><trkpt lat="45.7338001" lon="9.1109785"><ele>298.0</ele><time>2026-03-29T15:55:11.958Z</time></trkpt><trkpt lat="45.733892" lon="9.1110902"><ele>297.5</ele><time>2026-03-29T15:55:12.957Z</time></trkpt><trkpt lat="45.733975" lon="9.111202"><ele>297.0</ele><time>2026-03-29T15:55:13.958Z</time></trkpt><trkpt lat="45.7340542" lon="9.1113186"><ele>297.0</ele><time>2026-03-29T15:55:14.957Z</time></trkpt><trkpt lat="45.7341211" lon="9.1114518"><ele>297.0</ele><time>2026-03-29T15:55:15.957Z</time></trkpt><trkpt lat="45.7341909" lon="9.1115904"><ele>297.0</ele><time>2026-03-29T15:55:16.958Z</time></trkpt><trkpt lat="45.7342279" lon="9.1117383"><ele>297.0</ele><time>2026-03-29T15:55:17.957Z</time></trkpt><trkpt lat="45.7343214" lon="9.1118243"><ele>296.25</ele><time>2026-03-29T15:55:18.956Z</time></trkpt><trkpt lat="45.7344186" lon="9.1119093"><ele>295.5</ele><time>2026-03-29T15:55:19.957Z</time></trkpt><trkpt lat="45.7345367" lon="9.1119789"><ele>294.75</ele><time>2026-03-29T15:55:20.958Z</time></trkpt><trkpt lat="45.734657" lon="9.1120619"><ele>294.0</ele><time>2026-03-29T15:55:21.957Z</time></trkpt><trkpt lat="45.7347785" lon="9.1121751"><ele>294.0</ele><time>2026-03-29T15:55:22.957Z</time></trkpt><trkpt lat="45.7348871" lon="9.1122855"><ele>294.0</ele><time>2026-03-29T15:55:23.957Z</time></trkpt><trkpt lat="45.7350009" lon="9.1123984"><ele>294.0</ele><time>2026-03-29T15:55:24.957Z</time></trkpt><trkpt lat="45.7351106" lon="9.1125213"><ele>294.0</ele><time>2026-03-29T15:55:25.958Z</time></trkpt><trkpt lat="45.7352244" lon="9.1126428"><ele>294.75</ele><time>2026-03-29T15:55:26.957Z</time></trkpt><trkpt lat="45.7353382" lon="9.1127614"><ele>295.5</ele><time>2026-03-29T15:55:27.958Z</time></trkpt><trkpt lat="45.7354498" lon="9.1128814"><ele>296.25</ele><time>2026-03-29T15:55:28.957Z</time></trkpt><trkpt lat="45.7355593" lon="9.1129981"><ele>297.0</ele><time>2026-03-29T15:55:29.957Z</time></trkpt><trkpt lat="45.7356658" lon="9.1131142"><ele>297.0</ele><time>2026-03-29T15:55:30.958Z</time></trkpt><trkpt lat="45.7357695" lon="9.1132323"><ele>297.0</ele><time>2026-03-29T15:55:31.956Z</time></trkpt><trkpt lat="45.7358692" lon="9.1133558"><ele>297.0</ele><time>2026-03-29T15:55:32.956Z</time></trkpt><trkpt lat="45.7359674" lon="9.1134862"><ele>297.0</ele><time>2026-03-29T15:55:33.957Z</time></trkpt><trkpt lat="45.7360646" lon="9.1136162"><ele>297.25</ele><time>2026-03-29T15:55:34.957Z</time></trkpt><trkpt lat="45.7361637" lon="9.1137494"><ele>297.5</ele><time>2026-03-29T15:55:35.957Z</time></trkpt><trkpt lat="45.7362612" lon="9.1138891"><ele>297.75</ele><time>2026-03-29T15:55:36.956Z</time></trkpt><trkpt lat="45.7363569" lon="9.1140352"><ele>298.0</ele><time>2026-03-29T15:55:37.958Z</time></trkpt><trkpt lat="45.7364503" lon="9.1141824"><ele>298.75</ele><time>2026-03-29T15:55:38.958Z</time></trkpt><trkpt lat="45.7365468" lon="9.1143332"><ele>299.5</ele><time>2026-03-29T15:55:39.957Z</time></trkpt><trkpt lat="45.7366461" lon="9.1144865"><ele>300.25</ele><time>2026-03-29T15:55:40.958Z</time></trkpt><trkpt lat="45.7367435" lon="9.1146378"><ele>301.0</ele><time>2026-03-29T15:55:41.957Z</time></trkpt><trkpt lat="45.7368348" lon="9.1147792"><ele>301.2</ele><time>2026-03-29T15:55:42.956Z</time></trkpt><trkpt lat="45.7369151" lon="9.1149048"><ele>301.40000000000003</ele><time>2026-03-29T15:55:43.958Z</time></trkpt><trkpt lat="45.7369903" lon="9.1150208"><ele>301.6</ele><time>2026-03-29T15:55:44.956Z</time></trkpt><trkpt lat="45.737062" lon="9.1151352"><ele>301.8</ele><time>2026-03-29T15:55:45.958Z</time></trkpt><trkpt lat="45.7371408" lon="9.1152483"><ele>302.0</ele><time>2026-03-29T15:55:46.956Z</time></trkpt><trkpt lat="45.7372266" lon="9.1153618"><ele>302.0</ele><time>2026-03-29T15:55:47.958Z</time></trkpt><trkpt lat="45.7373159" lon="9.1154697"><ele>302.0</ele><time>2026-03-29T15:55:48.958Z</time></trkpt><trkpt lat="45.7374096" lon="9.1155809"><ele>302.0</ele><time>2026-03-29T15:55:49.958Z</time></trkpt><trkpt lat="45.737505" lon="9.1156885"><ele>302.0</ele><time>2026-03-29T15:55:50.958Z</time></trkpt><trkpt lat="45.7375934" lon="9.1157942"><ele>302.2</ele><time>2026-03-29T15:55:51.957Z</time></trkpt><trkpt lat="45.7376829" lon="9.1158968"><ele>302.4</ele><time>2026-03-29T15:55:52.958Z</time></trkpt><trkpt lat="45.7377709" lon="9.1159949"><ele>302.6</ele><time>2026-03-29T15:55:53.957Z</time></trkpt><trkpt lat="45.73786" lon="9.1160892"><ele>302.8</ele><time>2026-03-29T15:55:54.956Z</time></trkpt><trkpt lat="45.7379481" lon="9.1161796"><ele>303.0</ele><time>2026-03-29T15:55:55.957Z</time></trkpt><trkpt lat="45.7380364" lon="9.1162676"><ele>303.0</ele><time>2026-03-29T15:55:56.956Z</time></trkpt><trkpt lat="45.7381252" lon="9.1163523"><ele>303.0</ele><time>2026-03-29T15:55:57.958Z</time></trkpt><trkpt lat="45.7382149" lon="9.1164375"><ele>303.0</ele><time>2026-03-29T15:55:58.957Z</time></trkpt><trkpt lat="45.7383092" lon="9.1165206"><ele>303.0</ele><time>2026-03-29T15:55:59.958Z</time></trkpt><trkpt lat="45.7384061" lon="9.1166081"><ele>303.0</ele><time>2026-03-29T15:56:00.957Z</time></trkpt><trkpt lat="45.7384965" lon="9.1166905"><ele>303.4</ele><time>2026-03-29T15:56:01.958Z</time></trkpt><trkpt lat="45.7385817" lon="9.116774"><ele>303.8</ele><time>2026-03-29T15:56:02.958Z</time></trkpt><trkpt lat="45.7386633" lon="9.1168496"><ele>304.2</ele><time>2026-03-29T15:56:03.958Z</time></trkpt><trkpt lat="45.7387379" lon="9.1169209"><ele>304.6</ele><time>2026-03-29T15:56:04.958Z</time></trkpt><trkpt lat="45.7388162" lon="9.1169905"><ele>305.0</ele><time>2026-03-29T15:56:05.958Z</time></trkpt><trkpt lat="45.7388977" lon="9.1170661"><ele>305.0</ele><time>2026-03-29T15:56:06.957Z</time></trkpt><trkpt lat="45.7389804" lon="9.1171442"><ele>305.0</ele><time>2026-03-29T15:56:07.958Z</time></trkpt><trkpt lat="45.7390649" lon="9.117223"><ele>305.0</ele><time>2026-03-29T15:56:08.958Z</time></trkpt><trkpt lat="45.7391536" lon="9.1173041"><ele>305.0</ele><time>2026-03-29T15:56:09.958Z</time></trkpt><trkpt lat="45.7392448" lon="9.117384"><ele>305.0</ele><time>2026-03-29T15:56:10.957Z</time></trkpt><trkpt lat="45.7393374" lon="9.1174691"><ele>305.0</ele><time>2026-03-29T15:56:11.958Z</time></trkpt><trkpt lat="45.7394292" lon="9.1175581"><ele>305.0</ele><time>2026-03-29T15:56:12.958Z</time></trkpt><trkpt lat="45.7395243" lon="9.117646"><ele>305.0</ele><time>2026-03-29T15:56:13.958Z</time></trkpt><trkpt lat="45.739623" lon="9.1177373"><ele>305.0</ele><time>2026-03-29T15:56:14.957Z</time></trkpt><trkpt lat="45.7397239" lon="9.117831"><ele>305.0</ele><time>2026-03-29T15:56:15.958Z</time></trkpt><trkpt lat="45.7398268" lon="9.1179296"><ele>305.0</ele><time>2026-03-29T15:56:16.957Z</time></trkpt><trkpt lat="45.7399297" lon="9.1180203"><ele>305.0</ele><time>2026-03-29T15:56:17.957Z</time></trkpt><trkpt lat="45.7400302" lon="9.1181095"><ele>305.0</ele><time>2026-03-29T15:56:18.957Z</time></trkpt><trkpt lat="45.7401217" lon="9.1181985"><ele>305.2</ele><time>2026-03-29T15:56:19.958Z</time></trkpt><trkpt lat="45.7402097" lon="9.1182822"><ele>305.4</ele><time>2026-03-29T15:56:20.957Z</time></trkpt><trkpt lat="45.7402955" lon="9.1183654"><ele>305.6</ele><time>2026-03-29T15:56:21.958Z</time></trkpt><trkpt lat="45.7403796" lon="9.1184417"><ele>305.8</ele><time>2026-03-29T15:56:22.958Z</time></trkpt><trkpt lat="45.7404582" lon="9.1185196"><ele>306.0</ele><time>2026-03-29T15:56:23.957Z</time></trkpt><trkpt lat="45.7405386" lon="9.1185946"><ele>306.5</ele><time>2026-03-29T15:56:24.958Z</time></trkpt><trkpt lat="45.740618" lon="9.118672"><ele>307.0</ele><time>2026-03-29T15:56:25.957Z</time></trkpt><trkpt lat="45.7406823" lon="9.1187425"><ele>307.5</ele><time>2026-03-29T15:56:26.957Z</time></trkpt><trkpt lat="45.7407454" lon="9.1188096"><ele>308.0</ele><time>2026-03-29T15:56:27.957Z</time></trkpt><trkpt lat="45.7408173" lon="9.1188871"><ele>308.5</ele><time>2026-03-29T15:56:28.958Z</time></trkpt><trkpt lat="45.7408798" lon="9.118972"><ele>309.0</ele><time>2026-03-29T15:56:29.958Z</time></trkpt><trkpt lat="45.7409361" lon="9.1190529"><ele>309.0</ele><time>2026-03-29T15:56:30.957Z</time></trkpt><trkpt lat="45.7409988" lon="9.1191123"><ele>309.0</ele><time>2026-03-29T15:56:31.957Z</time></trkpt><trkpt lat="45.7410745" lon="9.119143"><ele>309.0</ele><time>2026-03-29T15:56:32.958Z</time></trkpt><trkpt lat="45.7411664" lon="9.1191585"><ele>309.0</ele><time>2026-03-29T15:56:33.957Z</time></trkpt><trkpt lat="45.7412598" lon="9.1191896"><ele>309.0</ele><time>2026-03-29T15:56:34.957Z</time></trkpt><trkpt lat="45.7413615" lon="9.119246"><ele>309.0</ele><time>2026-03-29T15:56:35.958Z</time></trkpt><trkpt lat="45.7414713" lon="9.1193174"><ele>309.0</ele><time>2026-03-29T15:56:36.958Z</time></trkpt><trkpt lat="45.7415922" lon="9.1194088"><ele>309.0</ele><time>2026-03-29T15:56:37.958Z</time></trkpt><trkpt lat="45.7417133" lon="9.119497"><ele>309.0</ele><time>2026-03-29T15:56:38.958Z</time></trkpt><trkpt lat="45.7418333" lon="9.1195763"><ele>309.25</ele><time>2026-03-29T15:56:39.956Z</time></trkpt><trkpt lat="45.7419383" lon="9.1196678"><ele>309.5</ele><time>2026-03-29T15:56:40.955Z</time></trkpt><trkpt lat="45.7420399" lon="9.1197448"><ele>309.75</ele><time>2026-03-29T15:56:41.956Z</time></trkpt><trkpt lat="45.7421355" lon="9.1198204"><ele>310.0</ele><time>2026-03-29T15:56:42.955Z</time></trkpt><trkpt lat="45.7422338" lon="9.1198957"><ele>310.25</ele><time>2026-03-29T15:56:43.957Z</time></trkpt><trkpt lat="45.7423324" lon="9.119969"><ele>310.5</ele><time>2026-03-29T15:56:44.957Z</time></trkpt><trkpt lat="45.7424351" lon="9.1200435"><ele>310.75</ele><time>2026-03-29T15:56:45.956Z</time></trkpt><trkpt lat="45.7425384" lon="9.120123"><ele>311.0</ele><time>2026-03-29T15:56:46.956Z</time></trkpt><trkpt lat="45.7426499" lon="9.1202052"><ele>311.0</ele><time>2026-03-29T15:56:47.957Z</time></trkpt><trkpt lat="45.7427624" lon="9.1202939"><ele>311.0</ele><time>2026-03-29T15:56:48.957Z</time></trkpt><trkpt lat="45.7428797" lon="9.1203728"><ele>311.0</ele><time>2026-03-29T15:56:49.956Z</time></trkpt><trkpt lat="45.7430012" lon="9.1204579"><ele>311.0</ele><time>2026-03-29T15:56:50.957Z</time></trkpt><trkpt lat="45.7431267" lon="9.120546"><ele>311.0</ele><time>2026-03-29T15:56:51.957Z</time></trkpt><trkpt lat="45.7432569" lon="9.1206395"><ele>311.0</ele><time>2026-03-29T15:56:52.957Z</time></trkpt><trkpt lat="45.7433723" lon="9.1207317"><ele>311.0</ele><time>2026-03-29T15:56:53.957Z</time></trkpt><trkpt lat="45.7434777" lon="9.1208169"><ele>311.0</ele><time>2026-03-29T15:56:54.956Z</time></trkpt><trkpt lat="45.7435795" lon="9.1208943"><ele>311.2</ele><time>2026-03-29T15:56:55.957Z</time></trkpt><trkpt lat="45.7436769" lon="9.1209715"><ele>311.40000000000003</ele><time>2026-03-29T15:56:56.956Z</time></trkpt><trkpt lat="45.7437734" lon="9.1210457"><ele>311.6</ele><time>2026-03-29T15:56:57.956Z</time></trkpt><trkpt lat="45.7438469" lon="9.1211018"><ele>311.8</ele><time>2026-03-29T15:56:58.957Z</time></trkpt><trkpt lat="45.7439269" lon="9.1211624"><ele>312.0</ele><time>2026-03-29T15:56:59.956Z</time></trkpt><trkpt lat="45.7440036" lon="9.1212226"><ele>312.0</ele><time>2026-03-29T15:57:00.956Z</time></trkpt><trkpt lat="45.7440927" lon="9.1212893"><ele>312.0</ele><time>2026-03-29T15:57:01.956Z</time></trkpt><trkpt lat="45.7441779" lon="9.1213545"><ele>312.0</ele><time>2026-03-29T15:57:02.957Z</time></trkpt><trkpt lat="45.7442603" lon="9.1214162"><ele>312.0</ele><time>2026-03-29T15:57:03.957Z</time></trkpt><trkpt lat="45.744343" lon="9.1214809"><ele>312.0</ele><time>2026-03-29T15:57:04.956Z</time></trkpt><trkpt lat="45.7444302" lon="9.1215435"><ele>312.1666666666667</ele><time>2026-03-29T15:57:05.957Z</time></trkpt><trkpt lat="45.7445122" lon="9.1216061"><ele>312.3333333333333</ele><time>2026-03-29T15:57:06.956Z</time></trkpt><trkpt lat="45.7446045" lon="9.1216729"><ele>312.5</ele><time>2026-03-29T15:57:07.957Z</time></trkpt><trkpt lat="45.7446813" lon="9.1217343"><ele>312.66666666666663</ele><time>2026-03-29T15:57:08.957Z</time></trkpt><trkpt lat="45.7447511" lon="9.1217902"><ele>312.8333333333333</ele><time>2026-03-29T15:57:09.955Z</time></trkpt><trkpt lat="45.7448161" lon="9.1218397"><ele>313.0</ele><time>2026-03-29T15:57:10.955Z</time></trkpt><trkpt lat="45.7448766" lon="9.1218882"><ele>313.0</ele><time>2026-03-29T15:57:11.956Z</time></trkpt><trkpt lat="45.7449335" lon="9.1219314"><ele>313.0</ele><time>2026-03-29T15:57:12.956Z</time></trkpt><trkpt lat="45.7450306" lon="9.1220061"><ele>313.0</ele><time>2026-03-29T15:57:14.956Z</time></trkpt><trkpt lat="45.7451008" lon="9.1220765"><ele>313.0</ele><time>2026-03-29T15:57:16.957Z</time></trkpt><trkpt lat="45.7451529" lon="9.1221718"><ele>313.0</ele><time>2026-03-29T15:57:19.956Z</time></trkpt><trkpt lat="45.7451349" lon="9.1222938"><ele>313.0</ele><time>2026-03-29T15:57:25.957Z</time></trkpt><trkpt lat="45.7450526" lon="9.1224124"><ele>313.0</ele><time>2026-03-29T15:57:27.957Z</time></trkpt><trkpt lat="45.744995" lon="9.1224693"><ele>313.0</ele><time>2026-03-29T15:57:28.957Z</time></trkpt><trkpt lat="45.7449451" lon="9.1225375"><ele>313.0</ele><time>2026-03-29T15:57:29.956Z</time></trkpt><trkpt lat="45.7448413" lon="9.1226766"><ele>313.0</ele><time>2026-03-29T15:57:31.956Z</time></trkpt><trkpt lat="45.7447886" lon="9.1227523"><ele>313.0</ele><time>2026-03-29T15:57:32.957Z</time></trkpt><trkpt lat="45.744735" lon="9.1228291"><ele>313.0</ele><time>2026-03-29T15:57:33.956Z</time></trkpt><trkpt lat="45.7446786" lon="9.1229108"><ele>313.0</ele><time>2026-03-29T15:57:34.957Z</time></trkpt><trkpt lat="45.744625" lon="9.1229981"><ele>313.0</ele><time>2026-03-29T15:57:35.957Z</time></trkpt><trkpt lat="45.7445758" lon="9.1230898"><ele>313.0</ele><time>2026-03-29T15:57:36.956Z</time></trkpt><trkpt lat="45.7445325" lon="9.1231803"><ele>313.0</ele><time>2026-03-29T15:57:37.957Z</time></trkpt><trkpt lat="45.7444952" lon="9.1232654"><ele>313.0</ele><time>2026-03-29T15:57:38.955Z</time></trkpt><trkpt lat="45.7444698" lon="9.1233555"><ele>313.0</ele><time>2026-03-29T15:57:39.956Z</time></trkpt><trkpt lat="45.7444708" lon="9.123454"><ele>313.0</ele><time>2026-03-29T15:57:40.956Z</time></trkpt><trkpt lat="45.7445094" lon="9.1235529"><ele>313.16666666666663</ele><time>2026-03-29T15:57:41.957Z</time></trkpt><trkpt lat="45.7445645" lon="9.1236357"><ele>313.3333333333333</ele><time>2026-03-29T15:57:42.957Z</time></trkpt><trkpt lat="45.7446739" lon="9.1237132"><ele>313.5</ele><time>2026-03-29T15:57:43.956Z</time></trkpt><trkpt lat="45.7447458" lon="9.1237929"><ele>313.6666666666667</ele><time>2026-03-29T15:57:44.957Z</time></trkpt><trkpt lat="45.7447913" lon="9.1238834"><ele>313.83333333333337</ele><time>2026-03-29T15:57:45.957Z</time></trkpt><trkpt lat="45.7448059" lon="9.1239848"><ele>314.0</ele><time>2026-03-29T15:57:46.956Z</time></trkpt><trkpt lat="45.7447956" lon="9.1241123"><ele>314.0</ele><time>2026-03-29T15:57:47.957Z</time></trkpt><trkpt lat="45.7447709" lon="9.1242677"><ele>314.0</ele><time>2026-03-29T15:57:48.956Z</time></trkpt><trkpt lat="45.7447381" lon="9.1244436"><ele>314.0</ele><time>2026-03-29T15:57:49.957Z</time></trkpt><trkpt lat="45.7447073" lon="9.1245938"><ele>314.0</ele><time>2026-03-29T15:57:50.955Z</time></trkpt><trkpt lat="45.7446762" lon="9.1247463"><ele>315.0</ele><time>2026-03-29T15:57:51.957Z</time></trkpt><trkpt lat="45.7446489" lon="9.1248971"><ele>316.0</ele><time>2026-03-29T15:57:52.955Z</time></trkpt><trkpt lat="45.7446306" lon="9.1250454"><ele>317.0</ele><time>2026-03-29T15:57:53.957Z</time></trkpt><trkpt lat="45.7446386" lon="9.125197"><ele>318.0</ele><time>2026-03-29T15:57:54.956Z</time></trkpt><trkpt lat="45.7446584" lon="9.1253569"><ele>319.0</ele><time>2026-03-29T15:57:55.957Z</time></trkpt><trkpt lat="45.7446775" lon="9.1255281"><ele>319.0</ele><time>2026-03-29T15:57:56.956Z</time></trkpt><trkpt lat="45.7446958" lon="9.1257068"><ele>319.0</ele><time>2026-03-29T15:57:57.957Z</time></trkpt><trkpt lat="45.7447116" lon="9.1258994"><ele>319.0</ele><time>2026-03-29T15:57:58.957Z</time></trkpt><trkpt lat="45.7447314" lon="9.1260979"><ele>319.0</ele><time>2026-03-29T15:57:59.957Z</time></trkpt><trkpt lat="45.7447505" lon="9.1262969"><ele>319.75</ele><time>2026-03-29T15:58:00.957Z</time></trkpt><trkpt lat="45.7447636" lon="9.126478"><ele>320.5</ele><time>2026-03-29T15:58:01.956Z</time></trkpt><trkpt lat="45.7447765" lon="9.1266376"><ele>321.25</ele><time>2026-03-29T15:58:02.956Z</time></trkpt><trkpt lat="45.7448022" lon="9.1267842"><ele>322.0</ele><time>2026-03-29T15:58:03.956Z</time></trkpt><trkpt lat="45.744851" lon="9.1269233"><ele>323.20000000000005</ele><time>2026-03-29T15:58:04.956Z</time></trkpt><trkpt lat="45.744904" lon="9.1270567"><ele>324.4</ele><time>2026-03-29T15:58:05.956Z</time></trkpt><trkpt lat="45.7449509" lon="9.1271756"><ele>325.6</ele><time>2026-03-29T15:58:06.957Z</time></trkpt><trkpt lat="45.745004" lon="9.1272974"><ele>326.79999999999995</ele><time>2026-03-29T15:58:07.957Z</time></trkpt><trkpt lat="45.7450576" lon="9.1273954"><ele>328.0</ele><time>2026-03-29T15:58:08.955Z</time></trkpt><trkpt lat="45.7451165" lon="9.1274859"><ele>328.66666666666663</ele><time>2026-03-29T15:58:09.957Z</time></trkpt><trkpt lat="45.7452291" lon="9.1275902"><ele>329.3333333333333</ele><time>2026-03-29T15:58:11.955Z</time></trkpt><trkpt lat="45.7452741" lon="9.127674"><ele>330.0</ele><time>2026-03-29T15:58:12.956Z</time></trkpt><trkpt lat="45.7452827" lon="9.1277757"><ele>330.6666666666667</ele><time>2026-03-29T15:58:13.957Z</time></trkpt><trkpt lat="45.745251" lon="9.1278642"><ele>331.33333333333337</ele><time>2026-03-29T15:58:14.957Z</time></trkpt><trkpt lat="45.7451915" lon="9.1279333"><ele>332.0</ele><time>2026-03-29T15:58:15.957Z</time></trkpt><trkpt lat="45.745129" lon="9.1280006"><ele>332.6</ele><time>2026-03-29T15:58:16.957Z</time></trkpt><trkpt lat="45.7450435" lon="9.1280289"><ele>333.20000000000005</ele><time>2026-03-29T15:58:17.956Z</time></trkpt><trkpt lat="45.7449724" lon="9.128104"><ele>333.8</ele><time>2026-03-29T15:58:18.957Z</time></trkpt><trkpt lat="45.7449163" lon="9.1282258"><ele>334.4</ele><time>2026-03-29T15:58:19.957Z</time></trkpt><trkpt lat="45.7448714" lon="9.1283888"><ele>335.0</ele><time>2026-03-29T15:58:20.957Z</time></trkpt><trkpt lat="45.7448342" lon="9.1285205"><ele>336.33333333333337</ele><time>2026-03-29T15:58:21.956Z</time></trkpt><trkpt lat="45.7447986" lon="9.1286456"><ele>337.6666666666667</ele><time>2026-03-29T15:58:22.957Z</time></trkpt><trkpt lat="45.7447666" lon="9.1287496"><ele>339.0</ele><time>2026-03-29T15:58:23.957Z</time></trkpt><trkpt lat="45.7447432" lon="9.1288444"><ele>340.3333333333333</ele><time>2026-03-29T15:58:24.957Z</time></trkpt><trkpt lat="45.7447189" lon="9.1289319"><ele>341.66666666666663</ele><time>2026-03-29T15:58:25.957Z</time></trkpt><trkpt lat="45.7446781" lon="9.1290642"><ele>343.0</ele><time>2026-03-29T15:58:27.957Z</time></trkpt><trkpt lat="45.7446287" lon="9.129139"><ele>344.0</ele><time>2026-03-29T15:58:29.956Z</time></trkpt><trkpt lat="45.7445646" lon="9.129171"><ele>345.0</ele><time>2026-03-29T15:58:31.956Z</time></trkpt><trkpt lat="45.7444703" lon="9.1292074"><ele>346.0</ele><time>2026-03-29T15:58:33.956Z</time></trkpt><trkpt lat="45.7444015" lon="9.1292131"><ele>347.0</ele><time>2026-03-29T15:58:34.957Z</time></trkpt><trkpt lat="45.7442899" lon="9.1292134"><ele>348.0</ele><time>2026-03-29T15:58:36.957Z</time></trkpt><trkpt lat="45.7441858" lon="9.1292038"><ele>348.3333333333333</ele><time>2026-03-29T15:58:38.957Z</time></trkpt><trkpt lat="45.7441138" lon="9.1292194"><ele>348.6666666666667</ele><time>2026-03-29T15:58:39.956Z</time></trkpt><trkpt lat="45.7440448" lon="9.1292245"><ele>349.0</ele><time>2026-03-29T15:58:40.957Z</time></trkpt><trkpt lat="45.7439744" lon="9.129245"><ele>349.33333333333337</ele><time>2026-03-29T15:58:41.957Z</time></trkpt><trkpt lat="45.7438543" lon="9.1292918"><ele>349.6666666666667</ele><time>2026-03-29T15:58:43.956Z</time></trkpt><trkpt lat="45.7437651" lon="9.1292846"><ele>350.0</ele><time>2026-03-29T15:58:45.956Z</time></trkpt><trkpt lat="45.7436681" lon="9.1292846"><ele>350.0</ele><time>2026-03-29T15:58:47.957Z</time></trkpt><trkpt lat="45.7435907" lon="9.1292843"><ele>350.0</ele><time>2026-03-29T15:58:49.956Z</time></trkpt><trkpt lat="45.743508" lon="9.1293204"><ele>350.0</ele><time>2026-03-29T15:58:51.957Z</time></trkpt><trkpt lat="45.7434394" lon="9.1293468"><ele>350.0</ele><time>2026-03-29T15:58:53.955Z</time></trkpt><trkpt lat="45.7433758" lon="9.1293877"><ele>350.0</ele><time>2026-03-29T15:58:55.956Z</time></trkpt><trkpt lat="45.7433348" lon="9.1295215"><ele>350.0</ele><time>2026-03-29T15:58:58.956Z</time></trkpt><trkpt lat="45.7432942" lon="9.1296504"><ele>351.0</ele><time>2026-03-29T15:59:00.956Z</time></trkpt><trkpt lat="45.7432501" lon="9.1297919"><ele>352.0</ele><time>2026-03-29T15:59:02.957Z</time></trkpt><trkpt lat="45.7432176" lon="9.1298785"><ele>353.0</ele><time>2026-03-29T15:59:03.957Z</time></trkpt><trkpt lat="45.743168" lon="9.1300404"><ele>354.0</ele><time>2026-03-29T15:59:05.956Z</time></trkpt><trkpt lat="45.7431493" lon="9.130135"><ele>355.0</ele><time>2026-03-29T15:59:06.956Z</time></trkpt><trkpt lat="45.7430913" lon="9.1303465"><ele>355.2</ele><time>2026-03-29T15:59:08.956Z</time></trkpt><trkpt lat="45.7430748" lon="9.130469"><ele>355.4</ele><time>2026-03-29T15:59:09.956Z</time></trkpt><trkpt lat="45.7430554" lon="9.1305705"><ele>355.6</ele><time>2026-03-29T15:59:10.957Z</time></trkpt><trkpt lat="45.7430537" lon="9.1307331"><ele>355.8</ele><time>2026-03-29T15:59:11.957Z</time></trkpt><trkpt lat="45.7430587" lon="9.1308668"><ele>356.0</ele><time>2026-03-29T15:59:12.956Z</time></trkpt><trkpt lat="45.7430663" lon="9.1309946"><ele>356.6</ele><time>2026-03-29T15:59:13.956Z</time></trkpt><trkpt lat="45.7430724" lon="9.1311111"><ele>357.20000000000005</ele><time>2026-03-29T15:59:14.957Z</time></trkpt><trkpt lat="45.7430751" lon="9.1312548"><ele>357.79999999999995</ele><time>2026-03-29T15:59:15.957Z</time></trkpt><trkpt lat="45.7430697" lon="9.1313967"><ele>358.4</ele><time>2026-03-29T15:59:16.957Z</time></trkpt><trkpt lat="45.7430502" lon="9.1315409"><ele>359.0</ele><time>2026-03-29T15:59:17.956Z</time></trkpt><trkpt lat="45.743028" lon="9.1316992"><ele>359.75</ele><time>2026-03-29T15:59:18.957Z</time></trkpt><trkpt lat="45.7430073" lon="9.1318627"><ele>360.5</ele><time>2026-03-29T15:59:19.956Z</time></trkpt><trkpt lat="45.7429873" lon="9.1320431"><ele>361.25</ele><time>2026-03-29T15:59:20.957Z</time></trkpt><trkpt lat="45.7429635" lon="9.1322261"><ele>362.0</ele><time>2026-03-29T15:59:21.956Z</time></trkpt><trkpt lat="45.7429477" lon="9.1323991"><ele>362.6</ele><time>2026-03-29T15:59:22.957Z</time></trkpt><trkpt lat="45.7429348" lon="9.1325645"><ele>363.20000000000005</ele><time>2026-03-29T15:59:23.956Z</time></trkpt><trkpt lat="45.7429121" lon="9.132708"><ele>363.8</ele><time>2026-03-29T15:59:24.956Z</time></trkpt><trkpt lat="45.7428962" lon="9.1328536"><ele>364.4</ele><time>2026-03-29T15:59:25.956Z</time></trkpt><trkpt lat="45.742876" lon="9.133003"><ele>365.0</ele><time>2026-03-29T15:59:26.956Z</time></trkpt><trkpt lat="45.742855" lon="9.1331546"><ele>365.0</ele><time>2026-03-29T15:59:27.956Z</time></trkpt><trkpt lat="45.7428328" lon="9.1333109"><ele>365.0</ele><time>2026-03-29T15:59:28.956Z</time></trkpt><trkpt lat="45.7428129" lon="9.133467"><ele>365.0</ele><time>2026-03-29T15:59:29.956Z</time></trkpt><trkpt lat="45.7427933" lon="9.1336261"><ele>365.0</ele><time>2026-03-29T15:59:30.956Z</time></trkpt><trkpt lat="45.7427744" lon="9.1337853"><ele>365.0</ele><time>2026-03-29T15:59:31.956Z</time></trkpt><trkpt lat="45.7427562" lon="9.1339374"><ele>364.8</ele><time>2026-03-29T15:59:32.956Z</time></trkpt><trkpt lat="45.7427382" lon="9.1340774"><ele>364.6</ele><time>2026-03-29T15:59:33.955Z</time></trkpt><trkpt lat="45.742722" lon="9.1342131"><ele>364.4</ele><time>2026-03-29T15:59:34.955Z</time></trkpt><trkpt lat="45.7427017" lon="9.1343448"><ele>364.2</ele><time>2026-03-29T15:59:35.955Z</time></trkpt><trkpt lat="45.7426742" lon="9.1344815"><ele>364.0</ele><time>2026-03-29T15:59:36.956Z</time></trkpt><trkpt lat="45.742639" lon="9.134615"><ele>363.0</ele><time>2026-03-29T15:59:37.956Z</time></trkpt><trkpt lat="45.7425946" lon="9.1347472"><ele>362.0</ele><time>2026-03-29T15:59:38.955Z</time></trkpt><trkpt lat="45.7425571" lon="9.1348734"><ele>361.0</ele><time>2026-03-29T15:59:39.954Z</time></trkpt><trkpt lat="45.7425055" lon="9.1350053"><ele>360.0</ele><time>2026-03-29T15:59:40.956Z</time></trkpt><trkpt lat="45.7424643" lon="9.1351098"><ele>359.0</ele><time>2026-03-29T15:59:41.955Z</time></trkpt><trkpt lat="45.7424183" lon="9.1352019"><ele>359.0</ele><time>2026-03-29T15:59:42.955Z</time></trkpt><trkpt lat="45.7423625" lon="9.1353354"><ele>359.0</ele><time>2026-03-29T15:59:44.956Z</time></trkpt><trkpt lat="45.7423224" lon="9.1354304"><ele>359.0</ele><time>2026-03-29T15:59:46.956Z</time></trkpt><trkpt lat="45.7422808" lon="9.1355273"><ele>359.0</ele><time>2026-03-29T15:59:48.954Z</time></trkpt><trkpt lat="45.7422355" lon="9.1356552"><ele>359.0</ele><time>2026-03-29T15:59:50.955Z</time></trkpt><trkpt lat="45.7422059" lon="9.1357907"><ele>358.5</ele><time>2026-03-29T15:59:52.954Z</time></trkpt><trkpt lat="45.742266" lon="9.1359164"><ele>358.0</ele><time>2026-03-29T15:59:54.956Z</time></trkpt><trkpt lat="45.7423183" lon="9.1359759"><ele>357.5</ele><time>2026-03-29T15:59:55.956Z</time></trkpt><trkpt lat="45.7423651" lon="9.1360597"><ele>357.0</ele><time>2026-03-29T15:59:56.956Z</time></trkpt><trkpt lat="45.7424091" lon="9.1361523"><ele>356.5</ele><time>2026-03-29T15:59:57.956Z</time></trkpt><trkpt lat="45.7424537" lon="9.13625"><ele>356.0</ele><time>2026-03-29T15:59:58.956Z</time></trkpt><trkpt lat="45.7424992" lon="9.1363404"><ele>356.0</ele><time>2026-03-29T15:59:59.956Z</time></trkpt><trkpt lat="45.7425494" lon="9.1364427"><ele>356.0</ele><time>2026-03-29T16:00:00.955Z</time></trkpt><trkpt lat="45.7425983" lon="9.1365413"><ele>356.0</ele><time>2026-03-29T16:00:01.956Z</time></trkpt><trkpt lat="45.7426439" lon="9.1366418"><ele>356.0</ele><time>2026-03-29T16:00:02.955Z</time></trkpt><trkpt lat="45.742694" lon="9.1367398"><ele>356.0</ele><time>2026-03-29T16:00:03.956Z</time></trkpt><trkpt lat="45.7427441" lon="9.1368441"><ele>356.0</ele><time>2026-03-29T16:00:04.955Z</time></trkpt><trkpt lat="45.7427863" lon="9.1369549"><ele>355.6</ele><time>2026-03-29T16:00:05.956Z</time></trkpt><trkpt lat="45.7428411" lon="9.1370593"><ele>355.20000000000005</ele><time>2026-03-29T16:00:06.955Z</time></trkpt><trkpt lat="45.7428997" lon="9.1371724"><ele>354.79999999999995</ele><time>2026-03-29T16:00:07.956Z</time></trkpt><trkpt lat="45.7429652" lon="9.1372987"><ele>354.4</ele><time>2026-03-29T16:00:08.956Z</time></trkpt><trkpt lat="45.7430317" lon="9.1374218"><ele>354.0</ele><time>2026-03-29T16:00:09.955Z</time></trkpt><trkpt lat="45.7430944" lon="9.1375448"><ele>353.2</ele><time>2026-03-29T16:00:10.956Z</time></trkpt><trkpt lat="45.7431565" lon="9.137671"><ele>352.4</ele><time>2026-03-29T16:00:11.955Z</time></trkpt><trkpt lat="45.7432155" lon="9.1377964"><ele>351.6</ele><time>2026-03-29T16:00:12.956Z</time></trkpt><trkpt lat="45.7432761" lon="9.1379192"><ele>350.8</ele><time>2026-03-29T16:00:13.955Z</time></trkpt><trkpt lat="45.7433329" lon="9.1380408"><ele>350.0</ele><time>2026-03-29T16:00:14.956Z</time></trkpt><trkpt lat="45.7433922" lon="9.1381632"><ele>349.5</ele><time>2026-03-29T16:00:15.954Z</time></trkpt><trkpt lat="45.7434565" lon="9.1382854"><ele>349.0</ele><time>2026-03-29T16:00:16.955Z</time></trkpt><trkpt lat="45.7435204" lon="9.1384227"><ele>348.5</ele><time>2026-03-29T16:00:17.954Z</time></trkpt><trkpt lat="45.7435847" lon="9.1385634"><ele>348.0</ele><time>2026-03-29T16:00:18.956Z</time></trkpt><trkpt lat="45.7436504" lon="9.1386972"><ele>347.79999999999995</ele><time>2026-03-29T16:00:19.955Z</time></trkpt><trkpt lat="45.7437142" lon="9.1388318"><ele>347.6</ele><time>2026-03-29T16:00:20.955Z</time></trkpt><trkpt lat="45.7437749" lon="9.1389595"><ele>347.4</ele><time>2026-03-29T16:00:21.955Z</time></trkpt><trkpt lat="45.7438355" lon="9.1390816"><ele>347.20000000000005</ele><time>2026-03-29T16:00:22.955Z</time></trkpt><trkpt lat="45.7438874" lon="9.1391942"><ele>347.0</ele><time>2026-03-29T16:00:23.956Z</time></trkpt><trkpt lat="45.7439476" lon="9.1393124"><ele>346.83333333333337</ele><time>2026-03-29T16:00:24.956Z</time></trkpt><trkpt lat="45.744013" lon="9.1394537"><ele>346.6666666666667</ele><time>2026-03-29T16:00:26.956Z</time></trkpt><trkpt lat="45.7440492" lon="9.1395316"><ele>346.5</ele><time>2026-03-29T16:00:27.956Z</time></trkpt><trkpt lat="45.7440798" lon="9.1396213"><ele>346.3333333333333</ele><time>2026-03-29T16:00:28.956Z</time></trkpt><trkpt lat="45.7440987" lon="9.1397287"><ele>346.16666666666663</ele><time>2026-03-29T16:00:29.955Z</time></trkpt><trkpt lat="45.7441046" lon="9.1398309"><ele>346.0</ele><time>2026-03-29T16:00:30.955Z</time></trkpt><trkpt lat="45.7441166" lon="9.1399428"><ele>345.8</ele><time>2026-03-29T16:00:31.956Z</time></trkpt><trkpt lat="45.7441405" lon="9.1400581"><ele>345.6</ele><time>2026-03-29T16:00:32.956Z</time></trkpt><trkpt lat="45.7441874" lon="9.1401656"><ele>345.4</ele><time>2026-03-29T16:00:33.955Z</time></trkpt><trkpt lat="45.7442625" lon="9.1402564"><ele>345.2</ele><time>2026-03-29T16:00:34.956Z</time></trkpt><trkpt lat="45.7443602" lon="9.140336"><ele>345.0</ele><time>2026-03-29T16:00:35.956Z</time></trkpt><trkpt lat="45.7444515" lon="9.1404399"><ele>345.0</ele><time>2026-03-29T16:00:36.956Z</time></trkpt><trkpt lat="45.7445163" lon="9.1405594"><ele>345.0</ele><time>2026-03-29T16:00:37.956Z</time></trkpt><trkpt lat="45.744573" lon="9.1406733"><ele>345.0</ele><time>2026-03-29T16:00:38.955Z</time></trkpt><trkpt lat="45.7446321" lon="9.1407913"><ele>345.0</ele><time>2026-03-29T16:00:39.955Z</time></trkpt><trkpt lat="45.7446965" lon="9.1409198"><ele>345.0</ele><time>2026-03-29T16:00:40.954Z</time></trkpt><trkpt lat="45.7447732" lon="9.141053"><ele>344.8</ele><time>2026-03-29T16:00:41.954Z</time></trkpt><trkpt lat="45.7448583" lon="9.1411837"><ele>344.6</ele><time>2026-03-29T16:00:42.955Z</time></trkpt><trkpt lat="45.7449409" lon="9.1412979"><ele>344.4</ele><time>2026-03-29T16:00:43.956Z</time></trkpt><trkpt lat="45.7450194" lon="9.1413965"><ele>344.2</ele><time>2026-03-29T16:00:44.956Z</time></trkpt><trkpt lat="45.7450851" lon="9.1414766"><ele>344.0</ele><time>2026-03-29T16:00:45.955Z</time></trkpt><trkpt lat="45.7451464" lon="9.1415474"><ele>344.6666666666667</ele><time>2026-03-29T16:00:46.956Z</time></trkpt><trkpt lat="45.7452038" lon="9.1416118"><ele>345.33333333333337</ele><time>2026-03-29T16:00:47.955Z</time></trkpt><trkpt lat="45.7452672" lon="9.1416864"><ele>346.0</ele><time>2026-03-29T16:00:48.956Z</time></trkpt><trkpt lat="45.7453321" lon="9.1417644"><ele>346.6666666666667</ele><time>2026-03-29T16:00:49.955Z</time></trkpt><trkpt lat="45.7453999" lon="9.1418449"><ele>347.3333333333333</ele><time>2026-03-29T16:00:50.955Z</time></trkpt><trkpt lat="45.7454698" lon="9.1419255"><ele>348.0</ele><time>2026-03-29T16:00:51.956Z</time></trkpt><trkpt lat="45.7455427" lon="9.1420108"><ele>348.0</ele><time>2026-03-29T16:00:52.956Z</time></trkpt><trkpt lat="45.7456185" lon="9.1420984"><ele>348.0</ele><time>2026-03-29T16:00:53.956Z</time></trkpt><trkpt lat="45.7456969" lon="9.1421946"><ele>348.0</ele><time>2026-03-29T16:00:54.955Z</time></trkpt><trkpt lat="45.745778" lon="9.1422928"><ele>348.0</ele><time>2026-03-29T16:00:55.955Z</time></trkpt><trkpt lat="45.7458604" lon="9.1423865"><ele>348.0</ele><time>2026-03-29T16:00:56.956Z</time></trkpt><trkpt lat="45.7459546" lon="9.1425057"><ele>349.0</ele><time>2026-03-29T16:00:57.956Z</time></trkpt><trkpt lat="45.7460509" lon="9.1426111"><ele>350.0</ele><time>2026-03-29T16:00:58.955Z</time></trkpt><trkpt lat="45.7461493" lon="9.1427285"><ele>351.0</ele><time>2026-03-29T16:00:59.956Z</time></trkpt><trkpt lat="45.7462386" lon="9.1428387"><ele>352.0</ele><time>2026-03-29T16:01:00.954Z</time></trkpt><trkpt lat="45.7463271" lon="9.1429333"><ele>352.0</ele><time>2026-03-29T16:01:01.955Z</time></trkpt><trkpt lat="45.7464232" lon="9.1430298"><ele>352.0</ele><time>2026-03-29T16:01:02.954Z</time></trkpt><trkpt lat="45.7465209" lon="9.1431143"><ele>352.0</ele><time>2026-03-29T16:01:03.955Z</time></trkpt><trkpt lat="45.7466346" lon="9.1431824"><ele>352.0</ele><time>2026-03-29T16:01:04.956Z</time></trkpt><trkpt lat="45.7467573" lon="9.1432375"><ele>352.75</ele><time>2026-03-29T16:01:05.956Z</time></trkpt><trkpt lat="45.7468869" lon="9.1432888"><ele>353.5</ele><time>2026-03-29T16:01:06.956Z</time></trkpt><trkpt lat="45.7470231" lon="9.1433363"><ele>354.25</ele><time>2026-03-29T16:01:07.955Z</time></trkpt><trkpt lat="45.7471515" lon="9.1433901"><ele>355.0</ele><time>2026-03-29T16:01:08.954Z</time></trkpt><trkpt lat="45.7472791" lon="9.1434498"><ele>355.0</ele><time>2026-03-29T16:01:09.954Z</time></trkpt><trkpt lat="45.7474026" lon="9.1435027"><ele>355.0</ele><time>2026-03-29T16:01:10.956Z</time></trkpt><trkpt lat="45.74753" lon="9.1435453"><ele>355.0</ele><time>2026-03-29T16:01:11.956Z</time></trkpt><trkpt lat="45.7476548" lon="9.1435838"><ele>355.0</ele><time>2026-03-29T16:01:12.955Z</time></trkpt><trkpt lat="45.7477776" lon="9.1436272"><ele>355.25</ele><time>2026-03-29T16:01:13.956Z</time></trkpt><trkpt lat="45.7479004" lon="9.1436682"><ele>355.5</ele><time>2026-03-29T16:01:14.954Z</time></trkpt><trkpt lat="45.7480252" lon="9.1437124"><ele>355.75</ele><time>2026-03-29T16:01:15.955Z</time></trkpt><trkpt lat="45.7481426" lon="9.1437561"><ele>356.0</ele><time>2026-03-29T16:01:16.955Z</time></trkpt><trkpt lat="45.748259" lon="9.1437975"><ele>356.0</ele><time>2026-03-29T16:01:17.956Z</time></trkpt><trkpt lat="45.7483699" lon="9.1438574"><ele>356.0</ele><time>2026-03-29T16:01:18.956Z</time></trkpt><trkpt lat="45.7484795" lon="9.1439204"><ele>356.0</ele><time>2026-03-29T16:01:19.956Z</time></trkpt><trkpt lat="45.7485822" lon="9.1439854"><ele>356.0</ele><time>2026-03-29T16:01:20.955Z</time></trkpt><trkpt lat="45.7486752" lon="9.1440493"><ele>356.6</ele><time>2026-03-29T16:01:21.955Z</time></trkpt><trkpt lat="45.7487632" lon="9.1441081"><ele>357.20000000000005</ele><time>2026-03-29T16:01:22.956Z</time></trkpt><trkpt lat="45.7488464" lon="9.1441641"><ele>357.79999999999995</ele><time>2026-03-29T16:01:23.956Z</time></trkpt><trkpt lat="45.7489308" lon="9.1442216"><ele>358.4</ele><time>2026-03-29T16:01:24.955Z</time></trkpt><trkpt lat="45.7490188" lon="9.1442774"><ele>359.0</ele><time>2026-03-29T16:01:25.956Z</time></trkpt><trkpt lat="45.7491136" lon="9.1443342"><ele>359.0</ele><time>2026-03-29T16:01:26.954Z</time></trkpt><trkpt lat="45.7492084" lon="9.1443963"><ele>359.0</ele><time>2026-03-29T16:01:27.956Z</time></trkpt><trkpt lat="45.7493042" lon="9.1444573"><ele>359.0</ele><time>2026-03-29T16:01:28.955Z</time></trkpt><trkpt lat="45.7494046" lon="9.1445214"><ele>359.0</ele><time>2026-03-29T16:01:29.955Z</time></trkpt><trkpt lat="45.7495056" lon="9.1445838"><ele>359.0</ele><time>2026-03-29T16:01:30.955Z</time></trkpt><trkpt lat="45.7496045" lon="9.1446477"><ele>359.5</ele><time>2026-03-29T16:01:31.956Z</time></trkpt><trkpt lat="45.7496917" lon="9.1447047"><ele>360.0</ele><time>2026-03-29T16:01:32.955Z</time></trkpt><trkpt lat="45.74977" lon="9.1447548"><ele>360.5</ele><time>2026-03-29T16:01:33.955Z</time></trkpt><trkpt lat="45.7498388" lon="9.1448011"><ele>361.0</ele><time>2026-03-29T16:01:34.956Z</time></trkpt><trkpt lat="45.7498982" lon="9.1448405"><ele>361.5</ele><time>2026-03-29T16:01:35.954Z</time></trkpt><trkpt lat="45.749998" lon="9.1449038"><ele>362.0</ele><time>2026-03-29T16:01:37.955Z</time></trkpt><trkpt lat="45.7501003" lon="9.1449652"><ele>363.0</ele><time>2026-03-29T16:01:39.956Z</time></trkpt><trkpt lat="45.750196" lon="9.1450287"><ele>364.0</ele><time>2026-03-29T16:01:41.955Z</time></trkpt><trkpt lat="45.75031" lon="9.1450967"><ele>365.0</ele><time>2026-03-29T16:01:43.956Z</time></trkpt><trkpt lat="45.7503763" lon="9.1451376"><ele>366.0</ele><time>2026-03-29T16:01:44.956Z</time></trkpt><trkpt lat="45.7504536" lon="9.1451805"><ele>367.0</ele><time>2026-03-29T16:01:45.956Z</time></trkpt><trkpt lat="45.7505455" lon="9.1452238"><ele>367.0</ele><time>2026-03-29T16:01:46.956Z</time></trkpt><trkpt lat="45.7506461" lon="9.1452659"><ele>367.0</ele><time>2026-03-29T16:01:47.956Z</time></trkpt><trkpt lat="45.7507555" lon="9.1452894"><ele>367.0</ele><time>2026-03-29T16:01:48.955Z</time></trkpt><trkpt lat="45.7508536" lon="9.1453"><ele>367.0</ele><time>2026-03-29T16:01:49.954Z</time></trkpt><trkpt lat="45.7509452" lon="9.1453029"><ele>367.0</ele><time>2026-03-29T16:01:50.956Z</time></trkpt><trkpt lat="45.7510232" lon="9.1453081"><ele>367.16666666666663</ele><time>2026-03-29T16:01:51.955Z</time></trkpt><trkpt lat="45.7511008" lon="9.1453123"><ele>367.3333333333333</ele><time>2026-03-29T16:01:52.955Z</time></trkpt><trkpt lat="45.7511843" lon="9.1453186"><ele>367.5</ele><time>2026-03-29T16:01:53.955Z</time></trkpt><trkpt lat="45.7512699" lon="9.1453297"><ele>367.6666666666667</ele><time>2026-03-29T16:01:54.955Z</time></trkpt><trkpt lat="45.7513584" lon="9.1453478"><ele>367.83333333333337</ele><time>2026-03-29T16:01:55.955Z</time></trkpt><trkpt lat="45.7514451" lon="9.1453726"><ele>368.0</ele><time>2026-03-29T16:01:56.955Z</time></trkpt><trkpt lat="45.7515426" lon="9.1454241"><ele>368.0</ele><time>2026-03-29T16:01:57.955Z</time></trkpt><trkpt lat="45.751636" lon="9.1454799"><ele>368.0</ele><time>2026-03-29T16:01:58.955Z</time></trkpt><trkpt lat="45.751728" lon="9.1455402"><ele>368.0</ele><time>2026-03-29T16:01:59.956Z</time></trkpt><trkpt lat="45.7518205" lon="9.1456039"><ele>368.0</ele><time>2026-03-29T16:02:00.955Z</time></trkpt><trkpt lat="45.751916" lon="9.1456781"><ele>368.0</ele><time>2026-03-29T16:02:01.955Z</time></trkpt><trkpt lat="45.7520164" lon="9.1457578"><ele>368.5</ele><time>2026-03-29T16:02:02.956Z</time></trkpt><trkpt lat="45.7521194" lon="9.1458402"><ele>369.0</ele><time>2026-03-29T16:02:03.955Z</time></trkpt><trkpt lat="45.7522248" lon="9.1459229"><ele>369.5</ele><time>2026-03-29T16:02:04.955Z</time></trkpt><trkpt lat="45.752331" lon="9.1460076"><ele>370.0</ele><time>2026-03-29T16:02:05.956Z</time></trkpt><trkpt lat="45.7524336" lon="9.146094"><ele>370.0</ele><time>2026-03-29T16:02:06.955Z</time></trkpt><trkpt lat="45.7525236" lon="9.1461906"><ele>370.0</ele><time>2026-03-29T16:02:07.956Z</time></trkpt><trkpt lat="45.7525986" lon="9.1463072"><ele>370.0</ele><time>2026-03-29T16:02:08.955Z</time></trkpt><trkpt lat="45.7527104" lon="9.1464811"><ele>370.0</ele><time>2026-03-29T16:02:09.955Z</time></trkpt><trkpt lat="45.7528061" lon="9.1466413"><ele>369.25</ele><time>2026-03-29T16:02:10.954Z</time></trkpt><trkpt lat="45.7528958" lon="9.1467943"><ele>368.5</ele><time>2026-03-29T16:02:11.955Z</time></trkpt><trkpt lat="45.7529829" lon="9.146946"><ele>367.75</ele><time>2026-03-29T16:02:12.954Z</time></trkpt><trkpt lat="45.7530757" lon="9.1471007"><ele>367.0</ele><time>2026-03-29T16:02:13.955Z</time></trkpt><trkpt lat="45.7531705" lon="9.1472587"><ele>366.75</ele><time>2026-03-29T16:02:14.954Z</time></trkpt><trkpt lat="45.7532702" lon="9.147413"><ele>366.5</ele><time>2026-03-29T16:02:15.955Z</time></trkpt><trkpt lat="45.7533669" lon="9.1475764"><ele>366.25</ele><time>2026-03-29T16:02:16.954Z</time></trkpt><trkpt lat="45.7534657" lon="9.1477415"><ele>366.0</ele><time>2026-03-29T16:02:17.954Z</time></trkpt><trkpt lat="45.7535718" lon="9.1479095"><ele>365.6666666666667</ele><time>2026-03-29T16:02:18.955Z</time></trkpt><trkpt lat="45.7536739" lon="9.1480775"><ele>365.33333333333337</ele><time>2026-03-29T16:02:19.955Z</time></trkpt><trkpt lat="45.7537716" lon="9.148256"><ele>365.0</ele><time>2026-03-29T16:02:20.955Z</time></trkpt><trkpt lat="45.7538633" lon="9.1484565"><ele>365.0</ele><time>2026-03-29T16:02:21.955Z</time></trkpt><trkpt lat="45.753938" lon="9.1486689"><ele>365.0</ele><time>2026-03-29T16:02:22.955Z</time></trkpt><trkpt lat="45.7539942" lon="9.1489056"><ele>365.0</ele><time>2026-03-29T16:02:23.954Z</time></trkpt><trkpt lat="45.7540329" lon="9.1491532"><ele>366.0</ele><time>2026-03-29T16:02:24.955Z</time></trkpt><trkpt lat="45.7540628" lon="9.1494123"><ele>367.0</ele><time>2026-03-29T16:02:25.955Z</time></trkpt><trkpt lat="45.7540955" lon="9.1496813"><ele>368.0</ele><time>2026-03-29T16:02:26.954Z</time></trkpt><trkpt lat="45.7541419" lon="9.1499446"><ele>368.33333333333337</ele><time>2026-03-29T16:02:27.955Z</time></trkpt><trkpt lat="45.7541967" lon="9.1501986"><ele>368.6666666666667</ele><time>2026-03-29T16:02:28.954Z</time></trkpt><trkpt lat="45.7542643" lon="9.1504324"><ele>369.0</ele><time>2026-03-29T16:02:29.955Z</time></trkpt><trkpt lat="45.7543474" lon="9.1506491"><ele>370.0</ele><time>2026-03-29T16:02:30.955Z</time></trkpt><trkpt lat="45.7544533" lon="9.1508515"><ele>371.0</ele><time>2026-03-29T16:02:31.954Z</time></trkpt><trkpt lat="45.7545692" lon="9.1510472"><ele>372.0</ele><time>2026-03-29T16:02:32.954Z</time></trkpt><trkpt lat="45.7546931" lon="9.1512456"><ele>372.0</ele><time>2026-03-29T16:02:33.955Z</time></trkpt><trkpt lat="45.7548272" lon="9.1514462"><ele>372.0</ele><time>2026-03-29T16:02:34.955Z</time></trkpt><trkpt lat="45.7549664" lon="9.1516534"><ele>372.0</ele><time>2026-03-29T16:02:35.955Z</time></trkpt><trkpt lat="45.7551044" lon="9.1518617"><ele>372.6666666666667</ele><time>2026-03-29T16:02:36.955Z</time></trkpt><trkpt lat="45.7552339" lon="9.1520663"><ele>373.33333333333337</ele><time>2026-03-29T16:02:37.955Z</time></trkpt><trkpt lat="45.755354" lon="9.1522592"><ele>374.0</ele><time>2026-03-29T16:02:38.955Z</time></trkpt><trkpt lat="45.7554615" lon="9.1524587"><ele>374.0</ele><time>2026-03-29T16:02:39.955Z</time></trkpt><trkpt lat="45.7555559" lon="9.1526624"><ele>374.0</ele><time>2026-03-29T16:02:40.954Z</time></trkpt><trkpt lat="45.7556438" lon="9.1528629"><ele>374.0</ele><time>2026-03-29T16:02:41.955Z</time></trkpt><trkpt lat="45.7557224" lon="9.1530611"><ele>375.6666666666667</ele><time>2026-03-29T16:02:42.955Z</time></trkpt><trkpt lat="45.7557998" lon="9.1532524"><ele>377.3333333333333</ele><time>2026-03-29T16:02:43.955Z</time></trkpt><trkpt lat="45.7558754" lon="9.1534389"><ele>379.0</ele><time>2026-03-29T16:02:44.955Z</time></trkpt><trkpt lat="45.7559522" lon="9.1536255"><ele>379.0</ele><time>2026-03-29T16:02:45.955Z</time></trkpt><trkpt lat="45.7560273" lon="9.1538085"><ele>379.0</ele><time>2026-03-29T16:02:46.953Z</time></trkpt><trkpt lat="45.7560981" lon="9.1539905"><ele>379.0</ele><time>2026-03-29T16:02:47.955Z</time></trkpt><trkpt lat="45.7561738" lon="9.154174"><ele>379.0</ele><time>2026-03-29T16:02:48.954Z</time></trkpt><trkpt lat="45.7562459" lon="9.154353"><ele>380.3333333333333</ele><time>2026-03-29T16:02:49.954Z</time></trkpt><trkpt lat="45.75632" lon="9.154538"><ele>381.6666666666667</ele><time>2026-03-29T16:02:50.954Z</time></trkpt><trkpt lat="45.7563964" lon="9.154726"><ele>383.0</ele><time>2026-03-29T16:02:51.954Z</time></trkpt><trkpt lat="45.7564745" lon="9.1549165"><ele>383.6666666666667</ele><time>2026-03-29T16:02:52.955Z</time></trkpt><trkpt lat="45.7565528" lon="9.1551092"><ele>384.33333333333337</ele><time>2026-03-29T16:02:53.954Z</time></trkpt><trkpt lat="45.7566289" lon="9.1553041"><ele>385.0</ele><time>2026-03-29T16:02:54.955Z</time></trkpt><trkpt lat="45.7567086" lon="9.1554961"><ele>385.0</ele><time>2026-03-29T16:02:55.955Z</time></trkpt><trkpt lat="45.7567833" lon="9.155681"><ele>385.0</ele><time>2026-03-29T16:02:56.954Z</time></trkpt><trkpt lat="45.7568626" lon="9.1558697"><ele>385.0</ele><time>2026-03-29T16:02:57.954Z</time></trkpt><trkpt lat="45.7569409" lon="9.1560581"><ele>387.6666666666667</ele><time>2026-03-29T16:02:58.955Z</time></trkpt><trkpt lat="45.7570199" lon="9.1562406"><ele>390.33333333333337</ele><time>2026-03-29T16:02:59.955Z</time></trkpt><trkpt lat="45.7571015" lon="9.1564247"><ele>393.0</ele><time>2026-03-29T16:03:00.954Z</time></trkpt><trkpt lat="45.7571839" lon="9.1566131"><ele>393.0</ele><time>2026-03-29T16:03:01.954Z</time></trkpt><trkpt lat="45.7572687" lon="9.1568026"><ele>393.0</ele><time>2026-03-29T16:03:02.955Z</time></trkpt><trkpt lat="45.7573523" lon="9.156997"><ele>393.0</ele><time>2026-03-29T16:03:03.954Z</time></trkpt><trkpt lat="45.7574356" lon="9.1571931"><ele>391.0</ele><time>2026-03-29T16:03:04.954Z</time></trkpt><trkpt lat="45.7575231" lon="9.157391"><ele>389.0</ele><time>2026-03-29T16:03:05.955Z</time></trkpt><trkpt lat="45.7576089" lon="9.1575889"><ele>387.0</ele><time>2026-03-29T16:03:06.954Z</time></trkpt><trkpt lat="45.7576962" lon="9.1577859"><ele>389.5</ele><time>2026-03-29T16:03:07.955Z</time></trkpt><trkpt lat="45.7577818" lon="9.1579813"><ele>392.0</ele><time>2026-03-29T16:03:08.954Z</time></trkpt><trkpt lat="45.7578599" lon="9.158162"><ele>394.5</ele><time>2026-03-29T16:03:09.954Z</time></trkpt><trkpt lat="45.7579326" lon="9.1583324"><ele>397.0</ele><time>2026-03-29T16:03:10.955Z</time></trkpt><trkpt lat="45.7580028" lon="9.1584931"><ele>397.0</ele><time>2026-03-29T16:03:11.954Z</time></trkpt><trkpt lat="45.7580712" lon="9.1586465"><ele>397.0</ele><time>2026-03-29T16:03:12.955Z</time></trkpt><trkpt lat="45.7581357" lon="9.1587913"><ele>397.0</ele><time>2026-03-29T16:03:13.955Z</time></trkpt><trkpt lat="45.7581979" lon="9.1589372"><ele>397.0</ele><time>2026-03-29T16:03:14.954Z</time></trkpt><trkpt lat="45.7582628" lon="9.1590892"><ele>397.0</ele><time>2026-03-29T16:03:15.953Z</time></trkpt><trkpt lat="45.7583249" lon="9.159235"><ele>397.0</ele><time>2026-03-29T16:03:16.954Z</time></trkpt><trkpt lat="45.7583854" lon="9.1593761"><ele>397.0</ele><time>2026-03-29T16:03:17.955Z</time></trkpt><trkpt lat="45.7584478" lon="9.1595135"><ele>397.0</ele><time>2026-03-29T16:03:18.954Z</time></trkpt><trkpt lat="45.7585115" lon="9.1596567"><ele>396.5</ele><time>2026-03-29T16:03:19.955Z</time></trkpt><trkpt lat="45.7585776" lon="9.1598116"><ele>396.0</ele><time>2026-03-29T16:03:20.955Z</time></trkpt><trkpt lat="45.7586523" lon="9.1599674"><ele>395.5</ele><time>2026-03-29T16:03:21.955Z</time></trkpt><trkpt lat="45.7587401" lon="9.1601238"><ele>395.0</ele><time>2026-03-29T16:03:22.955Z</time></trkpt><trkpt lat="45.7588401" lon="9.1602673"><ele>393.0</ele><time>2026-03-29T16:03:23.954Z</time></trkpt><trkpt lat="45.7589442" lon="9.160401"><ele>391.0</ele><time>2026-03-29T16:03:24.954Z</time></trkpt><trkpt lat="45.7590697" lon="9.1605303"><ele>389.0</ele><time>2026-03-29T16:03:25.955Z</time></trkpt><trkpt lat="45.7591981" lon="9.1606587"><ele>387.75</ele><time>2026-03-29T16:03:26.955Z</time></trkpt><trkpt lat="45.7593256" lon="9.1607846"><ele>386.5</ele><time>2026-03-29T16:03:27.955Z</time></trkpt><trkpt lat="45.759442" lon="9.1608993"><ele>385.25</ele><time>2026-03-29T16:03:28.955Z</time></trkpt><trkpt lat="45.7595646" lon="9.1610192"><ele>384.0</ele><time>2026-03-29T16:03:29.953Z</time></trkpt><trkpt lat="45.7596944" lon="9.1611398"><ele>382.25</ele><time>2026-03-29T16:03:30.955Z</time></trkpt><trkpt lat="45.7598201" lon="9.161259"><ele>380.5</ele><time>2026-03-29T16:03:31.954Z</time></trkpt><trkpt lat="45.7599403" lon="9.1613763"><ele>378.75</ele><time>2026-03-29T16:03:32.954Z</time></trkpt><trkpt lat="45.760062" lon="9.1614887"><ele>377.0</ele><time>2026-03-29T16:03:33.955Z</time></trkpt><trkpt lat="45.7601833" lon="9.1616026"><ele>374.75</ele><time>2026-03-29T16:03:34.955Z</time></trkpt><trkpt lat="45.760301" lon="9.1617204"><ele>372.5</ele><time>2026-03-29T16:03:35.955Z</time></trkpt><trkpt lat="45.7604132" lon="9.1618436"><ele>370.25</ele><time>2026-03-29T16:03:36.954Z</time></trkpt><trkpt lat="45.7605167" lon="9.1619714"><ele>368.0</ele><time>2026-03-29T16:03:37.954Z</time></trkpt><trkpt lat="45.7606" lon="9.1621053"><ele>368.0</ele><time>2026-03-29T16:03:38.955Z</time></trkpt><trkpt lat="45.7606645" lon="9.1622516"><ele>368.0</ele><time>2026-03-29T16:03:39.955Z</time></trkpt><trkpt lat="45.7606955" lon="9.1624059"><ele>368.0</ele><time>2026-03-29T16:03:40.954Z</time></trkpt><trkpt lat="45.7606919" lon="9.1625674"><ele>368.0</ele><time>2026-03-29T16:03:41.955Z</time></trkpt><trkpt lat="45.7606634" lon="9.1627236"><ele>368.5</ele><time>2026-03-29T16:03:42.955Z</time></trkpt><trkpt lat="45.7606136" lon="9.1628724"><ele>369.0</ele><time>2026-03-29T16:03:43.954Z</time></trkpt><trkpt lat="45.7605474" lon="9.1630235"><ele>369.5</ele><time>2026-03-29T16:03:44.955Z</time></trkpt><trkpt lat="45.7604775" lon="9.1631825"><ele>370.0</ele><time>2026-03-29T16:03:45.955Z</time></trkpt><trkpt lat="45.7604028" lon="9.1633511"><ele>369.25</ele><time>2026-03-29T16:03:46.955Z</time></trkpt><trkpt lat="45.7603292" lon="9.163527"><ele>368.5</ele><time>2026-03-29T16:03:47.953Z</time></trkpt><trkpt lat="45.7602526" lon="9.1637059"><ele>367.75</ele><time>2026-03-29T16:03:48.954Z</time></trkpt><trkpt lat="45.7601763" lon="9.1638765"><ele>367.0</ele><time>2026-03-29T16:03:49.954Z</time></trkpt><trkpt lat="45.7601015" lon="9.1640357"><ele>369.25</ele><time>2026-03-29T16:03:50.954Z</time></trkpt><trkpt lat="45.7600335" lon="9.164194"><ele>371.5</ele><time>2026-03-29T16:03:51.955Z</time></trkpt><trkpt lat="45.7599944" lon="9.1643526"><ele>373.75</ele><time>2026-03-29T16:03:52.955Z</time></trkpt><trkpt lat="45.7599765" lon="9.1644986"><ele>376.0</ele><time>2026-03-29T16:03:53.955Z</time></trkpt><trkpt lat="45.7600105" lon="9.1646506"><ele>376.0</ele><time>2026-03-29T16:03:54.955Z</time></trkpt><trkpt lat="45.7600735" lon="9.1647878"><ele>376.0</ele><time>2026-03-29T16:03:55.955Z</time></trkpt><trkpt lat="45.7601668" lon="9.1648943"><ele>376.0</ele><time>2026-03-29T16:03:56.955Z</time></trkpt><trkpt lat="45.760286" lon="9.1649618"><ele>376.0</ele><time>2026-03-29T16:03:57.955Z</time></trkpt><trkpt lat="45.76042" lon="9.164998"><ele>379.0</ele><time>2026-03-29T16:03:58.955Z</time></trkpt><trkpt lat="45.7605656" lon="9.1650364"><ele>382.0</ele><time>2026-03-29T16:03:59.955Z</time></trkpt><trkpt lat="45.760709" lon="9.1650873"><ele>385.0</ele><time>2026-03-29T16:04:00.955Z</time></trkpt><trkpt lat="45.7608536" lon="9.1651092"><ele>388.0</ele><time>2026-03-29T16:04:01.955Z</time></trkpt><trkpt lat="45.7609882" lon="9.1651345"><ele>389.0</ele><time>2026-03-29T16:04:02.955Z</time></trkpt><trkpt lat="45.7611165" lon="9.1652522"><ele>390.0</ele><time>2026-03-29T16:04:03.955Z</time></trkpt><trkpt lat="45.7611376" lon="9.1654768"><ele>391.0</ele><time>2026-03-29T16:04:04.954Z</time></trkpt><trkpt lat="45.7611901" lon="9.1656608"><ele>392.0</ele><time>2026-03-29T16:04:05.955Z</time></trkpt><trkpt lat="45.7612184" lon="9.165867"><ele>392.5</ele><time>2026-03-29T16:04:06.955Z</time></trkpt><trkpt lat="45.7612381" lon="9.1660904"><ele>393.0</ele><time>2026-03-29T16:04:07.954Z</time></trkpt><trkpt lat="45.7612554" lon="9.1662956"><ele>393.5</ele><time>2026-03-29T16:04:08.954Z</time></trkpt><trkpt lat="45.7612711" lon="9.1664976"><ele>394.0</ele><time>2026-03-29T16:04:09.955Z</time></trkpt><trkpt lat="45.7612936" lon="9.1667046"><ele>392.75</ele><time>2026-03-29T16:04:10.955Z</time></trkpt><trkpt lat="45.761317" lon="9.1669117"><ele>391.5</ele><time>2026-03-29T16:04:11.955Z</time></trkpt><trkpt lat="45.7613365" lon="9.1671174"><ele>390.25</ele><time>2026-03-29T16:04:12.955Z</time></trkpt><trkpt lat="45.7613515" lon="9.1673181"><ele>389.0</ele><time>2026-03-29T16:04:13.954Z</time></trkpt><trkpt lat="45.7613673" lon="9.167518"><ele>388.0</ele><time>2026-03-29T16:04:14.955Z</time></trkpt><trkpt lat="45.7613843" lon="9.1677154"><ele>387.0</ele><time>2026-03-29T16:04:15.955Z</time></trkpt><trkpt lat="45.7613986" lon="9.167911"><ele>386.0</ele><time>2026-03-29T16:04:16.955Z</time></trkpt><trkpt lat="45.7614131" lon="9.168106"><ele>385.0</ele><time>2026-03-29T16:04:17.954Z</time></trkpt><trkpt lat="45.7614296" lon="9.1682925"><ele>385.0</ele><time>2026-03-29T16:04:18.955Z</time></trkpt><trkpt lat="45.7614441" lon="9.1684784"><ele>385.0</ele><time>2026-03-29T16:04:19.955Z</time></trkpt><trkpt lat="45.7614592" lon="9.1686608"><ele>385.0</ele><time>2026-03-29T16:04:20.954Z</time></trkpt><trkpt lat="45.7614751" lon="9.1688416"><ele>385.0</ele><time>2026-03-29T16:04:21.955Z</time></trkpt><trkpt lat="45.7614918" lon="9.1690235"><ele>385.25</ele><time>2026-03-29T16:04:22.955Z</time></trkpt><trkpt lat="45.7615045" lon="9.1691961"><ele>385.5</ele><time>2026-03-29T16:04:23.954Z</time></trkpt><trkpt lat="45.7615177" lon="9.1693668"><ele>385.75</ele><time>2026-03-29T16:04:24.955Z</time></trkpt><trkpt lat="45.7615299" lon="9.1695314"><ele>386.0</ele><time>2026-03-29T16:04:25.955Z</time></trkpt><trkpt lat="45.7615429" lon="9.1696931"><ele>386.0</ele><time>2026-03-29T16:04:26.954Z</time></trkpt><trkpt lat="45.7615558" lon="9.169854"><ele>386.0</ele><time>2026-03-29T16:04:27.955Z</time></trkpt><trkpt lat="45.7615702" lon="9.1700114"><ele>386.0</ele><time>2026-03-29T16:04:28.954Z</time></trkpt><trkpt lat="45.7615805" lon="9.1701719"><ele>386.0</ele><time>2026-03-29T16:04:29.955Z</time></trkpt><trkpt lat="45.7615941" lon="9.1703361"><ele>386.5</ele><time>2026-03-29T16:04:30.955Z</time></trkpt><trkpt lat="45.7616053" lon="9.1704978"><ele>387.0</ele><time>2026-03-29T16:04:31.955Z</time></trkpt><trkpt lat="45.7616188" lon="9.1706638"><ele>387.5</ele><time>2026-03-29T16:04:32.955Z</time></trkpt><trkpt lat="45.7616336" lon="9.1708307"><ele>388.0</ele><time>2026-03-29T16:04:33.955Z</time></trkpt><trkpt lat="45.7616466" lon="9.1709938"><ele>389.25</ele><time>2026-03-29T16:04:34.955Z</time></trkpt><trkpt lat="45.7616575" lon="9.1711545"><ele>390.5</ele><time>2026-03-29T16:04:35.954Z</time></trkpt><trkpt lat="45.7616691" lon="9.171321"><ele>391.75</ele><time>2026-03-29T16:04:36.954Z</time></trkpt><trkpt lat="45.7616829" lon="9.1714901"><ele>393.0</ele><time>2026-03-29T16:04:37.955Z</time></trkpt><trkpt lat="45.7616972" lon="9.1716587"><ele>394.25</ele><time>2026-03-29T16:04:38.955Z</time></trkpt><trkpt lat="45.761714" lon="9.171832"><ele>395.5</ele><time>2026-03-29T16:04:39.953Z</time></trkpt><trkpt lat="45.7617367" lon="9.1720039"><ele>396.75</ele><time>2026-03-29T16:04:40.953Z</time></trkpt><trkpt lat="45.7617735" lon="9.1721703"><ele>398.0</ele><time>2026-03-29T16:04:41.954Z</time></trkpt><trkpt lat="45.7618224" lon="9.1723361"><ele>396.25</ele><time>2026-03-29T16:04:42.955Z</time></trkpt><trkpt lat="45.7618866" lon="9.1724965"><ele>394.5</ele><time>2026-03-29T16:04:43.954Z</time></trkpt><trkpt lat="45.7619649" lon="9.1726427"><ele>392.75</ele><time>2026-03-29T16:04:44.954Z</time></trkpt><trkpt lat="45.7620607" lon="9.172781"><ele>391.0</ele><time>2026-03-29T16:04:45.955Z</time></trkpt><trkpt lat="45.7621716" lon="9.1729059"><ele>391.0</ele><time>2026-03-29T16:04:46.955Z</time></trkpt><trkpt lat="45.7622941" lon="9.1730127"><ele>391.0</ele><time>2026-03-29T16:04:47.955Z</time></trkpt><trkpt lat="45.7624244" lon="9.173097"><ele>391.0</ele><time>2026-03-29T16:04:48.955Z</time></trkpt><trkpt lat="45.7625561" lon="9.1731617"><ele>391.0</ele><time>2026-03-29T16:04:49.955Z</time></trkpt><trkpt lat="45.7626905" lon="9.1732171"><ele>387.0</ele><time>2026-03-29T16:04:50.955Z</time></trkpt><trkpt lat="45.7628242" lon="9.1732715"><ele>383.0</ele><time>2026-03-29T16:04:51.954Z</time></trkpt><trkpt lat="45.7629485" lon="9.1733317"><ele>379.0</ele><time>2026-03-29T16:04:52.955Z</time></trkpt><trkpt lat="45.7630713" lon="9.1733953"><ele>375.0</ele><time>2026-03-29T16:04:53.954Z</time></trkpt><trkpt lat="45.7631964" lon="9.1734578"><ele>375.0</ele><time>2026-03-29T16:04:54.954Z</time></trkpt><trkpt lat="45.7633199" lon="9.1735417"><ele>375.0</ele><time>2026-03-29T16:04:55.955Z</time></trkpt><trkpt lat="45.7634282" lon="9.1736379"><ele>375.0</ele><time>2026-03-29T16:04:56.953Z</time></trkpt><trkpt lat="45.7635119" lon="9.1737373"><ele>375.0</ele><time>2026-03-29T16:04:57.953Z</time></trkpt><trkpt lat="45.7636336" lon="9.1739112"><ele>373.0</ele><time>2026-03-29T16:04:58.955Z</time></trkpt><trkpt lat="45.7637322" lon="9.1740724"><ele>371.0</ele><time>2026-03-29T16:04:59.955Z</time></trkpt><trkpt lat="45.7638332" lon="9.1742359"><ele>369.0</ele><time>2026-03-29T16:05:00.955Z</time></trkpt><trkpt lat="45.7639316" lon="9.1743867"><ele>367.0</ele><time>2026-03-29T16:05:01.954Z</time></trkpt><trkpt lat="45.7640236" lon="9.1745347"><ele>367.0</ele><time>2026-03-29T16:05:02.953Z</time></trkpt><trkpt lat="45.764111" lon="9.1746872"><ele>367.0</ele><time>2026-03-29T16:05:03.954Z</time></trkpt><trkpt lat="45.7642067" lon="9.174836"><ele>367.0</ele><time>2026-03-29T16:05:04.952Z</time></trkpt><trkpt lat="45.7643127" lon="9.1749744"><ele>367.0</ele><time>2026-03-29T16:05:05.953Z</time></trkpt><trkpt lat="45.7644273" lon="9.1750925"><ele>366.0</ele><time>2026-03-29T16:05:06.953Z</time></trkpt><trkpt lat="45.7645508" lon="9.1751874"><ele>365.0</ele><time>2026-03-29T16:05:07.953Z</time></trkpt><trkpt lat="45.7646805" lon="9.1752417"><ele>364.0</ele><time>2026-03-29T16:05:08.954Z</time></trkpt><trkpt lat="45.7648199" lon="9.1752746"><ele>363.0</ele><time>2026-03-29T16:05:09.954Z</time></trkpt><trkpt lat="45.7649646" lon="9.1752795"><ele>363.0</ele><time>2026-03-29T16:05:10.953Z</time></trkpt><trkpt lat="45.7651098" lon="9.1752603"><ele>363.0</ele><time>2026-03-29T16:05:11.953Z</time></trkpt><trkpt lat="45.7652641" lon="9.1752481"><ele>363.0</ele><time>2026-03-29T16:05:12.954Z</time></trkpt><trkpt lat="45.7654258" lon="9.1752347"><ele>362.0</ele><time>2026-03-29T16:05:13.954Z</time></trkpt><trkpt lat="45.7655772" lon="9.1752364"><ele>361.0</ele><time>2026-03-29T16:05:14.954Z</time></trkpt><trkpt lat="45.7657243" lon="9.1752492"><ele>360.0</ele><time>2026-03-29T16:05:15.953Z</time></trkpt><trkpt lat="45.7658694" lon="9.1752796"><ele>359.0</ele><time>2026-03-29T16:05:16.954Z</time></trkpt><trkpt lat="45.7660025" lon="9.1753402"><ele>356.75</ele><time>2026-03-29T16:05:17.954Z</time></trkpt><trkpt lat="45.766126" lon="9.1754247"><ele>354.5</ele><time>2026-03-29T16:05:18.954Z</time></trkpt><trkpt lat="45.7662403" lon="9.1755267"><ele>352.25</ele><time>2026-03-29T16:05:19.952Z</time></trkpt><trkpt lat="45.7663451" lon="9.1756634"><ele>350.0</ele><time>2026-03-29T16:05:20.953Z</time></trkpt><trkpt lat="45.7664355" lon="9.1758149"><ele>349.0</ele><time>2026-03-29T16:05:21.953Z</time></trkpt><trkpt lat="45.7665112" lon="9.1759786"><ele>348.0</ele><time>2026-03-29T16:05:22.953Z</time></trkpt><trkpt lat="45.766581" lon="9.1761473"><ele>347.0</ele><time>2026-03-29T16:05:23.954Z</time></trkpt><trkpt lat="45.7666372" lon="9.1763369"><ele>346.0</ele><time>2026-03-29T16:05:24.953Z</time></trkpt><trkpt lat="45.7666947" lon="9.1765372"><ele>346.0</ele><time>2026-03-29T16:05:25.952Z</time></trkpt><trkpt lat="45.7667544" lon="9.1767529"><ele>346.0</ele><time>2026-03-29T16:05:26.954Z</time></trkpt><trkpt lat="45.7668126" lon="9.1769704"><ele>346.0</ele><time>2026-03-29T16:05:27.954Z</time></trkpt><trkpt lat="45.7668682" lon="9.1771777"><ele>346.75</ele><time>2026-03-29T16:05:28.954Z</time></trkpt><trkpt lat="45.7669232" lon="9.1773688"><ele>347.5</ele><time>2026-03-29T16:05:29.953Z</time></trkpt><trkpt lat="45.7669771" lon="9.1775545"><ele>348.25</ele><time>2026-03-29T16:05:30.952Z</time></trkpt><trkpt lat="45.7670242" lon="9.177744"><ele>349.0</ele><time>2026-03-29T16:05:31.953Z</time></trkpt><trkpt lat="45.7670733" lon="9.1779278"><ele>349.0</ele><time>2026-03-29T16:05:32.954Z</time></trkpt><trkpt lat="45.7671213" lon="9.1781076"><ele>349.0</ele><time>2026-03-29T16:05:33.953Z</time></trkpt><trkpt lat="45.7671652" lon="9.1782836"><ele>349.0</ele><time>2026-03-29T16:05:34.954Z</time></trkpt><trkpt lat="45.7672083" lon="9.1784546"><ele>349.0</ele><time>2026-03-29T16:05:35.952Z</time></trkpt><trkpt lat="45.7672526" lon="9.1786195"><ele>349.0</ele><time>2026-03-29T16:05:36.954Z</time></trkpt><trkpt lat="45.7672964" lon="9.1787831"><ele>349.0</ele><time>2026-03-29T16:05:37.953Z</time></trkpt><trkpt lat="45.7673425" lon="9.1789375"><ele>349.0</ele><time>2026-03-29T16:05:38.954Z</time></trkpt><trkpt lat="45.7673735" lon="9.1790766"><ele>349.0</ele><time>2026-03-29T16:05:39.953Z</time></trkpt><trkpt lat="45.7674027" lon="9.1792136"><ele>349.0</ele><time>2026-03-29T16:05:40.953Z</time></trkpt><trkpt lat="45.7674308" lon="9.1793548"><ele>349.2</ele><time>2026-03-29T16:05:41.953Z</time></trkpt><trkpt lat="45.7674689" lon="9.179496"><ele>349.4</ele><time>2026-03-29T16:05:42.954Z</time></trkpt><trkpt lat="45.7675224" lon="9.1796361"><ele>349.6</ele><time>2026-03-29T16:05:43.954Z</time></trkpt><trkpt lat="45.7675841" lon="9.179775"><ele>349.8</ele><time>2026-03-29T16:05:44.953Z</time></trkpt><trkpt lat="45.7676559" lon="9.1798992"><ele>350.0</ele><time>2026-03-29T16:05:45.954Z</time></trkpt><trkpt lat="45.767735" lon="9.1800095"><ele>350.6</ele><time>2026-03-29T16:05:46.953Z</time></trkpt><trkpt lat="45.7678136" lon="9.180112"><ele>351.2</ele><time>2026-03-29T16:05:47.953Z</time></trkpt><trkpt lat="45.767891" lon="9.180213"><ele>351.79999999999995</ele><time>2026-03-29T16:05:48.953Z</time></trkpt><trkpt lat="45.7679597" lon="9.1803116"><ele>352.4</ele><time>2026-03-29T16:05:49.953Z</time></trkpt><trkpt lat="45.7680272" lon="9.1804027"><ele>353.0</ele><time>2026-03-29T16:05:50.954Z</time></trkpt><trkpt lat="45.7680895" lon="9.1804873"><ele>353.0</ele><time>2026-03-29T16:05:51.954Z</time></trkpt><trkpt lat="45.7681473" lon="9.1805662"><ele>353.0</ele><time>2026-03-29T16:05:52.954Z</time></trkpt><trkpt lat="45.7682029" lon="9.1806405"><ele>353.0</ele><time>2026-03-29T16:05:53.953Z</time></trkpt><trkpt lat="45.7682604" lon="9.1807135"><ele>353.0</ele><time>2026-03-29T16:05:54.954Z</time></trkpt><trkpt lat="45.7683213" lon="9.180793"><ele>353.0</ele><time>2026-03-29T16:05:55.954Z</time></trkpt><trkpt lat="45.7683814" lon="9.1808744"><ele>353.0</ele><time>2026-03-29T16:05:56.953Z</time></trkpt><trkpt lat="45.7684435" lon="9.1809594"><ele>352.79999999999995</ele><time>2026-03-29T16:05:57.953Z</time></trkpt><trkpt lat="45.7685094" lon="9.1810515"><ele>352.6</ele><time>2026-03-29T16:05:58.954Z</time></trkpt><trkpt lat="45.7685818" lon="9.1811441"><ele>352.4</ele><time>2026-03-29T16:05:59.953Z</time></trkpt><trkpt lat="45.7686559" lon="9.1812407"><ele>352.20000000000005</ele><time>2026-03-29T16:06:00.953Z</time></trkpt><trkpt lat="45.7687266" lon="9.1813328"><ele>352.0</ele><time>2026-03-29T16:06:01.953Z</time></trkpt><trkpt lat="45.7687962" lon="9.1814196"><ele>352.0</ele><time>2026-03-29T16:06:02.953Z</time></trkpt><trkpt lat="45.7688583" lon="9.1815002"><ele>352.0</ele><time>2026-03-29T16:06:03.954Z</time></trkpt><trkpt lat="45.7689167" lon="9.1815719"><ele>352.0</ele><time>2026-03-29T16:06:04.953Z</time></trkpt><trkpt lat="45.7689689" lon="9.1816362"><ele>352.0</ele><time>2026-03-29T16:06:05.952Z</time></trkpt><trkpt lat="45.7690193" lon="9.1817031"><ele>352.0</ele><time>2026-03-29T16:06:06.953Z</time></trkpt><trkpt lat="45.7690723" lon="9.1817731"><ele>352.0</ele><time>2026-03-29T16:06:07.953Z</time></trkpt><trkpt lat="45.7691204" lon="9.181841"><ele>352.0</ele><time>2026-03-29T16:06:08.954Z</time></trkpt><trkpt lat="45.7691729" lon="9.1819159"><ele>352.16666666666663</ele><time>2026-03-29T16:06:09.954Z</time></trkpt><trkpt lat="45.7692221" lon="9.1819942"><ele>352.3333333333333</ele><time>2026-03-29T16:06:10.953Z</time></trkpt><trkpt lat="45.7692681" lon="9.182063"><ele>352.5</ele><time>2026-03-29T16:06:11.952Z</time></trkpt><trkpt lat="45.7693373" lon="9.1821686"><ele>352.6666666666667</ele><time>2026-03-29T16:06:13.954Z</time></trkpt><trkpt lat="45.7693961" lon="9.1822643"><ele>352.83333333333337</ele><time>2026-03-29T16:06:16.953Z</time></trkpt><trkpt lat="45.7694358" lon="9.1823453"><ele>353.0</ele><time>2026-03-29T16:06:19.954Z</time></trkpt><trkpt lat="45.7694622" lon="9.1824765"><ele>353.59999999999997</ele><time>2026-03-29T16:06:21.954Z</time></trkpt><trkpt lat="45.7694773" lon="9.1825976"><ele>354.2</ele><time>2026-03-29T16:06:23.953Z</time></trkpt><trkpt lat="45.7695141" lon="9.1827217"><ele>354.8</ele><time>2026-03-29T16:06:25.954Z</time></trkpt><trkpt lat="45.7695981" lon="9.1827974"><ele>355.4</ele><time>2026-03-29T16:06:27.953Z</time></trkpt><trkpt lat="45.7697334" lon="9.1828242"><ele>356.0</ele><time>2026-03-29T16:06:29.954Z</time></trkpt><trkpt lat="45.7698111" lon="9.182861"><ele>356.0</ele><time>2026-03-29T16:06:30.953Z</time></trkpt><trkpt lat="45.7698973" lon="9.1829139"><ele>356.0</ele><time>2026-03-29T16:06:31.954Z</time></trkpt><trkpt lat="45.7699974" lon="9.1829794"><ele>356.0</ele><time>2026-03-29T16:06:32.953Z</time></trkpt><trkpt lat="45.7700926" lon="9.1830472"><ele>356.0</ele><time>2026-03-29T16:06:33.954Z</time></trkpt><trkpt lat="45.7701889" lon="9.1831157"><ele>356.0</ele><time>2026-03-29T16:06:34.954Z</time></trkpt><trkpt lat="45.7702958" lon="9.1831914"><ele>356.5</ele><time>2026-03-29T16:06:35.954Z</time></trkpt><trkpt lat="45.7704059" lon="9.183275"><ele>357.0</ele><time>2026-03-29T16:06:36.954Z</time></trkpt><trkpt lat="45.7705229" lon="9.1833624"><ele>357.5</ele><time>2026-03-29T16:06:37.953Z</time></trkpt><trkpt lat="45.7706501" lon="9.1834521"><ele>358.0</ele><time>2026-03-29T16:06:38.954Z</time></trkpt><trkpt lat="45.7707625" lon="9.1835332"><ele>358.0</ele><time>2026-03-29T16:06:39.952Z</time></trkpt><trkpt lat="45.7708872" lon="9.1836235"><ele>358.0</ele><time>2026-03-29T16:06:40.953Z</time></trkpt><trkpt lat="45.7710179" lon="9.1837217"><ele>358.0</ele><time>2026-03-29T16:06:41.952Z</time></trkpt><trkpt lat="45.7711504" lon="9.1838205"><ele>358.0</ele><time>2026-03-29T16:06:42.953Z</time></trkpt><trkpt lat="45.7712866" lon="9.183919"><ele>360.3333333333333</ele><time>2026-03-29T16:06:43.952Z</time></trkpt><trkpt lat="45.7714239" lon="9.1840237"><ele>362.6666666666667</ele><time>2026-03-29T16:06:44.954Z</time></trkpt><trkpt lat="45.7715587" lon="9.1841246"><ele>365.0</ele><time>2026-03-29T16:06:45.954Z</time></trkpt><trkpt lat="45.7716949" lon="9.1842255"><ele>365.0</ele><time>2026-03-29T16:06:46.953Z</time></trkpt><trkpt lat="45.7718329" lon="9.1843273"><ele>365.0</ele><time>2026-03-29T16:06:47.954Z</time></trkpt><trkpt lat="45.7719759" lon="9.1844265"><ele>365.0</ele><time>2026-03-29T16:06:48.953Z</time></trkpt><trkpt lat="45.7721239" lon="9.1845156"><ele>365.0</ele><time>2026-03-29T16:06:49.954Z</time></trkpt><trkpt lat="45.7722889" lon="9.1845806"><ele>365.0</ele><time>2026-03-29T16:06:50.953Z</time></trkpt><trkpt lat="45.7724621" lon="9.1846241"><ele>365.0</ele><time>2026-03-29T16:06:51.953Z</time></trkpt><trkpt lat="45.7726358" lon="9.1846479"><ele>365.6666666666667</ele><time>2026-03-29T16:06:52.954Z</time></trkpt><trkpt lat="45.7727979" lon="9.1846619"><ele>366.3333333333333</ele><time>2026-03-29T16:06:53.954Z</time></trkpt><trkpt lat="45.7729625" lon="9.1846715"><ele>367.0</ele><time>2026-03-29T16:06:54.954Z</time></trkpt><trkpt lat="45.7731276" lon="9.184682"><ele>367.0</ele><time>2026-03-29T16:06:55.954Z</time></trkpt><trkpt lat="45.7732947" lon="9.1846904"><ele>367.0</ele><time>2026-03-29T16:06:56.953Z</time></trkpt><trkpt lat="45.773463" lon="9.1846968"><ele>367.0</ele><time>2026-03-29T16:06:57.954Z</time></trkpt><trkpt lat="45.7736328" lon="9.1847056"><ele>369.66666666666663</ele><time>2026-03-29T16:06:58.954Z</time></trkpt><trkpt lat="45.7738042" lon="9.1847259"><ele>372.3333333333333</ele><time>2026-03-29T16:06:59.953Z</time></trkpt><trkpt lat="45.7739742" lon="9.1847856"><ele>375.0</ele><time>2026-03-29T16:07:00.954Z</time></trkpt><trkpt lat="45.7741346" lon="9.1848888"><ele>375.0</ele><time>2026-03-29T16:07:01.953Z</time></trkpt><trkpt lat="45.7742844" lon="9.1850283"><ele>375.0</ele><time>2026-03-29T16:07:02.953Z</time></trkpt><trkpt lat="45.774413" lon="9.1852033"><ele>375.0</ele><time>2026-03-29T16:07:03.953Z</time></trkpt><trkpt lat="45.7745272" lon="9.1854023"><ele>378.66666666666663</ele><time>2026-03-29T16:07:04.953Z</time></trkpt><trkpt lat="45.7746298" lon="9.1856053"><ele>382.3333333333333</ele><time>2026-03-29T16:07:05.953Z</time></trkpt><trkpt lat="45.7747289" lon="9.1857964"><ele>386.0</ele><time>2026-03-29T16:07:06.952Z</time></trkpt><trkpt lat="45.774834" lon="9.1859716"><ele>386.0</ele><time>2026-03-29T16:07:07.953Z</time></trkpt><trkpt lat="45.7749508" lon="9.1861272"><ele>386.0</ele><time>2026-03-29T16:07:08.954Z</time></trkpt><trkpt lat="45.7750798" lon="9.1862542"><ele>386.0</ele><time>2026-03-29T16:07:09.954Z</time></trkpt><trkpt lat="45.7752043" lon="9.1863513"><ele>385.5</ele><time>2026-03-29T16:07:10.954Z</time></trkpt><trkpt lat="45.7753324" lon="9.1864102"><ele>385.0</ele><time>2026-03-29T16:07:11.954Z</time></trkpt><trkpt lat="45.775473" lon="9.186439"><ele>384.5</ele><time>2026-03-29T16:07:12.953Z</time></trkpt><trkpt lat="45.7755958" lon="9.1864212"><ele>384.0</ele><time>2026-03-29T16:07:13.953Z</time></trkpt><trkpt lat="45.7758222" lon="9.1863016"><ele>384.0</ele><time>2026-03-29T16:07:14.954Z</time></trkpt><trkpt lat="45.7759945" lon="9.1862035"><ele>384.0</ele><time>2026-03-29T16:07:15.953Z</time></trkpt><trkpt lat="45.776175" lon="9.1861065"><ele>384.0</ele><time>2026-03-29T16:07:16.953Z</time></trkpt><trkpt lat="45.7763507" lon="9.1860094"><ele>380.0</ele><time>2026-03-29T16:07:17.953Z</time></trkpt><trkpt lat="45.7765235" lon="9.1859026"><ele>376.0</ele><time>2026-03-29T16:07:18.954Z</time></trkpt><trkpt lat="45.7766915" lon="9.1858048"><ele>372.0</ele><time>2026-03-29T16:07:19.954Z</time></trkpt><trkpt lat="45.7768491" lon="9.1857229"><ele>372.3333333333333</ele><time>2026-03-29T16:07:20.954Z</time></trkpt><trkpt lat="45.7770025" lon="9.1856442"><ele>372.66666666666663</ele><time>2026-03-29T16:07:21.954Z</time></trkpt><trkpt lat="45.7771499" lon="9.1855783"><ele>373.0</ele><time>2026-03-29T16:07:22.953Z</time></trkpt><trkpt lat="45.7772889" lon="9.1855366"><ele>373.0</ele><time>2026-03-29T16:07:23.952Z</time></trkpt><trkpt lat="45.7774241" lon="9.185526"><ele>373.0</ele><time>2026-03-29T16:07:24.954Z</time></trkpt><trkpt lat="45.777552" lon="9.1855295"><ele>373.0</ele><time>2026-03-29T16:07:25.954Z</time></trkpt><trkpt lat="45.7776652" lon="9.1855435"><ele>373.0</ele><time>2026-03-29T16:07:26.953Z</time></trkpt><trkpt lat="45.7777657" lon="9.1855605"><ele>373.0</ele><time>2026-03-29T16:07:27.954Z</time></trkpt><trkpt lat="45.7778508" lon="9.1855891"><ele>373.0</ele><time>2026-03-29T16:07:28.953Z</time></trkpt><trkpt lat="45.777936" lon="9.1856381"><ele>373.0</ele><time>2026-03-29T16:07:29.952Z</time></trkpt><trkpt lat="45.7780245" lon="9.1856921"><ele>373.0</ele><time>2026-03-29T16:07:30.952Z</time></trkpt><trkpt lat="45.7781536" lon="9.1856673"><ele>373.0</ele><time>2026-03-29T16:07:31.953Z</time></trkpt><trkpt lat="45.7782591" lon="9.1856867"><ele>372.59999999999997</ele><time>2026-03-29T16:07:32.953Z</time></trkpt><trkpt lat="45.7783653" lon="9.185709"><ele>372.2</ele><time>2026-03-29T16:07:33.954Z</time></trkpt><trkpt lat="45.77847" lon="9.185752"><ele>371.8</ele><time>2026-03-29T16:07:34.954Z</time></trkpt><trkpt lat="45.7785757" lon="9.1858151"><ele>371.4</ele><time>2026-03-29T16:07:35.952Z</time></trkpt><trkpt lat="45.7786738" lon="9.1858914"><ele>371.0</ele><time>2026-03-29T16:07:36.953Z</time></trkpt><trkpt lat="45.7787624" lon="9.1859795"><ele>371.0</ele><time>2026-03-29T16:07:37.954Z</time></trkpt><trkpt lat="45.7788479" lon="9.1860688"><ele>371.0</ele><time>2026-03-29T16:07:38.953Z</time></trkpt><trkpt lat="45.7789275" lon="9.186162"><ele>371.0</ele><time>2026-03-29T16:07:39.954Z</time></trkpt><trkpt lat="45.779011" lon="9.1862516"><ele>371.0</ele><time>2026-03-29T16:07:40.954Z</time></trkpt><trkpt lat="45.7790924" lon="9.1863473"><ele>371.0</ele><time>2026-03-29T16:07:41.952Z</time></trkpt><trkpt lat="45.7791671" lon="9.1864349"><ele>370.8</ele><time>2026-03-29T16:07:42.954Z</time></trkpt><trkpt lat="45.779237" lon="9.1865176"><ele>370.6</ele><time>2026-03-29T16:07:43.953Z</time></trkpt><trkpt lat="45.7793048" lon="9.1866006"><ele>370.4</ele><time>2026-03-29T16:07:44.953Z</time></trkpt><trkpt lat="45.779374" lon="9.186692"><ele>370.2</ele><time>2026-03-29T16:07:45.954Z</time></trkpt><trkpt lat="45.7794434" lon="9.1867879"><ele>370.0</ele><time>2026-03-29T16:07:46.954Z</time></trkpt><trkpt lat="45.7795107" lon="9.1868868"><ele>370.0</ele><time>2026-03-29T16:07:47.954Z</time></trkpt><trkpt lat="45.7795744" lon="9.1870018"><ele>370.0</ele><time>2026-03-29T16:07:48.952Z</time></trkpt><trkpt lat="45.7796388" lon="9.1871212"><ele>370.0</ele><time>2026-03-29T16:07:49.954Z</time></trkpt><trkpt lat="45.7797081" lon="9.1872414"><ele>370.0</ele><time>2026-03-29T16:07:50.954Z</time></trkpt><trkpt lat="45.7797834" lon="9.1873592"><ele>370.0</ele><time>2026-03-29T16:07:51.953Z</time></trkpt><trkpt lat="45.7798623" lon="9.1874669"><ele>369.5</ele><time>2026-03-29T16:07:52.953Z</time></trkpt><trkpt lat="45.7799485" lon="9.1875751"><ele>369.0</ele><time>2026-03-29T16:07:53.954Z</time></trkpt><trkpt lat="45.780042" lon="9.1876803"><ele>368.5</ele><time>2026-03-29T16:07:54.954Z</time></trkpt><trkpt lat="45.7801322" lon="9.1877845"><ele>368.0</ele><time>2026-03-29T16:07:55.954Z</time></trkpt><trkpt lat="45.7802264" lon="9.1878868"><ele>368.0</ele><time>2026-03-29T16:07:56.953Z</time></trkpt><trkpt lat="45.780304" lon="9.1879746"><ele>368.0</ele><time>2026-03-29T16:07:57.954Z</time></trkpt><trkpt lat="45.7803865" lon="9.1880634"><ele>368.0</ele><time>2026-03-29T16:07:58.954Z</time></trkpt><trkpt lat="45.7804635" lon="9.1881482"><ele>368.0</ele><time>2026-03-29T16:07:59.954Z</time></trkpt><trkpt lat="45.7805371" lon="9.1882314"><ele>368.0</ele><time>2026-03-29T16:08:00.953Z</time></trkpt><trkpt lat="45.7806121" lon="9.1883162"><ele>368.59999999999997</ele><time>2026-03-29T16:08:01.954Z</time></trkpt><trkpt lat="45.7806949" lon="9.1884013"><ele>369.2</ele><time>2026-03-29T16:08:02.953Z</time></trkpt><trkpt lat="45.7807702" lon="9.1884883"><ele>369.8</ele><time>2026-03-29T16:08:03.953Z</time></trkpt><trkpt lat="45.780861" lon="9.1885908"><ele>370.4</ele><time>2026-03-29T16:08:04.953Z</time></trkpt><trkpt lat="45.7809438" lon="9.1886917"><ele>371.0</ele><time>2026-03-29T16:08:05.952Z</time></trkpt><trkpt lat="45.7810313" lon="9.1887921"><ele>371.0</ele><time>2026-03-29T16:08:06.952Z</time></trkpt><trkpt lat="45.7811148" lon="9.1888892"><ele>371.0</ele><time>2026-03-29T16:08:07.952Z</time></trkpt><trkpt lat="45.7811971" lon="9.1889836"><ele>371.0</ele><time>2026-03-29T16:08:08.952Z</time></trkpt><trkpt lat="45.7812747" lon="9.1890731"><ele>371.0</ele><time>2026-03-29T16:08:09.951Z</time></trkpt><trkpt lat="45.7813453" lon="9.1891613"><ele>371.0</ele><time>2026-03-29T16:08:10.952Z</time></trkpt><trkpt lat="45.7814171" lon="9.1892533"><ele>369.6</ele><time>2026-03-29T16:08:11.952Z</time></trkpt><trkpt lat="45.7814947" lon="9.1893431"><ele>368.20000000000005</ele><time>2026-03-29T16:08:12.952Z</time></trkpt><trkpt lat="45.7815737" lon="9.1894326"><ele>366.79999999999995</ele><time>2026-03-29T16:08:13.952Z</time></trkpt><trkpt lat="45.7816579" lon="9.1895238"><ele>365.4</ele><time>2026-03-29T16:08:14.953Z</time></trkpt><trkpt lat="45.7817461" lon="9.1896079"><ele>364.0</ele><time>2026-03-29T16:08:15.952Z</time></trkpt><trkpt lat="45.7818409" lon="9.189695"><ele>363.25</ele><time>2026-03-29T16:08:16.952Z</time></trkpt><trkpt lat="45.781941" lon="9.1897865"><ele>362.5</ele><time>2026-03-29T16:08:17.953Z</time></trkpt><trkpt lat="45.7820468" lon="9.1898826"><ele>361.75</ele><time>2026-03-29T16:08:18.953Z</time></trkpt><trkpt lat="45.7821599" lon="9.189982"><ele>361.0</ele><time>2026-03-29T16:08:19.952Z</time></trkpt><trkpt lat="45.7822782" lon="9.1900875"><ele>361.0</ele><time>2026-03-29T16:08:20.953Z</time></trkpt><trkpt lat="45.782402" lon="9.1901962"><ele>361.0</ele><time>2026-03-29T16:08:21.952Z</time></trkpt><trkpt lat="45.7825299" lon="9.1903101"><ele>361.0</ele><time>2026-03-29T16:08:22.953Z</time></trkpt><trkpt lat="45.7826537" lon="9.1904195"><ele>361.0</ele><time>2026-03-29T16:08:23.953Z</time></trkpt><trkpt lat="45.7827718" lon="9.1905238"><ele>361.25</ele><time>2026-03-29T16:08:24.952Z</time></trkpt><trkpt lat="45.7828797" lon="9.1906206"><ele>361.5</ele><time>2026-03-29T16:08:25.953Z</time></trkpt><trkpt lat="45.7829824" lon="9.1907203"><ele>361.75</ele><time>2026-03-29T16:08:26.952Z</time></trkpt><trkpt lat="45.7830912" lon="9.1908187"><ele>362.0</ele><time>2026-03-29T16:08:27.952Z</time></trkpt><trkpt lat="45.7831923" lon="9.1909083"><ele>360.8</ele><time>2026-03-29T16:08:28.953Z</time></trkpt><trkpt lat="45.7832846" lon="9.1909911"><ele>359.6</ele><time>2026-03-29T16:08:29.953Z</time></trkpt><trkpt lat="45.7833685" lon="9.1910705"><ele>358.40000000000003</ele><time>2026-03-29T16:08:30.952Z</time></trkpt><trkpt lat="45.7834437" lon="9.1911507"><ele>357.20000000000005</ele><time>2026-03-29T16:08:31.952Z</time></trkpt><trkpt lat="45.7835074" lon="9.1912373"><ele>356.0</ele><time>2026-03-29T16:08:32.953Z</time></trkpt><trkpt lat="45.783558" lon="9.191336"><ele>355.33333333333337</ele><time>2026-03-29T16:08:33.952Z</time></trkpt><trkpt lat="45.783595" lon="9.1914397"><ele>354.6666666666667</ele><time>2026-03-29T16:08:34.952Z</time></trkpt><trkpt lat="45.783636" lon="9.1915416"><ele>354.0</ele><time>2026-03-29T16:08:35.953Z</time></trkpt><trkpt lat="45.7837023" lon="9.1916136"><ele>353.3333333333333</ele><time>2026-03-29T16:08:36.952Z</time></trkpt><trkpt lat="45.7837886" lon="9.1916525"><ele>352.66666666666663</ele><time>2026-03-29T16:08:37.953Z</time></trkpt><trkpt lat="45.7838866" lon="9.1916768"><ele>352.0</ele><time>2026-03-29T16:08:38.952Z</time></trkpt><trkpt lat="45.7839843" lon="9.1917029"><ele>352.0</ele><time>2026-03-29T16:08:39.952Z</time></trkpt><trkpt lat="45.7840792" lon="9.1917443"><ele>352.0</ele><time>2026-03-29T16:08:40.953Z</time></trkpt><trkpt lat="45.7841718" lon="9.1918098"><ele>352.0</ele><time>2026-03-29T16:08:41.951Z</time></trkpt><trkpt lat="45.7842678" lon="9.1918915"><ele>352.0</ele><time>2026-03-29T16:08:42.953Z</time></trkpt><trkpt lat="45.7843709" lon="9.1919889"><ele>352.0</ele><time>2026-03-29T16:08:43.952Z</time></trkpt><trkpt lat="45.7844876" lon="9.1920937"><ele>352.0</ele><time>2026-03-29T16:08:44.952Z</time></trkpt><trkpt lat="45.7845964" lon="9.1921949"><ele>352.0</ele><time>2026-03-29T16:08:45.953Z</time></trkpt><trkpt lat="45.7846974" lon="9.1922956"><ele>352.0</ele><time>2026-03-29T16:08:46.953Z</time></trkpt><trkpt lat="45.7847941" lon="9.192388"><ele>352.0</ele><time>2026-03-29T16:08:47.953Z</time></trkpt><trkpt lat="45.7848837" lon="9.1924727"><ele>352.40000000000003</ele><time>2026-03-29T16:08:48.953Z</time></trkpt><trkpt lat="45.7849687" lon="9.1925534"><ele>352.8</ele><time>2026-03-29T16:08:49.953Z</time></trkpt><trkpt lat="45.7850551" lon="9.1926302"><ele>353.2</ele><time>2026-03-29T16:08:50.953Z</time></trkpt><trkpt lat="45.7851398" lon="9.192713"><ele>353.6</ele><time>2026-03-29T16:08:51.953Z</time></trkpt><trkpt lat="45.7852254" lon="9.1927904"><ele>354.0</ele><time>2026-03-29T16:08:52.952Z</time></trkpt><trkpt lat="45.7853037" lon="9.1928672"><ele>354.0</ele><time>2026-03-29T16:08:53.953Z</time></trkpt><trkpt lat="45.7853818" lon="9.1929408"><ele>354.0</ele><time>2026-03-29T16:08:54.953Z</time></trkpt><trkpt lat="45.7854568" lon="9.1930085"><ele>354.0</ele><time>2026-03-29T16:08:55.953Z</time></trkpt><trkpt lat="45.7855237" lon="9.1930691"><ele>354.0</ele><time>2026-03-29T16:08:56.952Z</time></trkpt><trkpt lat="45.7855911" lon="9.1931274"><ele>354.0</ele><time>2026-03-29T16:08:57.953Z</time></trkpt><trkpt lat="45.7856552" lon="9.1931862"><ele>354.0</ele><time>2026-03-29T16:08:58.953Z</time></trkpt><trkpt lat="45.7857192" lon="9.193254"><ele>354.1666666666667</ele><time>2026-03-29T16:08:59.953Z</time></trkpt><trkpt lat="45.7857896" lon="9.1933163"><ele>354.3333333333333</ele><time>2026-03-29T16:09:00.951Z</time></trkpt><trkpt lat="45.7858656" lon="9.1933815"><ele>354.5</ele><time>2026-03-29T16:09:01.952Z</time></trkpt><trkpt lat="45.7859381" lon="9.1934506"><ele>354.66666666666663</ele><time>2026-03-29T16:09:02.953Z</time></trkpt><trkpt lat="45.786009" lon="9.1935165"><ele>354.8333333333333</ele><time>2026-03-29T16:09:03.953Z</time></trkpt><trkpt lat="45.7860835" lon="9.1935815"><ele>355.0</ele><time>2026-03-29T16:09:04.953Z</time></trkpt><trkpt lat="45.7861608" lon="9.1936516"><ele>355.0</ele><time>2026-03-29T16:09:05.953Z</time></trkpt><trkpt lat="45.7862432" lon="9.1937262"><ele>355.0</ele><time>2026-03-29T16:09:06.953Z</time></trkpt><trkpt lat="45.786329" lon="9.1938052"><ele>355.0</ele><time>2026-03-29T16:09:07.953Z</time></trkpt><trkpt lat="45.7864151" lon="9.1938855"><ele>355.0</ele><time>2026-03-29T16:09:08.953Z</time></trkpt><trkpt lat="45.7864955" lon="9.193962"><ele>355.0</ele><time>2026-03-29T16:09:09.953Z</time></trkpt><trkpt lat="45.7865708" lon="9.1940344"><ele>354.3333333333333</ele><time>2026-03-29T16:09:10.951Z</time></trkpt><trkpt lat="45.7866398" lon="9.1941038"><ele>353.66666666666663</ele><time>2026-03-29T16:09:11.953Z</time></trkpt><trkpt lat="45.7867099" lon="9.1941642"><ele>353.0</ele><time>2026-03-29T16:09:12.953Z</time></trkpt><trkpt lat="45.7867764" lon="9.1942207"><ele>352.3333333333333</ele><time>2026-03-29T16:09:13.953Z</time></trkpt><trkpt lat="45.7868441" lon="9.1942796"><ele>351.6666666666667</ele><time>2026-03-29T16:09:14.952Z</time></trkpt><trkpt lat="45.7869113" lon="9.1943414"><ele>351.0</ele><time>2026-03-29T16:09:15.952Z</time></trkpt><trkpt lat="45.7869841" lon="9.1944062"><ele>351.0</ele><time>2026-03-29T16:09:16.952Z</time></trkpt><trkpt lat="45.7870596" lon="9.1944824"><ele>351.0</ele><time>2026-03-29T16:09:17.952Z</time></trkpt><trkpt lat="45.7871371" lon="9.1945604"><ele>351.0</ele><time>2026-03-29T16:09:18.952Z</time></trkpt><trkpt lat="45.7872129" lon="9.1946441"><ele>351.0</ele><time>2026-03-29T16:09:19.952Z</time></trkpt><trkpt lat="45.787287" lon="9.194731"><ele>351.0</ele><time>2026-03-29T16:09:20.953Z</time></trkpt><trkpt lat="45.7873558" lon="9.1948334"><ele>349.0</ele><time>2026-03-29T16:09:21.952Z</time></trkpt><trkpt lat="45.7874153" lon="9.194941"><ele>347.0</ele><time>2026-03-29T16:09:22.951Z</time></trkpt><trkpt lat="45.7874654" lon="9.1950658"><ele>345.0</ele><time>2026-03-29T16:09:23.952Z</time></trkpt><trkpt lat="45.7875052" lon="9.1951912"><ele>343.0</ele><time>2026-03-29T16:09:24.952Z</time></trkpt><trkpt lat="45.7875283" lon="9.1953244"><ele>341.0</ele><time>2026-03-29T16:09:25.953Z</time></trkpt><trkpt lat="45.7875382" lon="9.1954656"><ele>341.0</ele><time>2026-03-29T16:09:26.952Z</time></trkpt><trkpt lat="45.7875394" lon="9.1955963"><ele>341.0</ele><time>2026-03-29T16:09:27.952Z</time></trkpt><trkpt lat="45.7875378" lon="9.195708"><ele>341.0</ele><time>2026-03-29T16:09:28.953Z</time></trkpt><trkpt lat="45.7875341" lon="9.1957985"><ele>341.0</ele><time>2026-03-29T16:09:29.953Z</time></trkpt><trkpt lat="45.7875328" lon="9.1959197"><ele>341.0</ele><time>2026-03-29T16:09:31.953Z</time></trkpt><trkpt lat="45.7875393" lon="9.1960156"><ele>341.0</ele><time>2026-03-29T16:09:33.953Z</time></trkpt><trkpt lat="45.7875362" lon="9.1961191"><ele>340.1666666666667</ele><time>2026-03-29T16:09:35.953Z</time></trkpt><trkpt lat="45.7875253" lon="9.196216"><ele>339.33333333333337</ele><time>2026-03-29T16:09:37.952Z</time></trkpt><trkpt lat="45.7875087" lon="9.1963257"><ele>338.5</ele><time>2026-03-29T16:09:40.953Z</time></trkpt><trkpt lat="45.7875355" lon="9.1964944"><ele>337.6666666666667</ele><time>2026-03-29T16:10:11.952Z</time></trkpt><trkpt lat="45.7875938" lon="9.1965678"><ele>336.8333333333333</ele><time>2026-03-29T16:10:12.952Z</time></trkpt><trkpt lat="45.7876593" lon="9.1966145"><ele>336.0</ele><time>2026-03-29T16:10:13.953Z</time></trkpt><trkpt lat="45.7877296" lon="9.1966504"><ele>335.4</ele><time>2026-03-29T16:10:14.953Z</time></trkpt><trkpt lat="45.7878031" lon="9.1966985"><ele>334.8</ele><time>2026-03-29T16:10:15.952Z</time></trkpt><trkpt lat="45.7878872" lon="9.1967555"><ele>334.2</ele><time>2026-03-29T16:10:16.952Z</time></trkpt><trkpt lat="45.7879756" lon="9.1968153"><ele>333.59999999999997</ele><time>2026-03-29T16:10:17.952Z</time></trkpt><trkpt lat="45.7880722" lon="9.1968788"><ele>333.0</ele><time>2026-03-29T16:10:18.953Z</time></trkpt><trkpt lat="45.7881663" lon="9.1969553"><ele>333.0</ele><time>2026-03-29T16:10:19.953Z</time></trkpt><trkpt lat="45.7882613" lon="9.1970111"><ele>333.0</ele><time>2026-03-29T16:10:20.953Z</time></trkpt><trkpt lat="45.7883677" lon="9.1970669"><ele>333.0</ele><time>2026-03-29T16:10:21.953Z</time></trkpt><trkpt lat="45.7884817" lon="9.1971167"><ele>333.0</ele><time>2026-03-29T16:10:22.953Z</time></trkpt><trkpt lat="45.7886042" lon="9.1971633"><ele>334.25</ele><time>2026-03-29T16:10:23.952Z</time></trkpt><trkpt lat="45.788733" lon="9.1972062"><ele>335.5</ele><time>2026-03-29T16:10:24.952Z</time></trkpt><trkpt lat="45.7888529" lon="9.1972495"><ele>336.75</ele><time>2026-03-29T16:10:25.952Z</time></trkpt><trkpt lat="45.788966" lon="9.1972901"><ele>338.0</ele><time>2026-03-29T16:10:26.952Z</time></trkpt><trkpt lat="45.7890772" lon="9.1973299"><ele>338.2</ele><time>2026-03-29T16:10:27.951Z</time></trkpt><trkpt lat="45.7891874" lon="9.1973649"><ele>338.4</ele><time>2026-03-29T16:10:28.951Z</time></trkpt><trkpt lat="45.789295" lon="9.1973978"><ele>338.59999999999997</ele><time>2026-03-29T16:10:29.953Z</time></trkpt><trkpt lat="45.7893964" lon="9.1974257"><ele>338.79999999999995</ele><time>2026-03-29T16:10:30.953Z</time></trkpt><trkpt lat="45.789492" lon="9.1974485"><ele>339.0</ele><time>2026-03-29T16:10:31.953Z</time></trkpt><trkpt lat="45.7895767" lon="9.1974758"><ele>338.7142857142857</ele><time>2026-03-29T16:10:32.952Z</time></trkpt><trkpt lat="45.7896571" lon="9.1974958"><ele>338.42857142857144</ele><time>2026-03-29T16:10:33.953Z</time></trkpt><trkpt lat="45.7897312" lon="9.197517"><ele>338.14285714285717</ele><time>2026-03-29T16:10:34.953Z</time></trkpt><trkpt lat="45.7897999" lon="9.1975404"><ele>337.8571428571429</ele><time>2026-03-29T16:10:35.953Z</time></trkpt><trkpt lat="45.7898714" lon="9.1975604"><ele>337.57142857142856</ele><time>2026-03-29T16:10:36.953Z</time></trkpt><trkpt lat="45.7899474" lon="9.1975805"><ele>337.28571428571433</ele><time>2026-03-29T16:10:37.951Z</time></trkpt><trkpt lat="45.7900158" lon="9.1975988"><ele>337.0</ele><time>2026-03-29T16:10:38.951Z</time></trkpt><trkpt lat="45.7900778" lon="9.197622"><ele>337.0</ele><time>2026-03-29T16:10:40.953Z</time></trkpt><trkpt lat="45.790147" lon="9.197628"><ele>337.0</ele><time>2026-03-29T16:10:45.953Z</time></trkpt><trkpt lat="45.7902321" lon="9.1976555"><ele>337.0</ele><time>2026-03-29T16:10:53.952Z</time></trkpt><trkpt lat="45.7903067" lon="9.1976898"><ele>337.0</ele><time>2026-03-29T16:10:55.953Z</time></trkpt><trkpt lat="45.7903924" lon="9.1977213"><ele>337.0</ele><time>2026-03-29T16:10:57.953Z</time></trkpt><trkpt lat="45.7904757" lon="9.1977527"><ele>337.0</ele><time>2026-03-29T16:10:59.953Z</time></trkpt><trkpt lat="45.790557" lon="9.1977917"><ele>337.16666666666663</ele><time>2026-03-29T16:11:01.953Z</time></trkpt><trkpt lat="45.7906272" lon="9.1978084"><ele>337.3333333333333</ele><time>2026-03-29T16:11:02.953Z</time></trkpt><trkpt lat="45.7907452" lon="9.1978216"><ele>337.5</ele><time>2026-03-29T16:11:04.953Z</time></trkpt><trkpt lat="45.7908149" lon="9.1978406"><ele>337.6666666666667</ele><time>2026-03-29T16:11:05.953Z</time></trkpt><trkpt lat="45.7908933" lon="9.1978627"><ele>337.83333333333337</ele><time>2026-03-29T16:11:06.952Z</time></trkpt><trkpt lat="45.7909839" lon="9.1978852"><ele>338.0</ele><time>2026-03-29T16:11:07.952Z</time></trkpt><trkpt lat="45.7910775" lon="9.1979084"><ele>338.0</ele><time>2026-03-29T16:11:08.953Z</time></trkpt><trkpt lat="45.7911689" lon="9.1979304"><ele>338.0</ele><time>2026-03-29T16:11:09.953Z</time></trkpt><trkpt lat="45.7912623" lon="9.19795"><ele>338.0</ele><time>2026-03-29T16:11:10.953Z</time></trkpt><trkpt lat="45.7913609" lon="9.1979629"><ele>338.0</ele><time>2026-03-29T16:11:11.953Z</time></trkpt><trkpt lat="45.791469" lon="9.1979812"><ele>338.0</ele><time>2026-03-29T16:11:12.953Z</time></trkpt><trkpt lat="45.7915956" lon="9.1979952"><ele>338.0</ele><time>2026-03-29T16:11:13.953Z</time></trkpt><trkpt lat="45.7917142" lon="9.1980085"><ele>338.0</ele><time>2026-03-29T16:11:14.953Z</time></trkpt><trkpt lat="45.7918284" lon="9.1980191"><ele>338.0</ele><time>2026-03-29T16:11:15.952Z</time></trkpt><trkpt lat="45.791951" lon="9.1980254"><ele>338.0</ele><time>2026-03-29T16:11:16.952Z</time></trkpt><trkpt lat="45.7920703" lon="9.1980332"><ele>338.25</ele><time>2026-03-29T16:11:17.95Z</time></trkpt><trkpt lat="45.7921909" lon="9.198038"><ele>338.5</ele><time>2026-03-29T16:11:18.951Z</time></trkpt><trkpt lat="45.7923135" lon="9.1980486"><ele>338.75</ele><time>2026-03-29T16:11:19.952Z</time></trkpt><trkpt lat="45.7924391" lon="9.1980639"><ele>339.0</ele><time>2026-03-29T16:11:20.951Z</time></trkpt><trkpt lat="45.7925619" lon="9.1980883"><ele>339.0</ele><time>2026-03-29T16:11:21.952Z</time></trkpt><trkpt lat="45.7926879" lon="9.1981166"><ele>339.0</ele><time>2026-03-29T16:11:22.952Z</time></trkpt><trkpt lat="45.7928139" lon="9.1981508"><ele>339.0</ele><time>2026-03-29T16:11:23.952Z</time></trkpt><trkpt lat="45.7929411" lon="9.198188"><ele>339.0</ele><time>2026-03-29T16:11:24.951Z</time></trkpt><trkpt lat="45.7930677" lon="9.1982279"><ele>338.5</ele><time>2026-03-29T16:11:25.951Z</time></trkpt><trkpt lat="45.7931943" lon="9.1982662"><ele>338.0</ele><time>2026-03-29T16:11:26.951Z</time></trkpt><trkpt lat="45.7933122" lon="9.1983066"><ele>337.5</ele><time>2026-03-29T16:11:27.952Z</time></trkpt><trkpt lat="45.7934289" lon="9.1983492"><ele>337.0</ele><time>2026-03-29T16:11:28.951Z</time></trkpt><trkpt lat="45.7935481" lon="9.1984062"><ele>337.0</ele><time>2026-03-29T16:11:29.951Z</time></trkpt><trkpt lat="45.7936605" lon="9.1984753"><ele>337.0</ele><time>2026-03-29T16:11:30.952Z</time></trkpt><trkpt lat="45.7937654" lon="9.1985657"><ele>337.0</ele><time>2026-03-29T16:11:31.952Z</time></trkpt><trkpt lat="45.7938622" lon="9.1986711"><ele>337.0</ele><time>2026-03-29T16:11:32.95Z</time></trkpt><trkpt lat="45.7939574" lon="9.1987967"><ele>337.0</ele><time>2026-03-29T16:11:33.951Z</time></trkpt><trkpt lat="45.7940439" lon="9.1989389"><ele>337.0</ele><time>2026-03-29T16:11:34.951Z</time></trkpt><trkpt lat="45.7941276" lon="9.1990874"><ele>337.0</ele><time>2026-03-29T16:11:35.95Z</time></trkpt><trkpt lat="45.7942149" lon="9.1992478"><ele>337.0</ele><time>2026-03-29T16:11:36.951Z</time></trkpt><trkpt lat="45.7943021" lon="9.1994119"><ele>336.5</ele><time>2026-03-29T16:11:37.951Z</time></trkpt><trkpt lat="45.7943899" lon="9.199582"><ele>336.0</ele><time>2026-03-29T16:11:38.952Z</time></trkpt><trkpt lat="45.7944732" lon="9.1997438"><ele>335.5</ele><time>2026-03-29T16:11:39.951Z</time></trkpt><trkpt lat="45.7945482" lon="9.1998936"><ele>335.0</ele><time>2026-03-29T16:11:40.952Z</time></trkpt><trkpt lat="45.7946257" lon="9.2000417"><ele>334.75</ele><time>2026-03-29T16:11:41.952Z</time></trkpt><trkpt lat="45.7947014" lon="9.2001851"><ele>334.5</ele><time>2026-03-29T16:11:42.952Z</time></trkpt><trkpt lat="45.7947763" lon="9.2003265"><ele>334.25</ele><time>2026-03-29T16:11:43.951Z</time></trkpt><trkpt lat="45.7948466" lon="9.2004672"><ele>334.0</ele><time>2026-03-29T16:11:44.952Z</time></trkpt><trkpt lat="45.7949263" lon="9.2005966"><ele>335.0</ele><time>2026-03-29T16:11:45.952Z</time></trkpt><trkpt lat="45.7950251" lon="9.2007038"><ele>336.0</ele><time>2026-03-29T16:11:46.951Z</time></trkpt><trkpt lat="45.7951408" lon="9.2007826"><ele>337.0</ele><time>2026-03-29T16:11:47.951Z</time></trkpt><trkpt lat="45.7952599" lon="9.2008453"><ele>338.0</ele><time>2026-03-29T16:11:48.951Z</time></trkpt><trkpt lat="45.7953714" lon="9.2008832"><ele>338.33333333333337</ele><time>2026-03-29T16:11:49.951Z</time></trkpt><trkpt lat="45.7954749" lon="9.2009177"><ele>338.6666666666667</ele><time>2026-03-29T16:11:50.952Z</time></trkpt><trkpt lat="45.7955667" lon="9.2009488"><ele>339.0</ele><time>2026-03-29T16:11:51.951Z</time></trkpt><trkpt lat="45.7956454" lon="9.2009768"><ele>339.3333333333333</ele><time>2026-03-29T16:11:52.952Z</time></trkpt><trkpt lat="45.7957149" lon="9.2010073"><ele>339.66666666666663</ele><time>2026-03-29T16:11:53.952Z</time></trkpt><trkpt lat="45.7957746" lon="9.2010412"><ele>340.0</ele><time>2026-03-29T16:11:54.95Z</time></trkpt><trkpt lat="45.7958644" lon="9.2011339"><ele>340.0</ele><time>2026-03-29T16:11:56.951Z</time></trkpt><trkpt lat="45.7959363" lon="9.2011969"><ele>340.0</ele><time>2026-03-29T16:11:58.952Z</time></trkpt><trkpt lat="45.7959983" lon="9.2012524"><ele>340.0</ele><time>2026-03-29T16:12:00.951Z</time></trkpt><trkpt lat="45.7960657" lon="9.2013043"><ele>340.0</ele><time>2026-03-29T16:12:02.952Z</time></trkpt><trkpt lat="45.7961288" lon="9.2013469"><ele>340.0</ele><time>2026-03-29T16:12:04.952Z</time></trkpt><trkpt lat="45.7961895" lon="9.2013934"><ele>340.0</ele><time>2026-03-29T16:12:07.952Z</time></trkpt><trkpt lat="45.7962448" lon="9.2014734"><ele>339.5</ele><time>2026-03-29T16:12:57.952Z</time></trkpt><trkpt lat="45.7962988" lon="9.2015231"><ele>339.0</ele><time>2026-03-29T16:12:58.952Z</time></trkpt><trkpt lat="45.7963602" lon="9.2015789"><ele>338.5</ele><time>2026-03-29T16:12:59.951Z</time></trkpt><trkpt lat="45.7964247" lon="9.2016213"><ele>338.0</ele><time>2026-03-29T16:13:00.951Z</time></trkpt><trkpt lat="45.7964875" lon="9.2016596"><ele>337.5</ele><time>2026-03-29T16:13:01.951Z</time></trkpt><trkpt lat="45.7965615" lon="9.2017245"><ele>337.0</ele><time>2026-03-29T16:13:02.951Z</time></trkpt><trkpt lat="45.7966475" lon="9.2017937"><ele>337.0</ele><time>2026-03-29T16:13:03.951Z</time></trkpt><trkpt lat="45.7967414" lon="9.2018776"><ele>337.0</ele><time>2026-03-29T16:13:04.952Z</time></trkpt><trkpt lat="45.7968341" lon="9.201955"><ele>337.0</ele><time>2026-03-29T16:13:05.952Z</time></trkpt><trkpt lat="45.796925" lon="9.20203"><ele>337.0</ele><time>2026-03-29T16:13:06.951Z</time></trkpt><trkpt lat="45.7970265" lon="9.2021128"><ele>337.0</ele><time>2026-03-29T16:13:07.952Z</time></trkpt><trkpt lat="45.797134" lon="9.2022005"><ele>336.8</ele><time>2026-03-29T16:13:08.95Z</time></trkpt><trkpt lat="45.797236" lon="9.2022876"><ele>336.6</ele><time>2026-03-29T16:13:09.951Z</time></trkpt><trkpt lat="45.7973329" lon="9.2023684"><ele>336.40000000000003</ele><time>2026-03-29T16:13:10.951Z</time></trkpt><trkpt lat="45.7974301" lon="9.2024333"><ele>336.20000000000005</ele><time>2026-03-29T16:13:11.951Z</time></trkpt><trkpt lat="45.7975188" lon="9.2025094"><ele>336.0</ele><time>2026-03-29T16:13:12.952Z</time></trkpt><trkpt lat="45.7976036" lon="9.2025787"><ele>337.20000000000005</ele><time>2026-03-29T16:13:13.952Z</time></trkpt><trkpt lat="45.797691" lon="9.2026529"><ele>338.40000000000003</ele><time>2026-03-29T16:13:14.951Z</time></trkpt><trkpt lat="45.7977807" lon="9.202726"><ele>339.6</ele><time>2026-03-29T16:13:15.952Z</time></trkpt><trkpt lat="45.7978677" lon="9.2028"><ele>340.8</ele><time>2026-03-29T16:13:16.952Z</time></trkpt><trkpt lat="45.7979529" lon="9.2028751"><ele>342.0</ele><time>2026-03-29T16:13:17.952Z</time></trkpt><trkpt lat="45.7980411" lon="9.2029458"><ele>342.0</ele><time>2026-03-29T16:13:18.952Z</time></trkpt><trkpt lat="45.7981296" lon="9.2030182"><ele>342.0</ele><time>2026-03-29T16:13:19.951Z</time></trkpt><trkpt lat="45.798217" lon="9.2030894"><ele>342.0</ele><time>2026-03-29T16:13:20.952Z</time></trkpt><trkpt lat="45.7983086" lon="9.2031608"><ele>342.0</ele><time>2026-03-29T16:13:21.952Z</time></trkpt><trkpt lat="45.7984011" lon="9.2032325"><ele>342.0</ele><time>2026-03-29T16:13:22.952Z</time></trkpt><trkpt lat="45.798493" lon="9.2033074"><ele>341.8</ele><time>2026-03-29T16:13:23.952Z</time></trkpt><trkpt lat="45.7985854" lon="9.2033792"><ele>341.6</ele><time>2026-03-29T16:13:24.951Z</time></trkpt><trkpt lat="45.7986742" lon="9.2034481"><ele>341.40000000000003</ele><time>2026-03-29T16:13:25.951Z</time></trkpt><trkpt lat="45.7987597" lon="9.2035148"><ele>341.20000000000005</ele><time>2026-03-29T16:13:26.951Z</time></trkpt><trkpt lat="45.79884" lon="9.203591"><ele>341.0</ele><time>2026-03-29T16:13:27.951Z</time></trkpt><trkpt lat="45.7989212" lon="9.2036589"><ele>341.0</ele><time>2026-03-29T16:13:28.952Z</time></trkpt><trkpt lat="45.7990017" lon="9.2037266"><ele>341.0</ele><time>2026-03-29T16:13:29.952Z</time></trkpt><trkpt lat="45.7990694" lon="9.2038043"><ele>341.0</ele><time>2026-03-29T16:13:30.951Z</time></trkpt><trkpt lat="45.7991285" lon="9.2038817"><ele>341.0</ele><time>2026-03-29T16:13:31.952Z</time></trkpt><trkpt lat="45.7991819" lon="9.2039466"><ele>341.0</ele><time>2026-03-29T16:13:32.952Z</time></trkpt><trkpt lat="45.7992395" lon="9.2040026"><ele>341.0</ele><time>2026-03-29T16:13:35.951Z</time></trkpt><trkpt lat="45.7993375" lon="9.2040404"><ele>341.6</ele><time>2026-03-29T16:13:38.95Z</time></trkpt><trkpt lat="45.799462" lon="9.2040286"><ele>342.20000000000005</ele><time>2026-03-29T16:13:40.952Z</time></trkpt><trkpt lat="45.7995865" lon="9.2040196"><ele>342.79999999999995</ele><time>2026-03-29T16:13:42.952Z</time></trkpt><trkpt lat="45.7996674" lon="9.2040219"><ele>343.4</ele><time>2026-03-29T16:13:43.952Z</time></trkpt><trkpt lat="45.7997594" lon="9.2040231"><ele>344.0</ele><time>2026-03-29T16:13:44.951Z</time></trkpt><trkpt lat="45.799848" lon="9.2040236"><ele>344.0</ele><time>2026-03-29T16:13:45.952Z</time></trkpt><trkpt lat="45.7999368" lon="9.2040221"><ele>344.0</ele><time>2026-03-29T16:13:46.952Z</time></trkpt><trkpt lat="45.8000322" lon="9.2040187"><ele>344.0</ele><time>2026-03-29T16:13:47.951Z</time></trkpt><trkpt lat="45.8001338" lon="9.2040179"><ele>344.0</ele><time>2026-03-29T16:13:48.952Z</time></trkpt><trkpt lat="45.8002374" lon="9.2040139"><ele>344.0</ele><time>2026-03-29T16:13:49.95Z</time></trkpt><trkpt lat="45.8003404" lon="9.2040114"><ele>344.0</ele><time>2026-03-29T16:13:50.952Z</time></trkpt><trkpt lat="45.8004333" lon="9.2040122"><ele>344.0</ele><time>2026-03-29T16:13:51.952Z</time></trkpt><trkpt lat="45.8005225" lon="9.2040294"><ele>344.0</ele><time>2026-03-29T16:13:52.952Z</time></trkpt><trkpt lat="45.8006142" lon="9.2040766"><ele>344.0</ele><time>2026-03-29T16:13:53.951Z</time></trkpt><trkpt lat="45.8007185" lon="9.2041573"><ele>344.0</ele><time>2026-03-29T16:13:54.951Z</time></trkpt><trkpt lat="45.8008475" lon="9.204263"><ele>344.0</ele><time>2026-03-29T16:13:55.95Z</time></trkpt><trkpt lat="45.8009746" lon="9.2043575"><ele>344.0</ele><time>2026-03-29T16:13:56.951Z</time></trkpt><trkpt lat="45.8010909" lon="9.204447"><ele>344.0</ele><time>2026-03-29T16:13:57.951Z</time></trkpt><trkpt lat="45.8012074" lon="9.20453"><ele>344.0</ele><time>2026-03-29T16:13:58.952Z</time></trkpt><trkpt lat="45.8013249" lon="9.2046192"><ele>343.75</ele><time>2026-03-29T16:13:59.951Z</time></trkpt><trkpt lat="45.8014413" lon="9.2047116"><ele>343.5</ele><time>2026-03-29T16:14:00.952Z</time></trkpt><trkpt lat="45.8015653" lon="9.2048063"><ele>343.25</ele><time>2026-03-29T16:14:01.951Z</time></trkpt><trkpt lat="45.80169" lon="9.2048972"><ele>343.0</ele><time>2026-03-29T16:14:02.952Z</time></trkpt><trkpt lat="45.8018089" lon="9.2049906"><ele>342.75</ele><time>2026-03-29T16:14:03.952Z</time></trkpt><trkpt lat="45.801927" lon="9.2050852"><ele>342.5</ele><time>2026-03-29T16:14:04.952Z</time></trkpt><trkpt lat="45.8020468" lon="9.2051838"><ele>342.25</ele><time>2026-03-29T16:14:05.952Z</time></trkpt><trkpt lat="45.8021732" lon="9.2052863"><ele>342.0</ele><time>2026-03-29T16:14:06.951Z</time></trkpt><trkpt lat="45.802296" lon="9.2053889"><ele>342.0</ele><time>2026-03-29T16:14:07.952Z</time></trkpt><trkpt lat="45.8024087" lon="9.2054831"><ele>342.0</ele><time>2026-03-29T16:14:08.952Z</time></trkpt><trkpt lat="45.8025269" lon="9.2055731"><ele>342.0</ele><time>2026-03-29T16:14:09.952Z</time></trkpt><trkpt lat="45.8026486" lon="9.2056683"><ele>342.0</ele><time>2026-03-29T16:14:10.951Z</time></trkpt><trkpt lat="45.802773" lon="9.2057668"><ele>342.0</ele><time>2026-03-29T16:14:11.951Z</time></trkpt><trkpt lat="45.8028978" lon="9.2058713"><ele>342.0</ele><time>2026-03-29T16:14:12.952Z</time></trkpt><trkpt lat="45.8030214" lon="9.2059747"><ele>342.0</ele><time>2026-03-29T16:14:13.951Z</time></trkpt><trkpt lat="45.803143" lon="9.2060819"><ele>342.0</ele><time>2026-03-29T16:14:14.952Z</time></trkpt><trkpt lat="45.8032564" lon="9.2061972"><ele>342.0</ele><time>2026-03-29T16:14:15.952Z</time></trkpt><trkpt lat="45.8033684" lon="9.2063179"><ele>342.0</ele><time>2026-03-29T16:14:16.951Z</time></trkpt><trkpt lat="45.8034842" lon="9.2064403"><ele>342.0</ele><time>2026-03-29T16:14:17.952Z</time></trkpt><trkpt lat="45.8035936" lon="9.2065566"><ele>342.0</ele><time>2026-03-29T16:14:18.95Z</time></trkpt><trkpt lat="45.8036963" lon="9.2066667"><ele>342.20000000000005</ele><time>2026-03-29T16:14:19.951Z</time></trkpt><trkpt lat="45.8037936" lon="9.2067683"><ele>342.4</ele><time>2026-03-29T16:14:20.951Z</time></trkpt><trkpt lat="45.8038794" lon="9.2068662"><ele>342.6</ele><time>2026-03-29T16:14:21.951Z</time></trkpt><trkpt lat="45.8039588" lon="9.2069615"><ele>342.79999999999995</ele><time>2026-03-29T16:14:22.95Z</time></trkpt><trkpt lat="45.8040256" lon="9.2070299"><ele>343.0</ele><time>2026-03-29T16:14:23.951Z</time></trkpt><trkpt lat="45.8040939" lon="9.2071136"><ele>343.0</ele><time>2026-03-29T16:14:24.951Z</time></trkpt><trkpt lat="45.8041866" lon="9.2072625"><ele>343.0</ele><time>2026-03-29T16:14:26.951Z</time></trkpt><trkpt lat="45.8042366" lon="9.2073603"><ele>343.0</ele><time>2026-03-29T16:14:27.949Z</time></trkpt><trkpt lat="45.8042801" lon="9.2074606"><ele>343.0</ele><time>2026-03-29T16:14:28.951Z</time></trkpt><trkpt lat="45.8043141" lon="9.2075574"><ele>343.0</ele><time>2026-03-29T16:14:29.951Z</time></trkpt><trkpt lat="45.8043382" lon="9.2076534"><ele>343.0</ele><time>2026-03-29T16:14:30.951Z</time></trkpt><trkpt lat="45.8043682" lon="9.2077415"><ele>343.0</ele><time>2026-03-29T16:14:31.95Z</time></trkpt><trkpt lat="45.8044262" lon="9.2077893"><ele>343.0</ele><time>2026-03-29T16:14:32.95Z</time></trkpt><trkpt lat="45.8045578" lon="9.2077619"><ele>343.0</ele><time>2026-03-29T16:14:34.951Z</time></trkpt><trkpt lat="45.8046475" lon="9.2077715"><ele>343.0</ele><time>2026-03-29T16:14:35.951Z</time></trkpt><trkpt lat="45.8047249" lon="9.2078109"><ele>343.0</ele><time>2026-03-29T16:14:36.951Z</time></trkpt><trkpt lat="45.8048041" lon="9.2078802"><ele>343.0</ele><time>2026-03-29T16:14:37.951Z</time></trkpt><trkpt lat="45.8048875" lon="9.2079669"><ele>343.0</ele><time>2026-03-29T16:14:38.951Z</time></trkpt><trkpt lat="45.8049793" lon="9.2080496"><ele>343.0</ele><time>2026-03-29T16:14:39.951Z</time></trkpt><trkpt lat="45.8050707" lon="9.208162"><ele>343.0</ele><time>2026-03-29T16:14:40.951Z</time></trkpt><trkpt lat="45.8051588" lon="9.2082671"><ele>343.0</ele><time>2026-03-29T16:14:41.951Z</time></trkpt><trkpt lat="45.8052537" lon="9.2083904"><ele>343.5</ele><time>2026-03-29T16:14:42.951Z</time></trkpt><trkpt lat="45.8053495" lon="9.2085255"><ele>344.0</ele><time>2026-03-29T16:14:43.951Z</time></trkpt><trkpt lat="45.8054501" lon="9.2086701"><ele>344.5</ele><time>2026-03-29T16:14:44.951Z</time></trkpt><trkpt lat="45.805541" lon="9.2088066"><ele>345.0</ele><time>2026-03-29T16:14:45.951Z</time></trkpt><trkpt lat="45.8056332" lon="9.2089451"><ele>344.5</ele><time>2026-03-29T16:14:46.951Z</time></trkpt><trkpt lat="45.8057275" lon="9.2090869"><ele>344.0</ele><time>2026-03-29T16:14:47.95Z</time></trkpt><trkpt lat="45.8058256" lon="9.2092317"><ele>343.5</ele><time>2026-03-29T16:14:48.95Z</time></trkpt><trkpt lat="45.8059214" lon="9.2093727"><ele>343.0</ele><time>2026-03-29T16:14:49.951Z</time></trkpt><trkpt lat="45.8060295" lon="9.2095058"><ele>344.5</ele><time>2026-03-29T16:14:50.95Z</time></trkpt><trkpt lat="45.8061437" lon="9.2096333"><ele>346.0</ele><time>2026-03-29T16:14:51.951Z</time></trkpt><trkpt lat="45.806268" lon="9.2097495"><ele>347.5</ele><time>2026-03-29T16:14:52.95Z</time></trkpt><trkpt lat="45.806403" lon="9.209851"><ele>349.0</ele><time>2026-03-29T16:14:53.95Z</time></trkpt><trkpt lat="45.8065443" lon="9.2099415"><ele>350.0</ele><time>2026-03-29T16:14:54.949Z</time></trkpt><trkpt lat="45.8066937" lon="9.2100049"><ele>351.0</ele><time>2026-03-29T16:14:55.951Z</time></trkpt><trkpt lat="45.8068494" lon="9.2100477"><ele>352.0</ele><time>2026-03-29T16:14:56.951Z</time></trkpt><trkpt lat="45.807005" lon="9.2100595"><ele>352.0</ele><time>2026-03-29T16:14:57.951Z</time></trkpt><trkpt lat="45.8071605" lon="9.2100648"><ele>352.0</ele><time>2026-03-29T16:14:58.95Z</time></trkpt><trkpt lat="45.8073188" lon="9.210051"><ele>352.0</ele><time>2026-03-29T16:14:59.951Z</time></trkpt><trkpt lat="45.8074721" lon="9.2100222"><ele>352.0</ele><time>2026-03-29T16:15:00.951Z</time></trkpt><trkpt lat="45.8076246" lon="9.2099674"><ele>352.0</ele><time>2026-03-29T16:15:01.95Z</time></trkpt><trkpt lat="45.8077837" lon="9.2098989"><ele>352.0</ele><time>2026-03-29T16:15:02.95Z</time></trkpt><trkpt lat="45.8079431" lon="9.2098214"><ele>354.0</ele><time>2026-03-29T16:15:03.95Z</time></trkpt><trkpt lat="45.8081051" lon="9.2097499"><ele>356.0</ele><time>2026-03-29T16:15:04.95Z</time></trkpt><trkpt lat="45.8082724" lon="9.2096722"><ele>358.0</ele><time>2026-03-29T16:15:05.951Z</time></trkpt><trkpt lat="45.8084311" lon="9.2095952"><ele>361.0</ele><time>2026-03-29T16:15:06.951Z</time></trkpt><trkpt lat="45.8085879" lon="9.2095209"><ele>364.0</ele><time>2026-03-29T16:15:07.95Z</time></trkpt><trkpt lat="45.808737" lon="9.2094502"><ele>367.0</ele><time>2026-03-29T16:15:08.951Z</time></trkpt><trkpt lat="45.8088875" lon="9.2093845"><ele>367.0</ele><time>2026-03-29T16:15:09.95Z</time></trkpt><trkpt lat="45.8090374" lon="9.2093246"><ele>367.0</ele><time>2026-03-29T16:15:10.951Z</time></trkpt><trkpt lat="45.8091897" lon="9.2092892"><ele>367.0</ele><time>2026-03-29T16:15:11.951Z</time></trkpt><trkpt lat="45.8093454" lon="9.2092788"><ele>370.66666666666663</ele><time>2026-03-29T16:15:12.951Z</time></trkpt><trkpt lat="45.8095002" lon="9.2092967"><ele>374.3333333333333</ele><time>2026-03-29T16:15:13.951Z</time></trkpt><trkpt lat="45.8096513" lon="9.2093352"><ele>378.0</ele><time>2026-03-29T16:15:14.949Z</time></trkpt><trkpt lat="45.8098048" lon="9.2093955"><ele>378.0</ele><time>2026-03-29T16:15:15.951Z</time></trkpt><trkpt lat="45.8099488" lon="9.2094783"><ele>378.0</ele><time>2026-03-29T16:15:16.95Z</time></trkpt><trkpt lat="45.8100864" lon="9.209588"><ele>378.0</ele><time>2026-03-29T16:15:17.951Z</time></trkpt><trkpt lat="45.8102229" lon="9.2097123"><ele>378.6666666666667</ele><time>2026-03-29T16:15:18.951Z</time></trkpt><trkpt lat="45.8103526" lon="9.2098554"><ele>379.33333333333337</ele><time>2026-03-29T16:15:19.95Z</time></trkpt><trkpt lat="45.8104803" lon="9.2100104"><ele>380.0</ele><time>2026-03-29T16:15:20.95Z</time></trkpt><trkpt lat="45.8106078" lon="9.2101651"><ele>380.0</ele><time>2026-03-29T16:15:21.95Z</time></trkpt><trkpt lat="45.8107336" lon="9.2103221"><ele>380.0</ele><time>2026-03-29T16:15:22.95Z</time></trkpt><trkpt lat="45.8108608" lon="9.2104787"><ele>380.0</ele><time>2026-03-29T16:15:23.951Z</time></trkpt><trkpt lat="45.8109687" lon="9.2106241"><ele>380.25</ele><time>2026-03-29T16:15:24.951Z</time></trkpt><trkpt lat="45.8110806" lon="9.2107266"><ele>380.5</ele><time>2026-03-29T16:15:25.951Z</time></trkpt><trkpt lat="45.8112003" lon="9.2108302"><ele>380.75</ele><time>2026-03-29T16:15:26.951Z</time></trkpt><trkpt lat="45.8113448" lon="9.2108934"><ele>381.0</ele><time>2026-03-29T16:15:27.95Z</time></trkpt><trkpt lat="45.8114921" lon="9.2109438"><ele>381.0</ele><time>2026-03-29T16:15:28.95Z</time></trkpt><trkpt lat="45.8116505" lon="9.2109867"><ele>381.0</ele><time>2026-03-29T16:15:29.95Z</time></trkpt><trkpt lat="45.8118147" lon="9.211032"><ele>381.0</ele><time>2026-03-29T16:15:30.951Z</time></trkpt><trkpt lat="45.8119781" lon="9.2110868"><ele>383.33333333333337</ele><time>2026-03-29T16:15:31.95Z</time></trkpt><trkpt lat="45.8121432" lon="9.2111367"><ele>385.6666666666667</ele><time>2026-03-29T16:15:32.951Z</time></trkpt><trkpt lat="45.8123115" lon="9.2111871"><ele>388.0</ele><time>2026-03-29T16:15:33.951Z</time></trkpt><trkpt lat="45.8124713" lon="9.211237"><ele>388.0</ele><time>2026-03-29T16:15:34.951Z</time></trkpt><trkpt lat="45.8126197" lon="9.2112889"><ele>388.0</ele><time>2026-03-29T16:15:35.951Z</time></trkpt><trkpt lat="45.8127661" lon="9.2113395"><ele>388.0</ele><time>2026-03-29T16:15:36.951Z</time></trkpt><trkpt lat="45.8129095" lon="9.2114013"><ele>387.6666666666667</ele><time>2026-03-29T16:15:37.95Z</time></trkpt><trkpt lat="45.8130504" lon="9.2114861"><ele>387.33333333333337</ele><time>2026-03-29T16:15:38.95Z</time></trkpt><trkpt lat="45.8131898" lon="9.21159"><ele>387.0</ele><time>2026-03-29T16:15:39.95Z</time></trkpt><trkpt lat="45.8133273" lon="9.211707"><ele>387.0</ele><time>2026-03-29T16:15:40.951Z</time></trkpt><trkpt lat="45.8134609" lon="9.2118347"><ele>387.0</ele><time>2026-03-29T16:15:41.95Z</time></trkpt><trkpt lat="45.8135934" lon="9.2119718"><ele>387.0</ele><time>2026-03-29T16:15:42.951Z</time></trkpt><trkpt lat="45.8137197" lon="9.212113"><ele>387.33333333333337</ele><time>2026-03-29T16:15:43.951Z</time></trkpt><trkpt lat="45.8138553" lon="9.2122533"><ele>387.6666666666667</ele><time>2026-03-29T16:15:44.951Z</time></trkpt><trkpt lat="45.8139917" lon="9.2123913"><ele>388.0</ele><time>2026-03-29T16:15:45.95Z</time></trkpt><trkpt lat="45.8141241" lon="9.2125286"><ele>388.0</ele><time>2026-03-29T16:15:46.951Z</time></trkpt><trkpt lat="45.8142505" lon="9.2126625"><ele>388.0</ele><time>2026-03-29T16:15:47.951Z</time></trkpt><trkpt lat="45.8143823" lon="9.2127994"><ele>388.0</ele><time>2026-03-29T16:15:48.951Z</time></trkpt><trkpt lat="45.8145127" lon="9.2129374"><ele>386.6666666666667</ele><time>2026-03-29T16:15:49.951Z</time></trkpt><trkpt lat="45.8146437" lon="9.2130809"><ele>385.33333333333337</ele><time>2026-03-29T16:15:50.95Z</time></trkpt><trkpt lat="45.8147784" lon="9.213224"><ele>384.0</ele><time>2026-03-29T16:15:51.95Z</time></trkpt><trkpt lat="45.8149129" lon="9.2133661"><ele>384.0</ele><time>2026-03-29T16:15:52.951Z</time></trkpt><trkpt lat="45.8150501" lon="9.2135083"><ele>384.0</ele><time>2026-03-29T16:15:53.95Z</time></trkpt><trkpt lat="45.8151893" lon="9.2136481"><ele>384.0</ele><time>2026-03-29T16:15:54.951Z</time></trkpt><trkpt lat="45.8153238" lon="9.2137878"><ele>382.3333333333333</ele><time>2026-03-29T16:15:55.951Z</time></trkpt><trkpt lat="45.8154555" lon="9.2139249"><ele>380.66666666666663</ele><time>2026-03-29T16:15:56.951Z</time></trkpt><trkpt lat="45.8155857" lon="9.2140551"><ele>379.0</ele><time>2026-03-29T16:15:57.951Z</time></trkpt><trkpt lat="45.8157158" lon="9.2141822"><ele>379.0</ele><time>2026-03-29T16:15:58.951Z</time></trkpt><trkpt lat="45.815851" lon="9.2143024"><ele>379.0</ele><time>2026-03-29T16:15:59.951Z</time></trkpt><trkpt lat="45.8159961" lon="9.2144223"><ele>379.0</ele><time>2026-03-29T16:16:00.95Z</time></trkpt><trkpt lat="45.8161484" lon="9.2145288"><ele>379.0</ele><time>2026-03-29T16:16:01.95Z</time></trkpt><trkpt lat="45.8163066" lon="9.2146317"><ele>379.0</ele><time>2026-03-29T16:16:02.951Z</time></trkpt><trkpt lat="45.8164656" lon="9.2147224"><ele>379.0</ele><time>2026-03-29T16:16:03.951Z</time></trkpt><trkpt lat="45.8166265" lon="9.2148073"><ele>375.3333333333333</ele><time>2026-03-29T16:16:04.95Z</time></trkpt><trkpt lat="45.8167872" lon="9.2148831"><ele>371.6666666666667</ele><time>2026-03-29T16:16:05.95Z</time></trkpt><trkpt lat="45.8169497" lon="9.2149522"><ele>368.0</ele><time>2026-03-29T16:16:06.95Z</time></trkpt><trkpt lat="45.8171116" lon="9.2150159"><ele>367.6666666666667</ele><time>2026-03-29T16:16:07.95Z</time></trkpt><trkpt lat="45.8172642" lon="9.2150735"><ele>367.3333333333333</ele><time>2026-03-29T16:16:08.95Z</time></trkpt><trkpt lat="45.817426" lon="9.2151317"><ele>367.0</ele><time>2026-03-29T16:16:09.951Z</time></trkpt><trkpt lat="45.8175879" lon="9.2151877"><ele>368.3333333333333</ele><time>2026-03-29T16:16:10.95Z</time></trkpt><trkpt lat="45.8177445" lon="9.2152424"><ele>369.6666666666667</ele><time>2026-03-29T16:16:11.951Z</time></trkpt><trkpt lat="45.8179019" lon="9.2152956"><ele>371.0</ele><time>2026-03-29T16:16:12.951Z</time></trkpt><trkpt lat="45.8180565" lon="9.2153515"><ele>371.0</ele><time>2026-03-29T16:16:13.95Z</time></trkpt><trkpt lat="45.8182092" lon="9.2154134"><ele>371.0</ele><time>2026-03-29T16:16:14.949Z</time></trkpt><trkpt lat="45.8183694" lon="9.2154679"><ele>371.0</ele><time>2026-03-29T16:16:15.95Z</time></trkpt><trkpt lat="45.8185316" lon="9.2155247"><ele>374.0</ele><time>2026-03-29T16:16:16.951Z</time></trkpt><trkpt lat="45.8186963" lon="9.2155809"><ele>377.0</ele><time>2026-03-29T16:16:17.951Z</time></trkpt><trkpt lat="45.8188639" lon="9.2156388"><ele>380.0</ele><time>2026-03-29T16:16:18.95Z</time></trkpt><trkpt lat="45.8190312" lon="9.2156959"><ele>376.33333333333337</ele><time>2026-03-29T16:16:19.951Z</time></trkpt><trkpt lat="45.8192029" lon="9.2157539"><ele>372.6666666666667</ele><time>2026-03-29T16:16:20.951Z</time></trkpt><trkpt lat="45.8193704" lon="9.2158162"><ele>369.0</ele><time>2026-03-29T16:16:21.95Z</time></trkpt><trkpt lat="45.8195375" lon="9.2158761"><ele>369.0</ele><time>2026-03-29T16:16:22.949Z</time></trkpt><trkpt lat="45.8197016" lon="9.2159311"><ele>369.0</ele><time>2026-03-29T16:16:23.951Z</time></trkpt><trkpt lat="45.8198613" lon="9.2159871"><ele>369.0</ele><time>2026-03-29T16:16:24.951Z</time></trkpt><trkpt lat="45.820019" lon="9.2160412"><ele>371.3333333333333</ele><time>2026-03-29T16:16:25.95Z</time></trkpt><trkpt lat="45.8201696" lon="9.2160896"><ele>373.66666666666663</ele><time>2026-03-29T16:16:26.95Z</time></trkpt><trkpt lat="45.8203171" lon="9.2161391"><ele>376.0</ele><time>2026-03-29T16:16:27.95Z</time></trkpt><trkpt lat="45.8204631" lon="9.2161916"><ele>376.0</ele><time>2026-03-29T16:16:28.951Z</time></trkpt><trkpt lat="45.820612" lon="9.2162569"><ele>376.0</ele><time>2026-03-29T16:16:29.95Z</time></trkpt><trkpt lat="45.8207613" lon="9.2163459"><ele>376.0</ele><time>2026-03-29T16:16:30.951Z</time></trkpt><trkpt lat="45.8209088" lon="9.216453"><ele>374.0</ele><time>2026-03-29T16:16:31.951Z</time></trkpt><trkpt lat="45.8210549" lon="9.2165729"><ele>372.0</ele><time>2026-03-29T16:16:32.95Z</time></trkpt><trkpt lat="45.8211997" lon="9.2167033"><ele>370.0</ele><time>2026-03-29T16:16:33.95Z</time></trkpt><trkpt lat="45.8213449" lon="9.2168391"><ele>370.0</ele><time>2026-03-29T16:16:34.951Z</time></trkpt><trkpt lat="45.8214881" lon="9.2169647"><ele>370.0</ele><time>2026-03-29T16:16:35.95Z</time></trkpt><trkpt lat="45.8216361" lon="9.217094"><ele>370.0</ele><time>2026-03-29T16:16:36.95Z</time></trkpt><trkpt lat="45.8217789" lon="9.2172057"><ele>368.0</ele><time>2026-03-29T16:16:37.951Z</time></trkpt><trkpt lat="45.8219396" lon="9.2173075"><ele>366.0</ele><time>2026-03-29T16:16:38.95Z</time></trkpt><trkpt lat="45.8221028" lon="9.2174099"><ele>364.0</ele><time>2026-03-29T16:16:39.95Z</time></trkpt><trkpt lat="45.8222663" lon="9.2175024"><ele>364.0</ele><time>2026-03-29T16:16:40.95Z</time></trkpt><trkpt lat="45.8224218" lon="9.2175819"><ele>364.0</ele><time>2026-03-29T16:16:41.95Z</time></trkpt><trkpt lat="45.8225682" lon="9.2176577"><ele>364.0</ele><time>2026-03-29T16:16:42.951Z</time></trkpt><trkpt lat="45.8227102" lon="9.2177244"><ele>367.66666666666663</ele><time>2026-03-29T16:16:43.95Z</time></trkpt><trkpt lat="45.8228501" lon="9.2177975"><ele>371.3333333333333</ele><time>2026-03-29T16:16:44.95Z</time></trkpt><trkpt lat="45.8229971" lon="9.2178714"><ele>375.0</ele><time>2026-03-29T16:16:45.95Z</time></trkpt><trkpt lat="45.8231389" lon="9.2179464"><ele>375.0</ele><time>2026-03-29T16:16:46.951Z</time></trkpt><trkpt lat="45.8232927" lon="9.2180227"><ele>375.0</ele><time>2026-03-29T16:16:47.95Z</time></trkpt><trkpt lat="45.8234476" lon="9.2180985"><ele>375.0</ele><time>2026-03-29T16:16:48.951Z</time></trkpt><trkpt lat="45.8236021" lon="9.2181694"><ele>369.6666666666667</ele><time>2026-03-29T16:16:49.951Z</time></trkpt><trkpt lat="45.8237571" lon="9.2182473"><ele>364.33333333333337</ele><time>2026-03-29T16:16:50.95Z</time></trkpt><trkpt lat="45.8239148" lon="9.2183207"><ele>359.0</ele><time>2026-03-29T16:16:51.95Z</time></trkpt><trkpt lat="45.8240704" lon="9.2183946"><ele>359.0</ele><time>2026-03-29T16:16:52.951Z</time></trkpt><trkpt lat="45.8242231" lon="9.2184692"><ele>359.0</ele><time>2026-03-29T16:16:53.95Z</time></trkpt><trkpt lat="45.8243755" lon="9.218544"><ele>359.0</ele><time>2026-03-29T16:16:54.951Z</time></trkpt><trkpt lat="45.8245258" lon="9.2186158"><ele>367.0</ele><time>2026-03-29T16:16:55.95Z</time></trkpt><trkpt lat="45.8246775" lon="9.2186931"><ele>375.0</ele><time>2026-03-29T16:16:56.949Z</time></trkpt><trkpt lat="45.8248234" lon="9.2187773"><ele>383.0</ele><time>2026-03-29T16:16:57.95Z</time></trkpt><trkpt lat="45.8249713" lon="9.2188652"><ele>383.0</ele><time>2026-03-29T16:16:58.95Z</time></trkpt><trkpt lat="45.8251174" lon="9.2189586"><ele>383.0</ele><time>2026-03-29T16:16:59.951Z</time></trkpt><trkpt lat="45.8252616" lon="9.2190616"><ele>383.0</ele><time>2026-03-29T16:17:00.95Z</time></trkpt><trkpt lat="45.8254026" lon="9.2191653"><ele>378.33333333333337</ele><time>2026-03-29T16:17:01.951Z</time></trkpt><trkpt lat="45.8255453" lon="9.2192746"><ele>373.6666666666667</ele><time>2026-03-29T16:17:02.951Z</time></trkpt><trkpt lat="45.825695" lon="9.2193753"><ele>369.0</ele><time>2026-03-29T16:17:03.95Z</time></trkpt><trkpt lat="45.8258426" lon="9.2194705"><ele>373.0</ele><time>2026-03-29T16:17:04.95Z</time></trkpt><trkpt lat="45.8259995" lon="9.2195541"><ele>377.0</ele><time>2026-03-29T16:17:05.95Z</time></trkpt><trkpt lat="45.8261592" lon="9.2196339"><ele>381.0</ele><time>2026-03-29T16:17:06.95Z</time></trkpt><trkpt lat="45.8263159" lon="9.2197077"><ele>381.0</ele><time>2026-03-29T16:17:07.951Z</time></trkpt><trkpt lat="45.8264695" lon="9.219785"><ele>381.0</ele><time>2026-03-29T16:17:08.951Z</time></trkpt><trkpt lat="45.8266233" lon="9.2198564"><ele>381.0</ele><time>2026-03-29T16:17:09.95Z</time></trkpt><trkpt lat="45.8267783" lon="9.2199262"><ele>375.3333333333333</ele><time>2026-03-29T16:17:10.951Z</time></trkpt><trkpt lat="45.8269332" lon="9.2199822"><ele>369.66666666666663</ele><time>2026-03-29T16:17:11.951Z</time></trkpt><trkpt lat="45.8270895" lon="9.2200285"><ele>364.0</ele><time>2026-03-29T16:17:12.951Z</time></trkpt><trkpt lat="45.8272509" lon="9.2200601"><ele>364.0</ele><time>2026-03-29T16:17:13.951Z</time></trkpt><trkpt lat="45.8274122" lon="9.2200816"><ele>364.0</ele><time>2026-03-29T16:17:14.951Z</time></trkpt><trkpt lat="45.8275744" lon="9.2201017"><ele>364.0</ele><time>2026-03-29T16:17:15.951Z</time></trkpt><trkpt lat="45.8277394" lon="9.2201192"><ele>366.0</ele><time>2026-03-29T16:17:16.951Z</time></trkpt><trkpt lat="45.8279023" lon="9.2201376"><ele>368.0</ele><time>2026-03-29T16:17:17.951Z</time></trkpt><trkpt lat="45.8280595" lon="9.2201564"><ele>370.0</ele><time>2026-03-29T16:17:18.951Z</time></trkpt><trkpt lat="45.8282177" lon="9.2201774"><ele>370.0</ele><time>2026-03-29T16:17:19.95Z</time></trkpt><trkpt lat="45.8283751" lon="9.220193"><ele>370.0</ele><time>2026-03-29T16:17:20.951Z</time></trkpt><trkpt lat="45.8285275" lon="9.2202048"><ele>370.0</ele><time>2026-03-29T16:17:21.951Z</time></trkpt><trkpt lat="45.828674" lon="9.2202147"><ele>375.0</ele><time>2026-03-29T16:17:22.95Z</time></trkpt><trkpt lat="45.8288198" lon="9.2202347"><ele>380.0</ele><time>2026-03-29T16:17:23.95Z</time></trkpt><trkpt lat="45.8289665" lon="9.2202618"><ele>385.0</ele><time>2026-03-29T16:17:24.949Z</time></trkpt><trkpt lat="45.8291122" lon="9.2203022"><ele>390.0</ele><time>2026-03-29T16:17:25.951Z</time></trkpt><trkpt lat="45.8292551" lon="9.2203623"><ele>389.5</ele><time>2026-03-29T16:17:26.951Z</time></trkpt><trkpt lat="45.8293925" lon="9.2204362"><ele>389.0</ele><time>2026-03-29T16:17:27.951Z</time></trkpt><trkpt lat="45.8295192" lon="9.2205165"><ele>388.5</ele><time>2026-03-29T16:17:28.949Z</time></trkpt><trkpt lat="45.8296425" lon="9.2206273"><ele>388.0</ele><time>2026-03-29T16:17:29.951Z</time></trkpt><trkpt lat="45.8297549" lon="9.2207532"><ele>388.0</ele><time>2026-03-29T16:17:30.949Z</time></trkpt><trkpt lat="45.8298724" lon="9.2208979"><ele>388.0</ele><time>2026-03-29T16:17:31.949Z</time></trkpt><trkpt lat="45.8299968" lon="9.2210484"><ele>388.0</ele><time>2026-03-29T16:17:32.95Z</time></trkpt><trkpt lat="45.8301211" lon="9.2212093"><ele>388.0</ele><time>2026-03-29T16:17:33.949Z</time></trkpt><trkpt lat="45.830252" lon="9.22137"><ele>388.0</ele><time>2026-03-29T16:17:34.949Z</time></trkpt><trkpt lat="45.8303809" lon="9.2215301"><ele>388.0</ele><time>2026-03-29T16:17:35.949Z</time></trkpt><trkpt lat="45.83051" lon="9.2216824"><ele>388.0</ele><time>2026-03-29T16:17:36.95Z</time></trkpt><trkpt lat="45.830646" lon="9.2218281"><ele>388.0</ele><time>2026-03-29T16:17:37.949Z</time></trkpt><trkpt lat="45.8307884" lon="9.2219648"><ele>388.0</ele><time>2026-03-29T16:17:38.949Z</time></trkpt><trkpt lat="45.8309367" lon="9.2220903"><ele>381.6666666666667</ele><time>2026-03-29T16:17:39.95Z</time></trkpt><trkpt lat="45.8310905" lon="9.2222017"><ele>375.33333333333337</ele><time>2026-03-29T16:17:40.949Z</time></trkpt><trkpt lat="45.8312512" lon="9.222302"><ele>369.0</ele><time>2026-03-29T16:17:41.95Z</time></trkpt><trkpt lat="45.8314162" lon="9.222401"><ele>369.0</ele><time>2026-03-29T16:17:42.949Z</time></trkpt><trkpt lat="45.8315853" lon="9.222489"><ele>369.0</ele><time>2026-03-29T16:17:43.95Z</time></trkpt><trkpt lat="45.8317572" lon="9.2225706"><ele>369.0</ele><time>2026-03-29T16:17:44.949Z</time></trkpt><trkpt lat="45.8319104" lon="9.2226401"><ele>378.0</ele><time>2026-03-29T16:17:45.948Z</time></trkpt><trkpt lat="45.8320644" lon="9.2227119"><ele>387.0</ele><time>2026-03-29T16:17:46.95Z</time></trkpt><trkpt lat="45.8322181" lon="9.2227841"><ele>396.0</ele><time>2026-03-29T16:17:47.949Z</time></trkpt><trkpt lat="45.8328487" lon="9.223093"><ele>385.75</ele><time>2026-03-29T16:17:51.949Z</time></trkpt><trkpt lat="45.8329431" lon="9.2231909"><ele>375.5</ele><time>2026-03-29T16:17:52.948Z</time></trkpt><trkpt lat="45.833041" lon="9.2233778"><ele>365.25</ele><time>2026-03-29T16:17:53.95Z</time></trkpt><trkpt lat="45.833126" lon="9.2235836"><ele>355.0</ele><time>2026-03-29T16:17:54.949Z</time></trkpt><trkpt lat="45.8332095" lon="9.223779"><ele>355.0</ele><time>2026-03-29T16:17:55.949Z</time></trkpt><trkpt lat="45.8332774" lon="9.2239707"><ele>355.0</ele><time>2026-03-29T16:17:56.949Z</time></trkpt><trkpt lat="45.8333314" lon="9.2241862"><ele>355.0</ele><time>2026-03-29T16:17:57.95Z</time></trkpt><trkpt lat="45.8333865" lon="9.2244148"><ele>346.66666666666663</ele><time>2026-03-29T16:17:58.949Z</time></trkpt><trkpt lat="45.8334405" lon="9.2246384"><ele>338.3333333333333</ele><time>2026-03-29T16:17:59.949Z</time></trkpt><trkpt lat="45.8334965" lon="9.2248677"><ele>330.0</ele><time>2026-03-29T16:18:00.95Z</time></trkpt><trkpt lat="45.8335507" lon="9.2250861"><ele>330.6666666666667</ele><time>2026-03-29T16:18:01.95Z</time></trkpt><trkpt lat="45.8336046" lon="9.2253049"><ele>331.33333333333337</ele><time>2026-03-29T16:18:02.95Z</time></trkpt><trkpt lat="45.8336616" lon="9.2255322"><ele>332.0</ele><time>2026-03-29T16:18:03.949Z</time></trkpt><trkpt lat="45.8337227" lon="9.2257562"><ele>332.0</ele><time>2026-03-29T16:18:04.949Z</time></trkpt><trkpt lat="45.8337879" lon="9.2259767"><ele>332.0</ele><time>2026-03-29T16:18:05.949Z</time></trkpt><trkpt lat="45.8338592" lon="9.2261902"><ele>332.0</ele><time>2026-03-29T16:18:06.95Z</time></trkpt><trkpt lat="45.8339364" lon="9.2263964"><ele>333.33333333333337</ele><time>2026-03-29T16:18:07.95Z</time></trkpt><trkpt lat="45.8340147" lon="9.2266043"><ele>334.6666666666667</ele><time>2026-03-29T16:18:08.95Z</time></trkpt><trkpt lat="45.8340928" lon="9.2268112"><ele>336.0</ele><time>2026-03-29T16:18:09.948Z</time></trkpt><trkpt lat="45.8341717" lon="9.2270163"><ele>336.0</ele><time>2026-03-29T16:18:10.949Z</time></trkpt><trkpt lat="45.8342508" lon="9.2272215"><ele>336.0</ele><time>2026-03-29T16:18:11.95Z</time></trkpt><trkpt lat="45.8343243" lon="9.22743"><ele>336.0</ele><time>2026-03-29T16:18:12.95Z</time></trkpt><trkpt lat="45.8343928" lon="9.2276428"><ele>333.3333333333333</ele><time>2026-03-29T16:18:13.95Z</time></trkpt><trkpt lat="45.8344543" lon="9.2278602"><ele>330.66666666666663</ele><time>2026-03-29T16:18:14.95Z</time></trkpt><trkpt lat="45.834508" lon="9.2280829"><ele>328.0</ele><time>2026-03-29T16:18:15.948Z</time></trkpt><trkpt lat="45.8345528" lon="9.228314"><ele>328.0</ele><time>2026-03-29T16:18:16.949Z</time></trkpt><trkpt lat="45.8345923" lon="9.228549"><ele>328.0</ele><time>2026-03-29T16:18:17.95Z</time></trkpt><trkpt lat="45.8346315" lon="9.2287805"><ele>328.0</ele><time>2026-03-29T16:18:18.949Z</time></trkpt><trkpt lat="45.8346719" lon="9.2290113"><ele>328.3333333333333</ele><time>2026-03-29T16:18:19.948Z</time></trkpt><trkpt lat="45.8347109" lon="9.2292392"><ele>328.6666666666667</ele><time>2026-03-29T16:18:20.949Z</time></trkpt><trkpt lat="45.8347539" lon="9.2294647"><ele>329.0</ele><time>2026-03-29T16:18:21.95Z</time></trkpt><trkpt lat="45.8347938" lon="9.2296884"><ele>331.6666666666667</ele><time>2026-03-29T16:18:22.95Z</time></trkpt><trkpt lat="45.8348325" lon="9.2299098"><ele>334.3333333333333</ele><time>2026-03-29T16:18:23.95Z</time></trkpt><trkpt lat="45.8348718" lon="9.2301311"><ele>337.0</ele><time>2026-03-29T16:18:24.95Z</time></trkpt><trkpt lat="45.8349122" lon="9.2303479"><ele>337.0</ele><time>2026-03-29T16:18:25.949Z</time></trkpt><trkpt lat="45.8349482" lon="9.230563"><ele>337.0</ele><time>2026-03-29T16:18:26.948Z</time></trkpt><trkpt lat="45.8349857" lon="9.2307826"><ele>337.0</ele><time>2026-03-29T16:18:27.95Z</time></trkpt><trkpt lat="45.8350232" lon="9.2310033"><ele>339.3333333333333</ele><time>2026-03-29T16:18:28.949Z</time></trkpt><trkpt lat="45.8350622" lon="9.2312204"><ele>341.6666666666667</ele><time>2026-03-29T16:18:29.949Z</time></trkpt><trkpt lat="45.8351" lon="9.2314385"><ele>344.0</ele><time>2026-03-29T16:18:30.949Z</time></trkpt><trkpt lat="45.8351399" lon="9.231654"><ele>340.33333333333337</ele><time>2026-03-29T16:18:31.95Z</time></trkpt><trkpt lat="45.8351805" lon="9.2318712"><ele>336.6666666666667</ele><time>2026-03-29T16:18:32.949Z</time></trkpt><trkpt lat="45.8352168" lon="9.2320888"><ele>333.0</ele><time>2026-03-29T16:18:33.95Z</time></trkpt><trkpt lat="45.8352468" lon="9.2323077"><ele>333.0</ele><time>2026-03-29T16:18:34.949Z</time></trkpt><trkpt lat="45.8352655" lon="9.2325271"><ele>333.0</ele><time>2026-03-29T16:18:35.949Z</time></trkpt><trkpt lat="45.835286" lon="9.2327471"><ele>333.0</ele><time>2026-03-29T16:18:36.948Z</time></trkpt><trkpt lat="45.835311" lon="9.2329688"><ele>334.6666666666667</ele><time>2026-03-29T16:18:37.949Z</time></trkpt><trkpt lat="45.8353371" lon="9.2331913"><ele>336.33333333333337</ele><time>2026-03-29T16:18:38.949Z</time></trkpt><trkpt lat="45.8353628" lon="9.2334135"><ele>338.0</ele><time>2026-03-29T16:18:39.949Z</time></trkpt><trkpt lat="45.8353888" lon="9.2336367"><ele>338.0</ele><time>2026-03-29T16:18:40.949Z</time></trkpt><trkpt lat="45.8354172" lon="9.2338616"><ele>338.0</ele><time>2026-03-29T16:18:41.948Z</time></trkpt><trkpt lat="45.8354462" lon="9.2340833"><ele>338.0</ele><time>2026-03-29T16:18:42.949Z</time></trkpt><trkpt lat="45.8354817" lon="9.2343039"><ele>340.6666666666667</ele><time>2026-03-29T16:18:43.95Z</time></trkpt><trkpt lat="45.8355193" lon="9.2345211"><ele>343.3333333333333</ele><time>2026-03-29T16:18:44.949Z</time></trkpt><trkpt lat="45.8355545" lon="9.2347425"><ele>346.0</ele><time>2026-03-29T16:18:45.95Z</time></trkpt><trkpt lat="45.8355872" lon="9.2349606"><ele>346.0</ele><time>2026-03-29T16:18:46.949Z</time></trkpt><trkpt lat="45.8356152" lon="9.2351769"><ele>346.0</ele><time>2026-03-29T16:18:47.948Z</time></trkpt><trkpt lat="45.8356446" lon="9.2353942"><ele>346.0</ele><time>2026-03-29T16:18:48.95Z</time></trkpt><trkpt lat="45.8356699" lon="9.2356125"><ele>346.3333333333333</ele><time>2026-03-29T16:18:49.95Z</time></trkpt><trkpt lat="45.8356914" lon="9.2358239"><ele>346.6666666666667</ele><time>2026-03-29T16:18:50.95Z</time></trkpt><trkpt lat="45.8357141" lon="9.2360389"><ele>347.0</ele><time>2026-03-29T16:18:51.95Z</time></trkpt><trkpt lat="45.8357432" lon="9.2362534"><ele>348.33333333333337</ele><time>2026-03-29T16:18:52.95Z</time></trkpt><trkpt lat="45.8357853" lon="9.2364702"><ele>349.6666666666667</ele><time>2026-03-29T16:18:53.949Z</time></trkpt><trkpt lat="45.8358402" lon="9.2366836"><ele>351.0</ele><time>2026-03-29T16:18:54.948Z</time></trkpt><trkpt lat="45.8359052" lon="9.2368953"><ele>352.0</ele><time>2026-03-29T16:18:55.949Z</time></trkpt><trkpt lat="45.8359839" lon="9.237106"><ele>353.0</ele><time>2026-03-29T16:18:56.95Z</time></trkpt><trkpt lat="45.836065" lon="9.2373149"><ele>354.0</ele><time>2026-03-29T16:18:57.949Z</time></trkpt><trkpt lat="45.8361422" lon="9.2375256"><ele>354.0</ele><time>2026-03-29T16:18:58.949Z</time></trkpt><trkpt lat="45.8362199" lon="9.2377307"><ele>354.0</ele><time>2026-03-29T16:18:59.949Z</time></trkpt><trkpt lat="45.8363004" lon="9.2379425"><ele>354.0</ele><time>2026-03-29T16:19:00.949Z</time></trkpt><trkpt lat="45.8363793" lon="9.2381431"><ele>353.0</ele><time>2026-03-29T16:19:01.95Z</time></trkpt><trkpt lat="45.8364538" lon="9.2383453"><ele>352.0</ele><time>2026-03-29T16:19:02.949Z</time></trkpt><trkpt lat="45.836523" lon="9.2385343"><ele>351.0</ele><time>2026-03-29T16:19:03.948Z</time></trkpt><trkpt lat="45.836595" lon="9.2387229"><ele>351.0</ele><time>2026-03-29T16:19:04.949Z</time></trkpt><trkpt lat="45.8366574" lon="9.238909"><ele>351.0</ele><time>2026-03-29T16:19:05.949Z</time></trkpt><trkpt lat="45.8367212" lon="9.2390948"><ele>351.0</ele><time>2026-03-29T16:19:06.95Z</time></trkpt><trkpt lat="45.8367799" lon="9.2392822"><ele>351.0</ele><time>2026-03-29T16:19:07.95Z</time></trkpt><trkpt lat="45.8368396" lon="9.2394869"><ele>350.0</ele><time>2026-03-29T16:19:08.95Z</time></trkpt><trkpt lat="45.8368976" lon="9.239685"><ele>349.0</ele><time>2026-03-29T16:19:09.949Z</time></trkpt><trkpt lat="45.8369454" lon="9.2398793"><ele>348.0</ele><time>2026-03-29T16:19:10.95Z</time></trkpt><trkpt lat="45.8369923" lon="9.2400808"><ele>347.0</ele><time>2026-03-29T16:19:11.95Z</time></trkpt><trkpt lat="45.8370322" lon="9.2402889"><ele>347.0</ele><time>2026-03-29T16:19:12.949Z</time></trkpt><trkpt lat="45.8370809" lon="9.2405081"><ele>347.0</ele><time>2026-03-29T16:19:13.949Z</time></trkpt><trkpt lat="45.8371349" lon="9.2407237"><ele>347.0</ele><time>2026-03-29T16:19:14.95Z</time></trkpt><trkpt lat="45.8371937" lon="9.2409398"><ele>345.0</ele><time>2026-03-29T16:19:15.95Z</time></trkpt><trkpt lat="45.8372588" lon="9.2411554"><ele>343.0</ele><time>2026-03-29T16:19:16.95Z</time></trkpt><trkpt lat="45.8373314" lon="9.2413666"><ele>341.0</ele><time>2026-03-29T16:19:17.949Z</time></trkpt><trkpt lat="45.8374146" lon="9.2415722"><ele>341.0</ele><time>2026-03-29T16:19:18.95Z</time></trkpt><trkpt lat="45.8375048" lon="9.2417747"><ele>341.0</ele><time>2026-03-29T16:19:19.95Z</time></trkpt><trkpt lat="45.8376008" lon="9.2419709"><ele>341.0</ele><time>2026-03-29T16:19:20.949Z</time></trkpt><trkpt lat="45.8376973" lon="9.24216"><ele>341.33333333333337</ele><time>2026-03-29T16:19:21.95Z</time></trkpt><trkpt lat="45.8377953" lon="9.2423336"><ele>341.6666666666667</ele><time>2026-03-29T16:19:22.949Z</time></trkpt><trkpt lat="45.8379022" lon="9.2424891"><ele>342.0</ele><time>2026-03-29T16:19:23.95Z</time></trkpt><trkpt lat="45.8380137" lon="9.2426275"><ele>342.0</ele><time>2026-03-29T16:19:24.95Z</time></trkpt><trkpt lat="45.838127" lon="9.2427592"><ele>342.0</ele><time>2026-03-29T16:19:25.95Z</time></trkpt><trkpt lat="45.8382321" lon="9.2428967"><ele>342.0</ele><time>2026-03-29T16:19:26.949Z</time></trkpt><trkpt lat="45.8383264" lon="9.2430488"><ele>342.0</ele><time>2026-03-29T16:19:27.95Z</time></trkpt><trkpt lat="45.838405" lon="9.2432189"><ele>342.25</ele><time>2026-03-29T16:19:28.949Z</time></trkpt><trkpt lat="45.8384693" lon="9.2433998"><ele>342.5</ele><time>2026-03-29T16:19:29.948Z</time></trkpt><trkpt lat="45.8385235" lon="9.2435944"><ele>342.75</ele><time>2026-03-29T16:19:30.948Z</time></trkpt><trkpt lat="45.8385635" lon="9.2437997"><ele>343.0</ele><time>2026-03-29T16:19:31.949Z</time></trkpt><trkpt lat="45.8385952" lon="9.2440118"><ele>343.0</ele><time>2026-03-29T16:19:32.95Z</time></trkpt><trkpt lat="45.8386252" lon="9.2442257"><ele>343.0</ele><time>2026-03-29T16:19:33.949Z</time></trkpt><trkpt lat="45.8386552" lon="9.2444338"><ele>343.0</ele><time>2026-03-29T16:19:34.95Z</time></trkpt><trkpt lat="45.8386934" lon="9.2446499"><ele>343.66666666666663</ele><time>2026-03-29T16:19:35.95Z</time></trkpt><trkpt lat="45.8387382" lon="9.2448853"><ele>344.3333333333333</ele><time>2026-03-29T16:19:36.95Z</time></trkpt><trkpt lat="45.8387806" lon="9.2451149"><ele>345.0</ele><time>2026-03-29T16:19:37.95Z</time></trkpt><trkpt lat="45.8388266" lon="9.2453374"><ele>345.0</ele><time>2026-03-29T16:19:38.95Z</time></trkpt><trkpt lat="45.838876" lon="9.245558"><ele>345.0</ele><time>2026-03-29T16:19:39.95Z</time></trkpt><trkpt lat="45.8389344" lon="9.2457778"><ele>345.0</ele><time>2026-03-29T16:19:40.95Z</time></trkpt><trkpt lat="45.8390012" lon="9.245993"><ele>346.0</ele><time>2026-03-29T16:19:41.95Z</time></trkpt><trkpt lat="45.839076" lon="9.2462059"><ele>347.0</ele><time>2026-03-29T16:19:42.95Z</time></trkpt><trkpt lat="45.8391552" lon="9.2464154"><ele>348.0</ele><time>2026-03-29T16:19:43.949Z</time></trkpt><trkpt lat="45.8392339" lon="9.2466181"><ele>348.25</ele><time>2026-03-29T16:19:44.949Z</time></trkpt><trkpt lat="45.8393115" lon="9.2468098"><ele>348.5</ele><time>2026-03-29T16:19:45.949Z</time></trkpt><trkpt lat="45.8393818" lon="9.2469921"><ele>348.75</ele><time>2026-03-29T16:19:46.95Z</time></trkpt><trkpt lat="45.8394507" lon="9.2471544"><ele>349.0</ele><time>2026-03-29T16:19:47.95Z</time></trkpt><trkpt lat="45.8395106" lon="9.2473011"><ele>349.79999999999995</ele><time>2026-03-29T16:19:48.95Z</time></trkpt><trkpt lat="45.8395626" lon="9.2474271"><ele>350.59999999999997</ele><time>2026-03-29T16:19:49.95Z</time></trkpt><trkpt lat="45.8396139" lon="9.2475541"><ele>351.4</ele><time>2026-03-29T16:19:50.95Z</time></trkpt><trkpt lat="45.8396589" lon="9.2476939"><ele>352.2</ele><time>2026-03-29T16:19:51.95Z</time></trkpt><trkpt lat="45.8397067" lon="9.247842"><ele>353.0</ele><time>2026-03-29T16:19:52.949Z</time></trkpt><trkpt lat="45.8397532" lon="9.2479901"><ele>353.0</ele><time>2026-03-29T16:19:53.95Z</time></trkpt><trkpt lat="45.8397979" lon="9.2481267"><ele>353.0</ele><time>2026-03-29T16:19:54.95Z</time></trkpt><trkpt lat="45.8398396" lon="9.2482522"><ele>353.0</ele><time>2026-03-29T16:19:55.95Z</time></trkpt><trkpt lat="45.8398854" lon="9.2483762"><ele>353.0</ele><time>2026-03-29T16:19:56.95Z</time></trkpt><trkpt lat="45.8399334" lon="9.2484959"><ele>353.0</ele><time>2026-03-29T16:19:57.95Z</time></trkpt><trkpt lat="45.8399771" lon="9.2486056"><ele>353.0</ele><time>2026-03-29T16:19:58.95Z</time></trkpt><trkpt lat="45.8400157" lon="9.2487246"><ele>353.0</ele><time>2026-03-29T16:19:59.95Z</time></trkpt><trkpt lat="45.8400602" lon="9.2488272"><ele>353.0</ele><time>2026-03-29T16:20:01.949Z</time></trkpt><trkpt lat="45.8401214" lon="9.2488992"><ele>353.0</ele><time>2026-03-29T16:21:22.949Z</time></trkpt><trkpt lat="45.8401877" lon="9.2489964"><ele>353.0</ele><time>2026-03-29T16:21:24.95Z</time></trkpt><trkpt lat="45.8402596" lon="9.249139"><ele>352.6666666666667</ele><time>2026-03-29T16:21:26.95Z</time></trkpt><trkpt lat="45.8402959" lon="9.2492239"><ele>352.33333333333337</ele><time>2026-03-29T16:21:27.95Z</time></trkpt><trkpt lat="45.8403333" lon="9.2493128"><ele>352.0</ele><time>2026-03-29T16:21:28.95Z</time></trkpt><trkpt lat="45.8403713" lon="9.2494055"><ele>351.6666666666667</ele><time>2026-03-29T16:21:29.949Z</time></trkpt><trkpt lat="45.840412" lon="9.2495014"><ele>351.3333333333333</ele><time>2026-03-29T16:21:30.95Z</time></trkpt><trkpt lat="45.8404602" lon="9.2496066"><ele>351.0</ele><time>2026-03-29T16:21:31.95Z</time></trkpt><trkpt lat="45.8405084" lon="9.2497283"><ele>351.20000000000005</ele><time>2026-03-29T16:21:32.949Z</time></trkpt><trkpt lat="45.8405514" lon="9.2498412"><ele>351.40000000000003</ele><time>2026-03-29T16:21:33.95Z</time></trkpt><trkpt lat="45.840597" lon="9.2499534"><ele>351.6</ele><time>2026-03-29T16:21:34.95Z</time></trkpt><trkpt lat="45.8406401" lon="9.2500583"><ele>351.8</ele><time>2026-03-29T16:21:35.95Z</time></trkpt><trkpt lat="45.8406933" lon="9.2501929"><ele>352.0</ele><time>2026-03-29T16:21:36.948Z</time></trkpt><trkpt lat="45.8407548" lon="9.2503349"><ele>352.0</ele><time>2026-03-29T16:21:37.948Z</time></trkpt><trkpt lat="45.8408177" lon="9.2504723"><ele>352.0</ele><time>2026-03-29T16:21:38.949Z</time></trkpt><trkpt lat="45.8408757" lon="9.2505978"><ele>352.0</ele><time>2026-03-29T16:21:39.949Z</time></trkpt><trkpt lat="45.8409296" lon="9.2507157"><ele>352.0</ele><time>2026-03-29T16:21:40.949Z</time></trkpt><trkpt lat="45.8409883" lon="9.250834"><ele>352.0</ele><time>2026-03-29T16:21:41.948Z</time></trkpt><trkpt lat="45.8410496" lon="9.2509555"><ele>351.75</ele><time>2026-03-29T16:21:42.949Z</time></trkpt><trkpt lat="45.8411199" lon="9.2510756"><ele>351.5</ele><time>2026-03-29T16:21:43.949Z</time></trkpt><trkpt lat="45.8411979" lon="9.2511957"><ele>351.25</ele><time>2026-03-29T16:21:44.949Z</time></trkpt><trkpt lat="45.8412797" lon="9.251318"><ele>351.0</ele><time>2026-03-29T16:21:45.948Z</time></trkpt><trkpt lat="45.8413681" lon="9.2514414"><ele>351.75</ele><time>2026-03-29T16:21:46.949Z</time></trkpt><trkpt lat="45.8414611" lon="9.2515621"><ele>352.5</ele><time>2026-03-29T16:21:47.949Z</time></trkpt><trkpt lat="45.8415497" lon="9.251678"><ele>353.25</ele><time>2026-03-29T16:21:48.948Z</time></trkpt><trkpt lat="45.8416414" lon="9.251793"><ele>354.0</ele><time>2026-03-29T16:21:49.948Z</time></trkpt><trkpt lat="45.8417334" lon="9.2519047"><ele>354.0</ele><time>2026-03-29T16:21:50.949Z</time></trkpt><trkpt lat="45.8418232" lon="9.2520178"><ele>354.0</ele><time>2026-03-29T16:21:51.948Z</time></trkpt><trkpt lat="45.8419093" lon="9.2521325"><ele>354.0</ele><time>2026-03-29T16:21:52.948Z</time></trkpt><trkpt lat="45.8419973" lon="9.2522458"><ele>354.0</ele><time>2026-03-29T16:21:53.947Z</time></trkpt><trkpt lat="45.8420874" lon="9.2523592"><ele>353.75</ele><time>2026-03-29T16:21:54.948Z</time></trkpt><trkpt lat="45.8421806" lon="9.2524748"><ele>353.5</ele><time>2026-03-29T16:21:55.949Z</time></trkpt><trkpt lat="45.8422701" lon="9.2525892"><ele>353.25</ele><time>2026-03-29T16:21:56.948Z</time></trkpt><trkpt lat="45.8423502" lon="9.2526974"><ele>353.0</ele><time>2026-03-29T16:21:57.949Z</time></trkpt><trkpt lat="45.8424317" lon="9.2528111"><ele>353.0</ele><time>2026-03-29T16:21:58.948Z</time></trkpt><trkpt lat="45.8425065" lon="9.2529379"><ele>353.0</ele><time>2026-03-29T16:21:59.949Z</time></trkpt><trkpt lat="45.842577" lon="9.2530661"><ele>353.0</ele><time>2026-03-29T16:22:00.949Z</time></trkpt><trkpt lat="45.842645" lon="9.2531941"><ele>353.0</ele><time>2026-03-29T16:22:01.949Z</time></trkpt><trkpt lat="45.8427129" lon="9.2533153"><ele>353.79999999999995</ele><time>2026-03-29T16:22:02.949Z</time></trkpt><trkpt lat="45.8427825" lon="9.2534305"><ele>354.6</ele><time>2026-03-29T16:22:03.949Z</time></trkpt><trkpt lat="45.8428611" lon="9.2535365"><ele>355.4</ele><time>2026-03-29T16:22:04.949Z</time></trkpt><trkpt lat="45.84295" lon="9.2536334"><ele>356.20000000000005</ele><time>2026-03-29T16:22:05.949Z</time></trkpt><trkpt lat="45.8430535" lon="9.2537236"><ele>357.0</ele><time>2026-03-29T16:22:06.949Z</time></trkpt><trkpt lat="45.8431661" lon="9.2538192"><ele>357.0</ele><time>2026-03-29T16:22:07.948Z</time></trkpt><trkpt lat="45.8432791" lon="9.2539093"><ele>357.0</ele><time>2026-03-29T16:22:08.949Z</time></trkpt><trkpt lat="45.8433916" lon="9.2540025"><ele>357.0</ele><time>2026-03-29T16:22:09.948Z</time></trkpt><trkpt lat="45.8434996" lon="9.2541022"><ele>357.0</ele><time>2026-03-29T16:22:10.949Z</time></trkpt><trkpt lat="45.8436115" lon="9.2542086"><ele>356.75</ele><time>2026-03-29T16:22:11.948Z</time></trkpt><trkpt lat="45.8437231" lon="9.2543207"><ele>356.5</ele><time>2026-03-29T16:22:12.948Z</time></trkpt><trkpt lat="45.8438348" lon="9.2544409"><ele>356.25</ele><time>2026-03-29T16:22:13.949Z</time></trkpt><trkpt lat="45.8439539" lon="9.2545674"><ele>356.0</ele><time>2026-03-29T16:22:14.948Z</time></trkpt><trkpt lat="45.8440669" lon="9.2546916"><ele>356.25</ele><time>2026-03-29T16:22:15.949Z</time></trkpt><trkpt lat="45.8441717" lon="9.254806"><ele>356.5</ele><time>2026-03-29T16:22:16.949Z</time></trkpt><trkpt lat="45.8442683" lon="9.2549116"><ele>356.75</ele><time>2026-03-29T16:22:17.948Z</time></trkpt><trkpt lat="45.8443585" lon="9.2550067"><ele>357.0</ele><time>2026-03-29T16:22:18.949Z</time></trkpt><trkpt lat="45.844442" lon="9.2550934"><ele>357.5</ele><time>2026-03-29T16:22:19.948Z</time></trkpt><trkpt lat="45.8445165" lon="9.2551749"><ele>358.0</ele><time>2026-03-29T16:22:20.948Z</time></trkpt><trkpt lat="45.8445875" lon="9.2552476"><ele>358.5</ele><time>2026-03-29T16:22:21.949Z</time></trkpt><trkpt lat="45.8446519" lon="9.2553191"><ele>359.0</ele><time>2026-03-29T16:22:22.949Z</time></trkpt><trkpt lat="45.8447094" lon="9.2553824"><ele>359.5</ele><time>2026-03-29T16:22:23.948Z</time></trkpt><trkpt lat="45.8447636" lon="9.2554401"><ele>360.0</ele><time>2026-03-29T16:22:24.948Z</time></trkpt><trkpt lat="45.8448608" lon="9.2555491"><ele>360.0</ele><time>2026-03-29T16:22:26.949Z</time></trkpt><trkpt lat="45.8449469" lon="9.2556458"><ele>360.0</ele><time>2026-03-29T16:22:28.949Z</time></trkpt><trkpt lat="45.8450363" lon="9.2557389"><ele>360.0</ele><time>2026-03-29T16:22:30.949Z</time></trkpt><trkpt lat="45.8451192" lon="9.2558272"><ele>360.0</ele><time>2026-03-29T16:22:32.947Z</time></trkpt><trkpt lat="45.8451809" lon="9.2558871"><ele>360.0</ele><time>2026-03-29T16:22:34.948Z</time></trkpt><trkpt lat="45.845258" lon="9.2559649"><ele>360.0</ele><time>2026-03-29T16:22:37.948Z</time></trkpt><trkpt lat="45.8453414" lon="9.2560599"><ele>360.0</ele><time>2026-03-29T16:22:39.949Z</time></trkpt><trkpt lat="45.8453944" lon="9.2561145"><ele>360.0</ele><time>2026-03-29T16:22:40.949Z</time></trkpt><trkpt lat="45.8454916" lon="9.2562048"><ele>360.0</ele><time>2026-03-29T16:22:42.949Z</time></trkpt><trkpt lat="45.8455544" lon="9.2562492"><ele>360.0</ele><time>2026-03-29T16:22:43.949Z</time></trkpt><trkpt lat="45.8456172" lon="9.2562876"><ele>360.0</ele><time>2026-03-29T16:22:44.948Z</time></trkpt><trkpt lat="45.845682" lon="9.2563243"><ele>360.0</ele><time>2026-03-29T16:22:45.948Z</time></trkpt><trkpt lat="45.8457377" lon="9.2563834"><ele>360.0</ele><time>2026-03-29T16:22:46.949Z</time></trkpt><trkpt lat="45.8457826" lon="9.2564556"><ele>360.0</ele><time>2026-03-29T16:22:47.949Z</time></trkpt><trkpt lat="45.8458251" lon="9.2565364"><ele>360.0</ele><time>2026-03-29T16:22:48.949Z</time></trkpt><trkpt lat="45.8458711" lon="9.2566207"><ele>360.0</ele><time>2026-03-29T16:22:49.949Z</time></trkpt><trkpt lat="45.8459324" lon="9.2567115"><ele>360.0</ele><time>2026-03-29T16:22:50.947Z</time></trkpt><trkpt lat="45.8460009" lon="9.2567982"><ele>360.5</ele><time>2026-03-29T16:22:51.949Z</time></trkpt><trkpt lat="45.8460627" lon="9.2568711"><ele>361.0</ele><time>2026-03-29T16:22:52.949Z</time></trkpt><trkpt lat="45.8461279" lon="9.2569491"><ele>361.5</ele><time>2026-03-29T16:22:53.948Z</time></trkpt><trkpt lat="45.8461983" lon="9.2570254"><ele>362.0</ele><time>2026-03-29T16:22:54.947Z</time></trkpt><trkpt lat="45.8462714" lon="9.2571075"><ele>362.5</ele><time>2026-03-29T16:22:55.949Z</time></trkpt><trkpt lat="45.8463495" lon="9.2571913"><ele>363.0</ele><time>2026-03-29T16:22:56.948Z</time></trkpt><trkpt lat="45.846433" lon="9.2572819"><ele>363.4</ele><time>2026-03-29T16:22:57.948Z</time></trkpt><trkpt lat="45.8465252" lon="9.2573815"><ele>363.79999999999995</ele><time>2026-03-29T16:22:58.948Z</time></trkpt><trkpt lat="45.8466091" lon="9.2574799"><ele>364.2</ele><time>2026-03-29T16:22:59.948Z</time></trkpt><trkpt lat="45.8466904" lon="9.2575786"><ele>364.6</ele><time>2026-03-29T16:23:00.949Z</time></trkpt><trkpt lat="45.8467741" lon="9.257686"><ele>365.0</ele><time>2026-03-29T16:23:01.949Z</time></trkpt><trkpt lat="45.8468603" lon="9.2577982"><ele>365.0</ele><time>2026-03-29T16:23:02.949Z</time></trkpt><trkpt lat="45.8469422" lon="9.2579238"><ele>365.0</ele><time>2026-03-29T16:23:03.949Z</time></trkpt><trkpt lat="45.8470254" lon="9.2580643"><ele>365.0</ele><time>2026-03-29T16:23:04.949Z</time></trkpt><trkpt lat="45.8471116" lon="9.2582216"><ele>365.0</ele><time>2026-03-29T16:23:05.949Z</time></trkpt><trkpt lat="45.8471909" lon="9.2583779"><ele>366.0</ele><time>2026-03-29T16:23:06.948Z</time></trkpt><trkpt lat="45.8472651" lon="9.2585297"><ele>367.0</ele><time>2026-03-29T16:23:07.949Z</time></trkpt><trkpt lat="45.8473374" lon="9.2586861"><ele>368.0</ele><time>2026-03-29T16:23:08.949Z</time></trkpt><trkpt lat="45.8474125" lon="9.2588477"><ele>369.0</ele><time>2026-03-29T16:23:09.948Z</time></trkpt><trkpt lat="45.8474929" lon="9.2590124"><ele>368.3333333333333</ele><time>2026-03-29T16:23:10.948Z</time></trkpt><trkpt lat="45.8475743" lon="9.2591836"><ele>367.66666666666663</ele><time>2026-03-29T16:23:11.948Z</time></trkpt><trkpt lat="45.8476568" lon="9.2593638"><ele>367.0</ele><time>2026-03-29T16:23:12.948Z</time></trkpt><trkpt lat="45.8477438" lon="9.2595562"><ele>367.0</ele><time>2026-03-29T16:23:13.949Z</time></trkpt><trkpt lat="45.8478307" lon="9.2597466"><ele>367.0</ele><time>2026-03-29T16:23:14.949Z</time></trkpt><trkpt lat="45.8479159" lon="9.2599244"><ele>367.0</ele><time>2026-03-29T16:23:15.949Z</time></trkpt><trkpt lat="45.8480015" lon="9.2601009"><ele>366.3333333333333</ele><time>2026-03-29T16:23:16.948Z</time></trkpt><trkpt lat="45.8480876" lon="9.2602822"><ele>365.6666666666667</ele><time>2026-03-29T16:23:17.949Z</time></trkpt><trkpt lat="45.8481758" lon="9.2604677"><ele>365.0</ele><time>2026-03-29T16:23:18.949Z</time></trkpt><trkpt lat="45.8482667" lon="9.2606545"><ele>367.0</ele><time>2026-03-29T16:23:19.949Z</time></trkpt><trkpt lat="45.8483585" lon="9.2608461"><ele>369.0</ele><time>2026-03-29T16:23:20.949Z</time></trkpt><trkpt lat="45.8484529" lon="9.2610386"><ele>371.0</ele><time>2026-03-29T16:23:21.949Z</time></trkpt><trkpt lat="45.8485458" lon="9.2612331"><ele>371.0</ele><time>2026-03-29T16:23:22.949Z</time></trkpt><trkpt lat="45.84864" lon="9.2614273"><ele>371.0</ele><time>2026-03-29T16:23:23.949Z</time></trkpt><trkpt lat="45.8487347" lon="9.2616234"><ele>371.0</ele><time>2026-03-29T16:23:24.948Z</time></trkpt><trkpt lat="45.8488323" lon="9.2618195"><ele>371.0</ele><time>2026-03-29T16:23:25.949Z</time></trkpt><trkpt lat="45.8489368" lon="9.2620139"><ele>371.0</ele><time>2026-03-29T16:23:26.949Z</time></trkpt><trkpt lat="45.8490507" lon="9.2622038"><ele>371.0</ele><time>2026-03-29T16:23:27.948Z</time></trkpt><trkpt lat="45.8491711" lon="9.2623897"><ele>371.33333333333337</ele><time>2026-03-29T16:23:28.948Z</time></trkpt><trkpt lat="45.8493002" lon="9.2625756"><ele>371.6666666666667</ele><time>2026-03-29T16:23:29.948Z</time></trkpt><trkpt lat="45.8494367" lon="9.2627628"><ele>372.0</ele><time>2026-03-29T16:23:30.949Z</time></trkpt><trkpt lat="45.8495768" lon="9.2629458"><ele>374.6666666666667</ele><time>2026-03-29T16:23:31.949Z</time></trkpt><trkpt lat="45.8497121" lon="9.2631252"><ele>377.33333333333337</ele><time>2026-03-29T16:23:32.949Z</time></trkpt><trkpt lat="45.8498428" lon="9.2633028"><ele>380.0</ele><time>2026-03-29T16:23:33.949Z</time></trkpt><trkpt lat="45.8499687" lon="9.2634836"><ele>380.0</ele><time>2026-03-29T16:23:34.948Z</time></trkpt><trkpt lat="45.8500929" lon="9.2636673"><ele>380.0</ele><time>2026-03-29T16:23:35.948Z</time></trkpt><trkpt lat="45.8502128" lon="9.2638551"><ele>380.0</ele><time>2026-03-29T16:23:36.947Z</time></trkpt><trkpt lat="45.8503304" lon="9.2640449"><ele>379.0</ele><time>2026-03-29T16:23:37.948Z</time></trkpt><trkpt lat="45.8504507" lon="9.2642372"><ele>378.0</ele><time>2026-03-29T16:23:38.949Z</time></trkpt><trkpt lat="45.8505719" lon="9.2644303"><ele>377.0</ele><time>2026-03-29T16:23:39.949Z</time></trkpt><trkpt lat="45.8506938" lon="9.2646253"><ele>377.0</ele><time>2026-03-29T16:23:40.949Z</time></trkpt><trkpt lat="45.8508139" lon="9.2648244"><ele>377.0</ele><time>2026-03-29T16:23:41.948Z</time></trkpt><trkpt lat="45.8509398" lon="9.2650254"><ele>377.0</ele><time>2026-03-29T16:23:42.948Z</time></trkpt><trkpt lat="45.8510638" lon="9.265227"><ele>377.0</ele><time>2026-03-29T16:23:43.948Z</time></trkpt><trkpt lat="45.8511863" lon="9.2654274"><ele>377.0</ele><time>2026-03-29T16:23:44.948Z</time></trkpt><trkpt lat="45.8513105" lon="9.2656327"><ele>377.0</ele><time>2026-03-29T16:23:45.949Z</time></trkpt><trkpt lat="45.851437" lon="9.2658384"><ele>378.0</ele><time>2026-03-29T16:23:46.949Z</time></trkpt><trkpt lat="45.8515592" lon="9.2660396"><ele>379.0</ele><time>2026-03-29T16:23:47.949Z</time></trkpt><trkpt lat="45.8516706" lon="9.2662309"><ele>380.0</ele><time>2026-03-29T16:23:48.949Z</time></trkpt><trkpt lat="45.8517823" lon="9.2664158"><ele>380.0</ele><time>2026-03-29T16:23:49.948Z</time></trkpt><trkpt lat="45.8518858" lon="9.2665949"><ele>380.0</ele><time>2026-03-29T16:23:50.949Z</time></trkpt><trkpt lat="45.85199" lon="9.2667774"><ele>380.0</ele><time>2026-03-29T16:23:51.948Z</time></trkpt><trkpt lat="45.8520829" lon="9.2669506"><ele>380.0</ele><time>2026-03-29T16:23:52.948Z</time></trkpt><trkpt lat="45.8521725" lon="9.2671169"><ele>380.0</ele><time>2026-03-29T16:23:53.948Z</time></trkpt><trkpt lat="45.8522521" lon="9.2672669"><ele>380.0</ele><time>2026-03-29T16:23:54.949Z</time></trkpt><trkpt lat="45.8523403" lon="9.2674307"><ele>380.0</ele><time>2026-03-29T16:23:55.949Z</time></trkpt><trkpt lat="45.8524213" lon="9.2675846"><ele>381.0</ele><time>2026-03-29T16:23:56.948Z</time></trkpt><trkpt lat="45.85251" lon="9.2677608"><ele>382.0</ele><time>2026-03-29T16:23:57.949Z</time></trkpt><trkpt lat="45.8525986" lon="9.2679299"><ele>383.0</ele><time>2026-03-29T16:23:58.948Z</time></trkpt><trkpt lat="45.8526847" lon="9.2681064"><ele>384.0</ele><time>2026-03-29T16:23:59.949Z</time></trkpt><trkpt lat="45.8527728" lon="9.2682725"><ele>384.0</ele><time>2026-03-29T16:24:00.949Z</time></trkpt><trkpt lat="45.8528538" lon="9.2684316"><ele>384.0</ele><time>2026-03-29T16:24:01.949Z</time></trkpt><trkpt lat="45.8529263" lon="9.2685872"><ele>384.0</ele><time>2026-03-29T16:24:02.949Z</time></trkpt><trkpt lat="45.8529969" lon="9.2687494"><ele>384.0</ele><time>2026-03-29T16:24:03.948Z</time></trkpt><trkpt lat="45.8530629" lon="9.2689151"><ele>384.5</ele><time>2026-03-29T16:24:04.949Z</time></trkpt><trkpt lat="45.8531187" lon="9.269087"><ele>385.0</ele><time>2026-03-29T16:24:05.949Z</time></trkpt><trkpt lat="45.8531626" lon="9.2692612"><ele>385.5</ele><time>2026-03-29T16:24:06.948Z</time></trkpt><trkpt lat="45.853196" lon="9.2694363"><ele>386.0</ele><time>2026-03-29T16:24:07.948Z</time></trkpt><trkpt lat="45.8532162" lon="9.2696103"><ele>386.0</ele><time>2026-03-29T16:24:08.947Z</time></trkpt><trkpt lat="45.8532178" lon="9.2697672"><ele>386.0</ele><time>2026-03-29T16:24:09.947Z</time></trkpt><trkpt lat="45.8532183" lon="9.2699192"><ele>386.0</ele><time>2026-03-29T16:24:10.949Z</time></trkpt><trkpt lat="45.8532105" lon="9.2700738"><ele>386.0</ele><time>2026-03-29T16:24:11.948Z</time></trkpt><trkpt lat="45.8531974" lon="9.2702304"><ele>386.0</ele><time>2026-03-29T16:24:12.948Z</time></trkpt><trkpt lat="45.8531772" lon="9.2703887"><ele>387.25</ele><time>2026-03-29T16:24:13.948Z</time></trkpt><trkpt lat="45.8531483" lon="9.2705465"><ele>388.5</ele><time>2026-03-29T16:24:14.949Z</time></trkpt><trkpt lat="45.8531146" lon="9.2707082"><ele>389.75</ele><time>2026-03-29T16:24:15.948Z</time></trkpt><trkpt lat="45.8530847" lon="9.2708658"><ele>391.0</ele><time>2026-03-29T16:24:16.948Z</time></trkpt><trkpt lat="45.8530599" lon="9.2710146"><ele>391.1666666666667</ele><time>2026-03-29T16:24:17.949Z</time></trkpt><trkpt lat="45.853042" lon="9.2711593"><ele>391.33333333333337</ele><time>2026-03-29T16:24:18.949Z</time></trkpt><trkpt lat="45.8530335" lon="9.2712925"><ele>391.5</ele><time>2026-03-29T16:24:19.949Z</time></trkpt><trkpt lat="45.8530331" lon="9.2714197"><ele>391.66666666666663</ele><time>2026-03-29T16:24:20.948Z</time></trkpt><trkpt lat="45.8530363" lon="9.2715345"><ele>391.8333333333333</ele><time>2026-03-29T16:24:21.948Z</time></trkpt><trkpt lat="45.8530413" lon="9.2716331"><ele>392.0</ele><time>2026-03-29T16:24:22.948Z</time></trkpt><trkpt lat="45.8530566" lon="9.2717929"><ele>391.6</ele><time>2026-03-29T16:24:24.949Z</time></trkpt><trkpt lat="45.8530755" lon="9.2719178"><ele>391.20000000000005</ele><time>2026-03-29T16:24:26.949Z</time></trkpt><trkpt lat="45.8531002" lon="9.2720489"><ele>390.8</ele><time>2026-03-29T16:24:28.948Z</time></trkpt><trkpt lat="45.8531391" lon="9.2721956"><ele>390.4</ele><time>2026-03-29T16:24:30.949Z</time></trkpt><trkpt lat="45.8532388" lon="9.2722492"><ele>390.0</ele><time>2026-03-29T16:24:32.948Z</time></trkpt><trkpt lat="45.8533592" lon="9.2721682"><ele>390.0</ele><time>2026-03-29T16:24:34.949Z</time></trkpt><trkpt lat="45.8534199" lon="9.2721191"><ele>390.0</ele><time>2026-03-29T16:24:35.949Z</time></trkpt><trkpt lat="45.8534836" lon="9.2720698"><ele>390.0</ele><time>2026-03-29T16:24:36.948Z</time></trkpt><trkpt lat="45.8535465" lon="9.2720263"><ele>390.0</ele><time>2026-03-29T16:24:37.948Z</time></trkpt><trkpt lat="45.8536121" lon="9.2719798"><ele>390.0</ele><time>2026-03-29T16:24:38.948Z</time></trkpt><trkpt lat="45.8536807" lon="9.2719298"><ele>390.0</ele><time>2026-03-29T16:24:39.949Z</time></trkpt><trkpt lat="45.8537538" lon="9.2718793"><ele>390.0</ele><time>2026-03-29T16:24:40.949Z</time></trkpt><trkpt lat="45.853825" lon="9.271829"><ele>389.25</ele><time>2026-03-29T16:24:41.949Z</time></trkpt><trkpt lat="45.8538943" lon="9.2717834"><ele>388.5</ele><time>2026-03-29T16:24:42.948Z</time></trkpt><trkpt lat="45.8539615" lon="9.271728"><ele>387.75</ele><time>2026-03-29T16:24:43.948Z</time></trkpt><trkpt lat="45.8541294" lon="9.2715932"><ele>387.0</ele><time>2026-03-29T16:24:45.949Z</time></trkpt><trkpt lat="45.8542148" lon="9.2715048"><ele>388.0</ele><time>2026-03-29T16:24:46.948Z</time></trkpt><trkpt lat="45.8543001" lon="9.2714013"><ele>389.0</ele><time>2026-03-29T16:24:47.948Z</time></trkpt><trkpt lat="45.8543795" lon="9.2712999"><ele>390.0</ele><time>2026-03-29T16:24:48.949Z</time></trkpt><trkpt lat="45.8544481" lon="9.2711816"><ele>391.0</ele><time>2026-03-29T16:24:49.948Z</time></trkpt><trkpt lat="45.8545155" lon="9.2710508"><ele>392.0</ele><time>2026-03-29T16:24:50.948Z</time></trkpt><trkpt lat="45.8545806" lon="9.2708959"><ele>392.0</ele><time>2026-03-29T16:24:51.948Z</time></trkpt><trkpt lat="45.8546423" lon="9.2707313"><ele>392.0</ele><time>2026-03-29T16:24:52.949Z</time></trkpt><trkpt lat="45.8547023" lon="9.270577"><ele>392.0</ele><time>2026-03-29T16:24:53.949Z</time></trkpt><trkpt lat="45.8547589" lon="9.2704259"><ele>392.0</ele><time>2026-03-29T16:24:54.948Z</time></trkpt><trkpt lat="45.8548161" lon="9.270274"><ele>391.0</ele><time>2026-03-29T16:24:55.948Z</time></trkpt><trkpt lat="45.8548737" lon="9.2701224"><ele>390.0</ele><time>2026-03-29T16:24:56.947Z</time></trkpt><trkpt lat="45.8549304" lon="9.2699739"><ele>389.0</ele><time>2026-03-29T16:24:57.948Z</time></trkpt><trkpt lat="45.8549853" lon="9.269828"><ele>388.0</ele><time>2026-03-29T16:24:58.949Z</time></trkpt><trkpt lat="45.8550383" lon="9.2696949"><ele>387.79999999999995</ele><time>2026-03-29T16:24:59.949Z</time></trkpt><trkpt lat="45.8551041" lon="9.2695828"><ele>387.6</ele><time>2026-03-29T16:25:00.949Z</time></trkpt><trkpt lat="45.855182" lon="9.2694867"><ele>387.4</ele><time>2026-03-29T16:25:01.947Z</time></trkpt><trkpt lat="45.8552784" lon="9.2694207"><ele>387.20000000000005</ele><time>2026-03-29T16:25:02.948Z</time></trkpt><trkpt lat="45.8553818" lon="9.2693817"><ele>387.0</ele><time>2026-03-29T16:25:03.949Z</time></trkpt><trkpt lat="45.8554879" lon="9.2693583"><ele>387.0</ele><time>2026-03-29T16:25:04.948Z</time></trkpt><trkpt lat="45.8556291" lon="9.2693761"><ele>387.0</ele><time>2026-03-29T16:25:05.949Z</time></trkpt><trkpt lat="45.855763" lon="9.2694094"><ele>387.0</ele><time>2026-03-29T16:25:06.949Z</time></trkpt><trkpt lat="45.8559001" lon="9.2694439"><ele>387.0</ele><time>2026-03-29T16:25:07.948Z</time></trkpt><trkpt lat="45.8560453" lon="9.2694768"><ele>387.75</ele><time>2026-03-29T16:25:08.948Z</time></trkpt><trkpt lat="45.8561819" lon="9.2695138"><ele>388.5</ele><time>2026-03-29T16:25:09.948Z</time></trkpt><trkpt lat="45.8563103" lon="9.2695745"><ele>389.25</ele><time>2026-03-29T16:25:10.948Z</time></trkpt><trkpt lat="45.8564323" lon="9.26963"><ele>390.0</ele><time>2026-03-29T16:25:11.948Z</time></trkpt><trkpt lat="45.8565422" lon="9.2696816"><ele>390.0</ele><time>2026-03-29T16:25:12.948Z</time></trkpt><trkpt lat="45.8566516" lon="9.269729"><ele>390.0</ele><time>2026-03-29T16:25:13.948Z</time></trkpt><trkpt lat="45.856759" lon="9.2697734"><ele>390.0</ele><time>2026-03-29T16:25:14.948Z</time></trkpt><trkpt lat="45.8568745" lon="9.2697995"><ele>390.0</ele><time>2026-03-29T16:25:15.949Z</time></trkpt><trkpt lat="45.8569996" lon="9.269806"><ele>390.75</ele><time>2026-03-29T16:25:16.949Z</time></trkpt><trkpt lat="45.8571259" lon="9.2697962"><ele>391.5</ele><time>2026-03-29T16:25:17.947Z</time></trkpt><trkpt lat="45.8572523" lon="9.2697849"><ele>392.25</ele><time>2026-03-29T16:25:18.949Z</time></trkpt><trkpt lat="45.8573821" lon="9.2697658"><ele>393.0</ele><time>2026-03-29T16:25:19.949Z</time></trkpt><trkpt lat="45.857495" lon="9.2697416"><ele>393.0</ele><time>2026-03-29T16:25:20.949Z</time></trkpt><trkpt lat="45.8576071" lon="9.2697206"><ele>393.0</ele><time>2026-03-29T16:25:21.949Z</time></trkpt><trkpt lat="45.8577109" lon="9.2697014"><ele>393.0</ele><time>2026-03-29T16:25:22.949Z</time></trkpt><trkpt lat="45.8578153" lon="9.269688"><ele>393.0</ele><time>2026-03-29T16:25:23.948Z</time></trkpt><trkpt lat="45.8579112" lon="9.2696837"><ele>393.0</ele><time>2026-03-29T16:25:24.949Z</time></trkpt><trkpt lat="45.8580095" lon="9.2696774"><ele>393.5</ele><time>2026-03-29T16:25:25.948Z</time></trkpt><trkpt lat="45.858117" lon="9.2696742"><ele>394.0</ele><time>2026-03-29T16:25:26.949Z</time></trkpt><trkpt lat="45.8582274" lon="9.2696779"><ele>394.5</ele><time>2026-03-29T16:25:27.949Z</time></trkpt><trkpt lat="45.8583414" lon="9.2696932"><ele>395.0</ele><time>2026-03-29T16:25:28.949Z</time></trkpt><trkpt lat="45.8584573" lon="9.2697221"><ele>396.5</ele><time>2026-03-29T16:25:29.949Z</time></trkpt><trkpt lat="45.8585726" lon="9.2697476"><ele>398.0</ele><time>2026-03-29T16:25:30.948Z</time></trkpt><trkpt lat="45.8586912" lon="9.2697597"><ele>399.5</ele><time>2026-03-29T16:25:31.949Z</time></trkpt><trkpt lat="45.8588114" lon="9.2697465"><ele>401.0</ele><time>2026-03-29T16:25:32.949Z</time></trkpt><trkpt lat="45.858929" lon="9.2697199"><ele>401.0</ele><time>2026-03-29T16:25:33.948Z</time></trkpt><trkpt lat="45.8590408" lon="9.269687"><ele>401.0</ele><time>2026-03-29T16:25:34.948Z</time></trkpt><trkpt lat="45.8591452" lon="9.2696423"><ele>401.0</ele><time>2026-03-29T16:25:35.949Z</time></trkpt><trkpt lat="45.8592569" lon="9.269554"><ele>401.0</ele><time>2026-03-29T16:25:36.949Z</time></trkpt><trkpt lat="45.8593518" lon="9.2694707"><ele>402.8</ele><time>2026-03-29T16:25:37.949Z</time></trkpt><trkpt lat="45.8594514" lon="9.2693965"><ele>404.6</ele><time>2026-03-29T16:25:38.948Z</time></trkpt><trkpt lat="45.8595495" lon="9.2693264"><ele>406.4</ele><time>2026-03-29T16:25:39.947Z</time></trkpt><trkpt lat="45.8596392" lon="9.2692536"><ele>408.2</ele><time>2026-03-29T16:25:40.949Z</time></trkpt><trkpt lat="45.859715" lon="9.269175"><ele>410.0</ele><time>2026-03-29T16:25:41.949Z</time></trkpt><trkpt lat="45.8597693" lon="9.2690849"><ele>410.0</ele><time>2026-03-29T16:25:42.948Z</time></trkpt><trkpt lat="45.8598145" lon="9.2690026"><ele>410.0</ele><time>2026-03-29T16:25:43.949Z</time></trkpt><trkpt lat="45.8598967" lon="9.26886"><ele>410.0</ele><time>2026-03-29T16:25:45.948Z</time></trkpt><trkpt lat="45.8599483" lon="9.2687997"><ele>410.0</ele><time>2026-03-29T16:25:46.947Z</time></trkpt><trkpt lat="45.8600818" lon="9.2687676"><ele>410.0</ele><time>2026-03-29T16:25:48.948Z</time></trkpt><trkpt lat="45.8601494" lon="9.2687874"><ele>410.16666666666663</ele><time>2026-03-29T16:25:49.949Z</time></trkpt><trkpt lat="45.8602044" lon="9.2688342"><ele>410.3333333333333</ele><time>2026-03-29T16:25:50.949Z</time></trkpt><trkpt lat="45.8602569" lon="9.2689261"><ele>410.5</ele><time>2026-03-29T16:25:51.948Z</time></trkpt><trkpt lat="45.860268" lon="9.2690239"><ele>410.66666666666663</ele><time>2026-03-29T16:25:52.947Z</time></trkpt><trkpt lat="45.8602973" lon="9.2691211"><ele>410.8333333333333</ele><time>2026-03-29T16:25:53.948Z</time></trkpt><trkpt lat="45.8603216" lon="9.2692105"><ele>411.0</ele><time>2026-03-29T16:25:54.948Z</time></trkpt><trkpt lat="45.8604153" lon="9.2693387"><ele>411.0</ele><time>2026-03-29T16:25:56.949Z</time></trkpt><trkpt lat="45.8605376" lon="9.2693695"><ele>411.0</ele><time>2026-03-29T16:25:58.949Z</time></trkpt><trkpt lat="45.8606227" lon="9.2693646"><ele>411.0</ele><time>2026-03-29T16:25:59.949Z</time></trkpt><trkpt lat="45.8607372" lon="9.2693763"><ele>411.0</ele><time>2026-03-29T16:26:00.949Z</time></trkpt><trkpt lat="45.8608229" lon="9.2693933"><ele>411.0</ele><time>2026-03-29T16:26:01.948Z</time></trkpt><trkpt lat="45.8609014" lon="9.2694272"><ele>411.5</ele><time>2026-03-29T16:26:02.949Z</time></trkpt><trkpt lat="45.8609758" lon="9.2694622"><ele>412.0</ele><time>2026-03-29T16:26:03.949Z</time></trkpt><trkpt lat="45.861045" lon="9.269488"><ele>412.5</ele><time>2026-03-29T16:26:04.949Z</time></trkpt><trkpt lat="45.8611632" lon="9.2695343"><ele>413.0</ele><time>2026-03-29T16:26:06.949Z</time></trkpt><trkpt lat="45.8612333" lon="9.2695469"><ele>413.5</ele><time>2026-03-29T16:26:08.949Z</time></trkpt><trkpt lat="45.8612956" lon="9.2695633"><ele>414.0</ele><time>2026-03-29T16:26:12.949Z</time></trkpt><trkpt lat="45.8613827" lon="9.269575"><ele>414.0</ele><time>2026-03-29T16:26:14.949Z</time></trkpt><trkpt lat="45.8614826" lon="9.2696671"><ele>414.0</ele><time>2026-03-29T16:26:16.949Z</time></trkpt><trkpt lat="45.8615221" lon="9.2697483"><ele>414.0</ele><time>2026-03-29T16:26:17.949Z</time></trkpt><trkpt lat="45.8615627" lon="9.2698473"><ele>414.0</ele><time>2026-03-29T16:26:18.949Z</time></trkpt><trkpt lat="45.8615996" lon="9.2699732"><ele>414.0</ele><time>2026-03-29T16:26:19.949Z</time></trkpt><trkpt lat="45.8616291" lon="9.2700987"><ele>415.0</ele><time>2026-03-29T16:26:20.949Z</time></trkpt><trkpt lat="45.8616406" lon="9.2702124"><ele>416.0</ele><time>2026-03-29T16:26:21.949Z</time></trkpt><trkpt lat="45.8616457" lon="9.2703247"><ele>417.0</ele><time>2026-03-29T16:26:22.949Z</time></trkpt><trkpt lat="45.8616543" lon="9.27044"><ele>418.0</ele><time>2026-03-29T16:26:23.948Z</time></trkpt><trkpt lat="45.8616657" lon="9.2705547"><ele>419.0</ele><time>2026-03-29T16:26:24.949Z</time></trkpt><trkpt lat="45.8616779" lon="9.2706679"><ele>420.0</ele><time>2026-03-29T16:26:25.948Z</time></trkpt><trkpt lat="45.8616948" lon="9.270792"><ele>420.4</ele><time>2026-03-29T16:26:26.949Z</time></trkpt><trkpt lat="45.8617085" lon="9.2709098"><ele>420.8</ele><time>2026-03-29T16:26:27.949Z</time></trkpt><trkpt lat="45.8617354" lon="9.2710672"><ele>421.20000000000005</ele><time>2026-03-29T16:26:28.949Z</time></trkpt><trkpt lat="45.8617578" lon="9.2712304"><ele>421.6</ele><time>2026-03-29T16:26:29.949Z</time></trkpt><trkpt lat="45.8617746" lon="9.2713903"><ele>422.0</ele><time>2026-03-29T16:26:30.949Z</time></trkpt><trkpt lat="45.861796" lon="9.2715328"><ele>421.6</ele><time>2026-03-29T16:26:31.949Z</time></trkpt><trkpt lat="45.8618146" lon="9.2716804"><ele>421.20000000000005</ele><time>2026-03-29T16:26:32.948Z</time></trkpt><trkpt lat="45.8618319" lon="9.2718305"><ele>420.8</ele><time>2026-03-29T16:26:33.949Z</time></trkpt><trkpt lat="45.8618428" lon="9.2719845"><ele>420.4</ele><time>2026-03-29T16:26:34.949Z</time></trkpt><trkpt lat="45.8618542" lon="9.2721397"><ele>420.0</ele><time>2026-03-29T16:26:35.949Z</time></trkpt><trkpt lat="45.861863" lon="9.2723039"><ele>420.0</ele><time>2026-03-29T16:26:36.948Z</time></trkpt><trkpt lat="45.8618676" lon="9.2724779"><ele>420.0</ele><time>2026-03-29T16:26:37.948Z</time></trkpt><trkpt lat="45.8618709" lon="9.27266"><ele>420.0</ele><time>2026-03-29T16:26:38.948Z</time></trkpt><trkpt lat="45.8618748" lon="9.272855"><ele>420.0</ele><time>2026-03-29T16:26:39.949Z</time></trkpt><trkpt lat="45.8618786" lon="9.2730576"><ele>421.0</ele><time>2026-03-29T16:26:40.948Z</time></trkpt><trkpt lat="45.8618837" lon="9.2732411"><ele>422.0</ele><time>2026-03-29T16:26:41.948Z</time></trkpt><trkpt lat="45.8618874" lon="9.2734193"><ele>423.0</ele><time>2026-03-29T16:26:42.947Z</time></trkpt><trkpt lat="45.8618906" lon="9.2735937"><ele>424.0</ele><time>2026-03-29T16:26:43.948Z</time></trkpt><trkpt lat="45.8618958" lon="9.2737701"><ele>425.25</ele><time>2026-03-29T16:26:44.949Z</time></trkpt><trkpt lat="45.8618984" lon="9.2739451"><ele>426.5</ele><time>2026-03-29T16:26:45.949Z</time></trkpt><trkpt lat="45.8619022" lon="9.2741218"><ele>427.75</ele><time>2026-03-29T16:26:46.947Z</time></trkpt><trkpt lat="45.861908" lon="9.2743025"><ele>429.0</ele><time>2026-03-29T16:26:47.949Z</time></trkpt><trkpt lat="45.8619148" lon="9.274484"><ele>429.0</ele><time>2026-03-29T16:26:48.948Z</time></trkpt><trkpt lat="45.8619309" lon="9.2746601"><ele>429.0</ele><time>2026-03-29T16:26:49.948Z</time></trkpt><trkpt lat="45.8619615" lon="9.2748358"><ele>429.0</ele><time>2026-03-29T16:26:50.949Z</time></trkpt><trkpt lat="45.8620017" lon="9.2750054"><ele>429.0</ele><time>2026-03-29T16:26:51.949Z</time></trkpt><trkpt lat="45.8620587" lon="9.2751694"><ele>429.75</ele><time>2026-03-29T16:26:52.948Z</time></trkpt><trkpt lat="45.8621254" lon="9.275324"><ele>430.5</ele><time>2026-03-29T16:26:53.948Z</time></trkpt><trkpt lat="45.8622068" lon="9.2754691"><ele>431.25</ele><time>2026-03-29T16:26:54.949Z</time></trkpt><trkpt lat="45.8623038" lon="9.275597"><ele>432.0</ele><time>2026-03-29T16:26:55.948Z</time></trkpt><trkpt lat="45.8624034" lon="9.2757205"><ele>434.0</ele><time>2026-03-29T16:26:56.949Z</time></trkpt><trkpt lat="45.8625254" lon="9.2758044"><ele>436.0</ele><time>2026-03-29T16:26:57.948Z</time></trkpt><trkpt lat="45.8626519" lon="9.2758782"><ele>438.0</ele><time>2026-03-29T16:26:58.948Z</time></trkpt><trkpt lat="45.8627878" lon="9.27593"><ele>440.0</ele><time>2026-03-29T16:26:59.949Z</time></trkpt><trkpt lat="45.8629291" lon="9.2759607"><ele>442.0</ele><time>2026-03-29T16:27:00.949Z</time></trkpt><trkpt lat="45.8630729" lon="9.275966"><ele>444.0</ele><time>2026-03-29T16:27:01.949Z</time></trkpt><trkpt lat="45.8632146" lon="9.2759375"><ele>446.0</ele><time>2026-03-29T16:27:02.948Z</time></trkpt><trkpt lat="45.8633495" lon="9.2758845"><ele>448.0</ele><time>2026-03-29T16:27:03.948Z</time></trkpt><trkpt lat="45.8634758" lon="9.2758111"><ele>454.5</ele><time>2026-03-29T16:27:04.949Z</time></trkpt><trkpt lat="45.8635932" lon="9.2757162"><ele>461.0</ele><time>2026-03-29T16:27:05.949Z</time></trkpt><trkpt lat="45.8637012" lon="9.2755998"><ele>467.5</ele><time>2026-03-29T16:27:06.948Z</time></trkpt><trkpt lat="45.8637992" lon="9.275467"><ele>474.0</ele><time>2026-03-29T16:27:07.949Z</time></trkpt><trkpt lat="45.8638835" lon="9.2753206"><ele>474.0</ele><time>2026-03-29T16:27:08.948Z</time></trkpt><trkpt lat="45.8639626" lon="9.2751731"><ele>474.0</ele><time>2026-03-29T16:27:09.947Z</time></trkpt><trkpt lat="45.86403" lon="9.275"><ele>474.0</ele><time>2026-03-29T16:27:10.948Z</time></trkpt><trkpt lat="45.8640771" lon="9.2748134"><ele>474.0</ele><time>2026-03-29T16:27:11.947Z</time></trkpt><trkpt lat="45.8641134" lon="9.274625"><ele>472.0</ele><time>2026-03-29T16:27:12.947Z</time></trkpt><trkpt lat="45.8641385" lon="9.2744309"><ele>470.0</ele><time>2026-03-29T16:27:13.947Z</time></trkpt><trkpt lat="45.8641617" lon="9.2742325"><ele>468.0</ele><time>2026-03-29T16:27:14.946Z</time></trkpt><trkpt lat="45.8641855" lon="9.2740377"><ele>466.0</ele><time>2026-03-29T16:27:15.947Z</time></trkpt><trkpt lat="45.8642162" lon="9.2738477"><ele>465.75</ele><time>2026-03-29T16:27:16.948Z</time></trkpt><trkpt lat="45.8642463" lon="9.273662"><ele>465.5</ele><time>2026-03-29T16:27:17.947Z</time></trkpt><trkpt lat="45.8642787" lon="9.2734776"><ele>465.25</ele><time>2026-03-29T16:27:18.947Z</time></trkpt><trkpt lat="45.8643115" lon="9.2732975"><ele>465.0</ele><time>2026-03-29T16:27:19.948Z</time></trkpt><trkpt lat="45.8643501" lon="9.2731173"><ele>476.0</ele><time>2026-03-29T16:27:20.947Z</time></trkpt><trkpt lat="45.8643952" lon="9.2729373"><ele>487.0</ele><time>2026-03-29T16:27:21.947Z</time></trkpt><trkpt lat="45.8644469" lon="9.2727633"><ele>498.0</ele><time>2026-03-29T16:27:22.948Z</time></trkpt><trkpt lat="45.8644975" lon="9.2725875"><ele>509.0</ele><time>2026-03-29T16:27:23.948Z</time></trkpt><trkpt lat="45.864551" lon="9.2724175"><ele>505.75</ele><time>2026-03-29T16:27:24.947Z</time></trkpt><trkpt lat="45.8645987" lon="9.2722416"><ele>502.5</ele><time>2026-03-29T16:27:25.948Z</time></trkpt><trkpt lat="45.8646487" lon="9.2720727"><ele>499.25</ele><time>2026-03-29T16:27:26.948Z</time></trkpt><trkpt lat="45.8647024" lon="9.2719161"><ele>496.0</ele><time>2026-03-29T16:27:27.948Z</time></trkpt><trkpt lat="45.8647502" lon="9.2717598"><ele>496.0</ele><time>2026-03-29T16:27:28.948Z</time></trkpt><trkpt lat="45.8647983" lon="9.2716023"><ele>496.0</ele><time>2026-03-29T16:27:29.947Z</time></trkpt><trkpt lat="45.8648455" lon="9.2714402"><ele>496.0</ele><time>2026-03-29T16:27:30.948Z</time></trkpt><trkpt lat="45.8648888" lon="9.271282"><ele>496.0</ele><time>2026-03-29T16:27:31.947Z</time></trkpt><trkpt lat="45.8649311" lon="9.2711146"><ele>493.25</ele><time>2026-03-29T16:27:32.948Z</time></trkpt><trkpt lat="45.8649784" lon="9.2709325"><ele>490.5</ele><time>2026-03-29T16:27:33.948Z</time></trkpt><trkpt lat="45.8650206" lon="9.2707695"><ele>487.75</ele><time>2026-03-29T16:27:34.948Z</time></trkpt><trkpt lat="45.8650648" lon="9.2706007"><ele>485.0</ele><time>2026-03-29T16:27:35.948Z</time></trkpt><trkpt lat="45.8651078" lon="9.2704345"><ele>491.5</ele><time>2026-03-29T16:27:36.948Z</time></trkpt><trkpt lat="45.8651717" lon="9.2702618"><ele>498.0</ele><time>2026-03-29T16:27:37.948Z</time></trkpt><trkpt lat="45.8652236" lon="9.2700974"><ele>504.5</ele><time>2026-03-29T16:27:38.948Z</time></trkpt><trkpt lat="45.8652867" lon="9.2699435"><ele>511.0</ele><time>2026-03-29T16:27:39.946Z</time></trkpt><trkpt lat="45.865342" lon="9.2697952"><ele>507.4</ele><time>2026-03-29T16:27:40.948Z</time></trkpt><trkpt lat="45.8653935" lon="9.2696373"><ele>503.8</ele><time>2026-03-29T16:27:41.947Z</time></trkpt><trkpt lat="45.8654379" lon="9.269495"><ele>500.19999999999993</ele><time>2026-03-29T16:27:42.948Z</time></trkpt><trkpt lat="45.8654787" lon="9.269369"><ele>496.59999999999997</ele><time>2026-03-29T16:27:43.946Z</time></trkpt><trkpt lat="45.8655165" lon="9.2692398"><ele>493.0</ele><time>2026-03-29T16:27:44.948Z</time></trkpt><trkpt lat="45.8655535" lon="9.2691103"><ele>493.0</ele><time>2026-03-29T16:27:45.948Z</time></trkpt><trkpt lat="45.8655925" lon="9.2689817"><ele>492.99999999999994</ele><time>2026-03-29T16:27:46.947Z</time></trkpt><trkpt lat="45.8656302" lon="9.2688491"><ele>492.99999999999994</ele><time>2026-03-29T16:27:47.948Z</time></trkpt><trkpt lat="45.8656686" lon="9.2687223"><ele>493.0</ele><time>2026-03-29T16:27:48.948Z</time></trkpt><trkpt lat="45.8657045" lon="9.2685904"><ele>493.0</ele><time>2026-03-29T16:27:49.946Z</time></trkpt><trkpt lat="45.8657453" lon="9.268465"><ele>493.0</ele><time>2026-03-29T16:27:50.947Z</time></trkpt><trkpt lat="45.8657828" lon="9.2683436"><ele>492.99999999999994</ele><time>2026-03-29T16:27:51.948Z</time></trkpt><trkpt lat="45.8658269" lon="9.2682194"><ele>492.99999999999994</ele><time>2026-03-29T16:27:52.947Z</time></trkpt><trkpt lat="45.8658749" lon="9.2680957"><ele>493.0</ele><time>2026-03-29T16:27:53.948Z</time></trkpt><trkpt lat="45.8659299" lon="9.2679694"><ele>493.0</ele><time>2026-03-29T16:27:54.947Z</time></trkpt><trkpt lat="45.865989" lon="9.2678468"><ele>493.0</ele><time>2026-03-29T16:27:55.946Z</time></trkpt><trkpt lat="45.8660497" lon="9.2677236"><ele>492.99999999999994</ele><time>2026-03-29T16:27:56.947Z</time></trkpt><trkpt lat="45.8661167" lon="9.2676019"><ele>492.99999999999994</ele><time>2026-03-29T16:27:57.948Z</time></trkpt><trkpt lat="45.8661854" lon="9.267476"><ele>493.0</ele><time>2026-03-29T16:27:58.948Z</time></trkpt><trkpt lat="45.8662533" lon="9.2673489"><ele>493.0</ele><time>2026-03-29T16:27:59.948Z</time></trkpt><trkpt lat="45.866321" lon="9.2672134"><ele>491.25</ele><time>2026-03-29T16:28:00.948Z</time></trkpt><trkpt lat="45.8663932" lon="9.2670816"><ele>489.5</ele><time>2026-03-29T16:28:01.947Z</time></trkpt><trkpt lat="45.8664692" lon="9.2669486"><ele>487.75</ele><time>2026-03-29T16:28:02.947Z</time></trkpt><trkpt lat="45.8665421" lon="9.2668195"><ele>486.0</ele><time>2026-03-29T16:28:03.947Z</time></trkpt><trkpt lat="45.8666117" lon="9.2666958"><ele>486.0</ele><time>2026-03-29T16:28:04.947Z</time></trkpt><trkpt lat="45.8666813" lon="9.2665674"><ele>486.0</ele><time>2026-03-29T16:28:05.947Z</time></trkpt><trkpt lat="45.8667528" lon="9.2664398"><ele>486.0</ele><time>2026-03-29T16:28:06.947Z</time></trkpt><trkpt lat="45.8668222" lon="9.2663123"><ele>486.0</ele><time>2026-03-29T16:28:07.948Z</time></trkpt><trkpt lat="45.8668928" lon="9.2661849"><ele>486.4</ele><time>2026-03-29T16:28:08.947Z</time></trkpt><trkpt lat="45.8669702" lon="9.2660644"><ele>486.8</ele><time>2026-03-29T16:28:09.947Z</time></trkpt><trkpt lat="45.8670532" lon="9.2659586"><ele>487.19999999999993</ele><time>2026-03-29T16:28:10.947Z</time></trkpt><trkpt lat="45.8671381" lon="9.2658622"><ele>487.59999999999997</ele><time>2026-03-29T16:28:11.947Z</time></trkpt><trkpt lat="45.8672273" lon="9.2657755"><ele>488.0</ele><time>2026-03-29T16:28:12.948Z</time></trkpt><trkpt lat="45.8673194" lon="9.2657007"><ele>488.0</ele><time>2026-03-29T16:28:13.946Z</time></trkpt><trkpt lat="45.8674195" lon="9.2656376"><ele>487.99999999999994</ele><time>2026-03-29T16:28:14.947Z</time></trkpt><trkpt lat="45.8675227" lon="9.2655848"><ele>487.99999999999994</ele><time>2026-03-29T16:28:15.947Z</time></trkpt><trkpt lat="45.8676275" lon="9.2655363"><ele>488.0</ele><time>2026-03-29T16:28:16.948Z</time></trkpt><trkpt lat="45.8677361" lon="9.265492"><ele>488.0</ele><time>2026-03-29T16:28:17.948Z</time></trkpt><trkpt lat="45.8678381" lon="9.2654657"><ele>486.79999999999995</ele><time>2026-03-29T16:28:18.948Z</time></trkpt><trkpt lat="45.8679287" lon="9.2654213"><ele>485.59999999999997</ele><time>2026-03-29T16:28:19.947Z</time></trkpt><trkpt lat="45.868023" lon="9.2653779"><ele>484.40000000000003</ele><time>2026-03-29T16:28:20.947Z</time></trkpt><trkpt lat="45.8681191" lon="9.2653525"><ele>483.20000000000005</ele><time>2026-03-29T16:28:21.947Z</time></trkpt><trkpt lat="45.8682146" lon="9.265326"><ele>482.0</ele><time>2026-03-29T16:28:22.948Z</time></trkpt><trkpt lat="45.8683109" lon="9.2652974"><ele>481.99999999999994</ele><time>2026-03-29T16:28:23.948Z</time></trkpt><trkpt lat="45.8683987" lon="9.2652685"><ele>482.0</ele><time>2026-03-29T16:28:24.948Z</time></trkpt><trkpt lat="45.8684875" lon="9.2652421"><ele>482.0</ele><time>2026-03-29T16:28:25.948Z</time></trkpt><trkpt lat="45.8685749" lon="9.265208"><ele>482.0</ele><time>2026-03-29T16:28:26.946Z</time></trkpt><trkpt lat="45.868654" lon="9.2651687"><ele>481.99999999999994</ele><time>2026-03-29T16:28:27.947Z</time></trkpt><trkpt lat="45.8687326" lon="9.2651081"><ele>482.0</ele><time>2026-03-29T16:28:28.948Z</time></trkpt><trkpt lat="45.8688089" lon="9.2650372"><ele>483.20000000000005</ele><time>2026-03-29T16:28:29.948Z</time></trkpt><trkpt lat="45.8688793" lon="9.2649159"><ele>484.40000000000003</ele><time>2026-03-29T16:28:30.948Z</time></trkpt><trkpt lat="45.8689379" lon="9.2647885"><ele>485.59999999999997</ele><time>2026-03-29T16:28:31.948Z</time></trkpt><trkpt lat="45.8689981" lon="9.2646633"><ele>486.79999999999995</ele><time>2026-03-29T16:28:32.948Z</time></trkpt><trkpt lat="45.8690672" lon="9.26455"><ele>488.0</ele><time>2026-03-29T16:28:33.947Z</time></trkpt><trkpt lat="45.869137" lon="9.2644313"><ele>488.0</ele><time>2026-03-29T16:28:34.948Z</time></trkpt><trkpt lat="45.8692064" lon="9.2643134"><ele>487.99999999999994</ele><time>2026-03-29T16:28:35.947Z</time></trkpt><trkpt lat="45.8692745" lon="9.2642036"><ele>487.99999999999994</ele><time>2026-03-29T16:28:36.947Z</time></trkpt><trkpt lat="45.8693396" lon="9.2640991"><ele>488.0</ele><time>2026-03-29T16:28:37.948Z</time></trkpt><trkpt lat="45.8693961" lon="9.2639995"><ele>488.0</ele><time>2026-03-29T16:28:38.948Z</time></trkpt><trkpt lat="45.86944" lon="9.2638954"><ele>490.49999999999994</ele><time>2026-03-29T16:28:39.948Z</time></trkpt><trkpt lat="45.8694717" lon="9.2637757"><ele>493.0</ele><time>2026-03-29T16:28:40.948Z</time></trkpt><trkpt lat="45.8694931" lon="9.263641"><ele>495.5</ele><time>2026-03-29T16:28:41.948Z</time></trkpt><trkpt lat="45.8695071" lon="9.2635121"><ele>498.0</ele><time>2026-03-29T16:28:42.947Z</time></trkpt><trkpt lat="45.8695171" lon="9.2633923"><ele>500.49999999999994</ele><time>2026-03-29T16:28:43.947Z</time></trkpt><trkpt lat="45.8695256" lon="9.2632785"><ele>503.0</ele><time>2026-03-29T16:28:44.947Z</time></trkpt><trkpt lat="45.8695454" lon="9.2631687"><ele>499.49999999999994</ele><time>2026-03-29T16:28:45.947Z</time></trkpt><trkpt lat="45.8695742" lon="9.2630661"><ele>496.0</ele><time>2026-03-29T16:28:46.947Z</time></trkpt><trkpt lat="45.8696189" lon="9.2629644"><ele>492.5</ele><time>2026-03-29T16:28:47.947Z</time></trkpt><trkpt lat="45.8696798" lon="9.262877"><ele>489.0</ele><time>2026-03-29T16:28:48.947Z</time></trkpt><trkpt lat="45.8697512" lon="9.2628087"><ele>485.49999999999994</ele><time>2026-03-29T16:28:49.946Z</time></trkpt><trkpt lat="45.8698324" lon="9.2627537"><ele>482.0</ele><time>2026-03-29T16:28:50.947Z</time></trkpt><trkpt lat="45.8699223" lon="9.2627239"><ele>482.0</ele><time>2026-03-29T16:28:51.947Z</time></trkpt><trkpt lat="45.8700191" lon="9.2627118"><ele>482.00000000000006</ele><time>2026-03-29T16:28:52.947Z</time></trkpt><trkpt lat="45.8701239" lon="9.2627193"><ele>482.00000000000006</ele><time>2026-03-29T16:28:53.947Z</time></trkpt><trkpt lat="45.8702382" lon="9.2627397"><ele>482.0</ele><time>2026-03-29T16:28:54.946Z</time></trkpt><trkpt lat="45.8703495" lon="9.2627601"><ele>482.0</ele><time>2026-03-29T16:28:55.947Z</time></trkpt><trkpt lat="45.8704593" lon="9.26278"><ele>483.6</ele><time>2026-03-29T16:28:56.947Z</time></trkpt><trkpt lat="45.8705703" lon="9.2627987"><ele>485.20000000000005</ele><time>2026-03-29T16:28:57.947Z</time></trkpt><trkpt lat="45.8706817" lon="9.262817"><ele>486.8</ele><time>2026-03-29T16:28:58.946Z</time></trkpt><trkpt lat="45.87079" lon="9.2628121"><ele>488.4</ele><time>2026-03-29T16:28:59.947Z</time></trkpt><trkpt lat="45.8708973" lon="9.2627772"><ele>490.0</ele><time>2026-03-29T16:29:00.947Z</time></trkpt><trkpt lat="45.8710002" lon="9.2627216"><ele>493.5</ele><time>2026-03-29T16:29:01.946Z</time></trkpt><trkpt lat="45.8711043" lon="9.2626482"><ele>497.0</ele><time>2026-03-29T16:29:02.946Z</time></trkpt><trkpt lat="45.8712081" lon="9.2625653"><ele>500.5</ele><time>2026-03-29T16:29:03.946Z</time></trkpt><trkpt lat="45.8713095" lon="9.2624786"><ele>504.0</ele><time>2026-03-29T16:29:04.947Z</time></trkpt><trkpt lat="45.8714139" lon="9.2623885"><ele>504.0</ele><time>2026-03-29T16:29:05.947Z</time></trkpt><trkpt lat="45.8715123" lon="9.2622941"><ele>504.0</ele><time>2026-03-29T16:29:06.946Z</time></trkpt><trkpt lat="45.8716059" lon="9.2621997"><ele>504.0</ele><time>2026-03-29T16:29:07.947Z</time></trkpt><trkpt lat="45.8716994" lon="9.2621005"><ele>504.0</ele><time>2026-03-29T16:29:08.946Z</time></trkpt><trkpt lat="45.8717881" lon="9.2620026"><ele>505.2</ele><time>2026-03-29T16:29:09.946Z</time></trkpt><trkpt lat="45.8718793" lon="9.2619153"><ele>506.4</ele><time>2026-03-29T16:29:10.947Z</time></trkpt><trkpt lat="45.8719673" lon="9.2618261"><ele>507.6</ele><time>2026-03-29T16:29:11.947Z</time></trkpt><trkpt lat="45.872055" lon="9.2617408"><ele>508.8</ele><time>2026-03-29T16:29:12.947Z</time></trkpt><trkpt lat="45.8721385" lon="9.2616523"><ele>510.0</ele><time>2026-03-29T16:29:13.946Z</time></trkpt><trkpt lat="45.8722226" lon="9.2615673"><ele>510.0</ele><time>2026-03-29T16:29:14.947Z</time></trkpt><trkpt lat="45.8723031" lon="9.2614859"><ele>510.0</ele><time>2026-03-29T16:29:15.947Z</time></trkpt><trkpt lat="45.8723787" lon="9.2614132"><ele>510.0</ele><time>2026-03-29T16:29:16.947Z</time></trkpt><trkpt lat="45.8724518" lon="9.2613507"><ele>510.0</ele><time>2026-03-29T16:29:17.946Z</time></trkpt><trkpt lat="45.8725287" lon="9.2612867"><ele>510.0</ele><time>2026-03-29T16:29:18.946Z</time></trkpt><trkpt lat="45.8726036" lon="9.2612266"><ele>510.0</ele><time>2026-03-29T16:29:19.947Z</time></trkpt><trkpt lat="45.8726675" lon="9.2611717"><ele>508.6666666666667</ele><time>2026-03-29T16:29:20.947Z</time></trkpt><trkpt lat="45.8727374" lon="9.261117"><ele>507.33333333333337</ele><time>2026-03-29T16:29:21.947Z</time></trkpt><trkpt lat="45.8728022" lon="9.2610619"><ele>506.0</ele><time>2026-03-29T16:29:22.947Z</time></trkpt><trkpt lat="45.8728649" lon="9.2609866"><ele>504.6666666666667</ele><time>2026-03-29T16:29:23.947Z</time></trkpt><trkpt lat="45.8729093" lon="9.2608801"><ele>503.33333333333337</ele><time>2026-03-29T16:29:24.946Z</time></trkpt><trkpt lat="45.8729347" lon="9.2607549"><ele>502.0</ele><time>2026-03-29T16:29:25.947Z</time></trkpt><trkpt lat="45.872966" lon="9.2606301"><ele>504.8</ele><time>2026-03-29T16:29:26.946Z</time></trkpt><trkpt lat="45.8730094" lon="9.2604966"><ele>507.6</ele><time>2026-03-29T16:29:27.945Z</time></trkpt><trkpt lat="45.8730364" lon="9.2603485"><ele>510.40000000000003</ele><time>2026-03-29T16:29:28.945Z</time></trkpt><trkpt lat="45.8730676" lon="9.2602065"><ele>513.2</ele><time>2026-03-29T16:29:29.947Z</time></trkpt><trkpt lat="45.8730594" lon="9.2600788"><ele>516.0</ele><time>2026-03-29T16:29:30.946Z</time></trkpt><trkpt lat="45.8730182" lon="9.2599792"><ele>516.0</ele><time>2026-03-29T16:29:31.946Z</time></trkpt><trkpt lat="45.8729228" lon="9.2598761"><ele>516.0</ele><time>2026-03-29T16:29:32.947Z</time></trkpt><trkpt lat="45.872764" lon="9.2598374"><ele>516.0</ele><time>2026-03-29T16:29:33.945Z</time></trkpt><trkpt lat="45.8726225" lon="9.2597852"><ele>516.0</ele><time>2026-03-29T16:29:34.947Z</time></trkpt><trkpt lat="45.872479" lon="9.259747"><ele>512.75</ele><time>2026-03-29T16:29:35.946Z</time></trkpt><trkpt lat="45.8723442" lon="9.2597402"><ele>509.5</ele><time>2026-03-29T16:29:36.946Z</time></trkpt><trkpt lat="45.8722129" lon="9.2597749"><ele>506.25</ele><time>2026-03-29T16:29:37.946Z</time></trkpt><trkpt lat="45.8720843" lon="9.2598536"><ele>503.0</ele><time>2026-03-29T16:29:38.946Z</time></trkpt><trkpt lat="45.8719431" lon="9.2599725"><ele>503.0</ele><time>2026-03-29T16:29:39.947Z</time></trkpt><trkpt lat="45.871788" lon="9.260069"><ele>503.0</ele><time>2026-03-29T16:29:40.947Z</time></trkpt><trkpt lat="45.8716475" lon="9.2601723"><ele>503.0</ele><time>2026-03-29T16:29:41.945Z</time></trkpt><trkpt lat="45.8715059" lon="9.2602623"><ele>502.0</ele><time>2026-03-29T16:29:42.947Z</time></trkpt><trkpt lat="45.8713657" lon="9.260353"><ele>501.0</ele><time>2026-03-29T16:29:43.947Z</time></trkpt><trkpt lat="45.8712612" lon="9.2605143"><ele>500.0</ele><time>2026-03-29T16:29:44.946Z</time></trkpt><trkpt lat="45.8711513" lon="9.2606544"><ele>500.0</ele><time>2026-03-29T16:29:45.947Z</time></trkpt><trkpt lat="45.8710533" lon="9.2607764"><ele>500.0</ele><time>2026-03-29T16:29:46.947Z</time></trkpt><trkpt lat="45.8709663" lon="9.2608841"><ele>500.0</ele><time>2026-03-29T16:29:47.947Z</time></trkpt><trkpt lat="45.8708706" lon="9.2609657"><ele>500.0</ele><time>2026-03-29T16:29:48.946Z</time></trkpt><trkpt lat="45.8707668" lon="9.2610126"><ele>506.75</ele><time>2026-03-29T16:29:49.947Z</time></trkpt><trkpt lat="45.8706604" lon="9.2610142"><ele>513.5</ele><time>2026-03-29T16:29:50.946Z</time></trkpt><trkpt lat="45.870537" lon="9.2609936"><ele>520.25</ele><time>2026-03-29T16:29:51.946Z</time></trkpt><trkpt lat="45.8703972" lon="9.2609533"><ele>527.0</ele><time>2026-03-29T16:29:52.947Z</time></trkpt><trkpt lat="45.8702561" lon="9.2609182"><ele>527.0</ele><time>2026-03-29T16:29:53.947Z</time></trkpt><trkpt lat="45.8701229" lon="9.2608735"><ele>527.0</ele><time>2026-03-29T16:29:54.947Z</time></trkpt><trkpt lat="45.870005" lon="9.2608451"><ele>527.0</ele><time>2026-03-29T16:29:55.947Z</time></trkpt><trkpt lat="45.8699053" lon="9.2607998"><ele>527.0</ele><time>2026-03-29T16:29:56.946Z</time></trkpt><trkpt lat="45.869809" lon="9.2607216"><ele>526.75</ele><time>2026-03-29T16:29:57.947Z</time></trkpt><trkpt lat="45.8697143" lon="9.2606224"><ele>526.5</ele><time>2026-03-29T16:29:58.946Z</time></trkpt><trkpt lat="45.8696194" lon="9.2605052"><ele>526.25</ele><time>2026-03-29T16:29:59.947Z</time></trkpt><trkpt lat="45.8695127" lon="9.2603763"><ele>526.0</ele><time>2026-03-29T16:30:00.947Z</time></trkpt><trkpt lat="45.8694103" lon="9.2602461"><ele>527.25</ele><time>2026-03-29T16:30:01.947Z</time></trkpt><trkpt lat="45.8692949" lon="9.2601019"><ele>528.5</ele><time>2026-03-29T16:30:02.947Z</time></trkpt><trkpt lat="45.8691833" lon="9.2599753"><ele>529.75</ele><time>2026-03-29T16:30:03.947Z</time></trkpt><trkpt lat="45.8691125" lon="9.2598826"><ele>531.0</ele><time>2026-03-29T16:30:04.947Z</time></trkpt><trkpt lat="45.8690392" lon="9.2597901"><ele>533.1666666666666</ele><time>2026-03-29T16:30:05.947Z</time></trkpt><trkpt lat="45.8689711" lon="9.2596978"><ele>535.3333333333334</ele><time>2026-03-29T16:30:06.946Z</time></trkpt><trkpt lat="45.8689137" lon="9.2595856"><ele>537.5</ele><time>2026-03-29T16:30:07.945Z</time></trkpt><trkpt lat="45.8688715" lon="9.2594725"><ele>539.6666666666667</ele><time>2026-03-29T16:30:08.947Z</time></trkpt><trkpt lat="45.8688434" lon="9.2593674"><ele>541.8333333333334</ele><time>2026-03-29T16:30:09.947Z</time></trkpt><trkpt lat="45.8688202" lon="9.2592506"><ele>544.0</ele><time>2026-03-29T16:30:10.947Z</time></trkpt><trkpt lat="45.8688237" lon="9.2591258"><ele>544.0</ele><time>2026-03-29T16:30:11.947Z</time></trkpt><trkpt lat="45.8688174" lon="9.2590001"><ele>544.0</ele><time>2026-03-29T16:30:12.946Z</time></trkpt><trkpt lat="45.8688392" lon="9.2588582"><ele>544.0</ele><time>2026-03-29T16:30:13.947Z</time></trkpt><trkpt lat="45.8689255" lon="9.2587187"><ele>544.0</ele><time>2026-03-29T16:30:14.947Z</time></trkpt><trkpt lat="45.8689939" lon="9.2585699"><ele>544.0</ele><time>2026-03-29T16:30:15.946Z</time></trkpt><trkpt lat="45.869075" lon="9.2584061"><ele>543.25</ele><time>2026-03-29T16:30:16.947Z</time></trkpt><trkpt lat="45.8691516" lon="9.2582632"><ele>542.5</ele><time>2026-03-29T16:30:17.947Z</time></trkpt><trkpt lat="45.8692276" lon="9.2581284"><ele>541.75</ele><time>2026-03-29T16:30:18.946Z</time></trkpt><trkpt lat="45.8693016" lon="9.2579787"><ele>541.0</ele><time>2026-03-29T16:30:19.945Z</time></trkpt><trkpt lat="45.8693794" lon="9.2578352"><ele>547.0</ele><time>2026-03-29T16:30:20.947Z</time></trkpt><trkpt lat="45.8694394" lon="9.257677"><ele>553.0</ele><time>2026-03-29T16:30:21.947Z</time></trkpt><trkpt lat="45.8694729" lon="9.2574417"><ele>559.0</ele><time>2026-03-29T16:30:22.947Z</time></trkpt><trkpt lat="45.8695264" lon="9.2572608"><ele>565.0</ele><time>2026-03-29T16:30:23.946Z</time></trkpt><trkpt lat="45.8696128" lon="9.257089"><ele>565.5</ele><time>2026-03-29T16:30:24.947Z</time></trkpt><trkpt lat="45.8696688" lon="9.2569215"><ele>566.0</ele><time>2026-03-29T16:30:25.946Z</time></trkpt><trkpt lat="45.8697401" lon="9.2567408"><ele>566.5</ele><time>2026-03-29T16:30:26.947Z</time></trkpt><trkpt lat="45.8697482" lon="9.2565666"><ele>567.0</ele><time>2026-03-29T16:30:27.947Z</time></trkpt><trkpt lat="45.8697845" lon="9.2563919"><ele>567.6</ele><time>2026-03-29T16:30:28.947Z</time></trkpt><trkpt lat="45.8697958" lon="9.2562166"><ele>568.2</ele><time>2026-03-29T16:30:29.946Z</time></trkpt><trkpt lat="45.8697936" lon="9.2560715"><ele>568.8</ele><time>2026-03-29T16:30:30.946Z</time></trkpt><trkpt lat="45.8698012" lon="9.2559185"><ele>569.4</ele><time>2026-03-29T16:30:31.946Z</time></trkpt><trkpt lat="45.8698065" lon="9.2557946"><ele>570.0</ele><time>2026-03-29T16:30:32.946Z</time></trkpt><trkpt lat="45.8698129" lon="9.2556823"><ele>570.0</ele><time>2026-03-29T16:30:33.946Z</time></trkpt><trkpt lat="45.8698195" lon="9.255589"><ele>570.0</ele><time>2026-03-29T16:30:34.947Z</time></trkpt><trkpt lat="45.8698656" lon="9.2554579"><ele>570.0</ele><time>2026-03-29T16:30:36.946Z</time></trkpt><trkpt lat="45.8699545" lon="9.2554478"><ele>570.0</ele><time>2026-03-29T16:30:38.946Z</time></trkpt><trkpt lat="45.8699736" lon="9.2555526"><ele>570.0</ele><time>2026-03-29T16:30:39.945Z</time></trkpt><trkpt lat="45.8699979" lon="9.2557134"><ele>570.0</ele><time>2026-03-29T16:30:41.947Z</time></trkpt><trkpt lat="45.8699409" lon="9.2558884"><ele>570.0</ele><time>2026-03-29T16:30:42.947Z</time></trkpt><trkpt lat="45.8699138" lon="9.2560472"><ele>570.0</ele><time>2026-03-29T16:30:43.946Z</time></trkpt><trkpt lat="45.8699105" lon="9.2561973"><ele>570.0</ele><time>2026-03-29T16:30:44.947Z</time></trkpt><trkpt lat="45.8699251" lon="9.2563546"><ele>570.0</ele><time>2026-03-29T16:30:45.946Z</time></trkpt><trkpt lat="45.8699583" lon="9.2565171"><ele>570.0</ele><time>2026-03-29T16:30:46.945Z</time></trkpt><trkpt lat="45.8700087" lon="9.2566882"><ele>569.25</ele><time>2026-03-29T16:30:47.947Z</time></trkpt><trkpt lat="45.8700667" lon="9.2568375"><ele>568.5</ele><time>2026-03-29T16:30:48.947Z</time></trkpt><trkpt lat="45.8701232" lon="9.2569916"><ele>567.75</ele><time>2026-03-29T16:30:49.946Z</time></trkpt><trkpt lat="45.8701777" lon="9.2571473"><ele>567.0</ele><time>2026-03-29T16:30:50.947Z</time></trkpt><trkpt lat="45.8702173" lon="9.2572897"><ele>569.8000000000001</ele><time>2026-03-29T16:30:51.946Z</time></trkpt><trkpt lat="45.8702619" lon="9.2574411"><ele>572.6</ele><time>2026-03-29T16:30:52.946Z</time></trkpt><trkpt lat="45.8702968" lon="9.2575822"><ele>575.4000000000001</ele><time>2026-03-29T16:30:53.947Z</time></trkpt><trkpt lat="45.8703238" lon="9.2577318"><ele>578.2</ele><time>2026-03-29T16:30:55.947Z</time></trkpt><trkpt lat="45.8703835" lon="9.2577662"><ele>581.0</ele><time>2026-03-29T16:30:56.947Z</time></trkpt><trkpt lat="45.8704452" lon="9.2577346"><ele>581.0</ele><time>2026-03-29T16:30:57.945Z</time></trkpt><trkpt lat="45.8705129" lon="9.2577121"><ele>581.0</ele><time>2026-03-29T16:30:58.946Z</time></trkpt><trkpt lat="45.8705604" lon="9.257537"><ele>581.0</ele><time>2026-03-29T16:31:00.946Z</time></trkpt><trkpt lat="45.8704098" lon="9.2572804"><ele>581.0</ele><time>2026-03-29T16:31:01.946Z</time></trkpt><trkpt lat="45.8703541" lon="9.2571172"><ele>582.6</ele><time>2026-03-29T16:31:02.945Z</time></trkpt><trkpt lat="45.8703191" lon="9.2569237"><ele>584.2</ele><time>2026-03-29T16:31:03.947Z</time></trkpt><trkpt lat="45.8702735" lon="9.256779"><ele>585.8</ele><time>2026-03-29T16:31:04.946Z</time></trkpt><trkpt lat="45.8702339" lon="9.2566547"><ele>587.4</ele><time>2026-03-29T16:31:05.945Z</time></trkpt><trkpt lat="45.8702011" lon="9.2565464"><ele>589.0</ele><time>2026-03-29T16:31:06.947Z</time></trkpt><trkpt lat="45.8701767" lon="9.2564588"><ele>589.0</ele><time>2026-03-29T16:31:07.946Z</time></trkpt><trkpt lat="45.8701788" lon="9.2563074"><ele>589.0</ele><time>2026-03-29T16:31:09.947Z</time></trkpt><trkpt lat="45.8702514" lon="9.2562715"><ele>589.0</ele><time>2026-03-29T16:31:11.946Z</time></trkpt><trkpt lat="45.8703145" lon="9.2564079"><ele>589.0</ele><time>2026-03-29T16:31:13.947Z</time></trkpt><trkpt lat="45.8703534" lon="9.2565212"><ele>589.0</ele><time>2026-03-29T16:31:14.947Z</time></trkpt><trkpt lat="45.8704017" lon="9.2566401"><ele>589.0</ele><time>2026-03-29T16:31:15.946Z</time></trkpt><trkpt lat="45.8704578" lon="9.256749"><ele>589.0</ele><time>2026-03-29T16:31:16.946Z</time></trkpt><trkpt lat="45.8705405" lon="9.2568592"><ele>589.0</ele><time>2026-03-29T16:31:17.947Z</time></trkpt><trkpt lat="45.8706443" lon="9.2569583"><ele>589.0</ele><time>2026-03-29T16:31:18.945Z</time></trkpt><trkpt lat="45.8707614" lon="9.2570666"><ele>589.0</ele><time>2026-03-29T16:31:19.947Z</time></trkpt><trkpt lat="45.8708814" lon="9.2571773"><ele>589.0</ele><time>2026-03-29T16:31:20.946Z</time></trkpt><trkpt lat="45.8709906" lon="9.2572773"><ele>589.0</ele><time>2026-03-29T16:31:21.947Z</time></trkpt><trkpt lat="45.871102" lon="9.2573789"><ele>589.0</ele><time>2026-03-29T16:31:22.946Z</time></trkpt><trkpt lat="45.8712113" lon="9.2574901"><ele>590.5</ele><time>2026-03-29T16:31:23.946Z</time></trkpt><trkpt lat="45.8713191" lon="9.2575815"><ele>592.0</ele><time>2026-03-29T16:31:24.947Z</time></trkpt><trkpt lat="45.8714114" lon="9.2576566"><ele>593.5</ele><time>2026-03-29T16:31:25.946Z</time></trkpt><trkpt lat="45.8715156" lon="9.2577194"><ele>595.0</ele><time>2026-03-29T16:31:26.945Z</time></trkpt><trkpt lat="45.8716313" lon="9.2577453"><ele>595.0</ele><time>2026-03-29T16:31:27.946Z</time></trkpt><trkpt lat="45.8717638" lon="9.2577233"><ele>595.0</ele><time>2026-03-29T16:31:28.946Z</time></trkpt><trkpt lat="45.8719041" lon="9.2576803"><ele>595.0</ele><time>2026-03-29T16:31:29.946Z</time></trkpt><trkpt lat="45.8720464" lon="9.2576506"><ele>595.0</ele><time>2026-03-29T16:31:30.947Z</time></trkpt><trkpt lat="45.8721297" lon="9.2576109"><ele>595.5</ele><time>2026-03-29T16:31:31.947Z</time></trkpt><trkpt lat="45.8722246" lon="9.2575819"><ele>596.0</ele><time>2026-03-29T16:31:32.946Z</time></trkpt><trkpt lat="45.8723174" lon="9.2575499"><ele>596.5</ele><time>2026-03-29T16:31:33.947Z</time></trkpt><trkpt lat="45.8723769" lon="9.2575163"><ele>597.0</ele><time>2026-03-29T16:31:34.946Z</time></trkpt><trkpt lat="45.8723887" lon="9.2574208"><ele>597.5</ele><time>2026-03-29T16:31:35.947Z</time></trkpt><trkpt lat="45.8723382" lon="9.2572832"><ele>598.0</ele><time>2026-03-29T16:31:37.947Z</time></trkpt><trkpt lat="45.8722633" lon="9.2572648"><ele>602.4</ele><time>2026-03-29T16:31:38.947Z</time></trkpt><trkpt lat="45.8721645" lon="9.2572791"><ele>606.8</ele><time>2026-03-29T16:31:39.947Z</time></trkpt><trkpt lat="45.8720693" lon="9.2572689"><ele>611.2</ele><time>2026-03-29T16:31:40.946Z</time></trkpt><trkpt lat="45.8719748" lon="9.2572299"><ele>615.6</ele><time>2026-03-29T16:31:41.947Z</time></trkpt><trkpt lat="45.8718901" lon="9.25716"><ele>620.0</ele><time>2026-03-29T16:31:42.947Z</time></trkpt><trkpt lat="45.8718202" lon="9.2570566"><ele>619.5</ele><time>2026-03-29T16:31:43.947Z</time></trkpt><trkpt lat="45.8717625" lon="9.2569258"><ele>619.0</ele><time>2026-03-29T16:31:44.946Z</time></trkpt><trkpt lat="45.8717069" lon="9.2567622"><ele>618.5</ele><time>2026-03-29T16:31:45.946Z</time></trkpt><trkpt lat="45.87166" lon="9.2566194"><ele>618.0</ele><time>2026-03-29T16:31:46.945Z</time></trkpt><trkpt lat="45.8716066" lon="9.2564258"><ele>618.0</ele><time>2026-03-29T16:31:47.946Z</time></trkpt><trkpt lat="45.8715523" lon="9.256254"><ele>618.0</ele><time>2026-03-29T16:31:48.946Z</time></trkpt><trkpt lat="45.8715072" lon="9.2560938"><ele>618.0</ele><time>2026-03-29T16:31:49.946Z</time></trkpt><trkpt lat="45.8714711" lon="9.2559514"><ele>618.0</ele><time>2026-03-29T16:31:50.946Z</time></trkpt><trkpt lat="45.8714363" lon="9.2558261"><ele>618.0</ele><time>2026-03-29T16:31:51.946Z</time></trkpt><trkpt lat="45.87141" lon="9.2557091"><ele>618.0</ele><time>2026-03-29T16:31:52.946Z</time></trkpt><trkpt lat="45.8713987" lon="9.2555907"><ele>618.0</ele><time>2026-03-29T16:31:53.946Z</time></trkpt><trkpt lat="45.8713816" lon="9.2554773"><ele>618.0</ele><time>2026-03-29T16:31:54.947Z</time></trkpt><trkpt lat="45.871386" lon="9.2553585"><ele>618.0</ele><time>2026-03-29T16:31:55.947Z</time></trkpt><trkpt lat="45.8714112" lon="9.255214"><ele>618.0</ele><time>2026-03-29T16:31:56.947Z</time></trkpt><trkpt lat="45.8714201" lon="9.2550857"><ele>618.6666666666666</ele><time>2026-03-29T16:31:57.947Z</time></trkpt><trkpt lat="45.8714316" lon="9.2549683"><ele>619.3333333333334</ele><time>2026-03-29T16:31:58.946Z</time></trkpt><trkpt lat="45.8714345" lon="9.2548549"><ele>620.0</ele><time>2026-03-29T16:31:59.946Z</time></trkpt><trkpt lat="45.8714307" lon="9.2547431"><ele>620.6666666666667</ele><time>2026-03-29T16:32:00.946Z</time></trkpt><trkpt lat="45.8714126" lon="9.2546331"><ele>621.3333333333334</ele><time>2026-03-29T16:32:01.947Z</time></trkpt><trkpt lat="45.8713917" lon="9.2545296"><ele>622.0</ele><time>2026-03-29T16:32:02.947Z</time></trkpt><trkpt lat="45.8713683" lon="9.2544139"><ele>623.1666666666667</ele><time>2026-03-29T16:32:03.946Z</time></trkpt><trkpt lat="45.8713262" lon="9.2542986"><ele>624.3333333333334</ele><time>2026-03-29T16:32:04.945Z</time></trkpt><trkpt lat="45.8712978" lon="9.2541959"><ele>625.5</ele><time>2026-03-29T16:32:05.947Z</time></trkpt><trkpt lat="45.8712739" lon="9.2541071"><ele>626.6666666666666</ele><time>2026-03-29T16:32:06.947Z</time></trkpt><trkpt lat="45.8712447" lon="9.2540172"><ele>627.8333333333333</ele><time>2026-03-29T16:32:07.947Z</time></trkpt><trkpt lat="45.8711998" lon="9.2538949"><ele>629.0</ele><time>2026-03-29T16:32:09.945Z</time></trkpt><trkpt lat="45.8712344" lon="9.2538023"><ele>629.0</ele><time>2026-03-29T16:32:11.947Z</time></trkpt><trkpt lat="45.8713487" lon="9.2538257"><ele>629.0</ele><time>2026-03-29T16:32:13.947Z</time></trkpt><trkpt lat="45.8714169" lon="9.2538971"><ele>629.0</ele><time>2026-03-29T16:32:14.947Z</time></trkpt><trkpt lat="45.8714758" lon="9.253951"><ele>629.0</ele><time>2026-03-29T16:32:15.946Z</time></trkpt><trkpt lat="45.8715285" lon="9.2540377"><ele>629.0</ele><time>2026-03-29T16:32:16.946Z</time></trkpt><trkpt lat="45.8715909" lon="9.2541196"><ele>629.0</ele><time>2026-03-29T16:32:17.947Z</time></trkpt><trkpt lat="45.8716669" lon="9.2542163"><ele>629.0</ele><time>2026-03-29T16:32:18.946Z</time></trkpt><trkpt lat="45.8717705" lon="9.2543246"><ele>629.0</ele><time>2026-03-29T16:32:19.946Z</time></trkpt><trkpt lat="45.8718523" lon="9.2544147"><ele>629.0</ele><time>2026-03-29T16:32:20.946Z</time></trkpt><trkpt lat="45.8719279" lon="9.2545003"><ele>629.0</ele><time>2026-03-29T16:32:21.946Z</time></trkpt><trkpt lat="45.8720134" lon="9.2545951"><ele>629.0</ele><time>2026-03-29T16:32:22.946Z</time></trkpt><trkpt lat="45.8720953" lon="9.2547016"><ele>633.25</ele><time>2026-03-29T16:32:23.946Z</time></trkpt><trkpt lat="45.8721725" lon="9.2548089"><ele>637.5</ele><time>2026-03-29T16:32:24.945Z</time></trkpt><trkpt lat="45.8722382" lon="9.2549254"><ele>641.75</ele><time>2026-03-29T16:32:25.946Z</time></trkpt><trkpt lat="45.8722755" lon="9.2551134"><ele>646.0</ele><time>2026-03-29T16:32:26.947Z</time></trkpt><trkpt lat="45.8723485" lon="9.2552914"><ele>646.0</ele><time>2026-03-29T16:32:27.947Z</time></trkpt><trkpt lat="45.8724036" lon="9.2554464"><ele>646.0</ele><time>2026-03-29T16:32:28.947Z</time></trkpt><trkpt lat="45.8724517" lon="9.2556052"><ele>646.0</ele><time>2026-03-29T16:32:29.946Z</time></trkpt><trkpt lat="45.8724893" lon="9.255738"><ele>646.0</ele><time>2026-03-29T16:32:30.946Z</time></trkpt><trkpt lat="45.8725516" lon="9.2558522"><ele>646.0</ele><time>2026-03-29T16:32:31.946Z</time></trkpt><trkpt lat="45.8726103" lon="9.2559746"><ele>646.0</ele><time>2026-03-29T16:32:32.945Z</time></trkpt><trkpt lat="45.8726949" lon="9.2560961"><ele>646.0</ele><time>2026-03-29T16:32:33.947Z</time></trkpt><trkpt lat="45.8728616" lon="9.2560064"><ele>646.0</ele><time>2026-03-29T16:32:34.947Z</time></trkpt><trkpt lat="45.8729907" lon="9.2559888"><ele>646.0</ele><time>2026-03-29T16:32:35.947Z</time></trkpt><trkpt lat="45.8731268" lon="9.2559486"><ele>646.0</ele><time>2026-03-29T16:32:36.947Z</time></trkpt><trkpt lat="45.8732501" lon="9.2559026"><ele>646.0</ele><time>2026-03-29T16:32:37.946Z</time></trkpt><trkpt lat="45.8733808" lon="9.2558465"><ele>646.0</ele><time>2026-03-29T16:32:38.947Z</time></trkpt><trkpt lat="45.8735176" lon="9.2557929"><ele>646.0</ele><time>2026-03-29T16:32:39.946Z</time></trkpt><trkpt lat="45.8736586" lon="9.2557369"><ele>647.5</ele><time>2026-03-29T16:32:40.945Z</time></trkpt><trkpt lat="45.8738075" lon="9.2556795"><ele>649.0</ele><time>2026-03-29T16:32:41.946Z</time></trkpt><trkpt lat="45.8739532" lon="9.2556191"><ele>650.5</ele><time>2026-03-29T16:32:42.945Z</time></trkpt><trkpt lat="45.8740847" lon="9.2555679"><ele>652.0</ele><time>2026-03-29T16:32:43.947Z</time></trkpt><trkpt lat="45.8741999" lon="9.2555269"><ele>654.4000000000001</ele><time>2026-03-29T16:32:44.947Z</time></trkpt><trkpt lat="45.8743024" lon="9.2554903"><ele>656.8000000000001</ele><time>2026-03-29T16:32:45.947Z</time></trkpt><trkpt lat="45.8743936" lon="9.2554617"><ele>659.2</ele><time>2026-03-29T16:32:46.947Z</time></trkpt><trkpt lat="45.8744775" lon="9.2554346"><ele>661.6</ele><time>2026-03-29T16:32:47.946Z</time></trkpt><trkpt lat="45.8745499" lon="9.2554089"><ele>664.0</ele><time>2026-03-29T16:32:48.946Z</time></trkpt><trkpt lat="45.8746462" lon="9.2553118"><ele>664.0</ele><time>2026-03-29T16:32:50.947Z</time></trkpt><trkpt lat="45.8746516" lon="9.2552106"><ele>664.0</ele><time>2026-03-29T16:32:51.947Z</time></trkpt><trkpt lat="45.874522" lon="9.2551087"><ele>664.0</ele><time>2026-03-29T16:32:53.947Z</time></trkpt><trkpt lat="45.8744199" lon="9.2551486"><ele>664.0</ele><time>2026-03-29T16:32:54.946Z</time></trkpt><trkpt lat="45.8743128" lon="9.2551859"><ele>664.0</ele><time>2026-03-29T16:32:55.945Z</time></trkpt><trkpt lat="45.8742054" lon="9.2552053"><ele>665.0</ele><time>2026-03-29T16:32:56.947Z</time></trkpt><trkpt lat="45.8740974" lon="9.2551901"><ele>666.0</ele><time>2026-03-29T16:32:57.947Z</time></trkpt><trkpt lat="45.8739782" lon="9.2551495"><ele>667.0</ele><time>2026-03-29T16:32:58.946Z</time></trkpt><trkpt lat="45.8738585" lon="9.2550986"><ele>668.0</ele><time>2026-03-29T16:32:59.946Z</time></trkpt><trkpt lat="45.8737282" lon="9.2550467"><ele>668.0</ele><time>2026-03-29T16:33:00.947Z</time></trkpt><trkpt lat="45.8735875" lon="9.2549862"><ele>668.0</ele><time>2026-03-29T16:33:01.946Z</time></trkpt><trkpt lat="45.8734677" lon="9.254932"><ele>668.0</ele><time>2026-03-29T16:33:02.945Z</time></trkpt><trkpt lat="45.8733591" lon="9.2548934"><ele>668.0</ele><time>2026-03-29T16:33:03.947Z</time></trkpt><trkpt lat="45.8732549" lon="9.2548767"><ele>667.2</ele><time>2026-03-29T16:33:04.947Z</time></trkpt><trkpt lat="45.873168" lon="9.2548813"><ele>666.4</ele><time>2026-03-29T16:33:05.947Z</time></trkpt><trkpt lat="45.8730922" lon="9.2548825"><ele>665.6</ele><time>2026-03-29T16:33:06.947Z</time></trkpt><trkpt lat="45.8729894" lon="9.2548153"><ele>664.8000000000001</ele><time>2026-03-29T16:33:08.946Z</time></trkpt><trkpt lat="45.8730086" lon="9.2546803"><ele>664.0</ele><time>2026-03-29T16:33:10.947Z</time></trkpt><trkpt lat="45.8731198" lon="9.2546171"><ele>669.0</ele><time>2026-03-29T16:33:12.947Z</time></trkpt><trkpt lat="45.8731938" lon="9.254619"><ele>674.0</ele><time>2026-03-29T16:33:13.947Z</time></trkpt><trkpt lat="45.8733054" lon="9.2546736"><ele>679.0</ele><time>2026-03-29T16:33:14.946Z</time></trkpt><trkpt lat="45.8734715" lon="9.2546394"><ele>684.0</ele><time>2026-03-29T16:33:15.946Z</time></trkpt><trkpt lat="45.8735972" lon="9.2546377"><ele>684.75</ele><time>2026-03-29T16:33:16.947Z</time></trkpt><trkpt lat="45.8737103" lon="9.2545882"><ele>685.5</ele><time>2026-03-29T16:33:17.946Z</time></trkpt><trkpt lat="45.8738363" lon="9.2545413"><ele>686.25</ele><time>2026-03-29T16:33:18.947Z</time></trkpt><trkpt lat="45.8739668" lon="9.2544946"><ele>687.0</ele><time>2026-03-29T16:33:19.947Z</time></trkpt><trkpt lat="45.8740865" lon="9.2544456"><ele>687.0</ele><time>2026-03-29T16:33:20.947Z</time></trkpt><trkpt lat="45.8741909" lon="9.2544148"><ele>687.0</ele><time>2026-03-29T16:33:21.946Z</time></trkpt><trkpt lat="45.8742919" lon="9.2544043"><ele>687.0</ele><time>2026-03-29T16:33:22.947Z</time></trkpt><trkpt lat="45.8743744" lon="9.2544017"><ele>687.0</ele><time>2026-03-29T16:33:23.947Z</time></trkpt><trkpt lat="45.8744565" lon="9.254387"><ele>687.0</ele><time>2026-03-29T16:33:24.946Z</time></trkpt><trkpt lat="45.8745228" lon="9.254372"><ele>687.0</ele><time>2026-03-29T16:33:25.946Z</time></trkpt><trkpt lat="45.8746006" lon="9.2543487"><ele>687.0</ele><time>2026-03-29T16:33:26.946Z</time></trkpt><trkpt lat="45.8745947" lon="9.2542044"><ele>687.0</ele><time>2026-03-29T16:33:28.947Z</time></trkpt><trkpt lat="45.8745505" lon="9.2541346"><ele>687.0</ele><time>2026-03-29T16:33:29.947Z</time></trkpt><trkpt lat="45.8744638" lon="9.2541155"><ele>687.0</ele><time>2026-03-29T16:33:30.947Z</time></trkpt><trkpt lat="45.8743449" lon="9.2541518"><ele>687.0</ele><time>2026-03-29T16:33:31.947Z</time></trkpt><trkpt lat="45.8742109" lon="9.2541706"><ele>687.0</ele><time>2026-03-29T16:33:32.947Z</time></trkpt><trkpt lat="45.8740886" lon="9.2541674"><ele>687.0</ele><time>2026-03-29T16:33:33.945Z</time></trkpt><trkpt lat="45.873966" lon="9.254149"><ele>687.0</ele><time>2026-03-29T16:33:34.947Z</time></trkpt><trkpt lat="45.8738537" lon="9.2541304"><ele>687.0</ele><time>2026-03-29T16:33:35.946Z</time></trkpt><trkpt lat="45.8737594" lon="9.2541183"><ele>687.0</ele><time>2026-03-29T16:33:36.946Z</time></trkpt><trkpt lat="45.8736643" lon="9.2541094"><ele>687.0</ele><time>2026-03-29T16:33:37.946Z</time></trkpt><trkpt lat="45.8736106" lon="9.2540202"><ele>687.0</ele><time>2026-03-29T16:33:39.945Z</time></trkpt><trkpt lat="45.8736536" lon="9.2539005"><ele>687.0</ele><time>2026-03-29T16:33:41.946Z</time></trkpt><trkpt lat="45.8737168" lon="9.2538847"><ele>687.0</ele><time>2026-03-29T16:33:42.947Z</time></trkpt><trkpt lat="45.8738037" lon="9.2538789"><ele>687.0</ele><time>2026-03-29T16:33:43.946Z</time></trkpt><trkpt lat="45.8739146" lon="9.2538712"><ele>691.0</ele><time>2026-03-29T16:33:44.947Z</time></trkpt><trkpt lat="45.8740168" lon="9.2538513"><ele>695.0</ele><time>2026-03-29T16:33:45.947Z</time></trkpt><trkpt lat="45.8741276" lon="9.2538368"><ele>699.0</ele><time>2026-03-29T16:33:46.945Z</time></trkpt><trkpt lat="45.8742468" lon="9.253794"><ele>703.0</ele><time>2026-03-29T16:33:47.947Z</time></trkpt><trkpt lat="45.8743658" lon="9.2537625"><ele>703.25</ele><time>2026-03-29T16:33:48.947Z</time></trkpt><trkpt lat="45.8744959" lon="9.2537292"><ele>703.5</ele><time>2026-03-29T16:33:49.946Z</time></trkpt><trkpt lat="45.8746115" lon="9.2537004"><ele>703.75</ele><time>2026-03-29T16:33:50.946Z</time></trkpt><trkpt lat="45.8747239" lon="9.2536679"><ele>704.0</ele><time>2026-03-29T16:33:51.947Z</time></trkpt><trkpt lat="45.8748423" lon="9.2536277"><ele>704.0</ele><time>2026-03-29T16:33:52.947Z</time></trkpt><trkpt lat="45.874941" lon="9.2535628"><ele>704.0</ele><time>2026-03-29T16:33:53.947Z</time></trkpt><trkpt lat="45.8750603" lon="9.2534172"><ele>704.0</ele><time>2026-03-29T16:33:54.947Z</time></trkpt><trkpt lat="45.8751714" lon="9.2532986"><ele>704.0</ele><time>2026-03-29T16:33:55.947Z</time></trkpt><trkpt lat="45.8752734" lon="9.2531938"><ele>706.4000000000001</ele><time>2026-03-29T16:33:56.945Z</time></trkpt><trkpt lat="45.8753604" lon="9.253106"><ele>708.8</ele><time>2026-03-29T16:33:57.947Z</time></trkpt><trkpt lat="45.8754338" lon="9.2530239"><ele>711.2</ele><time>2026-03-29T16:33:58.947Z</time></trkpt><trkpt lat="45.8754856" lon="9.2529514"><ele>713.5999999999999</ele><time>2026-03-29T16:33:59.947Z</time></trkpt><trkpt lat="45.8754829" lon="9.2527889"><ele>716.0</ele><time>2026-03-29T16:34:01.947Z</time></trkpt><trkpt lat="45.8754237" lon="9.2527076"><ele>716.0</ele><time>2026-03-29T16:34:03.947Z</time></trkpt><trkpt lat="45.8753414" lon="9.2526991"><ele>716.0</ele><time>2026-03-29T16:34:04.946Z</time></trkpt><trkpt lat="45.8752502" lon="9.2527509"><ele>716.0</ele><time>2026-03-29T16:34:05.946Z</time></trkpt><trkpt lat="45.8751126" lon="9.252914"><ele>716.0</ele><time>2026-03-29T16:34:06.945Z</time></trkpt><trkpt lat="45.8750166" lon="9.2529512"><ele>717.5999999999999</ele><time>2026-03-29T16:34:07.946Z</time></trkpt><trkpt lat="45.8749176" lon="9.2529867"><ele>719.2</ele><time>2026-03-29T16:34:08.945Z</time></trkpt><trkpt lat="45.874817" lon="9.2529981"><ele>720.8</ele><time>2026-03-29T16:34:09.945Z</time></trkpt><trkpt lat="45.8747083" lon="9.2529862"><ele>722.4000000000001</ele><time>2026-03-29T16:34:10.946Z</time></trkpt><trkpt lat="45.8745938" lon="9.2529369"><ele>724.0</ele><time>2026-03-29T16:34:11.946Z</time></trkpt><trkpt lat="45.8744777" lon="9.2529212"><ele>724.0</ele><time>2026-03-29T16:34:12.947Z</time></trkpt><trkpt lat="45.8743499" lon="9.2528843"><ele>724.0</ele><time>2026-03-29T16:34:13.947Z</time></trkpt><trkpt lat="45.8742404" lon="9.2528531"><ele>724.0</ele><time>2026-03-29T16:34:14.945Z</time></trkpt><trkpt lat="45.8741491" lon="9.252814"><ele>724.0</ele><time>2026-03-29T16:34:15.946Z</time></trkpt><trkpt lat="45.8740616" lon="9.2527631"><ele>724.0</ele><time>2026-03-29T16:34:16.946Z</time></trkpt><trkpt lat="45.8740047" lon="9.2527224"><ele>724.0</ele><time>2026-03-29T16:34:17.946Z</time></trkpt><trkpt lat="45.8739703" lon="9.2526052"><ele>724.0</ele><time>2026-03-29T16:34:19.947Z</time></trkpt><trkpt lat="45.8741289" lon="9.2525197"><ele>724.0</ele><time>2026-03-29T16:34:21.946Z</time></trkpt><trkpt lat="45.8741926" lon="9.2525035"><ele>724.0</ele><time>2026-03-29T16:34:22.946Z</time></trkpt><trkpt lat="45.8743068" lon="9.2525107"><ele>724.0</ele><time>2026-03-29T16:34:23.947Z</time></trkpt><trkpt lat="45.8744149" lon="9.252578"><ele>724.0</ele><time>2026-03-29T16:34:24.946Z</time></trkpt><trkpt lat="45.8745249" lon="9.2526001"><ele>724.0</ele><time>2026-03-29T16:34:25.946Z</time></trkpt><trkpt lat="45.874627" lon="9.2526073"><ele>724.0</ele><time>2026-03-29T16:34:26.947Z</time></trkpt><trkpt lat="45.8747359" lon="9.2525882"><ele>724.0</ele><time>2026-03-29T16:34:27.947Z</time></trkpt><trkpt lat="45.8748591" lon="9.2524305"><ele>724.0</ele><time>2026-03-29T16:34:28.947Z</time></trkpt><trkpt lat="45.8749865" lon="9.2523315"><ele>724.0</ele><time>2026-03-29T16:34:29.946Z</time></trkpt><trkpt lat="45.8751173" lon="9.2522167"><ele>724.0</ele><time>2026-03-29T16:34:30.947Z</time></trkpt><trkpt lat="45.8752275" lon="9.252112"><ele>724.0</ele><time>2026-03-29T16:34:31.947Z</time></trkpt><trkpt lat="45.8753374" lon="9.2520096"><ele>726.0</ele><time>2026-03-29T16:34:32.947Z</time></trkpt><trkpt lat="45.875448" lon="9.2519207"><ele>728.0</ele><time>2026-03-29T16:34:33.945Z</time></trkpt><trkpt lat="45.8755509" lon="9.2518222"><ele>730.0</ele><time>2026-03-29T16:34:34.946Z</time></trkpt><trkpt lat="45.8756617" lon="9.2517217"><ele>732.0</ele><time>2026-03-29T16:34:35.946Z</time></trkpt><trkpt lat="45.8757587" lon="9.2516122"><ele>732.0</ele><time>2026-03-29T16:34:36.947Z</time></trkpt><trkpt lat="45.8758591" lon="9.2515164"><ele>732.0</ele><time>2026-03-29T16:34:37.947Z</time></trkpt><trkpt lat="45.875967" lon="9.2514876"><ele>732.0</ele><time>2026-03-29T16:34:38.946Z</time></trkpt><trkpt lat="45.8760815" lon="9.2514247"><ele>732.0</ele><time>2026-03-29T16:34:39.947Z</time></trkpt><trkpt lat="45.8762007" lon="9.2513859"><ele>736.0</ele><time>2026-03-29T16:34:40.947Z</time></trkpt><trkpt lat="45.8763277" lon="9.2513662"><ele>740.0</ele><time>2026-03-29T16:34:41.946Z</time></trkpt><trkpt lat="45.8764601" lon="9.2513609"><ele>744.0</ele><time>2026-03-29T16:34:42.946Z</time></trkpt><trkpt lat="45.8765681" lon="9.2513565"><ele>748.0</ele><time>2026-03-29T16:34:43.947Z</time></trkpt><trkpt lat="45.8766641" lon="9.2513398"><ele>748.0</ele><time>2026-03-29T16:34:44.947Z</time></trkpt><trkpt lat="45.8767591" lon="9.2512998"><ele>748.0</ele><time>2026-03-29T16:34:45.946Z</time></trkpt><trkpt lat="45.876849" lon="9.2512695"><ele>748.0</ele><time>2026-03-29T16:34:46.947Z</time></trkpt><trkpt lat="45.8769438" lon="9.2512105"><ele>748.0</ele><time>2026-03-29T16:34:47.947Z</time></trkpt><trkpt lat="45.8769599" lon="9.2510196"><ele>748.0</ele><time>2026-03-29T16:34:48.946Z</time></trkpt><trkpt lat="45.8769852" lon="9.2508814"><ele>747.0</ele><time>2026-03-29T16:34:49.947Z</time></trkpt><trkpt lat="45.8770178" lon="9.2507363"><ele>746.0</ele><time>2026-03-29T16:34:50.947Z</time></trkpt><trkpt lat="45.8770146" lon="9.250568"><ele>745.0</ele><time>2026-03-29T16:34:51.947Z</time></trkpt><trkpt lat="45.8770418" lon="9.2504185"><ele>744.0</ele><time>2026-03-29T16:34:52.947Z</time></trkpt><trkpt lat="45.8770809" lon="9.2502561"><ele>744.0</ele><time>2026-03-29T16:34:53.946Z</time></trkpt><trkpt lat="45.877136" lon="9.2500968"><ele>744.0</ele><time>2026-03-29T16:34:54.947Z</time></trkpt><trkpt lat="45.8771927" lon="9.249926"><ele>744.0</ele><time>2026-03-29T16:34:55.947Z</time></trkpt><trkpt lat="45.8772441" lon="9.2497675"><ele>744.0</ele><time>2026-03-29T16:34:56.947Z</time></trkpt><trkpt lat="45.8772935" lon="9.2496262"><ele>745.3333333333334</ele><time>2026-03-29T16:34:57.947Z</time></trkpt><trkpt lat="45.877338" lon="9.2495025"><ele>746.6666666666666</ele><time>2026-03-29T16:34:58.946Z</time></trkpt><trkpt lat="45.8773634" lon="9.2493968"><ele>748.0</ele><time>2026-03-29T16:34:59.947Z</time></trkpt><trkpt lat="45.8773485" lon="9.2493062"><ele>749.3333333333333</ele><time>2026-03-29T16:35:00.947Z</time></trkpt><trkpt lat="45.8772441" lon="9.2492194"><ele>750.6666666666666</ele><time>2026-03-29T16:35:02.945Z</time></trkpt><trkpt lat="45.8771726" lon="9.2492373"><ele>752.0</ele><time>2026-03-29T16:35:03.946Z</time></trkpt><trkpt lat="45.8771102" lon="9.2492867"><ele>752.0</ele><time>2026-03-29T16:35:04.947Z</time></trkpt><trkpt lat="45.8770405" lon="9.2493443"><ele>752.0</ele><time>2026-03-29T16:35:05.946Z</time></trkpt><trkpt lat="45.8769848" lon="9.2494396"><ele>752.0</ele><time>2026-03-29T16:35:06.946Z</time></trkpt><trkpt lat="45.8769241" lon="9.2495086"><ele>752.0</ele><time>2026-03-29T16:35:07.946Z</time></trkpt><trkpt lat="45.8768592" lon="9.2495863"><ele>752.0</ele><time>2026-03-29T16:35:08.946Z</time></trkpt><trkpt lat="45.8768182" lon="9.2495123"><ele>752.0</ele><time>2026-03-29T16:35:09.947Z</time></trkpt><trkpt lat="45.876745" lon="9.2493934"><ele>752.0</ele><time>2026-03-29T16:35:11.946Z</time></trkpt><trkpt lat="45.8767587" lon="9.2492387"><ele>752.0</ele><time>2026-03-29T16:35:12.947Z</time></trkpt><trkpt lat="45.8767757" lon="9.2490981"><ele>752.0</ele><time>2026-03-29T16:35:13.946Z</time></trkpt><trkpt lat="45.876788" lon="9.2489533"><ele>752.0</ele><time>2026-03-29T16:35:14.946Z</time></trkpt><trkpt lat="45.8768049" lon="9.2488063"><ele>752.0</ele><time>2026-03-29T16:35:15.946Z</time></trkpt><trkpt lat="45.8768318" lon="9.2487045"><ele>754.2</ele><time>2026-03-29T16:35:16.947Z</time></trkpt><trkpt lat="45.8768507" lon="9.2485379"><ele>756.4000000000001</ele><time>2026-03-29T16:35:17.947Z</time></trkpt><trkpt lat="45.8768793" lon="9.2484236"><ele>758.5999999999999</ele><time>2026-03-29T16:35:18.946Z</time></trkpt><trkpt lat="45.8769074" lon="9.2483071"><ele>760.8</ele><time>2026-03-29T16:35:19.947Z</time></trkpt><trkpt lat="45.87692" lon="9.2481817"><ele>763.0</ele><time>2026-03-29T16:35:20.945Z</time></trkpt><trkpt lat="45.8769344" lon="9.2480684"><ele>764.3333333333334</ele><time>2026-03-29T16:35:21.947Z</time></trkpt><trkpt lat="45.8769522" lon="9.2479605"><ele>765.6666666666667</ele><time>2026-03-29T16:35:22.947Z</time></trkpt><trkpt lat="45.8769759" lon="9.2478493"><ele>767.0</ele><time>2026-03-29T16:35:23.946Z</time></trkpt><trkpt lat="45.876989" lon="9.247731"><ele>768.3333333333334</ele><time>2026-03-29T16:35:24.945Z</time></trkpt><trkpt lat="45.8770003" lon="9.2475929"><ele>769.6666666666666</ele><time>2026-03-29T16:35:25.946Z</time></trkpt><trkpt lat="45.8770035" lon="9.2474498"><ele>771.0</ele><time>2026-03-29T16:35:26.946Z</time></trkpt><trkpt lat="45.8770105" lon="9.2473241"><ele>770.3333333333334</ele><time>2026-03-29T16:35:27.946Z</time></trkpt><trkpt lat="45.8770216" lon="9.2472043"><ele>769.6666666666666</ele><time>2026-03-29T16:35:28.947Z</time></trkpt><trkpt lat="45.877037" lon="9.2470957"><ele>769.0</ele><time>2026-03-29T16:35:29.946Z</time></trkpt><trkpt lat="45.8770691" lon="9.2470089"><ele>768.3333333333333</ele><time>2026-03-29T16:35:30.946Z</time></trkpt><trkpt lat="45.8770882" lon="9.2469152"><ele>767.6666666666666</ele><time>2026-03-29T16:35:31.946Z</time></trkpt><trkpt lat="45.8771918" lon="9.246815"><ele>767.0</ele><time>2026-03-29T16:35:32.947Z</time></trkpt><trkpt lat="45.877273" lon="9.2467444"><ele>767.0</ele><time>2026-03-29T16:35:33.947Z</time></trkpt><trkpt lat="45.8773697" lon="9.246671"><ele>767.0</ele><time>2026-03-29T16:35:34.946Z</time></trkpt><trkpt lat="45.8774838" lon="9.2466033"><ele>767.0</ele><time>2026-03-29T16:35:35.946Z</time></trkpt><trkpt lat="45.8775912" lon="9.2465492"><ele>767.0</ele><time>2026-03-29T16:35:36.947Z</time></trkpt><trkpt lat="45.8776897" lon="9.2464974"><ele>769.75</ele><time>2026-03-29T16:35:37.947Z</time></trkpt><trkpt lat="45.8777876" lon="9.2464352"><ele>772.5</ele><time>2026-03-29T16:35:38.946Z</time></trkpt><trkpt lat="45.8778658" lon="9.2462984"><ele>775.25</ele><time>2026-03-29T16:35:39.947Z</time></trkpt><trkpt lat="45.8779558" lon="9.2461896"><ele>778.0</ele><time>2026-03-29T16:35:40.947Z</time></trkpt><trkpt lat="45.8780294" lon="9.2460134"><ele>778.0</ele><time>2026-03-29T16:35:41.946Z</time></trkpt><trkpt lat="45.8781095" lon="9.2458598"><ele>778.0</ele><time>2026-03-29T16:35:42.947Z</time></trkpt><trkpt lat="45.8781899" lon="9.24569"><ele>778.0</ele><time>2026-03-29T16:35:43.946Z</time></trkpt><trkpt lat="45.8782748" lon="9.245562"><ele>778.0</ele><time>2026-03-29T16:35:44.947Z</time></trkpt><trkpt lat="45.8783349" lon="9.2453881"><ele>777.0</ele><time>2026-03-29T16:35:45.947Z</time></trkpt><trkpt lat="45.8783921" lon="9.2452189"><ele>776.0</ele><time>2026-03-29T16:35:46.947Z</time></trkpt><trkpt lat="45.8784521" lon="9.2450544"><ele>775.0</ele><time>2026-03-29T16:35:47.946Z</time></trkpt><trkpt lat="45.8784669" lon="9.2448618"><ele>774.0</ele><time>2026-03-29T16:35:48.946Z</time></trkpt><trkpt lat="45.878521" lon="9.244698"><ele>779.0</ele><time>2026-03-29T16:35:49.947Z</time></trkpt><trkpt lat="45.8785904" lon="9.2445273"><ele>784.0</ele><time>2026-03-29T16:35:50.947Z</time></trkpt><trkpt lat="45.8786527" lon="9.2443642"><ele>789.0</ele><time>2026-03-29T16:35:51.947Z</time></trkpt><trkpt lat="45.8787237" lon="9.2441977"><ele>794.0</ele><time>2026-03-29T16:35:52.947Z</time></trkpt><trkpt lat="45.8787332" lon="9.2440787"><ele>792.8000000000001</ele><time>2026-03-29T16:35:53.947Z</time></trkpt><trkpt lat="45.8787661" lon="9.2439448"><ele>791.6</ele><time>2026-03-29T16:35:54.947Z</time></trkpt><trkpt lat="45.878783" lon="9.2438373"><ele>790.4</ele><time>2026-03-29T16:35:55.947Z</time></trkpt><trkpt lat="45.8787635" lon="9.243688"><ele>789.2</ele><time>2026-03-29T16:35:57.947Z</time></trkpt><trkpt lat="45.8788446" lon="9.2436351"><ele>788.0</ele><time>2026-03-29T16:35:59.947Z</time></trkpt><trkpt lat="45.8789152" lon="9.2437726"><ele>788.0</ele><time>2026-03-29T16:36:01.947Z</time></trkpt><trkpt lat="45.8789258" lon="9.2438932"><ele>788.0</ele><time>2026-03-29T16:36:02.947Z</time></trkpt><trkpt lat="45.8789313" lon="9.2440407"><ele>788.0</ele><time>2026-03-29T16:36:03.946Z</time></trkpt><trkpt lat="45.87895" lon="9.2441931"><ele>788.0</ele><time>2026-03-29T16:36:04.947Z</time></trkpt><trkpt lat="45.8789737" lon="9.2443223"><ele>788.0</ele><time>2026-03-29T16:36:05.947Z</time></trkpt><trkpt lat="45.8790067" lon="9.2444691"><ele>789.5</ele><time>2026-03-29T16:36:06.946Z</time></trkpt><trkpt lat="45.8790508" lon="9.2446016"><ele>791.0</ele><time>2026-03-29T16:36:07.947Z</time></trkpt><trkpt lat="45.8791203" lon="9.2447091"><ele>792.5</ele><time>2026-03-29T16:36:08.947Z</time></trkpt><trkpt lat="45.8792112" lon="9.2448747"><ele>794.0</ele><time>2026-03-29T16:36:09.947Z</time></trkpt><trkpt lat="45.8792973" lon="9.2450187"><ele>799.5</ele><time>2026-03-29T16:36:10.947Z</time></trkpt><trkpt lat="45.8793167" lon="9.2451762"><ele>805.0</ele><time>2026-03-29T16:36:11.947Z</time></trkpt><trkpt lat="45.8793766" lon="9.2453327"><ele>810.5</ele><time>2026-03-29T16:36:12.947Z</time></trkpt><trkpt lat="45.8794358" lon="9.2454952"><ele>816.0</ele><time>2026-03-29T16:36:13.946Z</time></trkpt><trkpt lat="45.8795018" lon="9.2456666"><ele>816.0</ele><time>2026-03-29T16:36:14.947Z</time></trkpt><trkpt lat="45.8795694" lon="9.245828"><ele>816.0</ele><time>2026-03-29T16:36:15.945Z</time></trkpt><trkpt lat="45.8796342" lon="9.2459721"><ele>816.0</ele><time>2026-03-29T16:36:16.946Z</time></trkpt><trkpt lat="45.8796886" lon="9.2461084"><ele>816.0</ele><time>2026-03-29T16:36:17.945Z</time></trkpt><trkpt lat="45.87973" lon="9.2462386"><ele>816.0</ele><time>2026-03-29T16:36:18.947Z</time></trkpt><trkpt lat="45.8797777" lon="9.2463696"><ele>816.0</ele><time>2026-03-29T16:36:19.947Z</time></trkpt><trkpt lat="45.8797742" lon="9.2464807"><ele>816.0</ele><time>2026-03-29T16:36:20.947Z</time></trkpt><trkpt lat="45.879789" lon="9.2465998"><ele>816.0</ele><time>2026-03-29T16:36:21.947Z</time></trkpt><trkpt lat="45.8798803" lon="9.2466891"><ele>816.0</ele><time>2026-03-29T16:36:23.947Z</time></trkpt><trkpt lat="45.8799725" lon="9.2466084"><ele>816.0</ele><time>2026-03-29T16:36:25.947Z</time></trkpt><trkpt lat="45.879983" lon="9.2465157"><ele>816.0</ele><time>2026-03-29T16:36:26.946Z</time></trkpt><trkpt lat="45.879978" lon="9.2464202"><ele>816.0</ele><time>2026-03-29T16:36:27.947Z</time></trkpt><trkpt lat="45.8799685" lon="9.246315"><ele>816.0</ele><time>2026-03-29T16:36:28.946Z</time></trkpt><trkpt lat="45.8799642" lon="9.2462004"><ele>816.0</ele><time>2026-03-29T16:36:29.947Z</time></trkpt><trkpt lat="45.8799624" lon="9.2460882"><ele>816.0</ele><time>2026-03-29T16:36:30.946Z</time></trkpt><trkpt lat="45.8799596" lon="9.2459718"><ele>816.0</ele><time>2026-03-29T16:36:31.946Z</time></trkpt><trkpt lat="45.8799575" lon="9.2458449"><ele>816.0</ele><time>2026-03-29T16:36:32.947Z</time></trkpt><trkpt lat="45.8799665" lon="9.2457137"><ele>816.0</ele><time>2026-03-29T16:36:33.946Z</time></trkpt><trkpt lat="45.8799695" lon="9.2455896"><ele>816.0</ele><time>2026-03-29T16:36:34.946Z</time></trkpt><trkpt lat="45.8799886" lon="9.2454258"><ele>816.0</ele><time>2026-03-29T16:36:35.947Z</time></trkpt><trkpt lat="45.8800004" lon="9.2452852"><ele>816.0</ele><time>2026-03-29T16:36:36.945Z</time></trkpt><trkpt lat="45.8800066" lon="9.2451434"><ele>816.0</ele><time>2026-03-29T16:36:37.947Z</time></trkpt><trkpt lat="45.8800109" lon="9.2450101"><ele>816.0</ele><time>2026-03-29T16:36:38.946Z</time></trkpt><trkpt lat="45.880027" lon="9.2448847"><ele>816.0</ele><time>2026-03-29T16:36:39.946Z</time></trkpt><trkpt lat="45.880063" lon="9.2447726"><ele>816.0</ele><time>2026-03-29T16:36:40.946Z</time></trkpt><trkpt lat="45.8801217" lon="9.2446687"><ele>816.0</ele><time>2026-03-29T16:36:41.947Z</time></trkpt><trkpt lat="45.8801994" lon="9.244583"><ele>818.75</ele><time>2026-03-29T16:36:42.947Z</time></trkpt><trkpt lat="45.8802971" lon="9.2445139"><ele>821.5</ele><time>2026-03-29T16:36:43.947Z</time></trkpt><trkpt lat="45.8804187" lon="9.2444457"><ele>824.25</ele><time>2026-03-29T16:36:44.947Z</time></trkpt><trkpt lat="45.8805429" lon="9.2443761"><ele>827.0</ele><time>2026-03-29T16:36:45.947Z</time></trkpt><trkpt lat="45.8806569" lon="9.2443135"><ele>827.0</ele><time>2026-03-29T16:36:46.947Z</time></trkpt><trkpt lat="45.8807786" lon="9.244246"><ele>827.0</ele><time>2026-03-29T16:36:47.946Z</time></trkpt><trkpt lat="45.8808994" lon="9.2441833"><ele>827.0</ele><time>2026-03-29T16:36:48.945Z</time></trkpt><trkpt lat="45.8810127" lon="9.2441206"><ele>827.0</ele><time>2026-03-29T16:36:49.947Z</time></trkpt><trkpt lat="45.8811311" lon="9.2440642"><ele>826.75</ele><time>2026-03-29T16:36:50.946Z</time></trkpt><trkpt lat="45.8812564" lon="9.2440233"><ele>826.5</ele><time>2026-03-29T16:36:51.946Z</time></trkpt><trkpt lat="45.8813925" lon="9.2439851"><ele>826.25</ele><time>2026-03-29T16:36:52.946Z</time></trkpt><trkpt lat="45.8815408" lon="9.2439438"><ele>826.0</ele><time>2026-03-29T16:36:53.947Z</time></trkpt><trkpt lat="45.8817016" lon="9.243916"><ele>829.3333333333333</ele><time>2026-03-29T16:36:54.946Z</time></trkpt><trkpt lat="45.8818792" lon="9.2439018"><ele>832.6666666666667</ele><time>2026-03-29T16:36:55.947Z</time></trkpt><trkpt lat="45.8820713" lon="9.2438856"><ele>836.0</ele><time>2026-03-29T16:36:56.947Z</time></trkpt><trkpt lat="45.8822562" lon="9.2438712"><ele>836.0</ele><time>2026-03-29T16:36:57.947Z</time></trkpt><trkpt lat="45.8824245" lon="9.2438594"><ele>836.0</ele><time>2026-03-29T16:36:58.947Z</time></trkpt><trkpt lat="45.8825918" lon="9.2438461"><ele>836.0</ele><time>2026-03-29T16:36:59.947Z</time></trkpt><trkpt lat="45.8827565" lon="9.2438365"><ele>840.5</ele><time>2026-03-29T16:37:00.945Z</time></trkpt><trkpt lat="45.8829064" lon="9.2438182"><ele>845.0</ele><time>2026-03-29T16:37:01.947Z</time></trkpt><trkpt lat="45.8830221" lon="9.2438147"><ele>849.5</ele><time>2026-03-29T16:37:02.947Z</time></trkpt><trkpt lat="45.8831532" lon="9.2437902"><ele>854.0</ele><time>2026-03-29T16:37:03.947Z</time></trkpt><trkpt lat="45.8832746" lon="9.2437522"><ele>854.0</ele><time>2026-03-29T16:37:04.946Z</time></trkpt><trkpt lat="45.8833747" lon="9.2436151"><ele>854.0</ele><time>2026-03-29T16:37:05.946Z</time></trkpt><trkpt lat="45.8834769" lon="9.243461"><ele>854.0</ele><time>2026-03-29T16:37:06.947Z</time></trkpt><trkpt lat="45.8836006" lon="9.2434048"><ele>854.0</ele><time>2026-03-29T16:37:07.947Z</time></trkpt><trkpt lat="45.8837342" lon="9.2433618"><ele>858.0</ele><time>2026-03-29T16:37:08.946Z</time></trkpt><trkpt lat="45.8838824" lon="9.2433486"><ele>862.0</ele><time>2026-03-29T16:37:09.947Z</time></trkpt><trkpt lat="45.8840248" lon="9.2433407"><ele>866.0</ele><time>2026-03-29T16:37:10.946Z</time></trkpt><trkpt lat="45.8841725" lon="9.2433246"><ele>870.0</ele><time>2026-03-29T16:37:11.947Z</time></trkpt><trkpt lat="45.8842993" lon="9.2432604"><ele>868.5</ele><time>2026-03-29T16:37:12.947Z</time></trkpt><trkpt lat="45.8844093" lon="9.2431179"><ele>867.0</ele><time>2026-03-29T16:37:13.947Z</time></trkpt><trkpt lat="45.8845366" lon="9.2430309"><ele>865.5</ele><time>2026-03-29T16:37:14.947Z</time></trkpt><trkpt lat="45.8846615" lon="9.2429429"><ele>864.0</ele><time>2026-03-29T16:37:15.946Z</time></trkpt><trkpt lat="45.8848062" lon="9.2428659"><ele>864.0</ele><time>2026-03-29T16:37:16.947Z</time></trkpt><trkpt lat="45.88497" lon="9.2428596"><ele>864.0</ele><time>2026-03-29T16:37:17.947Z</time></trkpt><trkpt lat="45.8851696" lon="9.2428039"><ele>864.0</ele><time>2026-03-29T16:37:18.947Z</time></trkpt><trkpt lat="45.8853185" lon="9.24273"><ele>867.0</ele><time>2026-03-29T16:37:19.947Z</time></trkpt><trkpt lat="45.8854624" lon="9.2426771"><ele>870.0</ele><time>2026-03-29T16:37:20.946Z</time></trkpt><trkpt lat="45.8855922" lon="9.2426266"><ele>873.0</ele><time>2026-03-29T16:37:21.946Z</time></trkpt><trkpt lat="45.8857038" lon="9.2425837"><ele>876.0</ele><time>2026-03-29T16:37:22.947Z</time></trkpt><trkpt lat="45.885817" lon="9.2425925"><ele>876.75</ele><time>2026-03-29T16:37:23.947Z</time></trkpt><trkpt lat="45.8859412" lon="9.2426497"><ele>877.5</ele><time>2026-03-29T16:37:24.945Z</time></trkpt><trkpt lat="45.8860769" lon="9.2427252"><ele>878.25</ele><time>2026-03-29T16:37:25.947Z</time></trkpt><trkpt lat="45.8862276" lon="9.2428121"><ele>879.0</ele><time>2026-03-29T16:37:26.947Z</time></trkpt><trkpt lat="45.8863714" lon="9.2428949"><ele>879.0</ele><time>2026-03-29T16:37:27.946Z</time></trkpt><trkpt lat="45.88652" lon="9.2430226"><ele>879.0</ele><time>2026-03-29T16:37:28.947Z</time></trkpt><trkpt lat="45.8866711" lon="9.2431215"><ele>879.0</ele><time>2026-03-29T16:37:29.947Z</time></trkpt><trkpt lat="45.8868402" lon="9.2432468"><ele>882.3333333333333</ele><time>2026-03-29T16:37:30.946Z</time></trkpt><trkpt lat="45.8870217" lon="9.2432924"><ele>885.6666666666666</ele><time>2026-03-29T16:37:31.946Z</time></trkpt><trkpt lat="45.8871993" lon="9.2433513"><ele>889.0</ele><time>2026-03-29T16:37:32.946Z</time></trkpt><trkpt lat="45.8873912" lon="9.2433861"><ele>889.0</ele><time>2026-03-29T16:37:33.946Z</time></trkpt><trkpt lat="45.8875828" lon="9.2434124"><ele>889.0</ele><time>2026-03-29T16:37:34.946Z</time></trkpt><trkpt lat="45.8877785" lon="9.2434358"><ele>889.0</ele><time>2026-03-29T16:37:35.946Z</time></trkpt><trkpt lat="45.8879164" lon="9.2434335"><ele>892.0</ele><time>2026-03-29T16:37:36.947Z</time></trkpt><trkpt lat="45.888091" lon="9.2434504"><ele>895.0</ele><time>2026-03-29T16:37:37.946Z</time></trkpt><trkpt lat="45.8882609" lon="9.243489"><ele>898.0</ele><time>2026-03-29T16:37:38.947Z</time></trkpt><trkpt lat="45.8884265" lon="9.243517"><ele>901.6666666666666</ele><time>2026-03-29T16:37:39.945Z</time></trkpt><trkpt lat="45.88859" lon="9.2435441"><ele>905.3333333333333</ele><time>2026-03-29T16:37:40.947Z</time></trkpt><trkpt lat="45.8887557" lon="9.2435765"><ele>909.0</ele><time>2026-03-29T16:37:41.947Z</time></trkpt><trkpt lat="45.8889266" lon="9.2435925"><ele>909.0</ele><time>2026-03-29T16:37:42.947Z</time></trkpt><trkpt lat="45.8890755" lon="9.2436165"><ele>909.0</ele><time>2026-03-29T16:37:43.946Z</time></trkpt><trkpt lat="45.8892081" lon="9.2436377"><ele>909.0</ele><time>2026-03-29T16:37:44.946Z</time></trkpt><trkpt lat="45.8893302" lon="9.2436576"><ele>909.0</ele><time>2026-03-29T16:37:45.946Z</time></trkpt><trkpt lat="45.8894373" lon="9.2436717"><ele>909.1666666666666</ele><time>2026-03-29T16:37:46.947Z</time></trkpt><trkpt lat="45.8895331" lon="9.2436753"><ele>909.3333333333333</ele><time>2026-03-29T16:37:47.947Z</time></trkpt><trkpt lat="45.8896102" lon="9.2436688"><ele>909.5</ele><time>2026-03-29T16:37:48.946Z</time></trkpt><trkpt lat="45.8896747" lon="9.2436373"><ele>909.6666666666666</ele><time>2026-03-29T16:37:49.947Z</time></trkpt><trkpt lat="45.8897963" lon="9.2436548"><ele>909.8333333333333</ele><time>2026-03-29T16:37:51.945Z</time></trkpt><trkpt lat="45.8898435" lon="9.2437301"><ele>910.0</ele><time>2026-03-29T16:37:52.946Z</time></trkpt><trkpt lat="45.8899178" lon="9.2438535"><ele>910.0</ele><time>2026-03-29T16:37:54.947Z</time></trkpt><trkpt lat="45.8898701" lon="9.243943"><ele>910.0</ele><time>2026-03-29T16:37:55.947Z</time></trkpt><trkpt lat="45.8897626" lon="9.2439716"><ele>910.0</ele><time>2026-03-29T16:37:56.946Z</time></trkpt><trkpt lat="45.889587" lon="9.2439736"><ele>910.0</ele><time>2026-03-29T16:37:57.947Z</time></trkpt><trkpt lat="45.889438" lon="9.2438638"><ele>910.0</ele><time>2026-03-29T16:37:58.947Z</time></trkpt><trkpt lat="45.8893198" lon="9.2438664"><ele>910.0</ele><time>2026-03-29T16:37:59.947Z</time></trkpt><trkpt lat="45.889194" lon="9.2438562"><ele>910.0</ele><time>2026-03-29T16:38:00.946Z</time></trkpt><trkpt lat="45.8890424" lon="9.2438755"><ele>910.0</ele><time>2026-03-29T16:38:01.947Z</time></trkpt><trkpt lat="45.8889063" lon="9.2439295"><ele>913.6666666666666</ele><time>2026-03-29T16:38:02.946Z</time></trkpt><trkpt lat="45.8887261" lon="9.2440602"><ele>917.3333333333333</ele><time>2026-03-29T16:38:03.946Z</time></trkpt><trkpt lat="45.8885682" lon="9.2441414"><ele>921.0</ele><time>2026-03-29T16:38:04.947Z</time></trkpt><trkpt lat="45.8883965" lon="9.2442467"><ele>921.0</ele><time>2026-03-29T16:38:05.947Z</time></trkpt><trkpt lat="45.8882233" lon="9.2443986"><ele>921.0</ele><time>2026-03-29T16:38:06.945Z</time></trkpt><trkpt lat="45.8880435" lon="9.2445324"><ele>921.0</ele><time>2026-03-29T16:38:07.947Z</time></trkpt><trkpt lat="45.8878419" lon="9.2446666"><ele>921.0</ele><time>2026-03-29T16:38:08.947Z</time></trkpt><trkpt lat="45.8876587" lon="9.2447948"><ele>921.0</ele><time>2026-03-29T16:38:09.947Z</time></trkpt><trkpt lat="45.8874938" lon="9.2449064"><ele>921.0</ele><time>2026-03-29T16:38:10.946Z</time></trkpt><trkpt lat="45.887347" lon="9.2449968"><ele>924.8</ele><time>2026-03-29T16:38:11.947Z</time></trkpt><trkpt lat="45.8872103" lon="9.2450432"><ele>928.5999999999999</ele><time>2026-03-29T16:38:12.947Z</time></trkpt><trkpt lat="45.887086" lon="9.2450566"><ele>932.4</ele><time>2026-03-29T16:38:13.947Z</time></trkpt><trkpt lat="45.8869898" lon="9.2450544"><ele>936.2</ele><time>2026-03-29T16:38:14.946Z</time></trkpt><trkpt lat="45.8869045" lon="9.2450648"><ele>940.0</ele><time>2026-03-29T16:38:15.947Z</time></trkpt><trkpt lat="45.886844" lon="9.2451134"><ele>940.0</ele><time>2026-03-29T16:38:16.947Z</time></trkpt><trkpt lat="45.8867869" lon="9.2451568"><ele>940.0</ele><time>2026-03-29T16:38:17.947Z</time></trkpt><trkpt lat="45.8868809" lon="9.2453486"><ele>940.0</ele><time>2026-03-29T16:38:19.945Z</time></trkpt><trkpt lat="45.8869471" lon="9.2453735"><ele>940.0</ele><time>2026-03-29T16:38:20.947Z</time></trkpt><trkpt lat="45.8870481" lon="9.2453452"><ele>940.0</ele><time>2026-03-29T16:38:21.945Z</time></trkpt><trkpt lat="45.8871725" lon="9.2453007"><ele>940.0</ele><time>2026-03-29T16:38:22.947Z</time></trkpt><trkpt lat="45.8872928" lon="9.245247"><ele>940.0</ele><time>2026-03-29T16:38:23.947Z</time></trkpt><trkpt lat="45.8874159" lon="9.2451863"><ele>940.0</ele><time>2026-03-29T16:38:24.947Z</time></trkpt><trkpt lat="45.8875211" lon="9.2451456"><ele>940.0</ele><time>2026-03-29T16:38:25.947Z</time></trkpt><trkpt lat="45.8876913" lon="9.24511"><ele>943.0</ele><time>2026-03-29T16:38:26.947Z</time></trkpt><trkpt lat="45.8878884" lon="9.2451316"><ele>946.0</ele><time>2026-03-29T16:38:27.946Z</time></trkpt><trkpt lat="45.8880323" lon="9.2451174"><ele>949.0</ele><time>2026-03-29T16:38:28.947Z</time></trkpt><trkpt lat="45.8881855" lon="9.2451092"><ele>949.0</ele><time>2026-03-29T16:38:29.946Z</time></trkpt><trkpt lat="45.8883355" lon="9.2450926"><ele>949.0</ele><time>2026-03-29T16:38:30.945Z</time></trkpt><trkpt lat="45.888488" lon="9.2450778"><ele>949.0</ele><time>2026-03-29T16:38:31.946Z</time></trkpt><trkpt lat="45.8886421" lon="9.2450606"><ele>950.6666666666666</ele><time>2026-03-29T16:38:32.947Z</time></trkpt><trkpt lat="45.8888009" lon="9.2450501"><ele>952.3333333333333</ele><time>2026-03-29T16:38:33.946Z</time></trkpt><trkpt lat="45.8889622" lon="9.24506"><ele>954.0</ele><time>2026-03-29T16:38:34.946Z</time></trkpt><trkpt lat="45.8891261" lon="9.2450695"><ele>955.6666666666667</ele><time>2026-03-29T16:38:35.946Z</time></trkpt><trkpt lat="45.8892961" lon="9.2450881"><ele>957.3333333333334</ele><time>2026-03-29T16:38:36.947Z</time></trkpt><trkpt lat="45.8894571" lon="9.2451199"><ele>959.0</ele><time>2026-03-29T16:38:37.947Z</time></trkpt><trkpt lat="45.8896256" lon="9.2451448"><ele>959.0</ele><time>2026-03-29T16:38:38.947Z</time></trkpt><trkpt lat="45.8897837" lon="9.2451701"><ele>959.0</ele><time>2026-03-29T16:38:39.946Z</time></trkpt><trkpt lat="45.8899409" lon="9.2451949"><ele>959.0</ele><time>2026-03-29T16:38:40.947Z</time></trkpt><trkpt lat="45.8900959" lon="9.2452131"><ele>958.3333333333334</ele><time>2026-03-29T16:38:41.947Z</time></trkpt><trkpt lat="45.8902477" lon="9.2452406"><ele>957.6666666666667</ele><time>2026-03-29T16:38:42.946Z</time></trkpt><trkpt lat="45.8904033" lon="9.24527"><ele>957.0</ele><time>2026-03-29T16:38:43.946Z</time></trkpt><trkpt lat="45.890554" lon="9.2452911"><ele>957.0</ele><time>2026-03-29T16:38:44.946Z</time></trkpt><trkpt lat="45.8907085" lon="9.2453237"><ele>957.0</ele><time>2026-03-29T16:38:45.946Z</time></trkpt><trkpt lat="45.8908611" lon="9.2453754"><ele>957.0</ele><time>2026-03-29T16:38:46.947Z</time></trkpt><trkpt lat="45.8910116" lon="9.2454419"><ele>956.6666666666667</ele><time>2026-03-29T16:38:47.945Z</time></trkpt><trkpt lat="45.8911681" lon="9.2455026"><ele>956.3333333333334</ele><time>2026-03-29T16:38:48.946Z</time></trkpt><trkpt lat="45.8913286" lon="9.2455489"><ele>956.0</ele><time>2026-03-29T16:38:49.947Z</time></trkpt><trkpt lat="45.8914892" lon="9.2455938"><ele>966.3333333333334</ele><time>2026-03-29T16:38:50.947Z</time></trkpt><trkpt lat="45.8916558" lon="9.245634"><ele>976.6666666666667</ele><time>2026-03-29T16:38:51.947Z</time></trkpt><trkpt lat="45.8918255" lon="9.2456711"><ele>987.0</ele><time>2026-03-29T16:38:52.946Z</time></trkpt><trkpt lat="45.8919972" lon="9.2457097"><ele>988.3333333333333</ele><time>2026-03-29T16:38:53.947Z</time></trkpt><trkpt lat="45.8921703" lon="9.2457365"><ele>989.6666666666666</ele><time>2026-03-29T16:38:54.946Z</time></trkpt><trkpt lat="45.8923524" lon="9.2457685"><ele>991.0</ele><time>2026-03-29T16:38:55.947Z</time></trkpt><trkpt lat="45.8925349" lon="9.2457954"><ele>991.6666666666666</ele><time>2026-03-29T16:38:56.947Z</time></trkpt><trkpt lat="45.8927141" lon="9.2458226"><ele>992.3333333333333</ele><time>2026-03-29T16:38:57.946Z</time></trkpt><trkpt lat="45.8929022" lon="9.2458521"><ele>993.0</ele><time>2026-03-29T16:38:58.947Z</time></trkpt><trkpt lat="45.8930647" lon="9.2458744"><ele>993.0</ele><time>2026-03-29T16:38:59.946Z</time></trkpt><trkpt lat="45.8932285" lon="9.2458989"><ele>993.0</ele><time>2026-03-29T16:39:00.946Z</time></trkpt><trkpt lat="45.8933794" lon="9.2459248"><ele>993.0</ele><time>2026-03-29T16:39:01.947Z</time></trkpt><trkpt lat="45.8935341" lon="9.2459458"><ele>996.5999999999999</ele><time>2026-03-29T16:39:02.946Z</time></trkpt><trkpt lat="45.8936501" lon="9.2459726"><ele>1000.1999999999999</ele><time>2026-03-29T16:39:03.947Z</time></trkpt><trkpt lat="45.8937652" lon="9.2459902"><ele>1003.8</ele><time>2026-03-29T16:39:04.946Z</time></trkpt><trkpt lat="45.893867" lon="9.2459963"><ele>1007.4</ele><time>2026-03-29T16:39:05.947Z</time></trkpt><trkpt lat="45.8939782" lon="9.2459964"><ele>1011.0</ele><time>2026-03-29T16:39:06.946Z</time></trkpt><trkpt lat="45.8940607" lon="9.2459573"><ele>1011.0</ele><time>2026-03-29T16:39:07.946Z</time></trkpt><trkpt lat="45.8941533" lon="9.2459254"><ele>1011.0</ele><time>2026-03-29T16:39:08.946Z</time></trkpt><trkpt lat="45.8942352" lon="9.2458975"><ele>1011.0</ele><time>2026-03-29T16:39:09.947Z</time></trkpt><trkpt lat="45.8942618" lon="9.2458082"><ele>1011.0</ele><time>2026-03-29T16:39:10.947Z</time></trkpt><trkpt lat="45.8943013" lon="9.2457258"><ele>1011.0</ele><time>2026-03-29T16:39:11.947Z</time></trkpt><trkpt lat="45.8942803" lon="9.2456226"><ele>1011.0</ele><time>2026-03-29T16:39:12.947Z</time></trkpt><trkpt lat="45.8941995" lon="9.245438"><ele>1012.6666666666667</ele><time>2026-03-29T16:39:13.947Z</time></trkpt><trkpt lat="45.8940633" lon="9.2452155"><ele>1014.3333333333334</ele><time>2026-03-29T16:39:14.946Z</time></trkpt><trkpt lat="45.8940292" lon="9.2450386"><ele>1016.0</ele><time>2026-03-29T16:39:15.946Z</time></trkpt><trkpt lat="45.894002" lon="9.2448528"><ele>1015.5</ele><time>2026-03-29T16:39:16.947Z</time></trkpt><trkpt lat="45.8939983" lon="9.2446684"><ele>1015.0</ele><time>2026-03-29T16:39:17.947Z</time></trkpt><trkpt lat="45.8940032" lon="9.2444838"><ele>1014.5</ele><time>2026-03-29T16:39:18.947Z</time></trkpt><trkpt lat="45.8940287" lon="9.2443081"><ele>1014.0</ele><time>2026-03-29T16:39:19.947Z</time></trkpt><trkpt lat="45.8940536" lon="9.2441358"><ele>1014.0</ele><time>2026-03-29T16:39:20.947Z</time></trkpt><trkpt lat="45.8941199" lon="9.2439985"><ele>1014.0</ele><time>2026-03-29T16:39:21.947Z</time></trkpt><trkpt lat="45.8941871" lon="9.2438575"><ele>1014.0</ele><time>2026-03-29T16:39:22.947Z</time></trkpt><trkpt lat="45.894266" lon="9.2437323"><ele>1014.0</ele><time>2026-03-29T16:39:23.947Z</time></trkpt><trkpt lat="45.8943464" lon="9.2436313"><ele>1018.6</ele><time>2026-03-29T16:39:24.946Z</time></trkpt><trkpt lat="45.8944271" lon="9.2435388"><ele>1023.2</ele><time>2026-03-29T16:39:25.946Z</time></trkpt><trkpt lat="45.894514" lon="9.2434728"><ele>1027.8000000000002</ele><time>2026-03-29T16:39:26.947Z</time></trkpt><trkpt lat="45.8945985" lon="9.2434201"><ele>1032.4</ele><time>2026-03-29T16:39:27.946Z</time></trkpt><trkpt lat="45.894682" lon="9.2433974"><ele>1037.0</ele><time>2026-03-29T16:39:28.947Z</time></trkpt><trkpt lat="45.8947511" lon="9.2433679"><ele>1037.0</ele><time>2026-03-29T16:39:29.947Z</time></trkpt><trkpt lat="45.8947921" lon="9.2432833"><ele>1037.0</ele><time>2026-03-29T16:39:30.947Z</time></trkpt><trkpt lat="45.8948464" lon="9.2431509"><ele>1037.0</ele><time>2026-03-29T16:39:32.947Z</time></trkpt><trkpt lat="45.8947792" lon="9.2430342"><ele>1037.0</ele><time>2026-03-29T16:39:33.946Z</time></trkpt><trkpt lat="45.8946952" lon="9.242874"><ele>1037.0</ele><time>2026-03-29T16:39:34.947Z</time></trkpt><trkpt lat="45.8946378" lon="9.2426952"><ele>1038.25</ele><time>2026-03-29T16:39:35.947Z</time></trkpt><trkpt lat="45.8946142" lon="9.2425382"><ele>1039.5</ele><time>2026-03-29T16:39:36.947Z</time></trkpt><trkpt lat="45.8946093" lon="9.242369"><ele>1040.75</ele><time>2026-03-29T16:39:37.946Z</time></trkpt><trkpt lat="45.8946021" lon="9.242187"><ele>1042.0</ele><time>2026-03-29T16:39:38.947Z</time></trkpt><trkpt lat="45.8945873" lon="9.2419965"><ele>1047.0</ele><time>2026-03-29T16:39:39.946Z</time></trkpt><trkpt lat="45.894546" lon="9.2418002"><ele>1052.0</ele><time>2026-03-29T16:39:40.947Z</time></trkpt><trkpt lat="45.8943761" lon="9.241659"><ele>1057.0</ele><time>2026-03-29T16:39:41.947Z</time></trkpt><trkpt lat="45.8942881" lon="9.2414947"><ele>1054.25</ele><time>2026-03-29T16:39:42.947Z</time></trkpt><trkpt lat="45.8941663" lon="9.2413477"><ele>1051.5</ele><time>2026-03-29T16:39:43.946Z</time></trkpt><trkpt lat="45.8940881" lon="9.241182"><ele>1048.75</ele><time>2026-03-29T16:39:44.947Z</time></trkpt><trkpt lat="45.8940213" lon="9.2410099"><ele>1046.0</ele><time>2026-03-29T16:39:45.946Z</time></trkpt><trkpt lat="45.8939664" lon="9.2408091"><ele>1052.6666666666667</ele><time>2026-03-29T16:39:46.947Z</time></trkpt><trkpt lat="45.8939165" lon="9.2405939"><ele>1059.3333333333333</ele><time>2026-03-29T16:39:47.947Z</time></trkpt><trkpt lat="45.8938479" lon="9.2403886"><ele>1066.0</ele><time>2026-03-29T16:39:48.946Z</time></trkpt><trkpt lat="45.8937662" lon="9.2401862"><ele>1066.0</ele><time>2026-03-29T16:39:49.947Z</time></trkpt><trkpt lat="45.8937003" lon="9.2399952"><ele>1066.0</ele><time>2026-03-29T16:39:50.947Z</time></trkpt><trkpt lat="45.8936255" lon="9.2398866"><ele>1066.0</ele><time>2026-03-29T16:39:51.947Z</time></trkpt><trkpt lat="45.8935304" lon="9.2397606"><ele>1066.0</ele><time>2026-03-29T16:39:52.947Z</time></trkpt><trkpt lat="45.89343" lon="9.2396371"><ele>1066.8</ele><time>2026-03-29T16:39:53.946Z</time></trkpt><trkpt lat="45.893339" lon="9.2395396"><ele>1067.6</ele><time>2026-03-29T16:39:54.947Z</time></trkpt><trkpt lat="45.8932624" lon="9.2394126"><ele>1068.4</ele><time>2026-03-29T16:39:55.946Z</time></trkpt><trkpt lat="45.8931788" lon="9.2393086"><ele>1069.2</ele><time>2026-03-29T16:39:56.945Z</time></trkpt><trkpt lat="45.8930935" lon="9.239219"><ele>1070.0</ele><time>2026-03-29T16:39:57.947Z</time></trkpt><trkpt lat="45.8929627" lon="9.23926"><ele>1070.0</ele><time>2026-03-29T16:39:58.946Z</time></trkpt><trkpt lat="45.8928483" lon="9.2392661"><ele>1070.0</ele><time>2026-03-29T16:39:59.947Z</time></trkpt><trkpt lat="45.8927062" lon="9.2392756"><ele>1070.0</ele><time>2026-03-29T16:40:00.947Z</time></trkpt><trkpt lat="45.8925658" lon="9.239252"><ele>1070.0</ele><time>2026-03-29T16:40:01.946Z</time></trkpt><trkpt lat="45.892438" lon="9.2392284"><ele>1067.0</ele><time>2026-03-29T16:40:02.946Z</time></trkpt><trkpt lat="45.8923167" lon="9.2391853"><ele>1064.0</ele><time>2026-03-29T16:40:03.947Z</time></trkpt><trkpt lat="45.8922048" lon="9.239147"><ele>1061.0</ele><time>2026-03-29T16:40:04.946Z</time></trkpt><trkpt lat="45.892097" lon="9.2390442"><ele>1058.0</ele><time>2026-03-29T16:40:05.947Z</time></trkpt><trkpt lat="45.8919946" lon="9.2389423"><ele>1059.5</ele><time>2026-03-29T16:40:06.947Z</time></trkpt><trkpt lat="45.891899" lon="9.2388142"><ele>1061.0</ele><time>2026-03-29T16:40:07.946Z</time></trkpt><trkpt lat="45.8918217" lon="9.2386472"><ele>1062.5</ele><time>2026-03-29T16:40:08.947Z</time></trkpt><trkpt lat="45.8917334" lon="9.2384802"><ele>1064.0</ele><time>2026-03-29T16:40:09.947Z</time></trkpt><trkpt lat="45.8916475" lon="9.2383218"><ele>1064.0</ele><time>2026-03-29T16:40:10.947Z</time></trkpt><trkpt lat="45.8915597" lon="9.2382006"><ele>1064.0</ele><time>2026-03-29T16:40:11.947Z</time></trkpt><trkpt lat="45.8914506" lon="9.2381242"><ele>1064.0</ele><time>2026-03-29T16:40:12.946Z</time></trkpt><trkpt lat="45.8913198" lon="9.2381042"><ele>1064.0</ele><time>2026-03-29T16:40:13.945Z</time></trkpt><trkpt lat="45.8911926" lon="9.238115"><ele>1069.5</ele><time>2026-03-29T16:40:14.947Z</time></trkpt><trkpt lat="45.8910718" lon="9.2381084"><ele>1075.0</ele><time>2026-03-29T16:40:15.946Z</time></trkpt><trkpt lat="45.8909465" lon="9.2380776"><ele>1080.5</ele><time>2026-03-29T16:40:16.947Z</time></trkpt><trkpt lat="45.8908308" lon="9.2380267"><ele>1086.0</ele><time>2026-03-29T16:40:17.945Z</time></trkpt><trkpt lat="45.8907244" lon="9.2379731"><ele>1086.0</ele><time>2026-03-29T16:40:18.947Z</time></trkpt><trkpt lat="45.8906132" lon="9.2379155"><ele>1086.0</ele><time>2026-03-29T16:40:19.947Z</time></trkpt><trkpt lat="45.8905495" lon="9.2377774"><ele>1086.0</ele><time>2026-03-29T16:40:20.947Z</time></trkpt><trkpt lat="45.8904865" lon="9.2376387"><ele>1086.0</ele><time>2026-03-29T16:40:21.946Z</time></trkpt><trkpt lat="45.8904286" lon="9.2374953"><ele>1086.0</ele><time>2026-03-29T16:40:22.947Z</time></trkpt><trkpt lat="45.8903862" lon="9.2373282"><ele>1086.0</ele><time>2026-03-29T16:40:23.946Z</time></trkpt><trkpt lat="45.8903316" lon="9.2372055"><ele>1086.0</ele><time>2026-03-29T16:40:24.947Z</time></trkpt><trkpt lat="45.8902878" lon="9.237051"><ele>1086.0</ele><time>2026-03-29T16:40:25.947Z</time></trkpt><trkpt lat="45.890191" lon="9.2369976"><ele>1086.0</ele><time>2026-03-29T16:40:26.947Z</time></trkpt><trkpt lat="45.8900553" lon="9.2369208"><ele>1089.3333333333333</ele><time>2026-03-29T16:40:27.946Z</time></trkpt><trkpt lat="45.8898879" lon="9.2368123"><ele>1092.6666666666665</ele><time>2026-03-29T16:40:28.946Z</time></trkpt><trkpt lat="45.8897707" lon="9.236713"><ele>1096.0</ele><time>2026-03-29T16:40:29.947Z</time></trkpt><trkpt lat="45.889659" lon="9.2365946"><ele>1103.2</ele><time>2026-03-29T16:40:30.946Z</time></trkpt><trkpt lat="45.8895794" lon="9.2364648"><ele>1110.3999999999999</ele><time>2026-03-29T16:40:31.946Z</time></trkpt><trkpt lat="45.8895308" lon="9.2363598"><ele>1117.6</ele><time>2026-03-29T16:40:32.947Z</time></trkpt><trkpt lat="45.8894961" lon="9.2361932"><ele>1124.8</ele><time>2026-03-29T16:40:33.947Z</time></trkpt><trkpt lat="45.8894337" lon="9.2361073"><ele>1132.0</ele><time>2026-03-29T16:40:34.947Z</time></trkpt><trkpt lat="45.8893215" lon="9.2360693"><ele>1125.4</ele><time>2026-03-29T16:40:35.947Z</time></trkpt><trkpt lat="45.8891968" lon="9.2361706"><ele>1118.8000000000002</ele><time>2026-03-29T16:40:36.946Z</time></trkpt><trkpt lat="45.8891148" lon="9.2360965"><ele>1112.2</ele><time>2026-03-29T16:40:37.946Z</time></trkpt><trkpt lat="45.8890232" lon="9.2360148"><ele>1105.6000000000001</ele><time>2026-03-29T16:40:38.945Z</time></trkpt><trkpt lat="45.8889322" lon="9.2359612"><ele>1099.0</ele><time>2026-03-29T16:40:39.946Z</time></trkpt><trkpt lat="45.8888277" lon="9.2358309"><ele>1099.0</ele><time>2026-03-29T16:40:40.947Z</time></trkpt><trkpt lat="45.8887524" lon="9.235686"><ele>1099.0</ele><time>2026-03-29T16:40:41.947Z</time></trkpt><trkpt lat="45.8886697" lon="9.2355532"><ele>1099.0</ele><time>2026-03-29T16:40:42.947Z</time></trkpt><trkpt lat="45.8886207" lon="9.2353591"><ele>1099.0</ele><time>2026-03-29T16:40:43.946Z</time></trkpt><trkpt lat="45.8885677" lon="9.235158"><ele>1108.6666666666665</ele><time>2026-03-29T16:40:44.946Z</time></trkpt><trkpt lat="45.8885141" lon="9.2349236"><ele>1118.3333333333333</ele><time>2026-03-29T16:40:45.947Z</time></trkpt><trkpt lat="45.8884764" lon="9.234705"><ele>1128.0</ele><time>2026-03-29T16:40:46.946Z</time></trkpt><trkpt lat="45.8884467" lon="9.2345085"><ele>1124.5</ele><time>2026-03-29T16:40:47.947Z</time></trkpt><trkpt lat="45.8884171" lon="9.234329"><ele>1121.0</ele><time>2026-03-29T16:40:48.947Z</time></trkpt><trkpt lat="45.8883834" lon="9.2341473"><ele>1117.5</ele><time>2026-03-29T16:40:49.946Z</time></trkpt><trkpt lat="45.8883325" lon="9.2339659"><ele>1114.0</ele><time>2026-03-29T16:40:50.946Z</time></trkpt><trkpt lat="45.8882574" lon="9.2337768"><ele>1114.0</ele><time>2026-03-29T16:40:51.946Z</time></trkpt><trkpt lat="45.8881772" lon="9.2336013"><ele>1114.0</ele><time>2026-03-29T16:40:52.946Z</time></trkpt><trkpt lat="45.8881031" lon="9.2334481"><ele>1114.0</ele><time>2026-03-29T16:40:53.947Z</time></trkpt><trkpt lat="45.8880252" lon="9.2333167"><ele>1114.0</ele><time>2026-03-29T16:40:54.947Z</time></trkpt><trkpt lat="45.8879425" lon="9.2331753"><ele>1111.75</ele><time>2026-03-29T16:40:55.947Z</time></trkpt><trkpt lat="45.8878573" lon="9.2330189"><ele>1109.5</ele><time>2026-03-29T16:40:56.947Z</time></trkpt><trkpt lat="45.8877639" lon="9.2328502"><ele>1107.25</ele><time>2026-03-29T16:40:57.947Z</time></trkpt><trkpt lat="45.8876777" lon="9.232692"><ele>1105.0</ele><time>2026-03-29T16:40:58.945Z</time></trkpt><trkpt lat="45.8875905" lon="9.2325463"><ele>1105.0</ele><time>2026-03-29T16:40:59.946Z</time></trkpt><trkpt lat="45.8874989" lon="9.2324069"><ele>1105.0</ele><time>2026-03-29T16:41:00.946Z</time></trkpt><trkpt lat="45.8873975" lon="9.2322767"><ele>1105.0</ele><time>2026-03-29T16:41:01.947Z</time></trkpt><trkpt lat="45.8872826" lon="9.2321838"><ele>1105.0</ele><time>2026-03-29T16:41:02.945Z</time></trkpt><trkpt lat="45.8871585" lon="9.232108"><ele>1111.0</ele><time>2026-03-29T16:41:03.947Z</time></trkpt><trkpt lat="45.8870114" lon="9.232067"><ele>1117.0</ele><time>2026-03-29T16:41:04.947Z</time></trkpt><trkpt lat="45.8868531" lon="9.2320403"><ele>1123.0</ele><time>2026-03-29T16:41:05.945Z</time></trkpt><trkpt lat="45.8866754" lon="9.2320321"><ele>1123.0</ele><time>2026-03-29T16:41:06.947Z</time></trkpt><trkpt lat="45.8864951" lon="9.2320219"><ele>1123.0</ele><time>2026-03-29T16:41:07.946Z</time></trkpt><trkpt lat="45.8863389" lon="9.2320026"><ele>1123.0</ele><time>2026-03-29T16:41:08.946Z</time></trkpt><trkpt lat="45.8861967" lon="9.2319714"><ele>1123.0</ele><time>2026-03-29T16:41:09.945Z</time></trkpt><trkpt lat="45.8860507" lon="9.2319299"><ele>1123.0</ele><time>2026-03-29T16:41:10.947Z</time></trkpt><trkpt lat="45.8859098" lon="9.2318677"><ele>1123.0</ele><time>2026-03-29T16:41:11.947Z</time></trkpt><trkpt lat="45.8857617" lon="9.2318005"><ele>1120.0</ele><time>2026-03-29T16:41:12.946Z</time></trkpt><trkpt lat="45.8856108" lon="9.2317402"><ele>1117.0</ele><time>2026-03-29T16:41:13.946Z</time></trkpt><trkpt lat="45.8854624" lon="9.2316729"><ele>1114.0</ele><time>2026-03-29T16:41:14.947Z</time></trkpt><trkpt lat="45.8853175" lon="9.2316074"><ele>1114.0</ele><time>2026-03-29T16:41:15.947Z</time></trkpt><trkpt lat="45.885173" lon="9.2315501"><ele>1114.0</ele><time>2026-03-29T16:41:16.947Z</time></trkpt><trkpt lat="45.8850348" lon="9.2314906"><ele>1114.0</ele><time>2026-03-29T16:41:17.946Z</time></trkpt><trkpt lat="45.8848974" lon="9.2314321"><ele>1114.0</ele><time>2026-03-29T16:41:18.947Z</time></trkpt><trkpt lat="45.8847584" lon="9.2313769"><ele>1121.0</ele><time>2026-03-29T16:41:19.947Z</time></trkpt><trkpt lat="45.8846131" lon="9.2313647"><ele>1128.0</ele><time>2026-03-29T16:41:20.947Z</time></trkpt><trkpt lat="45.8844585" lon="9.2313764"><ele>1135.0</ele><time>2026-03-29T16:41:21.946Z</time></trkpt><trkpt lat="45.8843036" lon="9.2314026"><ele>1134.0</ele><time>2026-03-29T16:41:22.946Z</time></trkpt><trkpt lat="45.8841606" lon="9.2314297"><ele>1133.0</ele><time>2026-03-29T16:41:23.947Z</time></trkpt><trkpt lat="45.884032" lon="9.2314611"><ele>1132.0</ele><time>2026-03-29T16:41:24.946Z</time></trkpt><trkpt lat="45.8839187" lon="9.2314875"><ele>1131.0</ele><time>2026-03-29T16:41:25.945Z</time></trkpt><trkpt lat="45.8838176" lon="9.2315049"><ele>1131.0</ele><time>2026-03-29T16:41:26.947Z</time></trkpt><trkpt lat="45.8837239" lon="9.2315106"><ele>1131.0</ele><time>2026-03-29T16:41:27.946Z</time></trkpt><trkpt lat="45.8836327" lon="9.2315013"><ele>1131.0</ele><time>2026-03-29T16:41:28.947Z</time></trkpt><trkpt lat="45.8835432" lon="9.2314789"><ele>1131.0</ele><time>2026-03-29T16:41:29.946Z</time></trkpt><trkpt lat="45.883459" lon="9.2314517"><ele>1131.0</ele><time>2026-03-29T16:41:30.947Z</time></trkpt><trkpt lat="45.8833838" lon="9.2314044"><ele>1131.0</ele><time>2026-03-29T16:41:31.947Z</time></trkpt><trkpt lat="45.8833141" lon="9.2313435"><ele>1128.8333333333333</ele><time>2026-03-29T16:41:32.947Z</time></trkpt><trkpt lat="45.8832487" lon="9.2312688"><ele>1126.6666666666667</ele><time>2026-03-29T16:41:33.947Z</time></trkpt><trkpt lat="45.8831918" lon="9.2311901"><ele>1124.5</ele><time>2026-03-29T16:41:34.946Z</time></trkpt><trkpt lat="45.883145" lon="9.2311111"><ele>1122.3333333333335</ele><time>2026-03-29T16:41:35.947Z</time></trkpt><trkpt lat="45.8831102" lon="9.2310179"><ele>1120.1666666666667</ele><time>2026-03-29T16:41:36.947Z</time></trkpt><trkpt lat="45.8830891" lon="9.2309107"><ele>1118.0</ele><time>2026-03-29T16:41:37.947Z</time></trkpt><trkpt lat="45.8830767" lon="9.2308033"><ele>1118.0</ele><time>2026-03-29T16:41:38.947Z</time></trkpt><trkpt lat="45.8830667" lon="9.2306879"><ele>1118.0</ele><time>2026-03-29T16:41:39.947Z</time></trkpt><trkpt lat="45.8830589" lon="9.2305666"><ele>1118.0</ele><time>2026-03-29T16:41:40.947Z</time></trkpt><trkpt lat="45.8830484" lon="9.230446"><ele>1118.0</ele><time>2026-03-29T16:41:41.947Z</time></trkpt><trkpt lat="45.8830364" lon="9.2303239"><ele>1118.0</ele><time>2026-03-29T16:41:42.947Z</time></trkpt><trkpt lat="45.8830213" lon="9.2301966"><ele>1118.0</ele><time>2026-03-29T16:41:43.947Z</time></trkpt><trkpt lat="45.8830036" lon="9.2300641"><ele>1119.0</ele><time>2026-03-29T16:41:44.947Z</time></trkpt><trkpt lat="45.8829794" lon="9.2299316"><ele>1120.0</ele><time>2026-03-29T16:41:45.947Z</time></trkpt><trkpt lat="45.8829481" lon="9.2298106"><ele>1121.0</ele><time>2026-03-29T16:41:46.946Z</time></trkpt><trkpt lat="45.882923" lon="9.2297166"><ele>1122.0</ele><time>2026-03-29T16:41:47.947Z</time></trkpt><trkpt lat="45.8829021" lon="9.2296303"><ele>1123.0</ele><time>2026-03-29T16:41:48.947Z</time></trkpt><trkpt lat="45.8828594" lon="9.2294666"><ele>1124.0</ele><time>2026-03-29T16:41:50.947Z</time></trkpt><trkpt lat="45.882844" lon="9.2293356"><ele>1124.0</ele><time>2026-03-29T16:41:52.947Z</time></trkpt><trkpt lat="45.8828247" lon="9.2292267"><ele>1124.0</ele><time>2026-03-29T16:41:54.945Z</time></trkpt><trkpt lat="45.8827378" lon="9.2291544"><ele>1124.0</ele><time>2026-03-29T16:41:57.947Z</time></trkpt><trkpt lat="45.8827097" lon="9.2292499"><ele>1124.0</ele><time>2026-03-29T16:49:33.946Z</time></trkpt><trkpt lat="45.8827701" lon="9.2293308"><ele>1124.0</ele><time>2026-03-29T16:49:37.947Z</time></trkpt><trkpt lat="45.8828251" lon="9.2294376"><ele>1124.0</ele><time>2026-03-29T16:49:40.947Z</time></trkpt><trkpt lat="45.8828565" lon="9.2295404"><ele>1124.0</ele><time>2026-03-29T16:49:42.947Z</time></trkpt><trkpt lat="45.8828848" lon="9.2296479"><ele>1124.0</ele><time>2026-03-29T16:49:44.946Z</time></trkpt><trkpt lat="45.8829245" lon="9.2297887"><ele>1124.0</ele><time>2026-03-29T16:49:46.947Z</time></trkpt><trkpt lat="45.8829657" lon="9.229956"><ele>1124.0</ele><time>2026-03-29T16:49:48.946Z</time></trkpt><trkpt lat="45.8829863" lon="9.2300445"><ele>1124.0</ele><time>2026-03-29T16:49:49.947Z</time></trkpt><trkpt lat="45.883002" lon="9.2301454"><ele>1124.0</ele><time>2026-03-29T16:49:50.947Z</time></trkpt><trkpt lat="45.8830203" lon="9.230253"><ele>1124.3333333333335</ele><time>2026-03-29T16:49:51.947Z</time></trkpt><trkpt lat="45.8830334" lon="9.2303811"><ele>1124.6666666666667</ele><time>2026-03-29T16:49:52.946Z</time></trkpt><trkpt lat="45.8830427" lon="9.2305158"><ele>1125.0</ele><time>2026-03-29T16:49:53.945Z</time></trkpt><trkpt lat="45.8830466" lon="9.2306406"><ele>1125.3333333333333</ele><time>2026-03-29T16:49:54.946Z</time></trkpt><trkpt lat="45.8830529" lon="9.2307548"><ele>1125.6666666666665</ele><time>2026-03-29T16:49:55.947Z</time></trkpt><trkpt lat="45.8830619" lon="9.2308599"><ele>1126.0</ele><time>2026-03-29T16:49:56.946Z</time></trkpt><trkpt lat="45.8830783" lon="9.2309561"><ele>1124.6666666666665</ele><time>2026-03-29T16:49:57.947Z</time></trkpt><trkpt lat="45.8831075" lon="9.2310514"><ele>1123.3333333333333</ele><time>2026-03-29T16:49:58.946Z</time></trkpt><trkpt lat="45.8831483" lon="9.2311408"><ele>1122.0</ele><time>2026-03-29T16:49:59.947Z</time></trkpt><trkpt lat="45.883199" lon="9.2312255"><ele>1120.6666666666667</ele><time>2026-03-29T16:50:00.947Z</time></trkpt><trkpt lat="45.8832477" lon="9.2313023"><ele>1119.3333333333335</ele><time>2026-03-29T16:50:01.947Z</time></trkpt><trkpt lat="45.8833121" lon="9.2313625"><ele>1118.0</ele><time>2026-03-29T16:50:02.947Z</time></trkpt><trkpt lat="45.8833854" lon="9.23141"><ele>1120.6</ele><time>2026-03-29T16:50:03.946Z</time></trkpt><trkpt lat="45.8834652" lon="9.2314557"><ele>1123.1999999999998</ele><time>2026-03-29T16:50:04.947Z</time></trkpt><trkpt lat="45.8835518" lon="9.2314926"><ele>1125.8</ele><time>2026-03-29T16:50:05.947Z</time></trkpt><trkpt lat="45.8836419" lon="9.2315143"><ele>1128.3999999999999</ele><time>2026-03-29T16:50:06.947Z</time></trkpt><trkpt lat="45.8837336" lon="9.2315266"><ele>1131.0</ele><time>2026-03-29T16:50:07.947Z</time></trkpt><trkpt lat="45.8838286" lon="9.2315247"><ele>1131.0</ele><time>2026-03-29T16:50:08.946Z</time></trkpt><trkpt lat="45.8839218" lon="9.2315108"><ele>1131.0</ele><time>2026-03-29T16:50:09.946Z</time></trkpt><trkpt lat="45.8840177" lon="9.231492"><ele>1131.0</ele><time>2026-03-29T16:50:10.947Z</time></trkpt><trkpt lat="45.8841146" lon="9.2314664"><ele>1131.0</ele><time>2026-03-29T16:50:11.947Z</time></trkpt><trkpt lat="45.884221" lon="9.2314346"><ele>1131.0</ele><time>2026-03-29T16:50:12.946Z</time></trkpt><trkpt lat="45.8843294" lon="9.2314122"><ele>1131.8</ele><time>2026-03-29T16:50:13.947Z</time></trkpt><trkpt lat="45.8844404" lon="9.231395"><ele>1132.6</ele><time>2026-03-29T16:50:14.946Z</time></trkpt><trkpt lat="45.8845511" lon="9.2313877"><ele>1133.4</ele><time>2026-03-29T16:50:15.946Z</time></trkpt><trkpt lat="45.8846608" lon="9.2313937"><ele>1134.2</ele><time>2026-03-29T16:50:16.946Z</time></trkpt><trkpt lat="45.8847687" lon="9.2314159"><ele>1135.0</ele><time>2026-03-29T16:50:17.947Z</time></trkpt><trkpt lat="45.8848814" lon="9.231453"><ele>1129.75</ele><time>2026-03-29T16:50:18.947Z</time></trkpt><trkpt lat="45.8850009" lon="9.2314998"><ele>1124.5</ele><time>2026-03-29T16:50:19.946Z</time></trkpt><trkpt lat="45.8851146" lon="9.2315485"><ele>1119.25</ele><time>2026-03-29T16:50:20.947Z</time></trkpt><trkpt lat="45.8852267" lon="9.231599"><ele>1114.0</ele><time>2026-03-29T16:50:21.947Z</time></trkpt><trkpt lat="45.885332" lon="9.2316468"><ele>1114.0</ele><time>2026-03-29T16:50:22.947Z</time></trkpt><trkpt lat="45.885436" lon="9.2317036"><ele>1114.0</ele><time>2026-03-29T16:50:23.947Z</time></trkpt><trkpt lat="45.8855474" lon="9.2317612"><ele>1114.0</ele><time>2026-03-29T16:50:24.947Z</time></trkpt><trkpt lat="45.8856657" lon="9.2318191"><ele>1114.0</ele><time>2026-03-29T16:50:25.946Z</time></trkpt><trkpt lat="45.8857725" lon="9.2318682"><ele>1114.0</ele><time>2026-03-29T16:50:26.947Z</time></trkpt><trkpt lat="45.8858981" lon="9.2319279"><ele>1114.0</ele><time>2026-03-29T16:50:27.947Z</time></trkpt><trkpt lat="45.8860253" lon="9.2319713"><ele>1114.0</ele><time>2026-03-29T16:50:28.946Z</time></trkpt><trkpt lat="45.8861424" lon="9.2320114"><ele>1114.0</ele><time>2026-03-29T16:50:29.947Z</time></trkpt><trkpt lat="45.8862739" lon="9.2320448"><ele>1116.25</ele><time>2026-03-29T16:50:30.947Z</time></trkpt><trkpt lat="45.8864086" lon="9.2320658"><ele>1118.5</ele><time>2026-03-29T16:50:31.947Z</time></trkpt><trkpt lat="45.8865421" lon="9.2320732"><ele>1120.75</ele><time>2026-03-29T16:50:32.947Z</time></trkpt><trkpt lat="45.8866648" lon="9.2320783"><ele>1123.0</ele><time>2026-03-29T16:50:33.945Z</time></trkpt><trkpt lat="45.8867806" lon="9.2320876"><ele>1124.4</ele><time>2026-03-29T16:50:34.947Z</time></trkpt><trkpt lat="45.886891" lon="9.2320963"><ele>1125.8</ele><time>2026-03-29T16:50:35.946Z</time></trkpt><trkpt lat="45.886986" lon="9.2321133"><ele>1127.2</ele><time>2026-03-29T16:50:36.945Z</time></trkpt><trkpt lat="45.8870833" lon="9.2321434"><ele>1128.6</ele><time>2026-03-29T16:50:37.947Z</time></trkpt><trkpt lat="45.8871767" lon="9.232183"><ele>1130.0</ele><time>2026-03-29T16:50:38.947Z</time></trkpt><trkpt lat="45.8872659" lon="9.2322437"><ele>1131.4</ele><time>2026-03-29T16:50:39.946Z</time></trkpt><trkpt lat="45.887352" lon="9.2323147"><ele>1132.8</ele><time>2026-03-29T16:50:40.947Z</time></trkpt><trkpt lat="45.8874375" lon="9.2323996"><ele>1134.2</ele><time>2026-03-29T16:50:41.947Z</time></trkpt><trkpt lat="45.8875149" lon="9.2325027"><ele>1135.6</ele><time>2026-03-29T16:50:42.947Z</time></trkpt><trkpt lat="45.8875945" lon="9.2326184"><ele>1137.0</ele><time>2026-03-29T16:50:43.946Z</time></trkpt><trkpt lat="45.8876753" lon="9.2327483"><ele>1137.0</ele><time>2026-03-29T16:50:44.947Z</time></trkpt><trkpt lat="45.8877505" lon="9.2328727"><ele>1137.0</ele><time>2026-03-29T16:50:45.946Z</time></trkpt><trkpt lat="45.8878154" lon="9.2329914"><ele>1137.0</ele><time>2026-03-29T16:50:46.946Z</time></trkpt><trkpt lat="45.8878927" lon="9.2331227"><ele>1137.0</ele><time>2026-03-29T16:50:47.947Z</time></trkpt><trkpt lat="45.8879716" lon="9.2332612"><ele>1131.25</ele><time>2026-03-29T16:50:48.947Z</time></trkpt><trkpt lat="45.8880417" lon="9.233396"><ele>1125.5</ele><time>2026-03-29T16:50:49.947Z</time></trkpt><trkpt lat="45.8881105" lon="9.2335314"><ele>1119.75</ele><time>2026-03-29T16:50:50.946Z</time></trkpt><trkpt lat="45.8881819" lon="9.2336661"><ele>1114.0</ele><time>2026-03-29T16:50:51.946Z</time></trkpt><trkpt lat="45.8882485" lon="9.2338006"><ele>1114.0</ele><time>2026-03-29T16:50:52.947Z</time></trkpt><trkpt lat="45.8883035" lon="9.2339583"><ele>1114.0</ele><time>2026-03-29T16:50:53.946Z</time></trkpt><trkpt lat="45.8883472" lon="9.2341191"><ele>1114.0</ele><time>2026-03-29T16:50:54.946Z</time></trkpt><trkpt lat="45.8883822" lon="9.2342809"><ele>1114.0</ele><time>2026-03-29T16:50:55.947Z</time></trkpt><trkpt lat="45.8884118" lon="9.234445"><ele>1117.5</ele><time>2026-03-29T16:50:56.946Z</time></trkpt><trkpt lat="45.8884401" lon="9.2346087"><ele>1121.0</ele><time>2026-03-29T16:50:57.947Z</time></trkpt><trkpt lat="45.8884749" lon="9.2347741"><ele>1124.5</ele><time>2026-03-29T16:50:58.945Z</time></trkpt><trkpt lat="45.8885094" lon="9.2349453"><ele>1128.0</ele><time>2026-03-29T16:50:59.947Z</time></trkpt><trkpt lat="45.888541" lon="9.2351112"><ele>1128.0</ele><time>2026-03-29T16:51:00.947Z</time></trkpt><trkpt lat="45.8885739" lon="9.2352705"><ele>1128.0</ele><time>2026-03-29T16:51:01.946Z</time></trkpt><trkpt lat="45.8886165" lon="9.2354195"><ele>1128.0</ele><time>2026-03-29T16:51:02.946Z</time></trkpt><trkpt lat="45.8886659" lon="9.2355574"><ele>1128.0</ele><time>2026-03-29T16:51:03.947Z</time></trkpt><trkpt lat="45.8887305" lon="9.2356901"><ele>1128.0</ele><time>2026-03-29T16:51:04.947Z</time></trkpt><trkpt lat="45.8888087" lon="9.2358194"><ele>1122.2</ele><time>2026-03-29T16:51:05.947Z</time></trkpt><trkpt lat="45.8888986" lon="9.2359311"><ele>1116.4</ele><time>2026-03-29T16:51:06.947Z</time></trkpt><trkpt lat="45.8889755" lon="9.2360272"><ele>1110.6000000000001</ele><time>2026-03-29T16:51:07.946Z</time></trkpt><trkpt lat="45.8890488" lon="9.2361158"><ele>1104.8</ele><time>2026-03-29T16:51:08.947Z</time></trkpt><trkpt lat="45.8891202" lon="9.2361817"><ele>1099.0</ele><time>2026-03-29T16:51:09.947Z</time></trkpt><trkpt lat="45.8892064" lon="9.2362051"><ele>1098.5</ele><time>2026-03-29T16:51:10.947Z</time></trkpt><trkpt lat="45.8892967" lon="9.2362033"><ele>1098.0</ele><time>2026-03-29T16:51:11.947Z</time></trkpt><trkpt lat="45.8893754" lon="9.2361991"><ele>1097.5</ele><time>2026-03-29T16:51:12.946Z</time></trkpt><trkpt lat="45.8894556" lon="9.2362379"><ele>1097.0</ele><time>2026-03-29T16:51:13.947Z</time></trkpt><trkpt lat="45.8895289" lon="9.2363169"><ele>1096.5</ele><time>2026-03-29T16:51:14.946Z</time></trkpt><trkpt lat="45.8895808" lon="9.2364337"><ele>1096.0</ele><time>2026-03-29T16:51:15.946Z</time></trkpt><trkpt lat="45.889621" lon="9.2365444"><ele>1096.0</ele><time>2026-03-29T16:51:16.947Z</time></trkpt><trkpt lat="45.8896754" lon="9.2366654"><ele>1096.0</ele><time>2026-03-29T16:51:17.946Z</time></trkpt><trkpt lat="45.8897651" lon="9.2367655"><ele>1096.0</ele><time>2026-03-29T16:51:18.947Z</time></trkpt><trkpt lat="45.8898571" lon="9.2368594"><ele>1096.0</ele><time>2026-03-29T16:51:19.946Z</time></trkpt><trkpt lat="45.8899502" lon="9.2369361"><ele>1096.0</ele><time>2026-03-29T16:51:20.947Z</time></trkpt><trkpt lat="45.8900476" lon="9.2369924"><ele>1094.0</ele><time>2026-03-29T16:51:21.946Z</time></trkpt><trkpt lat="45.8901516" lon="9.2370269"><ele>1092.0</ele><time>2026-03-29T16:51:22.946Z</time></trkpt><trkpt lat="45.890242" lon="9.237077"><ele>1090.0</ele><time>2026-03-29T16:51:23.947Z</time></trkpt><trkpt lat="45.8903187" lon="9.2371671"><ele>1088.0</ele><time>2026-03-29T16:51:24.947Z</time></trkpt><trkpt lat="45.8903784" lon="9.2372768"><ele>1086.0</ele><time>2026-03-29T16:51:25.946Z</time></trkpt><trkpt lat="45.8904139" lon="9.237422"><ele>1086.0</ele><time>2026-03-29T16:51:26.946Z</time></trkpt><trkpt lat="45.8904427" lon="9.2375671"><ele>1086.0</ele><time>2026-03-29T16:51:27.945Z</time></trkpt><trkpt lat="45.8904853" lon="9.2376963"><ele>1086.0</ele><time>2026-03-29T16:51:28.947Z</time></trkpt><trkpt lat="45.8905435" lon="9.2378109"><ele>1086.0</ele><time>2026-03-29T16:51:29.947Z</time></trkpt><trkpt lat="45.890623" lon="9.2379119"><ele>1086.0</ele><time>2026-03-29T16:51:30.947Z</time></trkpt><trkpt lat="45.890725" lon="9.2379917"><ele>1086.0</ele><time>2026-03-29T16:51:31.947Z</time></trkpt><trkpt lat="45.8908317" lon="9.2380542"><ele>1086.0</ele><time>2026-03-29T16:51:32.946Z</time></trkpt><trkpt lat="45.8909386" lon="9.2380988"><ele>1086.0</ele><time>2026-03-29T16:51:33.945Z</time></trkpt><trkpt lat="45.8910427" lon="9.2381227"><ele>1086.0</ele><time>2026-03-29T16:51:34.947Z</time></trkpt><trkpt lat="45.8911427" lon="9.2381276"><ele>1086.0</ele><time>2026-03-29T16:51:35.945Z</time></trkpt><trkpt lat="45.8912411" lon="9.2381167"><ele>1089.6</ele><time>2026-03-29T16:51:36.945Z</time></trkpt><trkpt lat="45.8913371" lon="9.2381148"><ele>1093.1999999999998</ele><time>2026-03-29T16:51:37.947Z</time></trkpt><trkpt lat="45.8914285" lon="9.2381366"><ele>1096.8000000000002</ele><time>2026-03-29T16:51:38.947Z</time></trkpt><trkpt lat="45.891511" lon="9.2381935"><ele>1100.4</ele><time>2026-03-29T16:51:39.946Z</time></trkpt><trkpt lat="45.8915887" lon="9.2382839"><ele>1104.0</ele><time>2026-03-29T16:51:40.946Z</time></trkpt><trkpt lat="45.8916685" lon="9.238383"><ele>1100.5</ele><time>2026-03-29T16:51:41.947Z</time></trkpt><trkpt lat="45.8917468" lon="9.2384917"><ele>1097.0</ele><time>2026-03-29T16:51:42.947Z</time></trkpt><trkpt lat="45.8918094" lon="9.2386579"><ele>1093.5</ele><time>2026-03-29T16:51:43.946Z</time></trkpt><trkpt lat="45.8918758" lon="9.238795"><ele>1090.0</ele><time>2026-03-29T16:51:44.947Z</time></trkpt><trkpt lat="45.8919491" lon="9.2389208"><ele>1083.6</ele><time>2026-03-29T16:51:45.947Z</time></trkpt><trkpt lat="45.8920397" lon="9.2389879"><ele>1077.2</ele><time>2026-03-29T16:51:46.947Z</time></trkpt><trkpt lat="45.8921352" lon="9.2390769"><ele>1070.8</ele><time>2026-03-29T16:51:47.947Z</time></trkpt><trkpt lat="45.892233" lon="9.23915"><ele>1064.4</ele><time>2026-03-29T16:51:48.947Z</time></trkpt><trkpt lat="45.8923406" lon="9.2392318"><ele>1058.0</ele><time>2026-03-29T16:51:49.947Z</time></trkpt><trkpt lat="45.8924554" lon="9.2392762"><ele>1058.0</ele><time>2026-03-29T16:51:50.946Z</time></trkpt><trkpt lat="45.8925715" lon="9.2393267"><ele>1058.0</ele><time>2026-03-29T16:51:51.947Z</time></trkpt><trkpt lat="45.8926863" lon="9.2393411"><ele>1058.0</ele><time>2026-03-29T16:51:52.946Z</time></trkpt><trkpt lat="45.8927939" lon="9.2393443"><ele>1058.0</ele><time>2026-03-29T16:51:53.946Z</time></trkpt><trkpt lat="45.8928849" lon="9.23933"><ele>1058.0</ele><time>2026-03-29T16:51:54.947Z</time></trkpt><trkpt lat="45.8929635" lon="9.2393094"><ele>1060.4</ele><time>2026-03-29T16:51:55.947Z</time></trkpt><trkpt lat="45.8930458" lon="9.2393015"><ele>1062.8</ele><time>2026-03-29T16:51:56.947Z</time></trkpt><trkpt lat="45.8931155" lon="9.2393086"><ele>1065.2</ele><time>2026-03-29T16:51:57.946Z</time></trkpt><trkpt lat="45.8931714" lon="9.2394331"><ele>1067.6</ele><time>2026-03-29T16:51:58.945Z</time></trkpt><trkpt lat="45.8932504" lon="9.2395385"><ele>1070.0</ele><time>2026-03-29T16:51:59.947Z</time></trkpt><trkpt lat="45.8933386" lon="9.239631"><ele>1069.0</ele><time>2026-03-29T16:52:00.945Z</time></trkpt><trkpt lat="45.8934237" lon="9.2397257"><ele>1068.0</ele><time>2026-03-29T16:52:01.945Z</time></trkpt><trkpt lat="45.8935217" lon="9.2398372"><ele>1067.0</ele><time>2026-03-29T16:52:02.946Z</time></trkpt><trkpt lat="45.8936039" lon="9.2399808"><ele>1066.0</ele><time>2026-03-29T16:52:03.947Z</time></trkpt><trkpt lat="45.8936867" lon="9.2401163"><ele>1066.0</ele><time>2026-03-29T16:52:04.946Z</time></trkpt><trkpt lat="45.8937581" lon="9.2402638"><ele>1066.0</ele><time>2026-03-29T16:52:05.946Z</time></trkpt><trkpt lat="45.8938221" lon="9.2404262"><ele>1066.0</ele><time>2026-03-29T16:52:06.946Z</time></trkpt><trkpt lat="45.8938711" lon="9.2405998"><ele>1066.0</ele><time>2026-03-29T16:52:07.947Z</time></trkpt><trkpt lat="45.8939042" lon="9.2407718"><ele>1061.0</ele><time>2026-03-29T16:52:08.946Z</time></trkpt><trkpt lat="45.8939407" lon="9.2409376"><ele>1056.0</ele><time>2026-03-29T16:52:09.947Z</time></trkpt><trkpt lat="45.8939891" lon="9.2410916"><ele>1051.0</ele><time>2026-03-29T16:52:10.945Z</time></trkpt><trkpt lat="45.8940509" lon="9.2412511"><ele>1046.0</ele><time>2026-03-29T16:52:11.947Z</time></trkpt><trkpt lat="45.8941318" lon="9.2414047"><ele>1048.75</ele><time>2026-03-29T16:52:12.945Z</time></trkpt><trkpt lat="45.8942217" lon="9.2415486"><ele>1051.5</ele><time>2026-03-29T16:52:13.946Z</time></trkpt><trkpt lat="45.8943128" lon="9.2416765"><ele>1054.25</ele><time>2026-03-29T16:52:14.946Z</time></trkpt><trkpt lat="45.8944042" lon="9.2417888"><ele>1057.0</ele><time>2026-03-29T16:52:15.946Z</time></trkpt><trkpt lat="45.8944771" lon="9.241904"><ele>1057.0</ele><time>2026-03-29T16:52:16.946Z</time></trkpt><trkpt lat="45.8945266" lon="9.2420401"><ele>1057.0</ele><time>2026-03-29T16:52:17.946Z</time></trkpt><trkpt lat="45.8945566" lon="9.2421902"><ele>1057.0</ele><time>2026-03-29T16:52:18.946Z</time></trkpt><trkpt lat="45.894562" lon="9.2423528"><ele>1057.0</ele><time>2026-03-29T16:52:19.946Z</time></trkpt><trkpt lat="45.8945583" lon="9.2425064"><ele>1057.0</ele><time>2026-03-29T16:52:20.945Z</time></trkpt><trkpt lat="45.8945728" lon="9.2426548"><ele>1054.0</ele><time>2026-03-29T16:52:21.947Z</time></trkpt><trkpt lat="45.8946192" lon="9.2427846"><ele>1051.0</ele><time>2026-03-29T16:52:22.946Z</time></trkpt><trkpt lat="45.894682" lon="9.2429059"><ele>1048.0</ele><time>2026-03-29T16:52:23.946Z</time></trkpt><trkpt lat="45.8947449" lon="9.2429953"><ele>1045.0</ele><time>2026-03-29T16:52:24.946Z</time></trkpt><trkpt lat="45.8947903" lon="9.2431013"><ele>1042.0</ele><time>2026-03-29T16:52:25.947Z</time></trkpt><trkpt lat="45.8947936" lon="9.2432076"><ele>1041.0</ele><time>2026-03-29T16:52:26.947Z</time></trkpt><trkpt lat="45.8947616" lon="9.2432957"><ele>1040.0</ele><time>2026-03-29T16:52:27.947Z</time></trkpt><trkpt lat="45.89469" lon="9.2433545"><ele>1039.0</ele><time>2026-03-29T16:52:28.947Z</time></trkpt><trkpt lat="45.8945955" lon="9.2433997"><ele>1038.0</ele><time>2026-03-29T16:52:29.946Z</time></trkpt><trkpt lat="45.8944875" lon="9.2434794"><ele>1037.0</ele><time>2026-03-29T16:52:30.946Z</time></trkpt><trkpt lat="45.8943716" lon="9.2435772"><ele>1037.0</ele><time>2026-03-29T16:52:31.947Z</time></trkpt><trkpt lat="45.8942627" lon="9.2436997"><ele>1037.0</ele><time>2026-03-29T16:52:32.947Z</time></trkpt><trkpt lat="45.894177" lon="9.2438419"><ele>1037.0</ele><time>2026-03-29T16:52:33.946Z</time></trkpt><trkpt lat="45.8941025" lon="9.2439997"><ele>1037.0</ele><time>2026-03-29T16:52:34.947Z</time></trkpt><trkpt lat="45.8940403" lon="9.2441674"><ele>1031.75</ele><time>2026-03-29T16:52:35.946Z</time></trkpt><trkpt lat="45.893994" lon="9.2443356"><ele>1026.5</ele><time>2026-03-29T16:52:36.947Z</time></trkpt><trkpt lat="45.8939683" lon="9.2445049"><ele>1021.25</ele><time>2026-03-29T16:52:37.946Z</time></trkpt><trkpt lat="45.8939593" lon="9.2446793"><ele>1016.0</ele><time>2026-03-29T16:52:38.946Z</time></trkpt><trkpt lat="45.8939661" lon="9.2448562"><ele>1016.0</ele><time>2026-03-29T16:52:39.946Z</time></trkpt><trkpt lat="45.8939831" lon="9.2450212"><ele>1015.9999999999999</ele><time>2026-03-29T16:52:40.945Z</time></trkpt><trkpt lat="45.8940022" lon="9.245172"><ele>1015.9999999999999</ele><time>2026-03-29T16:52:41.947Z</time></trkpt><trkpt lat="45.8940329" lon="9.2453022"><ele>1016.0</ele><time>2026-03-29T16:52:42.946Z</time></trkpt><trkpt lat="45.8940805" lon="9.2454183"><ele>1016.0</ele><time>2026-03-29T16:52:43.946Z</time></trkpt><trkpt lat="45.8941434" lon="9.2455076"><ele>1016.0</ele><time>2026-03-29T16:52:44.946Z</time></trkpt><trkpt lat="45.8941807" lon="9.2455859"><ele>1016.0</ele><time>2026-03-29T16:52:45.947Z</time></trkpt><trkpt lat="45.8941945" lon="9.245684"><ele>1016.0</ele><time>2026-03-29T16:52:46.946Z</time></trkpt><trkpt lat="45.8941893" lon="9.2457864"><ele>1016.0</ele><time>2026-03-29T16:52:47.947Z</time></trkpt><trkpt lat="45.8941449" lon="9.2458647"><ele>1016.0</ele><time>2026-03-29T16:52:48.946Z</time></trkpt><trkpt lat="45.8940735" lon="9.2459289"><ele>1016.0</ele><time>2026-03-29T16:52:49.947Z</time></trkpt><trkpt lat="45.8940147" lon="9.2459816"><ele>1016.0</ele><time>2026-03-29T16:52:50.947Z</time></trkpt><trkpt lat="45.8939155" lon="9.2460085"><ele>1014.3333333333334</ele><time>2026-03-29T16:52:51.946Z</time></trkpt><trkpt lat="45.8937321" lon="9.2459786"><ele>1012.6666666666667</ele><time>2026-03-29T16:52:52.946Z</time></trkpt><trkpt lat="45.8935866" lon="9.2459545"><ele>1011.0</ele><time>2026-03-29T16:52:53.946Z</time></trkpt><trkpt lat="45.8934428" lon="9.2459318"><ele>1005.0</ele><time>2026-03-29T16:52:54.947Z</time></trkpt><trkpt lat="45.893298" lon="9.2459025"><ele>999.0</ele><time>2026-03-29T16:52:55.945Z</time></trkpt><trkpt lat="45.8931478" lon="9.245872"><ele>993.0</ele><time>2026-03-29T16:52:56.946Z</time></trkpt><trkpt lat="45.8929917" lon="9.2458462"><ele>993.0</ele><time>2026-03-29T16:52:57.946Z</time></trkpt><trkpt lat="45.8928321" lon="9.2458236"><ele>993.0</ele><time>2026-03-29T16:52:58.945Z</time></trkpt><trkpt lat="45.8926727" lon="9.2458008"><ele>993.0</ele><time>2026-03-29T16:52:59.946Z</time></trkpt><trkpt lat="45.8925142" lon="9.2457787"><ele>992.3333333333333</ele><time>2026-03-29T16:53:00.946Z</time></trkpt><trkpt lat="45.8923565" lon="9.2457555"><ele>991.6666666666666</ele><time>2026-03-29T16:53:01.945Z</time></trkpt><trkpt lat="45.8921965" lon="9.2457291"><ele>991.0</ele><time>2026-03-29T16:53:02.946Z</time></trkpt><trkpt lat="45.8920296" lon="9.2456992"><ele>991.0</ele><time>2026-03-29T16:53:03.947Z</time></trkpt><trkpt lat="45.8918631" lon="9.2456665"><ele>991.0</ele><time>2026-03-29T16:53:04.946Z</time></trkpt><trkpt lat="45.8916932" lon="9.2456247"><ele>991.0</ele><time>2026-03-29T16:53:05.947Z</time></trkpt><trkpt lat="45.8915237" lon="9.2455822"><ele>979.3333333333333</ele><time>2026-03-29T16:53:06.947Z</time></trkpt><trkpt lat="45.8913521" lon="9.2455342"><ele>967.6666666666667</ele><time>2026-03-29T16:53:07.946Z</time></trkpt><trkpt lat="45.8911842" lon="9.2454782"><ele>956.0</ele><time>2026-03-29T16:53:08.945Z</time></trkpt><trkpt lat="45.891026" lon="9.2454147"><ele>956.3333333333334</ele><time>2026-03-29T16:53:09.946Z</time></trkpt><trkpt lat="45.890872" lon="9.24535"><ele>956.6666666666667</ele><time>2026-03-29T16:53:10.946Z</time></trkpt><trkpt lat="45.8907118" lon="9.2453039"><ele>957.0</ele><time>2026-03-29T16:53:11.947Z</time></trkpt><trkpt lat="45.8905411" lon="9.2452657"><ele>957.0</ele><time>2026-03-29T16:53:12.947Z</time></trkpt><trkpt lat="45.890358" lon="9.2452355"><ele>957.0</ele><time>2026-03-29T16:53:13.945Z</time></trkpt><trkpt lat="45.8901714" lon="9.2452077"><ele>957.0</ele><time>2026-03-29T16:53:14.945Z</time></trkpt><trkpt lat="45.8899916" lon="9.2451814"><ele>957.6666666666667</ele><time>2026-03-29T16:53:15.947Z</time></trkpt><trkpt lat="45.8898111" lon="9.24515"><ele>958.3333333333334</ele><time>2026-03-29T16:53:16.946Z</time></trkpt><trkpt lat="45.8896363" lon="9.2451206"><ele>959.0</ele><time>2026-03-29T16:53:17.947Z</time></trkpt><trkpt lat="45.8894649" lon="9.2450883"><ele>959.0</ele><time>2026-03-29T16:53:18.947Z</time></trkpt><trkpt lat="45.8892939" lon="9.2450577"><ele>959.0</ele><time>2026-03-29T16:53:19.946Z</time></trkpt><trkpt lat="45.8891171" lon="9.2450318"><ele>959.0</ele><time>2026-03-29T16:53:20.947Z</time></trkpt><trkpt lat="45.8889434" lon="9.2450155"><ele>957.3333333333334</ele><time>2026-03-29T16:53:21.946Z</time></trkpt><trkpt lat="45.8887724" lon="9.2450188"><ele>955.6666666666667</ele><time>2026-03-29T16:53:22.946Z</time></trkpt><trkpt lat="45.8886052" lon="9.2450319"><ele>954.0</ele><time>2026-03-29T16:53:23.947Z</time></trkpt><trkpt lat="45.8884466" lon="9.2450482"><ele>952.3333333333333</ele><time>2026-03-29T16:53:24.946Z</time></trkpt><trkpt lat="45.8882834" lon="9.2450615"><ele>950.6666666666666</ele><time>2026-03-29T16:53:25.946Z</time></trkpt><trkpt lat="45.8881285" lon="9.2450753"><ele>949.0</ele><time>2026-03-29T16:53:26.946Z</time></trkpt><trkpt lat="45.8879781" lon="9.2450947"><ele>949.0</ele><time>2026-03-29T16:53:27.947Z</time></trkpt><trkpt lat="45.8878293" lon="9.2451025"><ele>949.0</ele><time>2026-03-29T16:53:28.945Z</time></trkpt><trkpt lat="45.8876863" lon="9.2451147"><ele>949.0</ele><time>2026-03-29T16:53:29.946Z</time></trkpt><trkpt lat="45.8875526" lon="9.2451376"><ele>949.0</ele><time>2026-03-29T16:53:30.947Z</time></trkpt><trkpt lat="45.8874386" lon="9.2451802"><ele>947.2</ele><time>2026-03-29T16:53:31.946Z</time></trkpt><trkpt lat="45.8873295" lon="9.2452217"><ele>945.4000000000001</ele><time>2026-03-29T16:53:32.945Z</time></trkpt><trkpt lat="45.8872261" lon="9.2452627"><ele>943.6</ele><time>2026-03-29T16:53:33.947Z</time></trkpt><trkpt lat="45.8871388" lon="9.2452995"><ele>941.8</ele><time>2026-03-29T16:53:34.946Z</time></trkpt><trkpt lat="45.8870648" lon="9.2453317"><ele>940.0</ele><time>2026-03-29T16:53:35.947Z</time></trkpt><trkpt lat="45.8869984" lon="9.245355"><ele>940.0</ele><time>2026-03-29T16:53:36.947Z</time></trkpt><trkpt lat="45.8869355" lon="9.2453653"><ele>940.0</ele><time>2026-03-29T16:53:37.946Z</time></trkpt><trkpt lat="45.8868668" lon="9.2452739"><ele>940.0</ele><time>2026-03-29T16:53:39.947Z</time></trkpt><trkpt lat="45.8868566" lon="9.2451416"><ele>940.0</ele><time>2026-03-29T16:53:41.946Z</time></trkpt><trkpt lat="45.8869809" lon="9.2451093"><ele>940.0</ele><time>2026-03-29T16:53:42.946Z</time></trkpt><trkpt lat="45.8870781" lon="9.2450823"><ele>940.0</ele><time>2026-03-29T16:53:43.946Z</time></trkpt><trkpt lat="45.8871616" lon="9.2450512"><ele>940.0</ele><time>2026-03-29T16:53:44.946Z</time></trkpt><trkpt lat="45.8872907" lon="9.2450344"><ele>940.0</ele><time>2026-03-29T16:53:45.946Z</time></trkpt><trkpt lat="45.8874896" lon="9.2448745"><ele>940.0</ele><time>2026-03-29T16:53:46.946Z</time></trkpt><trkpt lat="45.8876615" lon="9.2447713"><ele>933.6666666666666</ele><time>2026-03-29T16:53:47.947Z</time></trkpt><trkpt lat="45.887824" lon="9.2446729"><ele>927.3333333333333</ele><time>2026-03-29T16:53:48.947Z</time></trkpt><trkpt lat="45.8879743" lon="9.244571"><ele>921.0</ele><time>2026-03-29T16:53:49.947Z</time></trkpt><trkpt lat="45.8881211" lon="9.2444747"><ele>921.0</ele><time>2026-03-29T16:53:50.947Z</time></trkpt><trkpt lat="45.8882661" lon="9.2443728"><ele>921.0</ele><time>2026-03-29T16:53:51.947Z</time></trkpt><trkpt lat="45.8884274" lon="9.2442939"><ele>921.0</ele><time>2026-03-29T16:53:52.945Z</time></trkpt><trkpt lat="45.8885802" lon="9.2442143"><ele>923.5</ele><time>2026-03-29T16:53:53.947Z</time></trkpt><trkpt lat="45.8887214" lon="9.2441299"><ele>926.0</ele><time>2026-03-29T16:53:54.946Z</time></trkpt><trkpt lat="45.8888563" lon="9.2440521"><ele>928.5</ele><time>2026-03-29T16:53:55.947Z</time></trkpt><trkpt lat="45.88898" lon="9.2439755"><ele>931.0</ele><time>2026-03-29T16:53:56.946Z</time></trkpt><trkpt lat="45.8891005" lon="9.2439094"><ele>926.8</ele><time>2026-03-29T16:53:57.946Z</time></trkpt><trkpt lat="45.8892156" lon="9.2438585"><ele>922.5999999999999</ele><time>2026-03-29T16:53:58.946Z</time></trkpt><trkpt lat="45.8893348" lon="9.2438425"><ele>918.4</ele><time>2026-03-29T16:53:59.945Z</time></trkpt><trkpt lat="45.8894429" lon="9.2438452"><ele>914.2</ele><time>2026-03-29T16:54:00.946Z</time></trkpt><trkpt lat="45.8895396" lon="9.2438651"><ele>910.0</ele><time>2026-03-29T16:54:01.947Z</time></trkpt><trkpt lat="45.8896295" lon="9.2438937"><ele>910.0</ele><time>2026-03-29T16:54:02.947Z</time></trkpt><trkpt lat="45.8897154" lon="9.2439261"><ele>910.0</ele><time>2026-03-29T16:54:03.946Z</time></trkpt><trkpt lat="45.8898415" lon="9.2439242"><ele>910.0</ele><time>2026-03-29T16:54:05.946Z</time></trkpt><trkpt lat="45.889893" lon="9.2438703"><ele>910.0</ele><time>2026-03-29T16:54:06.947Z</time></trkpt><trkpt lat="45.8898883" lon="9.2437353"><ele>910.0</ele><time>2026-03-29T16:54:08.947Z</time></trkpt><trkpt lat="45.8898406" lon="9.2436185"><ele>910.0</ele><time>2026-03-29T16:54:09.947Z</time></trkpt><trkpt lat="45.8897247" lon="9.2435874"><ele>910.0</ele><time>2026-03-29T16:54:10.947Z</time></trkpt><trkpt lat="45.8896249" lon="9.2435823"><ele>910.0</ele><time>2026-03-29T16:54:11.946Z</time></trkpt><trkpt lat="45.8894884" lon="9.2436014"><ele>910.0</ele><time>2026-03-29T16:54:12.945Z</time></trkpt><trkpt lat="45.8892994" lon="9.243606"><ele>909.6666666666666</ele><time>2026-03-29T16:54:13.946Z</time></trkpt><trkpt lat="45.8891212" lon="9.2435879"><ele>909.3333333333333</ele><time>2026-03-29T16:54:14.945Z</time></trkpt><trkpt lat="45.8889315" lon="9.2435599"><ele>909.0</ele><time>2026-03-29T16:54:15.946Z</time></trkpt><trkpt lat="45.888736" lon="9.2435412"><ele>909.0</ele><time>2026-03-29T16:54:16.946Z</time></trkpt><trkpt lat="45.8885416" lon="9.2435243"><ele>909.0</ele><time>2026-03-29T16:54:17.946Z</time></trkpt><trkpt lat="45.8883315" lon="9.2434698"><ele>909.0</ele><time>2026-03-29T16:54:18.946Z</time></trkpt><trkpt lat="45.8881011" lon="9.2434527"><ele>905.3333333333333</ele><time>2026-03-29T16:54:19.945Z</time></trkpt><trkpt lat="45.8878983" lon="9.2434276"><ele>901.6666666666666</ele><time>2026-03-29T16:54:20.946Z</time></trkpt><trkpt lat="45.8877018" lon="9.2433993"><ele>898.0</ele><time>2026-03-29T16:54:21.945Z</time></trkpt><trkpt lat="45.8875204" lon="9.243373"><ele>895.0</ele><time>2026-03-29T16:54:22.945Z</time></trkpt><trkpt lat="45.887351" lon="9.2433486"><ele>892.0</ele><time>2026-03-29T16:54:23.946Z</time></trkpt><trkpt lat="45.8871914" lon="9.2433196"><ele>889.0</ele><time>2026-03-29T16:54:24.946Z</time></trkpt><trkpt lat="45.8870376" lon="9.2432689"><ele>889.0</ele><time>2026-03-29T16:54:25.946Z</time></trkpt><trkpt lat="45.8868904" lon="9.2431932"><ele>889.0</ele><time>2026-03-29T16:54:26.946Z</time></trkpt><trkpt lat="45.8867402" lon="9.2431053"><ele>889.0</ele><time>2026-03-29T16:54:27.946Z</time></trkpt><trkpt lat="45.8865839" lon="9.2430081"><ele>885.6666666666666</ele><time>2026-03-29T16:54:28.945Z</time></trkpt><trkpt lat="45.8864294" lon="9.242914"><ele>882.3333333333333</ele><time>2026-03-29T16:54:29.946Z</time></trkpt><trkpt lat="45.8862832" lon="9.2428193"><ele>879.0</ele><time>2026-03-29T16:54:30.946Z</time></trkpt><trkpt lat="45.8861497" lon="9.2427345"><ele>879.0</ele><time>2026-03-29T16:54:31.945Z</time></trkpt><trkpt lat="45.8860323" lon="9.2426612"><ele>879.0000000000001</ele><time>2026-03-29T16:54:32.946Z</time></trkpt><trkpt lat="45.8859354" lon="9.2426039"><ele>879.0000000000001</ele><time>2026-03-29T16:54:33.946Z</time></trkpt><trkpt lat="45.8858381" lon="9.2425681"><ele>879.0</ele><time>2026-03-29T16:54:34.946Z</time></trkpt><trkpt lat="45.885727" lon="9.2425744"><ele>879.0</ele><time>2026-03-29T16:54:35.946Z</time></trkpt><trkpt lat="45.8855979" lon="9.2426191"><ele>878.25</ele><time>2026-03-29T16:54:36.945Z</time></trkpt><trkpt lat="45.8854529" lon="9.2426761"><ele>877.5</ele><time>2026-03-29T16:54:37.946Z</time></trkpt><trkpt lat="45.885312" lon="9.2427354"><ele>876.75</ele><time>2026-03-29T16:54:38.945Z</time></trkpt><trkpt lat="45.8851756" lon="9.2427945"><ele>876.0</ele><time>2026-03-29T16:54:39.945Z</time></trkpt><trkpt lat="45.8850436" lon="9.2428433"><ele>873.0</ele><time>2026-03-29T16:54:40.945Z</time></trkpt><trkpt lat="45.8849086" lon="9.2428751"><ele>870.0</ele><time>2026-03-29T16:54:41.945Z</time></trkpt><trkpt lat="45.8847773" lon="9.2429005"><ele>867.0</ele><time>2026-03-29T16:54:42.945Z</time></trkpt><trkpt lat="45.88465" lon="9.242944"><ele>864.0</ele><time>2026-03-29T16:54:43.946Z</time></trkpt><trkpt lat="45.8845282" lon="9.2430199"><ele>864.0</ele><time>2026-03-29T16:54:44.945Z</time></trkpt><trkpt lat="45.8844177" lon="9.2431081"><ele>864.0</ele><time>2026-03-29T16:54:45.946Z</time></trkpt><trkpt lat="45.8843108" lon="9.2431907"><ele>864.0</ele><time>2026-03-29T16:54:46.946Z</time></trkpt><trkpt lat="45.8841928" lon="9.2432621"><ele>864.0</ele><time>2026-03-29T16:54:47.945Z</time></trkpt><trkpt lat="45.8840752" lon="9.2432932"><ele>865.5</ele><time>2026-03-29T16:54:48.945Z</time></trkpt><trkpt lat="45.8839313" lon="9.2433038"><ele>867.0</ele><time>2026-03-29T16:54:49.946Z</time></trkpt><trkpt lat="45.8838" lon="9.2433083"><ele>868.5</ele><time>2026-03-29T16:54:50.946Z</time></trkpt><trkpt lat="45.8836809" lon="9.2433387"><ele>870.0</ele><time>2026-03-29T16:54:51.945Z</time></trkpt><trkpt lat="45.8835636" lon="9.2433856"><ele>870.0</ele><time>2026-03-29T16:54:52.945Z</time></trkpt><trkpt lat="45.8834642" lon="9.2434695"><ele>870.0</ele><time>2026-03-29T16:54:53.945Z</time></trkpt><trkpt lat="45.8833714" lon="9.2436099"><ele>870.0</ele><time>2026-03-29T16:54:54.945Z</time></trkpt><trkpt lat="45.8832575" lon="9.2437012"><ele>870.0</ele><time>2026-03-29T16:54:55.946Z</time></trkpt><trkpt lat="45.8831247" lon="9.2437521"><ele>864.6666666666667</ele><time>2026-03-29T16:54:56.945Z</time></trkpt><trkpt lat="45.8829741" lon="9.2437751"><ele>859.3333333333334</ele><time>2026-03-29T16:54:57.946Z</time></trkpt><trkpt lat="45.8828143" lon="9.2437907"><ele>854.0</ele><time>2026-03-29T16:54:58.946Z</time></trkpt><trkpt lat="45.8826546" lon="9.243804"><ele>848.0</ele><time>2026-03-29T16:54:59.946Z</time></trkpt><trkpt lat="45.8824915" lon="9.2438234"><ele>842.0</ele><time>2026-03-29T16:55:00.946Z</time></trkpt><trkpt lat="45.8823255" lon="9.2438406"><ele>836.0</ele><time>2026-03-29T16:55:01.946Z</time></trkpt><trkpt lat="45.8821529" lon="9.24386"><ele>836.0</ele><time>2026-03-29T16:55:02.946Z</time></trkpt><trkpt lat="45.88198" lon="9.2438777"><ele>836.0</ele><time>2026-03-29T16:55:03.945Z</time></trkpt><trkpt lat="45.8818066" lon="9.2438927"><ele>836.0</ele><time>2026-03-29T16:55:04.946Z</time></trkpt><trkpt lat="45.8816366" lon="9.243909"><ele>832.6666666666667</ele><time>2026-03-29T16:55:05.946Z</time></trkpt><trkpt lat="45.8814754" lon="9.2439428"><ele>829.3333333333333</ele><time>2026-03-29T16:55:06.946Z</time></trkpt><trkpt lat="45.8813245" lon="9.2439838"><ele>826.0</ele><time>2026-03-29T16:55:07.946Z</time></trkpt><trkpt lat="45.8811839" lon="9.2440334"><ele>826.3333333333333</ele><time>2026-03-29T16:55:08.946Z</time></trkpt><trkpt lat="45.8810384" lon="9.2441186"><ele>826.6666666666667</ele><time>2026-03-29T16:55:09.946Z</time></trkpt><trkpt lat="45.8808953" lon="9.2441947"><ele>827.0</ele><time>2026-03-29T16:55:10.946Z</time></trkpt><trkpt lat="45.8807564" lon="9.2442726"><ele>827.0</ele><time>2026-03-29T16:55:11.946Z</time></trkpt><trkpt lat="45.8806268" lon="9.2443411"><ele>827.0</ele><time>2026-03-29T16:55:12.946Z</time></trkpt><trkpt lat="45.8805063" lon="9.2444015"><ele>827.0</ele><time>2026-03-29T16:55:13.945Z</time></trkpt><trkpt lat="45.8803976" lon="9.2444462"><ele>827.0</ele><time>2026-03-29T16:55:14.946Z</time></trkpt><trkpt lat="45.8802977" lon="9.2444829"><ele>827.0</ele><time>2026-03-29T16:55:15.945Z</time></trkpt><trkpt lat="45.8802091" lon="9.2445336"><ele>827.0</ele><time>2026-03-29T16:55:16.946Z</time></trkpt><trkpt lat="45.8801341" lon="9.2446016"><ele>827.0</ele><time>2026-03-29T16:55:17.946Z</time></trkpt><trkpt lat="45.8800739" lon="9.2446888"><ele>827.0</ele><time>2026-03-29T16:55:18.945Z</time></trkpt><trkpt lat="45.8800119" lon="9.2450475"><ele>824.25</ele><time>2026-03-29T16:55:20.946Z</time></trkpt><trkpt lat="45.8799966" lon="9.2452701"><ele>821.5</ele><time>2026-03-29T16:55:21.945Z</time></trkpt><trkpt lat="45.8799759" lon="9.2454779"><ele>818.75</ele><time>2026-03-29T16:55:22.946Z</time></trkpt><trkpt lat="45.8799566" lon="9.2456769"><ele>816.0</ele><time>2026-03-29T16:55:23.944Z</time></trkpt><trkpt lat="45.8799555" lon="9.2458331"><ele>816.0</ele><time>2026-03-29T16:55:24.945Z</time></trkpt><trkpt lat="45.8799529" lon="9.2460036"><ele>816.0</ele><time>2026-03-29T16:55:25.946Z</time></trkpt><trkpt lat="45.8799576" lon="9.2461536"><ele>816.0</ele><time>2026-03-29T16:55:26.945Z</time></trkpt><trkpt lat="45.8799668" lon="9.2462906"><ele>816.0</ele><time>2026-03-29T16:55:27.945Z</time></trkpt><trkpt lat="45.8799802" lon="9.2463995"><ele>816.0</ele><time>2026-03-29T16:55:28.944Z</time></trkpt><trkpt lat="45.8799844" lon="9.2465007"><ele>816.0</ele><time>2026-03-29T16:55:29.945Z</time></trkpt><trkpt lat="45.8799256" lon="9.246634"><ele>816.0</ele><time>2026-03-29T16:55:31.945Z</time></trkpt><trkpt lat="45.8798276" lon="9.2465809"><ele>816.0</ele><time>2026-03-29T16:55:33.946Z</time></trkpt><trkpt lat="45.8797982" lon="9.2464706"><ele>816.0</ele><time>2026-03-29T16:55:34.946Z</time></trkpt><trkpt lat="45.8797661" lon="9.2463151"><ele>816.0</ele><time>2026-03-29T16:55:35.946Z</time></trkpt><trkpt lat="45.879714" lon="9.2461599"><ele>816.0</ele><time>2026-03-29T16:55:36.946Z</time></trkpt><trkpt lat="45.8796582" lon="9.2460153"><ele>816.0</ele><time>2026-03-29T16:55:37.945Z</time></trkpt><trkpt lat="45.8796" lon="9.2458694"><ele>816.0</ele><time>2026-03-29T16:55:38.946Z</time></trkpt><trkpt lat="45.8795392" lon="9.2457242"><ele>816.0</ele><time>2026-03-29T16:55:39.945Z</time></trkpt><trkpt lat="45.8794799" lon="9.2455823"><ele>816.0</ele><time>2026-03-29T16:55:40.945Z</time></trkpt><trkpt lat="45.8794244" lon="9.2454369"><ele>816.0</ele><time>2026-03-29T16:55:41.945Z</time></trkpt><trkpt lat="45.879365" lon="9.2452833"><ele>816.0</ele><time>2026-03-29T16:55:42.946Z</time></trkpt><trkpt lat="45.8793123" lon="9.2451323"><ele>816.0</ele><time>2026-03-29T16:55:43.946Z</time></trkpt><trkpt lat="45.879265" lon="9.2449874"><ele>812.5999999999999</ele><time>2026-03-29T16:55:44.945Z</time></trkpt><trkpt lat="45.8792217" lon="9.2448501"><ele>809.2</ele><time>2026-03-29T16:55:45.946Z</time></trkpt><trkpt lat="45.8791698" lon="9.2447232"><ele>805.8</ele><time>2026-03-29T16:55:46.946Z</time></trkpt><trkpt lat="45.8791018" lon="9.244621"><ele>802.4000000000001</ele><time>2026-03-29T16:55:47.945Z</time></trkpt><trkpt lat="45.8790473" lon="9.2445046"><ele>799.0</ele><time>2026-03-29T16:55:48.946Z</time></trkpt><trkpt lat="45.8790103" lon="9.2443645"><ele>798.0</ele><time>2026-03-29T16:55:49.946Z</time></trkpt><trkpt lat="45.8789793" lon="9.2442205"><ele>797.0</ele><time>2026-03-29T16:55:50.946Z</time></trkpt><trkpt lat="45.8789435" lon="9.2440799"><ele>796.0</ele><time>2026-03-29T16:55:51.945Z</time></trkpt><trkpt lat="45.8789065" lon="9.2438996"><ele>795.0</ele><time>2026-03-29T16:55:52.945Z</time></trkpt><trkpt lat="45.8788917" lon="9.2438115"><ele>794.0</ele><time>2026-03-29T16:55:53.945Z</time></trkpt><trkpt lat="45.8789042" lon="9.2437113"><ele>793.0000000000001</ele><time>2026-03-29T16:55:54.946Z</time></trkpt><trkpt lat="45.8789015" lon="9.2435896"><ele>792.0</ele><time>2026-03-29T16:55:57.946Z</time></trkpt><trkpt lat="45.8788239" lon="9.2435105"><ele>791.0</ele><time>2026-03-29T16:56:04.946Z</time></trkpt><trkpt lat="45.8787504" lon="9.2436099"><ele>790.0</ele><time>2026-03-29T16:56:06.945Z</time></trkpt><trkpt lat="45.8787345" lon="9.2437048"><ele>789.0000000000001</ele><time>2026-03-29T16:56:07.945Z</time></trkpt><trkpt lat="45.8787347" lon="9.2438221"><ele>788.0</ele><time>2026-03-29T16:56:08.945Z</time></trkpt><trkpt lat="45.878734" lon="9.2439504"><ele>789.2</ele><time>2026-03-29T16:56:09.946Z</time></trkpt><trkpt lat="45.878719" lon="9.2440849"><ele>790.4</ele><time>2026-03-29T16:56:10.946Z</time></trkpt><trkpt lat="45.8786885" lon="9.2442302"><ele>791.6</ele><time>2026-03-29T16:56:11.945Z</time></trkpt><trkpt lat="45.8786317" lon="9.2443826"><ele>792.8000000000001</ele><time>2026-03-29T16:56:12.946Z</time></trkpt><trkpt lat="45.8785681" lon="9.2445322"><ele>794.0</ele><time>2026-03-29T16:56:13.946Z</time></trkpt><trkpt lat="45.8785179" lon="9.2446896"><ele>795.25</ele><time>2026-03-29T16:56:14.946Z</time></trkpt><trkpt lat="45.8784852" lon="9.2448564"><ele>796.5</ele><time>2026-03-29T16:56:15.946Z</time></trkpt><trkpt lat="45.8784548" lon="9.245016"><ele>797.75</ele><time>2026-03-29T16:56:16.946Z</time></trkpt><trkpt lat="45.8784109" lon="9.2451723"><ele>799.0</ele><time>2026-03-29T16:56:17.944Z</time></trkpt><trkpt lat="45.878361" lon="9.2453234"><ele>793.75</ele><time>2026-03-29T16:56:18.945Z</time></trkpt><trkpt lat="45.8783007" lon="9.2454678"><ele>788.5</ele><time>2026-03-29T16:56:19.946Z</time></trkpt><trkpt lat="45.8782328" lon="9.2456065"><ele>783.25</ele><time>2026-03-29T16:56:20.946Z</time></trkpt><trkpt lat="45.8781646" lon="9.2457447"><ele>778.0</ele><time>2026-03-29T16:56:21.945Z</time></trkpt><trkpt lat="45.8780978" lon="9.2458828"><ele>778.0</ele><time>2026-03-29T16:56:22.945Z</time></trkpt><trkpt lat="45.8780361" lon="9.2460218"><ele>778.0</ele><time>2026-03-29T16:56:23.945Z</time></trkpt><trkpt lat="45.8779742" lon="9.2461572"><ele>778.0</ele><time>2026-03-29T16:56:24.946Z</time></trkpt><trkpt lat="45.8778919" lon="9.2462701"><ele>778.0</ele><time>2026-03-29T16:56:25.946Z</time></trkpt><trkpt lat="45.8777968" lon="9.2463774"><ele>779.5</ele><time>2026-03-29T16:56:26.944Z</time></trkpt><trkpt lat="45.8776853" lon="9.2464696"><ele>781.0</ele><time>2026-03-29T16:56:27.946Z</time></trkpt><trkpt lat="45.8775701" lon="9.2465485"><ele>782.5</ele><time>2026-03-29T16:56:28.945Z</time></trkpt><trkpt lat="45.8774551" lon="9.2466169"><ele>784.0</ele><time>2026-03-29T16:56:29.945Z</time></trkpt><trkpt lat="45.8773451" lon="9.2466789"><ele>780.6</ele><time>2026-03-29T16:56:30.946Z</time></trkpt><trkpt lat="45.8772462" lon="9.2467557"><ele>777.2</ele><time>2026-03-29T16:56:31.945Z</time></trkpt><trkpt lat="45.8771609" lon="9.2468428"><ele>773.8000000000001</ele><time>2026-03-29T16:56:32.946Z</time></trkpt><trkpt lat="45.877094" lon="9.2469452"><ele>770.4000000000001</ele><time>2026-03-29T16:56:33.945Z</time></trkpt><trkpt lat="45.8770541" lon="9.2470702"><ele>767.0</ele><time>2026-03-29T16:56:34.946Z</time></trkpt><trkpt lat="45.8770312" lon="9.2472173"><ele>767.8</ele><time>2026-03-29T16:56:35.946Z</time></trkpt><trkpt lat="45.8770181" lon="9.2473622"><ele>768.6</ele><time>2026-03-29T16:56:36.946Z</time></trkpt><trkpt lat="45.8770068" lon="9.2474981"><ele>769.4</ele><time>2026-03-29T16:56:37.945Z</time></trkpt><trkpt lat="45.8769988" lon="9.2476277"><ele>770.1999999999999</ele><time>2026-03-29T16:56:38.946Z</time></trkpt><trkpt lat="45.876991" lon="9.2477516"><ele>771.0</ele><time>2026-03-29T16:56:39.946Z</time></trkpt><trkpt lat="45.8769813" lon="9.2478739"><ele>771.0</ele><time>2026-03-29T16:56:40.946Z</time></trkpt><trkpt lat="45.8769677" lon="9.2480021"><ele>771.0</ele><time>2026-03-29T16:56:41.946Z</time></trkpt><trkpt lat="45.8769503" lon="9.2481338"><ele>771.0</ele><time>2026-03-29T16:56:42.945Z</time></trkpt><trkpt lat="45.87693" lon="9.2482717"><ele>771.0</ele><time>2026-03-29T16:56:43.946Z</time></trkpt><trkpt lat="45.8769149" lon="9.2484166"><ele>771.0</ele><time>2026-03-29T16:56:44.946Z</time></trkpt><trkpt lat="45.8768929" lon="9.248555"><ele>770.0</ele><time>2026-03-29T16:56:45.945Z</time></trkpt><trkpt lat="45.8768723" lon="9.2486924"><ele>769.0</ele><time>2026-03-29T16:56:46.945Z</time></trkpt><trkpt lat="45.8768445" lon="9.2488275"><ele>768.0</ele><time>2026-03-29T16:56:47.944Z</time></trkpt><trkpt lat="45.8768151" lon="9.248935"><ele>767.0</ele><time>2026-03-29T16:56:48.944Z</time></trkpt><trkpt lat="45.8767855" lon="9.2490365"><ele>766.0</ele><time>2026-03-29T16:56:49.946Z</time></trkpt><trkpt lat="45.8767643" lon="9.2491452"><ele>765.0</ele><time>2026-03-29T16:56:50.946Z</time></trkpt><trkpt lat="45.8767602" lon="9.2492505"><ele>765.0</ele><time>2026-03-29T16:56:51.946Z</time></trkpt><trkpt lat="45.8767578" lon="9.249353"><ele>765.0</ele><time>2026-03-29T16:56:52.946Z</time></trkpt><trkpt lat="45.8767695" lon="9.2494508"><ele>765.0</ele><time>2026-03-29T16:56:53.946Z</time></trkpt><trkpt lat="45.8768426" lon="9.2495636"><ele>765.0</ele><time>2026-03-29T16:56:55.946Z</time></trkpt><trkpt lat="45.8769135" lon="9.2495465"><ele>765.0</ele><time>2026-03-29T16:56:56.945Z</time></trkpt><trkpt lat="45.8769785" lon="9.2494836"><ele>765.0</ele><time>2026-03-29T16:56:57.946Z</time></trkpt><trkpt lat="45.8770334" lon="9.2494055"><ele>762.4</ele><time>2026-03-29T16:56:58.946Z</time></trkpt><trkpt lat="45.8770908" lon="9.249326"><ele>759.8</ele><time>2026-03-29T16:56:59.944Z</time></trkpt><trkpt lat="45.8771551" lon="9.2492636"><ele>757.2</ele><time>2026-03-29T16:57:00.945Z</time></trkpt><trkpt lat="45.8772156" lon="9.2492281"><ele>754.6</ele><time>2026-03-29T16:57:01.945Z</time></trkpt><trkpt lat="45.8773182" lon="9.2492916"><ele>752.0</ele><time>2026-03-29T16:57:03.946Z</time></trkpt><trkpt lat="45.877332" lon="9.2494793"><ele>752.0</ele><time>2026-03-29T16:57:05.946Z</time></trkpt><trkpt lat="45.8772997" lon="9.2496052"><ele>752.0</ele><time>2026-03-29T16:57:06.945Z</time></trkpt><trkpt lat="45.8772547" lon="9.2497369"><ele>752.0</ele><time>2026-03-29T16:57:07.945Z</time></trkpt><trkpt lat="45.8772092" lon="9.2498669"><ele>752.0</ele><time>2026-03-29T16:57:08.945Z</time></trkpt><trkpt lat="45.8771596" lon="9.2499993"><ele>752.0</ele><time>2026-03-29T16:57:09.946Z</time></trkpt><trkpt lat="45.8771085" lon="9.2501321"><ele>750.4000000000001</ele><time>2026-03-29T16:57:10.946Z</time></trkpt><trkpt lat="45.8770547" lon="9.2502738"><ele>748.8000000000001</ele><time>2026-03-29T16:57:11.946Z</time></trkpt><trkpt lat="45.8770297" lon="9.2504398"><ele>747.2</ele><time>2026-03-29T16:57:12.945Z</time></trkpt><trkpt lat="45.8770167" lon="9.250598"><ele>745.6</ele><time>2026-03-29T16:57:13.945Z</time></trkpt><trkpt lat="45.8770034" lon="9.2507445"><ele>744.0</ele><time>2026-03-29T16:57:14.946Z</time></trkpt><trkpt lat="45.8769958" lon="9.250878"><ele>743.2</ele><time>2026-03-29T16:57:15.946Z</time></trkpt><trkpt lat="45.8769686" lon="9.2510003"><ele>742.4000000000001</ele><time>2026-03-29T16:57:16.946Z</time></trkpt><trkpt lat="45.8769187" lon="9.2511095"><ele>741.6</ele><time>2026-03-29T16:57:17.946Z</time></trkpt><trkpt lat="45.8768608" lon="9.2511974"><ele>740.8</ele><time>2026-03-29T16:57:18.944Z</time></trkpt><trkpt lat="45.8767821" lon="9.2512697"><ele>740.0</ele><time>2026-03-29T16:57:19.945Z</time></trkpt><trkpt lat="45.8766917" lon="9.2513111"><ele>742.0</ele><time>2026-03-29T16:57:20.946Z</time></trkpt><trkpt lat="45.8765841" lon="9.2513353"><ele>744.0</ele><time>2026-03-29T16:57:21.946Z</time></trkpt><trkpt lat="45.8764587" lon="9.251347"><ele>746.0</ele><time>2026-03-29T16:57:22.946Z</time></trkpt><trkpt lat="45.8763393" lon="9.2513545"><ele>748.0</ele><time>2026-03-29T16:57:23.946Z</time></trkpt><trkpt lat="45.8762166" lon="9.2513707"><ele>748.0</ele><time>2026-03-29T16:57:24.946Z</time></trkpt><trkpt lat="45.8760906" lon="9.2514074"><ele>748.0</ele><time>2026-03-29T16:57:25.946Z</time></trkpt><trkpt lat="45.8759587" lon="9.2514773"><ele>748.0</ele><time>2026-03-29T16:57:26.945Z</time></trkpt><trkpt lat="45.875825" lon="9.2515775"><ele>748.0</ele><time>2026-03-29T16:57:27.945Z</time></trkpt><trkpt lat="45.8756966" lon="9.2516868"><ele>744.0</ele><time>2026-03-29T16:57:28.946Z</time></trkpt><trkpt lat="45.8755718" lon="9.251798"><ele>740.0</ele><time>2026-03-29T16:57:29.945Z</time></trkpt><trkpt lat="45.875451" lon="9.2519048"><ele>736.0</ele><time>2026-03-29T16:57:30.945Z</time></trkpt><trkpt lat="45.8753302" lon="9.2520151"><ele>732.0</ele><time>2026-03-29T16:57:31.944Z</time></trkpt><trkpt lat="45.8752132" lon="9.2521204"><ele>734.0</ele><time>2026-03-29T16:57:32.945Z</time></trkpt><trkpt lat="45.8750966" lon="9.2522232"><ele>736.0</ele><time>2026-03-29T16:57:33.945Z</time></trkpt><trkpt lat="45.874982" lon="9.252327"><ele>738.0</ele><time>2026-03-29T16:57:34.946Z</time></trkpt><trkpt lat="45.8748781" lon="9.2524192"><ele>740.0</ele><time>2026-03-29T16:57:35.946Z</time></trkpt><trkpt lat="45.8747858" lon="9.2525007"><ele>736.8</ele><time>2026-03-29T16:57:36.946Z</time></trkpt><trkpt lat="45.8746922" lon="9.2525629"><ele>733.6</ele><time>2026-03-29T16:57:37.945Z</time></trkpt><trkpt lat="45.8745899" lon="9.2525872"><ele>730.4000000000001</ele><time>2026-03-29T16:57:38.945Z</time></trkpt><trkpt lat="45.874489" lon="9.2525916"><ele>727.2</ele><time>2026-03-29T16:57:39.946Z</time></trkpt><trkpt lat="45.8743904" lon="9.2525774"><ele>724.0</ele><time>2026-03-29T16:57:40.944Z</time></trkpt><trkpt lat="45.8742781" lon="9.2525461"><ele>723.4000000000001</ele><time>2026-03-29T16:57:41.945Z</time></trkpt><trkpt lat="45.8741873" lon="9.2525191"><ele>722.8</ele><time>2026-03-29T16:57:42.945Z</time></trkpt><trkpt lat="45.8741172" lon="9.2524946"><ele>722.2</ele><time>2026-03-29T16:57:43.944Z</time></trkpt><trkpt lat="45.8740086" lon="9.252535"><ele>721.5999999999999</ele><time>2026-03-29T16:57:45.946Z</time></trkpt><trkpt lat="45.8740105" lon="9.2527008"><ele>721.0</ele><time>2026-03-29T16:57:47.945Z</time></trkpt><trkpt lat="45.874083" lon="9.2527572"><ele>721.0</ele><time>2026-03-29T16:57:48.945Z</time></trkpt><trkpt lat="45.8741876" lon="9.2528036"><ele>721.0</ele><time>2026-03-29T16:57:49.946Z</time></trkpt><trkpt lat="45.8742882" lon="9.2528586"><ele>721.0</ele><time>2026-03-29T16:57:50.945Z</time></trkpt><trkpt lat="45.8743938" lon="9.2529166"><ele>721.0</ele><time>2026-03-29T16:57:51.945Z</time></trkpt><trkpt lat="45.8745119" lon="9.2529779"><ele>721.75</ele><time>2026-03-29T16:57:52.946Z</time></trkpt><trkpt lat="45.8746325" lon="9.2530253"><ele>722.5</ele><time>2026-03-29T16:57:53.946Z</time></trkpt><trkpt lat="45.8747443" lon="9.2530522"><ele>723.25</ele><time>2026-03-29T16:57:54.945Z</time></trkpt><trkpt lat="45.8748541" lon="9.2530613"><ele>724.0</ele><time>2026-03-29T16:57:55.945Z</time></trkpt><trkpt lat="45.8749631" lon="9.2530472"><ele>724.0</ele><time>2026-03-29T16:57:56.944Z</time></trkpt><trkpt lat="45.8750714" lon="9.2530112"><ele>724.0</ele><time>2026-03-29T16:57:57.945Z</time></trkpt><trkpt lat="45.8751671" lon="9.2529758"><ele>724.0</ele><time>2026-03-29T16:57:58.946Z</time></trkpt><trkpt lat="45.8752419" lon="9.2529336"><ele>724.0</ele><time>2026-03-29T16:57:59.945Z</time></trkpt><trkpt lat="45.8752965" lon="9.252843"><ele>724.0</ele><time>2026-03-29T16:58:00.946Z</time></trkpt><trkpt lat="45.8753924" lon="9.2527801"><ele>722.0</ele><time>2026-03-29T16:58:02.945Z</time></trkpt><trkpt lat="45.8754621" lon="9.2528907"><ele>720.0</ele><time>2026-03-29T16:58:04.946Z</time></trkpt><trkpt lat="45.8753691" lon="9.2530549"><ele>718.0</ele><time>2026-03-29T16:58:06.945Z</time></trkpt><trkpt lat="45.8752925" lon="9.2531503"><ele>716.0</ele><time>2026-03-29T16:58:07.946Z</time></trkpt><trkpt lat="45.8752189" lon="9.2532455"><ele>713.0</ele><time>2026-03-29T16:58:08.944Z</time></trkpt><trkpt lat="45.8751279" lon="9.2533554"><ele>710.0</ele><time>2026-03-29T16:58:09.944Z</time></trkpt><trkpt lat="45.8750293" lon="9.2534567"><ele>707.0</ele><time>2026-03-29T16:58:10.945Z</time></trkpt><trkpt lat="45.8749273" lon="9.2535387"><ele>704.0</ele><time>2026-03-29T16:58:11.945Z</time></trkpt><trkpt lat="45.8748128" lon="9.2536055"><ele>704.0</ele><time>2026-03-29T16:58:12.946Z</time></trkpt><trkpt lat="45.8746895" lon="9.2536569"><ele>704.0</ele><time>2026-03-29T16:58:13.945Z</time></trkpt><trkpt lat="45.8745598" lon="9.2537"><ele>704.0</ele><time>2026-03-29T16:58:14.944Z</time></trkpt><trkpt lat="45.8744241" lon="9.25374"><ele>704.0</ele><time>2026-03-29T16:58:15.945Z</time></trkpt><trkpt lat="45.874292" lon="9.2537753"><ele>703.75</ele><time>2026-03-29T16:58:16.945Z</time></trkpt><trkpt lat="45.8741653" lon="9.2538104"><ele>703.5</ele><time>2026-03-29T16:58:17.946Z</time></trkpt><trkpt lat="45.874049" lon="9.2538452"><ele>703.25</ele><time>2026-03-29T16:58:18.946Z</time></trkpt><trkpt lat="45.8739422" lon="9.2538668"><ele>703.0</ele><time>2026-03-29T16:58:19.945Z</time></trkpt><trkpt lat="45.8738456" lon="9.2538721"><ele>703.0</ele><time>2026-03-29T16:58:20.946Z</time></trkpt><trkpt lat="45.8737589" lon="9.2538645"><ele>703.0</ele><time>2026-03-29T16:58:21.945Z</time></trkpt><trkpt lat="45.8736873" lon="9.2538573"><ele>703.0</ele><time>2026-03-29T16:58:22.945Z</time></trkpt><trkpt lat="45.873624" lon="9.2538633"><ele>703.0</ele><time>2026-03-29T16:58:23.946Z</time></trkpt><trkpt lat="45.8735634" lon="9.2539886"><ele>703.0</ele><time>2026-03-29T16:58:25.946Z</time></trkpt><trkpt lat="45.8736514" lon="9.2541129"><ele>699.8</ele><time>2026-03-29T16:58:27.945Z</time></trkpt><trkpt lat="45.8737501" lon="9.2541284"><ele>696.5999999999999</ele><time>2026-03-29T16:58:28.945Z</time></trkpt><trkpt lat="45.8738569" lon="9.2541377"><ele>693.4000000000001</ele><time>2026-03-29T16:58:29.946Z</time></trkpt><trkpt lat="45.8739568" lon="9.2541584"><ele>690.2</ele><time>2026-03-29T16:58:30.945Z</time></trkpt><trkpt lat="45.8740637" lon="9.2541732"><ele>687.0</ele><time>2026-03-29T16:58:31.946Z</time></trkpt><trkpt lat="45.874176" lon="9.2541782"><ele>687.1666666666666</ele><time>2026-03-29T16:58:32.945Z</time></trkpt><trkpt lat="45.8742768" lon="9.2541763"><ele>687.3333333333334</ele><time>2026-03-29T16:58:33.945Z</time></trkpt><trkpt lat="45.8743585" lon="9.254168"><ele>687.5</ele><time>2026-03-29T16:58:34.946Z</time></trkpt><trkpt lat="45.874428" lon="9.2541461"><ele>687.6666666666667</ele><time>2026-03-29T16:58:35.945Z</time></trkpt><trkpt lat="45.8744917" lon="9.2541424"><ele>687.8333333333334</ele><time>2026-03-29T16:58:36.944Z</time></trkpt><trkpt lat="45.8745611" lon="9.2542407"><ele>688.0</ele><time>2026-03-29T16:58:38.945Z</time></trkpt><trkpt lat="45.8745171" lon="9.2543447"><ele>688.0</ele><time>2026-03-29T16:58:40.946Z</time></trkpt><trkpt lat="45.8744223" lon="9.2543733"><ele>688.0</ele><time>2026-03-29T16:58:42.946Z</time></trkpt><trkpt lat="45.8743446" lon="9.2543857"><ele>688.0</ele><time>2026-03-29T16:58:43.945Z</time></trkpt><trkpt lat="45.8742555" lon="9.2544017"><ele>688.0</ele><time>2026-03-29T16:58:44.946Z</time></trkpt><trkpt lat="45.8741552" lon="9.2544386"><ele>688.0</ele><time>2026-03-29T16:58:45.946Z</time></trkpt><trkpt lat="45.8740605" lon="9.2544717"><ele>687.75</ele><time>2026-03-29T16:58:46.945Z</time></trkpt><trkpt lat="45.8739569" lon="9.2545084"><ele>687.5</ele><time>2026-03-29T16:58:47.944Z</time></trkpt><trkpt lat="45.8738443" lon="9.2545462"><ele>687.25</ele><time>2026-03-29T16:58:48.946Z</time></trkpt><trkpt lat="45.8737284" lon="9.2545881"><ele>687.0</ele><time>2026-03-29T16:58:49.946Z</time></trkpt><trkpt lat="45.8736034" lon="9.2546272"><ele>687.0</ele><time>2026-03-29T16:58:50.946Z</time></trkpt><trkpt lat="45.8735021" lon="9.2546586"><ele>687.0</ele><time>2026-03-29T16:58:51.946Z</time></trkpt><trkpt lat="45.8733973" lon="9.2546695"><ele>687.0</ele><time>2026-03-29T16:58:52.946Z</time></trkpt><trkpt lat="45.8732923" lon="9.2546677"><ele>687.0</ele><time>2026-03-29T16:58:53.945Z</time></trkpt><trkpt lat="45.8731909" lon="9.2546474"><ele>687.0</ele><time>2026-03-29T16:58:54.946Z</time></trkpt><trkpt lat="45.873113" lon="9.2546414"><ele>686.5</ele><time>2026-03-29T16:58:55.946Z</time></trkpt><trkpt lat="45.8730441" lon="9.2546328"><ele>686.0</ele><time>2026-03-29T16:58:56.944Z</time></trkpt><trkpt lat="45.8729814" lon="9.2546425"><ele>685.5</ele><time>2026-03-29T16:58:57.945Z</time></trkpt><trkpt lat="45.8729335" lon="9.2547645"><ele>685.0</ele><time>2026-03-29T16:58:59.944Z</time></trkpt><trkpt lat="45.8730153" lon="9.2548791"><ele>684.5</ele><time>2026-03-29T16:59:01.946Z</time></trkpt><trkpt lat="45.8731028" lon="9.2548991"><ele>684.0</ele><time>2026-03-29T16:59:02.946Z</time></trkpt><trkpt lat="45.8732068" lon="9.2549178"><ele>680.0</ele><time>2026-03-29T16:59:03.945Z</time></trkpt><trkpt lat="45.8733174" lon="9.2549307"><ele>676.0</ele><time>2026-03-29T16:59:04.946Z</time></trkpt><trkpt lat="45.8734291" lon="9.2549677"><ele>672.0</ele><time>2026-03-29T16:59:05.945Z</time></trkpt><trkpt lat="45.8735513" lon="9.2550189"><ele>668.0</ele><time>2026-03-29T16:59:06.945Z</time></trkpt><trkpt lat="45.8736845" lon="9.2550681"><ele>668.0</ele><time>2026-03-29T16:59:07.945Z</time></trkpt><trkpt lat="45.8738088" lon="9.2551148"><ele>668.0</ele><time>2026-03-29T16:59:08.945Z</time></trkpt><trkpt lat="45.8739354" lon="9.255164"><ele>668.0</ele><time>2026-03-29T16:59:09.945Z</time></trkpt><trkpt lat="45.8740465" lon="9.2552077"><ele>668.0</ele><time>2026-03-29T16:59:10.945Z</time></trkpt><trkpt lat="45.8741534" lon="9.2552339"><ele>668.0</ele><time>2026-03-29T16:59:11.946Z</time></trkpt><trkpt lat="45.8742474" lon="9.2552368"><ele>668.0</ele><time>2026-03-29T16:59:12.946Z</time></trkpt><trkpt lat="45.8743438" lon="9.2552108"><ele>668.0</ele><time>2026-03-29T16:59:13.945Z</time></trkpt><trkpt lat="45.8744432" lon="9.2551682"><ele>668.0</ele><time>2026-03-29T16:59:14.944Z</time></trkpt><trkpt lat="45.8745462" lon="9.2551535"><ele>668.0</ele><time>2026-03-29T16:59:16.945Z</time></trkpt><trkpt lat="45.874618" lon="9.2552245"><ele>668.0</ele><time>2026-03-29T16:59:18.946Z</time></trkpt><trkpt lat="45.8745933" lon="9.2553573"><ele>668.0</ele><time>2026-03-29T16:59:20.945Z</time></trkpt><trkpt lat="45.8745304" lon="9.2553912"><ele>668.0</ele><time>2026-03-29T16:59:21.946Z</time></trkpt><trkpt lat="45.8744534" lon="9.2554246"><ele>668.0</ele><time>2026-03-29T16:59:22.945Z</time></trkpt><trkpt lat="45.8743558" lon="9.2554584"><ele>668.0</ele><time>2026-03-29T16:59:23.945Z</time></trkpt><trkpt lat="45.8742624" lon="9.2554928"><ele>668.0</ele><time>2026-03-29T16:59:24.945Z</time></trkpt><trkpt lat="45.8741661" lon="9.2555326"><ele>668.0</ele><time>2026-03-29T16:59:25.946Z</time></trkpt><trkpt lat="45.8740583" lon="9.2555774"><ele>668.0</ele><time>2026-03-29T16:59:26.946Z</time></trkpt><trkpt lat="45.8739373" lon="9.2556286"><ele>668.0</ele><time>2026-03-29T16:59:27.945Z</time></trkpt><trkpt lat="45.8738023" lon="9.2556797"><ele>668.0</ele><time>2026-03-29T16:59:28.946Z</time></trkpt><trkpt lat="45.873672" lon="9.2557305"><ele>664.0</ele><time>2026-03-29T16:59:29.944Z</time></trkpt><trkpt lat="45.8735423" lon="9.2557782"><ele>660.0</ele><time>2026-03-29T16:59:30.946Z</time></trkpt><trkpt lat="45.873411" lon="9.2558326"><ele>656.0</ele><time>2026-03-29T16:59:31.945Z</time></trkpt><trkpt lat="45.8732742" lon="9.2558798"><ele>652.0</ele><time>2026-03-29T16:59:32.946Z</time></trkpt><trkpt lat="45.8731451" lon="9.2559272"><ele>650.8</ele><time>2026-03-29T16:59:33.945Z</time></trkpt><trkpt lat="45.8730299" lon="9.2559768"><ele>649.6</ele><time>2026-03-29T16:59:34.945Z</time></trkpt><trkpt lat="45.8729252" lon="9.2560123"><ele>648.4</ele><time>2026-03-29T16:59:35.945Z</time></trkpt><trkpt lat="45.8728201" lon="9.2560245"><ele>647.1999999999999</ele><time>2026-03-29T16:59:36.946Z</time></trkpt><trkpt lat="45.8727201" lon="9.2560017"><ele>646.0</ele><time>2026-03-29T16:59:37.946Z</time></trkpt><trkpt lat="45.8726314" lon="9.2559402"><ele>646.0</ele><time>2026-03-29T16:59:38.945Z</time></trkpt><trkpt lat="45.872555" lon="9.2558427"><ele>646.0</ele><time>2026-03-29T16:59:39.945Z</time></trkpt><trkpt lat="45.8724873" lon="9.2557092"><ele>646.0</ele><time>2026-03-29T16:59:40.946Z</time></trkpt><trkpt lat="45.8724252" lon="9.2555485"><ele>646.0</ele><time>2026-03-29T16:59:41.946Z</time></trkpt><trkpt lat="45.8723708" lon="9.2553731"><ele>646.0</ele><time>2026-03-29T16:59:42.945Z</time></trkpt><trkpt lat="45.8723001" lon="9.2552724"><ele>646.0</ele><time>2026-03-29T16:59:43.946Z</time></trkpt><trkpt lat="45.8722655" lon="9.2551532"><ele>646.0</ele><time>2026-03-29T16:59:44.946Z</time></trkpt><trkpt lat="45.8722092" lon="9.2549311"><ele>646.0</ele><time>2026-03-29T16:59:45.946Z</time></trkpt><trkpt lat="45.8721406" lon="9.2547755"><ele>650.25</ele><time>2026-03-29T16:59:46.946Z</time></trkpt><trkpt lat="45.872048" lon="9.2546442"><ele>654.5</ele><time>2026-03-29T16:59:47.946Z</time></trkpt><trkpt lat="45.8719379" lon="9.2545201"><ele>658.75</ele><time>2026-03-29T16:59:48.946Z</time></trkpt><trkpt lat="45.8718289" lon="9.2543923"><ele>663.0</ele><time>2026-03-29T16:59:49.945Z</time></trkpt><trkpt lat="45.8717249" lon="9.2542662"><ele>657.8</ele><time>2026-03-29T16:59:50.946Z</time></trkpt><trkpt lat="45.8716302" lon="9.2541487"><ele>652.5999999999999</ele><time>2026-03-29T16:59:51.946Z</time></trkpt><trkpt lat="45.871552" lon="9.2540379"><ele>647.4000000000001</ele><time>2026-03-29T16:59:52.946Z</time></trkpt><trkpt lat="45.8714844" lon="9.2539362"><ele>642.2</ele><time>2026-03-29T16:59:53.946Z</time></trkpt><trkpt lat="45.8714301" lon="9.2538542"><ele>637.0</ele><time>2026-03-29T16:59:54.946Z</time></trkpt><trkpt lat="45.871382" lon="9.2537916"><ele>637.0</ele><time>2026-03-29T16:59:55.946Z</time></trkpt><trkpt lat="45.8712712" lon="9.2537686"><ele>637.0</ele><time>2026-03-29T16:59:57.945Z</time></trkpt><trkpt lat="45.8712158" lon="9.2539292"><ele>637.0</ele><time>2026-03-29T16:59:59.946Z</time></trkpt><trkpt lat="45.8712506" lon="9.2540781"><ele>637.0</ele><time>2026-03-29T17:00:00.945Z</time></trkpt><trkpt lat="45.871294" lon="9.2542149"><ele>635.4</ele><time>2026-03-29T17:00:01.946Z</time></trkpt><trkpt lat="45.8713398" lon="9.2543467"><ele>633.8000000000001</ele><time>2026-03-29T17:00:02.945Z</time></trkpt><trkpt lat="45.871382" lon="9.2544813"><ele>632.2</ele><time>2026-03-29T17:00:03.946Z</time></trkpt><trkpt lat="45.8714131" lon="9.2546175"><ele>630.6</ele><time>2026-03-29T17:00:04.946Z</time></trkpt><trkpt lat="45.8714245" lon="9.2547596"><ele>629.0</ele><time>2026-03-29T17:00:05.946Z</time></trkpt><trkpt lat="45.8714358" lon="9.2549145"><ele>627.25</ele><time>2026-03-29T17:00:06.946Z</time></trkpt><trkpt lat="45.8714184" lon="9.2550724"><ele>625.5</ele><time>2026-03-29T17:00:07.945Z</time></trkpt><trkpt lat="45.8713999" lon="9.2552396"><ele>623.75</ele><time>2026-03-29T17:00:08.946Z</time></trkpt><trkpt lat="45.8713845" lon="9.2553993"><ele>622.0</ele><time>2026-03-29T17:00:09.945Z</time></trkpt><trkpt lat="45.8713878" lon="9.2555545"><ele>621.0</ele><time>2026-03-29T17:00:10.945Z</time></trkpt><trkpt lat="45.8714096" lon="9.2557072"><ele>620.0</ele><time>2026-03-29T17:00:11.946Z</time></trkpt><trkpt lat="45.8714357" lon="9.2558651"><ele>619.0</ele><time>2026-03-29T17:00:12.946Z</time></trkpt><trkpt lat="45.8714565" lon="9.2560169"><ele>618.0</ele><time>2026-03-29T17:00:13.945Z</time></trkpt><trkpt lat="45.8715079" lon="9.2561976"><ele>618.0</ele><time>2026-03-29T17:00:14.945Z</time></trkpt><trkpt lat="45.8715705" lon="9.2563643"><ele>618.0</ele><time>2026-03-29T17:00:15.945Z</time></trkpt><trkpt lat="45.8716219" lon="9.2565446"><ele>618.0</ele><time>2026-03-29T17:00:16.945Z</time></trkpt><trkpt lat="45.8716687" lon="9.256716"><ele>618.0</ele><time>2026-03-29T17:00:17.945Z</time></trkpt><trkpt lat="45.8717183" lon="9.2568893"><ele>618.4</ele><time>2026-03-29T17:00:18.945Z</time></trkpt><trkpt lat="45.8717657" lon="9.2570235"><ele>618.8</ele><time>2026-03-29T17:00:19.946Z</time></trkpt><trkpt lat="45.8718103" lon="9.2571712"><ele>619.2</ele><time>2026-03-29T17:00:20.946Z</time></trkpt><trkpt lat="45.8719064" lon="9.2572272"><ele>619.6</ele><time>2026-03-29T17:00:21.945Z</time></trkpt><trkpt lat="45.8720083" lon="9.2572853"><ele>620.0</ele><time>2026-03-29T17:00:22.946Z</time></trkpt><trkpt lat="45.8720966" lon="9.2572991"><ele>616.3333333333333</ele><time>2026-03-29T17:00:23.945Z</time></trkpt><trkpt lat="45.8721774" lon="9.2572934"><ele>612.6666666666666</ele><time>2026-03-29T17:00:24.946Z</time></trkpt><trkpt lat="45.8722458" lon="9.2572919"><ele>609.0</ele><time>2026-03-29T17:00:25.946Z</time></trkpt><trkpt lat="45.8723446" lon="9.2573599"><ele>605.3333333333334</ele><time>2026-03-29T17:00:27.946Z</time></trkpt><trkpt lat="45.8723252" lon="9.2574884"><ele>601.6666666666667</ele><time>2026-03-29T17:00:29.946Z</time></trkpt><trkpt lat="45.8722689" lon="9.2575307"><ele>598.0</ele><time>2026-03-29T17:00:30.945Z</time></trkpt><trkpt lat="45.8721799" lon="9.2575662"><ele>598.0</ele><time>2026-03-29T17:00:31.945Z</time></trkpt><trkpt lat="45.872069" lon="9.2576054"><ele>598.0</ele><time>2026-03-29T17:00:32.945Z</time></trkpt><trkpt lat="45.8719583" lon="9.2576484"><ele>598.0</ele><time>2026-03-29T17:00:33.946Z</time></trkpt><trkpt lat="45.8718537" lon="9.2576939"><ele>598.0</ele><time>2026-03-29T17:00:34.945Z</time></trkpt><trkpt lat="45.8717523" lon="9.2577265"><ele>598.0</ele><time>2026-03-29T17:00:35.944Z</time></trkpt><trkpt lat="45.871651" lon="9.257735"><ele>597.25</ele><time>2026-03-29T17:00:36.946Z</time></trkpt><trkpt lat="45.8715543" lon="9.2577056"><ele>596.5</ele><time>2026-03-29T17:00:37.946Z</time></trkpt><trkpt lat="45.8714517" lon="9.257639"><ele>595.75</ele><time>2026-03-29T17:00:38.944Z</time></trkpt><trkpt lat="45.8713388" lon="9.2575427"><ele>595.0</ele><time>2026-03-29T17:00:39.946Z</time></trkpt><trkpt lat="45.8712246" lon="9.2574484"><ele>595.0</ele><time>2026-03-29T17:00:40.946Z</time></trkpt><trkpt lat="45.8711131" lon="9.2573489"><ele>595.0</ele><time>2026-03-29T17:00:41.946Z</time></trkpt><trkpt lat="45.8709935" lon="9.2572357"><ele>595.0</ele><time>2026-03-29T17:00:42.945Z</time></trkpt><trkpt lat="45.8708418" lon="9.2571173"><ele>595.0</ele><time>2026-03-29T17:00:43.945Z</time></trkpt><trkpt lat="45.8707209" lon="9.2570163"><ele>593.5</ele><time>2026-03-29T17:00:44.946Z</time></trkpt><trkpt lat="45.8706107" lon="9.2569182"><ele>592.0</ele><time>2026-03-29T17:00:45.946Z</time></trkpt><trkpt lat="45.8705081" lon="9.2568144"><ele>590.5</ele><time>2026-03-29T17:00:46.945Z</time></trkpt><trkpt lat="45.8704487" lon="9.2566788"><ele>589.0</ele><time>2026-03-29T17:00:47.946Z</time></trkpt><trkpt lat="45.8703988" lon="9.2565527"><ele>590.6</ele><time>2026-03-29T17:00:48.946Z</time></trkpt><trkpt lat="45.870364" lon="9.2564371"><ele>592.2</ele><time>2026-03-29T17:00:49.946Z</time></trkpt><trkpt lat="45.8703181" lon="9.2563171"><ele>593.8000000000001</ele><time>2026-03-29T17:00:50.946Z</time></trkpt><trkpt lat="45.8702448" lon="9.2562226"><ele>595.4</ele><time>2026-03-29T17:00:52.946Z</time></trkpt><trkpt lat="45.8701526" lon="9.2563083"><ele>597.0</ele><time>2026-03-29T17:00:54.946Z</time></trkpt><trkpt lat="45.8701565" lon="9.2564068"><ele>595.4</ele><time>2026-03-29T17:00:55.945Z</time></trkpt><trkpt lat="45.8701926" lon="9.2565428"><ele>593.8000000000001</ele><time>2026-03-29T17:00:56.946Z</time></trkpt><trkpt lat="45.8702317" lon="9.2566878"><ele>592.2</ele><time>2026-03-29T17:00:57.945Z</time></trkpt><trkpt lat="45.8702662" lon="9.2568362"><ele>590.6</ele><time>2026-03-29T17:00:58.946Z</time></trkpt><trkpt lat="45.8703022" lon="9.2569977"><ele>589.0</ele><time>2026-03-29T17:00:59.946Z</time></trkpt><trkpt lat="45.8703328" lon="9.2571507"><ele>589.0</ele><time>2026-03-29T17:01:00.946Z</time></trkpt><trkpt lat="45.8703616" lon="9.2572836"><ele>589.0</ele><time>2026-03-29T17:01:01.945Z</time></trkpt><trkpt lat="45.870396" lon="9.2573959"><ele>589.0</ele><time>2026-03-29T17:01:02.945Z</time></trkpt><trkpt lat="45.8704227" lon="9.2574928"><ele>589.0</ele><time>2026-03-29T17:01:03.946Z</time></trkpt><trkpt lat="45.8704242" lon="9.2576413"><ele>589.0</ele><time>2026-03-29T17:01:05.946Z</time></trkpt><trkpt lat="45.8703417" lon="9.2576808"><ele>589.0</ele><time>2026-03-29T17:01:07.945Z</time></trkpt><trkpt lat="45.8702833" lon="9.2575369"><ele>589.0</ele><time>2026-03-29T17:01:09.946Z</time></trkpt><trkpt lat="45.8702574" lon="9.257411"><ele>589.0</ele><time>2026-03-29T17:01:10.945Z</time></trkpt><trkpt lat="45.8702236" lon="9.2572751"><ele>589.0</ele><time>2026-03-29T17:01:11.946Z</time></trkpt><trkpt lat="45.8701806" lon="9.2571508"><ele>589.0</ele><time>2026-03-29T17:01:12.945Z</time></trkpt><trkpt lat="45.8701293" lon="9.2570141"><ele>589.0</ele><time>2026-03-29T17:01:13.945Z</time></trkpt><trkpt lat="45.8700796" lon="9.2568687"><ele>585.2</ele><time>2026-03-29T17:01:14.945Z</time></trkpt><trkpt lat="45.8700205" lon="9.2567169"><ele>581.4</ele><time>2026-03-29T17:01:15.945Z</time></trkpt><trkpt lat="45.8699705" lon="9.2565659"><ele>577.6</ele><time>2026-03-29T17:01:16.946Z</time></trkpt><trkpt lat="45.8699348" lon="9.2564199"><ele>573.8</ele><time>2026-03-29T17:01:17.945Z</time></trkpt><trkpt lat="45.8699195" lon="9.2562812"><ele>570.0</ele><time>2026-03-29T17:01:18.945Z</time></trkpt><trkpt lat="45.8699134" lon="9.2561407"><ele>570.0</ele><time>2026-03-29T17:01:19.945Z</time></trkpt><trkpt lat="45.8699199" lon="9.2560118"><ele>570.0</ele><time>2026-03-29T17:01:20.946Z</time></trkpt><trkpt lat="45.8699324" lon="9.2558849"><ele>570.0</ele><time>2026-03-29T17:01:21.945Z</time></trkpt><trkpt lat="45.8699608" lon="9.2557774"><ele>570.0</ele><time>2026-03-29T17:01:22.945Z</time></trkpt><trkpt lat="45.8699705" lon="9.2556577"><ele>570.0</ele><time>2026-03-29T17:01:23.945Z</time></trkpt><trkpt lat="45.8699784" lon="9.2554863"><ele>570.0</ele><time>2026-03-29T17:01:25.944Z</time></trkpt><trkpt lat="45.8699378" lon="9.2553686"><ele>570.0</ele><time>2026-03-29T17:01:27.945Z</time></trkpt><trkpt lat="45.8698572" lon="9.2553506"><ele>570.0</ele><time>2026-03-29T17:01:55.945Z</time></trkpt><trkpt lat="45.8698017" lon="9.2555006"><ele>570.0</ele><time>2026-03-29T17:01:57.946Z</time></trkpt><trkpt lat="45.8697927" lon="9.2556393"><ele>570.0</ele><time>2026-03-29T17:01:58.946Z</time></trkpt><trkpt lat="45.8697918" lon="9.2557858"><ele>570.0</ele><time>2026-03-29T17:01:59.945Z</time></trkpt><trkpt lat="45.869786" lon="9.2559456"><ele>570.0</ele><time>2026-03-29T17:02:00.945Z</time></trkpt><trkpt lat="45.8697755" lon="9.2561305"><ele>570.0</ele><time>2026-03-29T17:02:01.945Z</time></trkpt><trkpt lat="45.8697649" lon="9.2563185"><ele>570.0</ele><time>2026-03-29T17:02:02.945Z</time></trkpt><trkpt lat="45.8697542" lon="9.2564991"><ele>569.25</ele><time>2026-03-29T17:02:03.945Z</time></trkpt><trkpt lat="45.8697297" lon="9.2566734"><ele>568.5</ele><time>2026-03-29T17:02:04.945Z</time></trkpt><trkpt lat="45.8696827" lon="9.2568294"><ele>567.75</ele><time>2026-03-29T17:02:05.946Z</time></trkpt><trkpt lat="45.8696263" lon="9.2569849"><ele>567.0</ele><time>2026-03-29T17:02:06.946Z</time></trkpt><trkpt lat="45.8695542" lon="9.257143"><ele>566.5</ele><time>2026-03-29T17:02:07.946Z</time></trkpt><trkpt lat="45.8694925" lon="9.2573211"><ele>566.0</ele><time>2026-03-29T17:02:08.945Z</time></trkpt><trkpt lat="45.8694538" lon="9.2575113"><ele>565.5</ele><time>2026-03-29T17:02:09.945Z</time></trkpt><trkpt lat="45.8694076" lon="9.2576875"><ele>565.0</ele><time>2026-03-29T17:02:10.946Z</time></trkpt><trkpt lat="45.8693457" lon="9.2578443"><ele>559.0</ele><time>2026-03-29T17:02:11.945Z</time></trkpt><trkpt lat="45.8692683" lon="9.2580037"><ele>553.0</ele><time>2026-03-29T17:02:12.945Z</time></trkpt><trkpt lat="45.8691839" lon="9.2581684"><ele>547.0</ele><time>2026-03-29T17:02:13.945Z</time></trkpt><trkpt lat="45.8691056" lon="9.2583258"><ele>541.0</ele><time>2026-03-29T17:02:14.945Z</time></trkpt><trkpt lat="45.8690282" lon="9.2584763"><ele>541.0</ele><time>2026-03-29T17:02:15.946Z</time></trkpt><trkpt lat="45.8689536" lon="9.2586122"><ele>541.0</ele><time>2026-03-29T17:02:16.946Z</time></trkpt><trkpt lat="45.8688882" lon="9.2587529"><ele>541.0</ele><time>2026-03-29T17:02:17.945Z</time></trkpt><trkpt lat="45.8688394" lon="9.2588994"><ele>541.0</ele><time>2026-03-29T17:02:18.946Z</time></trkpt><trkpt lat="45.8688114" lon="9.259049"><ele>541.75</ele><time>2026-03-29T17:02:19.946Z</time></trkpt><trkpt lat="45.8688113" lon="9.2592093"><ele>542.5</ele><time>2026-03-29T17:02:20.946Z</time></trkpt><trkpt lat="45.8688316" lon="9.259364"><ele>543.25</ele><time>2026-03-29T17:02:21.945Z</time></trkpt><trkpt lat="45.8688777" lon="9.2595164"><ele>544.0</ele><time>2026-03-29T17:02:22.945Z</time></trkpt><trkpt lat="45.8689549" lon="9.25967"><ele>545.3333333333334</ele><time>2026-03-29T17:02:23.946Z</time></trkpt><trkpt lat="45.8690626" lon="9.259821"><ele>546.6666666666666</ele><time>2026-03-29T17:02:24.946Z</time></trkpt><trkpt lat="45.8691776" lon="9.2599764"><ele>548.0</ele><time>2026-03-29T17:02:25.946Z</time></trkpt><trkpt lat="45.8692911" lon="9.2601228"><ele>548.0</ele><time>2026-03-29T17:02:26.945Z</time></trkpt><trkpt lat="45.869404" lon="9.260263"><ele>548.0</ele><time>2026-03-29T17:02:27.945Z</time></trkpt><trkpt lat="45.8695066" lon="9.2603996"><ele>548.0</ele><time>2026-03-29T17:02:28.945Z</time></trkpt><trkpt lat="45.8696039" lon="9.2605291"><ele>548.0</ele><time>2026-03-29T17:02:29.945Z</time></trkpt><trkpt lat="45.8697099" lon="9.2606556"><ele>542.75</ele><time>2026-03-29T17:02:30.946Z</time></trkpt><trkpt lat="45.8697877" lon="9.2607715"><ele>537.5</ele><time>2026-03-29T17:02:31.944Z</time></trkpt><trkpt lat="45.8698941" lon="9.2608477"><ele>532.25</ele><time>2026-03-29T17:02:32.945Z</time></trkpt><trkpt lat="45.8700234" lon="9.2609375"><ele>527.0</ele><time>2026-03-29T17:02:33.946Z</time></trkpt><trkpt lat="45.8702199" lon="9.2609511"><ele>527.0</ele><time>2026-03-29T17:02:34.946Z</time></trkpt><trkpt lat="45.8704004" lon="9.2609988"><ele>527.0</ele><time>2026-03-29T17:02:35.945Z</time></trkpt><trkpt lat="45.8705383" lon="9.2610414"><ele>527.0</ele><time>2026-03-29T17:02:36.946Z</time></trkpt><trkpt lat="45.8706554" lon="9.2610479"><ele>527.0</ele><time>2026-03-29T17:02:37.946Z</time></trkpt><trkpt lat="45.87077" lon="9.2610354"><ele>527.0</ele><time>2026-03-29T17:02:38.946Z</time></trkpt><trkpt lat="45.8708876" lon="9.2610237"><ele>527.0</ele><time>2026-03-29T17:02:39.946Z</time></trkpt><trkpt lat="45.871005" lon="9.260879"><ele>527.0</ele><time>2026-03-29T17:02:40.946Z</time></trkpt><trkpt lat="45.8711037" lon="9.2607666"><ele>527.0</ele><time>2026-03-29T17:02:41.945Z</time></trkpt><trkpt lat="45.8712347" lon="9.260603"><ele>527.3333333333333</ele><time>2026-03-29T17:02:42.946Z</time></trkpt><trkpt lat="45.8713505" lon="9.2604422"><ele>527.6666666666666</ele><time>2026-03-29T17:02:43.946Z</time></trkpt><trkpt lat="45.8714844" lon="9.2602978"><ele>528.0</ele><time>2026-03-29T17:02:44.945Z</time></trkpt><trkpt lat="45.8716526" lon="9.2601669"><ele>521.75</ele><time>2026-03-29T17:02:45.945Z</time></trkpt><trkpt lat="45.8717947" lon="9.2600568"><ele>515.5</ele><time>2026-03-29T17:02:46.946Z</time></trkpt><trkpt lat="45.8719213" lon="9.2599944"><ele>509.25</ele><time>2026-03-29T17:02:47.946Z</time></trkpt><trkpt lat="45.8720336" lon="9.2598988"><ele>503.0</ele><time>2026-03-29T17:02:48.946Z</time></trkpt><trkpt lat="45.8721368" lon="9.259819"><ele>503.0</ele><time>2026-03-29T17:02:49.945Z</time></trkpt><trkpt lat="45.8722532" lon="9.2597747"><ele>503.0</ele><time>2026-03-29T17:02:50.946Z</time></trkpt><trkpt lat="45.872369" lon="9.2597125"><ele>503.0</ele><time>2026-03-29T17:02:51.944Z</time></trkpt><trkpt lat="45.872528" lon="9.2597915"><ele>503.0</ele><time>2026-03-29T17:02:52.946Z</time></trkpt><trkpt lat="45.8726463" lon="9.259824"><ele>505.59999999999997</ele><time>2026-03-29T17:02:53.945Z</time></trkpt><trkpt lat="45.8727574" lon="9.2598508"><ele>508.19999999999993</ele><time>2026-03-29T17:02:54.945Z</time></trkpt><trkpt lat="45.8728643" lon="9.2599029"><ele>510.8</ele><time>2026-03-29T17:02:55.946Z</time></trkpt><trkpt lat="45.8729428" lon="9.2599826"><ele>513.4</ele><time>2026-03-29T17:02:56.945Z</time></trkpt><trkpt lat="45.8730037" lon="9.2600865"><ele>516.0</ele><time>2026-03-29T17:02:57.946Z</time></trkpt><trkpt lat="45.8730288" lon="9.2602107"><ele>516.0</ele><time>2026-03-29T17:02:58.945Z</time></trkpt><trkpt lat="45.873056" lon="9.2603253"><ele>516.0</ele><time>2026-03-29T17:02:59.945Z</time></trkpt><trkpt lat="45.8729854" lon="9.2604957"><ele>516.0</ele><time>2026-03-29T17:03:00.945Z</time></trkpt><trkpt lat="45.8729575" lon="9.2606469"><ele>516.0</ele><time>2026-03-29T17:03:01.945Z</time></trkpt><trkpt lat="45.8729109" lon="9.2608101"><ele>513.2</ele><time>2026-03-29T17:03:02.946Z</time></trkpt><trkpt lat="45.872852" lon="9.2609267"><ele>510.40000000000003</ele><time>2026-03-29T17:03:04.946Z</time></trkpt><trkpt lat="45.8728121" lon="9.2610087"><ele>507.6</ele><time>2026-03-29T17:03:05.945Z</time></trkpt><trkpt lat="45.8727534" lon="9.2610945"><ele>504.8</ele><time>2026-03-29T17:03:06.945Z</time></trkpt><trkpt lat="45.8726803" lon="9.2611837"><ele>502.0</ele><time>2026-03-29T17:03:07.945Z</time></trkpt><trkpt lat="45.8725865" lon="9.26127"><ele>503.6</ele><time>2026-03-29T17:03:08.946Z</time></trkpt><trkpt lat="45.8724853" lon="9.2613525"><ele>505.20000000000005</ele><time>2026-03-29T17:03:09.945Z</time></trkpt><trkpt lat="45.8723915" lon="9.2614124"><ele>506.8</ele><time>2026-03-29T17:03:10.946Z</time></trkpt><trkpt lat="45.8723166" lon="9.2614567"><ele>508.4</ele><time>2026-03-29T17:03:13.945Z</time></trkpt><trkpt lat="45.8722944" lon="9.2615431"><ele>510.0</ele><time>2026-03-29T17:04:24.946Z</time></trkpt><trkpt lat="45.872199" lon="9.2616455"><ele>510.0</ele><time>2026-03-29T17:04:26.946Z</time></trkpt><trkpt lat="45.8721391" lon="9.261702"><ele>510.00000000000006</ele><time>2026-03-29T17:04:27.944Z</time></trkpt><trkpt lat="45.8720777" lon="9.2617578"><ele>510.0</ele><time>2026-03-29T17:04:28.945Z</time></trkpt><trkpt lat="45.872023" lon="9.2618173"><ele>510.0</ele><time>2026-03-29T17:04:29.945Z</time></trkpt><trkpt lat="45.8719599" lon="9.261875"><ele>510.00000000000006</ele><time>2026-03-29T17:04:30.946Z</time></trkpt><trkpt lat="45.8718959" lon="9.2619362"><ele>510.0</ele><time>2026-03-29T17:04:31.946Z</time></trkpt><trkpt lat="45.8718291" lon="9.2620009"><ele>510.0</ele><time>2026-03-29T17:04:32.945Z</time></trkpt><trkpt lat="45.8717568" lon="9.262068"><ele>508.8</ele><time>2026-03-29T17:04:33.946Z</time></trkpt><trkpt lat="45.8716801" lon="9.2621426"><ele>507.6</ele><time>2026-03-29T17:04:34.946Z</time></trkpt><trkpt lat="45.8715964" lon="9.2622234"><ele>506.4</ele><time>2026-03-29T17:04:35.945Z</time></trkpt><trkpt lat="45.8715171" lon="9.2623032"><ele>505.2</ele><time>2026-03-29T17:04:36.946Z</time></trkpt><trkpt lat="45.8714426" lon="9.2623733"><ele>504.0</ele><time>2026-03-29T17:04:37.946Z</time></trkpt><trkpt lat="45.87137" lon="9.262442"><ele>504.0</ele><time>2026-03-29T17:04:38.945Z</time></trkpt><trkpt lat="45.8712917" lon="9.2625148"><ele>504.0</ele><time>2026-03-29T17:04:39.945Z</time></trkpt><trkpt lat="45.8712118" lon="9.2625839"><ele>504.0</ele><time>2026-03-29T17:04:40.944Z</time></trkpt><trkpt lat="45.8711294" lon="9.2626552"><ele>504.0</ele><time>2026-03-29T17:04:41.945Z</time></trkpt><trkpt lat="45.8710421" lon="9.2627208"><ele>504.0</ele><time>2026-03-29T17:04:42.946Z</time></trkpt><trkpt lat="45.8709492" lon="9.2627767"><ele>500.5</ele><time>2026-03-29T17:04:43.945Z</time></trkpt><trkpt lat="45.8708444" lon="9.2628111"><ele>497.0</ele><time>2026-03-29T17:04:44.946Z</time></trkpt><trkpt lat="45.8707287" lon="9.2628165"><ele>493.5</ele><time>2026-03-29T17:04:45.946Z</time></trkpt><trkpt lat="45.8706058" lon="9.2628065"><ele>490.0</ele><time>2026-03-29T17:04:46.945Z</time></trkpt><trkpt lat="45.8704924" lon="9.2627917"><ele>490.0</ele><time>2026-03-29T17:04:47.945Z</time></trkpt><trkpt lat="45.8703869" lon="9.2627705"><ele>490.0</ele><time>2026-03-29T17:04:48.944Z</time></trkpt><trkpt lat="45.8702865" lon="9.2627516"><ele>490.0</ele><time>2026-03-29T17:04:49.945Z</time></trkpt><trkpt lat="45.8701873" lon="9.2627357"><ele>490.0</ele><time>2026-03-29T17:04:50.945Z</time></trkpt><trkpt lat="45.8700813" lon="9.2627244"><ele>490.0</ele><time>2026-03-29T17:04:51.944Z</time></trkpt><trkpt lat="45.8699669" lon="9.2627298"><ele>488.0</ele><time>2026-03-29T17:04:52.946Z</time></trkpt><trkpt lat="45.8698447" lon="9.2627684"><ele>486.0</ele><time>2026-03-29T17:04:53.945Z</time></trkpt><trkpt lat="45.8697385" lon="9.2628412"><ele>484.0</ele><time>2026-03-29T17:04:54.946Z</time></trkpt><trkpt lat="45.8696485" lon="9.2629419"><ele>482.0</ele><time>2026-03-29T17:04:55.944Z</time></trkpt><trkpt lat="45.8695828" lon="9.2630814"><ele>487.25</ele><time>2026-03-29T17:04:56.945Z</time></trkpt><trkpt lat="45.8695375" lon="9.2632524"><ele>492.5</ele><time>2026-03-29T17:04:57.946Z</time></trkpt><trkpt lat="45.8695027" lon="9.2634219"><ele>497.75</ele><time>2026-03-29T17:04:58.945Z</time></trkpt><trkpt lat="45.8694985" lon="9.2636095"><ele>503.0</ele><time>2026-03-29T17:04:59.946Z</time></trkpt><trkpt lat="45.8694733" lon="9.2637688"><ele>503.0</ele><time>2026-03-29T17:05:00.945Z</time></trkpt><trkpt lat="45.8694243" lon="9.2639159"><ele>503.0</ele><time>2026-03-29T17:05:01.944Z</time></trkpt><trkpt lat="45.8693588" lon="9.2640637"><ele>503.0</ele><time>2026-03-29T17:05:02.946Z</time></trkpt><trkpt lat="45.8692744" lon="9.2642125"><ele>503.0</ele><time>2026-03-29T17:05:03.945Z</time></trkpt><trkpt lat="45.8691823" lon="9.2643671"><ele>502.0</ele><time>2026-03-29T17:05:04.945Z</time></trkpt><trkpt lat="45.8690975" lon="9.2645167"><ele>501.0</ele><time>2026-03-29T17:05:05.946Z</time></trkpt><trkpt lat="45.8690135" lon="9.2646517"><ele>500.0</ele><time>2026-03-29T17:05:06.946Z</time></trkpt><trkpt lat="45.8689454" lon="9.2647889"><ele>499.0</ele><time>2026-03-29T17:05:07.945Z</time></trkpt><trkpt lat="45.8688784" lon="9.2649222"><ele>499.0</ele><time>2026-03-29T17:05:08.945Z</time></trkpt><trkpt lat="45.8687977" lon="9.2650457"><ele>499.0</ele><time>2026-03-29T17:05:09.946Z</time></trkpt><trkpt lat="45.8686928" lon="9.2651427"><ele>499.0</ele><time>2026-03-29T17:05:10.945Z</time></trkpt><trkpt lat="45.8685685" lon="9.2652074"><ele>499.0</ele><time>2026-03-29T17:05:11.946Z</time></trkpt><trkpt lat="45.8684302" lon="9.2652663"><ele>494.75</ele><time>2026-03-29T17:05:12.946Z</time></trkpt><trkpt lat="45.8682798" lon="9.2653184"><ele>490.5</ele><time>2026-03-29T17:05:13.946Z</time></trkpt><trkpt lat="45.8681418" lon="9.2653624"><ele>486.25</ele><time>2026-03-29T17:05:14.946Z</time></trkpt><trkpt lat="45.8680157" lon="9.2654076"><ele>482.0</ele><time>2026-03-29T17:05:15.946Z</time></trkpt><trkpt lat="45.8678956" lon="9.2654483"><ele>482.0</ele><time>2026-03-29T17:05:16.946Z</time></trkpt><trkpt lat="45.8677819" lon="9.2654922"><ele>482.0</ele><time>2026-03-29T17:05:17.946Z</time></trkpt><trkpt lat="45.8676587" lon="9.2655313"><ele>482.0</ele><time>2026-03-29T17:05:18.946Z</time></trkpt><trkpt lat="45.8675354" lon="9.2655805"><ele>482.0</ele><time>2026-03-29T17:05:19.945Z</time></trkpt><trkpt lat="45.8674116" lon="9.2656445"><ele>483.5</ele><time>2026-03-29T17:05:20.945Z</time></trkpt><trkpt lat="45.8672927" lon="9.2657346"><ele>485.0</ele><time>2026-03-29T17:05:21.945Z</time></trkpt><trkpt lat="45.8671801" lon="9.2658377"><ele>486.5</ele><time>2026-03-29T17:05:22.945Z</time></trkpt><trkpt lat="45.8670708" lon="9.2659553"><ele>488.0</ele><time>2026-03-29T17:05:23.945Z</time></trkpt><trkpt lat="45.8669714" lon="9.2660903"><ele>488.0</ele><time>2026-03-29T17:05:24.945Z</time></trkpt><trkpt lat="45.866878" lon="9.2662411"><ele>488.0</ele><time>2026-03-29T17:05:25.946Z</time></trkpt><trkpt lat="45.8667895" lon="9.2664162"><ele>488.0</ele><time>2026-03-29T17:05:26.946Z</time></trkpt><trkpt lat="45.8667035" lon="9.2665831"><ele>488.0</ele><time>2026-03-29T17:05:27.946Z</time></trkpt><trkpt lat="45.8666185" lon="9.2667505"><ele>487.5</ele><time>2026-03-29T17:05:28.946Z</time></trkpt><trkpt lat="45.8665238" lon="9.2669054"><ele>487.0</ele><time>2026-03-29T17:05:29.946Z</time></trkpt><trkpt lat="45.8664376" lon="9.2670667"><ele>486.5</ele><time>2026-03-29T17:05:30.946Z</time></trkpt><trkpt lat="45.8663463" lon="9.2672348"><ele>486.0</ele><time>2026-03-29T17:05:31.946Z</time></trkpt><trkpt lat="45.8662542" lon="9.2674009"><ele>487.75</ele><time>2026-03-29T17:05:32.946Z</time></trkpt><trkpt lat="45.8661654" lon="9.2675607"><ele>489.5</ele><time>2026-03-29T17:05:33.947Z</time></trkpt><trkpt lat="45.8660794" lon="9.2677193"><ele>491.25</ele><time>2026-03-29T17:05:34.945Z</time></trkpt><trkpt lat="45.8659989" lon="9.2678714"><ele>493.0</ele><time>2026-03-29T17:05:35.946Z</time></trkpt><trkpt lat="45.8659284" lon="9.2680319"><ele>490.5</ele><time>2026-03-29T17:05:36.945Z</time></trkpt><trkpt lat="45.8658709" lon="9.2682003"><ele>488.0</ele><time>2026-03-29T17:05:37.946Z</time></trkpt><trkpt lat="45.865813" lon="9.2683841"><ele>485.5</ele><time>2026-03-29T17:05:38.946Z</time></trkpt><trkpt lat="45.8657641" lon="9.268541"><ele>483.0</ele><time>2026-03-29T17:05:39.945Z</time></trkpt><trkpt lat="45.8656997" lon="9.2687529"><ele>485.5</ele><time>2026-03-29T17:05:40.945Z</time></trkpt><trkpt lat="45.8656391" lon="9.2689504"><ele>488.0</ele><time>2026-03-29T17:05:41.945Z</time></trkpt><trkpt lat="45.8655768" lon="9.2691446"><ele>490.5</ele><time>2026-03-29T17:05:42.944Z</time></trkpt><trkpt lat="45.8655188" lon="9.2693391"><ele>493.0</ele><time>2026-03-29T17:05:43.946Z</time></trkpt><trkpt lat="45.8654569" lon="9.2695312"><ele>493.0</ele><time>2026-03-29T17:05:44.946Z</time></trkpt><trkpt lat="45.8653975" lon="9.2697196"><ele>493.0</ele><time>2026-03-29T17:05:45.946Z</time></trkpt><trkpt lat="45.8653384" lon="9.2699113"><ele>493.0</ele><time>2026-03-29T17:05:46.946Z</time></trkpt><trkpt lat="45.865283" lon="9.2700907"><ele>493.0</ele><time>2026-03-29T17:05:47.946Z</time></trkpt><trkpt lat="45.8652221" lon="9.270304"><ele>490.33333333333337</ele><time>2026-03-29T17:05:48.946Z</time></trkpt><trkpt lat="45.8651599" lon="9.2705033"><ele>487.66666666666663</ele><time>2026-03-29T17:05:49.946Z</time></trkpt><trkpt lat="45.8650965" lon="9.2707082"><ele>485.0</ele><time>2026-03-29T17:05:50.944Z</time></trkpt><trkpt lat="45.8650299" lon="9.2709154"><ele>485.0</ele><time>2026-03-29T17:05:51.945Z</time></trkpt><trkpt lat="45.8649639" lon="9.2711264"><ele>485.0</ele><time>2026-03-29T17:05:52.946Z</time></trkpt><trkpt lat="45.8649098" lon="9.2713104"><ele>485.0</ele><time>2026-03-29T17:05:53.945Z</time></trkpt><trkpt lat="45.8648536" lon="9.2715064"><ele>485.0</ele><time>2026-03-29T17:05:54.944Z</time></trkpt><trkpt lat="45.8647829" lon="9.2717266"><ele>487.2</ele><time>2026-03-29T17:05:55.944Z</time></trkpt><trkpt lat="45.864731" lon="9.2718497"><ele>489.4</ele><time>2026-03-29T17:05:56.945Z</time></trkpt><trkpt lat="45.8646917" lon="9.2719975"><ele>491.6</ele><time>2026-03-29T17:05:57.946Z</time></trkpt><trkpt lat="45.8646461" lon="9.2721472"><ele>493.8</ele><time>2026-03-29T17:05:58.946Z</time></trkpt><trkpt lat="45.8645917" lon="9.2723062"><ele>496.0</ele><time>2026-03-29T17:05:59.945Z</time></trkpt><trkpt lat="45.8645482" lon="9.2724622"><ele>499.25</ele><time>2026-03-29T17:06:00.945Z</time></trkpt><trkpt lat="45.8644987" lon="9.2726283"><ele>502.5</ele><time>2026-03-29T17:06:01.946Z</time></trkpt><trkpt lat="45.8644446" lon="9.2727951"><ele>505.75</ele><time>2026-03-29T17:06:02.945Z</time></trkpt><trkpt lat="45.864397" lon="9.2729662"><ele>509.0</ele><time>2026-03-29T17:06:03.945Z</time></trkpt><trkpt lat="45.8643533" lon="9.2731395"><ele>514.75</ele><time>2026-03-29T17:06:04.945Z</time></trkpt><trkpt lat="45.864315" lon="9.2733219"><ele>520.5</ele><time>2026-03-29T17:06:05.946Z</time></trkpt><trkpt lat="45.8642787" lon="9.2735115"><ele>526.25</ele><time>2026-03-29T17:06:06.945Z</time></trkpt><trkpt lat="45.8642462" lon="9.2737038"><ele>532.0</ele><time>2026-03-29T17:06:07.945Z</time></trkpt><trkpt lat="45.8642173" lon="9.2738872"><ele>515.5</ele><time>2026-03-29T17:06:08.946Z</time></trkpt><trkpt lat="45.8641858" lon="9.2740661"><ele>499.0</ele><time>2026-03-29T17:06:09.946Z</time></trkpt><trkpt lat="45.8641603" lon="9.2742423"><ele>482.5</ele><time>2026-03-29T17:06:10.945Z</time></trkpt><trkpt lat="45.8641347" lon="9.2744151"><ele>466.0</ele><time>2026-03-29T17:06:11.945Z</time></trkpt><trkpt lat="45.8641091" lon="9.2745837"><ele>466.0</ele><time>2026-03-29T17:06:12.945Z</time></trkpt><trkpt lat="45.8640813" lon="9.2747443"><ele>466.0</ele><time>2026-03-29T17:06:13.945Z</time></trkpt><trkpt lat="45.8640468" lon="9.2748956"><ele>466.0</ele><time>2026-03-29T17:06:14.946Z</time></trkpt><trkpt lat="45.8640008" lon="9.2750476"><ele>466.0</ele><time>2026-03-29T17:06:15.946Z</time></trkpt><trkpt lat="45.8639469" lon="9.2751932"><ele>468.0</ele><time>2026-03-29T17:06:16.946Z</time></trkpt><trkpt lat="45.8638793" lon="9.275335"><ele>470.0</ele><time>2026-03-29T17:06:17.946Z</time></trkpt><trkpt lat="45.8638006" lon="9.275466"><ele>472.0</ele><time>2026-03-29T17:06:18.945Z</time></trkpt><trkpt lat="45.8637124" lon="9.2755859"><ele>474.0</ele><time>2026-03-29T17:06:19.946Z</time></trkpt><trkpt lat="45.8636136" lon="9.2756934"><ele>476.25</ele><time>2026-03-29T17:06:20.945Z</time></trkpt><trkpt lat="45.8635098" lon="9.275781"><ele>478.5</ele><time>2026-03-29T17:06:21.946Z</time></trkpt><trkpt lat="45.8633953" lon="9.2758438"><ele>480.75</ele><time>2026-03-29T17:06:22.946Z</time></trkpt><trkpt lat="45.8632766" lon="9.2758904"><ele>483.0</ele><time>2026-03-29T17:06:23.946Z</time></trkpt><trkpt lat="45.8631518" lon="9.275921"><ele>474.25</ele><time>2026-03-29T17:06:24.945Z</time></trkpt><trkpt lat="45.8630279" lon="9.2759297"><ele>465.5</ele><time>2026-03-29T17:06:25.946Z</time></trkpt><trkpt lat="45.8629073" lon="9.2759183"><ele>456.75</ele><time>2026-03-29T17:06:26.946Z</time></trkpt><trkpt lat="45.8627853" lon="9.2758892"><ele>448.0</ele><time>2026-03-29T17:06:27.946Z</time></trkpt><trkpt lat="45.8626647" lon="9.2758401"><ele>446.0</ele><time>2026-03-29T17:06:28.946Z</time></trkpt><trkpt lat="45.8625465" lon="9.275772"><ele>444.0</ele><time>2026-03-29T17:06:29.945Z</time></trkpt><trkpt lat="45.862436" lon="9.2756831"><ele>442.0</ele><time>2026-03-29T17:06:30.946Z</time></trkpt><trkpt lat="45.8623336" lon="9.275574"><ele>440.0</ele><time>2026-03-29T17:06:31.945Z</time></trkpt><trkpt lat="45.8622477" lon="9.2754557"><ele>438.0</ele><time>2026-03-29T17:06:32.946Z</time></trkpt><trkpt lat="45.8621728" lon="9.2753241"><ele>436.0</ele><time>2026-03-29T17:06:33.945Z</time></trkpt><trkpt lat="45.8621008" lon="9.275182"><ele>434.0</ele><time>2026-03-29T17:06:34.946Z</time></trkpt><trkpt lat="45.8620426" lon="9.2750287"><ele>432.0</ele><time>2026-03-29T17:06:35.945Z</time></trkpt><trkpt lat="45.8619972" lon="9.2748628"><ele>431.25</ele><time>2026-03-29T17:06:36.945Z</time></trkpt><trkpt lat="45.8619654" lon="9.2746888"><ele>430.5</ele><time>2026-03-29T17:06:37.946Z</time></trkpt><trkpt lat="45.8619462" lon="9.2745041"><ele>429.75</ele><time>2026-03-29T17:06:38.945Z</time></trkpt><trkpt lat="45.8619375" lon="9.2743092"><ele>429.0</ele><time>2026-03-29T17:06:39.945Z</time></trkpt><trkpt lat="45.8619356" lon="9.2741082"><ele>427.75</ele><time>2026-03-29T17:06:40.945Z</time></trkpt><trkpt lat="45.8619344" lon="9.273898"><ele>426.5</ele><time>2026-03-29T17:06:41.946Z</time></trkpt><trkpt lat="45.8619336" lon="9.2736883"><ele>425.25</ele><time>2026-03-29T17:06:42.945Z</time></trkpt><trkpt lat="45.8619281" lon="9.2734757"><ele>424.0</ele><time>2026-03-29T17:06:43.946Z</time></trkpt><trkpt lat="45.8619249" lon="9.2732645"><ele>423.0</ele><time>2026-03-29T17:06:44.944Z</time></trkpt><trkpt lat="45.8619212" lon="9.2730467"><ele>422.0</ele><time>2026-03-29T17:06:45.946Z</time></trkpt><trkpt lat="45.8619183" lon="9.2728289"><ele>421.0</ele><time>2026-03-29T17:06:46.946Z</time></trkpt><trkpt lat="45.861915" lon="9.2726213"><ele>420.0</ele><time>2026-03-29T17:06:47.946Z</time></trkpt><trkpt lat="45.8619106" lon="9.2724179"><ele>421.5</ele><time>2026-03-29T17:06:48.945Z</time></trkpt><trkpt lat="45.8619048" lon="9.272208"><ele>423.0</ele><time>2026-03-29T17:06:49.945Z</time></trkpt><trkpt lat="45.86189" lon="9.2719954"><ele>424.5</ele><time>2026-03-29T17:06:50.946Z</time></trkpt><trkpt lat="45.8618694" lon="9.2717795"><ele>426.0</ele><time>2026-03-29T17:06:51.946Z</time></trkpt><trkpt lat="45.8618466" lon="9.2715717"><ele>427.0</ele><time>2026-03-29T17:06:52.946Z</time></trkpt><trkpt lat="45.8618215" lon="9.2713704"><ele>428.0</ele><time>2026-03-29T17:06:53.945Z</time></trkpt><trkpt lat="45.8617964" lon="9.2711777"><ele>429.0</ele><time>2026-03-29T17:06:54.946Z</time></trkpt><trkpt lat="45.8617705" lon="9.2709977"><ele>430.0</ele><time>2026-03-29T17:06:55.946Z</time></trkpt><trkpt lat="45.8617486" lon="9.2708199"><ele>428.4</ele><time>2026-03-29T17:06:56.944Z</time></trkpt><trkpt lat="45.8617254" lon="9.270649"><ele>426.8</ele><time>2026-03-29T17:06:57.946Z</time></trkpt><trkpt lat="45.8617054" lon="9.270484"><ele>425.20000000000005</ele><time>2026-03-29T17:06:58.945Z</time></trkpt><trkpt lat="45.8616982" lon="9.2703349"><ele>423.6</ele><time>2026-03-29T17:06:59.946Z</time></trkpt><trkpt lat="45.8616886" lon="9.2702033"><ele>422.0</ele><time>2026-03-29T17:07:00.945Z</time></trkpt><trkpt lat="45.8616849" lon="9.2700927"><ele>421.66666666666663</ele><time>2026-03-29T17:07:01.945Z</time></trkpt><trkpt lat="45.8616875" lon="9.2699928"><ele>421.3333333333333</ele><time>2026-03-29T17:07:02.946Z</time></trkpt><trkpt lat="45.8617014" lon="9.2699037"><ele>421.0</ele><time>2026-03-29T17:07:03.946Z</time></trkpt><trkpt lat="45.8616845" lon="9.2697389"><ele>420.66666666666663</ele><time>2026-03-29T17:07:05.946Z</time></trkpt><trkpt lat="45.8616352" lon="9.2696657"><ele>420.3333333333333</ele><time>2026-03-29T17:07:06.945Z</time></trkpt><trkpt lat="45.8615504" lon="9.2696081"><ele>420.0</ele><time>2026-03-29T17:07:07.946Z</time></trkpt><trkpt lat="45.8614613" lon="9.2695772"><ele>418.8</ele><time>2026-03-29T17:07:08.946Z</time></trkpt><trkpt lat="45.8613738" lon="9.2695549"><ele>417.6</ele><time>2026-03-29T17:07:09.944Z</time></trkpt><trkpt lat="45.8612779" lon="9.2695357"><ele>416.4</ele><time>2026-03-29T17:07:10.946Z</time></trkpt><trkpt lat="45.8611714" lon="9.2695063"><ele>415.2</ele><time>2026-03-29T17:07:11.946Z</time></trkpt><trkpt lat="45.8610622" lon="9.2694663"><ele>414.0</ele><time>2026-03-29T17:07:12.944Z</time></trkpt><trkpt lat="45.8609634" lon="9.2694149"><ele>413.4</ele><time>2026-03-29T17:07:13.946Z</time></trkpt><trkpt lat="45.8608652" lon="9.269378"><ele>412.79999999999995</ele><time>2026-03-29T17:07:14.946Z</time></trkpt><trkpt lat="45.8607667" lon="9.2693574"><ele>412.20000000000005</ele><time>2026-03-29T17:07:15.945Z</time></trkpt><trkpt lat="45.8606682" lon="9.2693443"><ele>411.6</ele><time>2026-03-29T17:07:16.945Z</time></trkpt><trkpt lat="45.8605705" lon="9.2693442"><ele>411.0</ele><time>2026-03-29T17:07:17.945Z</time></trkpt><trkpt lat="45.8604863" lon="9.269349"><ele>411.0</ele><time>2026-03-29T17:07:18.945Z</time></trkpt><trkpt lat="45.8604116" lon="9.2693158"><ele>411.0</ele><time>2026-03-29T17:07:19.946Z</time></trkpt><trkpt lat="45.8603555" lon="9.2692496"><ele>411.0</ele><time>2026-03-29T17:07:20.945Z</time></trkpt><trkpt lat="45.8603232" lon="9.2691446"><ele>411.0</ele><time>2026-03-29T17:07:21.945Z</time></trkpt><trkpt lat="45.8602981" lon="9.2690184"><ele>411.0</ele><time>2026-03-29T17:07:22.945Z</time></trkpt><trkpt lat="45.8602631" lon="9.2688989"><ele>411.0</ele><time>2026-03-29T17:07:23.945Z</time></trkpt><trkpt lat="45.8602095" lon="9.2688037"><ele>410.8</ele><time>2026-03-29T17:07:24.945Z</time></trkpt><trkpt lat="45.8601364" lon="9.2687466"><ele>410.6</ele><time>2026-03-29T17:07:25.946Z</time></trkpt><trkpt lat="45.8600597" lon="9.2687307"><ele>410.4</ele><time>2026-03-29T17:07:26.946Z</time></trkpt><trkpt lat="45.8599794" lon="9.2687729"><ele>410.2</ele><time>2026-03-29T17:07:27.944Z</time></trkpt><trkpt lat="45.8599001" lon="9.2688664"><ele>410.0</ele><time>2026-03-29T17:07:28.946Z</time></trkpt><trkpt lat="45.8598266" lon="9.2689915"><ele>410.0</ele><time>2026-03-29T17:07:29.945Z</time></trkpt><trkpt lat="45.8597399" lon="9.2691168"><ele>410.0</ele><time>2026-03-29T17:07:30.945Z</time></trkpt><trkpt lat="45.8596487" lon="9.2692273"><ele>410.0</ele><time>2026-03-29T17:07:31.946Z</time></trkpt><trkpt lat="45.8595463" lon="9.2693164"><ele>410.0</ele><time>2026-03-29T17:07:32.945Z</time></trkpt><trkpt lat="45.8594406" lon="9.2693996"><ele>410.0</ele><time>2026-03-29T17:07:33.946Z</time></trkpt><trkpt lat="45.8593306" lon="9.2694781"><ele>410.0</ele><time>2026-03-29T17:07:34.946Z</time></trkpt><trkpt lat="45.8592169" lon="9.269553"><ele>410.0</ele><time>2026-03-29T17:07:35.944Z</time></trkpt><trkpt lat="45.8591031" lon="9.2696241"><ele>410.0</ele><time>2026-03-29T17:07:36.945Z</time></trkpt><trkpt lat="45.8589832" lon="9.2696825"><ele>407.75</ele><time>2026-03-29T17:07:37.944Z</time></trkpt><trkpt lat="45.8588591" lon="9.2697222"><ele>405.5</ele><time>2026-03-29T17:07:38.946Z</time></trkpt><trkpt lat="45.8587312" lon="9.2697305"><ele>403.25</ele><time>2026-03-29T17:07:39.945Z</time></trkpt><trkpt lat="45.8586008" lon="9.269716"><ele>401.0</ele><time>2026-03-29T17:07:40.946Z</time></trkpt><trkpt lat="45.8584652" lon="9.2696913"><ele>399.5</ele><time>2026-03-29T17:07:41.945Z</time></trkpt><trkpt lat="45.8583337" lon="9.269659"><ele>398.0</ele><time>2026-03-29T17:07:42.945Z</time></trkpt><trkpt lat="45.8582048" lon="9.269635"><ele>396.5</ele><time>2026-03-29T17:07:43.945Z</time></trkpt><trkpt lat="45.8580721" lon="9.269628"><ele>395.0</ele><time>2026-03-29T17:07:44.945Z</time></trkpt><trkpt lat="45.8579429" lon="9.269632"><ele>395.0</ele><time>2026-03-29T17:07:45.946Z</time></trkpt><trkpt lat="45.8578166" lon="9.2696489"><ele>395.0</ele><time>2026-03-29T17:07:46.946Z</time></trkpt><trkpt lat="45.8576855" lon="9.2696727"><ele>395.0</ele><time>2026-03-29T17:07:47.946Z</time></trkpt><trkpt lat="45.8575565" lon="9.2696997"><ele>395.0</ele><time>2026-03-29T17:07:48.945Z</time></trkpt><trkpt lat="45.8574271" lon="9.2697313"><ele>394.5</ele><time>2026-03-29T17:07:49.946Z</time></trkpt><trkpt lat="45.8573001" lon="9.2697604"><ele>394.0</ele><time>2026-03-29T17:07:50.945Z</time></trkpt><trkpt lat="45.8571757" lon="9.2697835"><ele>393.5</ele><time>2026-03-29T17:07:51.945Z</time></trkpt><trkpt lat="45.8570552" lon="9.2697893"><ele>393.0</ele><time>2026-03-29T17:07:52.945Z</time></trkpt><trkpt lat="45.8569385" lon="9.2697794"><ele>393.0</ele><time>2026-03-29T17:07:53.945Z</time></trkpt><trkpt lat="45.85682" lon="9.2697465"><ele>393.0</ele><time>2026-03-29T17:07:54.945Z</time></trkpt><trkpt lat="45.8566921" lon="9.2696966"><ele>393.0</ele><time>2026-03-29T17:07:55.945Z</time></trkpt><trkpt lat="45.8565515" lon="9.269644"><ele>393.0</ele><time>2026-03-29T17:07:56.945Z</time></trkpt><trkpt lat="45.8564198" lon="9.2695913"><ele>392.25</ele><time>2026-03-29T17:07:57.946Z</time></trkpt><trkpt lat="45.8562987" lon="9.2695398"><ele>391.5</ele><time>2026-03-29T17:07:58.946Z</time></trkpt><trkpt lat="45.8561815" lon="9.2694962"><ele>390.75</ele><time>2026-03-29T17:07:59.946Z</time></trkpt><trkpt lat="45.8560601" lon="9.2694616"><ele>390.0</ele><time>2026-03-29T17:08:00.946Z</time></trkpt><trkpt lat="45.8559342" lon="9.2694298"><ele>389.25</ele><time>2026-03-29T17:08:01.945Z</time></trkpt><trkpt lat="45.8558058" lon="9.2694065"><ele>388.5</ele><time>2026-03-29T17:08:02.945Z</time></trkpt><trkpt lat="45.8556829" lon="9.2693873"><ele>387.75</ele><time>2026-03-29T17:08:03.946Z</time></trkpt><trkpt lat="45.8555627" lon="9.2693666"><ele>387.0</ele><time>2026-03-29T17:08:04.945Z</time></trkpt><trkpt lat="45.85545" lon="9.2693665"><ele>387.0</ele><time>2026-03-29T17:08:05.945Z</time></trkpt><trkpt lat="45.8553388" lon="9.2693953"><ele>387.0</ele><time>2026-03-29T17:08:06.945Z</time></trkpt><trkpt lat="45.8552315" lon="9.2694524"><ele>387.0</ele><time>2026-03-29T17:08:07.946Z</time></trkpt><trkpt lat="45.8551419" lon="9.2695374"><ele>387.0</ele><time>2026-03-29T17:08:08.945Z</time></trkpt><trkpt lat="45.8550704" lon="9.2696558"><ele>387.0</ele><time>2026-03-29T17:08:09.945Z</time></trkpt><trkpt lat="45.8550077" lon="9.2698"><ele>387.25</ele><time>2026-03-29T17:08:10.946Z</time></trkpt><trkpt lat="45.8549467" lon="9.2699642"><ele>387.5</ele><time>2026-03-29T17:08:11.945Z</time></trkpt><trkpt lat="45.8548833" lon="9.2701429"><ele>387.75</ele><time>2026-03-29T17:08:12.946Z</time></trkpt><trkpt lat="45.854819" lon="9.270327"><ele>388.0</ele><time>2026-03-29T17:08:13.944Z</time></trkpt><trkpt lat="45.8547557" lon="9.2704964"><ele>389.0</ele><time>2026-03-29T17:08:14.946Z</time></trkpt><trkpt lat="45.8546974" lon="9.2706613"><ele>390.0</ele><time>2026-03-29T17:08:15.945Z</time></trkpt><trkpt lat="45.8546397" lon="9.2708119"><ele>391.0</ele><time>2026-03-29T17:08:16.944Z</time></trkpt><trkpt lat="45.8545685" lon="9.2709556"><ele>392.0</ele><time>2026-03-29T17:08:17.945Z</time></trkpt><trkpt lat="45.8544891" lon="9.271098"><ele>392.0</ele><time>2026-03-29T17:08:18.945Z</time></trkpt><trkpt lat="45.8544055" lon="9.2712344"><ele>392.0</ele><time>2026-03-29T17:08:19.944Z</time></trkpt><trkpt lat="45.8543191" lon="9.2713641"><ele>392.0</ele><time>2026-03-29T17:08:20.943Z</time></trkpt><trkpt lat="45.8542248" lon="9.2714843"><ele>392.0</ele><time>2026-03-29T17:08:21.945Z</time></trkpt><trkpt lat="45.854116" lon="9.2715914"><ele>390.75</ele><time>2026-03-29T17:08:22.945Z</time></trkpt><trkpt lat="45.853997" lon="9.2716834"><ele>389.5</ele><time>2026-03-29T17:08:23.945Z</time></trkpt><trkpt lat="45.8538777" lon="9.2717714"><ele>388.25</ele><time>2026-03-29T17:08:24.944Z</time></trkpt><trkpt lat="45.8537638" lon="9.2718533"><ele>387.0</ele><time>2026-03-29T17:08:25.945Z</time></trkpt><trkpt lat="45.853662" lon="9.2719317"><ele>387.0</ele><time>2026-03-29T17:08:26.944Z</time></trkpt><trkpt lat="45.8535664" lon="9.2720007"><ele>387.0</ele><time>2026-03-29T17:08:27.944Z</time></trkpt><trkpt lat="45.8534796" lon="9.2720434"><ele>387.0</ele><time>2026-03-29T17:08:28.943Z</time></trkpt><trkpt lat="45.8533926" lon="9.272048"><ele>387.0</ele><time>2026-03-29T17:08:29.944Z</time></trkpt><trkpt lat="45.8533081" lon="9.272029"><ele>387.0</ele><time>2026-03-29T17:08:30.945Z</time></trkpt><trkpt lat="45.8532305" lon="9.2719773"><ele>387.6</ele><time>2026-03-29T17:08:31.944Z</time></trkpt><trkpt lat="45.8531666" lon="9.2718923"><ele>388.20000000000005</ele><time>2026-03-29T17:08:32.944Z</time></trkpt><trkpt lat="45.8531214" lon="9.2717863"><ele>388.8</ele><time>2026-03-29T17:08:33.944Z</time></trkpt><trkpt lat="45.8530953" lon="9.2716565"><ele>389.4</ele><time>2026-03-29T17:08:34.944Z</time></trkpt><trkpt lat="45.8530841" lon="9.271508"><ele>390.0</ele><time>2026-03-29T17:08:35.944Z</time></trkpt><trkpt lat="45.8530844" lon="9.2713409"><ele>390.2</ele><time>2026-03-29T17:08:36.945Z</time></trkpt><trkpt lat="45.8530959" lon="9.2711727"><ele>390.4</ele><time>2026-03-29T17:08:37.943Z</time></trkpt><trkpt lat="45.8531153" lon="9.2710144"><ele>390.6</ele><time>2026-03-29T17:08:38.944Z</time></trkpt><trkpt lat="45.8531397" lon="9.2708602"><ele>390.8</ele><time>2026-03-29T17:08:39.944Z</time></trkpt><trkpt lat="45.853166" lon="9.2707101"><ele>391.0</ele><time>2026-03-29T17:08:40.945Z</time></trkpt><trkpt lat="45.853195" lon="9.2705688"><ele>391.0</ele><time>2026-03-29T17:08:41.945Z</time></trkpt><trkpt lat="45.853223" lon="9.2704277"><ele>391.0</ele><time>2026-03-29T17:08:42.945Z</time></trkpt><trkpt lat="45.8532504" lon="9.2702754"><ele>391.0</ele><time>2026-03-29T17:08:43.944Z</time></trkpt><trkpt lat="45.8532632" lon="9.2701386"><ele>391.0</ele><time>2026-03-29T17:08:44.944Z</time></trkpt><trkpt lat="45.8532744" lon="9.269985"><ele>391.0</ele><time>2026-03-29T17:08:45.944Z</time></trkpt><trkpt lat="45.8532717" lon="9.2698275"><ele>389.75</ele><time>2026-03-29T17:08:46.945Z</time></trkpt><trkpt lat="45.8532635" lon="9.2696663"><ele>388.5</ele><time>2026-03-29T17:08:47.943Z</time></trkpt><trkpt lat="45.8532459" lon="9.2694923"><ele>387.25</ele><time>2026-03-29T17:08:48.945Z</time></trkpt><trkpt lat="45.8532183" lon="9.2693031"><ele>386.0</ele><time>2026-03-29T17:08:49.945Z</time></trkpt><trkpt lat="45.8531745" lon="9.2691119"><ele>385.5</ele><time>2026-03-29T17:08:50.945Z</time></trkpt><trkpt lat="45.8531188" lon="9.2689336"><ele>385.0</ele><time>2026-03-29T17:08:51.943Z</time></trkpt><trkpt lat="45.853051" lon="9.2687657"><ele>384.5</ele><time>2026-03-29T17:08:52.945Z</time></trkpt><trkpt lat="45.8529773" lon="9.2686005"><ele>384.0</ele><time>2026-03-29T17:08:53.944Z</time></trkpt><trkpt lat="45.8529019" lon="9.2684454"><ele>384.0</ele><time>2026-03-29T17:08:54.944Z</time></trkpt><trkpt lat="45.8528238" lon="9.2682921"><ele>384.0</ele><time>2026-03-29T17:08:55.943Z</time></trkpt><trkpt lat="45.8527481" lon="9.2681428"><ele>384.0</ele><time>2026-03-29T17:08:56.944Z</time></trkpt><trkpt lat="45.8526696" lon="9.2679897"><ele>384.0</ele><time>2026-03-29T17:08:57.945Z</time></trkpt><trkpt lat="45.8525903" lon="9.2678368"><ele>384.25</ele><time>2026-03-29T17:08:58.943Z</time></trkpt><trkpt lat="45.8525145" lon="9.2676863"><ele>384.5</ele><time>2026-03-29T17:08:59.944Z</time></trkpt><trkpt lat="45.8524381" lon="9.267532"><ele>384.75</ele><time>2026-03-29T17:09:00.944Z</time></trkpt><trkpt lat="45.8523629" lon="9.2673823"><ele>385.0</ele><time>2026-03-29T17:09:01.945Z</time></trkpt><trkpt lat="45.8522851" lon="9.2672342"><ele>383.75</ele><time>2026-03-29T17:09:02.945Z</time></trkpt><trkpt lat="45.8522039" lon="9.2670824"><ele>382.5</ele><time>2026-03-29T17:09:03.944Z</time></trkpt><trkpt lat="45.8521225" lon="9.2669214"><ele>381.25</ele><time>2026-03-29T17:09:04.945Z</time></trkpt><trkpt lat="45.8520308" lon="9.2667547"><ele>380.0</ele><time>2026-03-29T17:09:05.945Z</time></trkpt><trkpt lat="45.851933" lon="9.2665841"><ele>380.0</ele><time>2026-03-29T17:09:06.943Z</time></trkpt><trkpt lat="45.8518232" lon="9.2664022"><ele>380.0</ele><time>2026-03-29T17:09:07.944Z</time></trkpt><trkpt lat="45.8517164" lon="9.2662241"><ele>380.0</ele><time>2026-03-29T17:09:08.944Z</time></trkpt><trkpt lat="45.8516113" lon="9.2660516"><ele>380.0</ele><time>2026-03-29T17:09:09.945Z</time></trkpt><trkpt lat="45.8515072" lon="9.2658772"><ele>380.0</ele><time>2026-03-29T17:09:10.944Z</time></trkpt><trkpt lat="45.8514006" lon="9.2657032"><ele>380.0</ele><time>2026-03-29T17:09:11.944Z</time></trkpt><trkpt lat="45.8512925" lon="9.2655277"><ele>379.0</ele><time>2026-03-29T17:09:12.944Z</time></trkpt><trkpt lat="45.8511899" lon="9.2653557"><ele>378.0</ele><time>2026-03-29T17:09:13.945Z</time></trkpt><trkpt lat="45.8510876" lon="9.2651868"><ele>377.0</ele><time>2026-03-29T17:09:14.944Z</time></trkpt><trkpt lat="45.8509854" lon="9.26502"><ele>377.0</ele><time>2026-03-29T17:09:15.943Z</time></trkpt><trkpt lat="45.850888" lon="9.2648582"><ele>377.0</ele><time>2026-03-29T17:09:16.945Z</time></trkpt><trkpt lat="45.8507864" lon="9.2646921"><ele>377.0</ele><time>2026-03-29T17:09:17.945Z</time></trkpt><trkpt lat="45.8506872" lon="9.2645257"><ele>377.0</ele><time>2026-03-29T17:09:18.944Z</time></trkpt><trkpt lat="45.8505906" lon="9.2643617"><ele>377.0</ele><time>2026-03-29T17:09:19.945Z</time></trkpt><trkpt lat="45.8504907" lon="9.2641957"><ele>377.0</ele><time>2026-03-29T17:09:20.944Z</time></trkpt><trkpt lat="45.8503862" lon="9.2640257"><ele>378.0</ele><time>2026-03-29T17:09:21.945Z</time></trkpt><trkpt lat="45.8502794" lon="9.2638558"><ele>379.0</ele><time>2026-03-29T17:09:22.941Z</time></trkpt><trkpt lat="45.8501692" lon="9.2636869"><ele>380.0</ele><time>2026-03-29T17:09:23.944Z</time></trkpt><trkpt lat="45.8500594" lon="9.2635188"><ele>380.0</ele><time>2026-03-29T17:09:24.943Z</time></trkpt><trkpt lat="45.8499431" lon="9.2633511"><ele>380.0</ele><time>2026-03-29T17:09:25.944Z</time></trkpt><trkpt lat="45.8498203" lon="9.2631909"><ele>380.0</ele><time>2026-03-29T17:09:26.945Z</time></trkpt><trkpt lat="45.8497025" lon="9.2630288"><ele>377.33333333333337</ele><time>2026-03-29T17:09:27.944Z</time></trkpt><trkpt lat="45.8495779" lon="9.2628663"><ele>374.6666666666667</ele><time>2026-03-29T17:09:28.945Z</time></trkpt><trkpt lat="45.8494524" lon="9.2627006"><ele>372.0</ele><time>2026-03-29T17:09:29.945Z</time></trkpt><trkpt lat="45.8493259" lon="9.2625317"><ele>371.6666666666667</ele><time>2026-03-29T17:09:30.945Z</time></trkpt><trkpt lat="45.8492067" lon="9.2623666"><ele>371.33333333333337</ele><time>2026-03-29T17:09:31.944Z</time></trkpt><trkpt lat="45.8490964" lon="9.2621967"><ele>371.0</ele><time>2026-03-29T17:09:32.945Z</time></trkpt><trkpt lat="45.8489947" lon="9.2620238"><ele>371.0</ele><time>2026-03-29T17:09:33.944Z</time></trkpt><trkpt lat="45.8488978" lon="9.2618448"><ele>371.0</ele><time>2026-03-29T17:09:34.945Z</time></trkpt><trkpt lat="45.8488016" lon="9.2616598"><ele>371.0</ele><time>2026-03-29T17:09:35.944Z</time></trkpt><trkpt lat="45.8487056" lon="9.2614641"><ele>371.0</ele><time>2026-03-29T17:09:36.945Z</time></trkpt><trkpt lat="45.8486091" lon="9.2612684"><ele>371.0</ele><time>2026-03-29T17:09:37.944Z</time></trkpt><trkpt lat="45.8485121" lon="9.2610704"><ele>371.0</ele><time>2026-03-29T17:09:38.944Z</time></trkpt><trkpt lat="45.8484138" lon="9.2608708"><ele>369.0</ele><time>2026-03-29T17:09:39.945Z</time></trkpt><trkpt lat="45.8483201" lon="9.2606724"><ele>367.0</ele><time>2026-03-29T17:09:40.945Z</time></trkpt><trkpt lat="45.848226" lon="9.260472"><ele>365.0</ele><time>2026-03-29T17:09:41.944Z</time></trkpt><trkpt lat="45.8481325" lon="9.2602753"><ele>365.0</ele><time>2026-03-29T17:09:42.944Z</time></trkpt><trkpt lat="45.8480403" lon="9.2600844"><ele>365.0</ele><time>2026-03-29T17:09:43.944Z</time></trkpt><trkpt lat="45.8479478" lon="9.2598928"><ele>365.0</ele><time>2026-03-29T17:09:44.944Z</time></trkpt><trkpt lat="45.8478584" lon="9.2597032"><ele>365.6666666666667</ele><time>2026-03-29T17:09:45.945Z</time></trkpt><trkpt lat="45.8477671" lon="9.2595118"><ele>366.3333333333333</ele><time>2026-03-29T17:09:46.945Z</time></trkpt><trkpt lat="45.8476778" lon="9.2593232"><ele>367.0</ele><time>2026-03-29T17:09:47.945Z</time></trkpt><trkpt lat="45.8475913" lon="9.2591379"><ele>367.66666666666663</ele><time>2026-03-29T17:09:48.945Z</time></trkpt><trkpt lat="45.8475041" lon="9.2589524"><ele>368.3333333333333</ele><time>2026-03-29T17:09:49.944Z</time></trkpt><trkpt lat="45.8474119" lon="9.2587655"><ele>369.0</ele><time>2026-03-29T17:09:50.945Z</time></trkpt><trkpt lat="45.8473231" lon="9.2585776"><ele>369.0</ele><time>2026-03-29T17:09:51.944Z</time></trkpt><trkpt lat="45.8472376" lon="9.2583981"><ele>369.0</ele><time>2026-03-29T17:09:52.945Z</time></trkpt><trkpt lat="45.8471451" lon="9.2582177"><ele>369.0</ele><time>2026-03-29T17:09:53.944Z</time></trkpt><trkpt lat="45.847055" lon="9.2580492"><ele>368.0</ele><time>2026-03-29T17:09:54.944Z</time></trkpt><trkpt lat="45.8469611" lon="9.2578947"><ele>367.0</ele><time>2026-03-29T17:09:55.944Z</time></trkpt><trkpt lat="45.8468621" lon="9.2577596"><ele>366.0</ele><time>2026-03-29T17:09:56.944Z</time></trkpt><trkpt lat="45.8467765" lon="9.2576414"><ele>365.0</ele><time>2026-03-29T17:09:57.945Z</time></trkpt><trkpt lat="45.8466971" lon="9.2575344"><ele>365.0</ele><time>2026-03-29T17:09:58.944Z</time></trkpt><trkpt lat="45.8466241" lon="9.2574476"><ele>365.0</ele><time>2026-03-29T17:09:59.945Z</time></trkpt><trkpt lat="45.8465576" lon="9.2573712"><ele>365.0</ele><time>2026-03-29T17:10:00.944Z</time></trkpt><trkpt lat="45.8464966" lon="9.2573016"><ele>365.0</ele><time>2026-03-29T17:10:01.943Z</time></trkpt><trkpt lat="45.8464381" lon="9.2572355"><ele>365.0</ele><time>2026-03-29T17:10:02.944Z</time></trkpt><trkpt lat="45.8463812" lon="9.2571755"><ele>365.0</ele><time>2026-03-29T17:10:03.943Z</time></trkpt><trkpt lat="45.8462875" lon="9.2570777"><ele>364.6666666666667</ele><time>2026-03-29T17:10:05.945Z</time></trkpt><trkpt lat="45.8462244" lon="9.2570005"><ele>364.33333333333337</ele><time>2026-03-29T17:10:07.945Z</time></trkpt><trkpt lat="45.8461579" lon="9.2569173"><ele>364.0</ele><time>2026-03-29T17:10:10.944Z</time></trkpt><trkpt lat="45.8460975" lon="9.2568497"><ele>363.6666666666667</ele><time>2026-03-29T17:10:13.944Z</time></trkpt><trkpt lat="45.8460447" lon="9.2567901"><ele>363.3333333333333</ele><time>2026-03-29T17:11:00.944Z</time></trkpt><trkpt lat="45.8459507" lon="9.2567056"><ele>363.0</ele><time>2026-03-29T17:11:03.945Z</time></trkpt><trkpt lat="45.845902" lon="9.2566449"><ele>362.6666666666667</ele><time>2026-03-29T17:11:04.945Z</time></trkpt><trkpt lat="45.8458139" lon="9.2565162"><ele>362.3333333333333</ele><time>2026-03-29T17:11:06.944Z</time></trkpt><trkpt lat="45.8457606" lon="9.2564422"><ele>362.0</ele><time>2026-03-29T17:11:07.944Z</time></trkpt><trkpt lat="45.8457027" lon="9.2563775"><ele>361.66666666666663</ele><time>2026-03-29T17:11:08.945Z</time></trkpt><trkpt lat="45.8456339" lon="9.2563206"><ele>361.3333333333333</ele><time>2026-03-29T17:11:09.944Z</time></trkpt><trkpt lat="45.8455593" lon="9.2562591"><ele>361.0</ele><time>2026-03-29T17:11:10.945Z</time></trkpt><trkpt lat="45.8454768" lon="9.2561777"><ele>360.75</ele><time>2026-03-29T17:11:11.943Z</time></trkpt><trkpt lat="45.8453792" lon="9.2560697"><ele>360.5</ele><time>2026-03-29T17:11:12.944Z</time></trkpt><trkpt lat="45.8452626" lon="9.2559477"><ele>360.25</ele><time>2026-03-29T17:11:13.943Z</time></trkpt><trkpt lat="45.8451498" lon="9.2558276"><ele>360.0</ele><time>2026-03-29T17:11:14.944Z</time></trkpt><trkpt lat="45.8450233" lon="9.2556884"><ele>360.0</ele><time>2026-03-29T17:11:15.944Z</time></trkpt><trkpt lat="45.8448864" lon="9.2555405"><ele>360.0</ele><time>2026-03-29T17:11:16.945Z</time></trkpt><trkpt lat="45.844756" lon="9.2553973"><ele>360.0</ele><time>2026-03-29T17:11:17.945Z</time></trkpt><trkpt lat="45.8446373" lon="9.2552606"><ele>360.0</ele><time>2026-03-29T17:11:18.944Z</time></trkpt><trkpt lat="45.8445125" lon="9.255126"><ele>360.0</ele><time>2026-03-29T17:11:19.944Z</time></trkpt><trkpt lat="45.8443863" lon="9.2549915"><ele>360.0</ele><time>2026-03-29T17:11:20.945Z</time></trkpt><trkpt lat="45.8442531" lon="9.254847"><ele>358.6666666666667</ele><time>2026-03-29T17:11:21.945Z</time></trkpt><trkpt lat="45.8441164" lon="9.2546976"><ele>357.33333333333337</ele><time>2026-03-29T17:11:22.945Z</time></trkpt><trkpt lat="45.84398" lon="9.254551"><ele>356.0</ele><time>2026-03-29T17:11:23.944Z</time></trkpt><trkpt lat="45.8438537" lon="9.2544138"><ele>356.0</ele><time>2026-03-29T17:11:24.945Z</time></trkpt><trkpt lat="45.843734" lon="9.2542836"><ele>356.0</ele><time>2026-03-29T17:11:25.945Z</time></trkpt><trkpt lat="45.8436192" lon="9.2541629"><ele>356.0</ele><time>2026-03-29T17:11:26.944Z</time></trkpt><trkpt lat="45.8435027" lon="9.2540411"><ele>356.0</ele><time>2026-03-29T17:11:27.944Z</time></trkpt><trkpt lat="45.8433873" lon="9.2539031"><ele>356.33333333333337</ele><time>2026-03-29T17:11:28.945Z</time></trkpt><trkpt lat="45.8432731" lon="9.2537487"><ele>356.6666666666667</ele><time>2026-03-29T17:11:29.945Z</time></trkpt><trkpt lat="45.8431541" lon="9.253593"><ele>357.0</ele><time>2026-03-29T17:11:30.945Z</time></trkpt><trkpt lat="45.8430387" lon="9.2534437"><ele>357.0</ele><time>2026-03-29T17:11:31.945Z</time></trkpt><trkpt lat="45.8429274" lon="9.2533068"><ele>357.0</ele><time>2026-03-29T17:11:32.943Z</time></trkpt><trkpt lat="45.84282" lon="9.2531804"><ele>357.0</ele><time>2026-03-29T17:11:33.945Z</time></trkpt><trkpt lat="45.8427192" lon="9.2530593"><ele>357.0</ele><time>2026-03-29T17:11:34.945Z</time></trkpt><trkpt lat="45.8426201" lon="9.2529414"><ele>356.0</ele><time>2026-03-29T17:11:35.944Z</time></trkpt><trkpt lat="45.8425233" lon="9.2528284"><ele>355.0</ele><time>2026-03-29T17:11:36.944Z</time></trkpt><trkpt lat="45.8424268" lon="9.2527087"><ele>354.0</ele><time>2026-03-29T17:11:37.945Z</time></trkpt><trkpt lat="45.8423308" lon="9.2525846"><ele>353.0</ele><time>2026-03-29T17:11:38.945Z</time></trkpt><trkpt lat="45.842234" lon="9.2524598"><ele>353.0</ele><time>2026-03-29T17:11:39.944Z</time></trkpt><trkpt lat="45.8421338" lon="9.2523328"><ele>353.0</ele><time>2026-03-29T17:11:40.944Z</time></trkpt><trkpt lat="45.8420283" lon="9.2522055"><ele>353.0</ele><time>2026-03-29T17:11:41.945Z</time></trkpt><trkpt lat="45.8419247" lon="9.2520791"><ele>353.0</ele><time>2026-03-29T17:11:42.944Z</time></trkpt><trkpt lat="45.84182" lon="9.2519505"><ele>353.25</ele><time>2026-03-29T17:11:43.945Z</time></trkpt><trkpt lat="45.8417159" lon="9.2518256"><ele>353.5</ele><time>2026-03-29T17:11:44.944Z</time></trkpt><trkpt lat="45.8416127" lon="9.2517011"><ele>353.75</ele><time>2026-03-29T17:11:45.944Z</time></trkpt><trkpt lat="45.8415095" lon="9.2515751"><ele>354.0</ele><time>2026-03-29T17:11:46.945Z</time></trkpt><trkpt lat="45.8414051" lon="9.2514449"><ele>353.25</ele><time>2026-03-29T17:11:47.945Z</time></trkpt><trkpt lat="45.8413035" lon="9.251303"><ele>352.5</ele><time>2026-03-29T17:11:48.943Z</time></trkpt><trkpt lat="45.8412043" lon="9.2511539"><ele>351.75</ele><time>2026-03-29T17:11:49.945Z</time></trkpt><trkpt lat="45.8411127" lon="9.251004"><ele>351.0</ele><time>2026-03-29T17:11:50.945Z</time></trkpt><trkpt lat="45.8410299" lon="9.2508518"><ele>351.25</ele><time>2026-03-29T17:11:51.943Z</time></trkpt><trkpt lat="45.8409481" lon="9.2506858"><ele>351.5</ele><time>2026-03-29T17:11:52.943Z</time></trkpt><trkpt lat="45.840873" lon="9.2505106"><ele>351.75</ele><time>2026-03-29T17:11:53.945Z</time></trkpt><trkpt lat="45.8407969" lon="9.2503317"><ele>352.0</ele><time>2026-03-29T17:11:54.945Z</time></trkpt><trkpt lat="45.8407205" lon="9.2501497"><ele>352.0</ele><time>2026-03-29T17:11:55.943Z</time></trkpt><trkpt lat="45.8406492" lon="9.2499715"><ele>352.0</ele><time>2026-03-29T17:11:56.945Z</time></trkpt><trkpt lat="45.8405803" lon="9.2498017"><ele>352.0</ele><time>2026-03-29T17:11:57.945Z</time></trkpt><trkpt lat="45.8405096" lon="9.2496309"><ele>352.0</ele><time>2026-03-29T17:11:58.945Z</time></trkpt><trkpt lat="45.8404357" lon="9.2494548"><ele>351.75</ele><time>2026-03-29T17:11:59.944Z</time></trkpt><trkpt lat="45.840359" lon="9.2492736"><ele>351.5</ele><time>2026-03-29T17:12:00.944Z</time></trkpt><trkpt lat="45.8402808" lon="9.2490914"><ele>351.25</ele><time>2026-03-29T17:12:01.944Z</time></trkpt><trkpt lat="45.8402028" lon="9.2489118"><ele>351.0</ele><time>2026-03-29T17:12:02.943Z</time></trkpt><trkpt lat="45.8401244" lon="9.2487431"><ele>351.5</ele><time>2026-03-29T17:12:03.945Z</time></trkpt><trkpt lat="45.8400488" lon="9.2485889"><ele>352.0</ele><time>2026-03-29T17:12:04.945Z</time></trkpt><trkpt lat="45.8399755" lon="9.2484422"><ele>352.5</ele><time>2026-03-29T17:12:05.944Z</time></trkpt><trkpt lat="45.8399163" lon="9.248305"><ele>353.0</ele><time>2026-03-29T17:12:06.945Z</time></trkpt><trkpt lat="45.8398718" lon="9.2481797"><ele>353.0</ele><time>2026-03-29T17:12:07.945Z</time></trkpt><trkpt lat="45.8398444" lon="9.2480541"><ele>353.0</ele><time>2026-03-29T17:12:08.944Z</time></trkpt><trkpt lat="45.8398366" lon="9.2479285"><ele>353.0</ele><time>2026-03-29T17:12:09.945Z</time></trkpt><trkpt lat="45.83984" lon="9.2478061"><ele>353.0</ele><time>2026-03-29T17:12:10.944Z</time></trkpt><trkpt lat="45.8398346" lon="9.2476688"><ele>353.0</ele><time>2026-03-29T17:12:11.943Z</time></trkpt><trkpt lat="45.8397706" lon="9.2475604"><ele>353.0</ele><time>2026-03-29T17:12:12.944Z</time></trkpt><trkpt lat="45.8396865" lon="9.247462"><ele>353.0</ele><time>2026-03-29T17:12:13.944Z</time></trkpt><trkpt lat="45.8395986" lon="9.2473382"><ele>353.0</ele><time>2026-03-29T17:12:14.944Z</time></trkpt><trkpt lat="45.8395194" lon="9.247187"><ele>353.0</ele><time>2026-03-29T17:12:15.945Z</time></trkpt><trkpt lat="45.8394467" lon="9.2470383"><ele>352.0</ele><time>2026-03-29T17:12:16.945Z</time></trkpt><trkpt lat="45.8393777" lon="9.2468782"><ele>351.0</ele><time>2026-03-29T17:12:17.944Z</time></trkpt><trkpt lat="45.8393084" lon="9.2467175"><ele>350.0</ele><time>2026-03-29T17:12:18.944Z</time></trkpt><trkpt lat="45.8392446" lon="9.2465535"><ele>349.0</ele><time>2026-03-29T17:12:19.944Z</time></trkpt><trkpt lat="45.8391871" lon="9.2463943"><ele>348.75</ele><time>2026-03-29T17:12:20.944Z</time></trkpt><trkpt lat="45.839131" lon="9.2462476"><ele>348.5</ele><time>2026-03-29T17:12:21.945Z</time></trkpt><trkpt lat="45.8390737" lon="9.2460987"><ele>348.25</ele><time>2026-03-29T17:12:22.944Z</time></trkpt><trkpt lat="45.8390186" lon="9.2459423"><ele>348.0</ele><time>2026-03-29T17:12:23.945Z</time></trkpt><trkpt lat="45.8389684" lon="9.2457816"><ele>347.25</ele><time>2026-03-29T17:12:24.944Z</time></trkpt><trkpt lat="45.8389203" lon="9.2456111"><ele>346.5</ele><time>2026-03-29T17:12:25.945Z</time></trkpt><trkpt lat="45.8388808" lon="9.2454357"><ele>345.75</ele><time>2026-03-29T17:12:26.944Z</time></trkpt><trkpt lat="45.8388421" lon="9.2452582"><ele>345.0</ele><time>2026-03-29T17:12:27.945Z</time></trkpt><trkpt lat="45.8388084" lon="9.2450798"><ele>345.0</ele><time>2026-03-29T17:12:28.945Z</time></trkpt><trkpt lat="45.8387747" lon="9.2449006"><ele>345.0</ele><time>2026-03-29T17:12:29.945Z</time></trkpt><trkpt lat="45.8387416" lon="9.2447188"><ele>345.0</ele><time>2026-03-29T17:12:30.945Z</time></trkpt><trkpt lat="45.8387129" lon="9.2445428"><ele>345.0</ele><time>2026-03-29T17:12:31.945Z</time></trkpt><trkpt lat="45.8386926" lon="9.2443658"><ele>345.25</ele><time>2026-03-29T17:12:32.945Z</time></trkpt><trkpt lat="45.838682" lon="9.2441931"><ele>345.5</ele><time>2026-03-29T17:12:33.944Z</time></trkpt><trkpt lat="45.8386748" lon="9.2440294"><ele>345.75</ele><time>2026-03-29T17:12:34.945Z</time></trkpt><trkpt lat="45.8386637" lon="9.2438704"><ele>346.0</ele><time>2026-03-29T17:12:35.944Z</time></trkpt><trkpt lat="45.8386469" lon="9.2437105"><ele>346.0</ele><time>2026-03-29T17:12:36.945Z</time></trkpt><trkpt lat="45.8386274" lon="9.2435584"><ele>346.0</ele><time>2026-03-29T17:12:37.945Z</time></trkpt><trkpt lat="45.8385898" lon="9.2434075"><ele>346.0</ele><time>2026-03-29T17:12:38.944Z</time></trkpt><trkpt lat="45.838535" lon="9.2432597"><ele>346.0</ele><time>2026-03-29T17:12:39.945Z</time></trkpt><trkpt lat="45.8384608" lon="9.2431185"><ele>344.66666666666663</ele><time>2026-03-29T17:12:40.944Z</time></trkpt><trkpt lat="45.8383583" lon="9.2429841"><ele>343.3333333333333</ele><time>2026-03-29T17:12:41.944Z</time></trkpt><trkpt lat="45.8382279" lon="9.2428327"><ele>342.0</ele><time>2026-03-29T17:12:42.945Z</time></trkpt><trkpt lat="45.8380927" lon="9.2426656"><ele>342.0</ele><time>2026-03-29T17:12:43.944Z</time></trkpt><trkpt lat="45.8379707" lon="9.242508"><ele>342.0</ele><time>2026-03-29T17:12:44.945Z</time></trkpt><trkpt lat="45.8378483" lon="9.2423397"><ele>342.0</ele><time>2026-03-29T17:12:45.945Z</time></trkpt><trkpt lat="45.8377368" lon="9.2421776"><ele>341.6666666666667</ele><time>2026-03-29T17:12:46.944Z</time></trkpt><trkpt lat="45.8376407" lon="9.2419675"><ele>341.33333333333337</ele><time>2026-03-29T17:12:47.944Z</time></trkpt><trkpt lat="45.8375383" lon="9.2417762"><ele>341.0</ele><time>2026-03-29T17:12:48.945Z</time></trkpt><trkpt lat="45.8374499" lon="9.2415614"><ele>340.6666666666667</ele><time>2026-03-29T17:12:49.945Z</time></trkpt><trkpt lat="45.8373619" lon="9.2413482"><ele>340.3333333333333</ele><time>2026-03-29T17:12:50.943Z</time></trkpt><trkpt lat="45.8372719" lon="9.2411428"><ele>340.0</ele><time>2026-03-29T17:12:51.945Z</time></trkpt><trkpt lat="45.8372154" lon="9.2408966"><ele>340.0</ele><time>2026-03-29T17:12:52.945Z</time></trkpt><trkpt lat="45.8371505" lon="9.2406661"><ele>340.0</ele><time>2026-03-29T17:12:53.944Z</time></trkpt><trkpt lat="45.8370935" lon="9.2404262"><ele>340.0</ele><time>2026-03-29T17:12:54.945Z</time></trkpt><trkpt lat="45.8370367" lon="9.2401826"><ele>342.3333333333333</ele><time>2026-03-29T17:12:55.943Z</time></trkpt><trkpt lat="45.8369814" lon="9.2399356"><ele>344.6666666666667</ele><time>2026-03-29T17:12:56.945Z</time></trkpt><trkpt lat="45.8369242" lon="9.2396893"><ele>347.0</ele><time>2026-03-29T17:12:57.945Z</time></trkpt><trkpt lat="45.8368619" lon="9.2394482"><ele>347.0</ele><time>2026-03-29T17:12:58.944Z</time></trkpt><trkpt lat="45.8367897" lon="9.2392068"><ele>347.0</ele><time>2026-03-29T17:12:59.944Z</time></trkpt><trkpt lat="45.8367126" lon="9.2389691"><ele>347.0</ele><time>2026-03-29T17:13:00.944Z</time></trkpt><trkpt lat="45.8366294" lon="9.2387309"><ele>348.33333333333337</ele><time>2026-03-29T17:13:01.944Z</time></trkpt><trkpt lat="45.8365445" lon="9.2384868"><ele>349.6666666666667</ele><time>2026-03-29T17:13:02.944Z</time></trkpt><trkpt lat="45.8364533" lon="9.2382402"><ele>351.0</ele><time>2026-03-29T17:13:03.944Z</time></trkpt><trkpt lat="45.8363649" lon="9.2380005"><ele>352.0</ele><time>2026-03-29T17:13:04.944Z</time></trkpt><trkpt lat="45.8362804" lon="9.2377745"><ele>353.0</ele><time>2026-03-29T17:13:05.945Z</time></trkpt><trkpt lat="45.8361966" lon="9.2375531"><ele>354.0</ele><time>2026-03-29T17:13:06.944Z</time></trkpt><trkpt lat="45.8361182" lon="9.2373401"><ele>353.0</ele><time>2026-03-29T17:13:07.944Z</time></trkpt><trkpt lat="45.8360383" lon="9.2371248"><ele>352.0</ele><time>2026-03-29T17:13:08.945Z</time></trkpt><trkpt lat="45.8359626" lon="9.2369083"><ele>351.0</ele><time>2026-03-29T17:13:09.944Z</time></trkpt><trkpt lat="45.8358928" lon="9.23669"><ele>349.6666666666667</ele><time>2026-03-29T17:13:10.945Z</time></trkpt><trkpt lat="45.8358324" lon="9.236462"><ele>348.33333333333337</ele><time>2026-03-29T17:13:11.944Z</time></trkpt><trkpt lat="45.8357869" lon="9.2362262"><ele>347.0</ele><time>2026-03-29T17:13:12.945Z</time></trkpt><trkpt lat="45.8357531" lon="9.2359911"><ele>347.0</ele><time>2026-03-29T17:13:13.944Z</time></trkpt><trkpt lat="45.8357273" lon="9.2357481"><ele>347.0</ele><time>2026-03-29T17:13:14.945Z</time></trkpt><trkpt lat="45.8357023" lon="9.2355065"><ele>347.0</ele><time>2026-03-29T17:13:15.945Z</time></trkpt><trkpt lat="45.8356719" lon="9.235263"><ele>346.6666666666667</ele><time>2026-03-29T17:13:16.944Z</time></trkpt><trkpt lat="45.8356374" lon="9.235017"><ele>346.3333333333333</ele><time>2026-03-29T17:13:17.945Z</time></trkpt><trkpt lat="45.8356014" lon="9.2347701"><ele>346.0</ele><time>2026-03-29T17:13:18.945Z</time></trkpt><trkpt lat="45.8355615" lon="9.2345216"><ele>346.0</ele><time>2026-03-29T17:13:19.944Z</time></trkpt><trkpt lat="45.83552" lon="9.2342682"><ele>346.0</ele><time>2026-03-29T17:13:20.944Z</time></trkpt><trkpt lat="45.8354808" lon="9.234012"><ele>346.0</ele><time>2026-03-29T17:13:21.945Z</time></trkpt><trkpt lat="45.8354453" lon="9.2337559"><ele>343.3333333333333</ele><time>2026-03-29T17:13:22.945Z</time></trkpt><trkpt lat="45.8354148" lon="9.2335079"><ele>340.6666666666667</ele><time>2026-03-29T17:13:23.944Z</time></trkpt><trkpt lat="45.835388" lon="9.2332706"><ele>338.0</ele><time>2026-03-29T17:13:24.944Z</time></trkpt><trkpt lat="45.8353607" lon="9.2330266"><ele>336.75</ele><time>2026-03-29T17:13:25.944Z</time></trkpt><trkpt lat="45.835342" lon="9.2328143"><ele>335.5</ele><time>2026-03-29T17:13:26.945Z</time></trkpt><trkpt lat="45.8353282" lon="9.2326162"><ele>334.25</ele><time>2026-03-29T17:13:27.944Z</time></trkpt><trkpt lat="45.8353198" lon="9.2324442"><ele>333.0</ele><time>2026-03-29T17:13:28.944Z</time></trkpt><trkpt lat="45.8353057" lon="9.2322825"><ele>332.25</ele><time>2026-03-29T17:13:29.944Z</time></trkpt><trkpt lat="45.8352798" lon="9.232128"><ele>331.5</ele><time>2026-03-29T17:13:30.944Z</time></trkpt><trkpt lat="45.8352482" lon="9.2319657"><ele>330.75</ele><time>2026-03-29T17:13:31.944Z</time></trkpt><trkpt lat="45.8352091" lon="9.2317971"><ele>330.0</ele><time>2026-03-29T17:13:32.944Z</time></trkpt><trkpt lat="45.8351706" lon="9.231612"><ele>334.6666666666667</ele><time>2026-03-29T17:13:33.943Z</time></trkpt><trkpt lat="45.835135" lon="9.2314138"><ele>339.33333333333337</ele><time>2026-03-29T17:13:34.943Z</time></trkpt><trkpt lat="45.8350935" lon="9.2312042"><ele>344.0</ele><time>2026-03-29T17:13:35.943Z</time></trkpt><trkpt lat="45.8350524" lon="9.230989"><ele>344.0</ele><time>2026-03-29T17:13:36.944Z</time></trkpt><trkpt lat="45.8350164" lon="9.23078"><ele>344.0</ele><time>2026-03-29T17:13:37.944Z</time></trkpt><trkpt lat="45.8349803" lon="9.2305728"><ele>344.0</ele><time>2026-03-29T17:13:38.943Z</time></trkpt><trkpt lat="45.8349416" lon="9.2303606"><ele>341.6666666666667</ele><time>2026-03-29T17:13:39.942Z</time></trkpt><trkpt lat="45.8349012" lon="9.2301433"><ele>339.3333333333333</ele><time>2026-03-29T17:13:40.944Z</time></trkpt><trkpt lat="45.8348649" lon="9.2299253"><ele>337.0</ele><time>2026-03-29T17:13:41.943Z</time></trkpt><trkpt lat="45.8348273" lon="9.2297014"><ele>334.3333333333333</ele><time>2026-03-29T17:13:42.944Z</time></trkpt><trkpt lat="45.8347889" lon="9.2294785"><ele>331.6666666666667</ele><time>2026-03-29T17:13:43.942Z</time></trkpt><trkpt lat="45.8347531" lon="9.2292561"><ele>329.0</ele><time>2026-03-29T17:13:44.944Z</time></trkpt><trkpt lat="45.8347144" lon="9.2290343"><ele>328.6666666666667</ele><time>2026-03-29T17:13:45.944Z</time></trkpt><trkpt lat="45.8346784" lon="9.2288149"><ele>328.3333333333333</ele><time>2026-03-29T17:13:46.944Z</time></trkpt><trkpt lat="45.8346435" lon="9.2285927"><ele>328.0</ele><time>2026-03-29T17:13:47.944Z</time></trkpt><trkpt lat="45.8346097" lon="9.2283731"><ele>328.0</ele><time>2026-03-29T17:13:48.943Z</time></trkpt><trkpt lat="45.8345767" lon="9.2281548"><ele>328.0</ele><time>2026-03-29T17:13:49.943Z</time></trkpt><trkpt lat="45.8345351" lon="9.2279376"><ele>328.0</ele><time>2026-03-29T17:13:50.943Z</time></trkpt><trkpt lat="45.8344882" lon="9.2277264"><ele>328.0</ele><time>2026-03-29T17:13:51.943Z</time></trkpt><trkpt lat="45.8344325" lon="9.2275232"><ele>328.0</ele><time>2026-03-29T17:13:52.944Z</time></trkpt><trkpt lat="45.8343653" lon="9.2273218"><ele>328.0</ele><time>2026-03-29T17:13:53.943Z</time></trkpt><trkpt lat="45.8342909" lon="9.2271195"><ele>330.66666666666663</ele><time>2026-03-29T17:13:54.944Z</time></trkpt><trkpt lat="45.8342121" lon="9.2269232"><ele>333.3333333333333</ele><time>2026-03-29T17:13:55.942Z</time></trkpt><trkpt lat="45.8341328" lon="9.2267238"><ele>336.0</ele><time>2026-03-29T17:13:56.943Z</time></trkpt><trkpt lat="45.8340543" lon="9.2265166"><ele>334.6666666666667</ele><time>2026-03-29T17:13:57.944Z</time></trkpt><trkpt lat="45.8339774" lon="9.2263162"><ele>333.33333333333337</ele><time>2026-03-29T17:13:58.944Z</time></trkpt><trkpt lat="45.8339033" lon="9.2261091"><ele>332.0</ele><time>2026-03-29T17:13:59.942Z</time></trkpt><trkpt lat="45.8338312" lon="9.2259021"><ele>332.0</ele><time>2026-03-29T17:14:00.943Z</time></trkpt><trkpt lat="45.8337654" lon="9.2256941"><ele>332.0</ele><time>2026-03-29T17:14:01.944Z</time></trkpt><trkpt lat="45.8337035" lon="9.2254848"><ele>332.0</ele><time>2026-03-29T17:14:02.943Z</time></trkpt><trkpt lat="45.8336455" lon="9.225273"><ele>330.33333333333337</ele><time>2026-03-29T17:14:03.944Z</time></trkpt><trkpt lat="45.8335898" lon="9.2250602"><ele>328.6666666666667</ele><time>2026-03-29T17:14:04.944Z</time></trkpt><trkpt lat="45.833535" lon="9.2248485"><ele>327.0</ele><time>2026-03-29T17:14:05.944Z</time></trkpt><trkpt lat="45.8334844" lon="9.2246364"><ele>328.0</ele><time>2026-03-29T17:14:06.943Z</time></trkpt><trkpt lat="45.8334334" lon="9.2244247"><ele>329.0</ele><time>2026-03-29T17:14:07.943Z</time></trkpt><trkpt lat="45.833383" lon="9.2242164"><ele>330.0</ele><time>2026-03-29T17:14:08.944Z</time></trkpt><trkpt lat="45.8333278" lon="9.2240092"><ele>338.3333333333333</ele><time>2026-03-29T17:14:09.944Z</time></trkpt><trkpt lat="45.833263" lon="9.2238086"><ele>346.66666666666663</ele><time>2026-03-29T17:14:10.944Z</time></trkpt><trkpt lat="45.8331864" lon="9.2236168"><ele>355.0</ele><time>2026-03-29T17:14:11.943Z</time></trkpt><trkpt lat="45.8330959" lon="9.2234385"><ele>355.0</ele><time>2026-03-29T17:14:12.943Z</time></trkpt><trkpt lat="45.8329921" lon="9.2232756"><ele>355.0</ele><time>2026-03-29T17:14:13.944Z</time></trkpt><trkpt lat="45.8328714" lon="9.2231297"><ele>355.0</ele><time>2026-03-29T17:14:14.943Z</time></trkpt><trkpt lat="45.83275" lon="9.2229962"><ele>368.66666666666663</ele><time>2026-03-29T17:14:15.943Z</time></trkpt><trkpt lat="45.8326211" lon="9.2228969"><ele>382.3333333333333</ele><time>2026-03-29T17:14:16.943Z</time></trkpt><trkpt lat="45.8324775" lon="9.222814"><ele>396.0</ele><time>2026-03-29T17:14:17.943Z</time></trkpt><trkpt lat="45.8323291" lon="9.2227405"><ele>396.0</ele><time>2026-03-29T17:14:18.943Z</time></trkpt><trkpt lat="45.8321984" lon="9.2226758"><ele>396.0</ele><time>2026-03-29T17:14:19.944Z</time></trkpt><trkpt lat="45.8320424" lon="9.2226014"><ele>396.0</ele><time>2026-03-29T17:14:20.944Z</time></trkpt><trkpt lat="45.8318819" lon="9.2225111"><ele>387.0</ele><time>2026-03-29T17:14:21.943Z</time></trkpt><trkpt lat="45.8317124" lon="9.2224296"><ele>378.0</ele><time>2026-03-29T17:14:22.943Z</time></trkpt><trkpt lat="45.8315609" lon="9.2223678"><ele>369.0</ele><time>2026-03-29T17:14:23.944Z</time></trkpt><trkpt lat="45.8313933" lon="9.2222763"><ele>375.33333333333337</ele><time>2026-03-29T17:14:24.944Z</time></trkpt><trkpt lat="45.8312395" lon="9.2221859"><ele>381.6666666666667</ele><time>2026-03-29T17:14:25.943Z</time></trkpt><trkpt lat="45.8310986" lon="9.2220894"><ele>388.0</ele><time>2026-03-29T17:14:26.944Z</time></trkpt><trkpt lat="45.8309616" lon="9.2219778"><ele>388.0</ele><time>2026-03-29T17:14:27.943Z</time></trkpt><trkpt lat="45.8308276" lon="9.2218622"><ele>388.0</ele><time>2026-03-29T17:14:28.944Z</time></trkpt><trkpt lat="45.8306947" lon="9.2217423"><ele>388.0</ele><time>2026-03-29T17:14:29.943Z</time></trkpt><trkpt lat="45.830571" lon="9.2216251"><ele>388.0</ele><time>2026-03-29T17:14:30.942Z</time></trkpt><trkpt lat="45.8304482" lon="9.2214851"><ele>388.0</ele><time>2026-03-29T17:14:31.943Z</time></trkpt><trkpt lat="45.830334" lon="9.2213458"><ele>388.0</ele><time>2026-03-29T17:14:32.943Z</time></trkpt><trkpt lat="45.8302151" lon="9.2212032"><ele>388.0</ele><time>2026-03-29T17:14:33.944Z</time></trkpt><trkpt lat="45.8300986" lon="9.2210546"><ele>388.0</ele><time>2026-03-29T17:14:34.944Z</time></trkpt><trkpt lat="45.8299848" lon="9.2209037"><ele>388.0</ele><time>2026-03-29T17:14:35.944Z</time></trkpt><trkpt lat="45.8298678" lon="9.2207627"><ele>397.0</ele><time>2026-03-29T17:14:36.944Z</time></trkpt><trkpt lat="45.8297503" lon="9.2206229"><ele>406.0</ele><time>2026-03-29T17:14:37.944Z</time></trkpt><trkpt lat="45.8296251" lon="9.2204981"><ele>415.0</ele><time>2026-03-29T17:14:38.944Z</time></trkpt><trkpt lat="45.8294897" lon="9.2203887"><ele>415.0</ele><time>2026-03-29T17:14:39.944Z</time></trkpt><trkpt lat="45.8293394" lon="9.2203011"><ele>415.0</ele><time>2026-03-29T17:14:40.942Z</time></trkpt><trkpt lat="45.829179" lon="9.2202407"><ele>415.0</ele><time>2026-03-29T17:14:41.944Z</time></trkpt><trkpt lat="45.8290117" lon="9.2202002"><ele>406.6666666666667</ele><time>2026-03-29T17:14:42.943Z</time></trkpt><trkpt lat="45.8288406" lon="9.2201716"><ele>398.33333333333337</ele><time>2026-03-29T17:14:43.944Z</time></trkpt><trkpt lat="45.828673" lon="9.2201568"><ele>390.0</ele><time>2026-03-29T17:14:44.944Z</time></trkpt><trkpt lat="45.8285039" lon="9.2201399"><ele>383.3333333333333</ele><time>2026-03-29T17:14:45.944Z</time></trkpt><trkpt lat="45.8283412" lon="9.2201209"><ele>376.66666666666663</ele><time>2026-03-29T17:14:46.944Z</time></trkpt><trkpt lat="45.8281847" lon="9.2201019"><ele>370.0</ele><time>2026-03-29T17:14:47.944Z</time></trkpt><trkpt lat="45.8280372" lon="9.2200901"><ele>370.0</ele><time>2026-03-29T17:14:48.944Z</time></trkpt><trkpt lat="45.8278912" lon="9.2200743"><ele>370.0</ele><time>2026-03-29T17:14:49.944Z</time></trkpt><trkpt lat="45.8277495" lon="9.220061"><ele>370.0</ele><time>2026-03-29T17:14:50.944Z</time></trkpt><trkpt lat="45.8276101" lon="9.2200431"><ele>370.0</ele><time>2026-03-29T17:14:51.943Z</time></trkpt><trkpt lat="45.8274662" lon="9.2200249"><ele>368.0</ele><time>2026-03-29T17:14:52.944Z</time></trkpt><trkpt lat="45.8273174" lon="9.2200033"><ele>366.0</ele><time>2026-03-29T17:14:53.943Z</time></trkpt><trkpt lat="45.8271669" lon="9.2199725"><ele>364.0</ele><time>2026-03-29T17:14:54.944Z</time></trkpt><trkpt lat="45.8270172" lon="9.2199306"><ele>364.0</ele><time>2026-03-29T17:14:55.943Z</time></trkpt><trkpt lat="45.8268636" lon="9.2198726"><ele>364.0</ele><time>2026-03-29T17:14:56.944Z</time></trkpt><trkpt lat="45.8267134" lon="9.2198012"><ele>364.0</ele><time>2026-03-29T17:14:57.943Z</time></trkpt><trkpt lat="45.8265663" lon="9.2197336"><ele>368.25</ele><time>2026-03-29T17:14:58.943Z</time></trkpt><trkpt lat="45.8264246" lon="9.2196701"><ele>372.5</ele><time>2026-03-29T17:14:59.944Z</time></trkpt><trkpt lat="45.826281" lon="9.2196043"><ele>376.75</ele><time>2026-03-29T17:15:00.943Z</time></trkpt><trkpt lat="45.8261384" lon="9.2195403"><ele>381.0</ele><time>2026-03-29T17:15:01.942Z</time></trkpt><trkpt lat="45.8259923" lon="9.2194656"><ele>377.0</ele><time>2026-03-29T17:15:02.943Z</time></trkpt><trkpt lat="45.825849" lon="9.2193832"><ele>373.0</ele><time>2026-03-29T17:15:03.942Z</time></trkpt><trkpt lat="45.8257062" lon="9.2192908"><ele>369.0</ele><time>2026-03-29T17:15:04.943Z</time></trkpt><trkpt lat="45.8255646" lon="9.2191914"><ele>369.0</ele><time>2026-03-29T17:15:05.943Z</time></trkpt><trkpt lat="45.8254248" lon="9.2190876"><ele>369.0</ele><time>2026-03-29T17:15:06.944Z</time></trkpt><trkpt lat="45.8252846" lon="9.2189798"><ele>369.0</ele><time>2026-03-29T17:15:07.944Z</time></trkpt><trkpt lat="45.8251427" lon="9.218876"><ele>373.6666666666667</ele><time>2026-03-29T17:15:08.944Z</time></trkpt><trkpt lat="45.824996" lon="9.2187804"><ele>378.33333333333337</ele><time>2026-03-29T17:15:09.944Z</time></trkpt><trkpt lat="45.82485" lon="9.2186944"><ele>383.0</ele><time>2026-03-29T17:15:10.944Z</time></trkpt><trkpt lat="45.8246989" lon="9.2186154"><ele>383.0</ele><time>2026-03-29T17:15:11.943Z</time></trkpt><trkpt lat="45.8245469" lon="9.2185366"><ele>383.0</ele><time>2026-03-29T17:15:12.943Z</time></trkpt><trkpt lat="45.8243929" lon="9.2184635"><ele>383.0</ele><time>2026-03-29T17:15:13.943Z</time></trkpt><trkpt lat="45.8242433" lon="9.2183904"><ele>375.0</ele><time>2026-03-29T17:15:14.944Z</time></trkpt><trkpt lat="45.824095" lon="9.2183179"><ele>367.0</ele><time>2026-03-29T17:15:15.943Z</time></trkpt><trkpt lat="45.8239452" lon="9.218253"><ele>359.0</ele><time>2026-03-29T17:15:16.944Z</time></trkpt><trkpt lat="45.8238006" lon="9.218184"><ele>364.33333333333337</ele><time>2026-03-29T17:15:17.943Z</time></trkpt><trkpt lat="45.8236572" lon="9.2181069"><ele>369.6666666666667</ele><time>2026-03-29T17:15:18.943Z</time></trkpt><trkpt lat="45.8235112" lon="9.218031"><ele>375.0</ele><time>2026-03-29T17:15:19.944Z</time></trkpt><trkpt lat="45.8233624" lon="9.2179583"><ele>375.0</ele><time>2026-03-29T17:15:20.943Z</time></trkpt><trkpt lat="45.8232172" lon="9.2178869"><ele>375.0</ele><time>2026-03-29T17:15:21.942Z</time></trkpt><trkpt lat="45.8230696" lon="9.2178119"><ele>375.0</ele><time>2026-03-29T17:15:22.944Z</time></trkpt><trkpt lat="45.8229251" lon="9.2177379"><ele>375.0</ele><time>2026-03-29T17:15:23.944Z</time></trkpt><trkpt lat="45.8227772" lon="9.2176638"><ele>375.0</ele><time>2026-03-29T17:15:24.943Z</time></trkpt><trkpt lat="45.8226264" lon="9.2175972"><ele>375.0</ele><time>2026-03-29T17:15:25.944Z</time></trkpt><trkpt lat="45.8224785" lon="9.2175297"><ele>371.3333333333333</ele><time>2026-03-29T17:15:26.944Z</time></trkpt><trkpt lat="45.8223263" lon="9.2174524"><ele>367.66666666666663</ele><time>2026-03-29T17:15:27.943Z</time></trkpt><trkpt lat="45.8221741" lon="9.2173707"><ele>364.0</ele><time>2026-03-29T17:15:28.944Z</time></trkpt><trkpt lat="45.8220225" lon="9.2172897"><ele>366.0</ele><time>2026-03-29T17:15:29.944Z</time></trkpt><trkpt lat="45.821876" lon="9.2171942"><ele>368.0</ele><time>2026-03-29T17:15:30.943Z</time></trkpt><trkpt lat="45.8217323" lon="9.2170839"><ele>370.0</ele><time>2026-03-29T17:15:31.944Z</time></trkpt><trkpt lat="45.8215906" lon="9.2169694"><ele>370.0</ele><time>2026-03-29T17:15:32.944Z</time></trkpt><trkpt lat="45.8214548" lon="9.2168534"><ele>370.0</ele><time>2026-03-29T17:15:33.943Z</time></trkpt><trkpt lat="45.8213219" lon="9.2167309"><ele>370.0</ele><time>2026-03-29T17:15:34.943Z</time></trkpt><trkpt lat="45.8211903" lon="9.2166061"><ele>370.0</ele><time>2026-03-29T17:15:35.944Z</time></trkpt><trkpt lat="45.8210592" lon="9.2164869"><ele>370.0</ele><time>2026-03-29T17:15:36.943Z</time></trkpt><trkpt lat="45.8209221" lon="9.2163896"><ele>370.0</ele><time>2026-03-29T17:15:37.943Z</time></trkpt><trkpt lat="45.8207806" lon="9.2162983"><ele>372.0</ele><time>2026-03-29T17:15:38.944Z</time></trkpt><trkpt lat="45.8206387" lon="9.2162195"><ele>374.0</ele><time>2026-03-29T17:15:39.944Z</time></trkpt><trkpt lat="45.8204913" lon="9.2161559"><ele>376.0</ele><time>2026-03-29T17:15:40.943Z</time></trkpt><trkpt lat="45.8203437" lon="9.2160941"><ele>376.0</ele><time>2026-03-29T17:15:41.944Z</time></trkpt><trkpt lat="45.8201936" lon="9.2160376"><ele>376.0</ele><time>2026-03-29T17:15:42.943Z</time></trkpt><trkpt lat="45.8200403" lon="9.2159816"><ele>376.0</ele><time>2026-03-29T17:15:43.944Z</time></trkpt><trkpt lat="45.8198875" lon="9.2159253"><ele>373.66666666666663</ele><time>2026-03-29T17:15:44.944Z</time></trkpt><trkpt lat="45.8197334" lon="9.2158721"><ele>371.3333333333333</ele><time>2026-03-29T17:15:45.944Z</time></trkpt><trkpt lat="45.8195778" lon="9.2158202"><ele>369.0</ele><time>2026-03-29T17:15:46.943Z</time></trkpt><trkpt lat="45.8194235" lon="9.2157659"><ele>366.3333333333333</ele><time>2026-03-29T17:15:47.943Z</time></trkpt><trkpt lat="45.8192657" lon="9.2157146"><ele>363.66666666666663</ele><time>2026-03-29T17:15:48.943Z</time></trkpt><trkpt lat="45.8191101" lon="9.2156623"><ele>361.0</ele><time>2026-03-29T17:15:49.944Z</time></trkpt><trkpt lat="45.8189562" lon="9.2156086"><ele>367.3333333333333</ele><time>2026-03-29T17:15:50.943Z</time></trkpt><trkpt lat="45.8187995" lon="9.2155543"><ele>373.6666666666667</ele><time>2026-03-29T17:15:51.944Z</time></trkpt><trkpt lat="45.8186427" lon="9.2154973"><ele>380.0</ele><time>2026-03-29T17:15:52.944Z</time></trkpt><trkpt lat="45.8184855" lon="9.2154446"><ele>377.75</ele><time>2026-03-29T17:15:53.944Z</time></trkpt><trkpt lat="45.8183348" lon="9.2153922"><ele>375.5</ele><time>2026-03-29T17:15:54.943Z</time></trkpt><trkpt lat="45.8181962" lon="9.2153451"><ele>373.25</ele><time>2026-03-29T17:15:55.943Z</time></trkpt><trkpt lat="45.8180649" lon="9.2152957"><ele>371.0</ele><time>2026-03-29T17:15:56.944Z</time></trkpt><trkpt lat="45.8179355" lon="9.21525"><ele>371.0</ele><time>2026-03-29T17:15:57.944Z</time></trkpt><trkpt lat="45.817806" lon="9.2152069"><ele>371.0</ele><time>2026-03-29T17:15:58.942Z</time></trkpt><trkpt lat="45.8176771" lon="9.215161"><ele>371.0</ele><time>2026-03-29T17:15:59.944Z</time></trkpt><trkpt lat="45.8175503" lon="9.2151148"><ele>371.0</ele><time>2026-03-29T17:16:00.944Z</time></trkpt><trkpt lat="45.817417" lon="9.2150683"><ele>370.0</ele><time>2026-03-29T17:16:01.942Z</time></trkpt><trkpt lat="45.8172775" lon="9.2150215"><ele>369.0</ele><time>2026-03-29T17:16:02.944Z</time></trkpt><trkpt lat="45.8171382" lon="9.2149753"><ele>368.0</ele><time>2026-03-29T17:16:03.944Z</time></trkpt><trkpt lat="45.8170033" lon="9.2149242"><ele>367.0</ele><time>2026-03-29T17:16:04.944Z</time></trkpt><trkpt lat="45.8168726" lon="9.2148705"><ele>370.0</ele><time>2026-03-29T17:16:05.943Z</time></trkpt><trkpt lat="45.8167444" lon="9.2148128"><ele>373.0</ele><time>2026-03-29T17:16:06.943Z</time></trkpt><trkpt lat="45.8166213" lon="9.2147552"><ele>376.0</ele><time>2026-03-29T17:16:07.944Z</time></trkpt><trkpt lat="45.8165032" lon="9.21469"><ele>379.0</ele><time>2026-03-29T17:16:08.944Z</time></trkpt><trkpt lat="45.816381" lon="9.2146206"><ele>379.0</ele><time>2026-03-29T17:16:09.943Z</time></trkpt><trkpt lat="45.8162672" lon="9.2145566"><ele>379.0</ele><time>2026-03-29T17:16:10.943Z</time></trkpt><trkpt lat="45.8161545" lon="9.2144825"><ele>379.0</ele><time>2026-03-29T17:16:11.942Z</time></trkpt><trkpt lat="45.8160619" lon="9.2144108"><ele>379.0</ele><time>2026-03-29T17:16:12.943Z</time></trkpt><trkpt lat="45.8159672" lon="9.2143357"><ele>379.0</ele><time>2026-03-29T17:16:13.943Z</time></trkpt><trkpt lat="45.8158807" lon="9.214265"><ele>379.0</ele><time>2026-03-29T17:16:14.944Z</time></trkpt><trkpt lat="45.8157968" lon="9.2141906"><ele>379.0</ele><time>2026-03-29T17:16:15.943Z</time></trkpt><trkpt lat="45.8157131" lon="9.2141132"><ele>379.0</ele><time>2026-03-29T17:16:16.944Z</time></trkpt><trkpt lat="45.815629" lon="9.2140251"><ele>379.0</ele><time>2026-03-29T17:16:17.944Z</time></trkpt><trkpt lat="45.8155421" lon="9.2139387"><ele>381.75</ele><time>2026-03-29T17:16:18.944Z</time></trkpt><trkpt lat="45.8154522" lon="9.213849"><ele>384.5</ele><time>2026-03-29T17:16:19.943Z</time></trkpt><trkpt lat="45.8153579" lon="9.2137451"><ele>387.25</ele><time>2026-03-29T17:16:20.944Z</time></trkpt><trkpt lat="45.8152618" lon="9.2136477"><ele>390.0</ele><time>2026-03-29T17:16:21.944Z</time></trkpt><trkpt lat="45.8151632" lon="9.2135495"><ele>388.5</ele><time>2026-03-29T17:16:22.944Z</time></trkpt><trkpt lat="45.8150659" lon="9.2134477"><ele>387.0</ele><time>2026-03-29T17:16:23.943Z</time></trkpt><trkpt lat="45.8149689" lon="9.2133424"><ele>385.5</ele><time>2026-03-29T17:16:24.944Z</time></trkpt><trkpt lat="45.8148702" lon="9.2132369"><ele>384.0</ele><time>2026-03-29T17:16:25.944Z</time></trkpt><trkpt lat="45.8147713" lon="9.2131311"><ele>387.75</ele><time>2026-03-29T17:16:26.944Z</time></trkpt><trkpt lat="45.8146703" lon="9.2130263"><ele>391.5</ele><time>2026-03-29T17:16:27.943Z</time></trkpt><trkpt lat="45.8145675" lon="9.2129165"><ele>395.25</ele><time>2026-03-29T17:16:28.944Z</time></trkpt><trkpt lat="45.8144659" lon="9.2128137"><ele>399.0</ele><time>2026-03-29T17:16:29.943Z</time></trkpt><trkpt lat="45.8143617" lon="9.2127059"><ele>399.0</ele><time>2026-03-29T17:16:30.943Z</time></trkpt><trkpt lat="45.8142589" lon="9.2125992"><ele>399.0</ele><time>2026-03-29T17:16:31.944Z</time></trkpt><trkpt lat="45.8141533" lon="9.2124915"><ele>399.0</ele><time>2026-03-29T17:16:32.944Z</time></trkpt><trkpt lat="45.8140486" lon="9.2123771"><ele>399.0</ele><time>2026-03-29T17:16:33.943Z</time></trkpt><trkpt lat="45.8139429" lon="9.2122644"><ele>399.0</ele><time>2026-03-29T17:16:34.944Z</time></trkpt><trkpt lat="45.8138324" lon="9.212145"><ele>399.0</ele><time>2026-03-29T17:16:35.944Z</time></trkpt><trkpt lat="45.8137226" lon="9.2120305"><ele>399.0</ele><time>2026-03-29T17:16:36.942Z</time></trkpt><trkpt lat="45.8136145" lon="9.2119173"><ele>399.0</ele><time>2026-03-29T17:16:37.943Z</time></trkpt><trkpt lat="45.8135039" lon="9.2118071"><ele>398.75</ele><time>2026-03-29T17:16:38.944Z</time></trkpt><trkpt lat="45.8133945" lon="9.2117005"><ele>398.5</ele><time>2026-03-29T17:16:39.943Z</time></trkpt><trkpt lat="45.8132804" lon="9.2116004"><ele>398.25</ele><time>2026-03-29T17:16:40.943Z</time></trkpt><trkpt lat="45.8131598" lon="9.2115087"><ele>398.0</ele><time>2026-03-29T17:16:41.944Z</time></trkpt><trkpt lat="45.8130351" lon="9.2114275"><ele>398.0</ele><time>2026-03-29T17:16:42.943Z</time></trkpt><trkpt lat="45.8129047" lon="9.211353"><ele>398.0</ele><time>2026-03-29T17:16:43.943Z</time></trkpt><trkpt lat="45.8127694" lon="9.2112898"><ele>398.0</ele><time>2026-03-29T17:16:44.943Z</time></trkpt><trkpt lat="45.8126353" lon="9.2112382"><ele>398.0</ele><time>2026-03-29T17:16:45.943Z</time></trkpt><trkpt lat="45.8125076" lon="9.211191"><ele>395.5</ele><time>2026-03-29T17:16:46.942Z</time></trkpt><trkpt lat="45.8123822" lon="9.2111597"><ele>393.0</ele><time>2026-03-29T17:16:47.944Z</time></trkpt><trkpt lat="45.8122514" lon="9.2111245"><ele>390.5</ele><time>2026-03-29T17:16:48.944Z</time></trkpt><trkpt lat="45.8121223" lon="9.2110872"><ele>388.0</ele><time>2026-03-29T17:16:49.944Z</time></trkpt><trkpt lat="45.8119882" lon="9.2110498"><ele>388.0</ele><time>2026-03-29T17:16:50.944Z</time></trkpt><trkpt lat="45.8118511" lon="9.2110142"><ele>388.0</ele><time>2026-03-29T17:16:51.944Z</time></trkpt><trkpt lat="45.8117155" lon="9.210973"><ele>388.0</ele><time>2026-03-29T17:16:52.944Z</time></trkpt><trkpt lat="45.811581" lon="9.2109335"><ele>388.0</ele><time>2026-03-29T17:16:53.943Z</time></trkpt><trkpt lat="45.8114518" lon="9.2108903"><ele>388.0</ele><time>2026-03-29T17:16:54.944Z</time></trkpt><trkpt lat="45.8113286" lon="9.210828"><ele>388.0</ele><time>2026-03-29T17:16:55.944Z</time></trkpt><trkpt lat="45.8112153" lon="9.2107533"><ele>388.0</ele><time>2026-03-29T17:16:56.943Z</time></trkpt><trkpt lat="45.8111047" lon="9.2106662"><ele>388.0</ele><time>2026-03-29T17:16:57.943Z</time></trkpt><trkpt lat="45.8110016" lon="9.210561"><ele>386.0</ele><time>2026-03-29T17:16:58.944Z</time></trkpt><trkpt lat="45.8108995" lon="9.2104428"><ele>384.0</ele><time>2026-03-29T17:16:59.944Z</time></trkpt><trkpt lat="45.8107956" lon="9.2103204"><ele>382.0</ele><time>2026-03-29T17:17:00.944Z</time></trkpt><trkpt lat="45.8106928" lon="9.2101959"><ele>380.0</ele><time>2026-03-29T17:17:01.943Z</time></trkpt><trkpt lat="45.810595" lon="9.2100692"><ele>380.0</ele><time>2026-03-29T17:17:02.944Z</time></trkpt><trkpt lat="45.8104985" lon="9.2099484"><ele>380.0</ele><time>2026-03-29T17:17:03.943Z</time></trkpt><trkpt lat="45.8104019" lon="9.20983"><ele>380.0</ele><time>2026-03-29T17:17:04.944Z</time></trkpt><trkpt lat="45.8103069" lon="9.2097201"><ele>380.0</ele><time>2026-03-29T17:17:05.944Z</time></trkpt><trkpt lat="45.8102043" lon="9.2096109"><ele>379.5</ele><time>2026-03-29T17:17:06.943Z</time></trkpt><trkpt lat="45.8100926" lon="9.209505"><ele>379.0</ele><time>2026-03-29T17:17:07.944Z</time></trkpt><trkpt lat="45.8099772" lon="9.2094184"><ele>378.5</ele><time>2026-03-29T17:17:08.943Z</time></trkpt><trkpt lat="45.8098556" lon="9.2093482"><ele>378.0</ele><time>2026-03-29T17:17:09.942Z</time></trkpt><trkpt lat="45.8097287" lon="9.2092932"><ele>378.0</ele><time>2026-03-29T17:17:10.944Z</time></trkpt><trkpt lat="45.809598" lon="9.2092551"><ele>378.0</ele><time>2026-03-29T17:17:11.944Z</time></trkpt><trkpt lat="45.8094689" lon="9.2092362"><ele>378.0</ele><time>2026-03-29T17:17:12.944Z</time></trkpt><trkpt lat="45.8093396" lon="9.2092292"><ele>378.0</ele><time>2026-03-29T17:17:13.944Z</time></trkpt><trkpt lat="45.8092071" lon="9.2092371"><ele>375.25</ele><time>2026-03-29T17:17:14.943Z</time></trkpt><trkpt lat="45.8090746" lon="9.2092693"><ele>372.5</ele><time>2026-03-29T17:17:15.943Z</time></trkpt><trkpt lat="45.8089432" lon="9.2093157"><ele>369.75</ele><time>2026-03-29T17:17:16.942Z</time></trkpt><trkpt lat="45.8088097" lon="9.2093711"><ele>367.0</ele><time>2026-03-29T17:17:17.943Z</time></trkpt><trkpt lat="45.8086752" lon="9.2094375"><ele>367.0</ele><time>2026-03-29T17:17:18.944Z</time></trkpt><trkpt lat="45.8085463" lon="9.2094965"><ele>367.0</ele><time>2026-03-29T17:17:19.944Z</time></trkpt><trkpt lat="45.8084208" lon="9.209553"><ele>367.0</ele><time>2026-03-29T17:17:20.944Z</time></trkpt><trkpt lat="45.8082979" lon="9.2096095"><ele>367.0</ele><time>2026-03-29T17:17:21.944Z</time></trkpt><trkpt lat="45.8081773" lon="9.2096627"><ele>364.75</ele><time>2026-03-29T17:17:22.943Z</time></trkpt><trkpt lat="45.8080599" lon="9.2097192"><ele>362.5</ele><time>2026-03-29T17:17:23.943Z</time></trkpt><trkpt lat="45.8079432" lon="9.2097758"><ele>360.25</ele><time>2026-03-29T17:17:24.944Z</time></trkpt><trkpt lat="45.8078272" lon="9.2098357"><ele>358.0</ele><time>2026-03-29T17:17:25.944Z</time></trkpt><trkpt lat="45.8077132" lon="9.2098939"><ele>356.5</ele><time>2026-03-29T17:17:26.944Z</time></trkpt><trkpt lat="45.8075979" lon="9.2099478"><ele>355.0</ele><time>2026-03-29T17:17:27.943Z</time></trkpt><trkpt lat="45.8074799" lon="9.2099921"><ele>353.5</ele><time>2026-03-29T17:17:28.944Z</time></trkpt><trkpt lat="45.8073568" lon="9.2100166"><ele>352.0</ele><time>2026-03-29T17:17:29.943Z</time></trkpt><trkpt lat="45.8072297" lon="9.2100301"><ele>352.0</ele><time>2026-03-29T17:17:30.942Z</time></trkpt><trkpt lat="45.8070991" lon="9.2100313"><ele>352.0</ele><time>2026-03-29T17:17:31.944Z</time></trkpt><trkpt lat="45.8069707" lon="9.2100192"><ele>352.0</ele><time>2026-03-29T17:17:32.942Z</time></trkpt><trkpt lat="45.8068402" lon="9.2099965"><ele>352.0</ele><time>2026-03-29T17:17:33.943Z</time></trkpt><trkpt lat="45.8067199" lon="9.2099642"><ele>352.0</ele><time>2026-03-29T17:17:34.943Z</time></trkpt><trkpt lat="45.8066123" lon="9.2099208"><ele>352.0</ele><time>2026-03-29T17:17:35.944Z</time></trkpt><trkpt lat="45.8065112" lon="9.2098657"><ele>352.0</ele><time>2026-03-29T17:17:36.944Z</time></trkpt><trkpt lat="45.8064194" lon="9.2098086"><ele>352.0</ele><time>2026-03-29T17:17:37.943Z</time></trkpt><trkpt lat="45.8063326" lon="9.2097377"><ele>352.0</ele><time>2026-03-29T17:17:38.944Z</time></trkpt><trkpt lat="45.8062474" lon="9.2096672"><ele>351.40000000000003</ele><time>2026-03-29T17:17:39.943Z</time></trkpt><trkpt lat="45.8061641" lon="9.2095901"><ele>350.8</ele><time>2026-03-29T17:17:40.943Z</time></trkpt><trkpt lat="45.806082" lon="9.2095018"><ele>350.2</ele><time>2026-03-29T17:17:41.942Z</time></trkpt><trkpt lat="45.806002" lon="9.2093938"><ele>349.6</ele><time>2026-03-29T17:17:42.942Z</time></trkpt><trkpt lat="45.805918" lon="9.2092785"><ele>349.0</ele><time>2026-03-29T17:17:43.944Z</time></trkpt><trkpt lat="45.8058376" lon="9.2091586"><ele>348.2</ele><time>2026-03-29T17:17:44.944Z</time></trkpt><trkpt lat="45.8057605" lon="9.2090393"><ele>347.4</ele><time>2026-03-29T17:17:45.943Z</time></trkpt><trkpt lat="45.8056827" lon="9.2089188"><ele>346.6</ele><time>2026-03-29T17:17:46.944Z</time></trkpt><trkpt lat="45.8056032" lon="9.2088045"><ele>345.8</ele><time>2026-03-29T17:17:47.943Z</time></trkpt><trkpt lat="45.8055287" lon="9.2086914"><ele>345.0</ele><time>2026-03-29T17:17:48.943Z</time></trkpt><trkpt lat="45.8054565" lon="9.2085817"><ele>345.0</ele><time>2026-03-29T17:17:49.943Z</time></trkpt><trkpt lat="45.8053815" lon="9.2084748"><ele>345.0</ele><time>2026-03-29T17:17:50.944Z</time></trkpt><trkpt lat="45.8053055" lon="9.2083697"><ele>345.0</ele><time>2026-03-29T17:17:51.943Z</time></trkpt><trkpt lat="45.8052265" lon="9.2082685"><ele>345.0</ele><time>2026-03-29T17:17:52.943Z</time></trkpt><trkpt lat="45.805152" lon="9.2081651"><ele>345.0</ele><time>2026-03-29T17:17:53.944Z</time></trkpt><trkpt lat="45.8050686" lon="9.2080634"><ele>344.6</ele><time>2026-03-29T17:17:54.944Z</time></trkpt><trkpt lat="45.8049832" lon="9.2079693"><ele>344.2</ele><time>2026-03-29T17:17:55.944Z</time></trkpt><trkpt lat="45.8049012" lon="9.2078845"><ele>343.79999999999995</ele><time>2026-03-29T17:17:56.943Z</time></trkpt><trkpt lat="45.8048285" lon="9.207809"><ele>343.4</ele><time>2026-03-29T17:17:57.943Z</time></trkpt><trkpt lat="45.8047632" lon="9.2077531"><ele>343.0</ele><time>2026-03-29T17:17:58.944Z</time></trkpt><trkpt lat="45.8046741" lon="9.207685"><ele>343.0</ele><time>2026-03-29T17:18:00.943Z</time></trkpt><trkpt lat="45.8045946" lon="9.2076272"><ele>343.0</ele><time>2026-03-29T17:18:03.944Z</time></trkpt><trkpt lat="45.8045171" lon="9.2075431"><ele>343.0</ele><time>2026-03-29T17:18:05.944Z</time></trkpt><trkpt lat="45.8044437" lon="9.2074214"><ele>343.0</ele><time>2026-03-29T17:18:07.944Z</time></trkpt><trkpt lat="45.8043975" lon="9.2072772"><ele>343.0</ele><time>2026-03-29T17:18:09.944Z</time></trkpt><trkpt lat="45.804359" lon="9.2071462"><ele>343.0</ele><time>2026-03-29T17:18:11.944Z</time></trkpt><trkpt lat="45.8042692" lon="9.2070534"><ele>343.0</ele><time>2026-03-29T17:18:13.944Z</time></trkpt><trkpt lat="45.8041984" lon="9.2070543"><ele>343.0</ele><time>2026-03-29T17:18:14.944Z</time></trkpt><trkpt lat="45.8041315" lon="9.2070332"><ele>343.0</ele><time>2026-03-29T17:18:15.943Z</time></trkpt><trkpt lat="45.8040623" lon="9.2069866"><ele>343.0</ele><time>2026-03-29T17:18:16.944Z</time></trkpt><trkpt lat="45.8039887" lon="9.2069139"><ele>343.0</ele><time>2026-03-29T17:18:17.944Z</time></trkpt><trkpt lat="45.8039077" lon="9.2068267"><ele>343.0</ele><time>2026-03-29T17:18:18.943Z</time></trkpt><trkpt lat="45.8038315" lon="9.2067426"><ele>343.0</ele><time>2026-03-29T17:18:19.943Z</time></trkpt><trkpt lat="45.8037525" lon="9.2066524"><ele>343.0</ele><time>2026-03-29T17:18:20.944Z</time></trkpt><trkpt lat="45.8036576" lon="9.2065451"><ele>343.0</ele><time>2026-03-29T17:18:21.943Z</time></trkpt><trkpt lat="45.8035609" lon="9.2064406"><ele>343.0</ele><time>2026-03-29T17:18:22.944Z</time></trkpt><trkpt lat="45.8034674" lon="9.2063427"><ele>342.75</ele><time>2026-03-29T17:18:23.943Z</time></trkpt><trkpt lat="45.8033806" lon="9.2062794"><ele>342.5</ele><time>2026-03-29T17:18:24.944Z</time></trkpt><trkpt lat="45.8032458" lon="9.2061355"><ele>342.25</ele><time>2026-03-29T17:18:25.943Z</time></trkpt><trkpt lat="45.8031129" lon="9.2060193"><ele>342.0</ele><time>2026-03-29T17:18:26.944Z</time></trkpt><trkpt lat="45.8029485" lon="9.2058774"><ele>342.0</ele><time>2026-03-29T17:18:27.944Z</time></trkpt><trkpt lat="45.802772" lon="9.2057263"><ele>342.0</ele><time>2026-03-29T17:18:28.943Z</time></trkpt><trkpt lat="45.8026113" lon="9.2055807"><ele>342.0</ele><time>2026-03-29T17:18:29.944Z</time></trkpt><trkpt lat="45.8024581" lon="9.2054509"><ele>342.0</ele><time>2026-03-29T17:18:30.944Z</time></trkpt><trkpt lat="45.8023135" lon="9.2053345"><ele>342.0</ele><time>2026-03-29T17:18:31.944Z</time></trkpt><trkpt lat="45.8021735" lon="9.2052207"><ele>342.0</ele><time>2026-03-29T17:18:32.944Z</time></trkpt><trkpt lat="45.8020373" lon="9.2051104"><ele>342.0</ele><time>2026-03-29T17:18:33.944Z</time></trkpt><trkpt lat="45.8019004" lon="9.2050063"><ele>342.0</ele><time>2026-03-29T17:18:34.942Z</time></trkpt><trkpt lat="45.8017616" lon="9.2049015"><ele>342.0</ele><time>2026-03-29T17:18:35.944Z</time></trkpt><trkpt lat="45.8016261" lon="9.2047989"><ele>341.5</ele><time>2026-03-29T17:18:36.944Z</time></trkpt><trkpt lat="45.8014936" lon="9.2046941"><ele>341.0</ele><time>2026-03-29T17:18:37.942Z</time></trkpt><trkpt lat="45.8013633" lon="9.2045903"><ele>340.5</ele><time>2026-03-29T17:18:38.944Z</time></trkpt><trkpt lat="45.8012369" lon="9.2044925"><ele>340.0</ele><time>2026-03-29T17:18:39.942Z</time></trkpt><trkpt lat="45.8011141" lon="9.2043971"><ele>341.0</ele><time>2026-03-29T17:18:40.944Z</time></trkpt><trkpt lat="45.8009949" lon="9.204305"><ele>342.0</ele><time>2026-03-29T17:18:41.944Z</time></trkpt><trkpt lat="45.8008772" lon="9.2042092"><ele>343.0</ele><time>2026-03-29T17:18:42.943Z</time></trkpt><trkpt lat="45.8007664" lon="9.204122"><ele>344.0</ele><time>2026-03-29T17:18:43.944Z</time></trkpt><trkpt lat="45.8006627" lon="9.2040492"><ele>344.0</ele><time>2026-03-29T17:18:44.944Z</time></trkpt><trkpt lat="45.8005595" lon="9.2040021"><ele>344.0</ele><time>2026-03-29T17:18:45.943Z</time></trkpt><trkpt lat="45.8004516" lon="9.2039834"><ele>344.0</ele><time>2026-03-29T17:18:46.944Z</time></trkpt><trkpt lat="45.8003407" lon="9.2039796"><ele>344.0</ele><time>2026-03-29T17:18:47.944Z</time></trkpt><trkpt lat="45.80022" lon="9.2039773"><ele>344.0</ele><time>2026-03-29T17:18:48.943Z</time></trkpt><trkpt lat="45.8000894" lon="9.2039768"><ele>343.5</ele><time>2026-03-29T17:18:49.944Z</time></trkpt><trkpt lat="45.7999582" lon="9.2039737"><ele>343.0</ele><time>2026-03-29T17:18:50.944Z</time></trkpt><trkpt lat="45.7998273" lon="9.2039738"><ele>342.5</ele><time>2026-03-29T17:18:51.944Z</time></trkpt><trkpt lat="45.7997037" lon="9.2039771"><ele>342.0</ele><time>2026-03-29T17:18:52.942Z</time></trkpt><trkpt lat="45.7996085" lon="9.20398"><ele>342.0</ele><time>2026-03-29T17:18:53.944Z</time></trkpt><trkpt lat="45.7995063" lon="9.2039958"><ele>342.0</ele><time>2026-03-29T17:18:54.944Z</time></trkpt><trkpt lat="45.7994146" lon="9.2040046"><ele>342.0</ele><time>2026-03-29T17:18:55.943Z</time></trkpt><trkpt lat="45.7993345" lon="9.2040037"><ele>342.0</ele><time>2026-03-29T17:18:56.944Z</time></trkpt><trkpt lat="45.7992688" lon="9.2039658"><ele>342.0</ele><time>2026-03-29T17:18:57.942Z</time></trkpt><trkpt lat="45.7992077" lon="9.2038962"><ele>342.0</ele><time>2026-03-29T17:18:58.944Z</time></trkpt><trkpt lat="45.7991469" lon="9.2038132"><ele>341.8</ele><time>2026-03-29T17:18:59.943Z</time></trkpt><trkpt lat="45.7990728" lon="9.2037352"><ele>341.6</ele><time>2026-03-29T17:19:00.943Z</time></trkpt><trkpt lat="45.7989825" lon="9.2036539"><ele>341.40000000000003</ele><time>2026-03-29T17:19:01.943Z</time></trkpt><trkpt lat="45.798884" lon="9.203572"><ele>341.20000000000005</ele><time>2026-03-29T17:19:02.944Z</time></trkpt><trkpt lat="45.798786" lon="9.2035017"><ele>341.0</ele><time>2026-03-29T17:19:03.943Z</time></trkpt><trkpt lat="45.7986976" lon="9.2034215"><ele>341.0</ele><time>2026-03-29T17:19:04.943Z</time></trkpt><trkpt lat="45.7985966" lon="9.2033439"><ele>341.0</ele><time>2026-03-29T17:19:05.943Z</time></trkpt><trkpt lat="45.798499" lon="9.20327"><ele>341.0</ele><time>2026-03-29T17:19:06.943Z</time></trkpt><trkpt lat="45.7983978" lon="9.2031946"><ele>341.0</ele><time>2026-03-29T17:19:07.944Z</time></trkpt><trkpt lat="45.7983039" lon="9.2031022"><ele>341.20000000000005</ele><time>2026-03-29T17:19:08.943Z</time></trkpt><trkpt lat="45.7982057" lon="9.2030181"><ele>341.40000000000003</ele><time>2026-03-29T17:19:09.943Z</time></trkpt><trkpt lat="45.7981085" lon="9.2029355"><ele>341.6</ele><time>2026-03-29T17:19:10.944Z</time></trkpt><trkpt lat="45.7980121" lon="9.2028553"><ele>341.8</ele><time>2026-03-29T17:19:11.944Z</time></trkpt><trkpt lat="45.7979186" lon="9.2027759"><ele>342.0</ele><time>2026-03-29T17:19:12.944Z</time></trkpt><trkpt lat="45.7978278" lon="9.2026954"><ele>342.0</ele><time>2026-03-29T17:19:13.943Z</time></trkpt><trkpt lat="45.7977406" lon="9.2026229"><ele>342.0</ele><time>2026-03-29T17:19:14.944Z</time></trkpt><trkpt lat="45.7976606" lon="9.202551"><ele>342.0</ele><time>2026-03-29T17:19:15.942Z</time></trkpt><trkpt lat="45.7975835" lon="9.2024845"><ele>342.0</ele><time>2026-03-29T17:19:16.943Z</time></trkpt><trkpt lat="45.7975099" lon="9.2024259"><ele>342.0</ele><time>2026-03-29T17:19:17.943Z</time></trkpt><trkpt lat="45.7974338" lon="9.2023636"><ele>340.8</ele><time>2026-03-29T17:19:18.943Z</time></trkpt><trkpt lat="45.797351" lon="9.2022994"><ele>339.6</ele><time>2026-03-29T17:19:19.944Z</time></trkpt><trkpt lat="45.7972657" lon="9.2022275"><ele>338.40000000000003</ele><time>2026-03-29T17:19:20.944Z</time></trkpt><trkpt lat="45.7971825" lon="9.2021607"><ele>337.20000000000005</ele><time>2026-03-29T17:19:21.944Z</time></trkpt><trkpt lat="45.7970916" lon="9.2020848"><ele>336.0</ele><time>2026-03-29T17:19:22.942Z</time></trkpt><trkpt lat="45.7969973" lon="9.2020078"><ele>336.0</ele><time>2026-03-29T17:19:23.944Z</time></trkpt><trkpt lat="45.7968998" lon="9.2019318"><ele>336.0</ele><time>2026-03-29T17:19:24.944Z</time></trkpt><trkpt lat="45.7968025" lon="9.2018534"><ele>336.0</ele><time>2026-03-29T17:19:25.943Z</time></trkpt><trkpt lat="45.7967136" lon="9.2017703"><ele>336.0</ele><time>2026-03-29T17:19:26.944Z</time></trkpt><trkpt lat="45.7966408" lon="9.2016897"><ele>336.0</ele><time>2026-03-29T17:19:27.944Z</time></trkpt><trkpt lat="45.7965737" lon="9.2016198"><ele>336.20000000000005</ele><time>2026-03-29T17:19:28.943Z</time></trkpt><trkpt lat="45.7965052" lon="9.2015467"><ele>336.40000000000003</ele><time>2026-03-29T17:19:29.942Z</time></trkpt><trkpt lat="45.7964206" lon="9.2014504"><ele>336.6</ele><time>2026-03-29T17:19:30.944Z</time></trkpt><trkpt lat="45.7963166" lon="9.201373"><ele>336.8</ele><time>2026-03-29T17:19:31.942Z</time></trkpt><trkpt lat="45.7962068" lon="9.2013069"><ele>337.0</ele><time>2026-03-29T17:19:32.943Z</time></trkpt><trkpt lat="45.7961117" lon="9.2012427"><ele>337.3333333333333</ele><time>2026-03-29T17:19:33.943Z</time></trkpt><trkpt lat="45.7960328" lon="9.2011769"><ele>337.66666666666663</ele><time>2026-03-29T17:19:34.942Z</time></trkpt><trkpt lat="45.7959599" lon="9.2011153"><ele>338.0</ele><time>2026-03-29T17:19:35.943Z</time></trkpt><trkpt lat="45.7958792" lon="9.2010469"><ele>338.3333333333333</ele><time>2026-03-29T17:19:36.944Z</time></trkpt><trkpt lat="45.7958032" lon="9.2009957"><ele>338.6666666666667</ele><time>2026-03-29T17:19:37.943Z</time></trkpt><trkpt lat="45.7957132" lon="9.2009504"><ele>339.0</ele><time>2026-03-29T17:19:38.944Z</time></trkpt><trkpt lat="45.7956074" lon="9.2009128"><ele>339.2</ele><time>2026-03-29T17:19:39.944Z</time></trkpt><trkpt lat="45.7955004" lon="9.2008808"><ele>339.4</ele><time>2026-03-29T17:19:40.943Z</time></trkpt><trkpt lat="45.7954046" lon="9.2008495"><ele>339.6</ele><time>2026-03-29T17:19:41.943Z</time></trkpt><trkpt lat="45.7953139" lon="9.2008149"><ele>339.8</ele><time>2026-03-29T17:19:42.943Z</time></trkpt><trkpt lat="45.795229" lon="9.2007781"><ele>340.0</ele><time>2026-03-29T17:19:43.943Z</time></trkpt><trkpt lat="45.795144" lon="9.200732"><ele>338.8</ele><time>2026-03-29T17:19:44.943Z</time></trkpt><trkpt lat="45.7950643" lon="9.2006645"><ele>337.6</ele><time>2026-03-29T17:19:45.943Z</time></trkpt><trkpt lat="45.7949882" lon="9.2005794"><ele>336.4</ele><time>2026-03-29T17:19:46.943Z</time></trkpt><trkpt lat="45.794913" lon="9.2004871"><ele>335.2</ele><time>2026-03-29T17:19:47.944Z</time></trkpt><trkpt lat="45.7948433" lon="9.2003733"><ele>334.0</ele><time>2026-03-29T17:19:48.944Z</time></trkpt><trkpt lat="45.794781" lon="9.2002595"><ele>334.0</ele><time>2026-03-29T17:19:49.944Z</time></trkpt><trkpt lat="45.7947233" lon="9.2001489"><ele>334.0</ele><time>2026-03-29T17:19:50.944Z</time></trkpt><trkpt lat="45.7946662" lon="9.200042"><ele>334.0</ele><time>2026-03-29T17:19:51.944Z</time></trkpt><trkpt lat="45.7946137" lon="9.1999376"><ele>334.0</ele><time>2026-03-29T17:19:52.944Z</time></trkpt><trkpt lat="45.794564" lon="9.1998335"><ele>334.0</ele><time>2026-03-29T17:19:53.943Z</time></trkpt><trkpt lat="45.7945164" lon="9.1997367"><ele>334.0</ele><time>2026-03-29T17:19:54.943Z</time></trkpt><trkpt lat="45.7944647" lon="9.1996343"><ele>334.0</ele><time>2026-03-29T17:19:55.943Z</time></trkpt><trkpt lat="45.7944024" lon="9.1995167"><ele>334.0</ele><time>2026-03-29T17:19:56.942Z</time></trkpt><trkpt lat="45.7943336" lon="9.1993919"><ele>334.0</ele><time>2026-03-29T17:19:57.944Z</time></trkpt><trkpt lat="45.7942588" lon="9.1992559"><ele>334.0</ele><time>2026-03-29T17:19:58.944Z</time></trkpt><trkpt lat="45.7941819" lon="9.1991023"><ele>334.75</ele><time>2026-03-29T17:19:59.944Z</time></trkpt><trkpt lat="45.794106" lon="9.1989588"><ele>335.5</ele><time>2026-03-29T17:20:00.944Z</time></trkpt><trkpt lat="45.7940305" lon="9.1988256"><ele>336.25</ele><time>2026-03-29T17:20:01.943Z</time></trkpt><trkpt lat="45.7939554" lon="9.1987006"><ele>337.0</ele><time>2026-03-29T17:20:02.943Z</time></trkpt><trkpt lat="45.7938773" lon="9.1985913"><ele>337.0</ele><time>2026-03-29T17:20:03.943Z</time></trkpt><trkpt lat="45.7937912" lon="9.1984978"><ele>337.0</ele><time>2026-03-29T17:20:04.943Z</time></trkpt><trkpt lat="45.7936929" lon="9.1984111"><ele>337.0</ele><time>2026-03-29T17:20:05.944Z</time></trkpt><trkpt lat="45.7935848" lon="9.1983461"><ele>337.0</ele><time>2026-03-29T17:20:06.944Z</time></trkpt><trkpt lat="45.7934605" lon="9.19829"><ele>337.5</ele><time>2026-03-29T17:20:07.942Z</time></trkpt><trkpt lat="45.7933257" lon="9.1982441"><ele>338.0</ele><time>2026-03-29T17:20:08.943Z</time></trkpt><trkpt lat="45.7931932" lon="9.1982001"><ele>338.5</ele><time>2026-03-29T17:20:09.943Z</time></trkpt><trkpt lat="45.7930634" lon="9.1981636"><ele>339.0</ele><time>2026-03-29T17:20:10.944Z</time></trkpt><trkpt lat="45.7929441" lon="9.1981279"><ele>339.0</ele><time>2026-03-29T17:20:11.943Z</time></trkpt><trkpt lat="45.792832" lon="9.1980944"><ele>339.0</ele><time>2026-03-29T17:20:12.944Z</time></trkpt><trkpt lat="45.7927272" lon="9.1980668"><ele>339.0</ele><time>2026-03-29T17:20:13.943Z</time></trkpt><trkpt lat="45.7926256" lon="9.1980434"><ele>339.0</ele><time>2026-03-29T17:20:14.944Z</time></trkpt><trkpt lat="45.7925306" lon="9.1980256"><ele>339.0</ele><time>2026-03-29T17:20:15.943Z</time></trkpt><trkpt lat="45.7924308" lon="9.1980176"><ele>339.0</ele><time>2026-03-29T17:20:16.943Z</time></trkpt><trkpt lat="45.7923328" lon="9.1980126"><ele>339.0</ele><time>2026-03-29T17:20:17.944Z</time></trkpt><trkpt lat="45.7922429" lon="9.1980044"><ele>339.0</ele><time>2026-03-29T17:20:18.944Z</time></trkpt><trkpt lat="45.7921791" lon="9.1980049"><ele>339.0</ele><time>2026-03-29T17:20:19.943Z</time></trkpt><trkpt lat="45.7920835" lon="9.1980027"><ele>339.0</ele><time>2026-03-29T17:20:21.942Z</time></trkpt><trkpt lat="45.7920154" lon="9.1979984"><ele>339.0</ele><time>2026-03-29T17:20:23.944Z</time></trkpt><trkpt lat="45.7919487" lon="9.1979888"><ele>339.0</ele><time>2026-03-29T17:20:25.944Z</time></trkpt><trkpt lat="45.7918443" lon="9.1979873"><ele>339.0</ele><time>2026-03-29T17:20:27.943Z</time></trkpt><trkpt lat="45.7917343" lon="9.19798"><ele>339.0</ele><time>2026-03-29T17:20:29.944Z</time></trkpt><trkpt lat="45.7916333" lon="9.1979522"><ele>339.0</ele><time>2026-03-29T17:20:31.943Z</time></trkpt><trkpt lat="45.7915127" lon="9.1979244"><ele>339.0</ele><time>2026-03-29T17:20:33.943Z</time></trkpt><trkpt lat="45.7914489" lon="9.1979124"><ele>338.8333333333333</ele><time>2026-03-29T17:20:34.944Z</time></trkpt><trkpt lat="45.7913507" lon="9.1979048"><ele>338.6666666666667</ele><time>2026-03-29T17:20:36.944Z</time></trkpt><trkpt lat="45.7912782" lon="9.1978887"><ele>338.5</ele><time>2026-03-29T17:20:38.944Z</time></trkpt><trkpt lat="45.7912104" lon="9.197881"><ele>338.33333333333337</ele><time>2026-03-29T17:20:40.944Z</time></trkpt><trkpt lat="45.7911159" lon="9.1978648"><ele>338.1666666666667</ele><time>2026-03-29T17:20:42.943Z</time></trkpt><trkpt lat="45.7910066" lon="9.1978444"><ele>338.0</ele><time>2026-03-29T17:20:44.944Z</time></trkpt><trkpt lat="45.7909417" lon="9.1978278"><ele>337.5</ele><time>2026-03-29T17:20:45.942Z</time></trkpt><trkpt lat="45.7908776" lon="9.1978077"><ele>337.0</ele><time>2026-03-29T17:20:46.944Z</time></trkpt><trkpt lat="45.790807" lon="9.1978003"><ele>336.5</ele><time>2026-03-29T17:20:47.944Z</time></trkpt><trkpt lat="45.7907316" lon="9.1977848"><ele>336.0</ele><time>2026-03-29T17:20:48.943Z</time></trkpt><trkpt lat="45.7906495" lon="9.1977619"><ele>335.5</ele><time>2026-03-29T17:20:49.943Z</time></trkpt><trkpt lat="45.7905536" lon="9.1977385"><ele>335.0</ele><time>2026-03-29T17:20:50.942Z</time></trkpt><trkpt lat="45.7904554" lon="9.197714"><ele>335.0</ele><time>2026-03-29T17:20:51.944Z</time></trkpt><trkpt lat="45.7903526" lon="9.197688"><ele>335.0</ele><time>2026-03-29T17:20:52.944Z</time></trkpt><trkpt lat="45.790265" lon="9.1976674"><ele>335.0</ele><time>2026-03-29T17:20:53.943Z</time></trkpt><trkpt lat="45.7901714" lon="9.1976416"><ele>335.0</ele><time>2026-03-29T17:20:54.944Z</time></trkpt><trkpt lat="45.7900753" lon="9.1976057"><ele>335.0</ele><time>2026-03-29T17:20:55.944Z</time></trkpt><trkpt lat="45.7899792" lon="9.1975744"><ele>335.4</ele><time>2026-03-29T17:20:56.944Z</time></trkpt><trkpt lat="45.7898731" lon="9.1975396"><ele>335.8</ele><time>2026-03-29T17:20:57.945Z</time></trkpt><trkpt lat="45.7897646" lon="9.197503"><ele>336.20000000000005</ele><time>2026-03-29T17:20:58.943Z</time></trkpt><trkpt lat="45.7896616" lon="9.1974701"><ele>336.6</ele><time>2026-03-29T17:20:59.945Z</time></trkpt><trkpt lat="45.7895574" lon="9.1974305"><ele>337.0</ele><time>2026-03-29T17:21:00.945Z</time></trkpt><trkpt lat="45.7894512" lon="9.1973959"><ele>337.25</ele><time>2026-03-29T17:21:01.945Z</time></trkpt><trkpt lat="45.7893346" lon="9.1973611"><ele>337.5</ele><time>2026-03-29T17:21:02.944Z</time></trkpt><trkpt lat="45.7892144" lon="9.1973183"><ele>337.75</ele><time>2026-03-29T17:21:03.944Z</time></trkpt><trkpt lat="45.7890937" lon="9.1972792"><ele>338.0</ele><time>2026-03-29T17:21:04.944Z</time></trkpt><trkpt lat="45.7889735" lon="9.1972387"><ele>338.0</ele><time>2026-03-29T17:21:05.945Z</time></trkpt><trkpt lat="45.7888609" lon="9.1972006"><ele>338.0</ele><time>2026-03-29T17:21:06.944Z</time></trkpt><trkpt lat="45.788743" lon="9.1971603"><ele>338.0</ele><time>2026-03-29T17:21:07.945Z</time></trkpt><trkpt lat="45.7886192" lon="9.197115"><ele>338.0</ele><time>2026-03-29T17:21:08.944Z</time></trkpt><trkpt lat="45.7885004" lon="9.1970676"><ele>336.75</ele><time>2026-03-29T17:21:09.945Z</time></trkpt><trkpt lat="45.7883834" lon="9.1970048"><ele>335.5</ele><time>2026-03-29T17:21:10.944Z</time></trkpt><trkpt lat="45.7882647" lon="9.1969366"><ele>334.25</ele><time>2026-03-29T17:21:11.945Z</time></trkpt><trkpt lat="45.788149" lon="9.1968595"><ele>333.0</ele><time>2026-03-29T17:21:12.944Z</time></trkpt><trkpt lat="45.7880401" lon="9.1967826"><ele>333.0</ele><time>2026-03-29T17:21:13.944Z</time></trkpt><trkpt lat="45.7879325" lon="9.1967035"><ele>333.0</ele><time>2026-03-29T17:21:14.945Z</time></trkpt><trkpt lat="45.7878261" lon="9.1966219"><ele>333.0</ele><time>2026-03-29T17:21:15.944Z</time></trkpt><trkpt lat="45.7877155" lon="9.1965358"><ele>333.0</ele><time>2026-03-29T17:21:16.943Z</time></trkpt><trkpt lat="45.787599" lon="9.1964403"><ele>334.0</ele><time>2026-03-29T17:21:17.943Z</time></trkpt><trkpt lat="45.7874757" lon="9.1963505"><ele>335.0</ele><time>2026-03-29T17:21:18.944Z</time></trkpt><trkpt lat="45.7873324" lon="9.1962706"><ele>336.0</ele><time>2026-03-29T17:21:19.945Z</time></trkpt><trkpt lat="45.787178" lon="9.1962076"><ele>336.0</ele><time>2026-03-29T17:21:20.945Z</time></trkpt><trkpt lat="45.7870268" lon="9.1961663"><ele>336.0</ele><time>2026-03-29T17:21:21.945Z</time></trkpt><trkpt lat="45.7868792" lon="9.1961421"><ele>336.0</ele><time>2026-03-29T17:21:22.944Z</time></trkpt><trkpt lat="45.786733" lon="9.1961185"><ele>335.5</ele><time>2026-03-29T17:21:23.945Z</time></trkpt><trkpt lat="45.7865884" lon="9.1960907"><ele>335.0</ele><time>2026-03-29T17:21:24.944Z</time></trkpt><trkpt lat="45.7864421" lon="9.1960664"><ele>334.5</ele><time>2026-03-29T17:21:25.945Z</time></trkpt><trkpt lat="45.7862971" lon="9.1960387"><ele>334.0</ele><time>2026-03-29T17:21:26.945Z</time></trkpt><trkpt lat="45.7861508" lon="9.1960118"><ele>332.75</ele><time>2026-03-29T17:21:27.944Z</time></trkpt><trkpt lat="45.7860049" lon="9.1959866"><ele>331.5</ele><time>2026-03-29T17:21:28.945Z</time></trkpt><trkpt lat="45.785859" lon="9.1959603"><ele>330.25</ele><time>2026-03-29T17:21:29.944Z</time></trkpt><trkpt lat="45.7857141" lon="9.1959297"><ele>329.0</ele><time>2026-03-29T17:21:30.944Z</time></trkpt><trkpt lat="45.7855658" lon="9.1958831"><ele>329.0</ele><time>2026-03-29T17:21:31.944Z</time></trkpt><trkpt lat="45.7854175" lon="9.1958225"><ele>329.0</ele><time>2026-03-29T17:21:32.945Z</time></trkpt><trkpt lat="45.7852615" lon="9.195751"><ele>329.0</ele><time>2026-03-29T17:21:33.945Z</time></trkpt><trkpt lat="45.785103" lon="9.195672"><ele>330.6666666666667</ele><time>2026-03-29T17:21:34.945Z</time></trkpt><trkpt lat="45.7849361" lon="9.1955883"><ele>332.3333333333333</ele><time>2026-03-29T17:21:35.945Z</time></trkpt><trkpt lat="45.7847723" lon="9.1955056"><ele>334.0</ele><time>2026-03-29T17:21:36.944Z</time></trkpt><trkpt lat="45.7846158" lon="9.1954288"><ele>334.0</ele><time>2026-03-29T17:21:37.945Z</time></trkpt><trkpt lat="45.7844696" lon="9.1953525"><ele>334.0</ele><time>2026-03-29T17:21:38.943Z</time></trkpt><trkpt lat="45.7843283" lon="9.1952743"><ele>334.0</ele><time>2026-03-29T17:21:39.944Z</time></trkpt><trkpt lat="45.784186" lon="9.1952002"><ele>333.66666666666663</ele><time>2026-03-29T17:21:40.945Z</time></trkpt><trkpt lat="45.7840382" lon="9.195125"><ele>333.3333333333333</ele><time>2026-03-29T17:21:41.944Z</time></trkpt><trkpt lat="45.7838939" lon="9.1950504"><ele>333.0</ele><time>2026-03-29T17:21:42.945Z</time></trkpt><trkpt lat="45.7837463" lon="9.1949773"><ele>333.0</ele><time>2026-03-29T17:21:43.945Z</time></trkpt><trkpt lat="45.7836131" lon="9.1949088"><ele>333.0</ele><time>2026-03-29T17:21:44.945Z</time></trkpt><trkpt lat="45.783475" lon="9.1948412"><ele>333.0</ele><time>2026-03-29T17:21:45.944Z</time></trkpt><trkpt lat="45.7833339" lon="9.1947722"><ele>333.0</ele><time>2026-03-29T17:21:46.944Z</time></trkpt><trkpt lat="45.7831941" lon="9.1947"><ele>333.3333333333333</ele><time>2026-03-29T17:21:47.945Z</time></trkpt><trkpt lat="45.7830594" lon="9.1946116"><ele>333.66666666666663</ele><time>2026-03-29T17:21:48.944Z</time></trkpt><trkpt lat="45.7829202" lon="9.1945072"><ele>334.0</ele><time>2026-03-29T17:21:49.944Z</time></trkpt><trkpt lat="45.782779" lon="9.1943936"><ele>333.5</ele><time>2026-03-29T17:21:50.944Z</time></trkpt><trkpt lat="45.7826457" lon="9.1942806"><ele>333.0</ele><time>2026-03-29T17:21:51.943Z</time></trkpt><trkpt lat="45.7825246" lon="9.1941727"><ele>332.5</ele><time>2026-03-29T17:21:52.944Z</time></trkpt><trkpt lat="45.7824093" lon="9.1940682"><ele>332.0</ele><time>2026-03-29T17:21:53.945Z</time></trkpt><trkpt lat="45.7822923" lon="9.1939615"><ele>332.5</ele><time>2026-03-29T17:21:54.945Z</time></trkpt><trkpt lat="45.7821698" lon="9.1938577"><ele>333.0</ele><time>2026-03-29T17:21:55.945Z</time></trkpt><trkpt lat="45.782039" lon="9.1937518"><ele>333.5</ele><time>2026-03-29T17:21:56.945Z</time></trkpt><trkpt lat="45.7818987" lon="9.1936507"><ele>334.0</ele><time>2026-03-29T17:21:57.945Z</time></trkpt><trkpt lat="45.7817554" lon="9.1935588"><ele>334.0</ele><time>2026-03-29T17:21:58.945Z</time></trkpt><trkpt lat="45.7816135" lon="9.1934741"><ele>334.0</ele><time>2026-03-29T17:21:59.944Z</time></trkpt><trkpt lat="45.7814675" lon="9.1933915"><ele>334.0</ele><time>2026-03-29T17:22:00.944Z</time></trkpt><trkpt lat="45.7813201" lon="9.1933104"><ele>334.0</ele><time>2026-03-29T17:22:01.944Z</time></trkpt><trkpt lat="45.7811725" lon="9.1932306"><ele>334.0</ele><time>2026-03-29T17:22:02.944Z</time></trkpt><trkpt lat="45.7810302" lon="9.1931527"><ele>334.0</ele><time>2026-03-29T17:22:03.945Z</time></trkpt><trkpt lat="45.7808928" lon="9.1930732"><ele>335.25</ele><time>2026-03-29T17:22:04.944Z</time></trkpt><trkpt lat="45.7807545" lon="9.1930054"><ele>336.5</ele><time>2026-03-29T17:22:05.945Z</time></trkpt><trkpt lat="45.7806144" lon="9.1929481"><ele>337.75</ele><time>2026-03-29T17:22:06.945Z</time></trkpt><trkpt lat="45.7804716" lon="9.1929031"><ele>339.0</ele><time>2026-03-29T17:22:07.945Z</time></trkpt><trkpt lat="45.7803274" lon="9.1928732"><ele>336.3333333333333</ele><time>2026-03-29T17:22:08.945Z</time></trkpt><trkpt lat="45.7801816" lon="9.1928542"><ele>333.66666666666663</ele><time>2026-03-29T17:22:09.944Z</time></trkpt><trkpt lat="45.7800307" lon="9.1928485"><ele>331.0</ele><time>2026-03-29T17:22:10.945Z</time></trkpt><trkpt lat="45.7798647" lon="9.1928657"><ele>331.0</ele><time>2026-03-29T17:22:11.945Z</time></trkpt><trkpt lat="45.7796845" lon="9.1929161"><ele>331.0</ele><time>2026-03-29T17:22:12.945Z</time></trkpt><trkpt lat="45.7795112" lon="9.1929747"><ele>331.0</ele><time>2026-03-29T17:22:13.944Z</time></trkpt><trkpt lat="45.7792881" lon="9.1930592"><ele>331.0</ele><time>2026-03-29T17:22:14.944Z</time></trkpt><trkpt lat="45.779074" lon="9.1931475"><ele>331.0</ele><time>2026-03-29T17:22:15.945Z</time></trkpt><trkpt lat="45.7788749" lon="9.1932282"><ele>331.0</ele><time>2026-03-29T17:22:16.944Z</time></trkpt><trkpt lat="45.7786877" lon="9.1933026"><ele>330.0</ele><time>2026-03-29T17:22:17.944Z</time></trkpt><trkpt lat="45.7785044" lon="9.1933656"><ele>329.0</ele><time>2026-03-29T17:22:18.944Z</time></trkpt><trkpt lat="45.7783269" lon="9.1934179"><ele>328.0</ele><time>2026-03-29T17:22:19.944Z</time></trkpt><trkpt lat="45.7781557" lon="9.1934602"><ele>328.0</ele><time>2026-03-29T17:22:20.944Z</time></trkpt><trkpt lat="45.7779832" lon="9.1935011"><ele>328.0</ele><time>2026-03-29T17:22:21.943Z</time></trkpt><trkpt lat="45.7778089" lon="9.1935437"><ele>328.0</ele><time>2026-03-29T17:22:22.943Z</time></trkpt><trkpt lat="45.777634" lon="9.1935835"><ele>328.66666666666663</ele><time>2026-03-29T17:22:23.945Z</time></trkpt><trkpt lat="45.7774577" lon="9.1936287"><ele>329.3333333333333</ele><time>2026-03-29T17:22:24.945Z</time></trkpt><trkpt lat="45.7772856" lon="9.1936787"><ele>330.0</ele><time>2026-03-29T17:22:25.943Z</time></trkpt><trkpt lat="45.7771098" lon="9.1937282"><ele>330.0</ele><time>2026-03-29T17:22:26.943Z</time></trkpt><trkpt lat="45.7769414" lon="9.1937753"><ele>330.0</ele><time>2026-03-29T17:22:27.945Z</time></trkpt><trkpt lat="45.7767826" lon="9.1938186"><ele>330.0</ele><time>2026-03-29T17:22:28.944Z</time></trkpt><trkpt lat="45.7766287" lon="9.1938578"><ele>330.0</ele><time>2026-03-29T17:22:29.944Z</time></trkpt><trkpt lat="45.7764766" lon="9.1938882"><ele>330.0</ele><time>2026-03-29T17:22:30.945Z</time></trkpt><trkpt lat="45.7763194" lon="9.193903"><ele>330.0</ele><time>2026-03-29T17:22:31.944Z</time></trkpt><trkpt lat="45.776159" lon="9.1939036"><ele>329.75</ele><time>2026-03-29T17:22:32.944Z</time></trkpt><trkpt lat="45.7760097" lon="9.1938981"><ele>329.5</ele><time>2026-03-29T17:22:33.944Z</time></trkpt><trkpt lat="45.7758787" lon="9.1938848"><ele>329.25</ele><time>2026-03-29T17:22:34.944Z</time></trkpt><trkpt lat="45.7757544" lon="9.1938714"><ele>329.0</ele><time>2026-03-29T17:22:35.944Z</time></trkpt><trkpt lat="45.7756373" lon="9.1938632"><ele>329.0</ele><time>2026-03-29T17:22:36.945Z</time></trkpt><trkpt lat="45.7755315" lon="9.1938517"><ele>329.0</ele><time>2026-03-29T17:22:37.944Z</time></trkpt><trkpt lat="45.7754366" lon="9.1938408"><ele>329.0</ele><time>2026-03-29T17:22:38.944Z</time></trkpt><trkpt lat="45.7753572" lon="9.1938264"><ele>329.0</ele><time>2026-03-29T17:22:39.944Z</time></trkpt><trkpt lat="45.775286" lon="9.1938071"><ele>329.0</ele><time>2026-03-29T17:22:40.945Z</time></trkpt><trkpt lat="45.7752229" lon="9.1937918"><ele>329.0</ele><time>2026-03-29T17:22:41.944Z</time></trkpt><trkpt lat="45.7751147" lon="9.1937517"><ele>329.33333333333337</ele><time>2026-03-29T17:22:43.944Z</time></trkpt><trkpt lat="45.7750305" lon="9.193641"><ele>329.6666666666667</ele><time>2026-03-29T17:22:45.945Z</time></trkpt><trkpt lat="45.7750044" lon="9.1935559"><ele>330.0</ele><time>2026-03-29T17:22:46.944Z</time></trkpt><trkpt lat="45.7749967" lon="9.1934577"><ele>330.3333333333333</ele><time>2026-03-29T17:22:47.944Z</time></trkpt><trkpt lat="45.7750087" lon="9.1933547"><ele>330.66666666666663</ele><time>2026-03-29T17:22:48.945Z</time></trkpt><trkpt lat="45.7750507" lon="9.1932462"><ele>331.0</ele><time>2026-03-29T17:22:49.944Z</time></trkpt><trkpt lat="45.7751164" lon="9.1931368"><ele>332.20000000000005</ele><time>2026-03-29T17:22:50.944Z</time></trkpt><trkpt lat="45.7751914" lon="9.1930557"><ele>333.40000000000003</ele><time>2026-03-29T17:22:51.944Z</time></trkpt><trkpt lat="45.775268" lon="9.1929866"><ele>334.6</ele><time>2026-03-29T17:22:52.943Z</time></trkpt><trkpt lat="45.775352" lon="9.1929247"><ele>335.8</ele><time>2026-03-29T17:22:53.943Z</time></trkpt><trkpt lat="45.7754384" lon="9.1928544"><ele>337.0</ele><time>2026-03-29T17:22:54.944Z</time></trkpt><trkpt lat="45.7755395" lon="9.1927683"><ele>337.0</ele><time>2026-03-29T17:22:55.944Z</time></trkpt><trkpt lat="45.7756549" lon="9.1926734"><ele>337.0</ele><time>2026-03-29T17:22:56.944Z</time></trkpt><trkpt lat="45.7757689" lon="9.1925823"><ele>337.0</ele><time>2026-03-29T17:22:57.943Z</time></trkpt><trkpt lat="45.775873" lon="9.1925007"><ele>337.0</ele><time>2026-03-29T17:22:58.944Z</time></trkpt><trkpt lat="45.7759764" lon="9.1924108"><ele>338.0</ele><time>2026-03-29T17:22:59.943Z</time></trkpt><trkpt lat="45.7760829" lon="9.1923167"><ele>339.0</ele><time>2026-03-29T17:23:00.944Z</time></trkpt><trkpt lat="45.7761963" lon="9.1922209"><ele>340.0</ele><time>2026-03-29T17:23:01.944Z</time></trkpt><trkpt lat="45.7763092" lon="9.1921122"><ele>341.0</ele><time>2026-03-29T17:23:02.944Z</time></trkpt><trkpt lat="45.7764181" lon="9.1919848"><ele>341.0</ele><time>2026-03-29T17:23:03.943Z</time></trkpt><trkpt lat="45.7765199" lon="9.1918456"><ele>341.0</ele><time>2026-03-29T17:23:04.942Z</time></trkpt><trkpt lat="45.7766099" lon="9.1916876"><ele>341.0</ele><time>2026-03-29T17:23:05.943Z</time></trkpt><trkpt lat="45.7766892" lon="9.1915127"><ele>341.0</ele><time>2026-03-29T17:23:06.944Z</time></trkpt><trkpt lat="45.7767584" lon="9.1913302"><ele>342.33333333333337</ele><time>2026-03-29T17:23:07.943Z</time></trkpt><trkpt lat="45.7768164" lon="9.1911396"><ele>343.6666666666667</ele><time>2026-03-29T17:23:08.944Z</time></trkpt><trkpt lat="45.7768644" lon="9.1909342"><ele>345.0</ele><time>2026-03-29T17:23:09.944Z</time></trkpt><trkpt lat="45.7769047" lon="9.1907088"><ele>343.3333333333333</ele><time>2026-03-29T17:23:10.944Z</time></trkpt><trkpt lat="45.7769387" lon="9.1904781"><ele>341.66666666666663</ele><time>2026-03-29T17:23:11.943Z</time></trkpt><trkpt lat="45.7769698" lon="9.1902688"><ele>340.0</ele><time>2026-03-29T17:23:12.944Z</time></trkpt><trkpt lat="45.7770019" lon="9.1900635"><ele>340.0</ele><time>2026-03-29T17:23:13.944Z</time></trkpt><trkpt lat="45.7770335" lon="9.1898607"><ele>340.0</ele><time>2026-03-29T17:23:14.943Z</time></trkpt><trkpt lat="45.7770668" lon="9.1896586"><ele>340.0</ele><time>2026-03-29T17:23:15.944Z</time></trkpt><trkpt lat="45.7771042" lon="9.1894576"><ele>340.0</ele><time>2026-03-29T17:23:16.944Z</time></trkpt><trkpt lat="45.7771526" lon="9.1892622"><ele>342.66666666666663</ele><time>2026-03-29T17:23:17.943Z</time></trkpt><trkpt lat="45.777208" lon="9.1890682"><ele>345.3333333333333</ele><time>2026-03-29T17:23:18.943Z</time></trkpt><trkpt lat="45.7772748" lon="9.1888732"><ele>348.0</ele><time>2026-03-29T17:23:19.944Z</time></trkpt><trkpt lat="45.7773488" lon="9.1886805"><ele>349.75</ele><time>2026-03-29T17:23:20.944Z</time></trkpt><trkpt lat="45.7774248" lon="9.188504"><ele>351.5</ele><time>2026-03-29T17:23:21.944Z</time></trkpt><trkpt lat="45.7775017" lon="9.1883449"><ele>353.25</ele><time>2026-03-29T17:23:22.943Z</time></trkpt><trkpt lat="45.777581" lon="9.1881907"><ele>355.0</ele><time>2026-03-29T17:23:23.944Z</time></trkpt><trkpt lat="45.7776592" lon="9.1880357"><ele>356.25</ele><time>2026-03-29T17:23:24.943Z</time></trkpt><trkpt lat="45.7777421" lon="9.1878754"><ele>357.5</ele><time>2026-03-29T17:23:25.944Z</time></trkpt><trkpt lat="45.7778204" lon="9.1877156"><ele>358.75</ele><time>2026-03-29T17:23:26.944Z</time></trkpt><trkpt lat="45.7778891" lon="9.1875546"><ele>360.0</ele><time>2026-03-29T17:23:27.944Z</time></trkpt><trkpt lat="45.7779485" lon="9.1873835"><ele>361.25</ele><time>2026-03-29T17:23:28.944Z</time></trkpt><trkpt lat="45.7779948" lon="9.1872021"><ele>362.5</ele><time>2026-03-29T17:23:29.944Z</time></trkpt><trkpt lat="45.7780256" lon="9.1870213"><ele>363.75</ele><time>2026-03-29T17:23:30.943Z</time></trkpt><trkpt lat="45.7780477" lon="9.1868581"><ele>365.0</ele><time>2026-03-29T17:23:31.944Z</time></trkpt><trkpt lat="45.7780558" lon="9.1867018"><ele>365.0</ele><time>2026-03-29T17:23:32.944Z</time></trkpt><trkpt lat="45.7780604" lon="9.1865533"><ele>365.0</ele><time>2026-03-29T17:23:33.944Z</time></trkpt><trkpt lat="45.7780653" lon="9.1864028"><ele>365.0</ele><time>2026-03-29T17:23:34.943Z</time></trkpt><trkpt lat="45.7780676" lon="9.1862665"><ele>365.0</ele><time>2026-03-29T17:23:35.944Z</time></trkpt><trkpt lat="45.7780663" lon="9.186145"><ele>365.0</ele><time>2026-03-29T17:23:36.944Z</time></trkpt><trkpt lat="45.7780662" lon="9.1860298"><ele>365.6666666666667</ele><time>2026-03-29T17:23:37.943Z</time></trkpt><trkpt lat="45.7780677" lon="9.1859385"><ele>366.33333333333337</ele><time>2026-03-29T17:23:38.944Z</time></trkpt><trkpt lat="45.7780834" lon="9.1857796"><ele>367.0</ele><time>2026-03-29T17:23:40.944Z</time></trkpt><trkpt lat="45.778114" lon="9.1856993"><ele>367.6666666666667</ele><time>2026-03-29T17:23:41.944Z</time></trkpt><trkpt lat="45.7781789" lon="9.1855616"><ele>368.3333333333333</ele><time>2026-03-29T17:23:43.943Z</time></trkpt><trkpt lat="45.7781658" lon="9.1854725"><ele>369.0</ele><time>2026-03-29T17:23:44.943Z</time></trkpt><trkpt lat="45.7780779" lon="9.185365"><ele>369.6666666666667</ele><time>2026-03-29T17:23:46.944Z</time></trkpt><trkpt lat="45.7780114" lon="9.1853748"><ele>370.3333333333333</ele><time>2026-03-29T17:23:47.944Z</time></trkpt><trkpt lat="45.7779439" lon="9.1854075"><ele>371.0</ele><time>2026-03-29T17:23:48.943Z</time></trkpt><trkpt lat="45.7778709" lon="9.1854407"><ele>371.66666666666663</ele><time>2026-03-29T17:23:49.942Z</time></trkpt><trkpt lat="45.7777888" lon="9.1854658"><ele>372.3333333333333</ele><time>2026-03-29T17:23:50.944Z</time></trkpt><trkpt lat="45.7776914" lon="9.1854798"><ele>373.0</ele><time>2026-03-29T17:23:51.943Z</time></trkpt><trkpt lat="45.7775945" lon="9.1854881"><ele>373.0</ele><time>2026-03-29T17:23:52.943Z</time></trkpt><trkpt lat="45.7775081" lon="9.18549"><ele>373.0</ele><time>2026-03-29T17:23:53.944Z</time></trkpt><trkpt lat="45.7774213" lon="9.185494"><ele>373.0</ele><time>2026-03-29T17:23:54.944Z</time></trkpt><trkpt lat="45.777324" lon="9.1855085"><ele>373.0</ele><time>2026-03-29T17:23:55.944Z</time></trkpt><trkpt lat="45.7772081" lon="9.1855404"><ele>373.0</ele><time>2026-03-29T17:23:56.944Z</time></trkpt><trkpt lat="45.7770829" lon="9.1855942"><ele>373.0</ele><time>2026-03-29T17:23:57.944Z</time></trkpt><trkpt lat="45.7769387" lon="9.1856709"><ele>373.0</ele><time>2026-03-29T17:23:58.943Z</time></trkpt><trkpt lat="45.7767739" lon="9.1857638"><ele>373.0</ele><time>2026-03-29T17:23:59.943Z</time></trkpt><trkpt lat="45.7766206" lon="9.1858396"><ele>372.75</ele><time>2026-03-29T17:24:00.944Z</time></trkpt><trkpt lat="45.7764764" lon="9.1859098"><ele>372.5</ele><time>2026-03-29T17:24:01.944Z</time></trkpt><trkpt lat="45.7763444" lon="9.1859767"><ele>372.25</ele><time>2026-03-29T17:24:02.943Z</time></trkpt><trkpt lat="45.7762211" lon="9.1860428"><ele>372.0</ele><time>2026-03-29T17:24:03.944Z</time></trkpt><trkpt lat="45.7760992" lon="9.1861063"><ele>374.40000000000003</ele><time>2026-03-29T17:24:04.944Z</time></trkpt><trkpt lat="45.775986" lon="9.1861662"><ele>376.8</ele><time>2026-03-29T17:24:05.943Z</time></trkpt><trkpt lat="45.7758807" lon="9.1862213"><ele>379.2</ele><time>2026-03-29T17:24:06.943Z</time></trkpt><trkpt lat="45.7757808" lon="9.1862735"><ele>381.6</ele><time>2026-03-29T17:24:07.944Z</time></trkpt><trkpt lat="45.7756783" lon="9.186318"><ele>384.0</ele><time>2026-03-29T17:24:08.944Z</time></trkpt><trkpt lat="45.7755683" lon="9.1863448"><ele>384.0</ele><time>2026-03-29T17:24:09.943Z</time></trkpt><trkpt lat="45.7754597" lon="9.1863549"><ele>384.0</ele><time>2026-03-29T17:24:10.944Z</time></trkpt><trkpt lat="45.7753377" lon="9.1863472"><ele>384.0</ele><time>2026-03-29T17:24:11.943Z</time></trkpt><trkpt lat="45.7752252" lon="9.186324"><ele>384.0</ele><time>2026-03-29T17:24:12.943Z</time></trkpt><trkpt lat="45.7751335" lon="9.1862814"><ele>384.0</ele><time>2026-03-29T17:24:13.944Z</time></trkpt><trkpt lat="45.7750327" lon="9.1861963"><ele>384.5</ele><time>2026-03-29T17:24:14.944Z</time></trkpt><trkpt lat="45.7749525" lon="9.1861039"><ele>385.0</ele><time>2026-03-29T17:24:15.944Z</time></trkpt><trkpt lat="45.7748736" lon="9.1859862"><ele>385.5</ele><time>2026-03-29T17:24:16.944Z</time></trkpt><trkpt lat="45.7747952" lon="9.1858521"><ele>386.0</ele><time>2026-03-29T17:24:17.944Z</time></trkpt><trkpt lat="45.7747242" lon="9.1857146"><ele>388.25</ele><time>2026-03-29T17:24:18.944Z</time></trkpt><trkpt lat="45.7746565" lon="9.18557"><ele>390.5</ele><time>2026-03-29T17:24:19.943Z</time></trkpt><trkpt lat="45.7745831" lon="9.1854286"><ele>392.75</ele><time>2026-03-29T17:24:20.942Z</time></trkpt><trkpt lat="45.7745108" lon="9.1852889"><ele>395.0</ele><time>2026-03-29T17:24:21.944Z</time></trkpt><trkpt lat="45.7744412" lon="9.1851583"><ele>395.0</ele><time>2026-03-29T17:24:22.944Z</time></trkpt><trkpt lat="45.7743619" lon="9.1850444"><ele>395.0</ele><time>2026-03-29T17:24:23.944Z</time></trkpt><trkpt lat="45.7742735" lon="9.1849433"><ele>395.0</ele><time>2026-03-29T17:24:24.942Z</time></trkpt><trkpt lat="45.7741726" lon="9.1848524"><ele>395.0</ele><time>2026-03-29T17:24:25.944Z</time></trkpt><trkpt lat="45.7740596" lon="9.1847737"><ele>390.5</ele><time>2026-03-29T17:24:26.943Z</time></trkpt><trkpt lat="45.7739278" lon="9.1847142"><ele>386.0</ele><time>2026-03-29T17:24:27.944Z</time></trkpt><trkpt lat="45.7737899" lon="9.1846752"><ele>381.5</ele><time>2026-03-29T17:24:28.944Z</time></trkpt><trkpt lat="45.7736607" lon="9.1846623"><ele>377.0</ele><time>2026-03-29T17:24:29.943Z</time></trkpt><trkpt lat="45.7735319" lon="9.1846547"><ele>374.5</ele><time>2026-03-29T17:24:30.944Z</time></trkpt><trkpt lat="45.7734068" lon="9.1846489"><ele>372.0</ele><time>2026-03-29T17:24:31.944Z</time></trkpt><trkpt lat="45.7732802" lon="9.184643"><ele>369.5</ele><time>2026-03-29T17:24:32.944Z</time></trkpt><trkpt lat="45.773152" lon="9.1846378"><ele>367.0</ele><time>2026-03-29T17:24:33.943Z</time></trkpt><trkpt lat="45.7730236" lon="9.1846313"><ele>367.0</ele><time>2026-03-29T17:24:34.943Z</time></trkpt><trkpt lat="45.7728976" lon="9.1846243"><ele>367.0</ele><time>2026-03-29T17:24:35.944Z</time></trkpt><trkpt lat="45.7727771" lon="9.184621"><ele>367.0</ele><time>2026-03-29T17:24:36.944Z</time></trkpt><trkpt lat="45.7726612" lon="9.1846131"><ele>367.0</ele><time>2026-03-29T17:24:37.943Z</time></trkpt><trkpt lat="45.7725511" lon="9.184603"><ele>366.5</ele><time>2026-03-29T17:24:38.944Z</time></trkpt><trkpt lat="45.7724377" lon="9.184585"><ele>366.0</ele><time>2026-03-29T17:24:39.943Z</time></trkpt><trkpt lat="45.7723163" lon="9.1845511"><ele>365.5</ele><time>2026-03-29T17:24:40.943Z</time></trkpt><trkpt lat="45.772187" lon="9.1844982"><ele>365.0</ele><time>2026-03-29T17:24:41.943Z</time></trkpt><trkpt lat="45.7720495" lon="9.1844197"><ele>365.0</ele><time>2026-03-29T17:24:42.942Z</time></trkpt><trkpt lat="45.7719163" lon="9.1843307"><ele>365.0</ele><time>2026-03-29T17:24:43.943Z</time></trkpt><trkpt lat="45.7717838" lon="9.1842324"><ele>365.0</ele><time>2026-03-29T17:24:44.943Z</time></trkpt><trkpt lat="45.7716587" lon="9.1841376"><ele>365.0</ele><time>2026-03-29T17:24:45.944Z</time></trkpt><trkpt lat="45.7715501" lon="9.1840524"><ele>364.25</ele><time>2026-03-29T17:24:46.943Z</time></trkpt><trkpt lat="45.7714231" lon="9.1839651"><ele>363.5</ele><time>2026-03-29T17:24:47.944Z</time></trkpt><trkpt lat="45.771312" lon="9.1838848"><ele>362.75</ele><time>2026-03-29T17:24:48.944Z</time></trkpt><trkpt lat="45.7712107" lon="9.1838049"><ele>362.0</ele><time>2026-03-29T17:24:49.944Z</time></trkpt><trkpt lat="45.7711201" lon="9.1837382"><ele>362.0</ele><time>2026-03-29T17:24:50.944Z</time></trkpt><trkpt lat="45.7710332" lon="9.183676"><ele>362.0</ele><time>2026-03-29T17:24:51.943Z</time></trkpt><trkpt lat="45.7709411" lon="9.183609"><ele>362.0</ele><time>2026-03-29T17:24:52.944Z</time></trkpt><trkpt lat="45.7708476" lon="9.1835342"><ele>362.0</ele><time>2026-03-29T17:24:53.944Z</time></trkpt><trkpt lat="45.7707546" lon="9.1834614"><ele>362.0</ele><time>2026-03-29T17:24:54.944Z</time></trkpt><trkpt lat="45.7706597" lon="9.1833956"><ele>361.6</ele><time>2026-03-29T17:24:55.942Z</time></trkpt><trkpt lat="45.7705706" lon="9.1833303"><ele>361.20000000000005</ele><time>2026-03-29T17:24:56.943Z</time></trkpt><trkpt lat="45.7704833" lon="9.1832674"><ele>360.8</ele><time>2026-03-29T17:24:57.944Z</time></trkpt><trkpt lat="45.7703971" lon="9.1832025"><ele>360.4</ele><time>2026-03-29T17:24:58.943Z</time></trkpt><trkpt lat="45.7703203" lon="9.1831465"><ele>360.0</ele><time>2026-03-29T17:24:59.943Z</time></trkpt><trkpt lat="45.7702493" lon="9.1830941"><ele>359.3333333333333</ele><time>2026-03-29T17:25:00.943Z</time></trkpt><trkpt lat="45.7701722" lon="9.1830377"><ele>358.6666666666667</ele><time>2026-03-29T17:25:01.944Z</time></trkpt><trkpt lat="45.7700961" lon="9.1829824"><ele>358.0</ele><time>2026-03-29T17:25:02.944Z</time></trkpt><trkpt lat="45.7700228" lon="9.182928"><ele>357.33333333333337</ele><time>2026-03-29T17:25:03.944Z</time></trkpt><trkpt lat="45.7699595" lon="9.1828809"><ele>356.6666666666667</ele><time>2026-03-29T17:25:04.944Z</time></trkpt><trkpt lat="45.7698687" lon="9.1828189"><ele>356.0</ele><time>2026-03-29T17:25:06.943Z</time></trkpt><trkpt lat="45.769803" lon="9.1827787"><ele>356.0</ele><time>2026-03-29T17:25:08.944Z</time></trkpt><trkpt lat="45.7697398" lon="9.1826975"><ele>356.0</ele><time>2026-03-29T17:25:11.944Z</time></trkpt><trkpt lat="45.7696969" lon="9.1826082"><ele>356.0</ele><time>2026-03-29T17:25:13.944Z</time></trkpt><trkpt lat="45.7696763" lon="9.1824968"><ele>356.0</ele><time>2026-03-29T17:25:15.944Z</time></trkpt><trkpt lat="45.7696638" lon="9.1823597"><ele>356.0</ele><time>2026-03-29T17:25:17.944Z</time></trkpt><trkpt lat="45.7695864" lon="9.182245"><ele>356.0</ele><time>2026-03-29T17:25:19.943Z</time></trkpt><trkpt lat="45.7695051" lon="9.1821851"><ele>356.0</ele><time>2026-03-29T17:25:20.943Z</time></trkpt><trkpt lat="45.7694003" lon="9.1820864"><ele>356.0</ele><time>2026-03-29T17:25:21.944Z</time></trkpt><trkpt lat="45.769292" lon="9.1819691"><ele>356.0</ele><time>2026-03-29T17:25:22.943Z</time></trkpt><trkpt lat="45.7691969" lon="9.1818537"><ele>356.0</ele><time>2026-03-29T17:25:23.944Z</time></trkpt><trkpt lat="45.7690965" lon="9.1817056"><ele>355.4</ele><time>2026-03-29T17:25:24.943Z</time></trkpt><trkpt lat="45.7690081" lon="9.181587"><ele>354.8</ele><time>2026-03-29T17:25:25.944Z</time></trkpt><trkpt lat="45.7689481" lon="9.1815254"><ele>354.2</ele><time>2026-03-29T17:25:26.944Z</time></trkpt><trkpt lat="45.7688598" lon="9.181416"><ele>353.59999999999997</ele><time>2026-03-29T17:25:27.943Z</time></trkpt><trkpt lat="45.7687795" lon="9.1813099"><ele>353.0</ele><time>2026-03-29T17:25:28.943Z</time></trkpt><trkpt lat="45.7687005" lon="9.1812044"><ele>352.75</ele><time>2026-03-29T17:25:29.944Z</time></trkpt><trkpt lat="45.7686146" lon="9.1810976"><ele>352.5</ele><time>2026-03-29T17:25:30.944Z</time></trkpt><trkpt lat="45.7685275" lon="9.1809878"><ele>352.25</ele><time>2026-03-29T17:25:31.943Z</time></trkpt><trkpt lat="45.7684326" lon="9.1808711"><ele>352.0</ele><time>2026-03-29T17:25:32.944Z</time></trkpt><trkpt lat="45.7683406" lon="9.1807478"><ele>352.25</ele><time>2026-03-29T17:25:33.944Z</time></trkpt><trkpt lat="45.7682512" lon="9.1806282"><ele>352.5</ele><time>2026-03-29T17:25:34.944Z</time></trkpt><trkpt lat="45.7681658" lon="9.1805142"><ele>352.75</ele><time>2026-03-29T17:25:35.944Z</time></trkpt><trkpt lat="45.7680842" lon="9.1804083"><ele>353.0</ele><time>2026-03-29T17:25:36.943Z</time></trkpt><trkpt lat="45.7679994" lon="9.1802948"><ele>353.0</ele><time>2026-03-29T17:25:37.943Z</time></trkpt><trkpt lat="45.7679157" lon="9.1801817"><ele>353.0</ele><time>2026-03-29T17:25:38.943Z</time></trkpt><trkpt lat="45.7678329" lon="9.1800687"><ele>353.0</ele><time>2026-03-29T17:25:39.942Z</time></trkpt><trkpt lat="45.7677557" lon="9.1799427"><ele>353.0</ele><time>2026-03-29T17:25:40.944Z</time></trkpt><trkpt lat="45.7676857" lon="9.1797927"><ele>352.25</ele><time>2026-03-29T17:25:41.943Z</time></trkpt><trkpt lat="45.7676161" lon="9.1796205"><ele>351.5</ele><time>2026-03-29T17:25:42.943Z</time></trkpt><trkpt lat="45.7675493" lon="9.1794305"><ele>350.75</ele><time>2026-03-29T17:25:43.942Z</time></trkpt><trkpt lat="45.7674947" lon="9.1792452"><ele>350.0</ele><time>2026-03-29T17:25:44.943Z</time></trkpt><trkpt lat="45.7674407" lon="9.1790534"><ele>349.75</ele><time>2026-03-29T17:25:45.943Z</time></trkpt><trkpt lat="45.7673831" lon="9.1788595"><ele>349.5</ele><time>2026-03-29T17:25:46.944Z</time></trkpt><trkpt lat="45.7673294" lon="9.1786617"><ele>349.25</ele><time>2026-03-29T17:25:47.943Z</time></trkpt><trkpt lat="45.7672734" lon="9.1784633"><ele>349.0</ele><time>2026-03-29T17:25:48.943Z</time></trkpt><trkpt lat="45.7672162" lon="9.1782672"><ele>349.0</ele><time>2026-03-29T17:25:49.944Z</time></trkpt><trkpt lat="45.7671599" lon="9.1780712"><ele>349.0</ele><time>2026-03-29T17:25:50.944Z</time></trkpt><trkpt lat="45.7671041" lon="9.1778692"><ele>349.0</ele><time>2026-03-29T17:25:51.944Z</time></trkpt><trkpt lat="45.7670462" lon="9.1776666"><ele>349.0</ele><time>2026-03-29T17:25:52.944Z</time></trkpt><trkpt lat="45.7669891" lon="9.1774573"><ele>349.0</ele><time>2026-03-29T17:25:53.943Z</time></trkpt><trkpt lat="45.766929" lon="9.1772368"><ele>349.0</ele><time>2026-03-29T17:25:54.944Z</time></trkpt><trkpt lat="45.7668681" lon="9.1770006"><ele>348.0</ele><time>2026-03-29T17:25:55.943Z</time></trkpt><trkpt lat="45.7668119" lon="9.1767734"><ele>347.0</ele><time>2026-03-29T17:25:56.944Z</time></trkpt><trkpt lat="45.7667607" lon="9.1765522"><ele>346.0</ele><time>2026-03-29T17:25:57.943Z</time></trkpt><trkpt lat="45.7667047" lon="9.1763297"><ele>346.0</ele><time>2026-03-29T17:25:58.943Z</time></trkpt><trkpt lat="45.7666487" lon="9.1761163"><ele>346.0</ele><time>2026-03-29T17:25:59.944Z</time></trkpt><trkpt lat="45.7665973" lon="9.1759569"><ele>346.0</ele><time>2026-03-29T17:26:00.943Z</time></trkpt><trkpt lat="45.7665267" lon="9.1757896"><ele>346.0</ele><time>2026-03-29T17:26:01.942Z</time></trkpt><trkpt lat="45.766441" lon="9.1756323"><ele>347.0</ele><time>2026-03-29T17:26:02.944Z</time></trkpt><trkpt lat="45.7663365" lon="9.1755009"><ele>348.0</ele><time>2026-03-29T17:26:03.944Z</time></trkpt><trkpt lat="45.7662138" lon="9.1753807"><ele>349.0</ele><time>2026-03-29T17:26:04.943Z</time></trkpt><trkpt lat="45.7660757" lon="9.1752829"><ele>350.0</ele><time>2026-03-29T17:26:05.944Z</time></trkpt><trkpt lat="45.7659213" lon="9.1752154"><ele>353.0</ele><time>2026-03-29T17:26:06.943Z</time></trkpt><trkpt lat="45.7657532" lon="9.1751893"><ele>356.0</ele><time>2026-03-29T17:26:07.943Z</time></trkpt><trkpt lat="45.7655742" lon="9.1751868"><ele>359.0</ele><time>2026-03-29T17:26:08.944Z</time></trkpt><trkpt lat="45.7653859" lon="9.1752029"><ele>359.0</ele><time>2026-03-29T17:26:09.944Z</time></trkpt><trkpt lat="45.7652091" lon="9.1752227"><ele>359.0</ele><time>2026-03-29T17:26:10.944Z</time></trkpt><trkpt lat="45.7650532" lon="9.1752378"><ele>359.0</ele><time>2026-03-29T17:26:11.944Z</time></trkpt><trkpt lat="45.7649179" lon="9.1752458"><ele>360.0</ele><time>2026-03-29T17:26:12.944Z</time></trkpt><trkpt lat="45.7647859" lon="9.1752336"><ele>361.0</ele><time>2026-03-29T17:26:13.944Z</time></trkpt><trkpt lat="45.7646524" lon="9.1751863"><ele>362.0</ele><time>2026-03-29T17:26:14.944Z</time></trkpt><trkpt lat="45.7645215" lon="9.1751071"><ele>363.0</ele><time>2026-03-29T17:26:15.943Z</time></trkpt><trkpt lat="45.7643955" lon="9.1749985"><ele>364.0</ele><time>2026-03-29T17:26:16.944Z</time></trkpt><trkpt lat="45.764274" lon="9.1748558"><ele>365.0</ele><time>2026-03-29T17:26:17.942Z</time></trkpt><trkpt lat="45.7641564" lon="9.174682"><ele>366.0</ele><time>2026-03-29T17:26:18.944Z</time></trkpt><trkpt lat="45.7640318" lon="9.1744787"><ele>366.3333333333333</ele><time>2026-03-29T17:26:19.944Z</time></trkpt><trkpt lat="45.7639046" lon="9.1742638"><ele>366.66666666666663</ele><time>2026-03-29T17:26:20.944Z</time></trkpt><trkpt lat="45.7637826" lon="9.1740597"><ele>367.0</ele><time>2026-03-29T17:26:21.943Z</time></trkpt><trkpt lat="45.7636712" lon="9.1738776"><ele>367.3333333333333</ele><time>2026-03-29T17:26:22.943Z</time></trkpt><trkpt lat="45.7635602" lon="9.1737154"><ele>367.6666666666667</ele><time>2026-03-29T17:26:23.944Z</time></trkpt><trkpt lat="45.7634324" lon="9.1735773"><ele>368.0</ele><time>2026-03-29T17:26:24.944Z</time></trkpt><trkpt lat="45.7632787" lon="9.1734626"><ele>370.33333333333337</ele><time>2026-03-29T17:26:25.943Z</time></trkpt><trkpt lat="45.7631041" lon="9.173369"><ele>372.6666666666667</ele><time>2026-03-29T17:26:26.944Z</time></trkpt><trkpt lat="45.7629053" lon="9.1732833"><ele>375.0</ele><time>2026-03-29T17:26:27.944Z</time></trkpt><trkpt lat="45.7627144" lon="9.1731969"><ele>380.33333333333337</ele><time>2026-03-29T17:26:28.944Z</time></trkpt><trkpt lat="45.7625267" lon="9.173113"><ele>385.6666666666667</ele><time>2026-03-29T17:26:29.943Z</time></trkpt><trkpt lat="45.762395" lon="9.1730409"><ele>391.0</ele><time>2026-03-29T17:26:30.943Z</time></trkpt><trkpt lat="45.7622573" lon="9.1729306"><ele>391.0</ele><time>2026-03-29T17:26:31.943Z</time></trkpt><trkpt lat="45.7621324" lon="9.1727954"><ele>391.0</ele><time>2026-03-29T17:26:32.944Z</time></trkpt><trkpt lat="45.762019" lon="9.1726372"><ele>391.0</ele><time>2026-03-29T17:26:33.944Z</time></trkpt><trkpt lat="45.7619208" lon="9.1724577"><ele>392.75</ele><time>2026-03-29T17:26:34.943Z</time></trkpt><trkpt lat="45.7618461" lon="9.1722541"><ele>394.5</ele><time>2026-03-29T17:26:35.944Z</time></trkpt><trkpt lat="45.7617945" lon="9.1720516"><ele>396.25</ele><time>2026-03-29T17:26:36.944Z</time></trkpt><trkpt lat="45.7617571" lon="9.171867"><ele>398.0</ele><time>2026-03-29T17:26:37.944Z</time></trkpt><trkpt lat="45.7617396" lon="9.1716904"><ele>396.75</ele><time>2026-03-29T17:26:38.943Z</time></trkpt><trkpt lat="45.7617275" lon="9.1715128"><ele>395.5</ele><time>2026-03-29T17:26:39.944Z</time></trkpt><trkpt lat="45.7617152" lon="9.1713288"><ele>394.25</ele><time>2026-03-29T17:26:40.944Z</time></trkpt><trkpt lat="45.7617" lon="9.1711507"><ele>393.0</ele><time>2026-03-29T17:26:41.944Z</time></trkpt><trkpt lat="45.7616857" lon="9.1709902"><ele>393.0</ele><time>2026-03-29T17:26:42.942Z</time></trkpt><trkpt lat="45.7616742" lon="9.1708383"><ele>393.0</ele><time>2026-03-29T17:26:43.943Z</time></trkpt><trkpt lat="45.7616578" lon="9.1706922"><ele>393.0</ele><time>2026-03-29T17:26:44.944Z</time></trkpt><trkpt lat="45.7616467" lon="9.1705371"><ele>393.0</ele><time>2026-03-29T17:26:45.942Z</time></trkpt><trkpt lat="45.7616355" lon="9.1703756"><ele>393.0</ele><time>2026-03-29T17:26:46.944Z</time></trkpt><trkpt lat="45.7616256" lon="9.1702093"><ele>391.75</ele><time>2026-03-29T17:26:47.944Z</time></trkpt><trkpt lat="45.7616124" lon="9.1700369"><ele>390.5</ele><time>2026-03-29T17:26:48.943Z</time></trkpt><trkpt lat="45.761597" lon="9.1698562"><ele>389.25</ele><time>2026-03-29T17:26:49.944Z</time></trkpt><trkpt lat="45.7615809" lon="9.1696669"><ele>388.0</ele><time>2026-03-29T17:26:50.944Z</time></trkpt><trkpt lat="45.7615656" lon="9.1694738"><ele>387.5</ele><time>2026-03-29T17:26:51.943Z</time></trkpt><trkpt lat="45.7615515" lon="9.1692751"><ele>387.0</ele><time>2026-03-29T17:26:52.944Z</time></trkpt><trkpt lat="45.7615374" lon="9.169078"><ele>386.5</ele><time>2026-03-29T17:26:53.944Z</time></trkpt><trkpt lat="45.7615213" lon="9.1688776"><ele>386.0</ele><time>2026-03-29T17:26:54.943Z</time></trkpt><trkpt lat="45.7615004" lon="9.1686629"><ele>385.66666666666663</ele><time>2026-03-29T17:26:55.943Z</time></trkpt><trkpt lat="45.76148" lon="9.1684416"><ele>385.33333333333337</ele><time>2026-03-29T17:26:56.944Z</time></trkpt><trkpt lat="45.7614595" lon="9.1682204"><ele>385.0</ele><time>2026-03-29T17:26:57.943Z</time></trkpt><trkpt lat="45.7614455" lon="9.1680158"><ele>384.5</ele><time>2026-03-29T17:26:58.943Z</time></trkpt><trkpt lat="45.761427" lon="9.1678158"><ele>384.0</ele><time>2026-03-29T17:26:59.943Z</time></trkpt><trkpt lat="45.7614083" lon="9.1676082"><ele>383.5</ele><time>2026-03-29T17:27:00.943Z</time></trkpt><trkpt lat="45.7613896" lon="9.1673996"><ele>383.0</ele><time>2026-03-29T17:27:01.944Z</time></trkpt><trkpt lat="45.7613739" lon="9.1671896"><ele>384.5</ele><time>2026-03-29T17:27:02.943Z</time></trkpt><trkpt lat="45.7613566" lon="9.1669793"><ele>386.0</ele><time>2026-03-29T17:27:03.944Z</time></trkpt><trkpt lat="45.7613453" lon="9.1667826"><ele>387.5</ele><time>2026-03-29T17:27:04.943Z</time></trkpt><trkpt lat="45.7613292" lon="9.1665875"><ele>389.0</ele><time>2026-03-29T17:27:05.943Z</time></trkpt><trkpt lat="45.7613123" lon="9.1663977"><ele>389.75</ele><time>2026-03-29T17:27:06.943Z</time></trkpt><trkpt lat="45.7612977" lon="9.1662168"><ele>390.5</ele><time>2026-03-29T17:27:07.944Z</time></trkpt><trkpt lat="45.7612901" lon="9.1660304"><ele>391.25</ele><time>2026-03-29T17:27:08.944Z</time></trkpt><trkpt lat="45.7612787" lon="9.1658402"><ele>392.0</ele><time>2026-03-29T17:27:09.944Z</time></trkpt><trkpt lat="45.7612519" lon="9.1656528"><ele>392.0</ele><time>2026-03-29T17:27:10.944Z</time></trkpt><trkpt lat="45.761208" lon="9.1654755"><ele>392.0</ele><time>2026-03-29T17:27:11.944Z</time></trkpt><trkpt lat="45.7611396" lon="9.1653104"><ele>392.0</ele><time>2026-03-29T17:27:12.943Z</time></trkpt><trkpt lat="45.7610464" lon="9.1651746"><ele>392.0</ele><time>2026-03-29T17:27:13.944Z</time></trkpt><trkpt lat="45.760919" lon="9.1650777"><ele>390.66666666666663</ele><time>2026-03-29T17:27:14.942Z</time></trkpt><trkpt lat="45.7607662" lon="9.1650258"><ele>389.33333333333337</ele><time>2026-03-29T17:27:15.943Z</time></trkpt><trkpt lat="45.7606115" lon="9.1649993"><ele>388.0</ele><time>2026-03-29T17:27:16.942Z</time></trkpt><trkpt lat="45.7604644" lon="9.164968"><ele>388.0</ele><time>2026-03-29T17:27:17.943Z</time></trkpt><trkpt lat="45.7603348" lon="9.1649231"><ele>388.0</ele><time>2026-03-29T17:27:18.943Z</time></trkpt><trkpt lat="45.7602227" lon="9.1648561"><ele>388.0</ele><time>2026-03-29T17:27:19.943Z</time></trkpt><trkpt lat="45.7601319" lon="9.1647627"><ele>388.0</ele><time>2026-03-29T17:27:20.942Z</time></trkpt><trkpt lat="45.7600728" lon="9.1646401"><ele>385.0</ele><time>2026-03-29T17:27:21.943Z</time></trkpt><trkpt lat="45.7600276" lon="9.1645014"><ele>382.0</ele><time>2026-03-29T17:27:22.943Z</time></trkpt><trkpt lat="45.7600496" lon="9.1643287"><ele>379.0</ele><time>2026-03-29T17:27:23.942Z</time></trkpt><trkpt lat="45.7601036" lon="9.1641578"><ele>376.0</ele><time>2026-03-29T17:27:24.943Z</time></trkpt><trkpt lat="45.7601834" lon="9.1639669"><ele>377.66666666666663</ele><time>2026-03-29T17:27:25.943Z</time></trkpt><trkpt lat="45.7602765" lon="9.1637538"><ele>379.3333333333333</ele><time>2026-03-29T17:27:26.944Z</time></trkpt><trkpt lat="45.7603615" lon="9.1635533"><ele>381.0</ele><time>2026-03-29T17:27:27.944Z</time></trkpt><trkpt lat="45.760446" lon="9.1633515"><ele>378.25</ele><time>2026-03-29T17:27:28.943Z</time></trkpt><trkpt lat="45.7605281" lon="9.1631624"><ele>375.5</ele><time>2026-03-29T17:27:29.944Z</time></trkpt><trkpt lat="45.7606088" lon="9.162988"><ele>372.75</ele><time>2026-03-29T17:27:30.943Z</time></trkpt><trkpt lat="45.7606757" lon="9.1628202"><ele>370.0</ele><time>2026-03-29T17:27:31.944Z</time></trkpt><trkpt lat="45.7607199" lon="9.1626542"><ele>370.0</ele><time>2026-03-29T17:27:32.943Z</time></trkpt><trkpt lat="45.7607317" lon="9.1624846"><ele>370.0</ele><time>2026-03-29T17:27:33.943Z</time></trkpt><trkpt lat="45.7607095" lon="9.1623122"><ele>370.0</ele><time>2026-03-29T17:27:34.943Z</time></trkpt><trkpt lat="45.7606623" lon="9.1621445"><ele>370.0</ele><time>2026-03-29T17:27:35.944Z</time></trkpt><trkpt lat="45.7605709" lon="9.1619794"><ele>369.3333333333333</ele><time>2026-03-29T17:27:36.944Z</time></trkpt><trkpt lat="45.7604481" lon="9.1618261"><ele>368.6666666666667</ele><time>2026-03-29T17:27:37.943Z</time></trkpt><trkpt lat="45.7603085" lon="9.1616748"><ele>368.0</ele><time>2026-03-29T17:27:38.944Z</time></trkpt><trkpt lat="45.7601808" lon="9.1615462"><ele>371.0</ele><time>2026-03-29T17:27:39.943Z</time></trkpt><trkpt lat="45.7600538" lon="9.1614201"><ele>374.0</ele><time>2026-03-29T17:27:40.944Z</time></trkpt><trkpt lat="45.7599249" lon="9.1612974"><ele>377.0</ele><time>2026-03-29T17:27:41.944Z</time></trkpt><trkpt lat="45.7597981" lon="9.1611762"><ele>377.0</ele><time>2026-03-29T17:27:42.942Z</time></trkpt><trkpt lat="45.7596701" lon="9.1610553"><ele>377.0</ele><time>2026-03-29T17:27:43.942Z</time></trkpt><trkpt lat="45.7595452" lon="9.1609378"><ele>377.0</ele><time>2026-03-29T17:27:44.943Z</time></trkpt><trkpt lat="45.7594258" lon="9.160823"><ele>377.0</ele><time>2026-03-29T17:27:45.944Z</time></trkpt><trkpt lat="45.7592964" lon="9.1607067"><ele>379.40000000000003</ele><time>2026-03-29T17:27:46.944Z</time></trkpt><trkpt lat="45.7592164" lon="9.1606247"><ele>381.8</ele><time>2026-03-29T17:27:47.944Z</time></trkpt><trkpt lat="45.7591184" lon="9.1605336"><ele>384.2</ele><time>2026-03-29T17:27:48.944Z</time></trkpt><trkpt lat="45.7590322" lon="9.1604568"><ele>386.6</ele><time>2026-03-29T17:27:49.944Z</time></trkpt><trkpt lat="45.7589566" lon="9.1603761"><ele>389.0</ele><time>2026-03-29T17:27:50.943Z</time></trkpt><trkpt lat="45.7588868" lon="9.1602835"><ele>389.0</ele><time>2026-03-29T17:27:51.944Z</time></trkpt><trkpt lat="45.7588108" lon="9.1601729"><ele>389.0</ele><time>2026-03-29T17:27:52.944Z</time></trkpt><trkpt lat="45.7587435" lon="9.1600489"><ele>389.0</ele><time>2026-03-29T17:27:53.944Z</time></trkpt><trkpt lat="45.7586759" lon="9.1599255"><ele>389.0</ele><time>2026-03-29T17:27:54.943Z</time></trkpt><trkpt lat="45.758608" lon="9.1597928"><ele>389.0</ele><time>2026-03-29T17:27:55.943Z</time></trkpt><trkpt lat="45.7585414" lon="9.1596502"><ele>391.0</ele><time>2026-03-29T17:27:56.942Z</time></trkpt><trkpt lat="45.7584753" lon="9.1595053"><ele>393.0</ele><time>2026-03-29T17:27:57.944Z</time></trkpt><trkpt lat="45.7584058" lon="9.1593486"><ele>395.0</ele><time>2026-03-29T17:27:58.944Z</time></trkpt><trkpt lat="45.758333" lon="9.1591827"><ele>397.0</ele><time>2026-03-29T17:27:59.944Z</time></trkpt><trkpt lat="45.7582638" lon="9.1590208"><ele>397.0</ele><time>2026-03-29T17:28:00.944Z</time></trkpt><trkpt lat="45.758197" lon="9.1588614"><ele>397.0</ele><time>2026-03-29T17:28:01.944Z</time></trkpt><trkpt lat="45.7581352" lon="9.1587082"><ele>397.0</ele><time>2026-03-29T17:28:02.944Z</time></trkpt><trkpt lat="45.7580739" lon="9.1585589"><ele>397.0</ele><time>2026-03-29T17:28:03.944Z</time></trkpt><trkpt lat="45.7580098" lon="9.1584081"><ele>397.0</ele><time>2026-03-29T17:28:04.943Z</time></trkpt><trkpt lat="45.7579401" lon="9.1582525"><ele>397.0</ele><time>2026-03-29T17:28:05.944Z</time></trkpt><trkpt lat="45.7578719" lon="9.1580941"><ele>397.0</ele><time>2026-03-29T17:28:06.942Z</time></trkpt><trkpt lat="45.7577985" lon="9.1579253"><ele>397.0</ele><time>2026-03-29T17:28:07.942Z</time></trkpt><trkpt lat="45.7577189" lon="9.1577461"><ele>395.6666666666667</ele><time>2026-03-29T17:28:08.944Z</time></trkpt><trkpt lat="45.757633" lon="9.1575564"><ele>394.33333333333337</ele><time>2026-03-29T17:28:09.944Z</time></trkpt><trkpt lat="45.7575481" lon="9.1573742"><ele>393.0</ele><time>2026-03-29T17:28:10.944Z</time></trkpt><trkpt lat="45.7574712" lon="9.1571944"><ele>393.0</ele><time>2026-03-29T17:28:11.944Z</time></trkpt><trkpt lat="45.7573962" lon="9.157014"><ele>393.0</ele><time>2026-03-29T17:28:12.943Z</time></trkpt><trkpt lat="45.7573198" lon="9.1568342"><ele>393.0</ele><time>2026-03-29T17:28:13.944Z</time></trkpt><trkpt lat="45.7572473" lon="9.1566698"><ele>393.0</ele><time>2026-03-29T17:28:14.943Z</time></trkpt><trkpt lat="45.7571769" lon="9.1565118"><ele>394.0</ele><time>2026-03-29T17:28:15.944Z</time></trkpt><trkpt lat="45.757108" lon="9.1563508"><ele>395.0</ele><time>2026-03-29T17:28:16.944Z</time></trkpt><trkpt lat="45.7570379" lon="9.1561807"><ele>396.0</ele><time>2026-03-29T17:28:17.944Z</time></trkpt><trkpt lat="45.7569586" lon="9.155999"><ele>397.0</ele><time>2026-03-29T17:28:18.944Z</time></trkpt><trkpt lat="45.7568765" lon="9.1558052"><ele>393.0</ele><time>2026-03-29T17:28:19.944Z</time></trkpt><trkpt lat="45.7567916" lon="9.1555987"><ele>389.0</ele><time>2026-03-29T17:28:20.944Z</time></trkpt><trkpt lat="45.756708" lon="9.1553927"><ele>385.0</ele><time>2026-03-29T17:28:21.944Z</time></trkpt><trkpt lat="45.7566269" lon="9.1551982"><ele>385.0</ele><time>2026-03-29T17:28:22.944Z</time></trkpt><trkpt lat="45.7565486" lon="9.1550101"><ele>385.0</ele><time>2026-03-29T17:28:23.944Z</time></trkpt><trkpt lat="45.75647" lon="9.1548173"><ele>385.0</ele><time>2026-03-29T17:28:24.944Z</time></trkpt><trkpt lat="45.7563871" lon="9.1546129"><ele>384.33333333333337</ele><time>2026-03-29T17:28:25.943Z</time></trkpt><trkpt lat="45.7563053" lon="9.1544032"><ele>383.6666666666667</ele><time>2026-03-29T17:28:26.944Z</time></trkpt><trkpt lat="45.7562172" lon="9.1541854"><ele>383.0</ele><time>2026-03-29T17:28:27.944Z</time></trkpt><trkpt lat="45.7561278" lon="9.153962"><ele>383.0</ele><time>2026-03-29T17:28:28.943Z</time></trkpt><trkpt lat="45.756037" lon="9.1537327"><ele>383.0</ele><time>2026-03-29T17:28:29.944Z</time></trkpt><trkpt lat="45.7559476" lon="9.1535014"><ele>383.0</ele><time>2026-03-29T17:28:30.944Z</time></trkpt><trkpt lat="45.7558502" lon="9.1532685"><ele>380.0</ele><time>2026-03-29T17:28:31.944Z</time></trkpt><trkpt lat="45.7557505" lon="9.1530281"><ele>377.0</ele><time>2026-03-29T17:28:32.944Z</time></trkpt><trkpt lat="45.75565" lon="9.152788"><ele>374.0</ele><time>2026-03-29T17:28:33.944Z</time></trkpt><trkpt lat="45.7555375" lon="9.152546"><ele>374.33333333333337</ele><time>2026-03-29T17:28:34.942Z</time></trkpt><trkpt lat="45.7554071" lon="9.1523038"><ele>374.6666666666667</ele><time>2026-03-29T17:28:35.944Z</time></trkpt><trkpt lat="45.7552582" lon="9.1520578"><ele>375.0</ele><time>2026-03-29T17:28:36.944Z</time></trkpt><trkpt lat="45.7551145" lon="9.1518357"><ele>374.0</ele><time>2026-03-29T17:28:37.944Z</time></trkpt><trkpt lat="45.754981" lon="9.1516258"><ele>373.0</ele><time>2026-03-29T17:28:38.943Z</time></trkpt><trkpt lat="45.7548511" lon="9.1514271"><ele>372.0</ele><time>2026-03-29T17:28:39.944Z</time></trkpt><trkpt lat="45.7547314" lon="9.1512463"><ele>372.0</ele><time>2026-03-29T17:28:40.943Z</time></trkpt><trkpt lat="45.7546177" lon="9.1510695"><ele>372.0</ele><time>2026-03-29T17:28:41.943Z</time></trkpt><trkpt lat="45.7545112" lon="9.1508858"><ele>372.0</ele><time>2026-03-29T17:28:42.943Z</time></trkpt><trkpt lat="45.7544161" lon="9.1506953"><ele>371.0</ele><time>2026-03-29T17:28:43.942Z</time></trkpt><trkpt lat="45.754335" lon="9.1504923"><ele>370.0</ele><time>2026-03-29T17:28:44.943Z</time></trkpt><trkpt lat="45.7542668" lon="9.150281"><ele>369.0</ele><time>2026-03-29T17:28:45.943Z</time></trkpt><trkpt lat="45.7542144" lon="9.1500621"><ele>368.6666666666667</ele><time>2026-03-29T17:28:46.943Z</time></trkpt><trkpt lat="45.7541743" lon="9.1498466"><ele>368.33333333333337</ele><time>2026-03-29T17:28:47.943Z</time></trkpt><trkpt lat="45.7541399" lon="9.1496066"><ele>368.0</ele><time>2026-03-29T17:28:48.943Z</time></trkpt><trkpt lat="45.7541147" lon="9.1493722"><ele>368.0</ele><time>2026-03-29T17:28:49.944Z</time></trkpt><trkpt lat="45.7540806" lon="9.1491423"><ele>368.0</ele><time>2026-03-29T17:28:50.943Z</time></trkpt><trkpt lat="45.7540428" lon="9.1489232"><ele>368.0</ele><time>2026-03-29T17:28:51.944Z</time></trkpt><trkpt lat="45.7540002" lon="9.1487257"><ele>367.0</ele><time>2026-03-29T17:28:52.943Z</time></trkpt><trkpt lat="45.7539207" lon="9.1484682"><ele>366.0</ele><time>2026-03-29T17:28:53.943Z</time></trkpt><trkpt lat="45.7538107" lon="9.1482523"><ele>365.0</ele><time>2026-03-29T17:28:54.944Z</time></trkpt><trkpt lat="45.7536898" lon="9.1480375"><ele>365.33333333333337</ele><time>2026-03-29T17:28:55.944Z</time></trkpt><trkpt lat="45.7535596" lon="9.1478198"><ele>365.6666666666667</ele><time>2026-03-29T17:28:56.944Z</time></trkpt><trkpt lat="45.7534374" lon="9.1476185"><ele>366.0</ele><time>2026-03-29T17:28:57.944Z</time></trkpt><trkpt lat="45.7533196" lon="9.1474219"><ele>366.3333333333333</ele><time>2026-03-29T17:28:58.943Z</time></trkpt><trkpt lat="45.7532102" lon="9.1472345"><ele>366.66666666666663</ele><time>2026-03-29T17:28:59.944Z</time></trkpt><trkpt lat="45.7530995" lon="9.1470464"><ele>367.0</ele><time>2026-03-29T17:29:00.944Z</time></trkpt><trkpt lat="45.7529955" lon="9.1468721"><ele>367.0</ele><time>2026-03-29T17:29:01.942Z</time></trkpt><trkpt lat="45.7529021" lon="9.1467084"><ele>367.0</ele><time>2026-03-29T17:29:02.943Z</time></trkpt><trkpt lat="45.7528155" lon="9.1465571"><ele>367.0</ele><time>2026-03-29T17:29:03.944Z</time></trkpt><trkpt lat="45.7527361" lon="9.1464141"><ele>367.0</ele><time>2026-03-29T17:29:04.943Z</time></trkpt><trkpt lat="45.75266" lon="9.1462931"><ele>367.75</ele><time>2026-03-29T17:29:05.943Z</time></trkpt><trkpt lat="45.7525749" lon="9.1461817"><ele>368.5</ele><time>2026-03-29T17:29:06.944Z</time></trkpt><trkpt lat="45.7524779" lon="9.1460824"><ele>369.25</ele><time>2026-03-29T17:29:07.943Z</time></trkpt><trkpt lat="45.752371" lon="9.1459888"><ele>370.0</ele><time>2026-03-29T17:29:08.944Z</time></trkpt><trkpt lat="45.7522517" lon="9.1458892"><ele>370.0</ele><time>2026-03-29T17:29:09.944Z</time></trkpt><trkpt lat="45.7521198" lon="9.1457855"><ele>370.0</ele><time>2026-03-29T17:29:10.943Z</time></trkpt><trkpt lat="45.7519813" lon="9.145675"><ele>370.0</ele><time>2026-03-29T17:29:11.944Z</time></trkpt><trkpt lat="45.751852" lon="9.1455748"><ele>369.5</ele><time>2026-03-29T17:29:12.944Z</time></trkpt><trkpt lat="45.7517273" lon="9.1454751"><ele>369.0</ele><time>2026-03-29T17:29:13.942Z</time></trkpt><trkpt lat="45.7516062" lon="9.1453949"><ele>368.5</ele><time>2026-03-29T17:29:14.944Z</time></trkpt><trkpt lat="45.7514833" lon="9.1453398"><ele>368.0</ele><time>2026-03-29T17:29:15.944Z</time></trkpt><trkpt lat="45.7513536" lon="9.1453053"><ele>368.0</ele><time>2026-03-29T17:29:16.944Z</time></trkpt><trkpt lat="45.7512193" lon="9.1452884"><ele>368.0</ele><time>2026-03-29T17:29:17.944Z</time></trkpt><trkpt lat="45.7510853" lon="9.1452741"><ele>368.0</ele><time>2026-03-29T17:29:18.944Z</time></trkpt><trkpt lat="45.7509593" lon="9.1452621"><ele>368.0</ele><time>2026-03-29T17:29:19.943Z</time></trkpt><trkpt lat="45.7508396" lon="9.1452537"><ele>367.75</ele><time>2026-03-29T17:29:20.944Z</time></trkpt><trkpt lat="45.7507274" lon="9.1452339"><ele>367.5</ele><time>2026-03-29T17:29:21.944Z</time></trkpt><trkpt lat="45.7506197" lon="9.1451974"><ele>367.25</ele><time>2026-03-29T17:29:22.944Z</time></trkpt><trkpt lat="45.7505097" lon="9.145146"><ele>367.0</ele><time>2026-03-29T17:29:23.944Z</time></trkpt><trkpt lat="45.7503946" lon="9.1450807"><ele>367.0</ele><time>2026-03-29T17:29:24.943Z</time></trkpt><trkpt lat="45.7502771" lon="9.1450077"><ele>367.0</ele><time>2026-03-29T17:29:25.943Z</time></trkpt><trkpt lat="45.7501589" lon="9.1449327"><ele>367.0</ele><time>2026-03-29T17:29:26.943Z</time></trkpt><trkpt lat="45.7500327" lon="9.1448537"><ele>367.0</ele><time>2026-03-29T17:29:27.944Z</time></trkpt><trkpt lat="45.7499048" lon="9.1447706"><ele>365.75</ele><time>2026-03-29T17:29:28.943Z</time></trkpt><trkpt lat="45.7497759" lon="9.1446851"><ele>364.5</ele><time>2026-03-29T17:29:29.943Z</time></trkpt><trkpt lat="45.7496522" lon="9.1446006"><ele>363.25</ele><time>2026-03-29T17:29:30.943Z</time></trkpt><trkpt lat="45.7495334" lon="9.1445297"><ele>362.0</ele><time>2026-03-29T17:29:31.944Z</time></trkpt><trkpt lat="45.7494164" lon="9.1444557"><ele>361.25</ele><time>2026-03-29T17:29:32.943Z</time></trkpt><trkpt lat="45.7492987" lon="9.1443825"><ele>360.5</ele><time>2026-03-29T17:29:33.943Z</time></trkpt><trkpt lat="45.7491825" lon="9.1443104"><ele>359.75</ele><time>2026-03-29T17:29:34.943Z</time></trkpt><trkpt lat="45.7490651" lon="9.1442332"><ele>359.0</ele><time>2026-03-29T17:29:35.944Z</time></trkpt><trkpt lat="45.7489493" lon="9.1441616"><ele>359.0</ele><time>2026-03-29T17:29:36.944Z</time></trkpt><trkpt lat="45.748841" lon="9.1440877"><ele>359.0</ele><time>2026-03-29T17:29:37.943Z</time></trkpt><trkpt lat="45.748736" lon="9.1440216"><ele>359.0</ele><time>2026-03-29T17:29:38.943Z</time></trkpt><trkpt lat="45.7486301" lon="9.1439521"><ele>359.0</ele><time>2026-03-29T17:29:39.944Z</time></trkpt><trkpt lat="45.7485154" lon="9.1438847"><ele>358.25</ele><time>2026-03-29T17:29:40.944Z</time></trkpt><trkpt lat="45.7484005" lon="9.1438236"><ele>357.5</ele><time>2026-03-29T17:29:41.944Z</time></trkpt><trkpt lat="45.7482826" lon="9.1437721"><ele>356.75</ele><time>2026-03-29T17:29:42.944Z</time></trkpt><trkpt lat="45.7481726" lon="9.1437322"><ele>356.0</ele><time>2026-03-29T17:29:43.944Z</time></trkpt><trkpt lat="45.748067" lon="9.1436927"><ele>356.0</ele><time>2026-03-29T17:29:44.944Z</time></trkpt><trkpt lat="45.7479635" lon="9.1436573"><ele>356.0</ele><time>2026-03-29T17:29:45.943Z</time></trkpt><trkpt lat="45.7478693" lon="9.1436215"><ele>356.0</ele><time>2026-03-29T17:29:46.943Z</time></trkpt><trkpt lat="45.7477801" lon="9.14359"><ele>356.0</ele><time>2026-03-29T17:29:47.944Z</time></trkpt><trkpt lat="45.7476956" lon="9.1435585"><ele>356.0</ele><time>2026-03-29T17:29:48.944Z</time></trkpt><trkpt lat="45.7476168" lon="9.1435305"><ele>355.8</ele><time>2026-03-29T17:29:49.944Z</time></trkpt><trkpt lat="45.7475493" lon="9.1435082"><ele>355.6</ele><time>2026-03-29T17:29:50.943Z</time></trkpt><trkpt lat="45.7474876" lon="9.1434853"><ele>355.4</ele><time>2026-03-29T17:29:51.944Z</time></trkpt><trkpt lat="45.7473783" lon="9.143439"><ele>355.2</ele><time>2026-03-29T17:29:53.943Z</time></trkpt><trkpt lat="45.7472729" lon="9.1434021"><ele>355.0</ele><time>2026-03-29T17:29:55.943Z</time></trkpt><trkpt lat="45.7471763" lon="9.1433767"><ele>355.0</ele><time>2026-03-29T17:29:57.944Z</time></trkpt><trkpt lat="45.7470887" lon="9.1433572"><ele>355.0</ele><time>2026-03-29T17:29:59.944Z</time></trkpt><trkpt lat="45.7469787" lon="9.1433217"><ele>355.0</ele><time>2026-03-29T17:30:01.943Z</time></trkpt><trkpt lat="45.7468805" lon="9.143281"><ele>355.0</ele><time>2026-03-29T17:30:03.944Z</time></trkpt><trkpt lat="45.7467894" lon="9.1432441"><ele>355.0</ele><time>2026-03-29T17:30:05.944Z</time></trkpt><trkpt lat="45.7467287" lon="9.1432176"><ele>354.57142857142856</ele><time>2026-03-29T17:30:06.943Z</time></trkpt><trkpt lat="45.7466638" lon="9.1431809"><ele>354.14285714285717</ele><time>2026-03-29T17:30:07.944Z</time></trkpt><trkpt lat="45.7466042" lon="9.1431475"><ele>353.7142857142857</ele><time>2026-03-29T17:30:08.944Z</time></trkpt><trkpt lat="45.7465434" lon="9.143102"><ele>353.2857142857143</ele><time>2026-03-29T17:30:09.944Z</time></trkpt><trkpt lat="45.746488" lon="9.1430559"><ele>352.85714285714283</ele><time>2026-03-29T17:30:10.943Z</time></trkpt><trkpt lat="45.7464305" lon="9.1429987"><ele>352.42857142857144</ele><time>2026-03-29T17:30:11.943Z</time></trkpt><trkpt lat="45.7463717" lon="9.142931"><ele>352.0</ele><time>2026-03-29T17:30:12.944Z</time></trkpt><trkpt lat="45.7463179" lon="9.1428658"><ele>352.0</ele><time>2026-03-29T17:30:13.942Z</time></trkpt><trkpt lat="45.7462592" lon="9.1427968"><ele>352.0</ele><time>2026-03-29T17:30:14.943Z</time></trkpt><trkpt lat="45.7461916" lon="9.142714"><ele>352.0</ele><time>2026-03-29T17:30:15.944Z</time></trkpt><trkpt lat="45.7461184" lon="9.1426272"><ele>352.0</ele><time>2026-03-29T17:30:16.944Z</time></trkpt><trkpt lat="45.7460481" lon="9.1425444"><ele>352.0</ele><time>2026-03-29T17:30:17.944Z</time></trkpt><trkpt lat="45.7459801" lon="9.1424647"><ele>352.0</ele><time>2026-03-29T17:30:18.944Z</time></trkpt><trkpt lat="45.7459108" lon="9.1423848"><ele>351.20000000000005</ele><time>2026-03-29T17:30:19.944Z</time></trkpt><trkpt lat="45.7458377" lon="9.1422993"><ele>350.4</ele><time>2026-03-29T17:30:20.943Z</time></trkpt><trkpt lat="45.7457606" lon="9.1422113"><ele>349.6</ele><time>2026-03-29T17:30:21.944Z</time></trkpt><trkpt lat="45.7456806" lon="9.1421159"><ele>348.79999999999995</ele><time>2026-03-29T17:30:22.943Z</time></trkpt><trkpt lat="45.7455965" lon="9.1420178"><ele>348.0</ele><time>2026-03-29T17:30:23.942Z</time></trkpt><trkpt lat="45.7455076" lon="9.1419186"><ele>348.0</ele><time>2026-03-29T17:30:24.943Z</time></trkpt><trkpt lat="45.7454173" lon="9.141813"><ele>348.0</ele><time>2026-03-29T17:30:25.944Z</time></trkpt><trkpt lat="45.7453344" lon="9.1417109"><ele>348.0</ele><time>2026-03-29T17:30:26.943Z</time></trkpt><trkpt lat="45.7452496" lon="9.1416163"><ele>348.0</ele><time>2026-03-29T17:30:27.944Z</time></trkpt><trkpt lat="45.7451717" lon="9.1415249"><ele>348.0</ele><time>2026-03-29T17:30:28.943Z</time></trkpt><trkpt lat="45.7450921" lon="9.1414323"><ele>347.2</ele><time>2026-03-29T17:30:29.944Z</time></trkpt><trkpt lat="45.7450177" lon="9.141333"><ele>346.4</ele><time>2026-03-29T17:30:30.944Z</time></trkpt><trkpt lat="45.7449417" lon="9.1412314"><ele>345.59999999999997</ele><time>2026-03-29T17:30:31.943Z</time></trkpt><trkpt lat="45.7448757" lon="9.1411328"><ele>344.79999999999995</ele><time>2026-03-29T17:30:32.944Z</time></trkpt><trkpt lat="45.7448177" lon="9.1410341"><ele>344.0</ele><time>2026-03-29T17:30:33.942Z</time></trkpt><trkpt lat="45.74476" lon="9.1409395"><ele>344.0</ele><time>2026-03-29T17:30:34.944Z</time></trkpt><trkpt lat="45.7447076" lon="9.1408387"><ele>344.0</ele><time>2026-03-29T17:30:35.944Z</time></trkpt><trkpt lat="45.7446571" lon="9.1407369"><ele>344.0</ele><time>2026-03-29T17:30:36.944Z</time></trkpt><trkpt lat="45.7446143" lon="9.1406449"><ele>344.0</ele><time>2026-03-29T17:30:37.944Z</time></trkpt><trkpt lat="45.7445802" lon="9.1405587"><ele>344.0</ele><time>2026-03-29T17:30:38.943Z</time></trkpt><trkpt lat="45.744537" lon="9.1404001"><ele>344.0</ele><time>2026-03-29T17:30:40.944Z</time></trkpt><trkpt lat="45.7445075" lon="9.1402326"><ele>344.1666666666667</ele><time>2026-03-29T17:30:42.943Z</time></trkpt><trkpt lat="45.7444976" lon="9.1401373"><ele>344.33333333333337</ele><time>2026-03-29T17:30:43.943Z</time></trkpt><trkpt lat="45.7444819" lon="9.1400375"><ele>344.5</ele><time>2026-03-29T17:30:44.944Z</time></trkpt><trkpt lat="45.7444431" lon="9.1399456"><ele>344.6666666666667</ele><time>2026-03-29T17:30:45.944Z</time></trkpt><trkpt lat="45.7443902" lon="9.1398586"><ele>344.8333333333333</ele><time>2026-03-29T17:30:46.943Z</time></trkpt><trkpt lat="45.7443197" lon="9.1397819"><ele>345.0</ele><time>2026-03-29T17:30:47.943Z</time></trkpt><trkpt lat="45.7442427" lon="9.1397186"><ele>345.2</ele><time>2026-03-29T17:30:48.943Z</time></trkpt><trkpt lat="45.7441659" lon="9.1396267"><ele>345.4</ele><time>2026-03-29T17:30:49.944Z</time></trkpt><trkpt lat="45.7440987" lon="9.1395216"><ele>345.6</ele><time>2026-03-29T17:30:50.943Z</time></trkpt><trkpt lat="45.7440411" lon="9.1394215"><ele>345.8</ele><time>2026-03-29T17:30:51.944Z</time></trkpt><trkpt lat="45.7439839" lon="9.1393098"><ele>346.0</ele><time>2026-03-29T17:30:52.943Z</time></trkpt><trkpt lat="45.7439329" lon="9.1392002"><ele>346.0</ele><time>2026-03-29T17:30:53.943Z</time></trkpt><trkpt lat="45.7438741" lon="9.1390851"><ele>346.0</ele><time>2026-03-29T17:30:54.943Z</time></trkpt><trkpt lat="45.7438194" lon="9.1389711"><ele>346.0</ele><time>2026-03-29T17:30:55.944Z</time></trkpt><trkpt lat="45.7437654" lon="9.1388558"><ele>346.0</ele><time>2026-03-29T17:30:56.942Z</time></trkpt><trkpt lat="45.743708" lon="9.13874"><ele>346.0</ele><time>2026-03-29T17:30:57.944Z</time></trkpt><trkpt lat="45.743651" lon="9.1386285"><ele>346.20000000000005</ele><time>2026-03-29T17:30:58.943Z</time></trkpt><trkpt lat="45.7435941" lon="9.1385161"><ele>346.40000000000003</ele><time>2026-03-29T17:30:59.943Z</time></trkpt><trkpt lat="45.7435363" lon="9.1383949"><ele>346.6</ele><time>2026-03-29T17:31:00.943Z</time></trkpt><trkpt lat="45.7434783" lon="9.1382757"><ele>346.8</ele><time>2026-03-29T17:31:01.942Z</time></trkpt><trkpt lat="45.7434215" lon="9.13815"><ele>347.0</ele><time>2026-03-29T17:31:02.943Z</time></trkpt><trkpt lat="45.7433592" lon="9.1380247"><ele>347.6</ele><time>2026-03-29T17:31:03.944Z</time></trkpt><trkpt lat="45.7432984" lon="9.1379003"><ele>348.20000000000005</ele><time>2026-03-29T17:31:04.944Z</time></trkpt><trkpt lat="45.7432398" lon="9.1377757"><ele>348.8</ele><time>2026-03-29T17:31:05.944Z</time></trkpt><trkpt lat="45.7431813" lon="9.137657"><ele>349.4</ele><time>2026-03-29T17:31:06.944Z</time></trkpt><trkpt lat="45.7431196" lon="9.1375368"><ele>350.0</ele><time>2026-03-29T17:31:07.943Z</time></trkpt><trkpt lat="45.743063" lon="9.137419"><ele>350.8</ele><time>2026-03-29T17:31:08.943Z</time></trkpt><trkpt lat="45.7430095" lon="9.1372999"><ele>351.6</ele><time>2026-03-29T17:31:09.943Z</time></trkpt><trkpt lat="45.7429531" lon="9.1371767"><ele>352.4</ele><time>2026-03-29T17:31:10.944Z</time></trkpt><trkpt lat="45.742897" lon="9.1370654"><ele>353.2</ele><time>2026-03-29T17:31:11.943Z</time></trkpt><trkpt lat="45.7428446" lon="9.1369467"><ele>354.0</ele><time>2026-03-29T17:31:12.942Z</time></trkpt><trkpt lat="45.7427844" lon="9.136819"><ele>354.0</ele><time>2026-03-29T17:31:13.943Z</time></trkpt><trkpt lat="45.7427309" lon="9.1367032"><ele>354.0</ele><time>2026-03-29T17:31:14.944Z</time></trkpt><trkpt lat="45.7426792" lon="9.1365993"><ele>354.0</ele><time>2026-03-29T17:31:15.944Z</time></trkpt><trkpt lat="45.7426336" lon="9.1365076"><ele>354.0</ele><time>2026-03-29T17:31:16.944Z</time></trkpt><trkpt lat="45.7425902" lon="9.1364121"><ele>354.0</ele><time>2026-03-29T17:31:17.943Z</time></trkpt><trkpt lat="45.7425479" lon="9.136319"><ele>354.0</ele><time>2026-03-29T17:31:18.944Z</time></trkpt><trkpt lat="45.7425068" lon="9.1362396"><ele>354.4</ele><time>2026-03-29T17:31:19.944Z</time></trkpt><trkpt lat="45.7424389" lon="9.1361091"><ele>354.79999999999995</ele><time>2026-03-29T17:31:21.943Z</time></trkpt><trkpt lat="45.7423791" lon="9.1359709"><ele>355.20000000000005</ele><time>2026-03-29T17:31:23.943Z</time></trkpt><trkpt lat="45.7423475" lon="9.1358526"><ele>355.6</ele><time>2026-03-29T17:31:25.943Z</time></trkpt><trkpt lat="45.7423268" lon="9.135706"><ele>356.0</ele><time>2026-03-29T17:31:27.944Z</time></trkpt><trkpt lat="45.742335" lon="9.1355237"><ele>356.5</ele><time>2026-03-29T17:31:29.942Z</time></trkpt><trkpt lat="45.7423549" lon="9.1354267"><ele>357.0</ele><time>2026-03-29T17:31:30.943Z</time></trkpt><trkpt lat="45.7423878" lon="9.1353345"><ele>357.5</ele><time>2026-03-29T17:31:31.943Z</time></trkpt><trkpt lat="45.7424255" lon="9.1352399"><ele>358.0</ele><time>2026-03-29T17:31:32.944Z</time></trkpt><trkpt lat="45.7424661" lon="9.1351383"><ele>358.5</ele><time>2026-03-29T17:31:33.944Z</time></trkpt><trkpt lat="45.7425115" lon="9.1350316"><ele>359.0</ele><time>2026-03-29T17:31:34.943Z</time></trkpt><trkpt lat="45.742552" lon="9.1349348"><ele>359.0</ele><time>2026-03-29T17:31:35.943Z</time></trkpt><trkpt lat="45.7425936" lon="9.1348394"><ele>359.0</ele><time>2026-03-29T17:31:36.944Z</time></trkpt><trkpt lat="45.7426362" lon="9.1347344"><ele>359.0</ele><time>2026-03-29T17:31:37.943Z</time></trkpt><trkpt lat="45.7426728" lon="9.134624"><ele>359.0</ele><time>2026-03-29T17:31:38.944Z</time></trkpt><trkpt lat="45.7427098" lon="9.1345048"><ele>359.0</ele><time>2026-03-29T17:31:39.943Z</time></trkpt><trkpt lat="45.7427441" lon="9.1343797"><ele>359.0</ele><time>2026-03-29T17:31:40.943Z</time></trkpt><trkpt lat="45.7427632" lon="9.1342449"><ele>360.0</ele><time>2026-03-29T17:31:41.943Z</time></trkpt><trkpt lat="45.7427811" lon="9.1340991"><ele>361.0</ele><time>2026-03-29T17:31:42.943Z</time></trkpt><trkpt lat="45.7428053" lon="9.1339463"><ele>362.0</ele><time>2026-03-29T17:31:43.943Z</time></trkpt><trkpt lat="45.7428251" lon="9.1337845"><ele>363.0</ele><time>2026-03-29T17:31:44.943Z</time></trkpt><trkpt lat="45.7428439" lon="9.1336281"><ele>364.0</ele><time>2026-03-29T17:31:45.943Z</time></trkpt><trkpt lat="45.7428619" lon="9.1334899"><ele>364.2</ele><time>2026-03-29T17:31:46.943Z</time></trkpt><trkpt lat="45.742874" lon="9.1333727"><ele>364.4</ele><time>2026-03-29T17:31:47.943Z</time></trkpt><trkpt lat="45.7428852" lon="9.1332697"><ele>364.6</ele><time>2026-03-29T17:31:48.944Z</time></trkpt><trkpt lat="45.7428949" lon="9.133179"><ele>364.8</ele><time>2026-03-29T17:31:49.944Z</time></trkpt><trkpt lat="45.7429089" lon="9.1330187"><ele>365.0</ele><time>2026-03-29T17:31:51.944Z</time></trkpt><trkpt lat="45.7429312" lon="9.1328406"><ele>365.0</ele><time>2026-03-29T17:31:53.942Z</time></trkpt><trkpt lat="45.7429487" lon="9.1327341"><ele>365.0</ele><time>2026-03-29T17:31:54.943Z</time></trkpt><trkpt lat="45.7429679" lon="9.1326214"><ele>365.0</ele><time>2026-03-29T17:31:55.944Z</time></trkpt><trkpt lat="45.7429839" lon="9.1324985"><ele>365.0</ele><time>2026-03-29T17:31:56.943Z</time></trkpt><trkpt lat="45.7430006" lon="9.1323689"><ele>365.0</ele><time>2026-03-29T17:31:57.944Z</time></trkpt><trkpt lat="45.7430226" lon="9.1322369"><ele>365.0</ele><time>2026-03-29T17:31:58.944Z</time></trkpt><trkpt lat="45.7430429" lon="9.1321004"><ele>364.5</ele><time>2026-03-29T17:31:59.942Z</time></trkpt><trkpt lat="45.7430596" lon="9.1319599"><ele>364.0</ele><time>2026-03-29T17:32:00.943Z</time></trkpt><trkpt lat="45.7430794" lon="9.1318357"><ele>363.5</ele><time>2026-03-29T17:32:01.944Z</time></trkpt><trkpt lat="45.7430968" lon="9.1317153"><ele>363.0</ele><time>2026-03-29T17:32:02.943Z</time></trkpt><trkpt lat="45.7431298" lon="9.1315727"><ele>362.5</ele><time>2026-03-29T17:32:04.943Z</time></trkpt><trkpt lat="45.7431808" lon="9.1315116"><ele>362.0</ele><time>2026-03-29T17:32:05.943Z</time></trkpt><trkpt lat="45.743295" lon="9.1314354"><ele>361.8</ele><time>2026-03-29T17:32:07.942Z</time></trkpt><trkpt lat="45.7433987" lon="9.1314261"><ele>361.6</ele><time>2026-03-29T17:32:08.943Z</time></trkpt><trkpt lat="45.7434924" lon="9.1314012"><ele>361.40000000000003</ele><time>2026-03-29T17:32:09.943Z</time></trkpt><trkpt lat="45.7435747" lon="9.1313755"><ele>361.20000000000005</ele><time>2026-03-29T17:32:10.941Z</time></trkpt><trkpt lat="45.743664" lon="9.1313412"><ele>361.0</ele><time>2026-03-29T17:32:11.943Z</time></trkpt><trkpt lat="45.7437381" lon="9.1313089"><ele>361.0</ele><time>2026-03-29T17:32:12.943Z</time></trkpt><trkpt lat="45.743815" lon="9.1312771"><ele>361.0</ele><time>2026-03-29T17:32:13.943Z</time></trkpt><trkpt lat="45.7439103" lon="9.1312479"><ele>361.0</ele><time>2026-03-29T17:32:14.943Z</time></trkpt><trkpt lat="45.7439932" lon="9.1312164"><ele>361.0</ele><time>2026-03-29T17:32:15.942Z</time></trkpt><trkpt lat="45.7440823" lon="9.1311714"><ele>361.0</ele><time>2026-03-29T17:32:16.942Z</time></trkpt><trkpt lat="45.7441909" lon="9.1311234"><ele>361.0</ele><time>2026-03-29T17:32:17.943Z</time></trkpt><trkpt lat="45.7442904" lon="9.1310846"><ele>361.0</ele><time>2026-03-29T17:32:18.942Z</time></trkpt><trkpt lat="45.7443796" lon="9.1310451"><ele>361.0</ele><time>2026-03-29T17:32:19.942Z</time></trkpt><trkpt lat="45.7444543" lon="9.1310135"><ele>361.0</ele><time>2026-03-29T17:32:20.943Z</time></trkpt><trkpt lat="45.7445265" lon="9.1309853"><ele>361.0</ele><time>2026-03-29T17:32:21.942Z</time></trkpt><trkpt lat="45.7445975" lon="9.1309621"><ele>361.0</ele><time>2026-03-29T17:32:22.943Z</time></trkpt><trkpt lat="45.7446632" lon="9.1309345"><ele>361.4</ele><time>2026-03-29T17:32:23.942Z</time></trkpt><trkpt lat="45.7447679" lon="9.1308874"><ele>361.8</ele><time>2026-03-29T17:32:25.943Z</time></trkpt><trkpt lat="45.7448111" lon="9.1308098"><ele>362.2</ele><time>2026-03-29T17:32:27.943Z</time></trkpt><trkpt lat="45.7447698" lon="9.1306867"><ele>362.59999999999997</ele><time>2026-03-29T17:32:29.942Z</time></trkpt><trkpt lat="45.7446579" lon="9.1305975"><ele>363.0</ele><time>2026-03-29T17:32:31.942Z</time></trkpt><trkpt lat="45.7445942" lon="9.1305499"><ele>361.8333333333333</ele><time>2026-03-29T17:32:32.943Z</time></trkpt><trkpt lat="45.7445272" lon="9.1304954"><ele>360.6666666666667</ele><time>2026-03-29T17:32:33.943Z</time></trkpt><trkpt lat="45.7444542" lon="9.1304339"><ele>359.5</ele><time>2026-03-29T17:32:34.943Z</time></trkpt><trkpt lat="45.7443828" lon="9.1303766"><ele>358.33333333333337</ele><time>2026-03-29T17:32:35.942Z</time></trkpt><trkpt lat="45.7443194" lon="9.1303218"><ele>357.1666666666667</ele><time>2026-03-29T17:32:36.942Z</time></trkpt><trkpt lat="45.7442555" lon="9.1302635"><ele>356.0</ele><time>2026-03-29T17:32:37.943Z</time></trkpt><trkpt lat="45.7441867" lon="9.1302062"><ele>356.0</ele><time>2026-03-29T17:32:38.942Z</time></trkpt><trkpt lat="45.7441108" lon="9.1301419"><ele>356.0</ele><time>2026-03-29T17:32:39.943Z</time></trkpt><trkpt lat="45.7440389" lon="9.1300752"><ele>356.0</ele><time>2026-03-29T17:32:40.943Z</time></trkpt><trkpt lat="45.7439663" lon="9.1300055"><ele>356.0</ele><time>2026-03-29T17:32:41.941Z</time></trkpt><trkpt lat="45.7438883" lon="9.1299273"><ele>356.0</ele><time>2026-03-29T17:32:42.943Z</time></trkpt><trkpt lat="45.743819" lon="9.1298613"><ele>356.0</ele><time>2026-03-29T17:32:43.942Z</time></trkpt><trkpt lat="45.7437544" lon="9.1298009"><ele>355.8</ele><time>2026-03-29T17:32:44.942Z</time></trkpt><trkpt lat="45.743694" lon="9.1297503"><ele>355.6</ele><time>2026-03-29T17:32:45.943Z</time></trkpt><trkpt lat="45.7435933" lon="9.1296613"><ele>355.4</ele><time>2026-03-29T17:32:47.943Z</time></trkpt><trkpt lat="45.7435323" lon="9.1295752"><ele>355.2</ele><time>2026-03-29T17:32:49.942Z</time></trkpt><trkpt lat="45.7435324" lon="9.129447"><ele>355.0</ele><time>2026-03-29T17:32:51.942Z</time></trkpt><trkpt lat="45.7435931" lon="9.1293384"><ele>354.16666666666663</ele><time>2026-03-29T17:32:53.942Z</time></trkpt><trkpt lat="45.7436559" lon="9.1293285"><ele>353.3333333333333</ele><time>2026-03-29T17:32:55.943Z</time></trkpt><trkpt lat="45.7437471" lon="9.1293341"><ele>352.5</ele><time>2026-03-29T17:34:31.942Z</time></trkpt><trkpt lat="45.743858" lon="9.1293293"><ele>351.6666666666667</ele><time>2026-03-29T17:34:33.943Z</time></trkpt><trkpt lat="45.7439213" lon="9.129319"><ele>350.83333333333337</ele><time>2026-03-29T17:34:34.941Z</time></trkpt><trkpt lat="45.7439911" lon="9.1293113"><ele>350.0</ele><time>2026-03-29T17:34:35.941Z</time></trkpt><trkpt lat="45.7440614" lon="9.1293023"><ele>350.0</ele><time>2026-03-29T17:34:36.943Z</time></trkpt><trkpt lat="45.7441306" lon="9.1292975"><ele>350.0</ele><time>2026-03-29T17:34:37.943Z</time></trkpt><trkpt lat="45.7442528" lon="9.1293012"><ele>350.0</ele><time>2026-03-29T17:34:38.943Z</time></trkpt><trkpt lat="45.7443462" lon="9.1292877"><ele>350.0</ele><time>2026-03-29T17:34:39.942Z</time></trkpt><trkpt lat="45.7444329" lon="9.1292811"><ele>350.0</ele><time>2026-03-29T17:34:40.943Z</time></trkpt><trkpt lat="45.7445107" lon="9.129282"><ele>349.6</ele><time>2026-03-29T17:34:41.942Z</time></trkpt><trkpt lat="45.7445971" lon="9.1292766"><ele>349.2</ele><time>2026-03-29T17:34:42.942Z</time></trkpt><trkpt lat="45.7446884" lon="9.1292415"><ele>348.79999999999995</ele><time>2026-03-29T17:34:44.943Z</time></trkpt><trkpt lat="45.744733" lon="9.1290982"><ele>348.4</ele><time>2026-03-29T17:34:46.942Z</time></trkpt><trkpt lat="45.744752" lon="9.1289933"><ele>348.0</ele><time>2026-03-29T17:34:47.942Z</time></trkpt><trkpt lat="45.7447776" lon="9.1288783"><ele>347.0</ele><time>2026-03-29T17:34:48.943Z</time></trkpt><trkpt lat="45.7448023" lon="9.1287485"><ele>346.0</ele><time>2026-03-29T17:34:49.942Z</time></trkpt><trkpt lat="45.7448348" lon="9.1286349"><ele>345.0</ele><time>2026-03-29T17:34:50.942Z</time></trkpt><trkpt lat="45.7448608" lon="9.1285106"><ele>344.0</ele><time>2026-03-29T17:34:51.943Z</time></trkpt><trkpt lat="45.7448903" lon="9.1283879"><ele>343.0</ele><time>2026-03-29T17:34:52.942Z</time></trkpt><trkpt lat="45.7449157" lon="9.1282643"><ele>341.66666666666663</ele><time>2026-03-29T17:34:53.942Z</time></trkpt><trkpt lat="45.7449526" lon="9.1281487"><ele>340.3333333333333</ele><time>2026-03-29T17:34:54.943Z</time></trkpt><trkpt lat="45.744993" lon="9.1280753"><ele>339.0</ele><time>2026-03-29T17:34:55.942Z</time></trkpt><trkpt lat="45.7450822" lon="9.1280246"><ele>337.6666666666667</ele><time>2026-03-29T17:34:56.943Z</time></trkpt><trkpt lat="45.7451694" lon="9.1279985"><ele>336.33333333333337</ele><time>2026-03-29T17:34:57.942Z</time></trkpt><trkpt lat="45.7452406" lon="9.127945"><ele>335.0</ele><time>2026-03-29T17:34:58.943Z</time></trkpt><trkpt lat="45.745298" lon="9.1278684"><ele>335.0</ele><time>2026-03-29T17:34:59.942Z</time></trkpt><trkpt lat="45.74533" lon="9.1277763"><ele>335.0</ele><time>2026-03-29T17:35:00.943Z</time></trkpt><trkpt lat="45.7453282" lon="9.1276796"><ele>335.0</ele><time>2026-03-29T17:35:01.942Z</time></trkpt><trkpt lat="45.7452292" lon="9.1275387"><ele>335.0</ele><time>2026-03-29T17:35:03.943Z</time></trkpt><trkpt lat="45.7451583" lon="9.1274632"><ele>335.0</ele><time>2026-03-29T17:35:04.943Z</time></trkpt><trkpt lat="45.7450876" lon="9.1273548"><ele>333.6</ele><time>2026-03-29T17:35:05.942Z</time></trkpt><trkpt lat="45.7450191" lon="9.1272388"><ele>332.2</ele><time>2026-03-29T17:35:06.942Z</time></trkpt><trkpt lat="45.7449585" lon="9.1271186"><ele>330.79999999999995</ele><time>2026-03-29T17:35:07.942Z</time></trkpt><trkpt lat="45.7449073" lon="9.1269922"><ele>329.4</ele><time>2026-03-29T17:35:08.942Z</time></trkpt><trkpt lat="45.7448669" lon="9.12686"><ele>328.0</ele><time>2026-03-29T17:35:09.943Z</time></trkpt><trkpt lat="45.7448283" lon="9.12671"><ele>326.79999999999995</ele><time>2026-03-29T17:35:10.943Z</time></trkpt><trkpt lat="45.7448066" lon="9.1265568"><ele>325.6</ele><time>2026-03-29T17:35:11.941Z</time></trkpt><trkpt lat="45.7447905" lon="9.1264063"><ele>324.4</ele><time>2026-03-29T17:35:12.943Z</time></trkpt><trkpt lat="45.7447709" lon="9.1262511"><ele>323.20000000000005</ele><time>2026-03-29T17:35:13.942Z</time></trkpt><trkpt lat="45.7447557" lon="9.1260946"><ele>322.0</ele><time>2026-03-29T17:35:14.942Z</time></trkpt><trkpt lat="45.7447393" lon="9.1259418"><ele>322.0</ele><time>2026-03-29T17:35:15.942Z</time></trkpt><trkpt lat="45.7447241" lon="9.1257941"><ele>322.0</ele><time>2026-03-29T17:35:16.941Z</time></trkpt><trkpt lat="45.7447077" lon="9.1256453"><ele>322.0</ele><time>2026-03-29T17:35:17.942Z</time></trkpt><trkpt lat="45.744692" lon="9.125504"><ele>322.0</ele><time>2026-03-29T17:35:18.942Z</time></trkpt><trkpt lat="45.7446804" lon="9.1253785"><ele>322.0</ele><time>2026-03-29T17:35:19.943Z</time></trkpt><trkpt lat="45.744671" lon="9.1252658"><ele>321.57142857142856</ele><time>2026-03-29T17:35:20.942Z</time></trkpt><trkpt lat="45.7446625" lon="9.1251647"><ele>321.1428571428571</ele><time>2026-03-29T17:35:21.943Z</time></trkpt><trkpt lat="45.7446603" lon="9.1250708"><ele>320.7142857142857</ele><time>2026-03-29T17:35:22.942Z</time></trkpt><trkpt lat="45.7446673" lon="9.1249776"><ele>320.2857142857143</ele><time>2026-03-29T17:35:23.943Z</time></trkpt><trkpt lat="45.7446825" lon="9.1248797"><ele>319.85714285714283</ele><time>2026-03-29T17:35:24.942Z</time></trkpt><trkpt lat="45.7447036" lon="9.1247679"><ele>319.42857142857144</ele><time>2026-03-29T17:35:25.943Z</time></trkpt><trkpt lat="45.7447295" lon="9.1246575"><ele>319.0</ele><time>2026-03-29T17:35:26.941Z</time></trkpt><trkpt lat="45.7447529" lon="9.1245362"><ele>318.16666666666663</ele><time>2026-03-29T17:35:27.943Z</time></trkpt><trkpt lat="45.7447784" lon="9.1244079"><ele>317.3333333333333</ele><time>2026-03-29T17:35:28.941Z</time></trkpt><trkpt lat="45.7448103" lon="9.1242731"><ele>316.5</ele><time>2026-03-29T17:35:29.943Z</time></trkpt><trkpt lat="45.744842" lon="9.1241496"><ele>315.6666666666667</ele><time>2026-03-29T17:35:30.941Z</time></trkpt><trkpt lat="45.7448648" lon="9.1240335"><ele>314.83333333333337</ele><time>2026-03-29T17:35:31.943Z</time></trkpt><trkpt lat="45.7448536" lon="9.1239223"><ele>314.0</ele><time>2026-03-29T17:35:32.942Z</time></trkpt><trkpt lat="45.7448166" lon="9.1238231"><ele>314.0</ele><time>2026-03-29T17:35:33.943Z</time></trkpt><trkpt lat="45.7447711" lon="9.1237375"><ele>314.0</ele><time>2026-03-29T17:35:34.942Z</time></trkpt><trkpt lat="45.7447253" lon="9.1236549"><ele>314.0</ele><time>2026-03-29T17:35:35.942Z</time></trkpt><trkpt lat="45.7446853" lon="9.1235654"><ele>314.0</ele><time>2026-03-29T17:35:36.942Z</time></trkpt><trkpt lat="45.7446554" lon="9.1234792"><ele>314.0</ele><time>2026-03-29T17:35:37.943Z</time></trkpt><trkpt lat="45.744613" lon="9.1233039"><ele>314.0</ele><time>2026-03-29T17:35:39.942Z</time></trkpt><trkpt lat="45.744611" lon="9.1231985"><ele>313.83333333333337</ele><time>2026-03-29T17:35:40.942Z</time></trkpt><trkpt lat="45.7446305" lon="9.1230956"><ele>313.6666666666667</ele><time>2026-03-29T17:35:41.942Z</time></trkpt><trkpt lat="45.7446723" lon="9.1229981"><ele>313.5</ele><time>2026-03-29T17:35:42.942Z</time></trkpt><trkpt lat="45.7447308" lon="9.1229071"><ele>313.3333333333333</ele><time>2026-03-29T17:35:43.942Z</time></trkpt><trkpt lat="45.7447912" lon="9.1228096"><ele>313.16666666666663</ele><time>2026-03-29T17:35:44.942Z</time></trkpt><trkpt lat="45.7448529" lon="9.1227125"><ele>313.0</ele><time>2026-03-29T17:35:45.943Z</time></trkpt><trkpt lat="45.7449137" lon="9.1226243"><ele>313.0</ele><time>2026-03-29T17:35:46.943Z</time></trkpt><trkpt lat="45.7449723" lon="9.1225512"><ele>313.0</ele><time>2026-03-29T17:35:47.943Z</time></trkpt><trkpt lat="45.7450297" lon="9.1224919"><ele>313.0</ele><time>2026-03-29T17:35:48.943Z</time></trkpt><trkpt lat="45.7450909" lon="9.1224583"><ele>313.0</ele><time>2026-03-29T17:35:49.943Z</time></trkpt><trkpt lat="45.7451554" lon="9.1224517"><ele>313.0</ele><time>2026-03-29T17:35:50.943Z</time></trkpt><trkpt lat="45.7452718" lon="9.1224491"><ele>313.0</ele><time>2026-03-29T17:35:52.942Z</time></trkpt><trkpt lat="45.745336" lon="9.1223301"><ele>313.0</ele><time>2026-03-29T17:35:54.943Z</time></trkpt><trkpt lat="45.7453239" lon="9.1221349"><ele>313.0</ele><time>2026-03-29T17:35:56.943Z</time></trkpt><trkpt lat="45.7451577" lon="9.12201"><ele>313.0</ele><time>2026-03-29T17:35:57.943Z</time></trkpt><trkpt lat="45.7450408" lon="9.1219225"><ele>313.0</ele><time>2026-03-29T17:35:58.943Z</time></trkpt><trkpt lat="45.7449305" lon="9.1218455"><ele>313.0</ele><time>2026-03-29T17:35:59.942Z</time></trkpt><trkpt lat="45.7448155" lon="9.1217637"><ele>313.0</ele><time>2026-03-29T17:36:00.942Z</time></trkpt><trkpt lat="45.7446985" lon="9.1216792"><ele>313.0</ele><time>2026-03-29T17:36:01.942Z</time></trkpt><trkpt lat="45.7445823" lon="9.1215897"><ele>313.25</ele><time>2026-03-29T17:36:02.942Z</time></trkpt><trkpt lat="45.7444613" lon="9.121505"><ele>313.5</ele><time>2026-03-29T17:36:03.942Z</time></trkpt><trkpt lat="45.7443421" lon="9.1214166"><ele>313.75</ele><time>2026-03-29T17:36:04.942Z</time></trkpt><trkpt lat="45.7442166" lon="9.1213285"><ele>314.0</ele><time>2026-03-29T17:36:05.942Z</time></trkpt><trkpt lat="45.7440803" lon="9.1212277"><ele>313.5</ele><time>2026-03-29T17:36:06.942Z</time></trkpt><trkpt lat="45.743947" lon="9.1211243"><ele>313.0</ele><time>2026-03-29T17:36:07.943Z</time></trkpt><trkpt lat="45.7438191" lon="9.1210317"><ele>312.5</ele><time>2026-03-29T17:36:08.942Z</time></trkpt><trkpt lat="45.7436982" lon="9.1209415"><ele>312.0</ele><time>2026-03-29T17:36:09.943Z</time></trkpt><trkpt lat="45.7435779" lon="9.1208474"><ele>312.0</ele><time>2026-03-29T17:36:10.943Z</time></trkpt><trkpt lat="45.7434488" lon="9.1207529"><ele>312.0</ele><time>2026-03-29T17:36:11.941Z</time></trkpt><trkpt lat="45.7433196" lon="9.1206577"><ele>312.0</ele><time>2026-03-29T17:36:12.942Z</time></trkpt><trkpt lat="45.7431953" lon="9.1205653"><ele>312.0</ele><time>2026-03-29T17:36:13.943Z</time></trkpt><trkpt lat="45.7430762" lon="9.1204768"><ele>311.75</ele><time>2026-03-29T17:36:14.942Z</time></trkpt><trkpt lat="45.7429546" lon="9.1203881"><ele>311.5</ele><time>2026-03-29T17:36:15.942Z</time></trkpt><trkpt lat="45.7428314" lon="9.1202991"><ele>311.25</ele><time>2026-03-29T17:36:16.943Z</time></trkpt><trkpt lat="45.7427064" lon="9.1202042"><ele>311.0</ele><time>2026-03-29T17:36:17.942Z</time></trkpt><trkpt lat="45.7425774" lon="9.1201051"><ele>311.0</ele><time>2026-03-29T17:36:18.942Z</time></trkpt><trkpt lat="45.7424466" lon="9.1200092"><ele>311.0</ele><time>2026-03-29T17:36:19.942Z</time></trkpt><trkpt lat="45.7423166" lon="9.1199162"><ele>311.0</ele><time>2026-03-29T17:36:20.942Z</time></trkpt><trkpt lat="45.7421881" lon="9.1198236"><ele>311.0</ele><time>2026-03-29T17:36:21.942Z</time></trkpt><trkpt lat="45.7420617" lon="9.1197223"><ele>310.75</ele><time>2026-03-29T17:36:22.941Z</time></trkpt><trkpt lat="45.7419434" lon="9.119637"><ele>310.5</ele><time>2026-03-29T17:36:23.943Z</time></trkpt><trkpt lat="45.7418377" lon="9.1195516"><ele>310.25</ele><time>2026-03-29T17:36:24.942Z</time></trkpt><trkpt lat="45.7417396" lon="9.1194726"><ele>310.0</ele><time>2026-03-29T17:36:25.943Z</time></trkpt><trkpt lat="45.7416438" lon="9.1193954"><ele>310.0</ele><time>2026-03-29T17:36:26.942Z</time></trkpt><trkpt lat="45.7415458" lon="9.1193199"><ele>310.0</ele><time>2026-03-29T17:36:27.942Z</time></trkpt><trkpt lat="45.7414648" lon="9.1192468"><ele>310.0</ele><time>2026-03-29T17:36:28.942Z</time></trkpt><trkpt lat="45.7413898" lon="9.1191706"><ele>310.0</ele><time>2026-03-29T17:36:29.942Z</time></trkpt><trkpt lat="45.7413312" lon="9.1191013"><ele>310.0</ele><time>2026-03-29T17:36:30.943Z</time></trkpt><trkpt lat="45.7412809" lon="9.1190345"><ele>310.0</ele><time>2026-03-29T17:36:31.942Z</time></trkpt><trkpt lat="45.741228" lon="9.1189704"><ele>310.0</ele><time>2026-03-29T17:36:32.942Z</time></trkpt><trkpt lat="45.7411712" lon="9.1189245"><ele>310.0</ele><time>2026-03-29T17:36:33.943Z</time></trkpt><trkpt lat="45.7411077" lon="9.1188951"><ele>310.0</ele><time>2026-03-29T17:36:34.942Z</time></trkpt><trkpt lat="45.7410365" lon="9.1188644"><ele>310.0</ele><time>2026-03-29T17:36:35.942Z</time></trkpt><trkpt lat="45.7409616" lon="9.1188288"><ele>310.0</ele><time>2026-03-29T17:36:36.943Z</time></trkpt><trkpt lat="45.7408814" lon="9.1187719"><ele>310.0</ele><time>2026-03-29T17:36:37.943Z</time></trkpt><trkpt lat="45.7407947" lon="9.1187037"><ele>309.8</ele><time>2026-03-29T17:36:38.942Z</time></trkpt><trkpt lat="45.7406976" lon="9.1186238"><ele>309.6</ele><time>2026-03-29T17:36:39.942Z</time></trkpt><trkpt lat="45.7406018" lon="9.1185408"><ele>309.4</ele><time>2026-03-29T17:36:40.941Z</time></trkpt><trkpt lat="45.740511" lon="9.1184604"><ele>309.2</ele><time>2026-03-29T17:36:41.942Z</time></trkpt><trkpt lat="45.7404118" lon="9.118376"><ele>309.0</ele><time>2026-03-29T17:36:42.943Z</time></trkpt><trkpt lat="45.7403076" lon="9.11828"><ele>308.0</ele><time>2026-03-29T17:36:43.942Z</time></trkpt><trkpt lat="45.7401978" lon="9.1181793"><ele>307.0</ele><time>2026-03-29T17:36:44.942Z</time></trkpt><trkpt lat="45.7400772" lon="9.1180707"><ele>306.0</ele><time>2026-03-29T17:36:45.942Z</time></trkpt><trkpt lat="45.7399562" lon="9.1179643"><ele>305.0</ele><time>2026-03-29T17:36:46.942Z</time></trkpt><trkpt lat="45.7398382" lon="9.117862"><ele>305.0</ele><time>2026-03-29T17:36:47.943Z</time></trkpt><trkpt lat="45.7397212" lon="9.1177517"><ele>305.0</ele><time>2026-03-29T17:36:48.941Z</time></trkpt><trkpt lat="45.7396001" lon="9.1176415"><ele>305.0</ele><time>2026-03-29T17:36:49.943Z</time></trkpt><trkpt lat="45.7394789" lon="9.1175292"><ele>305.0</ele><time>2026-03-29T17:36:50.942Z</time></trkpt><trkpt lat="45.7393595" lon="9.1174206"><ele>305.0</ele><time>2026-03-29T17:36:51.943Z</time></trkpt><trkpt lat="45.7392393" lon="9.1173163"><ele>305.0</ele><time>2026-03-29T17:36:52.942Z</time></trkpt><trkpt lat="45.7391227" lon="9.1172094"><ele>305.0</ele><time>2026-03-29T17:36:53.943Z</time></trkpt><trkpt lat="45.7390068" lon="9.1170983"><ele>305.0</ele><time>2026-03-29T17:36:54.942Z</time></trkpt><trkpt lat="45.7388912" lon="9.1169867"><ele>305.0</ele><time>2026-03-29T17:36:55.942Z</time></trkpt><trkpt lat="45.7387631" lon="9.1168716"><ele>305.0</ele><time>2026-03-29T17:36:56.943Z</time></trkpt><trkpt lat="45.7386298" lon="9.1167456"><ele>305.0</ele><time>2026-03-29T17:36:57.942Z</time></trkpt><trkpt lat="45.7384938" lon="9.1166217"><ele>304.33333333333337</ele><time>2026-03-29T17:36:58.942Z</time></trkpt><trkpt lat="45.73836" lon="9.1164964"><ele>303.6666666666667</ele><time>2026-03-29T17:36:59.943Z</time></trkpt><trkpt lat="45.7382333" lon="9.1163765"><ele>303.0</ele><time>2026-03-29T17:37:00.942Z</time></trkpt><trkpt lat="45.738102" lon="9.1162528"><ele>303.0</ele><time>2026-03-29T17:37:01.942Z</time></trkpt><trkpt lat="45.7379744" lon="9.1161282"><ele>303.0</ele><time>2026-03-29T17:37:02.943Z</time></trkpt><trkpt lat="45.7378461" lon="9.1159998"><ele>303.0</ele><time>2026-03-29T17:37:03.943Z</time></trkpt><trkpt lat="45.7377192" lon="9.1158674"><ele>302.6666666666667</ele><time>2026-03-29T17:37:04.943Z</time></trkpt><trkpt lat="45.7375935" lon="9.1157283"><ele>302.33333333333337</ele><time>2026-03-29T17:37:05.943Z</time></trkpt><trkpt lat="45.7374694" lon="9.115586"><ele>302.0</ele><time>2026-03-29T17:37:06.943Z</time></trkpt><trkpt lat="45.7373466" lon="9.1154394"><ele>302.0</ele><time>2026-03-29T17:37:07.942Z</time></trkpt><trkpt lat="45.7372297" lon="9.1152917"><ele>302.0</ele><time>2026-03-29T17:37:08.941Z</time></trkpt><trkpt lat="45.7371159" lon="9.1151377"><ele>302.0</ele><time>2026-03-29T17:37:09.941Z</time></trkpt><trkpt lat="45.7370049" lon="9.1149735"><ele>301.6666666666667</ele><time>2026-03-29T17:37:10.942Z</time></trkpt><trkpt lat="45.7368981" lon="9.1148019"><ele>301.3333333333333</ele><time>2026-03-29T17:37:11.943Z</time></trkpt><trkpt lat="45.7367874" lon="9.1146232"><ele>301.0</ele><time>2026-03-29T17:37:12.941Z</time></trkpt><trkpt lat="45.7366737" lon="9.1144433"><ele>301.0</ele><time>2026-03-29T17:37:13.943Z</time></trkpt><trkpt lat="45.736555" lon="9.1142579"><ele>301.0</ele><time>2026-03-29T17:37:14.943Z</time></trkpt><trkpt lat="45.7364405" lon="9.1140769"><ele>301.0</ele><time>2026-03-29T17:37:15.942Z</time></trkpt><trkpt lat="45.7363295" lon="9.1139055"><ele>300.0</ele><time>2026-03-29T17:37:16.942Z</time></trkpt><trkpt lat="45.7362188" lon="9.1137486"><ele>299.0</ele><time>2026-03-29T17:37:17.942Z</time></trkpt><trkpt lat="45.7361132" lon="9.113599"><ele>298.0</ele><time>2026-03-29T17:37:18.943Z</time></trkpt><trkpt lat="45.7360076" lon="9.1134517"><ele>298.0</ele><time>2026-03-29T17:37:19.943Z</time></trkpt><trkpt lat="45.7359023" lon="9.1133153"><ele>298.0</ele><time>2026-03-29T17:37:20.942Z</time></trkpt><trkpt lat="45.7357958" lon="9.1131857"><ele>298.0</ele><time>2026-03-29T17:37:21.942Z</time></trkpt><trkpt lat="45.7356916" lon="9.1130664"><ele>298.0</ele><time>2026-03-29T17:37:22.942Z</time></trkpt><trkpt lat="45.7355865" lon="9.1129532"><ele>297.75</ele><time>2026-03-29T17:37:23.942Z</time></trkpt><trkpt lat="45.7354838" lon="9.1128418"><ele>297.5</ele><time>2026-03-29T17:37:24.943Z</time></trkpt><trkpt lat="45.7353811" lon="9.1127336"><ele>297.25</ele><time>2026-03-29T17:37:25.943Z</time></trkpt><trkpt lat="45.7352832" lon="9.112632"><ele>297.0</ele><time>2026-03-29T17:37:26.943Z</time></trkpt><trkpt lat="45.7351916" lon="9.1125368"><ele>296.8</ele><time>2026-03-29T17:37:27.942Z</time></trkpt><trkpt lat="45.7351025" lon="9.1124427"><ele>296.6</ele><time>2026-03-29T17:37:28.943Z</time></trkpt><trkpt lat="45.7350187" lon="9.1123497"><ele>296.40000000000003</ele><time>2026-03-29T17:37:29.943Z</time></trkpt><trkpt lat="45.7349398" lon="9.1122559"><ele>296.2</ele><time>2026-03-29T17:37:30.943Z</time></trkpt><trkpt lat="45.7348695" lon="9.1121639"><ele>296.0</ele><time>2026-03-29T17:37:31.943Z</time></trkpt><trkpt lat="45.7348054" lon="9.1120736"><ele>295.83333333333337</ele><time>2026-03-29T17:37:32.942Z</time></trkpt><trkpt lat="45.7347441" lon="9.1119862"><ele>295.6666666666667</ele><time>2026-03-29T17:37:33.942Z</time></trkpt><trkpt lat="45.7346963" lon="9.1119118"><ele>295.5</ele><time>2026-03-29T17:37:34.941Z</time></trkpt><trkpt lat="45.7346196" lon="9.1117703"><ele>295.3333333333333</ele><time>2026-03-29T17:37:36.942Z</time></trkpt><trkpt lat="45.7345933" lon="9.1116852"><ele>295.16666666666663</ele><time>2026-03-29T17:37:37.943Z</time></trkpt><trkpt lat="45.7345295" lon="9.1115743"><ele>295.0</ele><time>2026-03-29T17:37:39.943Z</time></trkpt><trkpt lat="45.7344593" lon="9.1115072"><ele>295.0</ele><time>2026-03-29T17:37:41.941Z</time></trkpt><trkpt lat="45.7343897" lon="9.1114816"><ele>295.0</ele><time>2026-03-29T17:37:43.941Z</time></trkpt><trkpt lat="45.7343172" lon="9.1114525"><ele>295.0</ele><time>2026-03-29T17:37:45.941Z</time></trkpt><trkpt lat="45.734254" lon="9.1114081"><ele>295.0</ele><time>2026-03-29T17:37:47.943Z</time></trkpt><trkpt lat="45.7341713" lon="9.1113479"><ele>295.0</ele><time>2026-03-29T17:37:49.943Z</time></trkpt><trkpt lat="45.7341172" lon="9.1112919"><ele>295.0</ele><time>2026-03-29T17:37:50.943Z</time></trkpt><trkpt lat="45.7340591" lon="9.1112279"><ele>295.16666666666663</ele><time>2026-03-29T17:37:51.942Z</time></trkpt><trkpt lat="45.7340045" lon="9.1111636"><ele>295.3333333333333</ele><time>2026-03-29T17:37:52.943Z</time></trkpt><trkpt lat="45.7339454" lon="9.1110948"><ele>295.5</ele><time>2026-03-29T17:37:53.943Z</time></trkpt><trkpt lat="45.7338832" lon="9.1110207"><ele>295.6666666666667</ele><time>2026-03-29T17:37:54.942Z</time></trkpt><trkpt lat="45.733812" lon="9.1109276"><ele>295.83333333333337</ele><time>2026-03-29T17:37:55.942Z</time></trkpt><trkpt lat="45.7337373" lon="9.1108266"><ele>296.0</ele><time>2026-03-29T17:37:56.943Z</time></trkpt><trkpt lat="45.733665" lon="9.1107331"><ele>296.0</ele><time>2026-03-29T17:37:57.943Z</time></trkpt><trkpt lat="45.7335867" lon="9.1106352"><ele>296.0</ele><time>2026-03-29T17:37:58.943Z</time></trkpt><trkpt lat="45.7335067" lon="9.110531"><ele>296.0</ele><time>2026-03-29T17:37:59.942Z</time></trkpt><trkpt lat="45.7334231" lon="9.1104254"><ele>296.0</ele><time>2026-03-29T17:38:00.943Z</time></trkpt><trkpt lat="45.733335" lon="9.1103139"><ele>296.0</ele><time>2026-03-29T17:38:01.942Z</time></trkpt><trkpt lat="45.7332401" lon="9.1101954"><ele>296.0</ele><time>2026-03-29T17:38:02.942Z</time></trkpt><trkpt lat="45.7331455" lon="9.1100781"><ele>296.0</ele><time>2026-03-29T17:38:03.942Z</time></trkpt><trkpt lat="45.7330549" lon="9.1099647"><ele>296.0</ele><time>2026-03-29T17:38:04.943Z</time></trkpt><trkpt lat="45.732962" lon="9.1098501"><ele>296.0</ele><time>2026-03-29T17:38:05.942Z</time></trkpt><trkpt lat="45.7328668" lon="9.109729"><ele>296.0</ele><time>2026-03-29T17:38:06.942Z</time></trkpt><trkpt lat="45.7327702" lon="9.1096082"><ele>296.0</ele><time>2026-03-29T17:38:07.942Z</time></trkpt><trkpt lat="45.7326662" lon="9.1094899"><ele>296.0</ele><time>2026-03-29T17:38:08.943Z</time></trkpt><trkpt lat="45.7325619" lon="9.1093778"><ele>296.0</ele><time>2026-03-29T17:38:09.942Z</time></trkpt><trkpt lat="45.7324518" lon="9.1092688"><ele>296.25</ele><time>2026-03-29T17:38:10.942Z</time></trkpt><trkpt lat="45.7323359" lon="9.1091637"><ele>296.5</ele><time>2026-03-29T17:38:11.942Z</time></trkpt><trkpt lat="45.7322101" lon="9.1090587"><ele>296.75</ele><time>2026-03-29T17:38:12.943Z</time></trkpt><trkpt lat="45.7320839" lon="9.1089635"><ele>297.0</ele><time>2026-03-29T17:38:13.943Z</time></trkpt><trkpt lat="45.7319314" lon="9.1088566"><ele>296.0</ele><time>2026-03-29T17:38:14.942Z</time></trkpt><trkpt lat="45.7317863" lon="9.1087702"><ele>295.0</ele><time>2026-03-29T17:38:15.942Z</time></trkpt><trkpt lat="45.7316485" lon="9.1086894"><ele>294.0</ele><time>2026-03-29T17:38:16.942Z</time></trkpt><trkpt lat="45.7315115" lon="9.1086126"><ele>294.0</ele><time>2026-03-29T17:38:17.943Z</time></trkpt><trkpt lat="45.7313726" lon="9.1085426"><ele>294.0</ele><time>2026-03-29T17:38:18.941Z</time></trkpt><trkpt lat="45.7312355" lon="9.108481"><ele>294.0</ele><time>2026-03-29T17:38:19.941Z</time></trkpt><trkpt lat="45.7310942" lon="9.1084276"><ele>294.0</ele><time>2026-03-29T17:38:20.942Z</time></trkpt><trkpt lat="45.7309529" lon="9.1083961"><ele>295.0</ele><time>2026-03-29T17:38:21.941Z</time></trkpt><trkpt lat="45.7308048" lon="9.1083766"><ele>296.0</ele><time>2026-03-29T17:38:22.942Z</time></trkpt><trkpt lat="45.7306607" lon="9.108377"><ele>297.0</ele><time>2026-03-29T17:38:23.941Z</time></trkpt><trkpt lat="45.7305046" lon="9.1083931"><ele>298.0</ele><time>2026-03-29T17:38:24.941Z</time></trkpt><trkpt lat="45.730347" lon="9.1084186"><ele>298.25</ele><time>2026-03-29T17:38:25.942Z</time></trkpt><trkpt lat="45.7302001" lon="9.1084459"><ele>298.5</ele><time>2026-03-29T17:38:26.94Z</time></trkpt><trkpt lat="45.7300664" lon="9.1084743"><ele>298.75</ele><time>2026-03-29T17:38:27.941Z</time></trkpt><trkpt lat="45.7299485" lon="9.108502"><ele>299.0</ele><time>2026-03-29T17:38:28.941Z</time></trkpt><trkpt lat="45.7298377" lon="9.1085316"><ele>299.0</ele><time>2026-03-29T17:38:29.942Z</time></trkpt><trkpt lat="45.7297361" lon="9.1085551"><ele>299.0</ele><time>2026-03-29T17:38:30.94Z</time></trkpt><trkpt lat="45.7296458" lon="9.1085705"><ele>299.0</ele><time>2026-03-29T17:38:31.941Z</time></trkpt><trkpt lat="45.7295584" lon="9.1085837"><ele>299.0</ele><time>2026-03-29T17:38:32.942Z</time></trkpt><trkpt lat="45.7294809" lon="9.1085883"><ele>299.0</ele><time>2026-03-29T17:38:33.94Z</time></trkpt><trkpt lat="45.7294155" lon="9.1085825"><ele>299.0</ele><time>2026-03-29T17:38:34.942Z</time></trkpt><trkpt lat="45.7293476" lon="9.1085631"><ele>299.2</ele><time>2026-03-29T17:38:35.941Z</time></trkpt><trkpt lat="45.7292718" lon="9.1085215"><ele>299.4</ele><time>2026-03-29T17:38:36.942Z</time></trkpt><trkpt lat="45.7292" lon="9.1084568"><ele>299.6</ele><time>2026-03-29T17:38:37.941Z</time></trkpt><trkpt lat="45.7291316" lon="9.1083904"><ele>299.8</ele><time>2026-03-29T17:38:38.942Z</time></trkpt><trkpt lat="45.7290517" lon="9.1082767"><ele>300.0</ele><time>2026-03-29T17:38:39.942Z</time></trkpt><trkpt lat="45.7289891" lon="9.1081507"><ele>300.0</ele><time>2026-03-29T17:38:40.941Z</time></trkpt><trkpt lat="45.7289389" lon="9.1080066"><ele>300.0</ele><time>2026-03-29T17:38:41.941Z</time></trkpt><trkpt lat="45.7289041" lon="9.1078406"><ele>300.0</ele><time>2026-03-29T17:38:42.942Z</time></trkpt><trkpt lat="45.7288722" lon="9.1076642"><ele>300.0</ele><time>2026-03-29T17:38:43.941Z</time></trkpt><trkpt lat="45.7288435" lon="9.1074921"><ele>300.25</ele><time>2026-03-29T17:38:44.941Z</time></trkpt><trkpt lat="45.7288141" lon="9.1073278"><ele>300.5</ele><time>2026-03-29T17:38:45.941Z</time></trkpt><trkpt lat="45.7287874" lon="9.1071662"><ele>300.75</ele><time>2026-03-29T17:38:46.942Z</time></trkpt><trkpt lat="45.7287601" lon="9.1070131"><ele>301.0</ele><time>2026-03-29T17:38:47.942Z</time></trkpt><trkpt lat="45.7287259" lon="9.1068661"><ele>301.0</ele><time>2026-03-29T17:38:48.942Z</time></trkpt><trkpt lat="45.7286799" lon="9.1067255"><ele>301.0</ele><time>2026-03-29T17:38:49.942Z</time></trkpt><trkpt lat="45.728618" lon="9.1065923"><ele>301.0</ele><time>2026-03-29T17:38:50.94Z</time></trkpt><trkpt lat="45.7285403" lon="9.106473"><ele>301.0</ele><time>2026-03-29T17:38:51.942Z</time></trkpt><trkpt lat="45.7284491" lon="9.1063748"><ele>301.0</ele><time>2026-03-29T17:38:52.941Z</time></trkpt><trkpt lat="45.7283395" lon="9.1062942"><ele>299.5</ele><time>2026-03-29T17:38:53.942Z</time></trkpt><trkpt lat="45.7282101" lon="9.1062282"><ele>298.0</ele><time>2026-03-29T17:38:54.942Z</time></trkpt><trkpt lat="45.7280772" lon="9.1061843"><ele>296.5</ele><time>2026-03-29T17:38:55.942Z</time></trkpt><trkpt lat="45.7279514" lon="9.1061561"><ele>295.0</ele><time>2026-03-29T17:38:56.942Z</time></trkpt><trkpt lat="45.7278286" lon="9.1061516"><ele>293.0</ele><time>2026-03-29T17:38:57.941Z</time></trkpt><trkpt lat="45.7277085" lon="9.1061764"><ele>291.0</ele><time>2026-03-29T17:38:58.941Z</time></trkpt><trkpt lat="45.7275982" lon="9.1062402"><ele>289.0</ele><time>2026-03-29T17:38:59.942Z</time></trkpt><trkpt lat="45.7274907" lon="9.1063419"><ele>287.0</ele><time>2026-03-29T17:39:00.94Z</time></trkpt><trkpt lat="45.7273903" lon="9.1064891"><ele>288.75</ele><time>2026-03-29T17:39:01.942Z</time></trkpt><trkpt lat="45.7273019" lon="9.1066685"><ele>290.5</ele><time>2026-03-29T17:39:02.941Z</time></trkpt><trkpt lat="45.7272228" lon="9.1068383"><ele>292.25</ele><time>2026-03-29T17:39:03.941Z</time></trkpt><trkpt lat="45.7271524" lon="9.1069904"><ele>294.0</ele><time>2026-03-29T17:39:04.941Z</time></trkpt><trkpt lat="45.7270876" lon="9.1071364"><ele>294.0</ele><time>2026-03-29T17:39:05.942Z</time></trkpt><trkpt lat="45.7270204" lon="9.107278"><ele>294.0</ele><time>2026-03-29T17:39:06.941Z</time></trkpt><trkpt lat="45.7269417" lon="9.107398"><ele>294.0</ele><time>2026-03-29T17:39:07.942Z</time></trkpt><trkpt lat="45.7268479" lon="9.1074833"><ele>294.0</ele><time>2026-03-29T17:39:08.941Z</time></trkpt><trkpt lat="45.7267416" lon="9.1075352"><ele>294.0</ele><time>2026-03-29T17:39:09.942Z</time></trkpt><trkpt lat="45.7266275" lon="9.1075545"><ele>294.0</ele><time>2026-03-29T17:39:10.941Z</time></trkpt><trkpt lat="45.7265047" lon="9.1075385"><ele>294.0</ele><time>2026-03-29T17:39:11.941Z</time></trkpt><trkpt lat="45.7263743" lon="9.107488"><ele>294.0</ele><time>2026-03-29T17:39:12.941Z</time></trkpt><trkpt lat="45.7262359" lon="9.1074113"><ele>292.25</ele><time>2026-03-29T17:39:13.941Z</time></trkpt><trkpt lat="45.7260976" lon="9.1073175"><ele>290.5</ele><time>2026-03-29T17:39:14.941Z</time></trkpt><trkpt lat="45.7259654" lon="9.1072155"><ele>288.75</ele><time>2026-03-29T17:39:15.942Z</time></trkpt><trkpt lat="45.7258448" lon="9.107108"><ele>287.0</ele><time>2026-03-29T17:39:16.942Z</time></trkpt><trkpt lat="45.7257232" lon="9.1070037"><ele>287.0</ele><time>2026-03-29T17:39:17.941Z</time></trkpt><trkpt lat="45.7255957" lon="9.1068987"><ele>287.0</ele><time>2026-03-29T17:39:18.942Z</time></trkpt><trkpt lat="45.7254629" lon="9.1067897"><ele>287.0</ele><time>2026-03-29T17:39:19.942Z</time></trkpt><trkpt lat="45.7253333" lon="9.1066817"><ele>284.6666666666667</ele><time>2026-03-29T17:39:20.942Z</time></trkpt><trkpt lat="45.7252017" lon="9.1065747"><ele>282.3333333333333</ele><time>2026-03-29T17:39:21.94Z</time></trkpt><trkpt lat="45.725072" lon="9.1064687"><ele>280.0</ele><time>2026-03-29T17:39:22.942Z</time></trkpt><trkpt lat="45.7249382" lon="9.1063576"><ele>280.0</ele><time>2026-03-29T17:39:23.941Z</time></trkpt><trkpt lat="45.7248022" lon="9.1062491"><ele>280.0</ele><time>2026-03-29T17:39:24.941Z</time></trkpt><trkpt lat="45.7246662" lon="9.1061433"><ele>280.0</ele><time>2026-03-29T17:39:25.942Z</time></trkpt><trkpt lat="45.7245365" lon="9.1060354"><ele>280.0</ele><time>2026-03-29T17:39:26.942Z</time></trkpt><trkpt lat="45.7244089" lon="9.1059328"><ele>280.0</ele><time>2026-03-29T17:39:27.941Z</time></trkpt><trkpt lat="45.7242867" lon="9.1058324"><ele>280.0</ele><time>2026-03-29T17:39:28.941Z</time></trkpt><trkpt lat="45.7241654" lon="9.1057342"><ele>280.0</ele><time>2026-03-29T17:39:29.942Z</time></trkpt><trkpt lat="45.7240438" lon="9.1056385"><ele>277.66666666666663</ele><time>2026-03-29T17:39:30.942Z</time></trkpt><trkpt lat="45.7239204" lon="9.1055388"><ele>275.3333333333333</ele><time>2026-03-29T17:39:31.94Z</time></trkpt><trkpt lat="45.7237967" lon="9.1054185"><ele>273.0</ele><time>2026-03-29T17:39:32.942Z</time></trkpt><trkpt lat="45.7236705" lon="9.1052632"><ele>273.0</ele><time>2026-03-29T17:39:33.941Z</time></trkpt><trkpt lat="45.7235484" lon="9.1050935"><ele>273.0</ele><time>2026-03-29T17:39:34.941Z</time></trkpt><trkpt lat="45.7234313" lon="9.1049234"><ele>273.0</ele><time>2026-03-29T17:39:35.941Z</time></trkpt><trkpt lat="45.7233082" lon="9.1047581"><ele>270.6666666666667</ele><time>2026-03-29T17:39:36.942Z</time></trkpt><trkpt lat="45.7231675" lon="9.1045965"><ele>268.33333333333337</ele><time>2026-03-29T17:39:37.941Z</time></trkpt><trkpt lat="45.7230089" lon="9.1044453"><ele>266.0</ele><time>2026-03-29T17:39:38.941Z</time></trkpt><trkpt lat="45.7228459" lon="9.1043054"><ele>266.0</ele><time>2026-03-29T17:39:39.942Z</time></trkpt><trkpt lat="45.7226887" lon="9.1041729"><ele>266.0</ele><time>2026-03-29T17:39:40.941Z</time></trkpt><trkpt lat="45.7225328" lon="9.1040512"><ele>266.0</ele><time>2026-03-29T17:39:41.942Z</time></trkpt><trkpt lat="45.7223789" lon="9.1039336"><ele>267.0</ele><time>2026-03-29T17:39:42.942Z</time></trkpt><trkpt lat="45.7222249" lon="9.1038185"><ele>268.0</ele><time>2026-03-29T17:39:43.941Z</time></trkpt><trkpt lat="45.722074" lon="9.1037094"><ele>269.0</ele><time>2026-03-29T17:39:44.941Z</time></trkpt><trkpt lat="45.7219284" lon="9.1036083"><ele>266.33333333333337</ele><time>2026-03-29T17:39:45.942Z</time></trkpt><trkpt lat="45.7217856" lon="9.1035126"><ele>263.6666666666667</ele><time>2026-03-29T17:39:46.941Z</time></trkpt><trkpt lat="45.7216509" lon="9.1034138"><ele>261.0</ele><time>2026-03-29T17:39:47.941Z</time></trkpt><trkpt lat="45.7215188" lon="9.1032967"><ele>262.0</ele><time>2026-03-29T17:39:48.941Z</time></trkpt><trkpt lat="45.7213899" lon="9.1031524"><ele>263.0</ele><time>2026-03-29T17:39:49.941Z</time></trkpt><trkpt lat="45.7212623" lon="9.1029864"><ele>264.0</ele><time>2026-03-29T17:39:50.942Z</time></trkpt><trkpt lat="45.7211285" lon="9.1027982"><ele>263.3333333333333</ele><time>2026-03-29T17:39:51.941Z</time></trkpt><trkpt lat="45.7209967" lon="9.1026092"><ele>262.66666666666663</ele><time>2026-03-29T17:39:52.942Z</time></trkpt><trkpt lat="45.7208698" lon="9.1024323"><ele>262.0</ele><time>2026-03-29T17:39:53.941Z</time></trkpt><trkpt lat="45.7207537" lon="9.1022722"><ele>260.75</ele><time>2026-03-29T17:39:54.942Z</time></trkpt><trkpt lat="45.7206476" lon="9.1021194"><ele>259.5</ele><time>2026-03-29T17:39:55.941Z</time></trkpt><trkpt lat="45.7205547" lon="9.1019834"><ele>258.25</ele><time>2026-03-29T17:39:56.941Z</time></trkpt><trkpt lat="45.7204721" lon="9.1018651"><ele>257.0</ele><time>2026-03-29T17:39:57.942Z</time></trkpt><trkpt lat="45.7204073" lon="9.101767"><ele>257.0</ele><time>2026-03-29T17:39:58.941Z</time></trkpt><trkpt lat="45.7203641" lon="9.1016726"><ele>257.0</ele><time>2026-03-29T17:39:59.941Z</time></trkpt><trkpt lat="45.720333" lon="9.1015847"><ele>257.0</ele><time>2026-03-29T17:40:00.941Z</time></trkpt><trkpt lat="45.7203197" lon="9.101488"><ele>257.0</ele><time>2026-03-29T17:40:01.942Z</time></trkpt><trkpt lat="45.7203216" lon="9.1013865"><ele>257.0</ele><time>2026-03-29T17:40:02.94Z</time></trkpt><trkpt lat="45.7203095" lon="9.1012924"><ele>257.0</ele><time>2026-03-29T17:40:03.942Z</time></trkpt><trkpt lat="45.720272" lon="9.101216"><ele>257.0</ele><time>2026-03-29T17:40:04.941Z</time></trkpt><trkpt lat="45.7202115" lon="9.1011637"><ele>255.8</ele><time>2026-03-29T17:40:05.942Z</time></trkpt><trkpt lat="45.7201296" lon="9.1011501"><ele>254.6</ele><time>2026-03-29T17:40:06.942Z</time></trkpt><trkpt lat="45.7200378" lon="9.1011543"><ele>253.40000000000003</ele><time>2026-03-29T17:40:07.942Z</time></trkpt><trkpt lat="45.7199449" lon="9.1011477"><ele>252.20000000000002</ele><time>2026-03-29T17:40:08.942Z</time></trkpt><trkpt lat="45.7198458" lon="9.1011202"><ele>251.0</ele><time>2026-03-29T17:40:09.942Z</time></trkpt><trkpt lat="45.7197378" lon="9.1010805"><ele>251.0</ele><time>2026-03-29T17:40:10.941Z</time></trkpt><trkpt lat="45.7196267" lon="9.1010282"><ele>251.0</ele><time>2026-03-29T17:40:11.941Z</time></trkpt><trkpt lat="45.7195203" lon="9.1009789"><ele>251.0</ele><time>2026-03-29T17:40:12.941Z</time></trkpt><trkpt lat="45.7194074" lon="9.1009181"><ele>251.0</ele><time>2026-03-29T17:40:13.942Z</time></trkpt><trkpt lat="45.7192976" lon="9.1008512"><ele>251.0</ele><time>2026-03-29T17:40:14.942Z</time></trkpt><trkpt lat="45.7191877" lon="9.1007848"><ele>251.0</ele><time>2026-03-29T17:40:15.942Z</time></trkpt><trkpt lat="45.7190738" lon="9.1007176"><ele>251.0</ele><time>2026-03-29T17:40:16.942Z</time></trkpt><trkpt lat="45.7189574" lon="9.100646"><ele>251.0</ele><time>2026-03-29T17:40:17.94Z</time></trkpt><trkpt lat="45.7188388" lon="9.1005777"><ele>250.25</ele><time>2026-03-29T17:40:18.941Z</time></trkpt><trkpt lat="45.7187209" lon="9.1005077"><ele>249.5</ele><time>2026-03-29T17:40:19.942Z</time></trkpt><trkpt lat="45.7186035" lon="9.1004361"><ele>248.75</ele><time>2026-03-29T17:40:20.942Z</time></trkpt><trkpt lat="45.7184899" lon="9.100367"><ele>248.0</ele><time>2026-03-29T17:40:21.94Z</time></trkpt><trkpt lat="45.7183801" lon="9.1003"><ele>248.0</ele><time>2026-03-29T17:40:22.942Z</time></trkpt><trkpt lat="45.7182669" lon="9.1002271"><ele>248.0</ele><time>2026-03-29T17:40:23.942Z</time></trkpt><trkpt lat="45.7181483" lon="9.1001566"><ele>248.0</ele><time>2026-03-29T17:40:24.942Z</time></trkpt><trkpt lat="45.7180213" lon="9.1000914"><ele>248.0</ele><time>2026-03-29T17:40:25.942Z</time></trkpt><trkpt lat="45.7178776" lon="9.1000331"><ele>248.0</ele><time>2026-03-29T17:40:26.942Z</time></trkpt><trkpt lat="45.7177429" lon="9.0999813"><ele>248.0</ele><time>2026-03-29T17:40:27.941Z</time></trkpt><trkpt lat="45.7176105" lon="9.0999422"><ele>248.0</ele><time>2026-03-29T17:40:28.942Z</time></trkpt><trkpt lat="45.7174796" lon="9.0999095"><ele>248.0</ele><time>2026-03-29T17:40:29.942Z</time></trkpt><trkpt lat="45.7173625" lon="9.0998799"><ele>248.0</ele><time>2026-03-29T17:40:30.942Z</time></trkpt><trkpt lat="45.7172545" lon="9.099856"><ele>248.0</ele><time>2026-03-29T17:40:31.941Z</time></trkpt><trkpt lat="45.7171585" lon="9.0998345"><ele>248.0</ele><time>2026-03-29T17:40:32.941Z</time></trkpt><trkpt lat="45.7170715" lon="9.0998173"><ele>248.0</ele><time>2026-03-29T17:40:33.942Z</time></trkpt><trkpt lat="45.7169894" lon="9.0998007"><ele>248.0</ele><time>2026-03-29T17:40:34.941Z</time></trkpt><trkpt lat="45.7169136" lon="9.0997897"><ele>248.60000000000002</ele><time>2026-03-29T17:40:35.942Z</time></trkpt><trkpt lat="45.7168476" lon="9.0997733"><ele>249.20000000000002</ele><time>2026-03-29T17:40:36.941Z</time></trkpt><trkpt lat="45.7167454" lon="9.0997611"><ele>249.8</ele><time>2026-03-29T17:40:38.942Z</time></trkpt><trkpt lat="45.7166648" lon="9.0997535"><ele>250.4</ele><time>2026-03-29T17:40:41.942Z</time></trkpt><trkpt lat="45.716539" lon="9.0997099"><ele>251.0</ele><time>2026-03-29T17:41:12.941Z</time></trkpt><trkpt lat="45.7164543" lon="9.0997154"><ele>251.0</ele><time>2026-03-29T17:41:13.941Z</time></trkpt><trkpt lat="45.7163684" lon="9.0997307"><ele>251.00000000000003</ele><time>2026-03-29T17:41:14.942Z</time></trkpt><trkpt lat="45.7162889" lon="9.0997547"><ele>251.00000000000003</ele><time>2026-03-29T17:41:15.942Z</time></trkpt><trkpt lat="45.7161943" lon="9.0997729"><ele>251.0</ele><time>2026-03-29T17:41:16.942Z</time></trkpt><trkpt lat="45.716083" lon="9.0997817"><ele>251.0</ele><time>2026-03-29T17:41:17.942Z</time></trkpt><trkpt lat="45.7159375" lon="9.0997701"><ele>250.75</ele><time>2026-03-29T17:41:18.941Z</time></trkpt><trkpt lat="45.7158016" lon="9.0997588"><ele>250.5</ele><time>2026-03-29T17:41:19.942Z</time></trkpt><trkpt lat="45.7156639" lon="9.099752"><ele>250.25</ele><time>2026-03-29T17:41:20.942Z</time></trkpt><trkpt lat="45.7155105" lon="9.0997423"><ele>250.0</ele><time>2026-03-29T17:41:21.941Z</time></trkpt><trkpt lat="45.7153435" lon="9.0997214"><ele>249.33333333333331</ele><time>2026-03-29T17:41:22.941Z</time></trkpt><trkpt lat="45.7151805" lon="9.099705"><ele>248.66666666666669</ele><time>2026-03-29T17:41:23.942Z</time></trkpt><trkpt lat="45.715027" lon="9.099684"><ele>248.0</ele><time>2026-03-29T17:41:24.94Z</time></trkpt><trkpt lat="45.7148862" lon="9.0996556"><ele>248.0</ele><time>2026-03-29T17:41:25.941Z</time></trkpt><trkpt lat="45.7147498" lon="9.0996142"><ele>248.0</ele><time>2026-03-29T17:41:26.94Z</time></trkpt><trkpt lat="45.7146133" lon="9.0995574"><ele>248.0</ele><time>2026-03-29T17:41:27.942Z</time></trkpt><trkpt lat="45.7144682" lon="9.0994886"><ele>248.0</ele><time>2026-03-29T17:41:28.941Z</time></trkpt><trkpt lat="45.714312" lon="9.0994141"><ele>248.33333333333334</ele><time>2026-03-29T17:41:29.942Z</time></trkpt><trkpt lat="45.7141411" lon="9.0993331"><ele>248.66666666666669</ele><time>2026-03-29T17:41:30.942Z</time></trkpt><trkpt lat="45.7139703" lon="9.0992498"><ele>249.0</ele><time>2026-03-29T17:41:31.941Z</time></trkpt><trkpt lat="45.7138161" lon="9.0991724"><ele>249.0</ele><time>2026-03-29T17:41:32.94Z</time></trkpt><trkpt lat="45.7136667" lon="9.0991094"><ele>249.0</ele><time>2026-03-29T17:41:33.942Z</time></trkpt><trkpt lat="45.7135257" lon="9.0990652"><ele>249.0</ele><time>2026-03-29T17:41:34.942Z</time></trkpt><trkpt lat="45.7133814" lon="9.0990259"><ele>249.0</ele><time>2026-03-29T17:41:35.942Z</time></trkpt><trkpt lat="45.7132488" lon="9.0990228"><ele>249.5</ele><time>2026-03-29T17:41:36.942Z</time></trkpt><trkpt lat="45.7131206" lon="9.0990106"><ele>250.0</ele><time>2026-03-29T17:41:37.941Z</time></trkpt><trkpt lat="45.712997" lon="9.0989524"><ele>250.5</ele><time>2026-03-29T17:41:38.942Z</time></trkpt><trkpt lat="45.7128849" lon="9.0988656"><ele>251.0</ele><time>2026-03-29T17:41:39.942Z</time></trkpt><trkpt lat="45.7127826" lon="9.0987535"><ele>251.0</ele><time>2026-03-29T17:41:40.942Z</time></trkpt><trkpt lat="45.7126948" lon="9.0986113"><ele>251.0</ele><time>2026-03-29T17:41:41.941Z</time></trkpt><trkpt lat="45.7126319" lon="9.0984458"><ele>251.0</ele><time>2026-03-29T17:41:42.942Z</time></trkpt><trkpt lat="45.7125881" lon="9.0982641"><ele>251.0</ele><time>2026-03-29T17:41:43.941Z</time></trkpt><trkpt lat="45.7125681" lon="9.0980757"><ele>252.25</ele><time>2026-03-29T17:41:44.941Z</time></trkpt><trkpt lat="45.7125713" lon="9.0978768"><ele>253.5</ele><time>2026-03-29T17:41:45.942Z</time></trkpt><trkpt lat="45.7125948" lon="9.0976748"><ele>254.75</ele><time>2026-03-29T17:41:46.942Z</time></trkpt><trkpt lat="45.7126353" lon="9.0974823"><ele>256.0</ele><time>2026-03-29T17:41:47.941Z</time></trkpt><trkpt lat="45.7127072" lon="9.0973083"><ele>259.0</ele><time>2026-03-29T17:41:48.941Z</time></trkpt><trkpt lat="45.712804" lon="9.0971441"><ele>262.0</ele><time>2026-03-29T17:41:49.942Z</time></trkpt><trkpt lat="45.7129233" lon="9.0969969"><ele>265.0</ele><time>2026-03-29T17:41:50.941Z</time></trkpt><trkpt lat="45.7130637" lon="9.0968697"><ele>265.0</ele><time>2026-03-29T17:41:51.941Z</time></trkpt><trkpt lat="45.7132268" lon="9.0967647"><ele>265.0</ele><time>2026-03-29T17:41:52.941Z</time></trkpt><trkpt lat="45.7134099" lon="9.0966814"><ele>265.0</ele><time>2026-03-29T17:41:53.942Z</time></trkpt><trkpt lat="45.713601" lon="9.0966153"><ele>265.66666666666663</ele><time>2026-03-29T17:41:54.941Z</time></trkpt><trkpt lat="45.7137802" lon="9.0965595"><ele>266.3333333333333</ele><time>2026-03-29T17:41:55.941Z</time></trkpt><trkpt lat="45.7139374" lon="9.0964993"><ele>267.0</ele><time>2026-03-29T17:41:56.942Z</time></trkpt><trkpt lat="45.7140804" lon="9.0964486"><ele>267.0</ele><time>2026-03-29T17:41:57.942Z</time></trkpt><trkpt lat="45.7142042" lon="9.0963911"><ele>267.0</ele><time>2026-03-29T17:41:58.942Z</time></trkpt><trkpt lat="45.7143037" lon="9.0963122"><ele>267.0</ele><time>2026-03-29T17:41:59.941Z</time></trkpt><trkpt lat="45.7143903" lon="9.096208"><ele>267.0</ele><time>2026-03-29T17:42:00.941Z</time></trkpt><trkpt lat="45.7144569" lon="9.0960725"><ele>266.25</ele><time>2026-03-29T17:42:01.941Z</time></trkpt><trkpt lat="45.7144993" lon="9.0959101"><ele>265.5</ele><time>2026-03-29T17:42:02.941Z</time></trkpt><trkpt lat="45.714516" lon="9.0957323"><ele>264.75</ele><time>2026-03-29T17:42:03.942Z</time></trkpt><trkpt lat="45.7144995" lon="9.0955598"><ele>264.0</ele><time>2026-03-29T17:42:04.941Z</time></trkpt><trkpt lat="45.7144579" lon="9.0953884"><ele>268.25</ele><time>2026-03-29T17:42:05.941Z</time></trkpt><trkpt lat="45.7143631" lon="9.0952547"><ele>272.5</ele><time>2026-03-29T17:42:06.941Z</time></trkpt><trkpt lat="45.7142498" lon="9.095156"><ele>276.75</ele><time>2026-03-29T17:42:07.941Z</time></trkpt><trkpt lat="45.7141144" lon="9.0950984"><ele>281.0</ele><time>2026-03-29T17:42:08.942Z</time></trkpt><trkpt lat="45.7139482" lon="9.095077"><ele>281.0</ele><time>2026-03-29T17:42:09.942Z</time></trkpt><trkpt lat="45.7137583" lon="9.095078"><ele>281.0</ele><time>2026-03-29T17:42:10.941Z</time></trkpt><trkpt lat="45.7135855" lon="9.0950822"><ele>281.0</ele><time>2026-03-29T17:42:11.942Z</time></trkpt><trkpt lat="45.713415" lon="9.0950801"><ele>283.0</ele><time>2026-03-29T17:42:12.941Z</time></trkpt><trkpt lat="45.7132524" lon="9.0950842"><ele>285.0</ele><time>2026-03-29T17:42:13.941Z</time></trkpt><trkpt lat="45.7131007" lon="9.0950868"><ele>287.0</ele><time>2026-03-29T17:42:14.94Z</time></trkpt><trkpt lat="45.7129507" lon="9.0950941"><ele>287.0</ele><time>2026-03-29T17:42:15.942Z</time></trkpt><trkpt lat="45.7128208" lon="9.0950969"><ele>287.0</ele><time>2026-03-29T17:42:16.941Z</time></trkpt><trkpt lat="45.7126773" lon="9.0950971"><ele>287.0</ele><time>2026-03-29T17:42:17.941Z</time></trkpt><trkpt lat="45.7125325" lon="9.0951031"><ele>287.0</ele><time>2026-03-29T17:42:18.941Z</time></trkpt><trkpt lat="45.712385" lon="9.0951066"><ele>287.0</ele><time>2026-03-29T17:42:19.941Z</time></trkpt><trkpt lat="45.7122354" lon="9.0951021"><ele>287.0</ele><time>2026-03-29T17:42:20.941Z</time></trkpt><trkpt lat="45.7120884" lon="9.0951011"><ele>287.0</ele><time>2026-03-29T17:42:21.942Z</time></trkpt><trkpt lat="45.7119389" lon="9.0951052"><ele>287.0</ele><time>2026-03-29T17:42:22.942Z</time></trkpt><trkpt lat="45.7117906" lon="9.0951057"><ele>287.6666666666667</ele><time>2026-03-29T17:42:23.942Z</time></trkpt><trkpt lat="45.7116434" lon="9.0951079"><ele>288.3333333333333</ele><time>2026-03-29T17:42:24.942Z</time></trkpt><trkpt lat="45.7114918" lon="9.0951127"><ele>289.0</ele><time>2026-03-29T17:42:25.941Z</time></trkpt><trkpt lat="45.7113383" lon="9.0951206"><ele>289.0</ele><time>2026-03-29T17:42:26.942Z</time></trkpt><trkpt lat="45.7111867" lon="9.0951247"><ele>289.0</ele><time>2026-03-29T17:42:27.942Z</time></trkpt><trkpt lat="45.7110401" lon="9.0951239"><ele>289.0</ele><time>2026-03-29T17:42:28.942Z</time></trkpt><trkpt lat="45.7109058" lon="9.0951224"><ele>289.0</ele><time>2026-03-29T17:42:29.941Z</time></trkpt><trkpt lat="45.7107796" lon="9.0951271"><ele>289.8</ele><time>2026-03-29T17:42:30.942Z</time></trkpt><trkpt lat="45.7106545" lon="9.095132"><ele>290.59999999999997</ele><time>2026-03-29T17:42:31.941Z</time></trkpt><trkpt lat="45.7105399" lon="9.0951317"><ele>291.4</ele><time>2026-03-29T17:42:32.941Z</time></trkpt><trkpt lat="45.7104329" lon="9.0951229"><ele>292.2</ele><time>2026-03-29T17:42:33.942Z</time></trkpt><trkpt lat="45.7103381" lon="9.095092"><ele>293.0</ele><time>2026-03-29T17:42:34.94Z</time></trkpt><trkpt lat="45.7102455" lon="9.09503"><ele>292.8</ele><time>2026-03-29T17:42:35.942Z</time></trkpt><trkpt lat="45.7101649" lon="9.09494"><ele>292.6</ele><time>2026-03-29T17:42:36.941Z</time></trkpt><trkpt lat="45.7100921" lon="9.0948265"><ele>292.4</ele><time>2026-03-29T17:42:37.942Z</time></trkpt><trkpt lat="45.7100344" lon="9.0946944"><ele>292.2</ele><time>2026-03-29T17:42:38.942Z</time></trkpt><trkpt lat="45.7099963" lon="9.0945356"><ele>292.0</ele><time>2026-03-29T17:42:39.942Z</time></trkpt><trkpt lat="45.7099749" lon="9.094347"><ele>293.0</ele><time>2026-03-29T17:42:40.941Z</time></trkpt><trkpt lat="45.7099594" lon="9.0941456"><ele>294.0</ele><time>2026-03-29T17:42:41.942Z</time></trkpt><trkpt lat="45.7099437" lon="9.0939538"><ele>295.0</ele><time>2026-03-29T17:42:42.942Z</time></trkpt><trkpt lat="45.7099079" lon="9.0937714"><ele>296.0</ele><time>2026-03-29T17:42:43.941Z</time></trkpt><trkpt lat="45.7098328" lon="9.0936056"><ele>296.25</ele><time>2026-03-29T17:42:44.941Z</time></trkpt><trkpt lat="45.7097258" lon="9.0934462"><ele>296.5</ele><time>2026-03-29T17:42:45.942Z</time></trkpt><trkpt lat="45.7096148" lon="9.0933022"><ele>296.75</ele><time>2026-03-29T17:42:46.942Z</time></trkpt><trkpt lat="45.7095132" lon="9.0931763"><ele>297.0</ele><time>2026-03-29T17:42:47.942Z</time></trkpt><trkpt lat="45.7094045" lon="9.0930823"><ele>301.25</ele><time>2026-03-29T17:42:48.941Z</time></trkpt><trkpt lat="45.7092846" lon="9.0930274"><ele>305.5</ele><time>2026-03-29T17:42:49.941Z</time></trkpt><trkpt lat="45.7091609" lon="9.0930054"><ele>309.75</ele><time>2026-03-29T17:42:50.941Z</time></trkpt><trkpt lat="45.7090294" lon="9.0930389"><ele>314.0</ele><time>2026-03-29T17:42:51.941Z</time></trkpt><trkpt lat="45.7088835" lon="9.0931246"><ele>314.0</ele><time>2026-03-29T17:42:52.941Z</time></trkpt><trkpt lat="45.7087561" lon="9.0932084"><ele>314.0</ele><time>2026-03-29T17:42:53.941Z</time></trkpt><trkpt lat="45.7086394" lon="9.0932879"><ele>314.0</ele><time>2026-03-29T17:42:54.941Z</time></trkpt><trkpt lat="45.7085234" lon="9.0933578"><ele>314.0</ele><time>2026-03-29T17:42:55.942Z</time></trkpt><trkpt lat="45.7083991" lon="9.0934192"><ele>312.5</ele><time>2026-03-29T17:42:56.942Z</time></trkpt><trkpt lat="45.7082689" lon="9.093474"><ele>311.0</ele><time>2026-03-29T17:42:57.942Z</time></trkpt><trkpt lat="45.7081349" lon="9.0935184"><ele>309.5</ele><time>2026-03-29T17:42:58.941Z</time></trkpt><trkpt lat="45.7079959" lon="9.0935548"><ele>308.0</ele><time>2026-03-29T17:42:59.942Z</time></trkpt><trkpt lat="45.7078528" lon="9.0935839"><ele>309.0</ele><time>2026-03-29T17:43:00.942Z</time></trkpt><trkpt lat="45.7077087" lon="9.0936176"><ele>310.0</ele><time>2026-03-29T17:43:01.942Z</time></trkpt><trkpt lat="45.707558" lon="9.0936515"><ele>311.0</ele><time>2026-03-29T17:43:02.94Z</time></trkpt><trkpt lat="45.7074056" lon="9.0936815"><ele>311.0</ele><time>2026-03-29T17:43:03.941Z</time></trkpt><trkpt lat="45.7072603" lon="9.0937183"><ele>311.0</ele><time>2026-03-29T17:43:04.941Z</time></trkpt><trkpt lat="45.707129" lon="9.0937499"><ele>311.0</ele><time>2026-03-29T17:43:05.942Z</time></trkpt><trkpt lat="45.7070027" lon="9.0937605"><ele>311.0</ele><time>2026-03-29T17:43:06.941Z</time></trkpt><trkpt lat="45.70687" lon="9.0937602"><ele>311.5</ele><time>2026-03-29T17:43:07.942Z</time></trkpt><trkpt lat="45.7067368" lon="9.0937556"><ele>312.0</ele><time>2026-03-29T17:43:08.941Z</time></trkpt><trkpt lat="45.7066067" lon="9.0937449"><ele>312.5</ele><time>2026-03-29T17:43:09.94Z</time></trkpt><trkpt lat="45.7064752" lon="9.0937325"><ele>313.0</ele><time>2026-03-29T17:43:10.942Z</time></trkpt><trkpt lat="45.7063368" lon="9.0937391"><ele>313.0</ele><time>2026-03-29T17:43:11.942Z</time></trkpt><trkpt lat="45.7061915" lon="9.093763"><ele>313.0</ele><time>2026-03-29T17:43:12.941Z</time></trkpt><trkpt lat="45.7060467" lon="9.0938027"><ele>313.0</ele><time>2026-03-29T17:43:13.942Z</time></trkpt><trkpt lat="45.7059024" lon="9.0938595"><ele>313.0</ele><time>2026-03-29T17:43:14.942Z</time></trkpt><trkpt lat="45.7057861" lon="9.0939245"><ele>312.25</ele><time>2026-03-29T17:43:15.941Z</time></trkpt><trkpt lat="45.7056664" lon="9.0939997"><ele>311.5</ele><time>2026-03-29T17:43:16.942Z</time></trkpt><trkpt lat="45.7055426" lon="9.0940871"><ele>310.75</ele><time>2026-03-29T17:43:17.942Z</time></trkpt><trkpt lat="45.7054625" lon="9.0941258"><ele>310.0</ele><time>2026-03-29T17:43:18.942Z</time></trkpt><trkpt lat="45.705368" lon="9.0941543"><ele>309.3333333333333</ele><time>2026-03-29T17:43:19.941Z</time></trkpt><trkpt lat="45.7052794" lon="9.0941619"><ele>308.66666666666663</ele><time>2026-03-29T17:43:20.942Z</time></trkpt><trkpt lat="45.7052007" lon="9.0941506"><ele>308.0</ele><time>2026-03-29T17:43:21.942Z</time></trkpt><trkpt lat="45.7051264" lon="9.0941165"><ele>307.3333333333333</ele><time>2026-03-29T17:43:22.941Z</time></trkpt><trkpt lat="45.7050587" lon="9.0940617"><ele>306.6666666666667</ele><time>2026-03-29T17:43:23.941Z</time></trkpt><trkpt lat="45.7049897" lon="9.093973"><ele>306.0</ele><time>2026-03-29T17:43:24.941Z</time></trkpt><trkpt lat="45.7049254" lon="9.0938505"><ele>305.5</ele><time>2026-03-29T17:43:25.942Z</time></trkpt><trkpt lat="45.7048771" lon="9.0937175"><ele>305.0</ele><time>2026-03-29T17:43:26.941Z</time></trkpt><trkpt lat="45.704839" lon="9.0935635"><ele>304.5</ele><time>2026-03-29T17:43:27.941Z</time></trkpt><trkpt lat="45.7047976" lon="9.0933825"><ele>304.0</ele><time>2026-03-29T17:43:28.942Z</time></trkpt><trkpt lat="45.7047522" lon="9.0931891"><ele>303.25</ele><time>2026-03-29T17:43:29.94Z</time></trkpt><trkpt lat="45.7047106" lon="9.0930047"><ele>302.5</ele><time>2026-03-29T17:43:30.942Z</time></trkpt><trkpt lat="45.7046762" lon="9.0928261"><ele>301.75</ele><time>2026-03-29T17:43:31.94Z</time></trkpt><trkpt lat="45.7046397" lon="9.0926566"><ele>301.0</ele><time>2026-03-29T17:43:32.941Z</time></trkpt><trkpt lat="45.7046036" lon="9.0924923"><ele>300.5</ele><time>2026-03-29T17:43:33.942Z</time></trkpt><trkpt lat="45.704568" lon="9.0923238"><ele>300.0</ele><time>2026-03-29T17:43:34.941Z</time></trkpt><trkpt lat="45.7045316" lon="9.0921603"><ele>299.5</ele><time>2026-03-29T17:43:35.942Z</time></trkpt><trkpt lat="45.7044979" lon="9.0920055"><ele>299.0</ele><time>2026-03-29T17:43:36.941Z</time></trkpt><trkpt lat="45.704466" lon="9.0918617"><ele>299.0</ele><time>2026-03-29T17:43:37.942Z</time></trkpt><trkpt lat="45.704443" lon="9.0917353"><ele>299.0</ele><time>2026-03-29T17:43:38.942Z</time></trkpt><trkpt lat="45.7044295" lon="9.0916214"><ele>299.0</ele><time>2026-03-29T17:43:39.941Z</time></trkpt><trkpt lat="45.7044243" lon="9.0915203"><ele>299.0</ele><time>2026-03-29T17:43:40.941Z</time></trkpt><trkpt lat="45.7044268" lon="9.0914256"><ele>299.0</ele><time>2026-03-29T17:43:41.94Z</time></trkpt><trkpt lat="45.7044372" lon="9.0913343"><ele>299.0</ele><time>2026-03-29T17:43:42.941Z</time></trkpt><trkpt lat="45.7044526" lon="9.0911632"><ele>299.2</ele><time>2026-03-29T17:43:44.942Z</time></trkpt><trkpt lat="45.7044249" lon="9.0910797"><ele>299.4</ele><time>2026-03-29T17:43:45.942Z</time></trkpt><trkpt lat="45.7043727" lon="9.0910242"><ele>299.6</ele><time>2026-03-29T17:43:46.942Z</time></trkpt><trkpt lat="45.7042475" lon="9.0910662"><ele>299.8</ele><time>2026-03-29T17:43:48.942Z</time></trkpt><trkpt lat="45.7041777" lon="9.091177"><ele>300.0</ele><time>2026-03-29T17:43:49.941Z</time></trkpt><trkpt lat="45.7040859" lon="9.0913015"><ele>299.75</ele><time>2026-03-29T17:43:50.941Z</time></trkpt><trkpt lat="45.7040006" lon="9.0913989"><ele>299.5</ele><time>2026-03-29T17:43:51.942Z</time></trkpt><trkpt lat="45.7039137" lon="9.0915"><ele>299.25</ele><time>2026-03-29T17:43:52.941Z</time></trkpt><trkpt lat="45.7038245" lon="9.0916008"><ele>299.0</ele><time>2026-03-29T17:43:53.942Z</time></trkpt><trkpt lat="45.7037336" lon="9.0917054"><ele>299.0</ele><time>2026-03-29T17:43:54.942Z</time></trkpt><trkpt lat="45.7036379" lon="9.0918159"><ele>299.0</ele><time>2026-03-29T17:43:55.941Z</time></trkpt><trkpt lat="45.7035474" lon="9.0919245"><ele>299.0</ele><time>2026-03-29T17:43:56.942Z</time></trkpt><trkpt lat="45.70346" lon="9.0920237"><ele>299.0</ele><time>2026-03-29T17:43:57.941Z</time></trkpt><trkpt lat="45.7033755" lon="9.0921189"><ele>299.0</ele><time>2026-03-29T17:43:58.941Z</time></trkpt><trkpt lat="45.7032908" lon="9.0922145"><ele>299.0</ele><time>2026-03-29T17:43:59.941Z</time></trkpt><trkpt lat="45.7032053" lon="9.0923051"><ele>299.0</ele><time>2026-03-29T17:44:00.942Z</time></trkpt><trkpt lat="45.7031223" lon="9.0923965"><ele>299.0</ele><time>2026-03-29T17:44:01.941Z</time></trkpt><trkpt lat="45.7030295" lon="9.0924966"><ele>299.0</ele><time>2026-03-29T17:44:02.942Z</time></trkpt><trkpt lat="45.7029486" lon="9.0925907"><ele>299.0</ele><time>2026-03-29T17:44:03.942Z</time></trkpt><trkpt lat="45.702867" lon="9.0926815"><ele>299.0</ele><time>2026-03-29T17:44:04.942Z</time></trkpt><trkpt lat="45.7027867" lon="9.0927692"><ele>299.0</ele><time>2026-03-29T17:44:05.941Z</time></trkpt><trkpt lat="45.7026991" lon="9.0928592"><ele>299.0</ele><time>2026-03-29T17:44:06.942Z</time></trkpt><trkpt lat="45.702615" lon="9.09295"><ele>299.0</ele><time>2026-03-29T17:44:07.942Z</time></trkpt><trkpt lat="45.7025324" lon="9.0930374"><ele>299.25</ele><time>2026-03-29T17:44:08.942Z</time></trkpt><trkpt lat="45.7024483" lon="9.0931325"><ele>299.5</ele><time>2026-03-29T17:44:09.941Z</time></trkpt><trkpt lat="45.702362" lon="9.0932336"><ele>299.75</ele><time>2026-03-29T17:44:10.942Z</time></trkpt><trkpt lat="45.7022686" lon="9.0933393"><ele>300.0</ele><time>2026-03-29T17:44:11.941Z</time></trkpt><trkpt lat="45.7021609" lon="9.0934493"><ele>300.5</ele><time>2026-03-29T17:44:12.942Z</time></trkpt><trkpt lat="45.7020449" lon="9.0935669"><ele>301.0</ele><time>2026-03-29T17:44:13.941Z</time></trkpt><trkpt lat="45.7019276" lon="9.0936883"><ele>301.5</ele><time>2026-03-29T17:44:14.942Z</time></trkpt><trkpt lat="45.7018155" lon="9.0937987"><ele>302.0</ele><time>2026-03-29T17:44:15.942Z</time></trkpt><trkpt lat="45.7017063" lon="9.0938958"><ele>303.0</ele><time>2026-03-29T17:44:16.942Z</time></trkpt><trkpt lat="45.701596" lon="9.0939812"><ele>304.0</ele><time>2026-03-29T17:44:17.942Z</time></trkpt><trkpt lat="45.7014818" lon="9.0940668"><ele>305.0</ele><time>2026-03-29T17:44:18.942Z</time></trkpt><trkpt lat="45.7013618" lon="9.0941509"><ele>306.0</ele><time>2026-03-29T17:44:19.941Z</time></trkpt><trkpt lat="45.701233" lon="9.0942458"><ele>304.0</ele><time>2026-03-29T17:44:20.942Z</time></trkpt><trkpt lat="45.7011041" lon="9.0943339"><ele>302.0</ele><time>2026-03-29T17:44:21.942Z</time></trkpt><trkpt lat="45.7009804" lon="9.0944139"><ele>300.0</ele><time>2026-03-29T17:44:22.942Z</time></trkpt><trkpt lat="45.700859" lon="9.0944929"><ele>298.0</ele><time>2026-03-29T17:44:23.941Z</time></trkpt><trkpt lat="45.70074" lon="9.0945779"><ele>297.75</ele><time>2026-03-29T17:44:24.941Z</time></trkpt><trkpt lat="45.7006242" lon="9.094656"><ele>297.5</ele><time>2026-03-29T17:44:25.941Z</time></trkpt><trkpt lat="45.7005101" lon="9.0947375"><ele>297.25</ele><time>2026-03-29T17:44:26.942Z</time></trkpt><trkpt lat="45.7003945" lon="9.0948218"><ele>297.0</ele><time>2026-03-29T17:44:27.941Z</time></trkpt><trkpt lat="45.700272" lon="9.0949026"><ele>296.0</ele><time>2026-03-29T17:44:28.941Z</time></trkpt><trkpt lat="45.7001454" lon="9.0949828"><ele>295.0</ele><time>2026-03-29T17:44:29.942Z</time></trkpt><trkpt lat="45.7000185" lon="9.0950679"><ele>294.0</ele><time>2026-03-29T17:44:30.942Z</time></trkpt><trkpt lat="45.6998916" lon="9.0951524"><ele>293.0</ele><time>2026-03-29T17:44:31.941Z</time></trkpt><trkpt lat="45.69976" lon="9.0952392"><ele>293.0</ele><time>2026-03-29T17:44:32.941Z</time></trkpt><trkpt lat="45.6996309" lon="9.0953258"><ele>293.0</ele><time>2026-03-29T17:44:33.942Z</time></trkpt><trkpt lat="45.6995011" lon="9.0954159"><ele>293.0</ele><time>2026-03-29T17:44:34.942Z</time></trkpt><trkpt lat="45.699368" lon="9.0955077"><ele>293.0</ele><time>2026-03-29T17:44:35.941Z</time></trkpt><trkpt lat="45.6992397" lon="9.095596"><ele>293.0</ele><time>2026-03-29T17:44:36.942Z</time></trkpt><trkpt lat="45.6991171" lon="9.0956812"><ele>293.0</ele><time>2026-03-29T17:44:37.94Z</time></trkpt><trkpt lat="45.6989974" lon="9.0957649"><ele>293.0</ele><time>2026-03-29T17:44:38.942Z</time></trkpt><trkpt lat="45.6988742" lon="9.0958528"><ele>293.0</ele><time>2026-03-29T17:44:39.941Z</time></trkpt><trkpt lat="45.6987527" lon="9.0959381"><ele>293.0</ele><time>2026-03-29T17:44:40.942Z</time></trkpt><trkpt lat="45.6986363" lon="9.0960184"><ele>293.0</ele><time>2026-03-29T17:44:41.941Z</time></trkpt><trkpt lat="45.6985224" lon="9.0960988"><ele>293.0</ele><time>2026-03-29T17:44:42.941Z</time></trkpt><trkpt lat="45.6984088" lon="9.0961757"><ele>293.0</ele><time>2026-03-29T17:44:43.941Z</time></trkpt><trkpt lat="45.6982986" lon="9.0962484"><ele>291.8</ele><time>2026-03-29T17:44:44.942Z</time></trkpt><trkpt lat="45.6981898" lon="9.0963178"><ele>290.6</ele><time>2026-03-29T17:44:45.941Z</time></trkpt><trkpt lat="45.6980814" lon="9.0963854"><ele>289.4</ele><time>2026-03-29T17:44:46.942Z</time></trkpt><trkpt lat="45.6979804" lon="9.0964439"><ele>288.2</ele><time>2026-03-29T17:44:47.941Z</time></trkpt><trkpt lat="45.697886" lon="9.0964937"><ele>287.0</ele><time>2026-03-29T17:44:48.94Z</time></trkpt><trkpt lat="45.697802" lon="9.0965339"><ele>287.33333333333337</ele><time>2026-03-29T17:44:49.94Z</time></trkpt><trkpt lat="45.6977287" lon="9.0965587"><ele>287.6666666666667</ele><time>2026-03-29T17:44:50.942Z</time></trkpt><trkpt lat="45.6976575" lon="9.0965669"><ele>288.0</ele><time>2026-03-29T17:44:51.941Z</time></trkpt><trkpt lat="45.6975814" lon="9.0965616"><ele>288.3333333333333</ele><time>2026-03-29T17:44:52.94Z</time></trkpt><trkpt lat="45.6974993" lon="9.0965325"><ele>288.66666666666663</ele><time>2026-03-29T17:44:53.942Z</time></trkpt><trkpt lat="45.6974205" lon="9.0964913"><ele>289.0</ele><time>2026-03-29T17:44:54.942Z</time></trkpt><trkpt lat="45.6973481" lon="9.0964337"><ele>289.0</ele><time>2026-03-29T17:44:55.942Z</time></trkpt><trkpt lat="45.6972775" lon="9.0963406"><ele>289.0</ele><time>2026-03-29T17:44:56.942Z</time></trkpt><trkpt lat="45.6972132" lon="9.0962215"><ele>289.0</ele><time>2026-03-29T17:44:57.941Z</time></trkpt><trkpt lat="45.6971407" lon="9.0960489"><ele>289.0</ele><time>2026-03-29T17:44:58.942Z</time></trkpt><trkpt lat="45.6970781" lon="9.0958579"><ele>287.5</ele><time>2026-03-29T17:44:59.941Z</time></trkpt><trkpt lat="45.697024" lon="9.0956815"><ele>286.0</ele><time>2026-03-29T17:45:00.941Z</time></trkpt><trkpt lat="45.6969828" lon="9.0955015"><ele>284.5</ele><time>2026-03-29T17:45:01.941Z</time></trkpt><trkpt lat="45.6969444" lon="9.0953072"><ele>283.0</ele><time>2026-03-29T17:45:02.942Z</time></trkpt><trkpt lat="45.6969045" lon="9.0950943"><ele>283.0</ele><time>2026-03-29T17:45:03.941Z</time></trkpt><trkpt lat="45.6968653" lon="9.0948771"><ele>283.0</ele><time>2026-03-29T17:45:04.941Z</time></trkpt><trkpt lat="45.6968281" lon="9.094672"><ele>283.0</ele><time>2026-03-29T17:45:05.942Z</time></trkpt><trkpt lat="45.696793" lon="9.094476"><ele>283.0</ele><time>2026-03-29T17:45:06.942Z</time></trkpt><trkpt lat="45.6967595" lon="9.0942721"><ele>283.25</ele><time>2026-03-29T17:45:07.941Z</time></trkpt><trkpt lat="45.6967243" lon="9.0940665"><ele>283.5</ele><time>2026-03-29T17:45:08.942Z</time></trkpt><trkpt lat="45.6966964" lon="9.093858"><ele>283.75</ele><time>2026-03-29T17:45:09.942Z</time></trkpt><trkpt lat="45.6966785" lon="9.0936445"><ele>284.0</ele><time>2026-03-29T17:45:10.941Z</time></trkpt><trkpt lat="45.6966765" lon="9.0934262"><ele>284.33333333333337</ele><time>2026-03-29T17:45:11.942Z</time></trkpt><trkpt lat="45.6966861" lon="9.0931926"><ele>284.6666666666667</ele><time>2026-03-29T17:45:12.942Z</time></trkpt><trkpt lat="45.6967057" lon="9.0929491"><ele>285.0</ele><time>2026-03-29T17:45:13.942Z</time></trkpt><trkpt lat="45.6967336" lon="9.092705"><ele>285.0</ele><time>2026-03-29T17:45:14.942Z</time></trkpt><trkpt lat="45.6967607" lon="9.092475"><ele>285.0</ele><time>2026-03-29T17:45:15.941Z</time></trkpt><trkpt lat="45.6967893" lon="9.0922632"><ele>285.0</ele><time>2026-03-29T17:45:16.942Z</time></trkpt><trkpt lat="45.696814" lon="9.0920562"><ele>285.5</ele><time>2026-03-29T17:45:17.942Z</time></trkpt><trkpt lat="45.6968395" lon="9.0918527"><ele>286.0</ele><time>2026-03-29T17:45:18.941Z</time></trkpt><trkpt lat="45.6968651" lon="9.0916446"><ele>286.5</ele><time>2026-03-29T17:45:19.94Z</time></trkpt><trkpt lat="45.6968888" lon="9.0914417"><ele>287.0</ele><time>2026-03-29T17:45:20.942Z</time></trkpt><trkpt lat="45.6969112" lon="9.0912364"><ele>287.33333333333337</ele><time>2026-03-29T17:45:21.942Z</time></trkpt><trkpt lat="45.6969245" lon="9.0910194"><ele>287.6666666666667</ele><time>2026-03-29T17:45:22.942Z</time></trkpt><trkpt lat="45.6969248" lon="9.0907973"><ele>288.0</ele><time>2026-03-29T17:45:23.94Z</time></trkpt><trkpt lat="45.6969107" lon="9.0905704"><ele>288.0</ele><time>2026-03-29T17:45:24.942Z</time></trkpt><trkpt lat="45.6968833" lon="9.0903483"><ele>288.0</ele><time>2026-03-29T17:45:25.942Z</time></trkpt><trkpt lat="45.6968444" lon="9.0901286"><ele>288.0</ele><time>2026-03-29T17:45:26.942Z</time></trkpt><trkpt lat="45.6967926" lon="9.089905"><ele>287.6666666666667</ele><time>2026-03-29T17:45:27.942Z</time></trkpt><trkpt lat="45.6967335" lon="9.0896696"><ele>287.33333333333337</ele><time>2026-03-29T17:45:28.941Z</time></trkpt><trkpt lat="45.696671" lon="9.0894405"><ele>287.0</ele><time>2026-03-29T17:45:29.941Z</time></trkpt><trkpt lat="45.6966106" lon="9.0892256"><ele>287.0</ele><time>2026-03-29T17:45:30.941Z</time></trkpt><trkpt lat="45.6965532" lon="9.0890235"><ele>287.0</ele><time>2026-03-29T17:45:31.94Z</time></trkpt><trkpt lat="45.6964991" lon="9.0888302"><ele>287.0</ele><time>2026-03-29T17:45:32.942Z</time></trkpt><trkpt lat="45.6964472" lon="9.0886388"><ele>287.0</ele><time>2026-03-29T17:45:33.942Z</time></trkpt><trkpt lat="45.6963929" lon="9.0884385"><ele>286.5</ele><time>2026-03-29T17:45:34.942Z</time></trkpt><trkpt lat="45.6963388" lon="9.0882468"><ele>286.0</ele><time>2026-03-29T17:45:35.94Z</time></trkpt><trkpt lat="45.6962887" lon="9.0880661"><ele>285.5</ele><time>2026-03-29T17:45:36.94Z</time></trkpt><trkpt lat="45.696243" lon="9.0878968"><ele>285.0</ele><time>2026-03-29T17:45:37.942Z</time></trkpt><trkpt lat="45.6962029" lon="9.0877362"><ele>285.0</ele><time>2026-03-29T17:45:38.941Z</time></trkpt><trkpt lat="45.6961619" lon="9.0875812"><ele>285.0</ele><time>2026-03-29T17:45:39.941Z</time></trkpt><trkpt lat="45.6961211" lon="9.0874326"><ele>285.0</ele><time>2026-03-29T17:45:40.941Z</time></trkpt><trkpt lat="45.6960799" lon="9.0872864"><ele>285.0</ele><time>2026-03-29T17:45:41.942Z</time></trkpt><trkpt lat="45.6960493" lon="9.0871493"><ele>285.0</ele><time>2026-03-29T17:45:42.941Z</time></trkpt><trkpt lat="45.6960281" lon="9.0870254"><ele>285.0</ele><time>2026-03-29T17:45:43.942Z</time></trkpt><trkpt lat="45.6960127" lon="9.0869152"><ele>285.0</ele><time>2026-03-29T17:45:44.941Z</time></trkpt><trkpt lat="45.696003" lon="9.0868151"><ele>285.0</ele><time>2026-03-29T17:45:45.941Z</time></trkpt><trkpt lat="45.6959993" lon="9.0867091"><ele>285.0</ele><time>2026-03-29T17:45:46.942Z</time></trkpt><trkpt lat="45.6960063" lon="9.0865896"><ele>285.0</ele><time>2026-03-29T17:45:47.942Z</time></trkpt><trkpt lat="45.6960072" lon="9.0864618"><ele>285.0</ele><time>2026-03-29T17:45:48.942Z</time></trkpt><trkpt lat="45.6959787" lon="9.0863244"><ele>284.75</ele><time>2026-03-29T17:45:49.942Z</time></trkpt><trkpt lat="45.695939" lon="9.0861706"><ele>284.5</ele><time>2026-03-29T17:45:50.942Z</time></trkpt><trkpt lat="45.6959047" lon="9.0860042"><ele>284.25</ele><time>2026-03-29T17:45:51.942Z</time></trkpt><trkpt lat="45.695875" lon="9.0858378"><ele>284.0</ele><time>2026-03-29T17:45:52.942Z</time></trkpt><trkpt lat="45.6958488" lon="9.0856665"><ele>284.0</ele><time>2026-03-29T17:45:53.941Z</time></trkpt><trkpt lat="45.6958304" lon="9.0854815"><ele>284.0</ele><time>2026-03-29T17:45:54.942Z</time></trkpt><trkpt lat="45.6958203" lon="9.0852903"><ele>284.0</ele><time>2026-03-29T17:45:55.941Z</time></trkpt><trkpt lat="45.6958089" lon="9.0850915"><ele>284.0</ele><time>2026-03-29T17:45:56.941Z</time></trkpt><trkpt lat="45.6957958" lon="9.0848813"><ele>283.5</ele><time>2026-03-29T17:45:57.94Z</time></trkpt><trkpt lat="45.695784" lon="9.0846827"><ele>283.0</ele><time>2026-03-29T17:45:58.941Z</time></trkpt><trkpt lat="45.6957744" lon="9.0844896"><ele>282.5</ele><time>2026-03-29T17:45:59.942Z</time></trkpt><trkpt lat="45.6957601" lon="9.0842996"><ele>282.0</ele><time>2026-03-29T17:46:00.94Z</time></trkpt><trkpt lat="45.695745" lon="9.0841117"><ele>281.5</ele><time>2026-03-29T17:46:01.94Z</time></trkpt><trkpt lat="45.6957322" lon="9.0839192"><ele>281.0</ele><time>2026-03-29T17:46:02.941Z</time></trkpt><trkpt lat="45.6957062" lon="9.0837128"><ele>280.5</ele><time>2026-03-29T17:46:03.941Z</time></trkpt><trkpt lat="45.6956765" lon="9.0835054"><ele>280.0</ele><time>2026-03-29T17:46:04.941Z</time></trkpt><trkpt lat="45.6956448" lon="9.0832949"><ele>279.75</ele><time>2026-03-29T17:46:05.941Z</time></trkpt><trkpt lat="45.6956085" lon="9.0830819"><ele>279.5</ele><time>2026-03-29T17:46:06.941Z</time></trkpt><trkpt lat="45.6955756" lon="9.0828712"><ele>279.25</ele><time>2026-03-29T17:46:07.941Z</time></trkpt><trkpt lat="45.6955434" lon="9.0826698"><ele>279.0</ele><time>2026-03-29T17:46:08.941Z</time></trkpt><trkpt lat="45.6955119" lon="9.0824791"><ele>279.5</ele><time>2026-03-29T17:46:09.941Z</time></trkpt><trkpt lat="45.6954816" lon="9.0822977"><ele>280.0</ele><time>2026-03-29T17:46:10.941Z</time></trkpt><trkpt lat="45.6954545" lon="9.0821187"><ele>280.5</ele><time>2026-03-29T17:46:11.94Z</time></trkpt><trkpt lat="45.6954242" lon="9.0819351"><ele>281.0</ele><time>2026-03-29T17:46:12.94Z</time></trkpt><trkpt lat="45.6953953" lon="9.0817511"><ele>281.25</ele><time>2026-03-29T17:46:13.941Z</time></trkpt><trkpt lat="45.6953676" lon="9.0815762"><ele>281.5</ele><time>2026-03-29T17:46:14.94Z</time></trkpt><trkpt lat="45.6953414" lon="9.0814108"><ele>281.75</ele><time>2026-03-29T17:46:15.94Z</time></trkpt><trkpt lat="45.6953163" lon="9.0812499"><ele>282.0</ele><time>2026-03-29T17:46:16.94Z</time></trkpt><trkpt lat="45.6952908" lon="9.0810969"><ele>282.0</ele><time>2026-03-29T17:46:17.939Z</time></trkpt><trkpt lat="45.695269" lon="9.0809498"><ele>282.0</ele><time>2026-03-29T17:46:18.94Z</time></trkpt><trkpt lat="45.6952456" lon="9.0808102"><ele>282.0</ele><time>2026-03-29T17:46:19.941Z</time></trkpt><trkpt lat="45.6952232" lon="9.0806641"><ele>282.0</ele><time>2026-03-29T17:46:20.94Z</time></trkpt><trkpt lat="45.6951964" lon="9.080524"><ele>282.0</ele><time>2026-03-29T17:46:21.941Z</time></trkpt><trkpt lat="45.6951741" lon="9.0803958"><ele>281.8333333333333</ele><time>2026-03-29T17:46:22.941Z</time></trkpt><trkpt lat="45.6951544" lon="9.0802782"><ele>281.6666666666667</ele><time>2026-03-29T17:46:23.94Z</time></trkpt><trkpt lat="45.6951387" lon="9.0801722"><ele>281.5</ele><time>2026-03-29T17:46:24.94Z</time></trkpt><trkpt lat="45.695124" lon="9.0800705"><ele>281.33333333333337</ele><time>2026-03-29T17:46:25.94Z</time></trkpt><trkpt lat="45.6951149" lon="9.0799733"><ele>281.1666666666667</ele><time>2026-03-29T17:46:26.941Z</time></trkpt><trkpt lat="45.69511" lon="9.0798154"><ele>281.0</ele><time>2026-03-29T17:46:28.941Z</time></trkpt><trkpt lat="45.6951182" lon="9.0797237"><ele>281.0</ele><time>2026-03-29T17:46:29.941Z</time></trkpt><trkpt lat="45.6951263" lon="9.0796172"><ele>281.0</ele><time>2026-03-29T17:46:30.941Z</time></trkpt><trkpt lat="45.6951236" lon="9.0795111"><ele>281.0</ele><time>2026-03-29T17:46:31.941Z</time></trkpt><trkpt lat="45.6951117" lon="9.0793989"><ele>281.0</ele><time>2026-03-29T17:46:32.94Z</time></trkpt><trkpt lat="45.6950864" lon="9.0792738"><ele>281.0</ele><time>2026-03-29T17:46:33.941Z</time></trkpt><trkpt lat="45.6950619" lon="9.0791277"><ele>281.0</ele><time>2026-03-29T17:46:34.941Z</time></trkpt><trkpt lat="45.6950439" lon="9.0789731"><ele>281.0</ele><time>2026-03-29T17:46:35.941Z</time></trkpt><trkpt lat="45.695027" lon="9.0788228"><ele>281.0</ele><time>2026-03-29T17:46:36.94Z</time></trkpt><trkpt lat="45.695014" lon="9.0786687"><ele>281.0</ele><time>2026-03-29T17:46:37.941Z</time></trkpt><trkpt lat="45.695003" lon="9.0785136"><ele>281.0</ele><time>2026-03-29T17:46:38.941Z</time></trkpt><trkpt lat="45.6949873" lon="9.0783443"><ele>281.0</ele><time>2026-03-29T17:46:39.939Z</time></trkpt><trkpt lat="45.6949703" lon="9.0781579"><ele>281.0</ele><time>2026-03-29T17:46:40.94Z</time></trkpt><trkpt lat="45.694953" lon="9.0779663"><ele>281.0</ele><time>2026-03-29T17:46:41.941Z</time></trkpt><trkpt lat="45.6949369" lon="9.0777837"><ele>281.0</ele><time>2026-03-29T17:46:42.941Z</time></trkpt><trkpt lat="45.6949196" lon="9.0776071"><ele>281.0</ele><time>2026-03-29T17:46:43.94Z</time></trkpt><trkpt lat="45.6949" lon="9.077428"><ele>281.25</ele><time>2026-03-29T17:46:44.94Z</time></trkpt><trkpt lat="45.6948814" lon="9.0772487"><ele>281.5</ele><time>2026-03-29T17:46:45.94Z</time></trkpt><trkpt lat="45.6948604" lon="9.0770604"><ele>281.75</ele><time>2026-03-29T17:46:46.941Z</time></trkpt><trkpt lat="45.6948381" lon="9.0768653"><ele>282.0</ele><time>2026-03-29T17:46:47.941Z</time></trkpt><trkpt lat="45.6948121" lon="9.0766686"><ele>281.75</ele><time>2026-03-29T17:46:48.94Z</time></trkpt><trkpt lat="45.6947835" lon="9.0764798"><ele>281.5</ele><time>2026-03-29T17:46:49.941Z</time></trkpt><trkpt lat="45.6947558" lon="9.0762926"><ele>281.25</ele><time>2026-03-29T17:46:50.941Z</time></trkpt><trkpt lat="45.6947283" lon="9.0760981"><ele>281.0</ele><time>2026-03-29T17:46:51.94Z</time></trkpt><trkpt lat="45.6946981" lon="9.0758956"><ele>280.5</ele><time>2026-03-29T17:46:52.941Z</time></trkpt><trkpt lat="45.6946627" lon="9.0756863"><ele>280.0</ele><time>2026-03-29T17:46:53.94Z</time></trkpt><trkpt lat="45.6946281" lon="9.0754823"><ele>279.5</ele><time>2026-03-29T17:46:54.94Z</time></trkpt><trkpt lat="45.6945953" lon="9.075288"><ele>279.0</ele><time>2026-03-29T17:46:55.94Z</time></trkpt><trkpt lat="45.6945649" lon="9.0751018"><ele>279.0</ele><time>2026-03-29T17:46:56.94Z</time></trkpt><trkpt lat="45.694537" lon="9.0749196"><ele>279.0</ele><time>2026-03-29T17:46:57.94Z</time></trkpt><trkpt lat="45.6945075" lon="9.0747313"><ele>279.0</ele><time>2026-03-29T17:46:58.941Z</time></trkpt><trkpt lat="45.6944781" lon="9.0745402"><ele>279.0</ele><time>2026-03-29T17:46:59.94Z</time></trkpt><trkpt lat="45.6944532" lon="9.0743412"><ele>279.0</ele><time>2026-03-29T17:47:00.941Z</time></trkpt><trkpt lat="45.6944279" lon="9.0741327"><ele>279.0</ele><time>2026-03-29T17:47:01.941Z</time></trkpt><trkpt lat="45.6944059" lon="9.0739172"><ele>279.0</ele><time>2026-03-29T17:47:02.939Z</time></trkpt><trkpt lat="45.6943875" lon="9.0737022"><ele>279.0</ele><time>2026-03-29T17:47:03.941Z</time></trkpt><trkpt lat="45.6943741" lon="9.073491"><ele>279.0</ele><time>2026-03-29T17:47:04.94Z</time></trkpt><trkpt lat="45.6943608" lon="9.073282"><ele>279.0</ele><time>2026-03-29T17:47:05.941Z</time></trkpt><trkpt lat="45.6943477" lon="9.0730771"><ele>279.0</ele><time>2026-03-29T17:47:06.94Z</time></trkpt><trkpt lat="45.6943379" lon="9.0728936"><ele>279.5</ele><time>2026-03-29T17:47:07.941Z</time></trkpt><trkpt lat="45.6943264" lon="9.0727083"><ele>280.0</ele><time>2026-03-29T17:47:08.94Z</time></trkpt><trkpt lat="45.6943153" lon="9.0725352"><ele>280.5</ele><time>2026-03-29T17:47:09.941Z</time></trkpt><trkpt lat="45.6943044" lon="9.0723707"><ele>281.0</ele><time>2026-03-29T17:47:10.941Z</time></trkpt><trkpt lat="45.6942909" lon="9.072217"><ele>281.0</ele><time>2026-03-29T17:47:11.94Z</time></trkpt><trkpt lat="45.694277" lon="9.0720712"><ele>281.0</ele><time>2026-03-29T17:47:12.94Z</time></trkpt><trkpt lat="45.6942611" lon="9.0719333"><ele>281.0</ele><time>2026-03-29T17:47:13.94Z</time></trkpt><trkpt lat="45.6942484" lon="9.0718053"><ele>281.0</ele><time>2026-03-29T17:47:14.941Z</time></trkpt><trkpt lat="45.6942347" lon="9.0716878"><ele>281.0</ele><time>2026-03-29T17:47:15.94Z</time></trkpt><trkpt lat="45.694226" lon="9.0715738"><ele>281.00000000000006</ele><time>2026-03-29T17:47:16.941Z</time></trkpt><trkpt lat="45.6942187" lon="9.0714684"><ele>281.0</ele><time>2026-03-29T17:47:17.94Z</time></trkpt><trkpt lat="45.6942134" lon="9.0713668"><ele>281.0</ele><time>2026-03-29T17:47:18.941Z</time></trkpt><trkpt lat="45.6942228" lon="9.0712622"><ele>281.0</ele><time>2026-03-29T17:47:19.94Z</time></trkpt><trkpt lat="45.6942394" lon="9.0711525"><ele>281.0</ele><time>2026-03-29T17:47:20.939Z</time></trkpt><trkpt lat="45.6942481" lon="9.0710427"><ele>281.00000000000006</ele><time>2026-03-29T17:47:21.941Z</time></trkpt><trkpt lat="45.6942374" lon="9.0709485"><ele>281.0</ele><time>2026-03-29T17:47:22.941Z</time></trkpt><trkpt lat="45.6942082" lon="9.0708495"><ele>280.6</ele><time>2026-03-29T17:47:23.941Z</time></trkpt><trkpt lat="45.6941775" lon="9.0707384"><ele>280.20000000000005</ele><time>2026-03-29T17:47:24.94Z</time></trkpt><trkpt lat="45.6941487" lon="9.0705952"><ele>279.79999999999995</ele><time>2026-03-29T17:47:25.941Z</time></trkpt><trkpt lat="45.6941206" lon="9.07045"><ele>279.4</ele><time>2026-03-29T17:47:26.941Z</time></trkpt><trkpt lat="45.6940941" lon="9.0703077"><ele>279.0</ele><time>2026-03-29T17:47:27.94Z</time></trkpt><trkpt lat="45.6940667" lon="9.0701464"><ele>279.0</ele><time>2026-03-29T17:47:28.941Z</time></trkpt><trkpt lat="45.6940326" lon="9.0699661"><ele>279.0</ele><time>2026-03-29T17:47:29.941Z</time></trkpt><trkpt lat="45.693992" lon="9.0697827"><ele>279.0</ele><time>2026-03-29T17:47:30.94Z</time></trkpt><trkpt lat="45.6939548" lon="9.0696148"><ele>279.0</ele><time>2026-03-29T17:47:31.939Z</time></trkpt><trkpt lat="45.6939132" lon="9.0694405"><ele>279.0</ele><time>2026-03-29T17:47:32.941Z</time></trkpt><trkpt lat="45.6938722" lon="9.0692657"><ele>279.0</ele><time>2026-03-29T17:47:33.941Z</time></trkpt><trkpt lat="45.6938262" lon="9.0690956"><ele>279.0</ele><time>2026-03-29T17:47:34.94Z</time></trkpt><trkpt lat="45.6937759" lon="9.0689332"><ele>279.0</ele><time>2026-03-29T17:47:35.941Z</time></trkpt><trkpt lat="45.6937223" lon="9.068779"><ele>278.5</ele><time>2026-03-29T17:47:36.94Z</time></trkpt><trkpt lat="45.6936681" lon="9.0686233"><ele>278.0</ele><time>2026-03-29T17:47:37.941Z</time></trkpt><trkpt lat="45.6936166" lon="9.0684705"><ele>277.5</ele><time>2026-03-29T17:47:38.94Z</time></trkpt><trkpt lat="45.6935646" lon="9.0683207"><ele>277.0</ele><time>2026-03-29T17:47:39.941Z</time></trkpt><trkpt lat="45.6935178" lon="9.0681839"><ele>276.6</ele><time>2026-03-29T17:47:40.941Z</time></trkpt><trkpt lat="45.6934709" lon="9.0680522"><ele>276.2</ele><time>2026-03-29T17:47:41.94Z</time></trkpt><trkpt lat="45.6934236" lon="9.0679177"><ele>275.8</ele><time>2026-03-29T17:47:42.941Z</time></trkpt><trkpt lat="45.6933759" lon="9.0677867"><ele>275.4</ele><time>2026-03-29T17:47:43.94Z</time></trkpt><trkpt lat="45.6933325" lon="9.0676605"><ele>275.0</ele><time>2026-03-29T17:47:44.94Z</time></trkpt><trkpt lat="45.6932911" lon="9.0675427"><ele>274.83333333333337</ele><time>2026-03-29T17:47:45.94Z</time></trkpt><trkpt lat="45.6932522" lon="9.0674256"><ele>274.6666666666667</ele><time>2026-03-29T17:47:46.941Z</time></trkpt><trkpt lat="45.6932164" lon="9.0673183"><ele>274.5</ele><time>2026-03-29T17:47:47.941Z</time></trkpt><trkpt lat="45.6931851" lon="9.0672157"><ele>274.3333333333333</ele><time>2026-03-29T17:47:48.941Z</time></trkpt><trkpt lat="45.6931594" lon="9.0671233"><ele>274.16666666666663</ele><time>2026-03-29T17:47:49.94Z</time></trkpt><trkpt lat="45.693123" lon="9.0669566"><ele>274.0</ele><time>2026-03-29T17:47:51.94Z</time></trkpt><trkpt lat="45.6931373" lon="9.06678"><ele>274.0</ele><time>2026-03-29T17:47:53.941Z</time></trkpt><trkpt lat="45.6931533" lon="9.0666852"><ele>274.0</ele><time>2026-03-29T17:47:54.941Z</time></trkpt><trkpt lat="45.6931581" lon="9.0665826"><ele>274.0</ele><time>2026-03-29T17:47:55.941Z</time></trkpt><trkpt lat="45.693144" lon="9.0664759"><ele>274.0</ele><time>2026-03-29T17:47:56.94Z</time></trkpt><trkpt lat="45.6931045" lon="9.0663677"><ele>274.0</ele><time>2026-03-29T17:47:57.941Z</time></trkpt><trkpt lat="45.6930393" lon="9.0662859"><ele>274.0</ele><time>2026-03-29T17:47:58.941Z</time></trkpt><trkpt lat="45.692956" lon="9.0662379"><ele>274.2</ele><time>2026-03-29T17:47:59.939Z</time></trkpt><trkpt lat="45.6928641" lon="9.0662402"><ele>274.4</ele><time>2026-03-29T17:48:00.941Z</time></trkpt><trkpt lat="45.6927758" lon="9.0662899"><ele>274.6</ele><time>2026-03-29T17:48:01.939Z</time></trkpt><trkpt lat="45.6926871" lon="9.0663747"><ele>274.8</ele><time>2026-03-29T17:48:02.941Z</time></trkpt><trkpt lat="45.692585" lon="9.0664488"><ele>275.0</ele><time>2026-03-29T17:48:03.94Z</time></trkpt><trkpt lat="45.6924579" lon="9.0664918"><ele>275.6666666666667</ele><time>2026-03-29T17:48:04.94Z</time></trkpt><trkpt lat="45.6923003" lon="9.0665162"><ele>276.3333333333333</ele><time>2026-03-29T17:48:05.941Z</time></trkpt><trkpt lat="45.692125" lon="9.0665337"><ele>277.0</ele><time>2026-03-29T17:48:06.939Z</time></trkpt><trkpt lat="45.6919538" lon="9.0665492"><ele>275.66666666666663</ele><time>2026-03-29T17:48:07.941Z</time></trkpt><trkpt lat="45.691763" lon="9.0665665"><ele>274.3333333333333</ele><time>2026-03-29T17:48:08.94Z</time></trkpt><trkpt lat="45.6915542" lon="9.0665812"><ele>273.0</ele><time>2026-03-29T17:48:09.94Z</time></trkpt><trkpt lat="45.6913399" lon="9.0665939"><ele>273.0</ele><time>2026-03-29T17:48:10.941Z</time></trkpt><trkpt lat="45.691136" lon="9.0666104"><ele>273.0</ele><time>2026-03-29T17:48:11.941Z</time></trkpt><trkpt lat="45.6909199" lon="9.0666232"><ele>273.0</ele><time>2026-03-29T17:48:12.941Z</time></trkpt><trkpt lat="45.690699" lon="9.066634"><ele>272.0</ele><time>2026-03-29T17:48:13.941Z</time></trkpt><trkpt lat="45.6904753" lon="9.0666484"><ele>271.0</ele><time>2026-03-29T17:48:14.941Z</time></trkpt><trkpt lat="45.6902503" lon="9.066656"><ele>270.0</ele><time>2026-03-29T17:48:15.941Z</time></trkpt><trkpt lat="45.6900296" lon="9.0666617"><ele>270.0</ele><time>2026-03-29T17:48:16.941Z</time></trkpt><trkpt lat="45.6898097" lon="9.0666613"><ele>270.0</ele><time>2026-03-29T17:48:17.941Z</time></trkpt><trkpt lat="45.6896083" lon="9.0666608"><ele>270.0</ele><time>2026-03-29T17:48:18.941Z</time></trkpt><trkpt lat="45.6894057" lon="9.0666512"><ele>270.0</ele><time>2026-03-29T17:48:19.941Z</time></trkpt><trkpt lat="45.689217" lon="9.0666385"><ele>270.0</ele><time>2026-03-29T17:48:20.941Z</time></trkpt><trkpt lat="45.6890346" lon="9.0666009"><ele>270.0</ele><time>2026-03-29T17:48:21.94Z</time></trkpt><trkpt lat="45.6888361" lon="9.0665721"><ele>269.6666666666667</ele><time>2026-03-29T17:48:22.941Z</time></trkpt><trkpt lat="45.6886498" lon="9.0665306"><ele>269.33333333333337</ele><time>2026-03-29T17:48:23.94Z</time></trkpt><trkpt lat="45.6884789" lon="9.0664799"><ele>269.0</ele><time>2026-03-29T17:48:24.941Z</time></trkpt><trkpt lat="45.6882729" lon="9.0664185"><ele>269.0</ele><time>2026-03-29T17:48:25.94Z</time></trkpt><trkpt lat="45.6880573" lon="9.0663489"><ele>269.0</ele><time>2026-03-29T17:48:26.941Z</time></trkpt><trkpt lat="45.6878542" lon="9.0662761"><ele>269.0</ele><time>2026-03-29T17:48:27.941Z</time></trkpt><trkpt lat="45.687647" lon="9.0662017"><ele>269.0</ele><time>2026-03-29T17:48:28.939Z</time></trkpt><trkpt lat="45.687437" lon="9.066125"><ele>269.0</ele><time>2026-03-29T17:48:29.94Z</time></trkpt><trkpt lat="45.6872249" lon="9.0660519"><ele>269.0</ele><time>2026-03-29T17:48:30.941Z</time></trkpt><trkpt lat="45.6870037" lon="9.065973"><ele>266.5</ele><time>2026-03-29T17:48:31.941Z</time></trkpt><trkpt lat="45.6867822" lon="9.0658932"><ele>264.0</ele><time>2026-03-29T17:48:32.939Z</time></trkpt><trkpt lat="45.6865654" lon="9.0658123"><ele>265.0</ele><time>2026-03-29T17:48:33.94Z</time></trkpt><trkpt lat="45.6863488" lon="9.0657306"><ele>266.0</ele><time>2026-03-29T17:48:34.94Z</time></trkpt><trkpt lat="45.68613" lon="9.0656472"><ele>267.5</ele><time>2026-03-29T17:48:35.94Z</time></trkpt><trkpt lat="45.6859089" lon="9.0655685"><ele>269.0</ele><time>2026-03-29T17:48:36.941Z</time></trkpt><trkpt lat="45.6856907" lon="9.0654975"><ele>269.0</ele><time>2026-03-29T17:48:37.941Z</time></trkpt><trkpt lat="45.6854679" lon="9.0654147"><ele>269.0</ele><time>2026-03-29T17:48:38.941Z</time></trkpt><trkpt lat="45.6852448" lon="9.0653351"><ele>268.0</ele><time>2026-03-29T17:48:39.941Z</time></trkpt><trkpt lat="45.6850267" lon="9.0652607"><ele>267.0</ele><time>2026-03-29T17:48:40.94Z</time></trkpt><trkpt lat="45.6848133" lon="9.0651935"><ele>266.0</ele><time>2026-03-29T17:48:41.94Z</time></trkpt><trkpt lat="45.6845981" lon="9.0651297"><ele>265.0</ele><time>2026-03-29T17:48:42.941Z</time></trkpt><trkpt lat="45.6843808" lon="9.0650709"><ele>264.0</ele><time>2026-03-29T17:48:43.941Z</time></trkpt><trkpt lat="45.6841568" lon="9.0650191"><ele>263.0</ele><time>2026-03-29T17:48:44.94Z</time></trkpt><trkpt lat="45.6839322" lon="9.0649731"><ele>263.5</ele><time>2026-03-29T17:48:45.94Z</time></trkpt><trkpt lat="45.6837076" lon="9.0649342"><ele>264.0</ele><time>2026-03-29T17:48:46.941Z</time></trkpt><trkpt lat="45.6834828" lon="9.0649095"><ele>264.0</ele><time>2026-03-29T17:48:47.941Z</time></trkpt><trkpt lat="45.6832587" lon="9.0648936"><ele>264.0</ele><time>2026-03-29T17:48:48.941Z</time></trkpt><trkpt lat="45.6830332" lon="9.0648869"><ele>264.0</ele><time>2026-03-29T17:48:49.941Z</time></trkpt><trkpt lat="45.6828085" lon="9.0648909"><ele>264.0</ele><time>2026-03-29T17:48:50.941Z</time></trkpt><trkpt lat="45.6825776" lon="9.0649053"><ele>264.0</ele><time>2026-03-29T17:48:51.941Z</time></trkpt><trkpt lat="45.6823454" lon="9.0649241"><ele>264.0</ele><time>2026-03-29T17:48:52.941Z</time></trkpt><trkpt lat="45.6821256" lon="9.0649445"><ele>265.0</ele><time>2026-03-29T17:48:53.941Z</time></trkpt><trkpt lat="45.681917" lon="9.0649727"><ele>266.0</ele><time>2026-03-29T17:48:54.94Z</time></trkpt><trkpt lat="45.6817189" lon="9.0650011"><ele>267.0</ele><time>2026-03-29T17:48:55.94Z</time></trkpt><trkpt lat="45.6815331" lon="9.0650313"><ele>267.0</ele><time>2026-03-29T17:48:56.941Z</time></trkpt><trkpt lat="45.6813538" lon="9.065061"><ele>267.0</ele><time>2026-03-29T17:48:57.94Z</time></trkpt><trkpt lat="45.6811803" lon="9.0650905"><ele>267.0</ele><time>2026-03-29T17:48:58.94Z</time></trkpt><trkpt lat="45.6810123" lon="9.0651199"><ele>267.3333333333333</ele><time>2026-03-29T17:48:59.941Z</time></trkpt><trkpt lat="45.680852" lon="9.0651467"><ele>267.66666666666663</ele><time>2026-03-29T17:49:00.941Z</time></trkpt><trkpt lat="45.6807" lon="9.0651724"><ele>268.0</ele><time>2026-03-29T17:49:01.941Z</time></trkpt><trkpt lat="45.6805575" lon="9.0651953"><ele>268.0</ele><time>2026-03-29T17:49:02.94Z</time></trkpt><trkpt lat="45.6804238" lon="9.0652138"><ele>268.0</ele><time>2026-03-29T17:49:03.941Z</time></trkpt><trkpt lat="45.6802983" lon="9.0652339"><ele>268.0</ele><time>2026-03-29T17:49:04.941Z</time></trkpt><trkpt lat="45.6801808" lon="9.0652545"><ele>268.0</ele><time>2026-03-29T17:49:05.939Z</time></trkpt><trkpt lat="45.6800741" lon="9.0652775"><ele>267.66666666666663</ele><time>2026-03-29T17:49:06.941Z</time></trkpt><trkpt lat="45.6799843" lon="9.0652869"><ele>267.3333333333333</ele><time>2026-03-29T17:49:07.941Z</time></trkpt><trkpt lat="45.6799111" lon="9.0652856"><ele>267.0</ele><time>2026-03-29T17:49:08.941Z</time></trkpt><trkpt lat="45.6798321" lon="9.0652788"><ele>266.6666666666667</ele><time>2026-03-29T17:49:09.941Z</time></trkpt><trkpt lat="45.6797713" lon="9.065236"><ele>266.33333333333337</ele><time>2026-03-29T17:49:10.94Z</time></trkpt><trkpt lat="45.6797044" lon="9.0651688"><ele>266.0</ele><time>2026-03-29T17:49:11.941Z</time></trkpt><trkpt lat="45.679638" lon="9.0650725"><ele>266.0</ele><time>2026-03-29T17:49:12.94Z</time></trkpt><trkpt lat="45.6795633" lon="9.0649797"><ele>266.0</ele><time>2026-03-29T17:49:13.94Z</time></trkpt><trkpt lat="45.6794739" lon="9.0649258"><ele>266.0</ele><time>2026-03-29T17:49:14.94Z</time></trkpt><trkpt lat="45.6793794" lon="9.0649044"><ele>266.0</ele><time>2026-03-29T17:49:15.94Z</time></trkpt><trkpt lat="45.6792847" lon="9.0649126"><ele>266.0</ele><time>2026-03-29T17:49:16.94Z</time></trkpt><trkpt lat="45.6792069" lon="9.0649619"><ele>266.40000000000003</ele><time>2026-03-29T17:49:17.94Z</time></trkpt><trkpt lat="45.6791349" lon="9.0650367"><ele>266.8</ele><time>2026-03-29T17:49:18.941Z</time></trkpt><trkpt lat="45.6790689" lon="9.0651276"><ele>267.20000000000005</ele><time>2026-03-29T17:49:19.94Z</time></trkpt><trkpt lat="45.6790035" lon="9.0652273"><ele>267.6</ele><time>2026-03-29T17:49:20.941Z</time></trkpt><trkpt lat="45.6789246" lon="9.0653163"><ele>268.0</ele><time>2026-03-29T17:49:21.94Z</time></trkpt><trkpt lat="45.6788314" lon="9.0653742"><ele>268.0</ele><time>2026-03-29T17:49:22.94Z</time></trkpt><trkpt lat="45.6787205" lon="9.0653938"><ele>268.0</ele><time>2026-03-29T17:49:23.94Z</time></trkpt><trkpt lat="45.6785932" lon="9.0653825"><ele>268.0</ele><time>2026-03-29T17:49:24.941Z</time></trkpt><trkpt lat="45.678438" lon="9.0653485"><ele>268.0</ele><time>2026-03-29T17:49:25.941Z</time></trkpt><trkpt lat="45.6782533" lon="9.0652971"><ele>267.0</ele><time>2026-03-29T17:49:26.941Z</time></trkpt><trkpt lat="45.6780696" lon="9.0652358"><ele>266.0</ele><time>2026-03-29T17:49:27.941Z</time></trkpt><trkpt lat="45.6778712" lon="9.0651644"><ele>265.0</ele><time>2026-03-29T17:49:28.941Z</time></trkpt><trkpt lat="45.6776395" lon="9.065088"><ele>264.5</ele><time>2026-03-29T17:49:29.941Z</time></trkpt><trkpt lat="45.6773258" lon="9.0649712"><ele>264.0</ele><time>2026-03-29T17:49:30.94Z</time></trkpt><trkpt lat="45.6770727" lon="9.0648754"><ele>261.5</ele><time>2026-03-29T17:49:31.941Z</time></trkpt><trkpt lat="45.6768319" lon="9.0647909"><ele>259.0</ele><time>2026-03-29T17:49:32.939Z</time></trkpt><trkpt lat="45.6765913" lon="9.0647052"><ele>259.0</ele><time>2026-03-29T17:49:33.941Z</time></trkpt><trkpt lat="45.6763541" lon="9.0646218"><ele>259.0</ele><time>2026-03-29T17:49:34.941Z</time></trkpt><trkpt lat="45.6761279" lon="9.0645416"><ele>258.66666666666663</ele><time>2026-03-29T17:49:35.941Z</time></trkpt><trkpt lat="45.6759088" lon="9.0644657"><ele>258.3333333333333</ele><time>2026-03-29T17:49:36.939Z</time></trkpt><trkpt lat="45.6757095" lon="9.0643925"><ele>258.0</ele><time>2026-03-29T17:49:37.941Z</time></trkpt><trkpt lat="45.6755043" lon="9.0643216"><ele>258.0</ele><time>2026-03-29T17:49:38.941Z</time></trkpt><trkpt lat="45.6753052" lon="9.0642513"><ele>258.0</ele><time>2026-03-29T17:49:39.941Z</time></trkpt><trkpt lat="45.675109" lon="9.0641818"><ele>258.0</ele><time>2026-03-29T17:49:40.941Z</time></trkpt><trkpt lat="45.674915" lon="9.0641132"><ele>257.3333333333333</ele><time>2026-03-29T17:49:41.941Z</time></trkpt><trkpt lat="45.6747237" lon="9.0640491"><ele>256.66666666666663</ele><time>2026-03-29T17:49:42.941Z</time></trkpt><trkpt lat="45.6745398" lon="9.0639868"><ele>256.0</ele><time>2026-03-29T17:49:43.94Z</time></trkpt><trkpt lat="45.6743672" lon="9.0639233"><ele>255.66666666666666</ele><time>2026-03-29T17:49:44.94Z</time></trkpt><trkpt lat="45.674208" lon="9.0638644"><ele>255.33333333333331</ele><time>2026-03-29T17:49:45.94Z</time></trkpt><trkpt lat="45.674057" lon="9.0638096"><ele>255.0</ele><time>2026-03-29T17:49:46.94Z</time></trkpt><trkpt lat="45.6739173" lon="9.0637633"><ele>255.0</ele><time>2026-03-29T17:49:47.941Z</time></trkpt><trkpt lat="45.67379" lon="9.0637233"><ele>255.0</ele><time>2026-03-29T17:49:48.94Z</time></trkpt><trkpt lat="45.6736702" lon="9.0636835"><ele>255.0</ele><time>2026-03-29T17:49:49.941Z</time></trkpt><trkpt lat="45.6735595" lon="9.0636459"><ele>255.0</ele><time>2026-03-29T17:49:50.94Z</time></trkpt><trkpt lat="45.6734571" lon="9.0636041"><ele>254.4</ele><time>2026-03-29T17:49:51.941Z</time></trkpt><trkpt lat="45.6733634" lon="9.0635455"><ele>253.8</ele><time>2026-03-29T17:49:52.94Z</time></trkpt><trkpt lat="45.673281" lon="9.063458"><ele>253.2</ele><time>2026-03-29T17:49:53.94Z</time></trkpt><trkpt lat="45.673211" lon="9.0633371"><ele>252.6</ele><time>2026-03-29T17:49:54.941Z</time></trkpt><trkpt lat="45.6731335" lon="9.0632358"><ele>252.0</ele><time>2026-03-29T17:49:55.94Z</time></trkpt><trkpt lat="45.6730292" lon="9.0631763"><ele>252.0</ele><time>2026-03-29T17:49:56.941Z</time></trkpt><trkpt lat="45.6729149" lon="9.0631696"><ele>252.0</ele><time>2026-03-29T17:49:57.941Z</time></trkpt><trkpt lat="45.6727966" lon="9.0632197"><ele>252.0</ele><time>2026-03-29T17:49:58.941Z</time></trkpt><trkpt lat="45.6726768" lon="9.0632603"><ele>252.0</ele><time>2026-03-29T17:49:59.941Z</time></trkpt><trkpt lat="45.6725334" lon="9.0632662"><ele>251.66666666666669</ele><time>2026-03-29T17:50:00.941Z</time></trkpt><trkpt lat="45.6723647" lon="9.0632353"><ele>251.33333333333334</ele><time>2026-03-29T17:50:01.941Z</time></trkpt><trkpt lat="45.6721931" lon="9.0631872"><ele>251.0</ele><time>2026-03-29T17:50:02.94Z</time></trkpt><trkpt lat="45.6720193" lon="9.0631349"><ele>251.66666666666669</ele><time>2026-03-29T17:50:03.941Z</time></trkpt><trkpt lat="45.6718289" lon="9.0630691"><ele>252.33333333333331</ele><time>2026-03-29T17:50:04.94Z</time></trkpt><trkpt lat="45.6716413" lon="9.0630006"><ele>253.0</ele><time>2026-03-29T17:50:05.94Z</time></trkpt><trkpt lat="45.6714575" lon="9.0629308"><ele>253.0</ele><time>2026-03-29T17:50:06.94Z</time></trkpt><trkpt lat="45.671276" lon="9.0628655"><ele>253.0</ele><time>2026-03-29T17:50:07.94Z</time></trkpt><trkpt lat="45.6710945" lon="9.0628071"><ele>253.0</ele><time>2026-03-29T17:50:08.941Z</time></trkpt><trkpt lat="45.6709097" lon="9.0627463"><ele>253.0</ele><time>2026-03-29T17:50:09.941Z</time></trkpt><trkpt lat="45.670717" lon="9.0626861"><ele>253.0</ele><time>2026-03-29T17:50:10.941Z</time></trkpt><trkpt lat="45.6705112" lon="9.06262"><ele>253.0</ele><time>2026-03-29T17:50:11.941Z</time></trkpt><trkpt lat="45.6702864" lon="9.0625429"><ele>252.5</ele><time>2026-03-29T17:50:12.94Z</time></trkpt><trkpt lat="45.6700577" lon="9.0624607"><ele>252.0</ele><time>2026-03-29T17:50:13.94Z</time></trkpt><trkpt lat="45.6698344" lon="9.0623796"><ele>252.0</ele><time>2026-03-29T17:50:14.94Z</time></trkpt><trkpt lat="45.6696064" lon="9.062296"><ele>252.0</ele><time>2026-03-29T17:50:15.94Z</time></trkpt><trkpt lat="45.6693749" lon="9.0622144"><ele>251.5</ele><time>2026-03-29T17:50:16.941Z</time></trkpt><trkpt lat="45.6691429" lon="9.062141"><ele>251.0</ele><time>2026-03-29T17:50:17.941Z</time></trkpt><trkpt lat="45.6689073" lon="9.0620793"><ele>251.0</ele><time>2026-03-29T17:50:18.941Z</time></trkpt><trkpt lat="45.6686684" lon="9.062026"><ele>251.0</ele><time>2026-03-29T17:50:19.94Z</time></trkpt><trkpt lat="45.6684292" lon="9.0619827"><ele>250.5</ele><time>2026-03-29T17:50:20.94Z</time></trkpt><trkpt lat="45.6681863" lon="9.0619508"><ele>250.0</ele><time>2026-03-29T17:50:21.94Z</time></trkpt><trkpt lat="45.6679422" lon="9.0619285"><ele>249.0</ele><time>2026-03-29T17:50:22.941Z</time></trkpt><trkpt lat="45.6676967" lon="9.0619153"><ele>248.0</ele><time>2026-03-29T17:50:23.941Z</time></trkpt><trkpt lat="45.6674474" lon="9.0619132"><ele>248.0</ele><time>2026-03-29T17:50:24.94Z</time></trkpt><trkpt lat="45.6672092" lon="9.0619221"><ele>248.0</ele><time>2026-03-29T17:50:25.94Z</time></trkpt><trkpt lat="45.6669723" lon="9.0619352"><ele>247.5</ele><time>2026-03-29T17:50:26.94Z</time></trkpt><trkpt lat="45.6667331" lon="9.0619616"><ele>247.0</ele><time>2026-03-29T17:50:27.941Z</time></trkpt><trkpt lat="45.6664867" lon="9.0619943"><ele>247.0</ele><time>2026-03-29T17:50:28.94Z</time></trkpt><trkpt lat="45.6662378" lon="9.0620323"><ele>247.0</ele><time>2026-03-29T17:50:29.941Z</time></trkpt><trkpt lat="45.6659896" lon="9.0620681"><ele>244.5</ele><time>2026-03-29T17:50:30.94Z</time></trkpt><trkpt lat="45.6657392" lon="9.0621045"><ele>242.0</ele><time>2026-03-29T17:50:31.941Z</time></trkpt><trkpt lat="45.6654862" lon="9.0621392"><ele>242.0</ele><time>2026-03-29T17:50:32.939Z</time></trkpt><trkpt lat="45.6652297" lon="9.0621771"><ele>242.0</ele><time>2026-03-29T17:50:33.94Z</time></trkpt><trkpt lat="45.6649712" lon="9.0622144"><ele>242.0</ele><time>2026-03-29T17:50:34.94Z</time></trkpt><trkpt lat="45.664712" lon="9.062251"><ele>242.0</ele><time>2026-03-29T17:50:35.94Z</time></trkpt><trkpt lat="45.6644541" lon="9.062288"><ele>242.0</ele><time>2026-03-29T17:50:36.941Z</time></trkpt><trkpt lat="45.6641936" lon="9.0623266"><ele>242.0</ele><time>2026-03-29T17:50:37.94Z</time></trkpt><trkpt lat="45.663933" lon="9.0623666"><ele>242.0</ele><time>2026-03-29T17:50:38.939Z</time></trkpt><trkpt lat="45.6636797" lon="9.0624026"><ele>242.0</ele><time>2026-03-29T17:50:39.94Z</time></trkpt><trkpt lat="45.6634319" lon="9.0624382"><ele>242.0</ele><time>2026-03-29T17:50:40.941Z</time></trkpt><trkpt lat="45.6631913" lon="9.0624744"><ele>242.0</ele><time>2026-03-29T17:50:41.94Z</time></trkpt><trkpt lat="45.6629594" lon="9.0625074"><ele>242.5</ele><time>2026-03-29T17:50:42.94Z</time></trkpt><trkpt lat="45.66273" lon="9.062543"><ele>243.0</ele><time>2026-03-29T17:50:43.94Z</time></trkpt><trkpt lat="45.6625" lon="9.0625777"><ele>243.0</ele><time>2026-03-29T17:50:44.941Z</time></trkpt><trkpt lat="45.6622672" lon="9.0625996"><ele>243.0</ele><time>2026-03-29T17:50:45.941Z</time></trkpt><trkpt lat="45.662034" lon="9.0626108"><ele>241.0</ele><time>2026-03-29T17:50:46.941Z</time></trkpt><trkpt lat="45.6618009" lon="9.0626064"><ele>239.0</ele><time>2026-03-29T17:50:47.941Z</time></trkpt><trkpt lat="45.6615706" lon="9.0625895"><ele>239.0</ele><time>2026-03-29T17:50:48.941Z</time></trkpt><trkpt lat="45.6613419" lon="9.0625665"><ele>239.0</ele><time>2026-03-29T17:50:49.941Z</time></trkpt><trkpt lat="45.6611149" lon="9.0625368"><ele>239.0</ele><time>2026-03-29T17:50:50.941Z</time></trkpt><trkpt lat="45.6608862" lon="9.0624971"><ele>239.0</ele><time>2026-03-29T17:50:51.941Z</time></trkpt><trkpt lat="45.660657" lon="9.0624497"><ele>238.5</ele><time>2026-03-29T17:50:52.941Z</time></trkpt><trkpt lat="45.6604301" lon="9.0623966"><ele>238.0</ele><time>2026-03-29T17:50:53.94Z</time></trkpt><trkpt lat="45.660202" lon="9.0623374"><ele>237.0</ele><time>2026-03-29T17:50:54.941Z</time></trkpt><trkpt lat="45.6599719" lon="9.0622723"><ele>236.0</ele><time>2026-03-29T17:50:55.941Z</time></trkpt><trkpt lat="45.6597395" lon="9.0622052"><ele>236.0</ele><time>2026-03-29T17:50:56.941Z</time></trkpt><trkpt lat="45.6595134" lon="9.062136"><ele>236.0</ele><time>2026-03-29T17:50:57.941Z</time></trkpt><trkpt lat="45.6593" lon="9.0620736"><ele>236.0</ele><time>2026-03-29T17:50:58.939Z</time></trkpt><trkpt lat="45.6591036" lon="9.0620136"><ele>236.33333333333334</ele><time>2026-03-29T17:50:59.941Z</time></trkpt><trkpt lat="45.6589178" lon="9.0619545"><ele>236.66666666666669</ele><time>2026-03-29T17:51:00.941Z</time></trkpt><trkpt lat="45.6587437" lon="9.0619003"><ele>237.0</ele><time>2026-03-29T17:51:01.941Z</time></trkpt><trkpt lat="45.6585847" lon="9.0618514"><ele>237.0</ele><time>2026-03-29T17:51:02.94Z</time></trkpt><trkpt lat="45.6584487" lon="9.0618083"><ele>237.0</ele><time>2026-03-29T17:51:03.941Z</time></trkpt><trkpt lat="45.6583329" lon="9.061764"><ele>237.0</ele><time>2026-03-29T17:51:04.94Z</time></trkpt><trkpt lat="45.6582327" lon="9.0617049"><ele>237.0</ele><time>2026-03-29T17:51:05.94Z</time></trkpt><trkpt lat="45.6581445" lon="9.0616273"><ele>237.5</ele><time>2026-03-29T17:51:06.94Z</time></trkpt><trkpt lat="45.6580702" lon="9.0615333"><ele>238.0</ele><time>2026-03-29T17:51:07.941Z</time></trkpt><trkpt lat="45.658003" lon="9.0614041"><ele>238.5</ele><time>2026-03-29T17:51:08.94Z</time></trkpt><trkpt lat="45.6579278" lon="9.0612561"><ele>239.0</ele><time>2026-03-29T17:51:09.941Z</time></trkpt><trkpt lat="45.6578208" lon="9.0611344"><ele>238.5</ele><time>2026-03-29T17:51:10.941Z</time></trkpt><trkpt lat="45.6577393" lon="9.0609992"><ele>238.0</ele><time>2026-03-29T17:51:11.939Z</time></trkpt><trkpt lat="45.6576803" lon="9.0608425"><ele>237.5</ele><time>2026-03-29T17:51:12.941Z</time></trkpt><trkpt lat="45.657644" lon="9.060652"><ele>237.0</ele><time>2026-03-29T17:51:13.939Z</time></trkpt><trkpt lat="45.6576275" lon="9.0604152"><ele>237.0</ele><time>2026-03-29T17:51:14.94Z</time></trkpt><trkpt lat="45.6576115" lon="9.0601563"><ele>237.0</ele><time>2026-03-29T17:51:15.94Z</time></trkpt><trkpt lat="45.6576001" lon="9.059911"><ele>237.0</ele><time>2026-03-29T17:51:16.941Z</time></trkpt><trkpt lat="45.657591" lon="9.0596622"><ele>237.33333333333331</ele><time>2026-03-29T17:51:17.94Z</time></trkpt><trkpt lat="45.6575811" lon="9.0594077"><ele>237.66666666666666</ele><time>2026-03-29T17:51:18.941Z</time></trkpt><trkpt lat="45.6575704" lon="9.0591511"><ele>238.0</ele><time>2026-03-29T17:51:19.941Z</time></trkpt><trkpt lat="45.6575544" lon="9.0588972"><ele>238.0</ele><time>2026-03-29T17:51:20.94Z</time></trkpt><trkpt lat="45.6575494" lon="9.0586542"><ele>238.0</ele><time>2026-03-29T17:51:21.94Z</time></trkpt><trkpt lat="45.6575557" lon="9.0584266"><ele>238.0</ele><time>2026-03-29T17:51:22.941Z</time></trkpt><trkpt lat="45.6575706" lon="9.0582052"><ele>237.66666666666666</ele><time>2026-03-29T17:51:23.94Z</time></trkpt><trkpt lat="45.6575971" lon="9.057988"><ele>237.33333333333331</ele><time>2026-03-29T17:51:24.94Z</time></trkpt><trkpt lat="45.6576264" lon="9.0577629"><ele>237.0</ele><time>2026-03-29T17:51:25.941Z</time></trkpt><trkpt lat="45.6576618" lon="9.0575326"><ele>237.0</ele><time>2026-03-29T17:51:26.94Z</time></trkpt><trkpt lat="45.6576972" lon="9.0573144"><ele>237.0</ele><time>2026-03-29T17:51:27.94Z</time></trkpt><trkpt lat="45.6577311" lon="9.0571029"><ele>237.0</ele><time>2026-03-29T17:51:28.94Z</time></trkpt><trkpt lat="45.6577578" lon="9.0568848"><ele>237.0</ele><time>2026-03-29T17:51:29.94Z</time></trkpt><trkpt lat="45.6577784" lon="9.056658"><ele>237.0</ele><time>2026-03-29T17:51:30.939Z</time></trkpt><trkpt lat="45.6577852" lon="9.0564161"><ele>237.0</ele><time>2026-03-29T17:51:31.94Z</time></trkpt><trkpt lat="45.6577854" lon="9.0562007"><ele>237.0</ele><time>2026-03-29T17:51:32.94Z</time></trkpt><trkpt lat="45.6577752" lon="9.0559833"><ele>237.0</ele><time>2026-03-29T17:51:33.941Z</time></trkpt><trkpt lat="45.657735" lon="9.0557363"><ele>237.0</ele><time>2026-03-29T17:51:34.941Z</time></trkpt><trkpt lat="45.6576963" lon="9.0555148"><ele>236.75</ele><time>2026-03-29T17:51:35.941Z</time></trkpt><trkpt lat="45.657648" lon="9.0553113"><ele>236.5</ele><time>2026-03-29T17:51:36.941Z</time></trkpt><trkpt lat="45.6576031" lon="9.0551171"><ele>236.25</ele><time>2026-03-29T17:51:37.941Z</time></trkpt><trkpt lat="45.6575606" lon="9.0549133"><ele>236.0</ele><time>2026-03-29T17:51:38.941Z</time></trkpt><trkpt lat="45.6575296" lon="9.0546975"><ele>237.0</ele><time>2026-03-29T17:51:39.94Z</time></trkpt><trkpt lat="45.6575066" lon="9.0544744"><ele>238.0</ele><time>2026-03-29T17:51:40.941Z</time></trkpt><trkpt lat="45.6574906" lon="9.0542544"><ele>239.0</ele><time>2026-03-29T17:51:41.941Z</time></trkpt><trkpt lat="45.6574822" lon="9.0540481"><ele>239.25</ele><time>2026-03-29T17:51:42.941Z</time></trkpt><trkpt lat="45.6574795" lon="9.053859"><ele>239.5</ele><time>2026-03-29T17:51:43.94Z</time></trkpt><trkpt lat="45.6574811" lon="9.0536897"><ele>239.75</ele><time>2026-03-29T17:51:44.941Z</time></trkpt><trkpt lat="45.6574815" lon="9.0535345"><ele>240.0</ele><time>2026-03-29T17:51:45.941Z</time></trkpt><trkpt lat="45.6574854" lon="9.0533937"><ele>239.66666666666666</ele><time>2026-03-29T17:51:46.941Z</time></trkpt><trkpt lat="45.6574983" lon="9.0532676"><ele>239.33333333333331</ele><time>2026-03-29T17:51:47.941Z</time></trkpt><trkpt lat="45.6575248" lon="9.0531488"><ele>239.0</ele><time>2026-03-29T17:51:48.94Z</time></trkpt><trkpt lat="45.6575739" lon="9.0530428"><ele>238.66666666666666</ele><time>2026-03-29T17:51:49.94Z</time></trkpt><trkpt lat="45.6576341" lon="9.0529496"><ele>238.33333333333331</ele><time>2026-03-29T17:51:50.941Z</time></trkpt><trkpt lat="45.657678" lon="9.0528445"><ele>238.0</ele><time>2026-03-29T17:51:51.94Z</time></trkpt><trkpt lat="45.6576983" lon="9.052709"><ele>238.0</ele><time>2026-03-29T17:51:52.94Z</time></trkpt><trkpt lat="45.6576798" lon="9.0525626"><ele>238.0</ele><time>2026-03-29T17:51:53.939Z</time></trkpt><trkpt lat="45.6576248" lon="9.0524439"><ele>238.0</ele><time>2026-03-29T17:51:54.94Z</time></trkpt><trkpt lat="45.6575391" lon="9.0523766"><ele>238.0</ele><time>2026-03-29T17:51:55.94Z</time></trkpt><trkpt lat="45.6574306" lon="9.0523584"><ele>238.0</ele><time>2026-03-29T17:51:56.94Z</time></trkpt><trkpt lat="45.6573097" lon="9.0524026"><ele>238.0</ele><time>2026-03-29T17:51:57.941Z</time></trkpt><trkpt lat="45.6571739" lon="9.0524634"><ele>238.0</ele><time>2026-03-29T17:51:58.941Z</time></trkpt><trkpt lat="45.6570167" lon="9.0524802"><ele>238.0</ele><time>2026-03-29T17:51:59.941Z</time></trkpt><trkpt lat="45.6568366" lon="9.0524731"><ele>237.0</ele><time>2026-03-29T17:52:00.941Z</time></trkpt><trkpt lat="45.6566625" lon="9.0524624"><ele>236.0</ele><time>2026-03-29T17:52:01.941Z</time></trkpt><trkpt lat="45.6564839" lon="9.0524504"><ele>235.0</ele><time>2026-03-29T17:52:02.94Z</time></trkpt><trkpt lat="45.6562918" lon="9.0524351"><ele>235.0</ele><time>2026-03-29T17:52:03.941Z</time></trkpt><trkpt lat="45.6561091" lon="9.052416"><ele>235.0</ele><time>2026-03-29T17:52:04.939Z</time></trkpt><trkpt lat="45.6559317" lon="9.0523967"><ele>235.0</ele><time>2026-03-29T17:52:05.941Z</time></trkpt><trkpt lat="45.655756" lon="9.0523839"><ele>235.0</ele><time>2026-03-29T17:52:06.941Z</time></trkpt><trkpt lat="45.6555806" lon="9.0523689"><ele>235.0</ele><time>2026-03-29T17:52:07.941Z</time></trkpt><trkpt lat="45.6554048" lon="9.0523519"><ele>235.0</ele><time>2026-03-29T17:52:08.94Z</time></trkpt><trkpt lat="45.6552195" lon="9.0523292"><ele>235.66666666666666</ele><time>2026-03-29T17:52:09.941Z</time></trkpt><trkpt lat="45.6550414" lon="9.0523101"><ele>236.33333333333331</ele><time>2026-03-29T17:52:10.94Z</time></trkpt><trkpt lat="45.6548718" lon="9.0522947"><ele>237.0</ele><time>2026-03-29T17:52:11.941Z</time></trkpt><trkpt lat="45.6547092" lon="9.0522816"><ele>237.0</ele><time>2026-03-29T17:52:12.939Z</time></trkpt><trkpt lat="45.6545469" lon="9.0522693"><ele>237.0</ele><time>2026-03-29T17:52:13.941Z</time></trkpt><trkpt lat="45.6543793" lon="9.0522538"><ele>237.0</ele><time>2026-03-29T17:52:14.941Z</time></trkpt><trkpt lat="45.6542156" lon="9.0522391"><ele>236.66666666666669</ele><time>2026-03-29T17:52:15.941Z</time></trkpt><trkpt lat="45.6540521" lon="9.0522276"><ele>236.33333333333334</ele><time>2026-03-29T17:52:16.941Z</time></trkpt><trkpt lat="45.6538888" lon="9.0522237"><ele>236.0</ele><time>2026-03-29T17:52:17.941Z</time></trkpt><trkpt lat="45.6537213" lon="9.0522229"><ele>235.33333333333334</ele><time>2026-03-29T17:52:18.941Z</time></trkpt><trkpt lat="45.6535527" lon="9.0522292"><ele>234.66666666666669</ele><time>2026-03-29T17:52:19.94Z</time></trkpt><trkpt lat="45.6533851" lon="9.0522416"><ele>234.0</ele><time>2026-03-29T17:52:20.941Z</time></trkpt><trkpt lat="45.6532193" lon="9.0522673"><ele>234.0</ele><time>2026-03-29T17:52:21.941Z</time></trkpt><trkpt lat="45.6530588" lon="9.0522971"><ele>234.0</ele><time>2026-03-29T17:52:22.94Z</time></trkpt><trkpt lat="45.6529062" lon="9.0523293"><ele>234.0</ele><time>2026-03-29T17:52:23.94Z</time></trkpt><trkpt lat="45.6527648" lon="9.0523722"><ele>234.0</ele><time>2026-03-29T17:52:24.941Z</time></trkpt><trkpt lat="45.6526343" lon="9.0524159"><ele>234.0</ele><time>2026-03-29T17:52:25.941Z</time></trkpt><trkpt lat="45.652513" lon="9.0524632"><ele>234.0</ele><time>2026-03-29T17:52:26.941Z</time></trkpt><trkpt lat="45.6524" lon="9.0525085"><ele>234.0</ele><time>2026-03-29T17:52:27.941Z</time></trkpt><trkpt lat="45.6522938" lon="9.0525452"><ele>234.0</ele><time>2026-03-29T17:52:28.941Z</time></trkpt><trkpt lat="45.6521881" lon="9.0525596"><ele>233.99999999999997</ele><time>2026-03-29T17:52:29.941Z</time></trkpt><trkpt lat="45.6520902" lon="9.0525381"><ele>233.99999999999997</ele><time>2026-03-29T17:52:30.941Z</time></trkpt><trkpt lat="45.6520046" lon="9.0524785"><ele>234.0</ele><time>2026-03-29T17:52:31.941Z</time></trkpt><trkpt lat="45.6519194" lon="9.0524118"><ele>234.0</ele><time>2026-03-29T17:52:32.941Z</time></trkpt><trkpt lat="45.6518084" lon="9.0523913"><ele>234.0</ele><time>2026-03-29T17:52:33.941Z</time></trkpt><trkpt lat="45.6516816" lon="9.0524198"><ele>234.0</ele><time>2026-03-29T17:52:34.94Z</time></trkpt><trkpt lat="45.6515467" lon="9.0524369"><ele>234.0</ele><time>2026-03-29T17:52:35.941Z</time></trkpt><trkpt lat="45.6513867" lon="9.0524337"><ele>234.0</ele><time>2026-03-29T17:52:36.94Z</time></trkpt><trkpt lat="45.6512123" lon="9.0524271"><ele>233.33333333333331</ele><time>2026-03-29T17:52:37.94Z</time></trkpt><trkpt lat="45.651048" lon="9.0524243"><ele>232.66666666666666</ele><time>2026-03-29T17:52:38.941Z</time></trkpt><trkpt lat="45.6508908" lon="9.0524178"><ele>232.0</ele><time>2026-03-29T17:52:39.94Z</time></trkpt><trkpt lat="45.6507366" lon="9.0524138"><ele>232.0</ele><time>2026-03-29T17:52:40.941Z</time></trkpt><trkpt lat="45.6505849" lon="9.0524082"><ele>232.0</ele><time>2026-03-29T17:52:41.939Z</time></trkpt><trkpt lat="45.6504361" lon="9.0524031"><ele>232.0</ele><time>2026-03-29T17:52:42.941Z</time></trkpt><trkpt lat="45.65029" lon="9.0523964"><ele>232.0</ele><time>2026-03-29T17:52:43.941Z</time></trkpt><trkpt lat="45.6501487" lon="9.0523878"><ele>231.0</ele><time>2026-03-29T17:52:44.941Z</time></trkpt><trkpt lat="45.6500156" lon="9.0523802"><ele>230.0</ele><time>2026-03-29T17:52:45.941Z</time></trkpt><trkpt lat="45.6498855" lon="9.0523749"><ele>229.0</ele><time>2026-03-29T17:52:46.94Z</time></trkpt><trkpt lat="45.6497529" lon="9.0523691"><ele>228.0</ele><time>2026-03-29T17:52:47.941Z</time></trkpt><trkpt lat="45.6496204" lon="9.0523601"><ele>228.0</ele><time>2026-03-29T17:52:48.94Z</time></trkpt><trkpt lat="45.6494865" lon="9.052348"><ele>228.0</ele><time>2026-03-29T17:52:49.94Z</time></trkpt><trkpt lat="45.6493553" lon="9.052334"><ele>228.0</ele><time>2026-03-29T17:52:50.941Z</time></trkpt><trkpt lat="45.6492336" lon="9.0523283"><ele>228.0</ele><time>2026-03-29T17:52:51.941Z</time></trkpt><trkpt lat="45.6491128" lon="9.0523253"><ele>228.25</ele><time>2026-03-29T17:52:52.941Z</time></trkpt><trkpt lat="45.6489934" lon="9.0523194"><ele>228.5</ele><time>2026-03-29T17:52:53.94Z</time></trkpt><trkpt lat="45.6488695" lon="9.0523122"><ele>228.75</ele><time>2026-03-29T17:52:54.94Z</time></trkpt><trkpt lat="45.648748" lon="9.0523055"><ele>229.0</ele><time>2026-03-29T17:52:55.94Z</time></trkpt><trkpt lat="45.6486261" lon="9.0522894"><ele>229.25</ele><time>2026-03-29T17:52:56.941Z</time></trkpt><trkpt lat="45.6485018" lon="9.052256"><ele>229.5</ele><time>2026-03-29T17:52:57.94Z</time></trkpt><trkpt lat="45.6483806" lon="9.0522092"><ele>229.75</ele><time>2026-03-29T17:52:58.94Z</time></trkpt><trkpt lat="45.6482701" lon="9.0521602"><ele>230.0</ele><time>2026-03-29T17:52:59.939Z</time></trkpt><trkpt lat="45.6481811" lon="9.0521069"><ele>230.00000000000003</ele><time>2026-03-29T17:53:00.941Z</time></trkpt><trkpt lat="45.6481096" lon="9.0520456"><ele>230.0</ele><time>2026-03-29T17:53:01.94Z</time></trkpt><trkpt lat="45.6480491" lon="9.0519685"><ele>230.0</ele><time>2026-03-29T17:53:02.94Z</time></trkpt><trkpt lat="45.6479972" lon="9.051873"><ele>230.0</ele><time>2026-03-29T17:53:03.941Z</time></trkpt><trkpt lat="45.6479443" lon="9.0517807"><ele>230.00000000000003</ele><time>2026-03-29T17:53:04.941Z</time></trkpt><trkpt lat="45.6478671" lon="9.0517217"><ele>230.0</ele><time>2026-03-29T17:53:05.94Z</time></trkpt><trkpt lat="45.6477754" lon="9.0516794"><ele>229.83333333333334</ele><time>2026-03-29T17:53:06.941Z</time></trkpt><trkpt lat="45.647697" lon="9.0516386"><ele>229.66666666666669</ele><time>2026-03-29T17:53:07.94Z</time></trkpt><trkpt lat="45.6476184" lon="9.0516093"><ele>229.5</ele><time>2026-03-29T17:53:08.941Z</time></trkpt><trkpt lat="45.6475475" lon="9.0515741"><ele>229.33333333333331</ele><time>2026-03-29T17:53:09.941Z</time></trkpt><trkpt lat="45.647474" lon="9.0515288"><ele>229.16666666666666</ele><time>2026-03-29T17:53:10.94Z</time></trkpt><trkpt lat="45.6474027" lon="9.0514864"><ele>229.0</ele><time>2026-03-29T17:53:11.94Z</time></trkpt><trkpt lat="45.6473324" lon="9.0514416"><ele>229.0</ele><time>2026-03-29T17:53:12.941Z</time></trkpt><trkpt lat="45.6472578" lon="9.05137"><ele>229.0</ele><time>2026-03-29T17:53:13.941Z</time></trkpt><trkpt lat="45.6471727" lon="9.0512887"><ele>229.0</ele><time>2026-03-29T17:53:14.94Z</time></trkpt><trkpt lat="45.6470554" lon="9.051225"><ele>229.0</ele><time>2026-03-29T17:53:15.941Z</time></trkpt><trkpt lat="45.6469171" lon="9.051172"><ele>229.33333333333331</ele><time>2026-03-29T17:53:16.941Z</time></trkpt><trkpt lat="45.6467861" lon="9.0511085"><ele>229.66666666666669</ele><time>2026-03-29T17:53:17.94Z</time></trkpt><trkpt lat="45.6466508" lon="9.0510108"><ele>230.0</ele><time>2026-03-29T17:53:18.94Z</time></trkpt><trkpt lat="45.6465096" lon="9.0508969"><ele>230.0</ele><time>2026-03-29T17:53:19.939Z</time></trkpt><trkpt lat="45.6463592" lon="9.0507819"><ele>230.0</ele><time>2026-03-29T17:53:20.94Z</time></trkpt><trkpt lat="45.6462244" lon="9.0506652"><ele>230.0</ele><time>2026-03-29T17:53:21.94Z</time></trkpt><trkpt lat="45.6460911" lon="9.0505498"><ele>230.0</ele><time>2026-03-29T17:53:22.939Z</time></trkpt><trkpt lat="45.6459554" lon="9.0504336"><ele>230.0</ele><time>2026-03-29T17:53:23.941Z</time></trkpt><trkpt lat="45.6458185" lon="9.0503158"><ele>230.0</ele><time>2026-03-29T17:53:24.941Z</time></trkpt><trkpt lat="45.6456825" lon="9.0501948"><ele>230.0</ele><time>2026-03-29T17:53:25.941Z</time></trkpt><trkpt lat="45.645547" lon="9.0500787"><ele>230.0</ele><time>2026-03-29T17:53:26.94Z</time></trkpt><trkpt lat="45.6454073" lon="9.0499579"><ele>230.0</ele><time>2026-03-29T17:53:27.941Z</time></trkpt><trkpt lat="45.6452595" lon="9.0498316"><ele>229.0</ele><time>2026-03-29T17:53:28.94Z</time></trkpt><trkpt lat="45.6451018" lon="9.0496956"><ele>228.0</ele><time>2026-03-29T17:53:29.939Z</time></trkpt><trkpt lat="45.6449535" lon="9.0495649"><ele>227.0</ele><time>2026-03-29T17:53:30.94Z</time></trkpt><trkpt lat="45.6448059" lon="9.0494357"><ele>227.0</ele><time>2026-03-29T17:53:31.941Z</time></trkpt><trkpt lat="45.6446566" lon="9.0493096"><ele>227.0</ele><time>2026-03-29T17:53:32.94Z</time></trkpt><trkpt lat="45.6445091" lon="9.0491843"><ele>227.0</ele><time>2026-03-29T17:53:33.941Z</time></trkpt><trkpt lat="45.6443636" lon="9.0490593"><ele>227.0</ele><time>2026-03-29T17:53:34.94Z</time></trkpt><trkpt lat="45.6442214" lon="9.0489375"><ele>227.0</ele><time>2026-03-29T17:53:35.941Z</time></trkpt><trkpt lat="45.6440807" lon="9.0488149"><ele>227.0</ele><time>2026-03-29T17:53:36.941Z</time></trkpt><trkpt lat="45.6439369" lon="9.048694"><ele>227.0</ele><time>2026-03-29T17:53:37.94Z</time></trkpt><trkpt lat="45.6437896" lon="9.0485684"><ele>227.0</ele><time>2026-03-29T17:53:38.94Z</time></trkpt><trkpt lat="45.6436391" lon="9.048438"><ele>227.0</ele><time>2026-03-29T17:53:39.941Z</time></trkpt><trkpt lat="45.6434956" lon="9.0483127"><ele>228.33333333333334</ele><time>2026-03-29T17:53:40.941Z</time></trkpt><trkpt lat="45.6433622" lon="9.0481966"><ele>229.66666666666669</ele><time>2026-03-29T17:53:41.939Z</time></trkpt><trkpt lat="45.6432346" lon="9.0480836"><ele>231.0</ele><time>2026-03-29T17:53:42.941Z</time></trkpt><trkpt lat="45.643103" lon="9.0479798"><ele>231.0</ele><time>2026-03-29T17:53:43.941Z</time></trkpt><trkpt lat="45.6429637" lon="9.0478846"><ele>231.0</ele><time>2026-03-29T17:53:44.94Z</time></trkpt><trkpt lat="45.6428168" lon="9.0477941"><ele>231.0</ele><time>2026-03-29T17:53:45.94Z</time></trkpt><trkpt lat="45.6426623" lon="9.047707"><ele>229.33333333333331</ele><time>2026-03-29T17:53:46.94Z</time></trkpt><trkpt lat="45.6425" lon="9.0476254"><ele>227.66666666666666</ele><time>2026-03-29T17:53:47.941Z</time></trkpt><trkpt lat="45.6423357" lon="9.0475539"><ele>226.0</ele><time>2026-03-29T17:53:48.94Z</time></trkpt><trkpt lat="45.6421798" lon="9.0474969"><ele>226.0</ele><time>2026-03-29T17:53:49.94Z</time></trkpt><trkpt lat="45.6420331" lon="9.0474529"><ele>226.0</ele><time>2026-03-29T17:53:50.939Z</time></trkpt><trkpt lat="45.6418892" lon="9.0474142"><ele>226.0</ele><time>2026-03-29T17:53:51.939Z</time></trkpt><trkpt lat="45.641745" lon="9.0473877"><ele>226.0</ele><time>2026-03-29T17:53:52.94Z</time></trkpt><trkpt lat="45.6415952" lon="9.0473646"><ele>226.0</ele><time>2026-03-29T17:53:53.94Z</time></trkpt><trkpt lat="45.6414467" lon="9.0473409"><ele>226.0</ele><time>2026-03-29T17:53:54.939Z</time></trkpt><trkpt lat="45.6413064" lon="9.0473132"><ele>226.0</ele><time>2026-03-29T17:53:55.939Z</time></trkpt><trkpt lat="45.6411825" lon="9.0472902"><ele>226.0</ele><time>2026-03-29T17:53:56.939Z</time></trkpt><trkpt lat="45.6410635" lon="9.0472713"><ele>225.8</ele><time>2026-03-29T17:53:57.939Z</time></trkpt><trkpt lat="45.6409532" lon="9.0472543"><ele>225.60000000000002</ele><time>2026-03-29T17:53:58.94Z</time></trkpt><trkpt lat="45.6408445" lon="9.0472394"><ele>225.4</ele><time>2026-03-29T17:53:59.94Z</time></trkpt><trkpt lat="45.6407342" lon="9.0472269"><ele>225.2</ele><time>2026-03-29T17:54:00.94Z</time></trkpt><trkpt lat="45.6406216" lon="9.0472134"><ele>225.0</ele><time>2026-03-29T17:54:01.939Z</time></trkpt><trkpt lat="45.6404931" lon="9.0472018"><ele>225.0</ele><time>2026-03-29T17:54:02.94Z</time></trkpt><trkpt lat="45.6403598" lon="9.0471859"><ele>225.0</ele><time>2026-03-29T17:54:03.94Z</time></trkpt><trkpt lat="45.6402366" lon="9.0471754"><ele>225.0</ele><time>2026-03-29T17:54:04.939Z</time></trkpt><trkpt lat="45.6401197" lon="9.04716"><ele>225.0</ele><time>2026-03-29T17:54:05.94Z</time></trkpt><trkpt lat="45.6400081" lon="9.0471439"><ele>224.8</ele><time>2026-03-29T17:54:06.94Z</time></trkpt><trkpt lat="45.639902" lon="9.0471336"><ele>224.6</ele><time>2026-03-29T17:54:07.938Z</time></trkpt><trkpt lat="45.6397991" lon="9.0471253"><ele>224.39999999999998</ele><time>2026-03-29T17:54:08.94Z</time></trkpt><trkpt lat="45.639702" lon="9.0471204"><ele>224.2</ele><time>2026-03-29T17:54:09.94Z</time></trkpt><trkpt lat="45.6396126" lon="9.0471124"><ele>224.0</ele><time>2026-03-29T17:54:10.94Z</time></trkpt><trkpt lat="45.6395199" lon="9.0471018"><ele>224.0</ele><time>2026-03-29T17:54:11.939Z</time></trkpt><trkpt lat="45.6394255" lon="9.0470881"><ele>223.99999999999997</ele><time>2026-03-29T17:54:12.939Z</time></trkpt><trkpt lat="45.6393342" lon="9.0470811"><ele>223.99999999999997</ele><time>2026-03-29T17:54:13.94Z</time></trkpt><trkpt lat="45.6392444" lon="9.0470726"><ele>224.0</ele><time>2026-03-29T17:54:14.939Z</time></trkpt><trkpt lat="45.6391649" lon="9.0470585"><ele>224.0</ele><time>2026-03-29T17:54:15.94Z</time></trkpt><trkpt lat="45.6390559" lon="9.0470464"><ele>224.00000000000003</ele><time>2026-03-29T17:54:16.94Z</time></trkpt><trkpt lat="45.6389627" lon="9.0470362"><ele>224.0</ele><time>2026-03-29T17:54:17.94Z</time></trkpt><trkpt lat="45.6388811" lon="9.0470175"><ele>224.0</ele><time>2026-03-29T17:54:18.94Z</time></trkpt><trkpt lat="45.6388019" lon="9.0470025"><ele>224.0</ele><time>2026-03-29T17:54:19.94Z</time></trkpt><trkpt lat="45.6387356" lon="9.0469971"><ele>224.00000000000003</ele><time>2026-03-29T17:54:20.939Z</time></trkpt><trkpt lat="45.6386138" lon="9.0469743"><ele>224.0</ele><time>2026-03-29T17:54:22.94Z</time></trkpt><trkpt lat="45.6385508" lon="9.0469658"><ele>224.00000000000003</ele><time>2026-03-29T17:54:23.939Z</time></trkpt><trkpt lat="45.6384871" lon="9.0469566"><ele>224.0</ele><time>2026-03-29T17:54:24.94Z</time></trkpt><trkpt lat="45.6383654" lon="9.0469338"><ele>224.0</ele><time>2026-03-29T17:54:26.938Z</time></trkpt><trkpt lat="45.638297" lon="9.0469225"><ele>224.0</ele><time>2026-03-29T17:54:27.94Z</time></trkpt><trkpt lat="45.6382282" lon="9.0469106"><ele>224.00000000000003</ele><time>2026-03-29T17:54:28.94Z</time></trkpt><trkpt lat="45.6381559" lon="9.0469049"><ele>224.0</ele><time>2026-03-29T17:54:29.939Z</time></trkpt><trkpt lat="45.6380768" lon="9.0468912"><ele>224.00000000000003</ele><time>2026-03-29T17:54:30.94Z</time></trkpt><trkpt lat="45.637998" lon="9.0468832"><ele>224.0</ele><time>2026-03-29T17:54:31.939Z</time></trkpt><trkpt lat="45.637918" lon="9.0468767"><ele>224.0</ele><time>2026-03-29T17:54:32.939Z</time></trkpt><trkpt lat="45.6378418" lon="9.046874"><ele>224.0</ele><time>2026-03-29T17:54:33.939Z</time></trkpt><trkpt lat="45.6377605" lon="9.0468696"><ele>224.00000000000003</ele><time>2026-03-29T17:54:34.94Z</time></trkpt><trkpt lat="45.6376826" lon="9.0468636"><ele>224.0</ele><time>2026-03-29T17:54:35.94Z</time></trkpt><trkpt lat="45.6376019" lon="9.0468574"><ele>224.16666666666669</ele><time>2026-03-29T17:54:36.939Z</time></trkpt><trkpt lat="45.6375217" lon="9.0468571"><ele>224.33333333333334</ele><time>2026-03-29T17:54:37.94Z</time></trkpt><trkpt lat="45.637446" lon="9.0468533"><ele>224.5</ele><time>2026-03-29T17:54:38.939Z</time></trkpt><trkpt lat="45.6373364" lon="9.0468526"><ele>224.66666666666669</ele><time>2026-03-29T17:54:40.939Z</time></trkpt><trkpt lat="45.6372559" lon="9.0468506"><ele>224.83333333333334</ele><time>2026-03-29T17:54:42.94Z</time></trkpt><trkpt lat="45.6371635" lon="9.0468384"><ele>225.0</ele><time>2026-03-29T17:54:44.938Z</time></trkpt><trkpt lat="45.6370592" lon="9.0468299"><ele>224.66666666666666</ele><time>2026-03-29T17:54:46.938Z</time></trkpt><trkpt lat="45.6369395" lon="9.0468109"><ele>224.33333333333331</ele><time>2026-03-29T17:54:48.939Z</time></trkpt><trkpt lat="45.6368727" lon="9.0468074"><ele>224.0</ele><time>2026-03-29T17:54:49.939Z</time></trkpt><trkpt lat="45.6368005" lon="9.0467976"><ele>223.66666666666666</ele><time>2026-03-29T17:54:50.94Z</time></trkpt><trkpt lat="45.6367181" lon="9.0467863"><ele>223.33333333333331</ele><time>2026-03-29T17:54:51.939Z</time></trkpt><trkpt lat="45.6366256" lon="9.0467767"><ele>223.0</ele><time>2026-03-29T17:54:52.938Z</time></trkpt><trkpt lat="45.6365418" lon="9.0467677"><ele>223.0</ele><time>2026-03-29T17:54:53.939Z</time></trkpt><trkpt lat="45.6364608" lon="9.0467536"><ele>223.0</ele><time>2026-03-29T17:54:54.94Z</time></trkpt><trkpt lat="45.6363767" lon="9.046738"><ele>223.0</ele><time>2026-03-29T17:54:55.94Z</time></trkpt><trkpt lat="45.6362874" lon="9.0467247"><ele>223.0</ele><time>2026-03-29T17:54:56.939Z</time></trkpt><trkpt lat="45.6361941" lon="9.0467104"><ele>223.0</ele><time>2026-03-29T17:54:57.94Z</time></trkpt><trkpt lat="45.6360899" lon="9.0466956"><ele>222.60000000000002</ele><time>2026-03-29T17:54:58.939Z</time></trkpt><trkpt lat="45.635981" lon="9.0466809"><ele>222.20000000000002</ele><time>2026-03-29T17:54:59.94Z</time></trkpt><trkpt lat="45.6358767" lon="9.046661"><ele>221.8</ele><time>2026-03-29T17:55:00.94Z</time></trkpt><trkpt lat="45.6357793" lon="9.0466473"><ele>221.4</ele><time>2026-03-29T17:55:01.939Z</time></trkpt><trkpt lat="45.6356793" lon="9.0466376"><ele>221.0</ele><time>2026-03-29T17:55:02.94Z</time></trkpt><trkpt lat="45.635581" lon="9.0466278"><ele>221.0</ele><time>2026-03-29T17:55:03.94Z</time></trkpt><trkpt lat="45.6354815" lon="9.0466131"><ele>221.00000000000003</ele><time>2026-03-29T17:55:04.94Z</time></trkpt><trkpt lat="45.6353765" lon="9.0465998"><ele>221.00000000000003</ele><time>2026-03-29T17:55:05.939Z</time></trkpt><trkpt lat="45.6352888" lon="9.0465969"><ele>221.0</ele><time>2026-03-29T17:55:06.938Z</time></trkpt><trkpt lat="45.6352022" lon="9.0465929"><ele>221.0</ele><time>2026-03-29T17:55:07.94Z</time></trkpt><trkpt lat="45.63512" lon="9.0465897"><ele>221.00000000000003</ele><time>2026-03-29T17:55:08.94Z</time></trkpt><trkpt lat="45.6350409" lon="9.0465854"><ele>221.0</ele><time>2026-03-29T17:55:09.938Z</time></trkpt><trkpt lat="45.6349691" lon="9.0465907"><ele>221.0</ele><time>2026-03-29T17:55:10.94Z</time></trkpt><trkpt lat="45.6349039" lon="9.0465884"><ele>221.0</ele><time>2026-03-29T17:55:11.939Z</time></trkpt><trkpt lat="45.6348382" lon="9.0465781"><ele>221.00000000000003</ele><time>2026-03-29T17:55:12.94Z</time></trkpt><trkpt lat="45.6347387" lon="9.0464611"><ele>221.0</ele><time>2026-03-29T17:55:14.939Z</time></trkpt><trkpt lat="45.6347052" lon="9.0463649"><ele>221.00000000000003</ele><time>2026-03-29T17:55:15.939Z</time></trkpt><trkpt lat="45.634667" lon="9.0462618"><ele>221.0</ele><time>2026-03-29T17:55:16.939Z</time></trkpt><trkpt lat="45.6346113" lon="9.0461713"><ele>221.0</ele><time>2026-03-29T17:55:17.94Z</time></trkpt><trkpt lat="45.6345572" lon="9.0460948"><ele>221.0</ele><time>2026-03-29T17:55:18.939Z</time></trkpt><trkpt lat="45.6345006" lon="9.0460268"><ele>221.00000000000003</ele><time>2026-03-29T17:55:19.939Z</time></trkpt><trkpt lat="45.634442" lon="9.0459626"><ele>221.0</ele><time>2026-03-29T17:55:20.94Z</time></trkpt><trkpt lat="45.6343829" lon="9.0458955"><ele>221.00000000000003</ele><time>2026-03-29T17:55:21.939Z</time></trkpt><trkpt lat="45.6343236" lon="9.0458247"><ele>221.0</ele><time>2026-03-29T17:55:22.939Z</time></trkpt><trkpt lat="45.6342617" lon="9.045752"><ele>221.0</ele><time>2026-03-29T17:55:23.939Z</time></trkpt><trkpt lat="45.6341981" lon="9.0456753"><ele>221.0</ele><time>2026-03-29T17:55:24.94Z</time></trkpt><trkpt lat="45.6341448" lon="9.0456024"><ele>221.00000000000003</ele><time>2026-03-29T17:55:25.94Z</time></trkpt><trkpt lat="45.6340902" lon="9.0455251"><ele>221.0</ele><time>2026-03-29T17:55:26.94Z</time></trkpt><trkpt lat="45.6339978" lon="9.045412"><ele>221.0</ele><time>2026-03-29T17:55:28.94Z</time></trkpt><trkpt lat="45.6339506" lon="9.0453523"><ele>221.00000000000003</ele><time>2026-03-29T17:55:29.939Z</time></trkpt><trkpt lat="45.6338665" lon="9.0452634"><ele>221.00000000000003</ele><time>2026-03-29T17:55:31.939Z</time></trkpt><trkpt lat="45.6337834" lon="9.045136"><ele>221.0</ele><time>2026-03-29T17:55:33.94Z</time></trkpt><trkpt lat="45.6337387" lon="9.0449648"><ele>221.0</ele><time>2026-03-29T17:55:35.939Z</time></trkpt><trkpt lat="45.6337408" lon="9.0448549"><ele>221.00000000000003</ele><time>2026-03-29T17:55:36.94Z</time></trkpt><trkpt lat="45.633747" lon="9.0447457"><ele>221.0</ele><time>2026-03-29T17:55:37.939Z</time></trkpt><trkpt lat="45.633753" lon="9.0446354"><ele>221.0</ele><time>2026-03-29T17:55:38.94Z</time></trkpt><trkpt lat="45.6337631" lon="9.04452"><ele>221.0</ele><time>2026-03-29T17:55:39.94Z</time></trkpt><trkpt lat="45.6337724" lon="9.0443904"><ele>221.00000000000003</ele><time>2026-03-29T17:55:40.938Z</time></trkpt><trkpt lat="45.6337787" lon="9.0442574"><ele>221.0</ele><time>2026-03-29T17:55:41.939Z</time></trkpt><trkpt lat="45.6337862" lon="9.0441315"><ele>220.66666666666669</ele><time>2026-03-29T17:55:42.939Z</time></trkpt><trkpt lat="45.6337945" lon="9.0440017"><ele>220.33333333333334</ele><time>2026-03-29T17:55:43.94Z</time></trkpt><trkpt lat="45.633804" lon="9.0438678"><ele>220.0</ele><time>2026-03-29T17:55:44.94Z</time></trkpt><trkpt lat="45.6338092" lon="9.0437348"><ele>219.66666666666669</ele><time>2026-03-29T17:55:45.94Z</time></trkpt><trkpt lat="45.633817" lon="9.0436121"><ele>219.33333333333334</ele><time>2026-03-29T17:55:46.94Z</time></trkpt><trkpt lat="45.6338255" lon="9.0434981"><ele>219.0</ele><time>2026-03-29T17:55:47.939Z</time></trkpt><trkpt lat="45.6338345" lon="9.0433844"><ele>219.33333333333334</ele><time>2026-03-29T17:55:48.94Z</time></trkpt><trkpt lat="45.6338461" lon="9.0432689"><ele>219.66666666666669</ele><time>2026-03-29T17:55:49.94Z</time></trkpt><trkpt lat="45.6338548" lon="9.0431437"><ele>220.0</ele><time>2026-03-29T17:55:50.94Z</time></trkpt><trkpt lat="45.6338652" lon="9.043024"><ele>220.33333333333334</ele><time>2026-03-29T17:55:51.939Z</time></trkpt><trkpt lat="45.6338733" lon="9.0428974"><ele>220.66666666666669</ele><time>2026-03-29T17:55:52.939Z</time></trkpt><trkpt lat="45.6338854" lon="9.0427695"><ele>221.0</ele><time>2026-03-29T17:55:53.94Z</time></trkpt><trkpt lat="45.6339009" lon="9.0426438"><ele>221.0</ele><time>2026-03-29T17:55:54.94Z</time></trkpt><trkpt lat="45.6339143" lon="9.0425111"><ele>221.00000000000003</ele><time>2026-03-29T17:55:55.939Z</time></trkpt><trkpt lat="45.6339226" lon="9.0423885"><ele>221.00000000000003</ele><time>2026-03-29T17:55:56.94Z</time></trkpt><trkpt lat="45.6339339" lon="9.0422614"><ele>221.0</ele><time>2026-03-29T17:55:57.938Z</time></trkpt><trkpt lat="45.6339451" lon="9.0421288"><ele>221.0</ele><time>2026-03-29T17:55:58.939Z</time></trkpt><trkpt lat="45.6339528" lon="9.0419897"><ele>220.8</ele><time>2026-03-29T17:55:59.94Z</time></trkpt><trkpt lat="45.6339603" lon="9.0418486"><ele>220.60000000000002</ele><time>2026-03-29T17:56:00.94Z</time></trkpt><trkpt lat="45.6339708" lon="9.0417127"><ele>220.4</ele><time>2026-03-29T17:56:01.94Z</time></trkpt><trkpt lat="45.6339748" lon="9.0415878"><ele>220.2</ele><time>2026-03-29T17:56:02.939Z</time></trkpt><trkpt lat="45.6339704" lon="9.0414605"><ele>220.0</ele><time>2026-03-29T17:56:03.939Z</time></trkpt><trkpt lat="45.6339585" lon="9.0413308"><ele>219.99999999999997</ele><time>2026-03-29T17:56:04.94Z</time></trkpt><trkpt lat="45.6339418" lon="9.0412109"><ele>220.0</ele><time>2026-03-29T17:56:05.938Z</time></trkpt><trkpt lat="45.6339124" lon="9.0410886"><ele>220.0</ele><time>2026-03-29T17:56:06.94Z</time></trkpt><trkpt lat="45.6338764" lon="9.0409737"><ele>220.0</ele><time>2026-03-29T17:56:07.939Z</time></trkpt><trkpt lat="45.633837" lon="9.040871"><ele>219.99999999999997</ele><time>2026-03-29T17:56:08.94Z</time></trkpt><trkpt lat="45.6337987" lon="9.0407915"><ele>220.0</ele><time>2026-03-29T17:56:09.939Z</time></trkpt><trkpt lat="45.6337422" lon="9.0406842"><ele>219.99999999999997</ele><time>2026-03-29T17:56:11.94Z</time></trkpt><trkpt lat="45.6337104" lon="9.0405968"><ele>220.0</ele><time>2026-03-29T17:56:13.94Z</time></trkpt><trkpt lat="45.6336615" lon="9.0404283"><ele>220.0</ele><time>2026-03-29T17:56:15.94Z</time></trkpt><trkpt lat="45.6336352" lon="9.0403284"><ele>220.0</ele><time>2026-03-29T17:56:16.94Z</time></trkpt><trkpt lat="45.6336144" lon="9.0402396"><ele>219.99999999999997</ele><time>2026-03-29T17:56:17.94Z</time></trkpt><trkpt lat="45.6336087" lon="9.0401463"><ele>220.0</ele><time>2026-03-29T17:56:18.939Z</time></trkpt><trkpt lat="45.633593" lon="9.0400535"><ele>219.99999999999997</ele><time>2026-03-29T17:56:19.94Z</time></trkpt><trkpt lat="45.6335477" lon="9.0399889"><ele>220.0</ele><time>2026-03-29T17:56:20.94Z</time></trkpt><trkpt lat="45.6334858" lon="9.039971"><ele>220.0</ele><time>2026-03-29T17:56:21.939Z</time></trkpt><trkpt lat="45.6334065" lon="9.0399976"><ele>220.0</ele><time>2026-03-29T17:56:22.94Z</time></trkpt><trkpt lat="45.6332984" lon="9.0400105"><ele>219.99999999999997</ele><time>2026-03-29T17:56:23.94Z</time></trkpt><trkpt lat="45.633197" lon="9.0400063"><ele>220.0</ele><time>2026-03-29T17:56:24.939Z</time></trkpt><trkpt lat="45.6331016" lon="9.0400084"><ele>220.0</ele><time>2026-03-29T17:56:25.939Z</time></trkpt><trkpt lat="45.6329966" lon="9.040006"><ele>220.0</ele><time>2026-03-29T17:56:26.94Z</time></trkpt><trkpt lat="45.6328818" lon="9.0399969"><ele>220.0</ele><time>2026-03-29T17:56:27.938Z</time></trkpt><trkpt lat="45.6327552" lon="9.0399832"><ele>220.0</ele><time>2026-03-29T17:56:28.94Z</time></trkpt><trkpt lat="45.6326299" lon="9.039974"><ele>219.25</ele><time>2026-03-29T17:56:29.939Z</time></trkpt><trkpt lat="45.6325025" lon="9.0399643"><ele>218.5</ele><time>2026-03-29T17:56:30.94Z</time></trkpt><trkpt lat="45.6323776" lon="9.0399547"><ele>217.75</ele><time>2026-03-29T17:56:31.94Z</time></trkpt><trkpt lat="45.6322568" lon="9.0399489"><ele>217.0</ele><time>2026-03-29T17:56:32.94Z</time></trkpt><trkpt lat="45.6321438" lon="9.0399455"><ele>217.0</ele><time>2026-03-29T17:56:33.939Z</time></trkpt><trkpt lat="45.6320445" lon="9.0399354"><ele>217.0</ele><time>2026-03-29T17:56:34.94Z</time></trkpt><trkpt lat="45.6319701" lon="9.039918"><ele>217.0</ele><time>2026-03-29T17:56:35.94Z</time></trkpt><trkpt lat="45.6319064" lon="9.0399262"><ele>217.0</ele><time>2026-03-29T17:56:36.939Z</time></trkpt><trkpt lat="45.6318023" lon="9.0399051"><ele>217.0</ele><time>2026-03-29T17:56:38.939Z</time></trkpt><trkpt lat="45.6316952" lon="9.039791"><ele>217.2</ele><time>2026-03-29T17:56:40.94Z</time></trkpt><trkpt lat="45.6316319" lon="9.0396846"><ele>217.39999999999998</ele><time>2026-03-29T17:56:41.939Z</time></trkpt><trkpt lat="45.6315711" lon="9.0395581"><ele>217.60000000000002</ele><time>2026-03-29T17:56:42.94Z</time></trkpt><trkpt lat="45.6315153" lon="9.0394416"><ele>217.8</ele><time>2026-03-29T17:56:43.939Z</time></trkpt><trkpt lat="45.6314555" lon="9.0393237"><ele>218.0</ele><time>2026-03-29T17:56:44.94Z</time></trkpt><trkpt lat="45.6313913" lon="9.0391987"><ele>218.0</ele><time>2026-03-29T17:56:45.939Z</time></trkpt><trkpt lat="45.6313219" lon="9.0390652"><ele>218.0</ele><time>2026-03-29T17:56:46.94Z</time></trkpt><trkpt lat="45.6312548" lon="9.03893"><ele>218.0</ele><time>2026-03-29T17:56:47.939Z</time></trkpt><trkpt lat="45.6311895" lon="9.0387983"><ele>218.0</ele><time>2026-03-29T17:56:48.939Z</time></trkpt><trkpt lat="45.6311327" lon="9.0386801"><ele>218.0</ele><time>2026-03-29T17:56:49.94Z</time></trkpt><trkpt lat="45.6310833" lon="9.0385781"><ele>218.00000000000003</ele><time>2026-03-29T17:56:50.94Z</time></trkpt><trkpt lat="45.6310337" lon="9.0384674"><ele>218.0</ele><time>2026-03-29T17:56:51.939Z</time></trkpt><trkpt lat="45.6309879" lon="9.0383681"><ele>218.0</ele><time>2026-03-29T17:56:52.94Z</time></trkpt><trkpt lat="45.6309422" lon="9.0382791"><ele>218.0</ele><time>2026-03-29T17:56:53.939Z</time></trkpt><trkpt lat="45.6309011" lon="9.0381948"><ele>218.00000000000003</ele><time>2026-03-29T17:56:54.939Z</time></trkpt><trkpt lat="45.6308583" lon="9.0381109"><ele>218.0</ele><time>2026-03-29T17:56:55.939Z</time></trkpt><trkpt lat="45.6308148" lon="9.03802"><ele>217.83333333333334</ele><time>2026-03-29T17:56:56.94Z</time></trkpt><trkpt lat="45.6307669" lon="9.0379293"><ele>217.66666666666669</ele><time>2026-03-29T17:56:57.94Z</time></trkpt><trkpt lat="45.6307201" lon="9.0378396"><ele>217.5</ele><time>2026-03-29T17:56:58.939Z</time></trkpt><trkpt lat="45.6306805" lon="9.0377499"><ele>217.33333333333331</ele><time>2026-03-29T17:56:59.938Z</time></trkpt><trkpt lat="45.6306635" lon="9.0376108"><ele>217.16666666666666</ele><time>2026-03-29T17:57:00.939Z</time></trkpt><trkpt lat="45.630647" lon="9.0374769"><ele>217.0</ele><time>2026-03-29T17:57:01.939Z</time></trkpt><trkpt lat="45.6306396" lon="9.0373291"><ele>217.0</ele><time>2026-03-29T17:57:02.939Z</time></trkpt><trkpt lat="45.6306361" lon="9.0371745"><ele>217.0</ele><time>2026-03-29T17:57:03.94Z</time></trkpt><trkpt lat="45.6306345" lon="9.0370157"><ele>217.0</ele><time>2026-03-29T17:57:04.94Z</time></trkpt><trkpt lat="45.630635" lon="9.0368677"><ele>217.0</ele><time>2026-03-29T17:57:05.94Z</time></trkpt><trkpt lat="45.6306324" lon="9.0367223"><ele>217.0</ele><time>2026-03-29T17:57:06.939Z</time></trkpt><trkpt lat="45.6306296" lon="9.0365796"><ele>216.99999999999997</ele><time>2026-03-29T17:57:07.94Z</time></trkpt><trkpt lat="45.6306285" lon="9.0364407"><ele>217.0</ele><time>2026-03-29T17:57:08.94Z</time></trkpt><trkpt lat="45.6306252" lon="9.0363177"><ele>217.0</ele><time>2026-03-29T17:57:09.939Z</time></trkpt><trkpt lat="45.63063" lon="9.0362049"><ele>217.0</ele><time>2026-03-29T17:57:10.939Z</time></trkpt><trkpt lat="45.6306319" lon="9.0361022"><ele>216.99999999999997</ele><time>2026-03-29T17:57:11.94Z</time></trkpt><trkpt lat="45.6306274" lon="9.0360078"><ele>217.0</ele><time>2026-03-29T17:57:12.939Z</time></trkpt><trkpt lat="45.6306204" lon="9.0358273"><ele>216.99999999999997</ele><time>2026-03-29T17:57:14.939Z</time></trkpt><trkpt lat="45.6306211" lon="9.035731"><ele>217.0</ele><time>2026-03-29T17:57:15.94Z</time></trkpt><trkpt lat="45.6306209" lon="9.0356287"><ele>217.0</ele><time>2026-03-29T17:57:16.94Z</time></trkpt><trkpt lat="45.6306208" lon="9.0355193"><ele>217.0</ele><time>2026-03-29T17:57:17.94Z</time></trkpt><trkpt lat="45.630621" lon="9.0353956"><ele>216.99999999999997</ele><time>2026-03-29T17:57:18.94Z</time></trkpt><trkpt lat="45.630623" lon="9.0352717"><ele>217.0</ele><time>2026-03-29T17:57:19.94Z</time></trkpt><trkpt lat="45.6306251" lon="9.0351374"><ele>217.0</ele><time>2026-03-29T17:57:20.94Z</time></trkpt><trkpt lat="45.6306251" lon="9.0349756"><ele>217.0</ele><time>2026-03-29T17:57:22.94Z</time></trkpt><trkpt lat="45.6306289" lon="9.0348638"><ele>217.0</ele><time>2026-03-29T17:57:23.94Z</time></trkpt><trkpt lat="45.6306322" lon="9.0347458"><ele>217.0</ele><time>2026-03-29T17:57:24.939Z</time></trkpt><trkpt lat="45.6306328" lon="9.0346121"><ele>217.0</ele><time>2026-03-29T17:57:25.939Z</time></trkpt><trkpt lat="45.6306325" lon="9.0344818"><ele>217.2</ele><time>2026-03-29T17:57:26.939Z</time></trkpt><trkpt lat="45.6306343" lon="9.0343449"><ele>217.39999999999998</ele><time>2026-03-29T17:57:27.94Z</time></trkpt><trkpt lat="45.6306339" lon="9.0342103"><ele>217.60000000000002</ele><time>2026-03-29T17:57:28.94Z</time></trkpt><trkpt lat="45.6306296" lon="9.0340778"><ele>217.8</ele><time>2026-03-29T17:57:29.938Z</time></trkpt><trkpt lat="45.6306257" lon="9.0339458"><ele>218.0</ele><time>2026-03-29T17:57:30.94Z</time></trkpt><trkpt lat="45.6306188" lon="9.0338157"><ele>218.00000000000003</ele><time>2026-03-29T17:57:31.939Z</time></trkpt><trkpt lat="45.6306203" lon="9.0336904"><ele>218.0</ele><time>2026-03-29T17:57:32.939Z</time></trkpt><trkpt lat="45.6306215" lon="9.0335722"><ele>218.0</ele><time>2026-03-29T17:57:33.939Z</time></trkpt><trkpt lat="45.6306194" lon="9.0334593"><ele>218.0</ele><time>2026-03-29T17:57:34.94Z</time></trkpt><trkpt lat="45.6306169" lon="9.0333511"><ele>218.00000000000003</ele><time>2026-03-29T17:57:35.938Z</time></trkpt><trkpt lat="45.6306172" lon="9.0332427"><ele>218.0</ele><time>2026-03-29T17:57:36.939Z</time></trkpt><trkpt lat="45.6306199" lon="9.0331279"><ele>217.83333333333334</ele><time>2026-03-29T17:57:37.938Z</time></trkpt><trkpt lat="45.630621" lon="9.0330106"><ele>217.66666666666669</ele><time>2026-03-29T17:57:38.94Z</time></trkpt><trkpt lat="45.6306225" lon="9.0328948"><ele>217.5</ele><time>2026-03-29T17:57:39.94Z</time></trkpt><trkpt lat="45.6306226" lon="9.0327854"><ele>217.33333333333331</ele><time>2026-03-29T17:57:40.939Z</time></trkpt><trkpt lat="45.6306217" lon="9.0326733"><ele>217.16666666666666</ele><time>2026-03-29T17:57:41.939Z</time></trkpt><trkpt lat="45.6306248" lon="9.0325564"><ele>217.0</ele><time>2026-03-29T17:57:42.94Z</time></trkpt><trkpt lat="45.6306277" lon="9.0324481"><ele>217.0</ele><time>2026-03-29T17:57:43.939Z</time></trkpt><trkpt lat="45.6306263" lon="9.0323476"><ele>217.0</ele><time>2026-03-29T17:57:44.94Z</time></trkpt><trkpt lat="45.6306241" lon="9.0322557"><ele>217.0</ele><time>2026-03-29T17:57:45.94Z</time></trkpt><trkpt lat="45.6306249" lon="9.0321582"><ele>217.0</ele><time>2026-03-29T17:57:46.939Z</time></trkpt><trkpt lat="45.6306317" lon="9.032059"><ele>217.0</ele><time>2026-03-29T17:57:47.94Z</time></trkpt><trkpt lat="45.6306344" lon="9.0319541"><ele>217.0</ele><time>2026-03-29T17:57:48.939Z</time></trkpt><trkpt lat="45.6306376" lon="9.0318474"><ele>217.0</ele><time>2026-03-29T17:57:49.939Z</time></trkpt><trkpt lat="45.630637" lon="9.0317533"><ele>216.99999999999997</ele><time>2026-03-29T17:57:50.939Z</time></trkpt><trkpt lat="45.6306324" lon="9.0316622"><ele>217.0</ele><time>2026-03-29T17:57:51.939Z</time></trkpt><trkpt lat="45.6306323" lon="9.0315628"><ele>217.0</ele><time>2026-03-29T17:57:52.94Z</time></trkpt><trkpt lat="45.6306326" lon="9.0314667"><ele>217.0</ele><time>2026-03-29T17:57:53.938Z</time></trkpt><trkpt lat="45.6306308" lon="9.0313655"><ele>216.99999999999997</ele><time>2026-03-29T17:57:54.94Z</time></trkpt><trkpt lat="45.6306265" lon="9.0311507"><ele>217.0</ele><time>2026-03-29T17:57:56.939Z</time></trkpt><trkpt lat="45.6306287" lon="9.0310313"><ele>217.2</ele><time>2026-03-29T17:57:57.94Z</time></trkpt><trkpt lat="45.630626" lon="9.0309028"><ele>217.39999999999998</ele><time>2026-03-29T17:57:58.939Z</time></trkpt><trkpt lat="45.6306264" lon="9.0307797"><ele>217.60000000000002</ele><time>2026-03-29T17:57:59.939Z</time></trkpt><trkpt lat="45.6306284" lon="9.0306703"><ele>217.8</ele><time>2026-03-29T17:58:00.938Z</time></trkpt><trkpt lat="45.6306461" lon="9.0305099"><ele>218.0</ele><time>2026-03-29T17:58:02.752Z</time></trkpt><trkpt lat="45.6306461" lon="9.0303677"><ele>218.16666666666669</ele><time>2026-03-29T17:58:04.94Z</time></trkpt><trkpt lat="45.6306394" lon="9.0302716"><ele>218.33333333333334</ele><time>2026-03-29T17:58:06.939Z</time></trkpt><trkpt lat="45.6305876" lon="9.0301658"><ele>218.5</ele><time>2026-03-29T17:58:08.938Z</time></trkpt><trkpt lat="45.6304941" lon="9.0301064"><ele>218.66666666666669</ele><time>2026-03-29T17:58:10.939Z</time></trkpt><trkpt lat="45.6304197" lon="9.0301207"><ele>218.83333333333334</ele><time>2026-03-29T17:58:11.937Z</time></trkpt><trkpt lat="45.6303404" lon="9.0301237"><ele>219.0</ele><time>2026-03-29T17:58:12.938Z</time></trkpt><trkpt lat="45.6302566" lon="9.0301396"><ele>219.0</ele><time>2026-03-29T17:58:13.939Z</time></trkpt><trkpt lat="45.6301619" lon="9.0301361"><ele>219.0</ele><time>2026-03-29T17:58:14.938Z</time></trkpt><trkpt lat="45.6300841" lon="9.0301413"><ele>219.0</ele><time>2026-03-29T17:58:15.938Z</time></trkpt><trkpt lat="45.6300008" lon="9.0301399"><ele>219.0</ele><time>2026-03-29T17:58:16.939Z</time></trkpt><trkpt lat="45.6299222" lon="9.0301322"><ele>219.0</ele><time>2026-03-29T17:58:17.939Z</time></trkpt><trkpt lat="45.6298468" lon="9.0301292"><ele>219.0</ele><time>2026-03-29T17:58:18.938Z</time></trkpt><trkpt lat="45.6297389" lon="9.0301149"><ele>219.0</ele><time>2026-03-29T17:58:20.937Z</time></trkpt><trkpt lat="45.6296782" lon="9.0300843"><ele>219.0</ele><time>2026-03-29T17:58:21.937Z</time></trkpt><trkpt lat="45.6295554" lon="9.0300233"><ele>219.0</ele><time>2026-03-29T17:58:23.938Z</time></trkpt><trkpt lat="45.6294866" lon="9.0300174"><ele>219.0</ele><time>2026-03-29T17:58:24.938Z</time></trkpt><trkpt lat="45.6294136" lon="9.0300162"><ele>219.0</ele><time>2026-03-29T17:58:25.939Z</time></trkpt><trkpt lat="45.6293473" lon="9.0300266"><ele>219.0</ele><time>2026-03-29T17:58:26.939Z</time></trkpt><trkpt lat="45.6292865" lon="9.0300539"><ele>219.16666666666666</ele><time>2026-03-29T17:58:27.939Z</time></trkpt><trkpt lat="45.6291691" lon="9.0301087"><ele>219.33333333333331</ele><time>2026-03-29T17:58:29.938Z</time></trkpt><trkpt lat="45.6290987" lon="9.0300979"><ele>219.5</ele><time>2026-03-29T17:58:30.938Z</time></trkpt><trkpt lat="45.6290264" lon="9.0301023"><ele>219.66666666666666</ele><time>2026-03-29T17:58:31.937Z</time></trkpt><trkpt lat="45.6289554" lon="9.0301028"><ele>219.83333333333331</ele><time>2026-03-29T17:58:32.938Z</time></trkpt><trkpt lat="45.6288812" lon="9.0301022"><ele>220.0</ele><time>2026-03-29T17:58:33.939Z</time></trkpt><trkpt lat="45.628807" lon="9.0301017"><ele>219.99999999999997</ele><time>2026-03-29T17:58:34.939Z</time></trkpt><trkpt lat="45.6287197" lon="9.0301005"><ele>220.0</ele><time>2026-03-29T17:58:35.939Z</time></trkpt><trkpt lat="45.6286348" lon="9.0301136"><ele>220.0</ele><time>2026-03-29T17:58:37.939Z</time></trkpt><trkpt lat="45.628568" lon="9.0301193"><ele>220.0</ele><time>2026-03-29T17:58:38.939Z</time></trkpt><trkpt lat="45.6284433" lon="9.030096"><ele>219.99999999999997</ele><time>2026-03-29T17:58:40.939Z</time></trkpt><trkpt lat="45.6283721" lon="9.0300916"><ele>220.0</ele><time>2026-03-29T17:58:41.938Z</time></trkpt><trkpt lat="45.6283094" lon="9.0301183"><ele>219.4</ele><time>2026-03-29T17:58:42.939Z</time></trkpt><trkpt lat="45.628261" lon="9.0302114"><ele>218.8</ele><time>2026-03-29T17:58:44.938Z</time></trkpt><trkpt lat="45.6282529" lon="9.0303414"><ele>218.2</ele><time>2026-03-29T17:58:56.938Z</time></trkpt><trkpt lat="45.6282266" lon="9.0304407"><ele>217.6</ele><time>2026-03-29T17:58:59.938Z</time></trkpt><trkpt lat="45.6280792" lon="9.0305219"><ele>217.0</ele><time>2026-03-29T17:59:14.939Z</time></trkpt><trkpt lat="45.6279924" lon="9.0305664"><ele>216.99999999999997</ele><time>2026-03-29T17:59:16.938Z</time></trkpt><trkpt lat="45.6279138" lon="9.0306259"><ele>217.0</ele><time>2026-03-29T17:59:19.939Z</time></trkpt><trkpt lat="45.6278442" lon="9.0305834"><ele>217.0</ele><time>2026-03-29T17:59:23.939Z</time></trkpt><trkpt lat="45.6278522" lon="9.030674"><ele>217.0</ele><time>2026-03-29T18:01:32.938Z</time></trkpt><trkpt lat="45.6278263" lon="9.0307596"><ele>216.99999999999997</ele><time>2026-03-29T18:01:40.938Z</time></trkpt><trkpt lat="45.6278802" lon="9.0307056"><ele>217.0</ele><time>2026-03-29T18:03:52.939Z</time></trkpt><trkpt lat="45.6279682" lon="9.0306624"><ele>216.99999999999997</ele><time>2026-03-29T18:04:06.86Z</time></trkpt><trkpt lat="45.6280349" lon="9.0306266"><ele>217.0</ele><time>2026-03-29T18:04:12.961Z</time></trkpt><trkpt lat="45.6280535" lon="9.0305325"><ele>217.0</ele><time>2026-03-29T18:04:19.318Z</time></trkpt><trkpt lat="45.6281188" lon="9.0305356"><ele>217.0</ele><time>2026-03-29T18:04:22.484Z</time></trkpt><trkpt lat="45.6281449" lon="9.0304452"><ele>216.99999999999997</ele><time>2026-03-29T18:04:27.939Z</time></trkpt><trkpt lat="45.6281411" lon="9.0303215"><ele>217.0</ele><time>2026-03-29T18:04:38.833Z</time></trkpt><trkpt lat="45.627962" lon="9.0306056"><ele>216.99999999999997</ele><time>2026-03-29T18:07:10.938Z</time></trkpt><trkpt lat="45.6280231" lon="9.0305421"><ele>217.0</ele><time>2026-03-29T18:07:17.937Z</time></trkpt><trkpt lat="45.628084" lon="9.0304071"><ele>217.0</ele><time>2026-03-29T18:07:25.906Z</time></trkpt><trkpt lat="45.628049" lon="9.030491"><ele>217.0</ele><time>2026-03-29T18:07:29.937Z</time></trkpt><trkpt lat="45.6279924" lon="9.0305645"><ele>216.99999999999997</ele><time>2026-03-29T18:07:34.938Z</time></trkpt><trkpt lat="45.6279664" lon="9.0304802"><ele>217.0</ele><time>2026-03-29T18:07:50.937Z</time></trkpt><trkpt lat="45.6279679" lon="9.0303865"><ele>217.0</ele><time>2026-03-29T18:10:55.937Z</time></trkpt><trkpt lat="45.6280077" lon="9.0303124"><ele>217.0</ele><time>2026-03-29T18:11:02.915Z</time></trkpt><trkpt lat="45.6280358" lon="9.0302278"><ele>217.0</ele><time>2026-03-29T18:11:06.94Z</time></trkpt><trkpt lat="45.6280643" lon="9.0303783"><ele>217.0</ele><time>2026-03-29T18:11:19.937Z</time></trkpt><trkpt lat="45.6280722" lon="9.0302818"><ele>217.0</ele><time>2026-03-29T18:11:59.937Z</time></trkpt><trkpt lat="45.6280711" lon="9.0303731"><ele>217.0</ele><time>2026-03-29T18:15:36.936Z</time></trkpt><trkpt lat="45.6280835" lon="9.0302809"><ele>217.0</ele><time>2026-03-29T18:21:08.94Z</time></trkpt><trkpt lat="45.6281019" lon="9.0301936"><ele>217.0</ele><time>2026-03-29T18:21:23.936Z</time></trkpt><trkpt lat="45.6280592" lon="9.0302664"><ele>217.0</ele><time>2026-03-29T18:24:23.935Z</time></trkpt><trkpt lat="45.6280259" lon="9.0301872"><ele>217.0</ele><time>2026-03-29T18:24:49.935Z</time></trkpt><trkpt lat="45.6281357" lon="9.0301839"><ele>217.0</ele><time>2026-03-29T18:25:37.935Z</time></trkpt><trkpt lat="45.6281151" lon="9.0302698"><ele>217.0</ele><time>2026-03-29T18:27:10.94Z</time></trkpt><trkpt lat="45.6280803" lon="9.0301785"><ele>217.0</ele><time>2026-03-29T18:38:21.931Z</time></trkpt><trkpt lat="45.6280672" lon="9.0302691"><ele>217.0</ele><time>2026-03-29T18:39:20.933Z</time></trkpt><trkpt lat="45.6281215" lon="9.0301883"><ele>217.0</ele><time>2026-03-29T18:40:02.932Z</time></trkpt><trkpt lat="45.6280676" lon="9.030247"><ele>217.0</ele><time>2026-03-29T18:43:15.93Z</time></trkpt><trkpt lat="45.6281208" lon="9.0301887"><ele>217.0</ele><time>2026-03-29T18:46:09.931Z</time></trkpt><trkpt lat="45.628085" lon="9.0302646"><ele>217.0</ele><time>2026-03-29T18:50:20.929Z</time></trkpt><trkpt lat="45.6280965" lon="9.0301758"><ele>217.0</ele><time>2026-03-29T18:51:37.929Z</time></trkpt><trkpt lat="45.6281555" lon="9.0302171"><ele>217.0</ele><time>2026-03-29T18:57:09.865Z</time></trkpt><trkpt lat="45.6281086" lon="9.0303347"><ele>217.0</ele><time>2026-03-29T18:57:35.927Z</time></trkpt><trkpt lat="45.6281234" lon="9.0302363"><ele>217.0</ele><time>2026-03-29T18:57:43.858Z</time></trkpt><trkpt lat="45.6280668" lon="9.0305233"><ele>217.0</ele><time>2026-03-29T19:00:10.213Z</time></trkpt><trkpt lat="45.6280425" lon="9.030619"><ele>217.0</ele><time>2026-03-29T19:00:16.367Z</time></trkpt><trkpt lat="45.6279921" lon="9.0305594"><ele>217.0</ele><time>2026-03-29T19:00:23.233Z</time></trkpt><trkpt lat="45.6279449" lon="9.0304551"><ele>217.0</ele><time>2026-03-29T19:00:27.92Z</time></trkpt><trkpt lat="45.6280928" lon="9.0304377"><ele>217.0</ele><time>2026-03-29T19:00:37.924Z</time></trkpt><trkpt lat="45.6280752" lon="9.0305281"><ele>217.0</ele><time>2026-03-29T19:00:42.879Z</time></trkpt><trkpt lat="45.627889" lon="9.0306687"><ele>217.0</ele><time>2026-03-29T19:00:46.926Z</time></trkpt><trkpt lat="45.6278282" lon="9.0307134"><ele>217.0</ele><time>2026-03-29T19:00:47.83Z</time></trkpt><trkpt lat="45.6278581" lon="9.0308725"><ele>217.14285714285714</ele><time>2026-03-29T19:03:46.924Z</time></trkpt><trkpt lat="45.6279397" lon="9.0308885"><ele>217.28571428571428</ele><time>2026-03-29T19:13:16.923Z</time></trkpt><trkpt lat="45.6278767" lon="9.030867"><ele>217.42857142857144</ele><time>2026-03-29T19:14:14.921Z</time></trkpt><trkpt lat="45.6278136" lon="9.0308696"><ele>217.57142857142856</ele><time>2026-03-29T19:28:09.919Z</time></trkpt><trkpt lat="45.6278802" lon="9.0308916"><ele>217.71428571428572</ele><time>2026-03-29T19:30:22.919Z</time></trkpt><trkpt lat="45.6279615" lon="9.0309617"><ele>217.85714285714286</ele><time>2026-03-29T19:35:57.917Z</time></trkpt><trkpt lat="45.6278994" lon="9.030987"><ele>218.0</ele><time>2026-03-29T19:37:26.917Z</time></trkpt><trkpt lat="45.6279657" lon="9.0309651"><ele>218.00000000000003</ele><time>2026-03-29T19:41:58.991Z</time></trkpt><trkpt lat="45.6279029" lon="9.0309793"><ele>218.0</ele><time>2026-03-29T19:43:43.858Z</time></trkpt><trkpt lat="45.6278937" lon="9.0308529"><ele>218.0</ele><time>2026-03-29T19:48:11.912Z</time></trkpt><trkpt lat="45.6280296" lon="9.0308408"><ele>218.0</ele><time>2026-03-29T19:48:22.558Z</time></trkpt><trkpt lat="45.6280661" lon="9.0307621"><ele>218.00000000000003</ele><time>2026-03-29T19:48:27.913Z</time></trkpt><trkpt lat="45.6280945" lon="9.0306708"><ele>218.0</ele><time>2026-03-29T19:48:30.038Z</time></trkpt><trkpt lat="45.6281214" lon="9.0305777"><ele>217.83333333333334</ele><time>2026-03-29T19:48:35.591Z</time></trkpt><trkpt lat="45.6281198" lon="9.0303669"><ele>217.66666666666669</ele><time>2026-03-29T19:49:11.901Z</time></trkpt><trkpt lat="45.6281977" lon="9.0304237"><ele>217.5</ele><time>2026-03-29T19:50:50.515Z</time></trkpt><trkpt lat="45.6281583" lon="9.0303462"><ele>217.33333333333331</ele><time>2026-03-29T19:53:35.838Z</time></trkpt><trkpt lat="45.6280862" lon="9.0303169"><ele>217.16666666666666</ele><time>2026-03-29T19:53:41.913Z</time></trkpt><trkpt lat="45.6280764" lon="9.0304103"><ele>217.0</ele><time>2026-03-29T19:54:54.911Z</time></trkpt><trkpt lat="45.6280482" lon="9.030527"><ele>217.0</ele><time>2026-03-29T19:54:59.913Z</time></trkpt><trkpt lat="45.6281068" lon="9.0304685"><ele>217.0</ele><time>2026-03-29T19:56:08.913Z</time></trkpt><trkpt lat="45.6281923" lon="9.0303928"><ele>217.0</ele><time>2026-03-29T19:56:28.913Z</time></trkpt><trkpt lat="45.6282166" lon="9.030481"><ele>217.0</ele><time>2026-03-29T19:57:50.911Z</time></trkpt><trkpt lat="45.6281531" lon="9.0305135"><ele>217.0</ele><time>2026-03-29T19:58:00.911Z</time></trkpt><trkpt lat="45.6281946" lon="9.030443"><ele>217.0</ele><time>2026-03-29T19:59:12.912Z</time></trkpt><trkpt lat="45.628124" lon="9.0304527"><ele>217.0</ele><time>2026-03-29T19:59:51.912Z</time></trkpt><trkpt lat="45.6280888" lon="9.0305522"><ele>216.99999999999997</ele><time>2026-03-29T20:00:56.91Z</time></trkpt><trkpt lat="45.6281348" lon="9.0304671"><ele>217.0</ele><time>2026-03-29T20:01:09.567Z</time></trkpt><trkpt lat="45.6281197" lon="9.0303728"><ele>217.0</ele><time>2026-03-29T20:01:55.883Z</time></trkpt><trkpt lat="45.6281246" lon="9.0302286"><ele>217.0</ele><time>2026-03-29T20:02:15.911Z</time></trkpt><trkpt lat="45.6280973" lon="9.0303178"><ele>216.99999999999997</ele><time>2026-03-29T20:03:01.911Z</time></trkpt><trkpt lat="45.6280857" lon="9.0304115"><ele>217.0</ele><time>2026-03-29T20:04:47.91Z</time></trkpt><trkpt lat="45.6281081" lon="9.0303142"><ele>217.0</ele><time>2026-03-29T20:09:07.909Z</time></trkpt><trkpt lat="45.628119" lon="9.030218"><ele>217.0</ele><time>2026-03-29T20:09:16.909Z</time></trkpt></trkseg></trk></gpx>